<?xml version="1.0" encoding="utf-8"?>
<gpx xmlns:xsi="http://www.w3.org/2001/XMLSchema-instance" xmlns:xsd="http://www.w3.org/2001/XMLSchema" version="1.1" creator="Shapelink.com" xmlns="http://www.topografix.com/GPX/1/1" xmlns:gpxtpx="http://www.garmin.com/xmlschemas/TrackPointExtension/v1">
  <metadata>
    <name>Cykling 198.36 km, 2011-05-01</name>
    <desc></desc>
    <author><name>Jojje Borssén</name></author> 
    <time>2011-05-01T07:10:47Z</time>
  </metadata>
  <trk>
    <name>Cykling 198.36 km, 2011-05-01</name>
    <trkseg>
      <trkpt lat="59.2892589793" lon="17.9912189674">
        <ele>31.2</ele>
        <time>2011-05-01T07:10:47Z</time>
      </trkpt>
      <trkpt lat="59.2892149743" lon="17.9909939971">
        <ele>30.4</ele>
        <time>2011-05-01T07:10:49Z</time>
      </trkpt>
      <trkpt lat="59.2891529482" lon="17.9906329885">
        <ele>29.8</ele>
        <time>2011-05-01T07:10:52Z</time>
      </trkpt>
      <trkpt lat="59.2890869826" lon="17.990258988">
        <ele>29.8</ele>
        <time>2011-05-01T07:10:55Z</time>
      </trkpt>
      <trkpt lat="59.2890249565" lon="17.9898719955">
        <ele>29.8</ele>
        <time>2011-05-01T07:10:58Z</time>
      </trkpt>
      <trkpt lat="59.2889709771" lon="17.9894739389">
        <ele>29.4</ele>
        <time>2011-05-01T07:11:01Z</time>
      </trkpt>
      <trkpt lat="59.2889289837" lon="17.9890629742">
        <ele>28.8</ele>
        <time>2011-05-01T07:11:04Z</time>
      </trkpt>
      <trkpt lat="59.2888929415" lon="17.9886529315">
        <ele>29.8</ele>
        <time>2011-05-01T07:11:07Z</time>
      </trkpt>
      <trkpt lat="59.2888569832" lon="17.9882449843">
        <ele>29.8</ele>
        <time>2011-05-01T07:11:10Z</time>
      </trkpt>
      <trkpt lat="59.2888199352" lon="17.9878589977">
        <ele>30.4</ele>
        <time>2011-05-01T07:11:13Z</time>
      </trkpt>
      <trkpt lat="59.2887849826" lon="17.9874909483">
        <ele>31.8</ele>
        <time>2011-05-01T07:11:16Z</time>
      </trkpt>
      <trkpt lat="59.2887369543" lon="17.987133963">
        <ele>31.2</ele>
        <time>2011-05-01T07:11:19Z</time>
      </trkpt>
      <trkpt lat="59.2886609305" lon="17.9867729545">
        <ele>29.8</ele>
        <time>2011-05-01T07:11:22Z</time>
      </trkpt>
      <trkpt lat="59.2886269838" lon="17.9866519198">
        <ele>29.8</ele>
        <time>2011-05-01T07:11:23Z</time>
      </trkpt>
      <trkpt lat="59.2884349544" lon="17.9862069245">
        <ele>26.4</ele>
        <time>2011-05-01T07:11:27Z</time>
      </trkpt>
      <trkpt lat="59.2882519774" lon="17.9859169945">
        <ele>26</ele>
        <time>2011-05-01T07:11:30Z</time>
      </trkpt>
      <trkpt lat="59.2880919669" lon="17.9854279943">
        <ele>26</ele>
        <time>2011-05-01T07:11:34Z</time>
      </trkpt>
      <trkpt lat="59.2880859319" lon="17.9851469491">
        <ele>27</ele>
        <time>2011-05-01T07:11:36Z</time>
      </trkpt>
      <trkpt lat="59.2881069705" lon="17.9846409336">
        <ele>28.4</ele>
        <time>2011-05-01T07:11:40Z</time>
      </trkpt>
      <trkpt lat="59.2881149333" lon="17.9843039811">
        <ele>28.8</ele>
        <time>2011-05-01T07:11:43Z</time>
      </trkpt>
      <trkpt lat="59.288116945" lon="17.9839539528">
        <ele>28.8</ele>
        <time>2011-05-01T07:11:46Z</time>
      </trkpt>
      <trkpt lat="59.288103953" lon="17.9835829698">
        <ele>30.4</ele>
        <time>2011-05-01T07:11:49Z</time>
      </trkpt>
      <trkpt lat="59.2880839203" lon="17.9832209554">
        <ele>31.8</ele>
        <time>2011-05-01T07:11:52Z</time>
      </trkpt>
      <trkpt lat="59.2880609538" lon="17.9828779679">
        <ele>33.2</ele>
        <time>2011-05-01T07:11:55Z</time>
      </trkpt>
      <trkpt lat="59.2880429327" lon="17.9825479724">
        <ele>33.6</ele>
        <time>2011-05-01T07:11:58Z</time>
      </trkpt>
      <trkpt lat="59.2880239896" lon="17.9822299629">
        <ele>34.6</ele>
        <time>2011-05-01T07:12:01Z</time>
      </trkpt>
      <trkpt lat="59.288008986" lon="17.9819269571">
        <ele>34.6</ele>
        <time>2011-05-01T07:12:04Z</time>
      </trkpt>
      <trkpt lat="59.2880079802" lon="17.9816249572">
        <ele>35.2</ele>
        <time>2011-05-01T07:12:07Z</time>
      </trkpt>
      <trkpt lat="59.2880479619" lon="17.9812269844">
        <ele>35.2</ele>
        <time>2011-05-01T07:12:11Z</time>
      </trkpt>
      <trkpt lat="59.2880129255" lon="17.980820965">
        <ele>34.6</ele>
        <time>2011-05-01T07:12:15Z</time>
      </trkpt>
      <trkpt lat="59.2880009394" lon="17.9804489762">
        <ele>34.2</ele>
        <time>2011-05-01T07:12:18Z</time>
      </trkpt>
      <trkpt lat="59.2880389933" lon="17.9800459743">
        <ele>33.6</ele>
        <time>2011-05-01T07:12:21Z</time>
      </trkpt>
      <trkpt lat="59.2881339602" lon="17.9795039166">
        <ele>33.2</ele>
        <time>2011-05-01T07:12:25Z</time>
      </trkpt>
      <trkpt lat="59.2882089783" lon="17.979097981">
        <ele>31.2</ele>
        <time>2011-05-01T07:12:28Z</time>
      </trkpt>
      <trkpt lat="59.2882379796" lon="17.9789679777">
        <ele>31.2</ele>
        <time>2011-05-01T07:12:29Z</time>
      </trkpt>
      <trkpt lat="59.2883029394" lon="17.9787159339">
        <ele>32.2</ele>
        <time>2011-05-01T07:12:31Z</time>
      </trkpt>
      <trkpt lat="59.2883939669" lon="17.9783229902">
        <ele>31.8</ele>
        <time>2011-05-01T07:12:34Z</time>
      </trkpt>
      <trkpt lat="59.2884669732" lon="17.9779109359">
        <ele>31.8</ele>
        <time>2011-05-01T07:12:37Z</time>
      </trkpt>
      <trkpt lat="59.2885159235" lon="17.9774799384">
        <ele>30.8</ele>
        <time>2011-05-01T07:12:40Z</time>
      </trkpt>
      <trkpt lat="59.2885339446" lon="17.9770309199">
        <ele>30.4</ele>
        <time>2011-05-01T07:12:43Z</time>
      </trkpt>
      <trkpt lat="59.2885459308" lon="17.976569999">
        <ele>29.8</ele>
        <time>2011-05-01T07:12:46Z</time>
      </trkpt>
      <trkpt lat="59.2885509599" lon="17.9762599524">
        <ele>29.8</ele>
        <time>2011-05-01T07:12:48Z</time>
      </trkpt>
      <trkpt lat="59.2885539774" lon="17.9761029594">
        <ele>29.4</ele>
        <time>2011-05-01T07:12:49Z</time>
      </trkpt>
      <trkpt lat="59.2885599285" lon="17.9756409489">
        <ele>30.4</ele>
        <time>2011-05-01T07:12:52Z</time>
      </trkpt>
      <trkpt lat="59.2885649577" lon="17.9751919303">
        <ele>30.4</ele>
        <time>2011-05-01T07:12:55Z</time>
      </trkpt>
      <trkpt lat="59.2885719985" lon="17.9747519642">
        <ele>30.8</ele>
        <time>2011-05-01T07:12:58Z</time>
      </trkpt>
      <trkpt lat="59.2885789555" lon="17.9743169434">
        <ele>30.8</ele>
        <time>2011-05-01T07:13:01Z</time>
      </trkpt>
      <trkpt lat="59.2885859963" lon="17.9738809168">
        <ele>30.8</ele>
        <time>2011-05-01T07:13:04Z</time>
      </trkpt>
      <trkpt lat="59.2885899357" lon="17.973457966">
        <ele>30.4</ele>
        <time>2011-05-01T07:13:07Z</time>
      </trkpt>
      <trkpt lat="59.2885959707" lon="17.9730319977">
        <ele>30.4</ele>
        <time>2011-05-01T07:13:10Z</time>
      </trkpt>
      <trkpt lat="59.2886039335" lon="17.9725979827">
        <ele>31.2</ele>
        <time>2011-05-01T07:13:13Z</time>
      </trkpt>
      <trkpt lat="59.2886089627" lon="17.9721719306">
        <ele>32.2</ele>
        <time>2011-05-01T07:13:16Z</time>
      </trkpt>
      <trkpt lat="59.2886159196" lon="17.9717539251">
        <ele>32.8</ele>
        <time>2011-05-01T07:13:19Z</time>
      </trkpt>
      <trkpt lat="59.288619943" lon="17.971351929">
        <ele>33.2</ele>
        <time>2011-05-01T07:13:22Z</time>
      </trkpt>
      <trkpt lat="59.2886259779" lon="17.9709659424">
        <ele>33.6</ele>
        <time>2011-05-01T07:13:25Z</time>
      </trkpt>
      <trkpt lat="59.2886319291" lon="17.9705849849">
        <ele>34.2</ele>
        <time>2011-05-01T07:13:28Z</time>
      </trkpt>
      <trkpt lat="59.2886389699" lon="17.9701999202">
        <ele>35.2</ele>
        <time>2011-05-01T07:13:31Z</time>
      </trkpt>
      <trkpt lat="59.288644921" lon="17.9698069766">
        <ele>35.2</ele>
        <time>2011-05-01T07:13:34Z</time>
      </trkpt>
      <trkpt lat="59.288650956" lon="17.969407998">
        <ele>34.6</ele>
        <time>2011-05-01T07:13:37Z</time>
      </trkpt>
      <trkpt lat="59.288656991" lon="17.9690039903">
        <ele>34.6</ele>
        <time>2011-05-01T07:13:40Z</time>
      </trkpt>
      <trkpt lat="59.2886629421" lon="17.9685859848">
        <ele>34.6</ele>
        <time>2011-05-01T07:13:43Z</time>
      </trkpt>
      <trkpt lat="59.2886679713" lon="17.9681559931">
        <ele>33.6</ele>
        <time>2011-05-01T07:13:46Z</time>
      </trkpt>
      <trkpt lat="59.2886729166" lon="17.9677279294">
        <ele>33.6</ele>
        <time>2011-05-01T07:13:49Z</time>
      </trkpt>
      <trkpt lat="59.2886799574" lon="17.9672969319">
        <ele>34.2</ele>
        <time>2011-05-01T07:13:52Z</time>
      </trkpt>
      <trkpt lat="59.2886859924" lon="17.9668619949">
        <ele>34.2</ele>
        <time>2011-05-01T07:13:55Z</time>
      </trkpt>
      <trkpt lat="59.2886869982" lon="17.9667189997">
        <ele>34.2</ele>
        <time>2011-05-01T07:13:56Z</time>
      </trkpt>
      <trkpt lat="59.2886929493" lon="17.9662949592">
        <ele>33.6</ele>
        <time>2011-05-01T07:13:59Z</time>
      </trkpt>
      <trkpt lat="59.2886989843" lon="17.9658709187">
        <ele>34.2</ele>
        <time>2011-05-01T07:14:02Z</time>
      </trkpt>
      <trkpt lat="59.2887099646" lon="17.9654489737">
        <ele>34.6</ele>
        <time>2011-05-01T07:14:05Z</time>
      </trkpt>
      <trkpt lat="59.2887159996" lon="17.9650279507">
        <ele>34.6</ele>
        <time>2011-05-01T07:14:08Z</time>
      </trkpt>
      <trkpt lat="59.2887159996" lon="17.9645939358">
        <ele>34.2</ele>
        <time>2011-05-01T07:14:11Z</time>
      </trkpt>
      <trkpt lat="59.2887059413" lon="17.964182971">
        <ele>35.6</ele>
        <time>2011-05-01T07:14:14Z</time>
      </trkpt>
      <trkpt lat="59.2886019219" lon="17.9636649694">
        <ele>36</ele>
        <time>2011-05-01T07:14:18Z</time>
      </trkpt>
      <trkpt lat="59.2884349544" lon="17.9634069744">
        <ele>36</ele>
        <time>2011-05-01T07:14:21Z</time>
      </trkpt>
      <trkpt lat="59.2882289272" lon="17.9633259214">
        <ele>37</ele>
        <time>2011-05-01T07:14:24Z</time>
      </trkpt>
      <trkpt lat="59.2879629694" lon="17.96338493">
        <ele>37.6</ele>
        <time>2011-05-01T07:14:28Z</time>
      </trkpt>
      <trkpt lat="59.2877649888" lon="17.9634509794">
        <ele>38</ele>
        <time>2011-05-01T07:14:31Z</time>
      </trkpt>
      <trkpt lat="59.2875649966" lon="17.9635139275">
        <ele>38</ele>
        <time>2011-05-01T07:14:34Z</time>
      </trkpt>
      <trkpt lat="59.2873579636" lon="17.9635799769">
        <ele>38.4</ele>
        <time>2011-05-01T07:14:37Z</time>
      </trkpt>
      <trkpt lat="59.2871559598" lon="17.9636459425">
        <ele>38.4</ele>
        <time>2011-05-01T07:14:40Z</time>
      </trkpt>
      <trkpt lat="59.2869449873" lon="17.9637119919">
        <ele>38</ele>
        <time>2011-05-01T07:14:43Z</time>
      </trkpt>
      <trkpt lat="59.2868129723" lon="17.9637319408">
        <ele>39.4</ele>
        <time>2011-05-01T07:14:45Z</time>
      </trkpt>
      <trkpt lat="59.2865539715" lon="17.9636659753">
        <ele>40.8</ele>
        <time>2011-05-01T07:14:49Z</time>
      </trkpt>
      <trkpt lat="59.2862709984" lon="17.9633449484">
        <ele>42.4</ele>
        <time>2011-05-01T07:14:54Z</time>
      </trkpt>
      <trkpt lat="59.2861189507" lon="17.9631379992">
        <ele>42.8</ele>
        <time>2011-05-01T07:14:57Z</time>
      </trkpt>
      <trkpt lat="59.285965981" lon="17.962938929">
        <ele>42.8</ele>
        <time>2011-05-01T07:15:00Z</time>
      </trkpt>
      <trkpt lat="59.2858249974" lon="17.9627129529">
        <ele>43.2</ele>
        <time>2011-05-01T07:15:03Z</time>
      </trkpt>
      <trkpt lat="59.2856669985" lon="17.9625119548">
        <ele>42.8</ele>
        <time>2011-05-01T07:15:06Z</time>
      </trkpt>
      <trkpt lat="59.2854999471" lon="17.9623119626">
        <ele>42.8</ele>
        <time>2011-05-01T07:15:09Z</time>
      </trkpt>
      <trkpt lat="59.2853409424" lon="17.962126974">
        <ele>42.8</ele>
        <time>2011-05-01T07:15:12Z</time>
      </trkpt>
      <trkpt lat="59.2852559499" lon="17.9620999843">
        <ele>42.8</ele>
        <time>2011-05-01T07:15:13Z</time>
      </trkpt>
      <trkpt lat="59.2851199955" lon="17.9620219488">
        <ele>42.8</ele>
        <time>2011-05-01T07:15:15Z</time>
      </trkpt>
      <trkpt lat="59.2850319855" lon="17.9617279954">
        <ele>43.2</ele>
        <time>2011-05-01T07:15:18Z</time>
      </trkpt>
      <trkpt lat="59.2849969491" lon="17.9616169352">
        <ele>43.2</ele>
        <time>2011-05-01T07:15:19Z</time>
      </trkpt>
      <trkpt lat="59.2849479988" lon="17.961372938">
        <ele>42.8</ele>
        <time>2011-05-01T07:15:21Z</time>
      </trkpt>
      <trkpt lat="59.2849089392" lon="17.9609319661">
        <ele>42.4</ele>
        <time>2011-05-01T07:15:24Z</time>
      </trkpt>
      <trkpt lat="59.2848579772" lon="17.9604779184">
        <ele>41.8</ele>
        <time>2011-05-01T07:15:27Z</time>
      </trkpt>
      <trkpt lat="59.2848309875" lon="17.9603369348">
        <ele>41.8</ele>
        <time>2011-05-01T07:15:28Z</time>
      </trkpt>
      <trkpt lat="59.2848049197" lon="17.9601989686">
        <ele>40.8</ele>
        <time>2011-05-01T07:15:29Z</time>
      </trkpt>
      <trkpt lat="59.2847349308" lon="17.9597899318">
        <ele>40.4</ele>
        <time>2011-05-01T07:15:32Z</time>
      </trkpt>
      <trkpt lat="59.2846489325" lon="17.9593959823">
        <ele>40.4</ele>
        <time>2011-05-01T07:15:35Z</time>
      </trkpt>
      <trkpt lat="59.2845379561" lon="17.9590349738">
        <ele>40.4</ele>
        <time>2011-05-01T07:15:38Z</time>
      </trkpt>
      <trkpt lat="59.2844459228" lon="17.9588109255">
        <ele>39.4</ele>
        <time>2011-05-01T07:15:40Z</time>
      </trkpt>
      <trkpt lat="59.2842829786" lon="17.9585039802">
        <ele>37.6</ele>
        <time>2011-05-01T07:15:43Z</time>
      </trkpt>
      <trkpt lat="59.2840929609" lon="17.95826694">
        <ele>36</ele>
        <time>2011-05-01T07:15:46Z</time>
      </trkpt>
      <trkpt lat="59.2840159312" lon="17.9582079314">
        <ele>35.6</ele>
        <time>2011-05-01T07:15:47Z</time>
      </trkpt>
      <trkpt lat="59.2839569226" lon="17.958134925">
        <ele>35.6</ele>
        <time>2011-05-01T07:15:48Z</time>
      </trkpt>
      <trkpt lat="59.2838049587" lon="17.9578949511">
        <ele>34.6</ele>
        <time>2011-05-01T07:15:51Z</time>
      </trkpt>
      <trkpt lat="59.2837539967" lon="17.9578149877">
        <ele>34.2</ele>
        <time>2011-05-01T07:15:52Z</time>
      </trkpt>
      <trkpt lat="59.2837009393" lon="17.9577359464">
        <ele>33.6</ele>
        <time>2011-05-01T07:15:53Z</time>
      </trkpt>
      <trkpt lat="59.2835439462" lon="17.9574839864">
        <ele>34.2</ele>
        <time>2011-05-01T07:15:56Z</time>
      </trkpt>
      <trkpt lat="59.2833829299" lon="17.95723496">
        <ele>34.6</ele>
        <time>2011-05-01T07:15:59Z</time>
      </trkpt>
      <trkpt lat="59.2832419463" lon="17.9570889473">
        <ele>34.6</ele>
        <time>2011-05-01T07:16:01Z</time>
      </trkpt>
      <trkpt lat="59.2831139546" lon="17.9569619615">
        <ele>35.6</ele>
        <time>2011-05-01T07:16:03Z</time>
      </trkpt>
      <trkpt lat="59.2828599829" lon="17.9568359815">
        <ele>37</ele>
        <time>2011-05-01T07:16:07Z</time>
      </trkpt>
      <trkpt lat="59.2826789338" lon="17.9568369873">
        <ele>38.4</ele>
        <time>2011-05-01T07:16:10Z</time>
      </trkpt>
      <trkpt lat="59.282620931" lon="17.956839921">
        <ele>39</ele>
        <time>2011-05-01T07:16:11Z</time>
      </trkpt>
      <trkpt lat="59.2824539635" lon="17.9568169545">
        <ele>40.4</ele>
        <time>2011-05-01T07:16:14Z</time>
      </trkpt>
      <trkpt lat="59.2822389677" lon="17.9566529207">
        <ele>41.4</ele>
        <time>2011-05-01T07:16:18Z</time>
      </trkpt>
      <trkpt lat="59.2820579186" lon="17.956391992">
        <ele>42.8</ele>
        <time>2011-05-01T07:16:22Z</time>
      </trkpt>
      <trkpt lat="59.2819869239" lon="17.9562259465">
        <ele>43.2</ele>
        <time>2011-05-01T07:16:24Z</time>
      </trkpt>
      <trkpt lat="59.2818679847" lon="17.9558189213">
        <ele>43.2</ele>
        <time>2011-05-01T07:16:28Z</time>
      </trkpt>
      <trkpt lat="59.2817659769" lon="17.9554999899">
        <ele>43.2</ele>
        <time>2011-05-01T07:16:31Z</time>
      </trkpt>
      <trkpt lat="59.2816509772" lon="17.9551839922">
        <ele>43.8</ele>
        <time>2011-05-01T07:16:34Z</time>
      </trkpt>
      <trkpt lat="59.2815209739" lon="17.9548689164">
        <ele>43.8</ele>
        <time>2011-05-01T07:16:37Z</time>
      </trkpt>
      <trkpt lat="59.2813869473" lon="17.9545609653">
        <ele>43.8</ele>
        <time>2011-05-01T07:16:40Z</time>
      </trkpt>
      <trkpt lat="59.2813459598" lon="17.9544539284">
        <ele>43.8</ele>
        <time>2011-05-01T07:16:41Z</time>
      </trkpt>
      <trkpt lat="59.2813039664" lon="17.954342952">
        <ele>43.2</ele>
        <time>2011-05-01T07:16:42Z</time>
      </trkpt>
      <trkpt lat="59.2811749689" lon="17.9540149681">
        <ele>44.2</ele>
        <time>2011-05-01T07:16:45Z</time>
      </trkpt>
      <trkpt lat="59.2810409423" lon="17.9537029937">
        <ele>43.2</ele>
        <time>2011-05-01T07:16:48Z</time>
      </trkpt>
      <trkpt lat="59.2809159681" lon="17.9533819668">
        <ele>43.8</ele>
        <time>2011-05-01T07:16:51Z</time>
      </trkpt>
      <trkpt lat="59.280784959" lon="17.9530599341">
        <ele>43.8</ele>
        <time>2011-05-01T07:16:54Z</time>
      </trkpt>
      <trkpt lat="59.2806509323" lon="17.9527199641">
        <ele>43.2</ele>
        <time>2011-05-01T07:16:57Z</time>
      </trkpt>
      <trkpt lat="59.2806079332" lon="17.9525929783">
        <ele>42.8</ele>
        <time>2011-05-01T07:16:58Z</time>
      </trkpt>
      <trkpt lat="59.2805039976" lon="17.9519569594">
        <ele>40.4</ele>
        <time>2011-05-01T07:17:02Z</time>
      </trkpt>
      <trkpt lat="59.2805009801" lon="17.9515859764">
        <ele>39</ele>
        <time>2011-05-01T07:17:04Z</time>
      </trkpt>
      <trkpt lat="59.2805119604" lon="17.9513989761">
        <ele>37</ele>
        <time>2011-05-01T07:17:05Z</time>
      </trkpt>
      <trkpt lat="59.2805489246" lon="17.9510189407">
        <ele>36.6</ele>
        <time>2011-05-01T07:17:07Z</time>
      </trkpt>
      <trkpt lat="59.2806029879" lon="17.9504499771">
        <ele>34.6</ele>
        <time>2011-05-01T07:17:10Z</time>
      </trkpt>
      <trkpt lat="59.2806389462" lon="17.9500799999">
        <ele>32.8</ele>
        <time>2011-05-01T07:17:12Z</time>
      </trkpt>
      <trkpt lat="59.2806789279" lon="17.9495149758">
        <ele>31.2</ele>
        <time>2011-05-01T07:17:15Z</time>
      </trkpt>
      <trkpt lat="59.2806889862" lon="17.9493239522">
        <ele>30.8</ele>
        <time>2011-05-01T07:17:16Z</time>
      </trkpt>
      <trkpt lat="59.2807239387" lon="17.9487569164">
        <ele>31.2</ele>
        <time>2011-05-01T07:17:19Z</time>
      </trkpt>
      <trkpt lat="59.2807489168" lon="17.9483979195">
        <ele>31.8</ele>
        <time>2011-05-01T07:17:21Z</time>
      </trkpt>
      <trkpt lat="59.2807829473" lon="17.9478769843">
        <ele>33.2</ele>
        <time>2011-05-01T07:17:24Z</time>
      </trkpt>
      <trkpt lat="59.2808029801" lon="17.9473979585">
        <ele>34.6</ele>
        <time>2011-05-01T07:17:27Z</time>
      </trkpt>
      <trkpt lat="59.2808039859" lon="17.9472509399">
        <ele>35.2</ele>
        <time>2011-05-01T07:17:28Z</time>
      </trkpt>
      <trkpt lat="59.2807999626" lon="17.9471079446">
        <ele>35.2</ele>
        <time>2011-05-01T07:17:29Z</time>
      </trkpt>
      <trkpt lat="59.2807689495" lon="17.9467039369">
        <ele>35.6</ele>
        <time>2011-05-01T07:17:32Z</time>
      </trkpt>
      <trkpt lat="59.2807019781" lon="17.9463109933">
        <ele>37</ele>
        <time>2011-05-01T07:17:35Z</time>
      </trkpt>
      <trkpt lat="59.2806109507" lon="17.9459279403">
        <ele>37.6</ele>
        <time>2011-05-01T07:17:38Z</time>
      </trkpt>
      <trkpt lat="59.2805079371" lon="17.9455849528">
        <ele>39</ele>
        <time>2011-05-01T07:17:41Z</time>
      </trkpt>
      <trkpt lat="59.2803989723" lon="17.9452499282">
        <ele>39.4</ele>
        <time>2011-05-01T07:17:44Z</time>
      </trkpt>
      <trkpt lat="59.2803249601" lon="17.9450239521">
        <ele>40.4</ele>
        <time>2011-05-01T07:17:46Z</time>
      </trkpt>
      <trkpt lat="59.2802129779" lon="17.9446729179">
        <ele>40</ele>
        <time>2011-05-01T07:17:49Z</time>
      </trkpt>
      <trkpt lat="59.2801099643" lon="17.9442939721">
        <ele>38.4</ele>
        <time>2011-05-01T07:17:52Z</time>
      </trkpt>
      <trkpt lat="59.2800739221" lon="17.9441589396">
        <ele>38</ele>
        <time>2011-05-01T07:17:53Z</time>
      </trkpt>
      <trkpt lat="59.2799599282" lon="17.94374194">
        <ele>36</ele>
        <time>2011-05-01T07:17:56Z</time>
      </trkpt>
      <trkpt lat="59.2798549868" lon="17.9433379322">
        <ele>34.6</ele>
        <time>2011-05-01T07:17:59Z</time>
      </trkpt>
      <trkpt lat="59.2798049469" lon="17.9430669453">
        <ele>34.2</ele>
        <time>2011-05-01T07:18:01Z</time>
      </trkpt>
      <trkpt lat="59.2797819804" lon="17.9427679628">
        <ele>33.2</ele>
        <time>2011-05-01T07:18:03Z</time>
      </trkpt>
      <trkpt lat="59.2796629574" lon="17.9423609376">
        <ele>32.2</ele>
        <time>2011-05-01T07:18:06Z</time>
      </trkpt>
      <trkpt lat="59.2796039488" lon="17.9422379751">
        <ele>31.2</ele>
        <time>2011-05-01T07:18:07Z</time>
      </trkpt>
      <trkpt lat="59.2794119194" lon="17.9416279402">
        <ele>29.8</ele>
        <time>2011-05-01T07:18:11Z</time>
      </trkpt>
      <trkpt lat="59.2792829219" lon="17.9411369283">
        <ele>28.8</ele>
        <time>2011-05-01T07:18:14Z</time>
      </trkpt>
      <trkpt lat="59.2792419344" lon="17.9409739841">
        <ele>28.8</ele>
        <time>2011-05-01T07:18:15Z</time>
      </trkpt>
      <trkpt lat="59.2791189719" lon="17.94049697">
        <ele>29.4</ele>
        <time>2011-05-01T07:18:18Z</time>
      </trkpt>
      <trkpt lat="59.2790029664" lon="17.9400389828">
        <ele>29.4</ele>
        <time>2011-05-01T07:18:21Z</time>
      </trkpt>
      <trkpt lat="59.2789099272" lon="17.9395919759">
        <ele>28.8</ele>
        <time>2011-05-01T07:18:24Z</time>
      </trkpt>
      <trkpt lat="59.278885955" lon="17.9394399282">
        <ele>27.4</ele>
        <time>2011-05-01T07:18:25Z</time>
      </trkpt>
      <trkpt lat="59.2787149642" lon="17.938855961">
        <ele>27.4</ele>
        <time>2011-05-01T07:18:29Z</time>
      </trkpt>
      <trkpt lat="59.2785419617" lon="17.9382389691">
        <ele>28.8</ele>
        <time>2011-05-01T07:18:33Z</time>
      </trkpt>
      <trkpt lat="59.2784279678" lon="17.9377789702">
        <ele>28.8</ele>
        <time>2011-05-01T07:18:36Z</time>
      </trkpt>
      <trkpt lat="59.2783899978" lon="17.93762994">
        <ele>29.4</ele>
        <time>2011-05-01T07:18:37Z</time>
      </trkpt>
      <trkpt lat="59.2783519439" lon="17.9374819994">
        <ele>28.8</ele>
        <time>2011-05-01T07:18:38Z</time>
      </trkpt>
      <trkpt lat="59.2782419734" lon="17.9370529298">
        <ele>29.4</ele>
        <time>2011-05-01T07:18:41Z</time>
      </trkpt>
      <trkpt lat="59.2781349365" lon="17.9366409592">
        <ele>29.4</ele>
        <time>2011-05-01T07:18:44Z</time>
      </trkpt>
      <trkpt lat="59.2780259717" lon="17.9362279829">
        <ele>29.8</ele>
        <time>2011-05-01T07:18:47Z</time>
      </trkpt>
      <trkpt lat="59.277923964" lon="17.9358179402">
        <ele>29.8</ele>
        <time>2011-05-01T07:18:50Z</time>
      </trkpt>
      <trkpt lat="59.2778249737" lon="17.9354329593">
        <ele>30.8</ele>
        <time>2011-05-01T07:18:53Z</time>
      </trkpt>
      <trkpt lat="59.2777299229" lon="17.9350549355">
        <ele>31.2</ele>
        <time>2011-05-01T07:18:56Z</time>
      </trkpt>
      <trkpt lat="59.2776309326" lon="17.9346569628">
        <ele>31.2</ele>
        <time>2011-05-01T07:18:59Z</time>
      </trkpt>
      <trkpt lat="59.2775649671" lon="17.93438497">
        <ele>31.8</ele>
        <time>2011-05-01T07:19:01Z</time>
      </trkpt>
      <trkpt lat="59.2775309365" lon="17.934245998">
        <ele>31.2</ele>
        <time>2011-05-01T07:19:02Z</time>
      </trkpt>
      <trkpt lat="59.2774259951" lon="17.933837967">
        <ele>30.8</ele>
        <time>2011-05-01T07:19:05Z</time>
      </trkpt>
      <trkpt lat="59.277244946" lon="17.9331349768">
        <ele>30.4</ele>
        <time>2011-05-01T07:19:10Z</time>
      </trkpt>
      <trkpt lat="59.2771369871" lon="17.9327109363">
        <ele>29.8</ele>
        <time>2011-05-01T07:19:13Z</time>
      </trkpt>
      <trkpt lat="59.2770299502" lon="17.9322899971">
        <ele>30.4</ele>
        <time>2011-05-01T07:19:16Z</time>
      </trkpt>
      <trkpt lat="59.2769229971" lon="17.9318689741">
        <ele>30.4</ele>
        <time>2011-05-01T07:19:19Z</time>
      </trkpt>
      <trkpt lat="59.2768179718" lon="17.931448957">
        <ele>30.4</ele>
        <time>2011-05-01T07:19:22Z</time>
      </trkpt>
      <trkpt lat="59.2767119408" lon="17.9310269281">
        <ele>31.2</ele>
        <time>2011-05-01T07:19:25Z</time>
      </trkpt>
      <trkpt lat="59.2766769882" lon="17.930888962">
        <ele>31.2</ele>
        <time>2011-05-01T07:19:26Z</time>
      </trkpt>
      <trkpt lat="59.2765729688" lon="17.9304849543">
        <ele>31.8</ele>
        <time>2011-05-01T07:19:29Z</time>
      </trkpt>
      <trkpt lat="59.276470961" lon="17.9300989676">
        <ele>32.8</ele>
        <time>2011-05-01T07:19:32Z</time>
      </trkpt>
      <trkpt lat="59.2763739824" lon="17.9297179263">
        <ele>33.6</ele>
        <time>2011-05-01T07:19:35Z</time>
      </trkpt>
      <trkpt lat="59.2762819491" lon="17.929341998">
        <ele>34.6</ele>
        <time>2011-05-01T07:19:38Z</time>
      </trkpt>
      <trkpt lat="59.2761939391" lon="17.9289719369">
        <ele>35.2</ele>
        <time>2011-05-01T07:19:41Z</time>
      </trkpt>
      <trkpt lat="59.2761409655" lon="17.9287109245">
        <ele>35.6</ele>
        <time>2011-05-01T07:19:43Z</time>
      </trkpt>
      <trkpt lat="59.2760659475" lon="17.9283099342">
        <ele>36.6</ele>
        <time>2011-05-01T07:19:46Z</time>
      </trkpt>
      <trkpt lat="59.2759929411" lon="17.9279269651">
        <ele>36.6</ele>
        <time>2011-05-01T07:19:49Z</time>
      </trkpt>
      <trkpt lat="59.2759249639" lon="17.9275489412">
        <ele>36.6</ele>
        <time>2011-05-01T07:19:52Z</time>
      </trkpt>
      <trkpt lat="59.2758709844" lon="17.9271819815">
        <ele>35.6</ele>
        <time>2011-05-01T07:19:55Z</time>
      </trkpt>
      <trkpt lat="59.275804935" lon="17.9267569352">
        <ele>36.6</ele>
        <time>2011-05-01T07:19:58Z</time>
      </trkpt>
      <trkpt lat="59.2757419869" lon="17.9263499938">
        <ele>36</ele>
        <time>2011-05-01T07:20:01Z</time>
      </trkpt>
      <trkpt lat="59.2756839842" lon="17.9259479977">
        <ele>36</ele>
        <time>2011-05-01T07:20:04Z</time>
      </trkpt>
      <trkpt lat="59.2756219581" lon="17.9255479295">
        <ele>36</ele>
        <time>2011-05-01T07:20:07Z</time>
      </trkpt>
      <trkpt lat="59.275552975" lon="17.9251569975">
        <ele>36</ele>
        <time>2011-05-01T07:20:10Z</time>
      </trkpt>
      <trkpt lat="59.2755279969" lon="17.9250259884">
        <ele>35.6</ele>
        <time>2011-05-01T07:20:11Z</time>
      </trkpt>
      <trkpt lat="59.2753949761" lon="17.9245149437">
        <ele>34.6</ele>
        <time>2011-05-01T07:20:15Z</time>
      </trkpt>
      <trkpt lat="59.2752899509" lon="17.9241289571">
        <ele>33.6</ele>
        <time>2011-05-01T07:20:18Z</time>
      </trkpt>
      <trkpt lat="59.2752549984" lon="17.9239929188">
        <ele>33.6</ele>
        <time>2011-05-01T07:20:19Z</time>
      </trkpt>
      <trkpt lat="59.2752179503" lon="17.9238559585">
        <ele>32.8</ele>
        <time>2011-05-01T07:20:20Z</time>
      </trkpt>
      <trkpt lat="59.2751439381" lon="17.9235789366">
        <ele>31.2</ele>
        <time>2011-05-01T07:20:22Z</time>
      </trkpt>
      <trkpt lat="59.2750359792" lon="17.9231629428">
        <ele>31.8</ele>
        <time>2011-05-01T07:20:25Z</time>
      </trkpt>
      <trkpt lat="59.2749329656" lon="17.922727">
        <ele>30.8</ele>
        <time>2011-05-01T07:20:28Z</time>
      </trkpt>
      <trkpt lat="59.2748169601" lon="17.9222799931">
        <ele>28.8</ele>
        <time>2011-05-01T07:20:31Z</time>
      </trkpt>
      <trkpt lat="59.2747159582" lon="17.9218459781">
        <ele>28.4</ele>
        <time>2011-05-01T07:20:34Z</time>
      </trkpt>
      <trkpt lat="59.2746189795" lon="17.9214249551">
        <ele>28.4</ele>
        <time>2011-05-01T07:20:37Z</time>
      </trkpt>
      <trkpt lat="59.2745299637" lon="17.9210149962">
        <ele>28</ele>
        <time>2011-05-01T07:20:40Z</time>
      </trkpt>
      <trkpt lat="59.2744939215" lon="17.9206129164">
        <ele>27.4</ele>
        <time>2011-05-01T07:20:43Z</time>
      </trkpt>
      <trkpt lat="59.2743179854" lon="17.9203349724">
        <ele>26</ele>
        <time>2011-05-01T07:20:47Z</time>
      </trkpt>
      <trkpt lat="59.2741149757" lon="17.9205169436">
        <ele>25.6</ele>
        <time>2011-05-01T07:20:50Z</time>
      </trkpt>
      <trkpt lat="59.2738839705" lon="17.9204719327">
        <ele>24</ele>
        <time>2011-05-01T07:20:53Z</time>
      </trkpt>
      <trkpt lat="59.2736619338" lon="17.9202499799">
        <ele>23.6</ele>
        <time>2011-05-01T07:20:56Z</time>
      </trkpt>
      <trkpt lat="59.2734709941" lon="17.9199569486">
        <ele>23.6</ele>
        <time>2011-05-01T07:20:59Z</time>
      </trkpt>
      <trkpt lat="59.2733159289" lon="17.9194739833">
        <ele>24</ele>
        <time>2011-05-01T07:21:03Z</time>
      </trkpt>
      <trkpt lat="59.2731999233" lon="17.9191129748">
        <ele>24</ele>
        <time>2011-05-01T07:21:06Z</time>
      </trkpt>
      <trkpt lat="59.2729589436" lon="17.9186669737">
        <ele>23.2</ele>
        <time>2011-05-01T07:21:10Z</time>
      </trkpt>
      <trkpt lat="59.2727949936" lon="17.9183219746">
        <ele>24</ele>
        <time>2011-05-01T07:21:13Z</time>
      </trkpt>
      <trkpt lat="59.2726459634" lon="17.9179689288">
        <ele>24</ele>
        <time>2011-05-01T07:21:16Z</time>
      </trkpt>
      <trkpt lat="59.2724949215" lon="17.9176369216">
        <ele>24.6</ele>
        <time>2011-05-01T07:21:19Z</time>
      </trkpt>
      <trkpt lat="59.2721989565" lon="17.9172999691">
        <ele>25.6</ele>
        <time>2011-05-01T07:21:23Z</time>
      </trkpt>
      <trkpt lat="59.2720589787" lon="17.9169579875">
        <ele>26.4</ele>
        <time>2011-05-01T07:21:26Z</time>
      </trkpt>
      <trkpt lat="59.2719489243" lon="17.9166069534">
        <ele>27</ele>
        <time>2011-05-01T07:21:29Z</time>
      </trkpt>
      <trkpt lat="59.2718379479" lon="17.9162619542">
        <ele>27</ele>
        <time>2011-05-01T07:21:32Z</time>
      </trkpt>
      <trkpt lat="59.2717279773" lon="17.9159189668">
        <ele>28</ele>
        <time>2011-05-01T07:21:35Z</time>
      </trkpt>
      <trkpt lat="59.2716639396" lon="17.9155469779">
        <ele>28</ele>
        <time>2011-05-01T07:21:38Z</time>
      </trkpt>
      <trkpt lat="59.2715969682" lon="17.9152009729">
        <ele>28.4</ele>
        <time>2011-05-01T07:21:41Z</time>
      </trkpt>
      <trkpt lat="59.2714449205" lon="17.9147969652">
        <ele>27.4</ele>
        <time>2011-05-01T07:21:45Z</time>
      </trkpt>
      <trkpt lat="59.271352971" lon="17.9145729169">
        <ele>26.4</ele>
        <time>2011-05-01T07:21:47Z</time>
      </trkpt>
      <trkpt lat="59.271308966" lon="17.9144509602">
        <ele>26.4</ele>
        <time>2011-05-01T07:21:48Z</time>
      </trkpt>
      <trkpt lat="59.2711719219" lon="17.9140729364">
        <ele>26</ele>
        <time>2011-05-01T07:21:51Z</time>
      </trkpt>
      <trkpt lat="59.2710279208" lon="17.9136949964">
        <ele>26</ele>
        <time>2011-05-01T07:21:54Z</time>
      </trkpt>
      <trkpt lat="59.2708639707" lon="17.9133409448">
        <ele>25.6</ele>
        <time>2011-05-01T07:21:57Z</time>
      </trkpt>
      <trkpt lat="59.2706839275" lon="17.9130179901">
        <ele>25</ele>
        <time>2011-05-01T07:22:00Z</time>
      </trkpt>
      <trkpt lat="59.2704899702" lon="17.9127239529">
        <ele>25</ele>
        <time>2011-05-01T07:22:03Z</time>
      </trkpt>
      <trkpt lat="59.270289978" lon="17.9124689754">
        <ele>23.2</ele>
        <time>2011-05-01T07:22:06Z</time>
      </trkpt>
      <trkpt lat="59.2702229228" lon="17.9123899341">
        <ele>23.2</ele>
        <time>2011-05-01T07:22:07Z</time>
      </trkpt>
      <trkpt lat="59.2700879741" lon="17.9122419935">
        <ele>23.6</ele>
        <time>2011-05-01T07:22:09Z</time>
      </trkpt>
      <trkpt lat="59.2700209189" lon="17.9121699929">
        <ele>23.6</ele>
        <time>2011-05-01T07:22:10Z</time>
      </trkpt>
      <trkpt lat="59.2698839586" lon="17.9120399896">
        <ele>23.6</ele>
        <time>2011-05-01T07:22:12Z</time>
      </trkpt>
      <trkpt lat="59.2697459925" lon="17.9119249899">
        <ele>23.6</ele>
        <time>2011-05-01T07:22:14Z</time>
      </trkpt>
      <trkpt lat="59.269535942" lon="17.911779983">
        <ele>23.6</ele>
        <time>2011-05-01T07:22:17Z</time>
      </trkpt>
      <trkpt lat="59.2693329323" lon="17.911616955">
        <ele>24.6</ele>
        <time>2011-05-01T07:22:20Z</time>
      </trkpt>
      <trkpt lat="59.2690439243" lon="17.9116009455">
        <ele>23.6</ele>
        <time>2011-05-01T07:22:24Z</time>
      </trkpt>
      <trkpt lat="59.2688149307" lon="17.9116429389">
        <ele>24</ele>
        <time>2011-05-01T07:22:27Z</time>
      </trkpt>
      <trkpt lat="59.2687389906" lon="17.9116509855">
        <ele>24</ele>
        <time>2011-05-01T07:22:28Z</time>
      </trkpt>
      <trkpt lat="59.2685109191" lon="17.9116729461">
        <ele>24</ele>
        <time>2011-05-01T07:22:31Z</time>
      </trkpt>
      <trkpt lat="59.2682819255" lon="17.9117099941">
        <ele>24.6</ele>
        <time>2011-05-01T07:22:34Z</time>
      </trkpt>
      <trkpt lat="59.2680549435" lon="17.9117459524">
        <ele>24</ele>
        <time>2011-05-01T07:22:37Z</time>
      </trkpt>
      <trkpt lat="59.2678259499" lon="17.9117819946">
        <ele>24</ele>
        <time>2011-05-01T07:22:40Z</time>
      </trkpt>
      <trkpt lat="59.2676729802" lon="17.9118129238">
        <ele>24</ele>
        <time>2011-05-01T07:22:42Z</time>
      </trkpt>
      <trkpt lat="59.2675969563" lon="17.9118229821">
        <ele>24</ele>
        <time>2011-05-01T07:22:43Z</time>
      </trkpt>
      <trkpt lat="59.2674479261" lon="17.9118459485">
        <ele>25</ele>
        <time>2011-05-01T07:22:45Z</time>
      </trkpt>
      <trkpt lat="59.2673759256" lon="17.9118549172">
        <ele>25.6</ele>
        <time>2011-05-01T07:22:46Z</time>
      </trkpt>
      <trkpt lat="59.2672399711" lon="17.9118699208">
        <ele>26.4</ele>
        <time>2011-05-01T07:22:48Z</time>
      </trkpt>
      <trkpt lat="59.2671109736" lon="17.9118799791">
        <ele>27.4</ele>
        <time>2011-05-01T07:22:50Z</time>
      </trkpt>
      <trkpt lat="59.2669229675" lon="17.9119029455">
        <ele>28.8</ele>
        <time>2011-05-01T07:22:53Z</time>
      </trkpt>
      <trkpt lat="59.2668059561" lon="17.9119229782">
        <ele>29.8</ele>
        <time>2011-05-01T07:22:55Z</time>
      </trkpt>
      <trkpt lat="59.266630942" lon="17.911943933">
        <ele>30.8</ele>
        <time>2011-05-01T07:22:58Z</time>
      </trkpt>
      <trkpt lat="59.2665749509" lon="17.9119489621">
        <ele>31.2</ele>
        <time>2011-05-01T07:22:59Z</time>
      </trkpt>
      <trkpt lat="59.2665189598" lon="17.9119549971">
        <ele>31.8</ele>
        <time>2011-05-01T07:23:00Z</time>
      </trkpt>
      <trkpt lat="59.2664639745" lon="17.9119619541">
        <ele>32.2</ele>
        <time>2011-05-01T07:23:01Z</time>
      </trkpt>
      <trkpt lat="59.2663539201" lon="17.9119759519">
        <ele>32.2</ele>
        <time>2011-05-01T07:23:03Z</time>
      </trkpt>
      <trkpt lat="59.2661879584" lon="17.911987938">
        <ele>33.2</ele>
        <time>2011-05-01T07:23:06Z</time>
      </trkpt>
      <trkpt lat="59.2660799995" lon="17.9119769577">
        <ele>33.2</ele>
        <time>2011-05-01T07:23:08Z</time>
      </trkpt>
      <trkpt lat="59.2658599745" lon="17.9120259918">
        <ele>33.2</ele>
        <time>2011-05-01T07:23:12Z</time>
      </trkpt>
      <trkpt lat="59.2656749859" lon="17.9120809771">
        <ele>33.2</ele>
        <time>2011-05-01T07:23:15Z</time>
      </trkpt>
      <trkpt lat="59.2654869799" lon="17.9121149238">
        <ele>33.2</ele>
        <time>2011-05-01T07:23:18Z</time>
      </trkpt>
      <trkpt lat="59.2652939446" lon="17.912144931">
        <ele>33.2</ele>
        <time>2011-05-01T07:23:21Z</time>
      </trkpt>
      <trkpt lat="59.2650939524" lon="17.9121669754">
        <ele>33.2</ele>
        <time>2011-05-01T07:23:24Z</time>
      </trkpt>
      <trkpt lat="59.2648929544" lon="17.9121939652">
        <ele>33.6</ele>
        <time>2011-05-01T07:23:27Z</time>
      </trkpt>
      <trkpt lat="59.2646959797" lon="17.9122169316">
        <ele>33.6</ele>
        <time>2011-05-01T07:23:30Z</time>
      </trkpt>
      <trkpt lat="59.2644979991" lon="17.9122099746">
        <ele>33.6</ele>
        <time>2011-05-01T07:23:33Z</time>
      </trkpt>
      <trkpt lat="59.2642489728" lon="17.9120229743">
        <ele>34.2</ele>
        <time>2011-05-01T07:23:37Z</time>
      </trkpt>
      <trkpt lat="59.2641509883" lon="17.9116609599">
        <ele>34.6</ele>
        <time>2011-05-01T07:23:40Z</time>
      </trkpt>
      <trkpt lat="59.2641359847" lon="17.9115199763">
        <ele>34.6</ele>
        <time>2011-05-01T07:23:41Z</time>
      </trkpt>
      <trkpt lat="59.2641129345" lon="17.9109329917">
        <ele>34.6</ele>
        <time>2011-05-01T07:23:45Z</time>
      </trkpt>
      <trkpt lat="59.2641039658" lon="17.9104819614">
        <ele>34.6</ele>
        <time>2011-05-01T07:23:48Z</time>
      </trkpt>
      <trkpt lat="59.2640819214" lon="17.9100299254">
        <ele>33.6</ele>
        <time>2011-05-01T07:23:51Z</time>
      </trkpt>
      <trkpt lat="59.2640449572" lon="17.9095949885">
        <ele>34.2</ele>
        <time>2011-05-01T07:23:54Z</time>
      </trkpt>
      <trkpt lat="59.2639859486" lon="17.9091759771">
        <ele>34.2</ele>
        <time>2011-05-01T07:23:57Z</time>
      </trkpt>
      <trkpt lat="59.2639009561" lon="17.9087719694">
        <ele>34.6</ele>
        <time>2011-05-01T07:24:00Z</time>
      </trkpt>
      <trkpt lat="59.2637839448" lon="17.9083829653">
        <ele>35.2</ele>
        <time>2011-05-01T07:24:03Z</time>
      </trkpt>
      <trkpt lat="59.2636349984" lon="17.9080549814">
        <ele>35.2</ele>
        <time>2011-05-01T07:24:06Z</time>
      </trkpt>
      <trkpt lat="59.2635299731" lon="17.90784996">
        <ele>36</ele>
        <time>2011-05-01T07:24:08Z</time>
      </trkpt>
      <trkpt lat="59.2633679509" lon="17.9075469542">
        <ele>36</ele>
        <time>2011-05-01T07:24:11Z</time>
      </trkpt>
      <trkpt lat="59.2632129695" lon="17.9072549287">
        <ele>37</ele>
        <time>2011-05-01T07:24:14Z</time>
      </trkpt>
      <trkpt lat="59.2630709801" lon="17.9069869593">
        <ele>38</ele>
        <time>2011-05-01T07:24:17Z</time>
      </trkpt>
      <trkpt lat="59.2629389651" lon="17.906730976">
        <ele>39</ele>
        <time>2011-05-01T07:24:20Z</time>
      </trkpt>
      <trkpt lat="59.2628099676" lon="17.9064819496">
        <ele>39.4</ele>
        <time>2011-05-01T07:24:23Z</time>
      </trkpt>
      <trkpt lat="59.2626879271" lon="17.9062289838">
        <ele>40.4</ele>
        <time>2011-05-01T07:24:26Z</time>
      </trkpt>
      <trkpt lat="59.2625729274" lon="17.9059849866">
        <ele>41.8</ele>
        <time>2011-05-01T07:24:29Z</time>
      </trkpt>
      <trkpt lat="59.262461951" lon="17.9057449289">
        <ele>42.4</ele>
        <time>2011-05-01T07:24:32Z</time>
      </trkpt>
      <trkpt lat="59.2623449396" lon="17.9055109899">
        <ele>42.8</ele>
        <time>2011-05-01T07:24:35Z</time>
      </trkpt>
      <trkpt lat="59.2622259166" lon="17.9052819964">
        <ele>43.2</ele>
        <time>2011-05-01T07:24:38Z</time>
      </trkpt>
      <trkpt lat="59.2621109169" lon="17.9050499853">
        <ele>44.2</ele>
        <time>2011-05-01T07:24:41Z</time>
      </trkpt>
      <trkpt lat="59.2620739527" lon="17.9049699381">
        <ele>44.2</ele>
        <time>2011-05-01T07:24:42Z</time>
      </trkpt>
      <trkpt lat="59.2619669996" lon="17.9046019726">
        <ele>45.2</ele>
        <time>2011-05-01T07:24:46Z</time>
      </trkpt>
      <trkpt lat="59.2617979366" lon="17.9043039959">
        <ele>45.2</ele>
        <time>2011-05-01T07:24:50Z</time>
      </trkpt>
      <trkpt lat="59.261649996" lon="17.9041079432">
        <ele>45.6</ele>
        <time>2011-05-01T07:24:53Z</time>
      </trkpt>
      <trkpt lat="59.2615159694" lon="17.9038769379">
        <ele>47.2</ele>
        <time>2011-05-01T07:24:56Z</time>
      </trkpt>
      <trkpt lat="59.2613839544" lon="17.9036219604">
        <ele>47.6</ele>
        <time>2011-05-01T07:24:59Z</time>
      </trkpt>
      <trkpt lat="59.2612549569" lon="17.9033459444">
        <ele>48.6</ele>
        <time>2011-05-01T07:25:02Z</time>
      </trkpt>
      <trkpt lat="59.2611329164" lon="17.9030549247">
        <ele>49</ele>
        <time>2011-05-01T07:25:05Z</time>
      </trkpt>
      <trkpt lat="59.2610179167" lon="17.9027449619">
        <ele>49.6</ele>
        <time>2011-05-01T07:25:08Z</time>
      </trkpt>
      <trkpt lat="59.2609139811" lon="17.9024359211">
        <ele>50.6</ele>
        <time>2011-05-01T07:25:11Z</time>
      </trkpt>
      <trkpt lat="59.2608219478" lon="17.9021299817">
        <ele>50.6</ele>
        <time>2011-05-01T07:25:14Z</time>
      </trkpt>
      <trkpt lat="59.2607479356" lon="17.9018179234">
        <ele>50</ele>
        <time>2011-05-01T07:25:17Z</time>
      </trkpt>
      <trkpt lat="59.2607029248" lon="17.9016109742">
        <ele>51.4</ele>
        <time>2011-05-01T07:25:19Z</time>
      </trkpt>
      <trkpt lat="59.2606469337" lon="17.9012819845">
        <ele>51.4</ele>
        <time>2011-05-01T07:25:22Z</time>
      </trkpt>
      <trkpt lat="59.260612987" lon="17.9009339679">
        <ele>52.4</ele>
        <time>2011-05-01T07:25:25Z</time>
      </trkpt>
      <trkpt lat="59.2605919484" lon="17.9005839396">
        <ele>53</ele>
        <time>2011-05-01T07:25:28Z</time>
      </trkpt>
      <trkpt lat="59.2605929542" lon="17.900235923">
        <ele>53.4</ele>
        <time>2011-05-01T07:25:31Z</time>
      </trkpt>
      <trkpt lat="59.2606089637" lon="17.9000089411">
        <ele>54.4</ele>
        <time>2011-05-01T07:25:33Z</time>
      </trkpt>
      <trkpt lat="59.2607029248" lon="17.8996029217">
        <ele>55.8</ele>
        <time>2011-05-01T07:25:37Z</time>
      </trkpt>
      <trkpt lat="59.2608159967" lon="17.8993459325">
        <ele>55.4</ele>
        <time>2011-05-01T07:25:40Z</time>
      </trkpt>
      <trkpt lat="59.2608939484" lon="17.899028929">
        <ele>55.8</ele>
        <time>2011-05-01T07:25:43Z</time>
      </trkpt>
      <trkpt lat="59.2610829603" lon="17.8985469695">
        <ele>55.4</ele>
        <time>2011-05-01T07:25:48Z</time>
      </trkpt>
      <trkpt lat="59.2611329164" lon="17.898468934">
        <ele>55.4</ele>
        <time>2011-05-01T07:25:49Z</time>
      </trkpt>
      <trkpt lat="59.2613549531" lon="17.8981949296">
        <ele>55.4</ele>
        <time>2011-05-01T07:25:53Z</time>
      </trkpt>
      <trkpt lat="59.2615409475" lon="17.8980319854">
        <ele>55.4</ele>
        <time>2011-05-01T07:25:56Z</time>
      </trkpt>
      <trkpt lat="59.261744963" lon="17.897921931">
        <ele>54.4</ele>
        <time>2011-05-01T07:25:59Z</time>
      </trkpt>
      <trkpt lat="59.2618849408" lon="17.8978549596">
        <ele>53.4</ele>
        <time>2011-05-01T07:26:01Z</time>
      </trkpt>
      <trkpt lat="59.2621029541" lon="17.897757981">
        <ele>52</ele>
        <time>2011-05-01T07:26:04Z</time>
      </trkpt>
      <trkpt lat="59.2623289302" lon="17.8976509441">
        <ele>52</ele>
        <time>2011-05-01T07:26:07Z</time>
      </trkpt>
      <trkpt lat="59.2625639588" lon="17.8975499421">
        <ele>50.6</ele>
        <time>2011-05-01T07:26:10Z</time>
      </trkpt>
      <trkpt lat="59.2627969757" lon="17.8974389657">
        <ele>50</ele>
        <time>2011-05-01T07:26:13Z</time>
      </trkpt>
      <trkpt lat="59.2630229518" lon="17.8973359521">
        <ele>49.6</ele>
        <time>2011-05-01T07:26:16Z</time>
      </trkpt>
      <trkpt lat="59.2632389534" lon="17.8972469363">
        <ele>49.6</ele>
        <time>2011-05-01T07:26:19Z</time>
      </trkpt>
      <trkpt lat="59.2633079365" lon="17.8972309269">
        <ele>49.6</ele>
        <time>2011-05-01T07:26:20Z</time>
      </trkpt>
      <trkpt lat="59.2634439748" lon="17.8972449247">
        <ele>49.6</ele>
        <time>2011-05-01T07:26:22Z</time>
      </trkpt>
      <trkpt lat="59.2637029756" lon="17.8970979899">
        <ele>49.6</ele>
        <time>2011-05-01T07:26:26Z</time>
      </trkpt>
      <trkpt lat="59.264027942" lon="17.8968189564">
        <ele>49.6</ele>
        <time>2011-05-01T07:26:31Z</time>
      </trkpt>
      <trkpt lat="59.264241932" lon="17.8967159428">
        <ele>49.6</ele>
        <time>2011-05-01T07:26:34Z</time>
      </trkpt>
      <trkpt lat="59.2644599453" lon="17.8966099955">
        <ele>48.2</ele>
        <time>2011-05-01T07:26:37Z</time>
      </trkpt>
      <trkpt lat="59.2646849994" lon="17.8965199739">
        <ele>47.6</ele>
        <time>2011-05-01T07:26:40Z</time>
      </trkpt>
      <trkpt lat="59.2649189383" lon="17.8964539245">
        <ele>46.2</ele>
        <time>2011-05-01T07:26:43Z</time>
      </trkpt>
      <trkpt lat="59.2651619297" lon="17.89640598">
        <ele>45.6</ele>
        <time>2011-05-01T07:26:46Z</time>
      </trkpt>
      <trkpt lat="59.2654159851" lon="17.8963839356">
        <ele>42.8</ele>
        <time>2011-05-01T07:26:49Z</time>
      </trkpt>
      <trkpt lat="59.2656509299" lon="17.8964769747">
        <ele>42.4</ele>
        <time>2011-05-01T07:26:52Z</time>
      </trkpt>
      <trkpt lat="59.2658409476" lon="17.8962469753">
        <ele>43.2</ele>
        <time>2011-05-01T07:26:56Z</time>
      </trkpt>
      <trkpt lat="59.2658119462" lon="17.8959949315">
        <ele>43.8</ele>
        <time>2011-05-01T07:26:58Z</time>
      </trkpt>
      <trkpt lat="59.2657299712" lon="17.8954869881">
        <ele>43.2</ele>
        <time>2011-05-01T07:27:02Z</time>
      </trkpt>
      <trkpt lat="59.2655829526" lon="17.8950199485">
        <ele>41.8</ele>
        <time>2011-05-01T07:27:06Z</time>
      </trkpt>
      <trkpt lat="59.2653889954" lon="17.8947469499">
        <ele>41.4</ele>
        <time>2011-05-01T07:27:09Z</time>
      </trkpt>
      <trkpt lat="59.2652309965" lon="17.8946619574">
        <ele>40.4</ele>
        <time>2011-05-01T07:27:11Z</time>
      </trkpt>
      <trkpt lat="59.2648779508" lon="17.8945749532">
        <ele>39</ele>
        <time>2011-05-01T07:27:15Z</time>
      </trkpt>
      <trkpt lat="59.2645929661" lon="17.8944939841">
        <ele>38.4</ele>
        <time>2011-05-01T07:27:18Z</time>
      </trkpt>
      <trkpt lat="59.2643109988" lon="17.8944109194">
        <ele>39</ele>
        <time>2011-05-01T07:27:21Z</time>
      </trkpt>
      <trkpt lat="59.2640379164" lon="17.8942949977">
        <ele>40.4</ele>
        <time>2011-05-01T07:27:24Z</time>
      </trkpt>
      <trkpt lat="59.2638679314" lon="17.8941659164">
        <ele>40.4</ele>
        <time>2011-05-01T07:27:26Z</time>
      </trkpt>
      <trkpt lat="59.2635809351" lon="17.8937659319">
        <ele>40</ele>
        <time>2011-05-01T07:27:30Z</time>
      </trkpt>
      <trkpt lat="59.2633599881" lon="17.8932209406">
        <ele>39.4</ele>
        <time>2011-05-01T07:27:34Z</time>
      </trkpt>
      <trkpt lat="59.263222944" lon="17.8927819803">
        <ele>39.4</ele>
        <time>2011-05-01T07:27:37Z</time>
      </trkpt>
      <trkpt lat="59.2630929407" lon="17.8923439421">
        <ele>39</ele>
        <time>2011-05-01T07:27:40Z</time>
      </trkpt>
      <trkpt lat="59.2629609257" lon="17.8919059876">
        <ele>39</ele>
        <time>2011-05-01T07:27:43Z</time>
      </trkpt>
      <trkpt lat="59.2628339399" lon="17.8914479166">
        <ele>38</ele>
        <time>2011-05-01T07:27:46Z</time>
      </trkpt>
      <trkpt lat="59.2627939582" lon="17.8912859783">
        <ele>37</ele>
        <time>2011-05-01T07:27:47Z</time>
      </trkpt>
      <trkpt lat="59.2627309263" lon="17.890558932">
        <ele>35.2</ele>
        <time>2011-05-01T07:27:51Z</time>
      </trkpt>
      <trkpt lat="59.2628259771" lon="17.890004972">
        <ele>34.2</ele>
        <time>2011-05-01T07:27:54Z</time>
      </trkpt>
      <trkpt lat="59.2628809623" lon="17.8898429498">
        <ele>33.6</ele>
        <time>2011-05-01T07:27:55Z</time>
      </trkpt>
      <trkpt lat="59.2631099559" lon="17.8892459907">
        <ele>32.8</ele>
        <time>2011-05-01T07:27:59Z</time>
      </trkpt>
      <trkpt lat="59.2632219382" lon="17.8889439907">
        <ele>31.2</ele>
        <time>2011-05-01T07:28:01Z</time>
      </trkpt>
      <trkpt lat="59.2634009756" lon="17.8884719219">
        <ele>31.8</ele>
        <time>2011-05-01T07:28:04Z</time>
      </trkpt>
      <trkpt lat="59.2634489201" lon="17.888313923">
        <ele>30.8</ele>
        <time>2011-05-01T07:28:05Z</time>
      </trkpt>
      <trkpt lat="59.2635299731" lon="17.8876449633">
        <ele>31.8</ele>
        <time>2011-05-01T07:28:09Z</time>
      </trkpt>
      <trkpt lat="59.2635369301" lon="17.8869489301">
        <ele>30.8</ele>
        <time>2011-05-01T07:28:13Z</time>
      </trkpt>
      <trkpt lat="59.2635349184" lon="17.8864219598">
        <ele>30.8</ele>
        <time>2011-05-01T07:28:16Z</time>
      </trkpt>
      <trkpt lat="59.2635329906" lon="17.8858979233">
        <ele>29.4</ele>
        <time>2011-05-01T07:28:19Z</time>
      </trkpt>
      <trkpt lat="59.2635259498" lon="17.8853759822">
        <ele>29.8</ele>
        <time>2011-05-01T07:28:22Z</time>
      </trkpt>
      <trkpt lat="59.2635209206" lon="17.8850239422">
        <ele>28.4</ele>
        <time>2011-05-01T07:28:24Z</time>
      </trkpt>
      <trkpt lat="59.2635189928" lon="17.8844669648">
        <ele>25</ele>
        <time>2011-05-01T07:28:27Z</time>
      </trkpt>
      <trkpt lat="59.2635189928" lon="17.8838759568">
        <ele>21.2</ele>
        <time>2011-05-01T07:28:30Z</time>
      </trkpt>
      <trkpt lat="59.2635269556" lon="17.8832439613">
        <ele>20.2</ele>
        <time>2011-05-01T07:28:33Z</time>
      </trkpt>
      <trkpt lat="59.2635279614" lon="17.8826149832">
        <ele>18.4</ele>
        <time>2011-05-01T07:28:36Z</time>
      </trkpt>
      <trkpt lat="59.2635239381" lon="17.8819599375">
        <ele>15.8</ele>
        <time>2011-05-01T07:28:39Z</time>
      </trkpt>
      <trkpt lat="59.2635219265" lon="17.8815059736">
        <ele>14</ele>
        <time>2011-05-01T07:28:41Z</time>
      </trkpt>
      <trkpt lat="59.263504995" lon="17.881044969">
        <ele>11</ele>
        <time>2011-05-01T07:28:43Z</time>
      </trkpt>
      <trkpt lat="59.2634049989" lon="17.8803679626">
        <ele>7.8</ele>
        <time>2011-05-01T07:28:46Z</time>
      </trkpt>
      <trkpt lat="59.2632909212" lon="17.8799459338">
        <ele>6.2</ele>
        <time>2011-05-01T07:28:48Z</time>
      </trkpt>
      <trkpt lat="59.2631419748" lon="17.8795629647">
        <ele>4.8</ele>
        <time>2011-05-01T07:28:50Z</time>
      </trkpt>
      <trkpt lat="59.2629529629" lon="17.8792139422">
        <ele>3</ele>
        <time>2011-05-01T07:28:52Z</time>
      </trkpt>
      <trkpt lat="59.2627369612" lon="17.8789449669">
        <ele>2</ele>
        <time>2011-05-01T07:28:54Z</time>
      </trkpt>
      <trkpt lat="59.262498999" lon="17.8787469864">
        <ele>0</ele>
        <time>2011-05-01T07:28:56Z</time>
      </trkpt>
      <trkpt lat="59.2622469552" lon="17.8786339983">
        <ele>0</ele>
        <time>2011-05-01T07:28:58Z</time>
      </trkpt>
      <trkpt lat="59.2619819194" lon="17.8786139656">
        <ele>0</ele>
        <time>2011-05-01T07:29:00Z</time>
      </trkpt>
      <trkpt lat="59.2615909874" lon="17.8786419611">
        <ele>0</ele>
        <time>2011-05-01T07:29:03Z</time>
      </trkpt>
      <trkpt lat="59.2613389436" lon="17.8786719684">
        <ele>0</ele>
        <time>2011-05-01T07:29:05Z</time>
      </trkpt>
      <trkpt lat="59.2610949464" lon="17.8787079267">
        <ele>0</ele>
        <time>2011-05-01T07:29:07Z</time>
      </trkpt>
      <trkpt lat="59.260977935" lon="17.8787279595">
        <ele>0</ele>
        <time>2011-05-01T07:29:08Z</time>
      </trkpt>
      <trkpt lat="59.2608629353" lon="17.878755955">
        <ele>0</ele>
        <time>2011-05-01T07:29:09Z</time>
      </trkpt>
      <trkpt lat="59.2605369631" lon="17.8789109364">
        <ele>0</ele>
        <time>2011-05-01T07:29:12Z</time>
      </trkpt>
      <trkpt lat="59.2602279224" lon="17.8791039716">
        <ele>0</ele>
        <time>2011-05-01T07:29:15Z</time>
      </trkpt>
      <trkpt lat="59.2599379923" lon="17.8792889602">
        <ele>0</ele>
        <time>2011-05-01T07:29:18Z</time>
      </trkpt>
      <trkpt lat="59.2596629821" lon="17.8794599511">
        <ele>0</ele>
        <time>2011-05-01T07:29:21Z</time>
      </trkpt>
      <trkpt lat="59.2594019696" lon="17.8796309419">
        <ele>0</ele>
        <time>2011-05-01T07:29:24Z</time>
      </trkpt>
      <trkpt lat="59.2591599841" lon="17.8798129968">
        <ele>0</ele>
        <time>2011-05-01T07:29:27Z</time>
      </trkpt>
      <trkpt lat="59.258927973" lon="17.8799869213">
        <ele>0</ele>
        <time>2011-05-01T07:29:30Z</time>
      </trkpt>
      <trkpt lat="59.2586779408" lon="17.8801409807">
        <ele>0</ele>
        <time>2011-05-01T07:29:33Z</time>
      </trkpt>
      <trkpt lat="59.2580769584" lon="17.8804519493">
        <ele>0</ele>
        <time>2011-05-01T07:29:40Z</time>
      </trkpt>
      <trkpt lat="59.257827932" lon="17.8805809468">
        <ele>0</ele>
        <time>2011-05-01T07:29:43Z</time>
      </trkpt>
      <trkpt lat="59.2575869523" lon="17.880704999">
        <ele>0</ele>
        <time>2011-05-01T07:29:46Z</time>
      </trkpt>
      <trkpt lat="59.2573439609" lon="17.880786974">
        <ele>0</ele>
        <time>2011-05-01T07:29:49Z</time>
      </trkpt>
      <trkpt lat="59.2570989579" lon="17.8808539454">
        <ele>0</ele>
        <time>2011-05-01T07:29:52Z</time>
      </trkpt>
      <trkpt lat="59.2568699643" lon="17.880956959">
        <ele>0</ele>
        <time>2011-05-01T07:29:55Z</time>
      </trkpt>
      <trkpt lat="59.2566489335" lon="17.8810719587">
        <ele>1</ele>
        <time>2011-05-01T07:29:58Z</time>
      </trkpt>
      <trkpt lat="59.2564429902" lon="17.8811679315">
        <ele>2.4</ele>
        <time>2011-05-01T07:30:01Z</time>
      </trkpt>
      <trkpt lat="59.2563079577" lon="17.8812429495">
        <ele>3</ele>
        <time>2011-05-01T07:30:03Z</time>
      </trkpt>
      <trkpt lat="59.2561709974" lon="17.8812999465">
        <ele>3.8</ele>
        <time>2011-05-01T07:30:05Z</time>
      </trkpt>
      <trkpt lat="59.2558949813" lon="17.8813179675">
        <ele>6.2</ele>
        <time>2011-05-01T07:30:09Z</time>
      </trkpt>
      <trkpt lat="59.2556879483" lon="17.8812619764">
        <ele>7.2</ele>
        <time>2011-05-01T07:30:12Z</time>
      </trkpt>
      <trkpt lat="59.2554879561" lon="17.8811699431">
        <ele>8.6</ele>
        <time>2011-05-01T07:30:15Z</time>
      </trkpt>
      <trkpt lat="59.2553619761" lon="17.881088974">
        <ele>9.2</ele>
        <time>2011-05-01T07:30:17Z</time>
      </trkpt>
      <trkpt lat="59.2551199906" lon="17.8808219265">
        <ele>10.2</ele>
        <time>2011-05-01T07:30:21Z</time>
      </trkpt>
      <trkpt lat="59.2550639994" lon="17.8807309829">
        <ele>9.6</ele>
        <time>2011-05-01T07:30:22Z</time>
      </trkpt>
      <trkpt lat="59.2548979539" lon="17.8802759293">
        <ele>9.6</ele>
        <time>2011-05-01T07:30:26Z</time>
      </trkpt>
      <trkpt lat="59.2548389453" lon="17.8798679821">
        <ele>8.6</ele>
        <time>2011-05-01T07:30:29Z</time>
      </trkpt>
      <trkpt lat="59.2548639234" lon="17.8793709353">
        <ele>8.2</ele>
        <time>2011-05-01T07:30:32Z</time>
      </trkpt>
      <trkpt lat="59.2548799329" lon="17.8791999444">
        <ele>8.2</ele>
        <time>2011-05-01T07:30:33Z</time>
      </trkpt>
      <trkpt lat="59.2549959384" lon="17.878472982">
        <ele>6.2</ele>
        <time>2011-05-01T07:30:37Z</time>
      </trkpt>
      <trkpt lat="59.2550789192" lon="17.8779299185">
        <ele>3.4</ele>
        <time>2011-05-01T07:30:40Z</time>
      </trkpt>
      <trkpt lat="59.2551459745" lon="17.8773809876">
        <ele>1</ele>
        <time>2011-05-01T07:30:43Z</time>
      </trkpt>
      <trkpt lat="59.255180927" lon="17.8768159635">
        <ele>0.6</ele>
        <time>2011-05-01T07:30:46Z</time>
      </trkpt>
      <trkpt lat="59.2551709525" lon="17.8762809467">
        <ele>0</ele>
        <time>2011-05-01T07:30:49Z</time>
      </trkpt>
      <trkpt lat="59.2551449686" lon="17.875775937">
        <ele>0</ele>
        <time>2011-05-01T07:30:52Z</time>
      </trkpt>
      <trkpt lat="59.2551059928" lon="17.8752629645">
        <ele>0</ele>
        <time>2011-05-01T07:30:55Z</time>
      </trkpt>
      <trkpt lat="59.2550849542" lon="17.8750909679">
        <ele>0</ele>
        <time>2011-05-01T07:30:56Z</time>
      </trkpt>
      <trkpt lat="59.2550579645" lon="17.8749219887">
        <ele>0</ele>
        <time>2011-05-01T07:30:57Z</time>
      </trkpt>
      <trkpt lat="59.2549789231" lon="17.8745959327">
        <ele>0</ele>
        <time>2011-05-01T07:30:59Z</time>
      </trkpt>
      <trkpt lat="59.2547819484" lon="17.8741829563">
        <ele>0</ele>
        <time>2011-05-01T07:31:02Z</time>
      </trkpt>
      <trkpt lat="59.2545209359" lon="17.874001991">
        <ele>0</ele>
        <time>2011-05-01T07:31:05Z</time>
      </trkpt>
      <trkpt lat="59.2541699857" lon="17.8739229497">
        <ele>0</ele>
        <time>2011-05-01T07:31:09Z</time>
      </trkpt>
      <trkpt lat="59.2538259923" lon="17.8740229458">
        <ele>0</ele>
        <time>2011-05-01T07:31:13Z</time>
      </trkpt>
      <trkpt lat="59.253576966" lon="17.8741569724">
        <ele>0</ele>
        <time>2011-05-01T07:31:16Z</time>
      </trkpt>
      <trkpt lat="59.2533489782" lon="17.8743429668">
        <ele>0</ele>
        <time>2011-05-01T07:31:19Z</time>
      </trkpt>
      <trkpt lat="59.2531429511" lon="17.8746039793">
        <ele>0</ele>
        <time>2011-05-01T07:31:22Z</time>
      </trkpt>
      <trkpt lat="59.2529469822" lon="17.8749049734">
        <ele>0</ele>
        <time>2011-05-01T07:31:25Z</time>
      </trkpt>
      <trkpt lat="59.2527599819" lon="17.8752179537">
        <ele>0</ele>
        <time>2011-05-01T07:31:28Z</time>
      </trkpt>
      <trkpt lat="59.2525729816" lon="17.8755229712">
        <ele>0</ele>
        <time>2011-05-01T07:31:31Z</time>
      </trkpt>
      <trkpt lat="59.2522859853" lon="17.8758179303">
        <ele>0</ele>
        <time>2011-05-01T07:31:35Z</time>
      </trkpt>
      <trkpt lat="59.2520489451" lon="17.8759499453">
        <ele>0</ele>
        <time>2011-05-01T07:31:38Z</time>
      </trkpt>
      <trkpt lat="59.2517189495" lon="17.8759779409">
        <ele>0</ele>
        <time>2011-05-01T07:31:42Z</time>
      </trkpt>
      <trkpt lat="59.2514689174" lon="17.8759139869">
        <ele>0</ele>
        <time>2011-05-01T07:31:45Z</time>
      </trkpt>
      <trkpt lat="59.2512219865" lon="17.8758359514">
        <ele>0</ele>
        <time>2011-05-01T07:31:48Z</time>
      </trkpt>
      <trkpt lat="59.250980923" lon="17.8757599276">
        <ele>0</ele>
        <time>2011-05-01T07:31:51Z</time>
      </trkpt>
      <trkpt lat="59.2508299649" lon="17.8756989911">
        <ele>0</ele>
        <time>2011-05-01T07:31:53Z</time>
      </trkpt>
      <trkpt lat="59.2506089341" lon="17.8753809817">
        <ele>0</ele>
        <time>2011-05-01T07:31:57Z</time>
      </trkpt>
      <trkpt lat="59.2505829502" lon="17.8750839271">
        <ele>0</ele>
        <time>2011-05-01T07:31:59Z</time>
      </trkpt>
      <trkpt lat="59.2505789269" lon="17.8746139538">
        <ele>0</ele>
        <time>2011-05-01T07:32:02Z</time>
      </trkpt>
      <trkpt lat="59.2505189963" lon="17.8739989735">
        <ele>0</ele>
        <time>2011-05-01T07:32:06Z</time>
      </trkpt>
      <trkpt lat="59.2504359316" lon="17.8735649586">
        <ele>0</ele>
        <time>2011-05-01T07:32:09Z</time>
      </trkpt>
      <trkpt lat="59.2503299844" lon="17.8731579334">
        <ele>0</ele>
        <time>2011-05-01T07:32:12Z</time>
      </trkpt>
      <trkpt lat="59.250206938" lon="17.8727689292">
        <ele>0.6</ele>
        <time>2011-05-01T07:32:15Z</time>
      </trkpt>
      <trkpt lat="59.2500769347" lon="17.8723959345">
        <ele>0.6</ele>
        <time>2011-05-01T07:32:18Z</time>
      </trkpt>
      <trkpt lat="59.249948943" lon="17.872014977">
        <ele>1.4</ele>
        <time>2011-05-01T07:32:21Z</time>
      </trkpt>
      <trkpt lat="59.24982992" lon="17.8716139868">
        <ele>0.6</ele>
        <time>2011-05-01T07:32:24Z</time>
      </trkpt>
      <trkpt lat="59.2497289181" lon="17.8711879347">
        <ele>0.6</ele>
        <time>2011-05-01T07:32:27Z</time>
      </trkpt>
      <trkpt lat="59.2496509664" lon="17.8707349766">
        <ele>0</ele>
        <time>2011-05-01T07:32:30Z</time>
      </trkpt>
      <trkpt lat="59.2496029381" lon="17.8702559508">
        <ele>0</ele>
        <time>2011-05-01T07:32:33Z</time>
      </trkpt>
      <trkpt lat="59.2495809775" lon="17.8697689623">
        <ele>0</ele>
        <time>2011-05-01T07:32:36Z</time>
      </trkpt>
      <trkpt lat="59.2495859228" lon="17.8692659643">
        <ele>0</ele>
        <time>2011-05-01T07:32:39Z</time>
      </trkpt>
      <trkpt lat="59.249621965" lon="17.8687679954">
        <ele>0</ele>
        <time>2011-05-01T07:32:42Z</time>
      </trkpt>
      <trkpt lat="59.2496839911" lon="17.8682969324">
        <ele>0</ele>
        <time>2011-05-01T07:32:45Z</time>
      </trkpt>
      <trkpt lat="59.2497529741" lon="17.8678489197">
        <ele>0</ele>
        <time>2011-05-01T07:32:48Z</time>
      </trkpt>
      <trkpt lat="59.2498249747" lon="17.8674089536">
        <ele>0.6</ele>
        <time>2011-05-01T07:32:51Z</time>
      </trkpt>
      <trkpt lat="59.2499089614" lon="17.8669559956">
        <ele>1.4</ele>
        <time>2011-05-01T07:32:54Z</time>
      </trkpt>
      <trkpt lat="59.2499759328" lon="17.8665479645">
        <ele>3</ele>
        <time>2011-05-01T07:32:57Z</time>
      </trkpt>
      <trkpt lat="59.250030918" lon="17.8661499918">
        <ele>3.4</ele>
        <time>2011-05-01T07:33:00Z</time>
      </trkpt>
      <trkpt lat="59.2500639427" lon="17.8658919968">
        <ele>4.4</ele>
        <time>2011-05-01T07:33:02Z</time>
      </trkpt>
      <trkpt lat="59.2500799522" lon="17.8657669388">
        <ele>4.4</ele>
        <time>2011-05-01T07:33:03Z</time>
      </trkpt>
      <trkpt lat="59.2500989791" lon="17.8656429704">
        <ele>4.8</ele>
        <time>2011-05-01T07:33:04Z</time>
      </trkpt>
      <trkpt lat="59.2502499372" lon="17.8652329277">
        <ele>5.4</ele>
        <time>2011-05-01T07:33:08Z</time>
      </trkpt>
      <trkpt lat="59.2503279727" lon="17.8649029322">
        <ele>6.2</ele>
        <time>2011-05-01T07:33:11Z</time>
      </trkpt>
      <trkpt lat="59.2503339238" lon="17.8647829872">
        <ele>7.2</ele>
        <time>2011-05-01T07:33:12Z</time>
      </trkpt>
      <trkpt lat="59.2503489275" lon="17.8644329589">
        <ele>7.8</ele>
        <time>2011-05-01T07:33:15Z</time>
      </trkpt>
      <trkpt lat="59.250426963" lon="17.8639469761">
        <ele>8.6</ele>
        <time>2011-05-01T07:33:19Z</time>
      </trkpt>
      <trkpt lat="59.250495946" lon="17.8635879792">
        <ele>9.6</ele>
        <time>2011-05-01T07:33:22Z</time>
      </trkpt>
      <trkpt lat="59.2505209241" lon="17.8634679504">
        <ele>10.2</ele>
        <time>2011-05-01T07:33:23Z</time>
      </trkpt>
      <trkpt lat="59.2505909968" lon="17.8631109651">
        <ele>10.6</ele>
        <time>2011-05-01T07:33:26Z</time>
      </trkpt>
      <trkpt lat="59.2506629974" lon="17.8627679776">
        <ele>12.6</ele>
        <time>2011-05-01T07:33:29Z</time>
      </trkpt>
      <trkpt lat="59.2507359199" lon="17.8624289297">
        <ele>13</ele>
        <time>2011-05-01T07:33:32Z</time>
      </trkpt>
      <trkpt lat="59.2508079205" lon="17.8620889597">
        <ele>13.4</ele>
        <time>2011-05-01T07:33:35Z</time>
      </trkpt>
      <trkpt lat="59.2508819327" lon="17.8617679328">
        <ele>14.4</ele>
        <time>2011-05-01T07:33:38Z</time>
      </trkpt>
      <trkpt lat="59.2509569507" lon="17.861444978">
        <ele>15</ele>
        <time>2011-05-01T07:33:41Z</time>
      </trkpt>
      <trkpt lat="59.2510319687" lon="17.8611289803">
        <ele>15.8</ele>
        <time>2011-05-01T07:33:44Z</time>
      </trkpt>
      <trkpt lat="59.2511049751" lon="17.860822957">
        <ele>16.8</ele>
        <time>2011-05-01T07:33:47Z</time>
      </trkpt>
      <trkpt lat="59.251174964" lon="17.860526992">
        <ele>17.4</ele>
        <time>2011-05-01T07:33:50Z</time>
      </trkpt>
      <trkpt lat="59.2512379959" lon="17.8602259979">
        <ele>18.4</ele>
        <time>2011-05-01T07:33:53Z</time>
      </trkpt>
      <trkpt lat="59.2513049673" lon="17.8599329665">
        <ele>18.8</ele>
        <time>2011-05-01T07:33:56Z</time>
      </trkpt>
      <trkpt lat="59.2513309512" lon="17.8598399274">
        <ele>19.8</ele>
        <time>2011-05-01T07:33:57Z</time>
      </trkpt>
      <trkpt lat="59.2514739465" lon="17.8595499974">
        <ele>20.2</ele>
        <time>2011-05-01T07:34:01Z</time>
      </trkpt>
      <trkpt lat="59.2515139282" lon="17.8594849538">
        <ele>20.2</ele>
        <time>2011-05-01T07:34:02Z</time>
      </trkpt>
      <trkpt lat="59.2515639681" lon="17.8590509389">
        <ele>21.6</ele>
        <time>2011-05-01T07:34:07Z</time>
      </trkpt>
      <trkpt lat="59.2514019459" lon="17.8588559758">
        <ele>22.2</ele>
        <time>2011-05-01T07:34:11Z</time>
      </trkpt>
      <trkpt lat="59.251168929" lon="17.8585759364">
        <ele>21.2</ele>
        <time>2011-05-01T07:34:16Z</time>
      </trkpt>
      <trkpt lat="59.251061976" lon="17.8582789656">
        <ele>21.2</ele>
        <time>2011-05-01T07:34:19Z</time>
      </trkpt>
      <trkpt lat="59.2510319687" lon="17.8581639659">
        <ele>22.2</ele>
        <time>2011-05-01T07:34:20Z</time>
      </trkpt>
      <trkpt lat="59.2509429529" lon="17.8576639853">
        <ele>22.6</ele>
        <time>2011-05-01T07:34:24Z</time>
      </trkpt>
      <trkpt lat="59.2509039771" lon="17.8572609834">
        <ele>22.6</ele>
        <time>2011-05-01T07:34:27Z</time>
      </trkpt>
      <trkpt lat="59.2508669291" lon="17.8568399604">
        <ele>22.6</ele>
        <time>2011-05-01T07:34:30Z</time>
      </trkpt>
      <trkpt lat="59.250828959" lon="17.8564229608">
        <ele>22.2</ele>
        <time>2011-05-01T07:34:33Z</time>
      </trkpt>
      <trkpt lat="59.2507969402" lon="17.8560059611">
        <ele>22.2</ele>
        <time>2011-05-01T07:34:36Z</time>
      </trkpt>
      <trkpt lat="59.2507629935" lon="17.8555859439">
        <ele>21.6</ele>
        <time>2011-05-01T07:34:39Z</time>
      </trkpt>
      <trkpt lat="59.2507149652" lon="17.8551249392">
        <ele>21.6</ele>
        <time>2011-05-01T07:34:42Z</time>
      </trkpt>
      <trkpt lat="59.250665931" lon="17.8546919301">
        <ele>21.2</ele>
        <time>2011-05-01T07:34:45Z</time>
      </trkpt>
      <trkpt lat="59.2505999655" lon="17.854264956">
        <ele>21.2</ele>
        <time>2011-05-01T07:34:48Z</time>
      </trkpt>
      <trkpt lat="59.2505229358" lon="17.8538349643">
        <ele>20.8</ele>
        <time>2011-05-01T07:34:51Z</time>
      </trkpt>
      <trkpt lat="59.2504369374" lon="17.8534009494">
        <ele>20.8</ele>
        <time>2011-05-01T07:34:54Z</time>
      </trkpt>
      <trkpt lat="59.2503289785" lon="17.8529409505">
        <ele>20.8</ele>
        <time>2011-05-01T07:34:57Z</time>
      </trkpt>
      <trkpt lat="59.2502909247" lon="17.8527919203">
        <ele>20.8</ele>
        <time>2011-05-01T07:34:58Z</time>
      </trkpt>
      <trkpt lat="59.2501649447" lon="17.8523419797">
        <ele>20.2</ele>
        <time>2011-05-01T07:35:01Z</time>
      </trkpt>
      <trkpt lat="59.2500269786" lon="17.8519109823">
        <ele>19.8</ele>
        <time>2011-05-01T07:35:04Z</time>
      </trkpt>
      <trkpt lat="59.2498779483" lon="17.8514909651">
        <ele>18.8</ele>
        <time>2011-05-01T07:35:07Z</time>
      </trkpt>
      <trkpt lat="59.2497219611" lon="17.8510659188">
        <ele>17.8</ele>
        <time>2011-05-01T07:35:10Z</time>
      </trkpt>
      <trkpt lat="59.2495669797" lon="17.8506339993">
        <ele>16.4</ele>
        <time>2011-05-01T07:35:13Z</time>
      </trkpt>
      <trkpt lat="59.2494069692" lon="17.8501989786">
        <ele>15.8</ele>
        <time>2011-05-01T07:35:16Z</time>
      </trkpt>
      <trkpt lat="59.2492459528" lon="17.8497529775">
        <ele>15</ele>
        <time>2011-05-01T07:35:19Z</time>
      </trkpt>
      <trkpt lat="59.2491349764" lon="17.84944796">
        <ele>14.4</ele>
        <time>2011-05-01T07:35:21Z</time>
      </trkpt>
      <trkpt lat="59.2490779795" lon="17.8492919728">
        <ele>14</ele>
        <time>2011-05-01T07:35:22Z</time>
      </trkpt>
      <trkpt lat="59.2489039712" lon="17.8488159645">
        <ele>13</ele>
        <time>2011-05-01T07:35:25Z</time>
      </trkpt>
      <trkpt lat="59.2487229221" lon="17.8483349271">
        <ele>12</ele>
        <time>2011-05-01T07:35:28Z</time>
      </trkpt>
      <trkpt lat="59.2485429626" lon="17.8478529677">
        <ele>11</ele>
        <time>2011-05-01T07:35:31Z</time>
      </trkpt>
      <trkpt lat="59.2483679485" lon="17.8473659791">
        <ele>11</ele>
        <time>2011-05-01T07:35:34Z</time>
      </trkpt>
      <trkpt lat="59.248194946" lon="17.8468859475">
        <ele>10.6</ele>
        <time>2011-05-01T07:35:37Z</time>
      </trkpt>
      <trkpt lat="59.2480229493" lon="17.8464069217">
        <ele>9.6</ele>
        <time>2011-05-01T07:35:40Z</time>
      </trkpt>
      <trkpt lat="59.2478519585" lon="17.8459309973">
        <ele>9.2</ele>
        <time>2011-05-01T07:35:43Z</time>
      </trkpt>
      <trkpt lat="59.2476769444" lon="17.8454509657">
        <ele>9.6</ele>
        <time>2011-05-01T07:35:46Z</time>
      </trkpt>
      <trkpt lat="59.2475019302" lon="17.8449759632">
        <ele>9.2</ele>
        <time>2011-05-01T07:35:49Z</time>
      </trkpt>
      <trkpt lat="59.2473379802" lon="17.8445189819">
        <ele>8.6</ele>
        <time>2011-05-01T07:35:52Z</time>
      </trkpt>
      <trkpt lat="59.2471719347" lon="17.844078932">
        <ele>8.6</ele>
        <time>2011-05-01T07:35:55Z</time>
      </trkpt>
      <trkpt lat="59.2471149378" lon="17.8439349309">
        <ele>8.6</ele>
        <time>2011-05-01T07:35:56Z</time>
      </trkpt>
      <trkpt lat="59.2469349783" lon="17.843531929">
        <ele>10.6</ele>
        <time>2011-05-01T07:35:59Z</time>
      </trkpt>
      <trkpt lat="59.2467369977" lon="17.8431809787">
        <ele>10.6</ele>
        <time>2011-05-01T07:36:02Z</time>
      </trkpt>
      <trkpt lat="59.2465179786" lon="17.8428729437">
        <ele>10.2</ele>
        <time>2011-05-01T07:36:05Z</time>
      </trkpt>
      <trkpt lat="59.2463599797" lon="17.8427009471">
        <ele>10.2</ele>
        <time>2011-05-01T07:36:07Z</time>
      </trkpt>
      <trkpt lat="59.2462779209" lon="17.8426239174">
        <ele>10.2</ele>
        <time>2011-05-01T07:36:08Z</time>
      </trkpt>
      <trkpt lat="59.2460259609" lon="17.842424931">
        <ele>10.2</ele>
        <time>2011-05-01T07:36:11Z</time>
      </trkpt>
      <trkpt lat="59.2457689717" lon="17.8422769904">
        <ele>10.2</ele>
        <time>2011-05-01T07:36:14Z</time>
      </trkpt>
      <trkpt lat="59.2455209512" lon="17.8421569616">
        <ele>12.6</ele>
        <time>2011-05-01T07:36:17Z</time>
      </trkpt>
      <trkpt lat="59.2454419937" lon="17.842122931">
        <ele>12</ele>
        <time>2011-05-01T07:36:18Z</time>
      </trkpt>
      <trkpt lat="59.2452109884" lon="17.8420249466">
        <ele>12.6</ele>
        <time>2011-05-01T07:36:21Z</time>
      </trkpt>
      <trkpt lat="59.2449849285" lon="17.8419169877">
        <ele>12.6</ele>
        <time>2011-05-01T07:36:24Z</time>
      </trkpt>
      <trkpt lat="59.2447729502" lon="17.8417799436">
        <ele>14</ele>
        <time>2011-05-01T07:36:27Z</time>
      </trkpt>
      <trkpt lat="59.2446459644" lon="17.841669973">
        <ele>15</ele>
        <time>2011-05-01T07:36:29Z</time>
      </trkpt>
      <trkpt lat="59.2445849441" lon="17.841612976">
        <ele>15.4</ele>
        <time>2011-05-01T07:36:30Z</time>
      </trkpt>
      <trkpt lat="59.2444089241" lon="17.8414289933">
        <ele>16.4</ele>
        <time>2011-05-01T07:36:33Z</time>
      </trkpt>
      <trkpt lat="59.2442409508" lon="17.8412269894">
        <ele>17.4</ele>
        <time>2011-05-01T07:36:36Z</time>
      </trkpt>
      <trkpt lat="59.2440799344" lon="17.8410149273">
        <ele>18.4</ele>
        <time>2011-05-01T07:36:39Z</time>
      </trkpt>
      <trkpt lat="59.2439269647" lon="17.840783">
        <ele>19.2</ele>
        <time>2011-05-01T07:36:42Z</time>
      </trkpt>
      <trkpt lat="59.2437779345" lon="17.8405249212">
        <ele>19.8</ele>
        <time>2011-05-01T07:36:45Z</time>
      </trkpt>
      <trkpt lat="59.2436399683" lon="17.8402349912">
        <ele>20.2</ele>
        <time>2011-05-01T07:36:48Z</time>
      </trkpt>
      <trkpt lat="59.2435059417" lon="17.8399179876">
        <ele>20.2</ele>
        <time>2011-05-01T07:36:51Z</time>
      </trkpt>
      <trkpt lat="59.2434619367" lon="17.8398049995">
        <ele>20.2</ele>
        <time>2011-05-01T07:36:52Z</time>
      </trkpt>
      <trkpt lat="59.2434209492" lon="17.8396909218">
        <ele>20.2</ele>
        <time>2011-05-01T07:36:53Z</time>
      </trkpt>
      <trkpt lat="59.2433099728" lon="17.8393239621">
        <ele>20.8</ele>
        <time>2011-05-01T07:36:56Z</time>
      </trkpt>
      <trkpt lat="59.2432109825" lon="17.8389229719">
        <ele>19.8</ele>
        <time>2011-05-01T07:36:59Z</time>
      </trkpt>
      <trkpt lat="59.2431289237" lon="17.838506978">
        <ele>20.2</ele>
        <time>2011-05-01T07:37:02Z</time>
      </trkpt>
      <trkpt lat="59.243050972" lon="17.8380929958">
        <ele>19.8</ele>
        <time>2011-05-01T07:37:05Z</time>
      </trkpt>
      <trkpt lat="59.2429949809" lon="17.8376829531">
        <ele>19.8</ele>
        <time>2011-05-01T07:37:08Z</time>
      </trkpt>
      <trkpt lat="59.2429649737" lon="17.8372859862">
        <ele>19.8</ele>
        <time>2011-05-01T07:37:11Z</time>
      </trkpt>
      <trkpt lat="59.2429579329" lon="17.8371579945">
        <ele>19.8</ele>
        <time>2011-05-01T07:37:12Z</time>
      </trkpt>
      <trkpt lat="59.2428669892" lon="17.8368449304">
        <ele>19.8</ele>
        <time>2011-05-01T07:37:15Z</time>
      </trkpt>
      <trkpt lat="59.2428069748" lon="17.8367939685">
        <ele>19.8</ele>
        <time>2011-05-01T07:37:16Z</time>
      </trkpt>
      <trkpt lat="59.2427399196" lon="17.8367679846">
        <ele>20.2</ele>
        <time>2011-05-01T07:37:17Z</time>
      </trkpt>
      <trkpt lat="59.2424559407" lon="17.8367299307">
        <ele>20.8</ele>
        <time>2011-05-01T07:37:21Z</time>
      </trkpt>
      <trkpt lat="59.2422359996" lon="17.8366679884">
        <ele>21.2</ele>
        <time>2011-05-01T07:37:24Z</time>
      </trkpt>
      <trkpt lat="59.2420239374" lon="17.8365549166">
        <ele>22.2</ele>
        <time>2011-05-01T07:37:27Z</time>
      </trkpt>
      <trkpt lat="59.2418299802" lon="17.8363799863">
        <ele>23.2</ele>
        <time>2011-05-01T07:37:30Z</time>
      </trkpt>
      <trkpt lat="59.2416609172" lon="17.8361469693">
        <ele>24</ele>
        <time>2011-05-01T07:37:33Z</time>
      </trkpt>
      <trkpt lat="59.2415059358" lon="17.835890986">
        <ele>25.6</ele>
        <time>2011-05-01T07:37:36Z</time>
      </trkpt>
      <trkpt lat="59.2414119747" lon="17.8357059974">
        <ele>27</ele>
        <time>2011-05-01T07:37:38Z</time>
      </trkpt>
      <trkpt lat="59.241365958" lon="17.8356119525">
        <ele>27.4</ele>
        <time>2011-05-01T07:37:39Z</time>
      </trkpt>
      <trkpt lat="59.241233943" lon="17.8353359364">
        <ele>28.8</ele>
        <time>2011-05-01T07:37:42Z</time>
      </trkpt>
      <trkpt lat="59.2411109805" lon="17.8350769356">
        <ele>29.4</ele>
        <time>2011-05-01T07:37:45Z</time>
      </trkpt>
      <trkpt lat="59.2409859225" lon="17.8348219581">
        <ele>30.4</ele>
        <time>2011-05-01T07:37:48Z</time>
      </trkpt>
      <trkpt lat="59.2408979964" lon="17.8346519731">
        <ele>30.8</ele>
        <time>2011-05-01T07:37:50Z</time>
      </trkpt>
      <trkpt lat="59.2407529894" lon="17.8344239853">
        <ele>31.2</ele>
        <time>2011-05-01T07:37:53Z</time>
      </trkpt>
      <trkpt lat="59.2406099942" lon="17.8339829296">
        <ele>30.8</ele>
        <time>2011-05-01T07:37:57Z</time>
      </trkpt>
      <trkpt lat="59.240529947" lon="17.8336289618">
        <ele>32.2</ele>
        <time>2011-05-01T07:38:00Z</time>
      </trkpt>
      <trkpt lat="59.2405029573" lon="17.8335109446">
        <ele>32.2</ele>
        <time>2011-05-01T07:38:01Z</time>
      </trkpt>
      <trkpt lat="59.2404799908" lon="17.8333889879">
        <ele>32.2</ele>
        <time>2011-05-01T07:38:02Z</time>
      </trkpt>
      <trkpt lat="59.2404299509" lon="17.8329869919">
        <ele>30.8</ele>
        <time>2011-05-01T07:38:05Z</time>
      </trkpt>
      <trkpt lat="59.2404199764" lon="17.832520958">
        <ele>29.8</ele>
        <time>2011-05-01T07:38:08Z</time>
      </trkpt>
      <trkpt lat="59.2404399253" lon="17.8320289403">
        <ele>29.8</ele>
        <time>2011-05-01T07:38:11Z</time>
      </trkpt>
      <trkpt lat="59.2404579464" lon="17.8315609787">
        <ele>29.8</ele>
        <time>2011-05-01T07:38:14Z</time>
      </trkpt>
      <trkpt lat="59.2404629756" lon="17.8311169893">
        <ele>30.4</ele>
        <time>2011-05-01T07:38:17Z</time>
      </trkpt>
      <trkpt lat="59.2404629756" lon="17.8306869976">
        <ele>30.8</ele>
        <time>2011-05-01T07:38:20Z</time>
      </trkpt>
      <trkpt lat="59.2404679209" lon="17.8302659746">
        <ele>30.8</ele>
        <time>2011-05-01T07:38:23Z</time>
      </trkpt>
      <trkpt lat="59.24047295" lon="17.8301239852">
        <ele>30.8</ele>
        <time>2011-05-01T07:38:24Z</time>
      </trkpt>
      <trkpt lat="59.2404949944" lon="17.8296909761">
        <ele>30.8</ele>
        <time>2011-05-01T07:38:27Z</time>
      </trkpt>
      <trkpt lat="59.2405329645" lon="17.829244975">
        <ele>30.4</ele>
        <time>2011-05-01T07:38:30Z</time>
      </trkpt>
      <trkpt lat="59.2405879498" lon="17.8288049251">
        <ele>30.4</ele>
        <time>2011-05-01T07:38:33Z</time>
      </trkpt>
      <trkpt lat="59.2406289373" lon="17.8283689823">
        <ele>32.2</ele>
        <time>2011-05-01T07:38:36Z</time>
      </trkpt>
      <trkpt lat="59.2406359781" lon="17.8282229695">
        <ele>32.2</ele>
        <time>2011-05-01T07:38:37Z</time>
      </trkpt>
      <trkpt lat="59.2406469584" lon="17.8277859371">
        <ele>33.2</ele>
        <time>2011-05-01T07:38:40Z</time>
      </trkpt>
      <trkpt lat="59.2406339664" lon="17.8273499943">
        <ele>33.6</ele>
        <time>2011-05-01T07:38:43Z</time>
      </trkpt>
      <trkpt lat="59.2405759636" lon="17.8269259539">
        <ele>34.2</ele>
        <time>2011-05-01T07:38:46Z</time>
      </trkpt>
      <trkpt lat="59.2405509856" lon="17.8267839644">
        <ele>34.2</ele>
        <time>2011-05-01T07:38:47Z</time>
      </trkpt>
      <trkpt lat="59.2404769734" lon="17.8263509553">
        <ele>33.6</ele>
        <time>2011-05-01T07:38:50Z</time>
      </trkpt>
      <trkpt lat="59.2403999437" lon="17.8259209637">
        <ele>34.2</ele>
        <time>2011-05-01T07:38:53Z</time>
      </trkpt>
      <trkpt lat="59.2403239198" lon="17.8254949953">
        <ele>34.6</ele>
        <time>2011-05-01T07:38:56Z</time>
      </trkpt>
      <trkpt lat="59.2402479798" lon="17.8250749782">
        <ele>35.2</ele>
        <time>2011-05-01T07:38:59Z</time>
      </trkpt>
      <trkpt lat="59.2401759792" lon="17.8246559668">
        <ele>35.6</ele>
        <time>2011-05-01T07:39:02Z</time>
      </trkpt>
      <trkpt lat="59.2401049845" lon="17.8242349438">
        <ele>35.6</ele>
        <time>2011-05-01T07:39:05Z</time>
      </trkpt>
      <trkpt lat="59.2400369234" lon="17.8238159325">
        <ele>35.2</ele>
        <time>2011-05-01T07:39:08Z</time>
      </trkpt>
      <trkpt lat="59.240013957" lon="17.8236769605">
        <ele>35.2</ele>
        <time>2011-05-01T07:39:09Z</time>
      </trkpt>
      <trkpt lat="59.2399909906" lon="17.8235379886">
        <ele>35.2</ele>
        <time>2011-05-01T07:39:10Z</time>
      </trkpt>
      <trkpt lat="59.2399109434" lon="17.8231149539">
        <ele>34.6</ele>
        <time>2011-05-01T07:39:13Z</time>
      </trkpt>
      <trkpt lat="59.2398169823" lon="17.8226759937">
        <ele>34.2</ele>
        <time>2011-05-01T07:39:16Z</time>
      </trkpt>
      <trkpt lat="59.2397029884" lon="17.8222299926">
        <ele>34.2</ele>
        <time>2011-05-01T07:39:19Z</time>
      </trkpt>
      <trkpt lat="59.2395969573" lon="17.821756918">
        <ele>33.2</ele>
        <time>2011-05-01T07:39:22Z</time>
      </trkpt>
      <trkpt lat="59.2395189218" lon="17.8212129325">
        <ele>31.8</ele>
        <time>2011-05-01T07:39:25Z</time>
      </trkpt>
      <trkpt lat="59.2394739948" lon="17.8197329398">
        <ele>30.8</ele>
        <time>2011-05-01T07:39:33Z</time>
      </trkpt>
      <trkpt lat="59.2394689657" lon="17.8195539862">
        <ele>30.8</ele>
        <time>2011-05-01T07:39:34Z</time>
      </trkpt>
      <trkpt lat="59.2394649424" lon="17.8193769604">
        <ele>30.8</ele>
        <time>2011-05-01T07:39:35Z</time>
      </trkpt>
      <trkpt lat="59.2394619249" lon="17.8188439552">
        <ele>31.2</ele>
        <time>2011-05-01T07:39:38Z</time>
      </trkpt>
      <trkpt lat="59.2394959554" lon="17.8183239419">
        <ele>31.2</ele>
        <time>2011-05-01T07:39:41Z</time>
      </trkpt>
      <trkpt lat="59.2395659443" lon="17.8178309184">
        <ele>32.8</ele>
        <time>2011-05-01T07:39:44Z</time>
      </trkpt>
      <trkpt lat="59.239642974" lon="17.8173579276">
        <ele>33.2</ele>
        <time>2011-05-01T07:39:47Z</time>
      </trkpt>
      <trkpt lat="59.2396929301" lon="17.8168789856">
        <ele>33.6</ele>
        <time>2011-05-01T07:39:50Z</time>
      </trkpt>
      <trkpt lat="59.2397119571" lon="17.8164039832">
        <ele>33.6</ele>
        <time>2011-05-01T07:39:53Z</time>
      </trkpt>
      <trkpt lat="59.2397009768" lon="17.8159329202">
        <ele>33.6</ele>
        <time>2011-05-01T07:39:56Z</time>
      </trkpt>
      <trkpt lat="59.2396959476" lon="17.815776933">
        <ele>34.2</ele>
        <time>2011-05-01T07:39:57Z</time>
      </trkpt>
      <trkpt lat="59.2396779265" lon="17.8153119888">
        <ele>34.6</ele>
        <time>2011-05-01T07:40:00Z</time>
      </trkpt>
      <trkpt lat="59.2396599893" lon="17.8148559295">
        <ele>34.6</ele>
        <time>2011-05-01T07:40:03Z</time>
      </trkpt>
      <trkpt lat="59.2396409623" lon="17.8143909853">
        <ele>35.6</ele>
        <time>2011-05-01T07:40:06Z</time>
      </trkpt>
      <trkpt lat="59.2396199238" lon="17.8139139712">
        <ele>36</ele>
        <time>2011-05-01T07:40:09Z</time>
      </trkpt>
      <trkpt lat="59.2396009807" lon="17.8134519607">
        <ele>37</ele>
        <time>2011-05-01T07:40:12Z</time>
      </trkpt>
      <trkpt lat="59.2395849712" lon="17.8130019363">
        <ele>37.6</ele>
        <time>2011-05-01T07:40:15Z</time>
      </trkpt>
      <trkpt lat="59.2395719793" lon="17.8125599585">
        <ele>38.4</ele>
        <time>2011-05-01T07:40:18Z</time>
      </trkpt>
      <trkpt lat="59.239560999" lon="17.8121149633">
        <ele>38.4</ele>
        <time>2011-05-01T07:40:21Z</time>
      </trkpt>
      <trkpt lat="59.2395499349" lon="17.8116729856">
        <ele>38.4</ele>
        <time>2011-05-01T07:40:24Z</time>
      </trkpt>
      <trkpt lat="59.2395509407" lon="17.8113749251">
        <ele>37.6</ele>
        <time>2011-05-01T07:40:26Z</time>
      </trkpt>
      <trkpt lat="59.2395519465" lon="17.8109229729">
        <ele>37.6</ele>
        <time>2011-05-01T07:40:29Z</time>
      </trkpt>
      <trkpt lat="59.239561921" lon="17.8104599565">
        <ele>38.4</ele>
        <time>2011-05-01T07:40:32Z</time>
      </trkpt>
      <trkpt lat="59.2395939399" lon="17.8100029752">
        <ele>38.4</ele>
        <time>2011-05-01T07:40:35Z</time>
      </trkpt>
      <trkpt lat="59.2396109551" lon="17.8098509274">
        <ele>39</ele>
        <time>2011-05-01T07:40:36Z</time>
      </trkpt>
      <trkpt lat="59.2396989651" lon="17.8094079439">
        <ele>37</ele>
        <time>2011-05-01T07:40:39Z</time>
      </trkpt>
      <trkpt lat="59.239799967" lon="17.8089729231">
        <ele>37</ele>
        <time>2011-05-01T07:40:42Z</time>
      </trkpt>
      <trkpt lat="59.2398359254" lon="17.8088299278">
        <ele>37</ele>
        <time>2011-05-01T07:40:43Z</time>
      </trkpt>
      <trkpt lat="59.2399419565" lon="17.8083959967">
        <ele>37</ele>
        <time>2011-05-01T07:40:46Z</time>
      </trkpt>
      <trkpt lat="59.2400509212" lon="17.8079599701">
        <ele>37</ele>
        <time>2011-05-01T07:40:49Z</time>
      </trkpt>
      <trkpt lat="59.2401419487" lon="17.8074599896">
        <ele>37</ele>
        <time>2011-05-01T07:40:52Z</time>
      </trkpt>
      <trkpt lat="59.2402119376" lon="17.8069809638">
        <ele>37</ele>
        <time>2011-05-01T07:40:55Z</time>
      </trkpt>
      <trkpt lat="59.2402449623" lon="17.8065039497">
        <ele>37</ele>
        <time>2011-05-01T07:40:58Z</time>
      </trkpt>
      <trkpt lat="59.2402489856" lon="17.806004975">
        <ele>36.6</ele>
        <time>2011-05-01T07:41:01Z</time>
      </trkpt>
      <trkpt lat="59.2402309645" lon="17.805501977">
        <ele>35.2</ele>
        <time>2011-05-01T07:41:04Z</time>
      </trkpt>
      <trkpt lat="59.2401689384" lon="17.8051139787">
        <ele>33.6</ele>
        <time>2011-05-01T07:41:06Z</time>
      </trkpt>
      <trkpt lat="59.2401549406" lon="17.8049289901">
        <ele>33.2</ele>
        <time>2011-05-01T07:41:07Z</time>
      </trkpt>
      <trkpt lat="59.2401269451" lon="17.8047119826">
        <ele>32.2</ele>
        <time>2011-05-01T07:41:08Z</time>
      </trkpt>
      <trkpt lat="59.2400229257" lon="17.8039399255">
        <ele>30.4</ele>
        <time>2011-05-01T07:41:11Z</time>
      </trkpt>
      <trkpt lat="59.2399689462" lon="17.8034969419">
        <ele>29.4</ele>
        <time>2011-05-01T07:41:13Z</time>
      </trkpt>
      <trkpt lat="59.2399169784" lon="17.8030609991">
        <ele>27.4</ele>
        <time>2011-05-01T07:41:15Z</time>
      </trkpt>
      <trkpt lat="59.2398649268" lon="17.8026219551">
        <ele>26</ele>
        <time>2011-05-01T07:41:17Z</time>
      </trkpt>
      <trkpt lat="59.2398149706" lon="17.8021609504">
        <ele>25</ele>
        <time>2011-05-01T07:41:19Z</time>
      </trkpt>
      <trkpt lat="59.2397789285" lon="17.8016829304">
        <ele>22.6</ele>
        <time>2011-05-01T07:41:21Z</time>
      </trkpt>
      <trkpt lat="59.2397759948" lon="17.8011919186">
        <ele>21.2</ele>
        <time>2011-05-01T07:41:23Z</time>
      </trkpt>
      <trkpt lat="59.239806924" lon="17.8006929439">
        <ele>20.8</ele>
        <time>2011-05-01T07:41:25Z</time>
      </trkpt>
      <trkpt lat="59.2398619931" lon="17.8002059553">
        <ele>19.8</ele>
        <time>2011-05-01T07:41:27Z</time>
      </trkpt>
      <trkpt lat="59.239925947" lon="17.7997349761">
        <ele>18.4</ele>
        <time>2011-05-01T07:41:29Z</time>
      </trkpt>
      <trkpt lat="59.2399489973" lon="17.7994989417">
        <ele>18.4</ele>
        <time>2011-05-01T07:41:30Z</time>
      </trkpt>
      <trkpt lat="59.2400259431" lon="17.7990429662">
        <ele>17.8</ele>
        <time>2011-05-01T07:41:32Z</time>
      </trkpt>
      <trkpt lat="59.2400929984" lon="17.7985969651">
        <ele>18.4</ele>
        <time>2011-05-01T07:41:34Z</time>
      </trkpt>
      <trkpt lat="59.2401449662" lon="17.7981499583">
        <ele>17.8</ele>
        <time>2011-05-01T07:41:36Z</time>
      </trkpt>
      <trkpt lat="59.2401749734" lon="17.7975019533">
        <ele>18.4</ele>
        <time>2011-05-01T07:41:39Z</time>
      </trkpt>
      <trkpt lat="59.2402479798" lon="17.7968979534">
        <ele>19.2</ele>
        <time>2011-05-01T07:41:42Z</time>
      </trkpt>
      <trkpt lat="59.2402769811" lon="17.7967039961">
        <ele>19.8</ele>
        <time>2011-05-01T07:41:43Z</time>
      </trkpt>
      <trkpt lat="59.2403549328" lon="17.7961189393">
        <ele>18.8</ele>
        <time>2011-05-01T07:41:46Z</time>
      </trkpt>
      <trkpt lat="59.2404169589" lon="17.7955479641">
        <ele>19.2</ele>
        <time>2011-05-01T07:41:49Z</time>
      </trkpt>
      <trkpt lat="59.2404609639" lon="17.7949929982">
        <ele>18.4</ele>
        <time>2011-05-01T07:41:52Z</time>
      </trkpt>
      <trkpt lat="59.2405079864" lon="17.7944479231">
        <ele>19.2</ele>
        <time>2011-05-01T07:41:55Z</time>
      </trkpt>
      <trkpt lat="59.2405619659" lon="17.79391299">
        <ele>19.8</ele>
        <time>2011-05-01T07:41:58Z</time>
      </trkpt>
      <trkpt lat="59.2406219803" lon="17.7933919709">
        <ele>19.8</ele>
        <time>2011-05-01T07:42:01Z</time>
      </trkpt>
      <trkpt lat="59.2406909633" lon="17.7928879671">
        <ele>20.8</ele>
        <time>2011-05-01T07:42:04Z</time>
      </trkpt>
      <trkpt lat="59.2407819908" lon="17.792404918">
        <ele>19.8</ele>
        <time>2011-05-01T07:42:07Z</time>
      </trkpt>
      <trkpt lat="59.2408869322" lon="17.791938968">
        <ele>19.2</ele>
        <time>2011-05-01T07:42:10Z</time>
      </trkpt>
      <trkpt lat="59.2409969866" lon="17.7914779633">
        <ele>20.2</ele>
        <time>2011-05-01T07:42:13Z</time>
      </trkpt>
      <trkpt lat="59.2410679813" lon="17.7911609598">
        <ele>20.2</ele>
        <time>2011-05-01T07:42:15Z</time>
      </trkpt>
      <trkpt lat="59.2411059514" lon="17.7910129353">
        <ele>20.8</ele>
        <time>2011-05-01T07:42:16Z</time>
      </trkpt>
      <trkpt lat="59.2412179336" lon="17.7905849554">
        <ele>20.8</ele>
        <time>2011-05-01T07:42:19Z</time>
      </trkpt>
      <trkpt lat="59.2413229588" lon="17.7901449893">
        <ele>19.2</ele>
        <time>2011-05-01T07:42:22Z</time>
      </trkpt>
      <trkpt lat="59.2413589172" lon="17.7899989765">
        <ele>18.8</ele>
        <time>2011-05-01T07:42:23Z</time>
      </trkpt>
      <trkpt lat="59.2414639425" lon="17.7895469405">
        <ele>18.8</ele>
        <time>2011-05-01T07:42:26Z</time>
      </trkpt>
      <trkpt lat="59.241566956" lon="17.7890919708">
        <ele>18.4</ele>
        <time>2011-05-01T07:42:29Z</time>
      </trkpt>
      <trkpt lat="59.2416729871" lon="17.7886479814">
        <ele>18.4</ele>
        <time>2011-05-01T07:42:32Z</time>
      </trkpt>
      <trkpt lat="59.2417739891" lon="17.7881999686">
        <ele>17.8</ele>
        <time>2011-05-01T07:42:35Z</time>
      </trkpt>
      <trkpt lat="59.2418799363" lon="17.7877359465">
        <ele>16.8</ele>
        <time>2011-05-01T07:42:38Z</time>
      </trkpt>
      <trkpt lat="59.2419709638" lon="17.7872649673">
        <ele>17.8</ele>
        <time>2011-05-01T07:42:41Z</time>
      </trkpt>
      <trkpt lat="59.2420219257" lon="17.7867859416">
        <ele>17.8</ele>
        <time>2011-05-01T07:42:44Z</time>
      </trkpt>
      <trkpt lat="59.2420179863" lon="17.786304988">
        <ele>18.4</ele>
        <time>2011-05-01T07:42:47Z</time>
      </trkpt>
      <trkpt lat="59.2419759929" lon="17.7858279739">
        <ele>17.8</ele>
        <time>2011-05-01T07:42:50Z</time>
      </trkpt>
      <trkpt lat="59.2418899946" lon="17.7853699867">
        <ele>18.8</ele>
        <time>2011-05-01T07:42:53Z</time>
      </trkpt>
      <trkpt lat="59.2417859752" lon="17.7849069703">
        <ele>18.4</ele>
        <time>2011-05-01T07:42:56Z</time>
      </trkpt>
      <trkpt lat="59.2416659463" lon="17.7844579518">
        <ele>18.4</ele>
        <time>2011-05-01T07:42:59Z</time>
      </trkpt>
      <trkpt lat="59.2415169999" lon="17.7840519324">
        <ele>18.8</ele>
        <time>2011-05-01T07:43:02Z</time>
      </trkpt>
      <trkpt lat="59.2413229588" lon="17.783689918">
        <ele>18.8</ele>
        <time>2011-05-01T07:43:05Z</time>
      </trkpt>
      <trkpt lat="59.2410969827" lon="17.7834169194">
        <ele>18.8</ele>
        <time>2011-05-01T07:43:08Z</time>
      </trkpt>
      <trkpt lat="59.2408549972" lon="17.7832289971">
        <ele>18.4</ele>
        <time>2011-05-01T07:43:11Z</time>
      </trkpt>
      <trkpt lat="59.2405999359" lon="17.7831099741">
        <ele>18.4</ele>
        <time>2011-05-01T07:43:14Z</time>
      </trkpt>
      <trkpt lat="59.2403479759" lon="17.7830189466">
        <ele>18.8</ele>
        <time>2011-05-01T07:43:17Z</time>
      </trkpt>
      <trkpt lat="59.2401009612" lon="17.7829319425">
        <ele>18.4</ele>
        <time>2011-05-01T07:43:20Z</time>
      </trkpt>
      <trkpt lat="59.239856964" lon="17.7828479558">
        <ele>18.8</ele>
        <time>2011-05-01T07:43:23Z</time>
      </trkpt>
      <trkpt lat="59.2396189179" lon="17.7827669866">
        <ele>19.8</ele>
        <time>2011-05-01T07:43:26Z</time>
      </trkpt>
      <trkpt lat="59.2393969651" lon="17.7826939803">
        <ele>20.8</ele>
        <time>2011-05-01T07:43:29Z</time>
      </trkpt>
      <trkpt lat="59.239252964" lon="17.7826359775">
        <ele>21.6</ele>
        <time>2011-05-01T07:43:31Z</time>
      </trkpt>
      <trkpt lat="59.2391139921" lon="17.7825909667">
        <ele>23.2</ele>
        <time>2011-05-01T07:43:33Z</time>
      </trkpt>
      <trkpt lat="59.2389219627" lon="17.7825369872">
        <ele>25</ele>
        <time>2011-05-01T07:43:36Z</time>
      </trkpt>
      <trkpt lat="59.2387419194" lon="17.7824819181">
        <ele>26</ele>
        <time>2011-05-01T07:43:39Z</time>
      </trkpt>
      <trkpt lat="59.2385639716" lon="17.7824229933">
        <ele>27.4</ele>
        <time>2011-05-01T07:43:42Z</time>
      </trkpt>
      <trkpt lat="59.2383809946" lon="17.7823529206">
        <ele>28</ele>
        <time>2011-05-01T07:43:45Z</time>
      </trkpt>
      <trkpt lat="59.2382019572" lon="17.7822849434">
        <ele>28.8</ele>
        <time>2011-05-01T07:43:48Z</time>
      </trkpt>
      <trkpt lat="59.2380119395" lon="17.7822189778">
        <ele>28.4</ele>
        <time>2011-05-01T07:43:51Z</time>
      </trkpt>
      <trkpt lat="59.2377989553" lon="17.7821429539">
        <ele>28</ele>
        <time>2011-05-01T07:43:54Z</time>
      </trkpt>
      <trkpt lat="59.2375759967" lon="17.7820579614">
        <ele>27</ele>
        <time>2011-05-01T07:43:57Z</time>
      </trkpt>
      <trkpt lat="59.2373429798" lon="17.7819699515">
        <ele>25.6</ele>
        <time>2011-05-01T07:44:00Z</time>
      </trkpt>
      <trkpt lat="59.2370909359" lon="17.7818759903">
        <ele>23.6</ele>
        <time>2011-05-01T07:44:03Z</time>
      </trkpt>
      <trkpt lat="59.2368279956" lon="17.7817789279">
        <ele>24.6</ele>
        <time>2011-05-01T07:44:06Z</time>
      </trkpt>
      <trkpt lat="59.2365649715" lon="17.7816819493">
        <ele>24.6</ele>
        <time>2011-05-01T07:44:09Z</time>
      </trkpt>
      <trkpt lat="59.2364759557" lon="17.7816499304">
        <ele>24.6</ele>
        <time>2011-05-01T07:44:10Z</time>
      </trkpt>
      <trkpt lat="59.2363889515" lon="17.7816199232">
        <ele>24</ele>
        <time>2011-05-01T07:44:11Z</time>
      </trkpt>
      <trkpt lat="59.2361319624" lon="17.7815269679">
        <ele>24.6</ele>
        <time>2011-05-01T07:44:14Z</time>
      </trkpt>
      <trkpt lat="59.2358699441" lon="17.7814329229">
        <ele>25</ele>
        <time>2011-05-01T07:44:17Z</time>
      </trkpt>
      <trkpt lat="59.2356149666" lon="17.7813409735">
        <ele>25.6</ele>
        <time>2011-05-01T07:44:20Z</time>
      </trkpt>
      <trkpt lat="59.2353609949" lon="17.7812529635">
        <ele>26</ele>
        <time>2011-05-01T07:44:23Z</time>
      </trkpt>
      <trkpt lat="59.235103922" lon="17.7811589185">
        <ele>26</ele>
        <time>2011-05-01T07:44:26Z</time>
      </trkpt>
      <trkpt lat="59.2348469328" lon="17.781085996">
        <ele>26</ele>
        <time>2011-05-01T07:44:29Z</time>
      </trkpt>
      <trkpt lat="59.2345869262" lon="17.7810409851">
        <ele>27</ele>
        <time>2011-05-01T07:44:32Z</time>
      </trkpt>
      <trkpt lat="59.234499922" lon="17.781029921">
        <ele>27</ele>
        <time>2011-05-01T07:44:33Z</time>
      </trkpt>
      <trkpt lat="59.2342409212" lon="17.7810099721">
        <ele>27.4</ele>
        <time>2011-05-01T07:44:36Z</time>
      </trkpt>
      <trkpt lat="59.2339939903" lon="17.7810179349">
        <ele>28</ele>
        <time>2011-05-01T07:44:39Z</time>
      </trkpt>
      <trkpt lat="59.2337639909" lon="17.7810559887">
        <ele>28.8</ele>
        <time>2011-05-01T07:44:42Z</time>
      </trkpt>
      <trkpt lat="59.2335509229" lon="17.7811129857">
        <ele>30.4</ele>
        <time>2011-05-01T07:44:45Z</time>
      </trkpt>
      <trkpt lat="59.2333419621" lon="17.7811849862">
        <ele>31.2</ele>
        <time>2011-05-01T07:44:48Z</time>
      </trkpt>
      <trkpt lat="59.2331389524" lon="17.7812739182">
        <ele>32.2</ele>
        <time>2011-05-01T07:44:51Z</time>
      </trkpt>
      <trkpt lat="59.2329439893" lon="17.7813649457">
        <ele>34.2</ele>
        <time>2011-05-01T07:44:54Z</time>
      </trkpt>
      <trkpt lat="59.2328819633" lon="17.7813989762">
        <ele>34.2</ele>
        <time>2011-05-01T07:44:55Z</time>
      </trkpt>
      <trkpt lat="59.2328199372" lon="17.7814369462">
        <ele>34.6</ele>
        <time>2011-05-01T07:44:56Z</time>
      </trkpt>
      <trkpt lat="59.2327599227" lon="17.7814789396">
        <ele>35.2</ele>
        <time>2011-05-01T07:44:57Z</time>
      </trkpt>
      <trkpt lat="59.2325889319" lon="17.7816089429">
        <ele>36</ele>
        <time>2011-05-01T07:45:00Z</time>
      </trkpt>
      <trkpt lat="59.2324269935" lon="17.7817499265">
        <ele>37.6</ele>
        <time>2011-05-01T07:45:03Z</time>
      </trkpt>
      <trkpt lat="59.2322579306" lon="17.7819009684">
        <ele>38</ele>
        <time>2011-05-01T07:45:06Z</time>
      </trkpt>
      <trkpt lat="59.2320839223" lon="17.782079922">
        <ele>38</ele>
        <time>2011-05-01T07:45:09Z</time>
      </trkpt>
      <trkpt lat="59.2319059744" lon="17.7822839376">
        <ele>39</ele>
        <time>2011-05-01T07:45:12Z</time>
      </trkpt>
      <trkpt lat="59.23171998" lon="17.7824789844">
        <ele>38.4</ele>
        <time>2011-05-01T07:45:15Z</time>
      </trkpt>
      <trkpt lat="59.2315239273" lon="17.7826909628">
        <ele>38.4</ele>
        <time>2011-05-01T07:45:18Z</time>
      </trkpt>
      <trkpt lat="59.2313259467" lon="17.7829069644">
        <ele>38.4</ele>
        <time>2011-05-01T07:45:21Z</time>
      </trkpt>
      <trkpt lat="59.2311249487" lon="17.7831209544">
        <ele>38.4</ele>
        <time>2011-05-01T07:45:24Z</time>
      </trkpt>
      <trkpt lat="59.2309299856" lon="17.7833349444">
        <ele>39</ele>
        <time>2011-05-01T07:45:27Z</time>
      </trkpt>
      <trkpt lat="59.2307329271" lon="17.7835479286">
        <ele>39</ele>
        <time>2011-05-01T07:45:30Z</time>
      </trkpt>
      <trkpt lat="59.2305349465" lon="17.783764936">
        <ele>38.4</ele>
        <time>2011-05-01T07:45:33Z</time>
      </trkpt>
      <trkpt lat="59.2303409893" lon="17.783971969">
        <ele>38.4</ele>
        <time>2011-05-01T07:45:36Z</time>
      </trkpt>
      <trkpt lat="59.2301379796" lon="17.7841769904">
        <ele>38</ele>
        <time>2011-05-01T07:45:39Z</time>
      </trkpt>
      <trkpt lat="59.2299319524" lon="17.7843519207">
        <ele>38</ele>
        <time>2011-05-01T07:45:42Z</time>
      </trkpt>
      <trkpt lat="59.2297179624" lon="17.7844949998">
        <ele>38.4</ele>
        <time>2011-05-01T07:45:45Z</time>
      </trkpt>
      <trkpt lat="59.2294999491" lon="17.7845959179">
        <ele>38.4</ele>
        <time>2011-05-01T07:45:48Z</time>
      </trkpt>
      <trkpt lat="59.229273973" lon="17.7846669964">
        <ele>39</ele>
        <time>2011-05-01T07:45:51Z</time>
      </trkpt>
      <trkpt lat="59.2290499248" lon="17.7847479656">
        <ele>39.4</ele>
        <time>2011-05-01T07:45:54Z</time>
      </trkpt>
      <trkpt lat="59.228827972" lon="17.7848229837">
        <ele>39.4</ele>
        <time>2011-05-01T07:45:57Z</time>
      </trkpt>
      <trkpt lat="59.228607947" lon="17.7848929726">
        <ele>40</ele>
        <time>2011-05-01T07:46:00Z</time>
      </trkpt>
      <trkpt lat="59.2283789534" lon="17.7849639673">
        <ele>38.4</ele>
        <time>2011-05-01T07:46:03Z</time>
      </trkpt>
      <trkpt lat="59.2282099742" lon="17.7850209642">
        <ele>37.6</ele>
        <time>2011-05-01T07:46:05Z</time>
      </trkpt>
      <trkpt lat="59.2279379815" lon="17.7851159312">
        <ele>34.6</ele>
        <time>2011-05-01T07:46:08Z</time>
      </trkpt>
      <trkpt lat="59.227645956" lon="17.7852189448">
        <ele>32.8</ele>
        <time>2011-05-01T07:46:11Z</time>
      </trkpt>
      <trkpt lat="59.2273459677" lon="17.78532397">
        <ele>30.8</ele>
        <time>2011-05-01T07:46:14Z</time>
      </trkpt>
      <trkpt lat="59.2271449696" lon="17.7853889298">
        <ele>29.8</ele>
        <time>2011-05-01T07:46:16Z</time>
      </trkpt>
      <trkpt lat="59.2268299777" lon="17.7854759339">
        <ele>27.4</ele>
        <time>2011-05-01T07:46:19Z</time>
      </trkpt>
      <trkpt lat="59.2267209291" lon="17.78549999">
        <ele>27.4</ele>
        <time>2011-05-01T07:46:20Z</time>
      </trkpt>
      <trkpt lat="59.2263829708" lon="17.7855429891">
        <ele>25.6</ele>
        <time>2011-05-01T07:46:23Z</time>
      </trkpt>
      <trkpt lat="59.2261499539" lon="17.7855259739">
        <ele>23.2</ele>
        <time>2011-05-01T07:46:25Z</time>
      </trkpt>
      <trkpt lat="59.2260329425" lon="17.7855009958">
        <ele>23.6</ele>
        <time>2011-05-01T07:46:26Z</time>
      </trkpt>
      <trkpt lat="59.2258039489" lon="17.7854209486">
        <ele>23.6</ele>
        <time>2011-05-01T07:46:28Z</time>
      </trkpt>
      <trkpt lat="59.2256939784" lon="17.7853639517">
        <ele>23.6</ele>
        <time>2011-05-01T07:46:29Z</time>
      </trkpt>
      <trkpt lat="59.2254649848" lon="17.7852189448">
        <ele>23.2</ele>
        <time>2011-05-01T07:46:31Z</time>
      </trkpt>
      <trkpt lat="59.2252449598" lon="17.7850299329">
        <ele>22.2</ele>
        <time>2011-05-01T07:46:33Z</time>
      </trkpt>
      <trkpt lat="59.2250329815" lon="17.7848189604">
        <ele>22.2</ele>
        <time>2011-05-01T07:46:35Z</time>
      </trkpt>
      <trkpt lat="59.2248209193" lon="17.784613939">
        <ele>21.2</ele>
        <time>2011-05-01T07:46:37Z</time>
      </trkpt>
      <trkpt lat="59.2245939374" lon="17.7844049782">
        <ele>21.2</ele>
        <time>2011-05-01T07:46:39Z</time>
      </trkpt>
      <trkpt lat="59.2243059352" lon="17.7840959374">
        <ele>21.2</ele>
        <time>2011-05-01T07:46:42Z</time>
      </trkpt>
      <trkpt lat="59.2239949666" lon="17.7837999724">
        <ele>20.2</ele>
        <time>2011-05-01T07:46:45Z</time>
      </trkpt>
      <trkpt lat="59.2237899452" lon="17.7836049255">
        <ele>19.8</ele>
        <time>2011-05-01T07:46:47Z</time>
      </trkpt>
      <trkpt lat="59.223483922" lon="17.7833069488">
        <ele>19.2</ele>
        <time>2011-05-01T07:46:50Z</time>
      </trkpt>
      <trkpt lat="59.2232019547" lon="17.7830129955">
        <ele>19.8</ele>
        <time>2011-05-01T07:46:53Z</time>
      </trkpt>
      <trkpt lat="59.2229229212" lon="17.7827269211">
        <ele>18.8</ele>
        <time>2011-05-01T07:46:56Z</time>
      </trkpt>
      <trkpt lat="59.2226259504" lon="17.7824279387">
        <ele>17.8</ele>
        <time>2011-05-01T07:46:59Z</time>
      </trkpt>
      <trkpt lat="59.2223369423" lon="17.7821459714">
        <ele>17.4</ele>
        <time>2011-05-01T07:47:02Z</time>
      </trkpt>
      <trkpt lat="59.2220559809" lon="17.7818769962">
        <ele>17.4</ele>
        <time>2011-05-01T07:47:05Z</time>
      </trkpt>
      <trkpt lat="59.2217749357" lon="17.7816299815">
        <ele>17.4</ele>
        <time>2011-05-01T07:47:08Z</time>
      </trkpt>
      <trkpt lat="59.2214769591" lon="17.7813849784">
        <ele>16.8</ele>
        <time>2011-05-01T07:47:11Z</time>
      </trkpt>
      <trkpt lat="59.2213819921" lon="17.7813069429">
        <ele>16.4</ele>
        <time>2011-05-01T07:47:12Z</time>
      </trkpt>
      <trkpt lat="59.2211049702" lon="17.7810969763">
        <ele>15.8</ele>
        <time>2011-05-01T07:47:15Z</time>
      </trkpt>
      <trkpt lat="59.2207999527" lon="17.7809199505">
        <ele>16.4</ele>
        <time>2011-05-01T07:47:18Z</time>
      </trkpt>
      <trkpt lat="59.2204919178" lon="17.7807439305">
        <ele>15.4</ele>
        <time>2011-05-01T07:47:21Z</time>
      </trkpt>
      <trkpt lat="59.2201719806" lon="17.7805629652">
        <ele>13.4</ele>
        <time>2011-05-01T07:47:24Z</time>
      </trkpt>
      <trkpt lat="59.2200659495" lon="17.7804979216">
        <ele>13.4</ele>
        <time>2011-05-01T07:47:25Z</time>
      </trkpt>
      <trkpt lat="59.2197489459" lon="17.7802929841">
        <ele>12.6</ele>
        <time>2011-05-01T07:47:28Z</time>
      </trkpt>
      <trkpt lat="59.2194299307" lon="17.7800969314">
        <ele>11</ele>
        <time>2011-05-01T07:47:31Z</time>
      </trkpt>
      <trkpt lat="59.2191159446" lon="17.7799049858">
        <ele>11.6</ele>
        <time>2011-05-01T07:47:34Z</time>
      </trkpt>
      <trkpt lat="59.2188089993" lon="17.7797189914">
        <ele>10.6</ele>
        <time>2011-05-01T07:47:37Z</time>
      </trkpt>
      <trkpt lat="59.218509933" lon="17.7795379423">
        <ele>11</ele>
        <time>2011-05-01T07:47:40Z</time>
      </trkpt>
      <trkpt lat="59.2182199191" lon="17.7793599945">
        <ele>10.6</ele>
        <time>2011-05-01T07:47:43Z</time>
      </trkpt>
      <trkpt lat="59.2179349344" lon="17.7791859861">
        <ele>10.6</ele>
        <time>2011-05-01T07:47:46Z</time>
      </trkpt>
      <trkpt lat="59.2176529672" lon="17.7790189348">
        <ele>11</ele>
        <time>2011-05-01T07:47:49Z</time>
      </trkpt>
      <trkpt lat="59.2173769511" lon="17.7788489498">
        <ele>12</ele>
        <time>2011-05-01T07:47:52Z</time>
      </trkpt>
      <trkpt lat="59.2171039525" lon="17.7786559984">
        <ele>11.6</ele>
        <time>2011-05-01T07:47:55Z</time>
      </trkpt>
      <trkpt lat="59.2168479692" lon="17.7784109954">
        <ele>11</ele>
        <time>2011-05-01T07:47:58Z</time>
      </trkpt>
      <trkpt lat="59.2166129407" lon="17.7781099174">
        <ele>11</ele>
        <time>2011-05-01T07:48:01Z</time>
      </trkpt>
      <trkpt lat="59.2163929995" lon="17.7778059896">
        <ele>12</ele>
        <time>2011-05-01T07:48:04Z</time>
      </trkpt>
      <trkpt lat="59.216188984" lon="17.7774819452">
        <ele>11</ele>
        <time>2011-05-01T07:48:07Z</time>
      </trkpt>
      <trkpt lat="59.2160089407" lon="17.7771229483">
        <ele>10.2</ele>
        <time>2011-05-01T07:48:10Z</time>
      </trkpt>
      <trkpt lat="59.2158359382" lon="17.7767539769">
        <ele>10.6</ele>
        <time>2011-05-01T07:48:13Z</time>
      </trkpt>
      <trkpt lat="59.2156709824" lon="17.7763729356">
        <ele>10.6</ele>
        <time>2011-05-01T07:48:16Z</time>
      </trkpt>
      <trkpt lat="59.2155069485" lon="17.7759829257">
        <ele>11.6</ele>
        <time>2011-05-01T07:48:19Z</time>
      </trkpt>
      <trkpt lat="59.2153499555" lon="17.7755769901">
        <ele>11</ele>
        <time>2011-05-01T07:48:22Z</time>
      </trkpt>
      <trkpt lat="59.2152189463" lon="17.7751279715">
        <ele>11</ele>
        <time>2011-05-01T07:48:25Z</time>
      </trkpt>
      <trkpt lat="59.2151289247" lon="17.7746439166">
        <ele>11</ele>
        <time>2011-05-01T07:48:28Z</time>
      </trkpt>
      <trkpt lat="59.2150689941" lon="17.7741499711">
        <ele>11</ele>
        <time>2011-05-01T07:48:31Z</time>
      </trkpt>
      <trkpt lat="59.2150289286" lon="17.7736499906">
        <ele>13.4</ele>
        <time>2011-05-01T07:48:34Z</time>
      </trkpt>
      <trkpt lat="59.2150219716" lon="17.7734799217">
        <ele>12.6</ele>
        <time>2011-05-01T07:48:35Z</time>
      </trkpt>
      <trkpt lat="59.2150409985" lon="17.772980947">
        <ele>14</ele>
        <time>2011-05-01T07:48:38Z</time>
      </trkpt>
      <trkpt lat="59.2150999233" lon="17.7724929526">
        <ele>12</ele>
        <time>2011-05-01T07:48:41Z</time>
      </trkpt>
      <trkpt lat="59.2151539866" lon="17.7721899468">
        <ele>14</ele>
        <time>2011-05-01T07:48:43Z</time>
      </trkpt>
      <trkpt lat="59.2152549885" lon="17.7717619669">
        <ele>15.4</ele>
        <time>2011-05-01T07:48:46Z</time>
      </trkpt>
      <trkpt lat="59.2153269891" lon="17.7714939974">
        <ele>16.4</ele>
        <time>2011-05-01T07:48:48Z</time>
      </trkpt>
      <trkpt lat="59.2153659649" lon="17.7713679336">
        <ele>16.4</ele>
        <time>2011-05-01T07:48:49Z</time>
      </trkpt>
      <trkpt lat="59.2154829763" lon="17.7710049972">
        <ele>16.8</ele>
        <time>2011-05-01T07:48:52Z</time>
      </trkpt>
      <trkpt lat="59.2156919371" lon="17.7704359498">
        <ele>17.8</ele>
        <time>2011-05-01T07:48:57Z</time>
      </trkpt>
      <trkpt lat="59.2158239521" lon="17.7700989973">
        <ele>18.8</ele>
        <time>2011-05-01T07:49:00Z</time>
      </trkpt>
      <trkpt lat="59.2159619182" lon="17.7697569318">
        <ele>17.4</ele>
        <time>2011-05-01T07:49:03Z</time>
      </trkpt>
      <trkpt lat="59.216094939" lon="17.7694049757">
        <ele>17.4</ele>
        <time>2011-05-01T07:49:06Z</time>
      </trkpt>
      <trkpt lat="59.216219997" lon="17.7690349985">
        <ele>18.4</ele>
        <time>2011-05-01T07:49:09Z</time>
      </trkpt>
      <trkpt lat="59.2163369246" lon="17.7686519455">
        <ele>17.4</ele>
        <time>2011-05-01T07:49:12Z</time>
      </trkpt>
      <trkpt lat="59.2163749784" lon="17.7685209364">
        <ele>17.4</ele>
        <time>2011-05-01T07:49:13Z</time>
      </trkpt>
      <trkpt lat="59.2164829373" lon="17.7681179345">
        <ele>18.4</ele>
        <time>2011-05-01T07:49:16Z</time>
      </trkpt>
      <trkpt lat="59.2165889684" lon="17.7677099872">
        <ele>17.8</ele>
        <time>2011-05-01T07:49:19Z</time>
      </trkpt>
      <trkpt lat="59.216685947" lon="17.7672889642">
        <ele>18.4</ele>
        <time>2011-05-01T07:49:22Z</time>
      </trkpt>
      <trkpt lat="59.2167699337" lon="17.7668679412">
        <ele>18.4</ele>
        <time>2011-05-01T07:49:25Z</time>
      </trkpt>
      <trkpt lat="59.2168379948" lon="17.7664489299">
        <ele>18.4</ele>
        <time>2011-05-01T07:49:28Z</time>
      </trkpt>
      <trkpt lat="59.2168959975" lon="17.7660369594">
        <ele>18.4</ele>
        <time>2011-05-01T07:49:31Z</time>
      </trkpt>
      <trkpt lat="59.2169399187" lon="17.7656409983">
        <ele>18.8</ele>
        <time>2011-05-01T07:49:34Z</time>
      </trkpt>
      <trkpt lat="59.2169859353" lon="17.7652579453">
        <ele>19.8</ele>
        <time>2011-05-01T07:49:37Z</time>
      </trkpt>
      <trkpt lat="59.2170029506" lon="17.765127942">
        <ele>20.2</ele>
        <time>2011-05-01T07:49:38Z</time>
      </trkpt>
      <trkpt lat="59.2170479614" lon="17.7647409495">
        <ele>20.2</ele>
        <time>2011-05-01T07:49:41Z</time>
      </trkpt>
      <trkpt lat="59.2170979176" lon="17.7643609978">
        <ele>21.2</ele>
        <time>2011-05-01T07:49:44Z</time>
      </trkpt>
      <trkpt lat="59.2171459459" lon="17.7639799565">
        <ele>21.6</ele>
        <time>2011-05-01T07:49:47Z</time>
      </trkpt>
      <trkpt lat="59.2171959858" lon="17.7636039443">
        <ele>22.6</ele>
        <time>2011-05-01T07:49:50Z</time>
      </trkpt>
      <trkpt lat="59.2172529828" lon="17.7632319555">
        <ele>23.2</ele>
        <time>2011-05-01T07:49:53Z</time>
      </trkpt>
      <trkpt lat="59.2173159309" lon="17.7628589608">
        <ele>23.2</ele>
        <time>2011-05-01T07:49:56Z</time>
      </trkpt>
      <trkpt lat="59.2173889372" lon="17.7624849603">
        <ele>23.6</ele>
        <time>2011-05-01T07:49:59Z</time>
      </trkpt>
      <trkpt lat="59.2174169328" lon="17.7623609919">
        <ele>23.6</ele>
        <time>2011-05-01T07:50:00Z</time>
      </trkpt>
      <trkpt lat="59.2175139952" lon="17.7619969659">
        <ele>24</ele>
        <time>2011-05-01T07:50:03Z</time>
      </trkpt>
      <trkpt lat="59.2176179308" lon="17.76165599">
        <ele>25</ele>
        <time>2011-05-01T07:50:06Z</time>
      </trkpt>
      <trkpt lat="59.2177299969" lon="17.761322977">
        <ele>24.6</ele>
        <time>2011-05-01T07:50:09Z</time>
      </trkpt>
      <trkpt lat="59.2178429849" lon="17.7609819174">
        <ele>24</ele>
        <time>2011-05-01T07:50:12Z</time>
      </trkpt>
      <trkpt lat="59.217955973" lon="17.7606389299">
        <ele>24.6</ele>
        <time>2011-05-01T07:50:15Z</time>
      </trkpt>
      <trkpt lat="59.2180699669" lon="17.7602879796">
        <ele>25.6</ele>
        <time>2011-05-01T07:50:18Z</time>
      </trkpt>
      <trkpt lat="59.2181839608" lon="17.759939963">
        <ele>26</ele>
        <time>2011-05-01T07:50:21Z</time>
      </trkpt>
      <trkpt lat="59.2182969488" lon="17.759593958">
        <ele>26</ele>
        <time>2011-05-01T07:50:24Z</time>
      </trkpt>
      <trkpt lat="59.2184139602" lon="17.7592479531">
        <ele>26.4</ele>
        <time>2011-05-01T07:50:27Z</time>
      </trkpt>
      <trkpt lat="59.2185329832" lon="17.7588949911">
        <ele>26.4</ele>
        <time>2011-05-01T07:50:30Z</time>
      </trkpt>
      <trkpt lat="59.2186529282" lon="17.7585429512">
        <ele>26</ele>
        <time>2011-05-01T07:50:33Z</time>
      </trkpt>
      <trkpt lat="59.2187759746" lon="17.7581849601">
        <ele>26</ele>
        <time>2011-05-01T07:50:36Z</time>
      </trkpt>
      <trkpt lat="59.2189039662" lon="17.7578139771">
        <ele>25.6</ele>
        <time>2011-05-01T07:50:39Z</time>
      </trkpt>
      <trkpt lat="59.2190299463" lon="17.7574419882">
        <ele>25</ele>
        <time>2011-05-01T07:50:42Z</time>
      </trkpt>
      <trkpt lat="59.2191549204" lon="17.7570529841">
        <ele>24.6</ele>
        <time>2011-05-01T07:50:45Z</time>
      </trkpt>
      <trkpt lat="59.2192789726" lon="17.7566529997">
        <ele>24.6</ele>
        <time>2011-05-01T07:50:48Z</time>
      </trkpt>
      <trkpt lat="59.2194049526" lon="17.7562489919">
        <ele>23.6</ele>
        <time>2011-05-01T07:50:51Z</time>
      </trkpt>
      <trkpt lat="59.2195299268" lon="17.7558439784">
        <ele>25</ele>
        <time>2011-05-01T07:50:54Z</time>
      </trkpt>
      <trkpt lat="59.2196519673" lon="17.7554479335">
        <ele>24</ele>
        <time>2011-05-01T07:50:57Z</time>
      </trkpt>
      <trkpt lat="59.219773924" lon="17.7550509665">
        <ele>24</ele>
        <time>2011-05-01T07:51:00Z</time>
      </trkpt>
      <trkpt lat="59.2198979761" lon="17.7546479646">
        <ele>24</ele>
        <time>2011-05-01T07:51:03Z</time>
      </trkpt>
      <trkpt lat="59.2200229503" lon="17.7542409394">
        <ele>25</ele>
        <time>2011-05-01T07:51:06Z</time>
      </trkpt>
      <trkpt lat="59.2201499362" lon="17.7538249455">
        <ele>24</ele>
        <time>2011-05-01T07:51:09Z</time>
      </trkpt>
      <trkpt lat="59.2202809453" lon="17.7534119692">
        <ele>25</ele>
        <time>2011-05-01T07:51:12Z</time>
      </trkpt>
      <trkpt lat="59.2204049975" lon="17.753004944">
        <ele>23.6</ele>
        <time>2011-05-01T07:51:15Z</time>
      </trkpt>
      <trkpt lat="59.2205179855" lon="17.7525849268">
        <ele>24</ele>
        <time>2011-05-01T07:51:18Z</time>
      </trkpt>
      <trkpt lat="59.2206079233" lon="17.7521449607">
        <ele>23.6</ele>
        <time>2011-05-01T07:51:21Z</time>
      </trkpt>
      <trkpt lat="59.2206839472" lon="17.7516959421">
        <ele>24</ele>
        <time>2011-05-01T07:51:24Z</time>
      </trkpt>
      <trkpt lat="59.2207539361" lon="17.7512369491">
        <ele>23.2</ele>
        <time>2011-05-01T07:51:27Z</time>
      </trkpt>
      <trkpt lat="59.2208199855" lon="17.7507769503">
        <ele>24</ele>
        <time>2011-05-01T07:51:30Z</time>
      </trkpt>
      <trkpt lat="59.2208849452" lon="17.7503299434">
        <ele>24</ele>
        <time>2011-05-01T07:51:33Z</time>
      </trkpt>
      <trkpt lat="59.2209469713" lon="17.7498909831">
        <ele>25.6</ele>
        <time>2011-05-01T07:51:36Z</time>
      </trkpt>
      <trkpt lat="59.2209669203" lon="17.7497449704">
        <ele>25.6</ele>
        <time>2011-05-01T07:51:37Z</time>
      </trkpt>
      <trkpt lat="59.2210279405" lon="17.7493099496">
        <ele>24</ele>
        <time>2011-05-01T07:51:40Z</time>
      </trkpt>
      <trkpt lat="59.221074963" lon="17.7488709893">
        <ele>25.6</ele>
        <time>2011-05-01T07:51:43Z</time>
      </trkpt>
      <trkpt lat="59.2210899666" lon="17.7487269882">
        <ele>25.6</ele>
        <time>2011-05-01T07:51:44Z</time>
      </trkpt>
      <trkpt lat="59.2211519927" lon="17.7482969966">
        <ele>25</ele>
        <time>2011-05-01T07:51:47Z</time>
      </trkpt>
      <trkpt lat="59.2212149408" lon="17.7478629816">
        <ele>25</ele>
        <time>2011-05-01T07:51:50Z</time>
      </trkpt>
      <trkpt lat="59.221275961" lon="17.7474419586">
        <ele>25.6</ele>
        <time>2011-05-01T07:51:53Z</time>
      </trkpt>
      <trkpt lat="59.2213119194" lon="17.7471669484">
        <ele>25</ele>
        <time>2011-05-01T07:51:55Z</time>
      </trkpt>
      <trkpt lat="59.2213299405" lon="17.7470319998">
        <ele>25.6</ele>
        <time>2011-05-01T07:51:56Z</time>
      </trkpt>
      <trkpt lat="59.2213839199" lon="17.7466309257">
        <ele>25.6</ele>
        <time>2011-05-01T07:51:59Z</time>
      </trkpt>
      <trkpt lat="59.2214369774" lon="17.7462159377">
        <ele>25.6</ele>
        <time>2011-05-01T07:52:02Z</time>
      </trkpt>
      <trkpt lat="59.2214939743" lon="17.7457949985">
        <ele>25.6</ele>
        <time>2011-05-01T07:52:05Z</time>
      </trkpt>
      <trkpt lat="59.2215509713" lon="17.7453759871">
        <ele>26</ele>
        <time>2011-05-01T07:52:08Z</time>
      </trkpt>
      <trkpt lat="59.2216189485" lon="17.7449699678">
        <ele>26</ele>
        <time>2011-05-01T07:52:11Z</time>
      </trkpt>
      <trkpt lat="59.2217079643" lon="17.744578952">
        <ele>27</ele>
        <time>2011-05-01T07:52:14Z</time>
      </trkpt>
      <trkpt lat="59.2218209524" lon="17.7441719268">
        <ele>27</ele>
        <time>2011-05-01T07:52:17Z</time>
      </trkpt>
      <trkpt lat="59.2219009995" lon="17.7438839246">
        <ele>26.4</ele>
        <time>2011-05-01T07:52:19Z</time>
      </trkpt>
      <trkpt lat="59.2219419871" lon="17.7437409293">
        <ele>26.4</ele>
        <time>2011-05-01T07:52:20Z</time>
      </trkpt>
      <trkpt lat="59.2220649496" lon="17.7433059923">
        <ele>26.4</ele>
        <time>2011-05-01T07:52:23Z</time>
      </trkpt>
      <trkpt lat="59.2221919354" lon="17.7428609971">
        <ele>26.4</ele>
        <time>2011-05-01T07:52:26Z</time>
      </trkpt>
      <trkpt lat="59.2223269679" lon="17.7424049377">
        <ele>24.6</ele>
        <time>2011-05-01T07:52:29Z</time>
      </trkpt>
      <trkpt lat="59.2224609945" lon="17.7419439331">
        <ele>24</ele>
        <time>2011-05-01T07:52:32Z</time>
      </trkpt>
      <trkpt lat="59.222596949" lon="17.7414829284">
        <ele>23.6</ele>
        <time>2011-05-01T07:52:35Z</time>
      </trkpt>
      <trkpt lat="59.2227439675" lon="17.7410309762">
        <ele>22.6</ele>
        <time>2011-05-01T07:52:38Z</time>
      </trkpt>
      <trkpt lat="59.2229079176" lon="17.7405999787">
        <ele>21.2</ele>
        <time>2011-05-01T07:52:41Z</time>
      </trkpt>
      <trkpt lat="59.2230739631" lon="17.7401769441">
        <ele>20.8</ele>
        <time>2011-05-01T07:52:44Z</time>
      </trkpt>
      <trkpt lat="59.2232399248" lon="17.7397579327">
        <ele>20.2</ele>
        <time>2011-05-01T07:52:47Z</time>
      </trkpt>
      <trkpt lat="59.2234169506" lon="17.7393269353">
        <ele>19.8</ele>
        <time>2011-05-01T07:52:50Z</time>
      </trkpt>
      <trkpt lat="59.2235349678" lon="17.7390309703">
        <ele>19.8</ele>
        <time>2011-05-01T07:52:52Z</time>
      </trkpt>
      <trkpt lat="59.2237179447" lon="17.7385749947">
        <ele>19.2</ele>
        <time>2011-05-01T07:52:55Z</time>
      </trkpt>
      <trkpt lat="59.2239089683" lon="17.7381169237">
        <ele>18.4</ele>
        <time>2011-05-01T07:52:58Z</time>
      </trkpt>
      <trkpt lat="59.2240959685" lon="17.737661954">
        <ele>17.8</ele>
        <time>2011-05-01T07:53:01Z</time>
      </trkpt>
      <trkpt lat="59.2242779396" lon="17.7372159529">
        <ele>17.8</ele>
        <time>2011-05-01T07:53:04Z</time>
      </trkpt>
      <trkpt lat="59.2244639341" lon="17.7367869671">
        <ele>16.8</ele>
        <time>2011-05-01T07:53:07Z</time>
      </trkpt>
      <trkpt lat="59.224645989" lon="17.7363739908">
        <ele>16.8</ele>
        <time>2011-05-01T07:53:10Z</time>
      </trkpt>
      <trkpt lat="59.2248199973" lon="17.7359739225">
        <ele>17.4</ele>
        <time>2011-05-01T07:53:13Z</time>
      </trkpt>
      <trkpt lat="59.224985959" lon="17.7355839964">
        <ele>16.8</ele>
        <time>2011-05-01T07:53:16Z</time>
      </trkpt>
      <trkpt lat="59.2251439579" lon="17.7351979259">
        <ele>16.8</ele>
        <time>2011-05-01T07:53:19Z</time>
      </trkpt>
      <trkpt lat="59.2252959218" lon="17.7348049823">
        <ele>15.8</ele>
        <time>2011-05-01T07:53:22Z</time>
      </trkpt>
      <trkpt lat="59.2254399229" lon="17.7343759965">
        <ele>15.4</ele>
        <time>2011-05-01T07:53:25Z</time>
      </trkpt>
      <trkpt lat="59.2255819961" lon="17.7339389641">
        <ele>15.4</ele>
        <time>2011-05-01T07:53:28Z</time>
      </trkpt>
      <trkpt lat="59.2257249914" lon="17.7334939688">
        <ele>15</ele>
        <time>2011-05-01T07:53:31Z</time>
      </trkpt>
      <trkpt lat="59.225872932" lon="17.7330549248">
        <ele>15.4</ele>
        <time>2011-05-01T07:53:34Z</time>
      </trkpt>
      <trkpt lat="59.2260219622" lon="17.7326089237">
        <ele>15.4</ele>
        <time>2011-05-01T07:53:37Z</time>
      </trkpt>
      <trkpt lat="59.2261739261" lon="17.7321489248">
        <ele>15.4</ele>
        <time>2011-05-01T07:53:40Z</time>
      </trkpt>
      <trkpt lat="59.2263229564" lon="17.7317009959">
        <ele>15.4</ele>
        <time>2011-05-01T07:53:43Z</time>
      </trkpt>
      <trkpt lat="59.2264709808" lon="17.7312629577">
        <ele>15.8</ele>
        <time>2011-05-01T07:53:46Z</time>
      </trkpt>
      <trkpt lat="59.2266099527" lon="17.7308259252">
        <ele>16.4</ele>
        <time>2011-05-01T07:53:49Z</time>
      </trkpt>
      <trkpt lat="59.2267379444" lon="17.7303759847">
        <ele>16.4</ele>
        <time>2011-05-01T07:53:52Z</time>
      </trkpt>
      <trkpt lat="59.2268529441" lon="17.7299199253">
        <ele>16.4</ele>
        <time>2011-05-01T07:53:55Z</time>
      </trkpt>
      <trkpt lat="59.226890998" lon="17.7297699731">
        <ele>15.8</ele>
        <time>2011-05-01T07:53:56Z</time>
      </trkpt>
      <trkpt lat="59.226997951" lon="17.729323972">
        <ele>15.8</ele>
        <time>2011-05-01T07:53:59Z</time>
      </trkpt>
      <trkpt lat="59.2270999588" lon="17.7288849279">
        <ele>16.4</ele>
        <time>2011-05-01T07:54:02Z</time>
      </trkpt>
      <trkpt lat="59.2272009607" lon="17.7284539305">
        <ele>16.8</ele>
        <time>2011-05-01T07:54:05Z</time>
      </trkpt>
      <trkpt lat="59.227299951" lon="17.7280279621">
        <ele>17.4</ele>
        <time>2011-05-01T07:54:08Z</time>
      </trkpt>
      <trkpt lat="59.2273979355" lon="17.7276129741">
        <ele>17.8</ele>
        <time>2011-05-01T07:54:11Z</time>
      </trkpt>
      <trkpt lat="59.2274899688" lon="17.7272129897">
        <ele>18.4</ele>
        <time>2011-05-01T07:54:14Z</time>
      </trkpt>
      <trkpt lat="59.2275479715" lon="17.7269509714">
        <ele>18.8</ele>
        <time>2011-05-01T07:54:16Z</time>
      </trkpt>
      <trkpt lat="59.2276039626" lon="17.7266969997">
        <ele>19.8</ele>
        <time>2011-05-01T07:54:18Z</time>
      </trkpt>
      <trkpt lat="59.2276309524" lon="17.7265689243">
        <ele>20.2</ele>
        <time>2011-05-01T07:54:19Z</time>
      </trkpt>
      <trkpt lat="59.2277089879" lon="17.7261819318">
        <ele>20.2</ele>
        <time>2011-05-01T07:54:22Z</time>
      </trkpt>
      <trkpt lat="59.2277879454" lon="17.7258049976">
        <ele>21.6</ele>
        <time>2011-05-01T07:54:25Z</time>
      </trkpt>
      <trkpt lat="59.2278579343" lon="17.7254369482">
        <ele>21.6</ele>
        <time>2011-05-01T07:54:28Z</time>
      </trkpt>
      <trkpt lat="59.227903951" lon="17.7252009977">
        <ele>22.6</ele>
        <time>2011-05-01T07:54:30Z</time>
      </trkpt>
      <trkpt lat="59.2279749457" lon="17.7248519752">
        <ele>24</ele>
        <time>2011-05-01T07:54:33Z</time>
      </trkpt>
      <trkpt lat="59.2280219682" lon="17.7246239875">
        <ele>24.6</ele>
        <time>2011-05-01T07:54:35Z</time>
      </trkpt>
      <trkpt lat="59.2280959804" lon="17.7242849395">
        <ele>25</ele>
        <time>2011-05-01T07:54:38Z</time>
      </trkpt>
      <trkpt lat="59.2281739321" lon="17.7239389345">
        <ele>26</ele>
        <time>2011-05-01T07:54:41Z</time>
      </trkpt>
      <trkpt lat="59.2282579187" lon="17.7236049995">
        <ele>26.4</ele>
        <time>2011-05-01T07:54:44Z</time>
      </trkpt>
      <trkpt lat="59.2283459287" lon="17.7232709806">
        <ele>26.4</ele>
        <time>2011-05-01T07:54:47Z</time>
      </trkpt>
      <trkpt lat="59.228450954" lon="17.7229479421">
        <ele>27</ele>
        <time>2011-05-01T07:54:50Z</time>
      </trkpt>
      <trkpt lat="59.2285669595" lon="17.7226419188">
        <ele>27.4</ele>
        <time>2011-05-01T07:54:53Z</time>
      </trkpt>
      <trkpt lat="59.2286919337" lon="17.7223479655">
        <ele>28.4</ele>
        <time>2011-05-01T07:54:56Z</time>
      </trkpt>
      <trkpt lat="59.22881498" lon="17.7220499888">
        <ele>28.4</ele>
        <time>2011-05-01T07:54:59Z</time>
      </trkpt>
      <trkpt lat="59.2289399542" lon="17.7217439655">
        <ele>28.8</ele>
        <time>2011-05-01T07:55:02Z</time>
      </trkpt>
      <trkpt lat="59.229072975" lon="17.7214379422">
        <ele>29.4</ele>
        <time>2011-05-01T07:55:05Z</time>
      </trkpt>
      <trkpt lat="59.229198955" lon="17.7211369481">
        <ele>29.4</ele>
        <time>2011-05-01T07:55:08Z</time>
      </trkpt>
      <trkpt lat="59.229317978" lon="17.7208259795">
        <ele>29.8</ele>
        <time>2011-05-01T07:55:11Z</time>
      </trkpt>
      <trkpt lat="59.2294399347" lon="17.7205069643">
        <ele>30.4</ele>
        <time>2011-05-01T07:55:14Z</time>
      </trkpt>
      <trkpt lat="59.2295689322" lon="17.7201799862">
        <ele>30.4</ele>
        <time>2011-05-01T07:55:17Z</time>
      </trkpt>
      <trkpt lat="59.2296929844" lon="17.7198329754">
        <ele>30.4</ele>
        <time>2011-05-01T07:55:20Z</time>
      </trkpt>
      <trkpt lat="59.2298109178" lon="17.7194449771">
        <ele>30.4</ele>
        <time>2011-05-01T07:55:23Z</time>
      </trkpt>
      <trkpt lat="59.2299149372" lon="17.7190309949">
        <ele>30.4</ele>
        <time>2011-05-01T07:55:26Z</time>
      </trkpt>
      <trkpt lat="59.2299989238" lon="17.71859698">
        <ele>29.8</ele>
        <time>2011-05-01T07:55:29Z</time>
      </trkpt>
      <trkpt lat="59.2300649732" lon="17.7181399986">
        <ele>29.4</ele>
        <time>2011-05-01T07:55:32Z</time>
      </trkpt>
      <trkpt lat="59.2301179469" lon="17.7176459692">
        <ele>28.8</ele>
        <time>2011-05-01T07:55:35Z</time>
      </trkpt>
      <trkpt lat="59.2301749438" lon="17.7171559632">
        <ele>28</ele>
        <time>2011-05-01T07:55:38Z</time>
      </trkpt>
      <trkpt lat="59.2302319407" lon="17.7166799549">
        <ele>26.4</ele>
        <time>2011-05-01T07:55:41Z</time>
      </trkpt>
      <trkpt lat="59.2302829865" lon="17.7162109874">
        <ele>28</ele>
        <time>2011-05-01T07:55:44Z</time>
      </trkpt>
      <trkpt lat="59.2303389776" lon="17.7157539222">
        <ele>27.4</ele>
        <time>2011-05-01T07:55:47Z</time>
      </trkpt>
      <trkpt lat="59.2303999979" lon="17.7153159678">
        <ele>28</ele>
        <time>2011-05-01T07:55:50Z</time>
      </trkpt>
      <trkpt lat="59.230462946" lon="17.7148729842">
        <ele>27.4</ele>
        <time>2011-05-01T07:55:53Z</time>
      </trkpt>
      <trkpt lat="59.2305349465" lon="17.7144109737">
        <ele>27.4</ele>
        <time>2011-05-01T07:55:56Z</time>
      </trkpt>
      <trkpt lat="59.2306179274" lon="17.7139549982">
        <ele>26.4</ele>
        <time>2011-05-01T07:55:59Z</time>
      </trkpt>
      <trkpt lat="59.2307019979" lon="17.7135089971">
        <ele>27</ele>
        <time>2011-05-01T07:56:02Z</time>
      </trkpt>
      <trkpt lat="59.2307929415" lon="17.7130729705">
        <ele>27</ele>
        <time>2011-05-01T07:56:05Z</time>
      </trkpt>
      <trkpt lat="59.2308929376" lon="17.7126429789">
        <ele>26</ele>
        <time>2011-05-01T07:56:08Z</time>
      </trkpt>
      <trkpt lat="59.230996957" lon="17.7122159209">
        <ele>26</ele>
        <time>2011-05-01T07:56:11Z</time>
      </trkpt>
      <trkpt lat="59.2311069276" lon="17.7117879409">
        <ele>26</ele>
        <time>2011-05-01T07:56:14Z</time>
      </trkpt>
      <trkpt lat="59.2311459873" lon="17.7116439398">
        <ele>26.4</ele>
        <time>2011-05-01T07:56:15Z</time>
      </trkpt>
      <trkpt lat="59.2311849631" lon="17.7114969213">
        <ele>26</ele>
        <time>2011-05-01T07:56:16Z</time>
      </trkpt>
      <trkpt lat="59.2313159723" lon="17.7110489924">
        <ele>25.6</ele>
        <time>2011-05-01T07:56:19Z</time>
      </trkpt>
      <trkpt lat="59.2314529326" lon="17.7106059249">
        <ele>25.6</ele>
        <time>2011-05-01T07:56:22Z</time>
      </trkpt>
      <trkpt lat="59.2315929942" lon="17.7101699822">
        <ele>25</ele>
        <time>2011-05-01T07:56:25Z</time>
      </trkpt>
      <trkpt lat="59.2317379173" lon="17.7097419184">
        <ele>24.6</ele>
        <time>2011-05-01T07:56:28Z</time>
      </trkpt>
      <trkpt lat="59.2318799905" lon="17.7093249187">
        <ele>24</ele>
        <time>2011-05-01T07:56:31Z</time>
      </trkpt>
      <trkpt lat="59.2320179567" lon="17.7089019679">
        <ele>23.2</ele>
        <time>2011-05-01T07:56:34Z</time>
      </trkpt>
      <trkpt lat="59.23214796" lon="17.7084659413">
        <ele>24</ele>
        <time>2011-05-01T07:56:37Z</time>
      </trkpt>
      <trkpt lat="59.2321909592" lon="17.7083199285">
        <ele>23.6</ele>
        <time>2011-05-01T07:56:38Z</time>
      </trkpt>
      <trkpt lat="59.2322329525" lon="17.7081759274">
        <ele>24</ele>
        <time>2011-05-01T07:56:39Z</time>
      </trkpt>
      <trkpt lat="59.2323509697" lon="17.7077419963">
        <ele>24</ele>
        <time>2011-05-01T07:56:42Z</time>
      </trkpt>
      <trkpt lat="59.2324399855" lon="17.7072809916">
        <ele>24</ele>
        <time>2011-05-01T07:56:45Z</time>
      </trkpt>
      <trkpt lat="59.232493965" lon="17.7067869622">
        <ele>24.6</ele>
        <time>2011-05-01T07:56:48Z</time>
      </trkpt>
      <trkpt lat="59.2325269897" lon="17.7062889934">
        <ele>23.6</ele>
        <time>2011-05-01T07:56:51Z</time>
      </trkpt>
      <trkpt lat="59.2325359583" lon="17.7057859953">
        <ele>23.2</ele>
        <time>2011-05-01T07:56:54Z</time>
      </trkpt>
      <trkpt lat="59.2325199489" lon="17.7052619588">
        <ele>22.2</ele>
        <time>2011-05-01T07:56:57Z</time>
      </trkpt>
      <trkpt lat="59.23248793" lon="17.7049199771">
        <ele>21.2</ele>
        <time>2011-05-01T07:56:59Z</time>
      </trkpt>
      <trkpt lat="59.2324279994" lon="17.704581935">
        <ele>21.2</ele>
        <time>2011-05-01T07:57:01Z</time>
      </trkpt>
      <trkpt lat="59.2323889397" lon="17.7044169791">
        <ele>20.8</ele>
        <time>2011-05-01T07:57:02Z</time>
      </trkpt>
      <trkpt lat="59.2322559189" lon="17.7039199322">
        <ele>19.8</ele>
        <time>2011-05-01T07:57:05Z</time>
      </trkpt>
      <trkpt lat="59.232116947" lon="17.703430932">
        <ele>17.8</ele>
        <time>2011-05-01T07:57:08Z</time>
      </trkpt>
      <trkpt lat="59.2319689225" lon="17.7029489726">
        <ele>17.4</ele>
        <time>2011-05-01T07:57:11Z</time>
      </trkpt>
      <trkpt lat="59.2318219878" lon="17.7024449687">
        <ele>15.8</ele>
        <time>2011-05-01T07:57:14Z</time>
      </trkpt>
      <trkpt lat="59.2317729536" lon="17.7022709604">
        <ele>15.4</ele>
        <time>2011-05-01T07:57:15Z</time>
      </trkpt>
      <trkpt lat="59.2316249292" lon="17.7017419785">
        <ele>14.4</ele>
        <time>2011-05-01T07:57:18Z</time>
      </trkpt>
      <trkpt lat="59.2314929981" lon="17.7011959814">
        <ele>14.4</ele>
        <time>2011-05-01T07:57:21Z</time>
      </trkpt>
      <trkpt lat="59.2313979473" lon="17.7006769739">
        <ele>14.4</ele>
        <time>2011-05-01T07:57:24Z</time>
      </trkpt>
      <trkpt lat="59.2313519306" lon="17.7003509179">
        <ele>15</ele>
        <time>2011-05-01T07:57:26Z</time>
      </trkpt>
      <trkpt lat="59.2313309759" lon="17.7001949307">
        <ele>15.8</ele>
        <time>2011-05-01T07:57:27Z</time>
      </trkpt>
      <trkpt lat="59.2312789243" lon="17.6997559704">
        <ele>18.4</ele>
        <time>2011-05-01T07:57:30Z</time>
      </trkpt>
      <trkpt lat="59.2312359251" lon="17.6993609313">
        <ele>19.8</ele>
        <time>2011-05-01T07:57:33Z</time>
      </trkpt>
      <trkpt lat="59.2312229332" lon="17.6992379688">
        <ele>19.8</ele>
        <time>2011-05-01T07:57:34Z</time>
      </trkpt>
      <trkpt lat="59.2311839573" lon="17.6988889463">
        <ele>20.8</ele>
        <time>2011-05-01T07:57:37Z</time>
      </trkpt>
      <trkpt lat="59.231148921" lon="17.6985469647">
        <ele>21.6</ele>
        <time>2011-05-01T07:57:40Z</time>
      </trkpt>
      <trkpt lat="59.2311109509" lon="17.6981909852">
        <ele>23.2</ele>
        <time>2011-05-01T07:57:43Z</time>
      </trkpt>
      <trkpt lat="59.2310759984" lon="17.6978439745">
        <ele>24.6</ele>
        <time>2011-05-01T07:57:46Z</time>
      </trkpt>
      <trkpt lat="59.2310549598" lon="17.6976259612">
        <ele>24.6</ele>
        <time>2011-05-01T07:57:48Z</time>
      </trkpt>
      <trkpt lat="59.2310429737" lon="17.6975169964">
        <ele>25</ele>
        <time>2011-05-01T07:57:49Z</time>
      </trkpt>
      <trkpt lat="59.2310069315" lon="17.6971939579">
        <ele>26</ele>
        <time>2011-05-01T07:57:52Z</time>
      </trkpt>
      <trkpt lat="59.2309739906" lon="17.6968809776">
        <ele>27</ele>
        <time>2011-05-01T07:57:55Z</time>
      </trkpt>
      <trkpt lat="59.2309419718" lon="17.6965739485">
        <ele>28</ele>
        <time>2011-05-01T07:57:58Z</time>
      </trkpt>
      <trkpt lat="59.2309309915" lon="17.6964749582">
        <ele>28.4</ele>
        <time>2011-05-01T07:57:59Z</time>
      </trkpt>
      <trkpt lat="59.2308899201" lon="17.6960959285">
        <ele>29.8</ele>
        <time>2011-05-01T07:58:03Z</time>
      </trkpt>
      <trkpt lat="59.2308539618" lon="17.6957249455">
        <ele>30.8</ele>
        <time>2011-05-01T07:58:07Z</time>
      </trkpt>
      <trkpt lat="59.2308009882" lon="17.6953219436">
        <ele>31.8</ele>
        <time>2011-05-01T07:58:11Z</time>
      </trkpt>
      <trkpt lat="59.230789924" lon="17.6952279825">
        <ele>32.8</ele>
        <time>2011-05-01T07:58:12Z</time>
      </trkpt>
      <trkpt lat="59.2307779379" lon="17.69513092">
        <ele>33.2</ele>
        <time>2011-05-01T07:58:13Z</time>
      </trkpt>
      <trkpt lat="59.2307259701" lon="17.6947349589">
        <ele>34.2</ele>
        <time>2011-05-01T07:58:17Z</time>
      </trkpt>
      <trkpt lat="59.2306909338" lon="17.6944519859">
        <ele>35.2</ele>
        <time>2011-05-01T07:58:20Z</time>
      </trkpt>
      <trkpt lat="59.230632931" lon="17.6939319726">
        <ele>36.6</ele>
        <time>2011-05-01T07:58:25Z</time>
      </trkpt>
      <trkpt lat="59.2305959668" lon="17.6936419588">
        <ele>37.6</ele>
        <time>2011-05-01T07:58:28Z</time>
      </trkpt>
      <trkpt lat="59.2305589188" lon="17.6933399588">
        <ele>38</ele>
        <time>2011-05-01T07:58:31Z</time>
      </trkpt>
      <trkpt lat="59.2305149976" lon="17.693029996">
        <ele>39</ele>
        <time>2011-05-01T07:58:34Z</time>
      </trkpt>
      <trkpt lat="59.230468981" lon="17.6927079633">
        <ele>39</ele>
        <time>2011-05-01T07:58:37Z</time>
      </trkpt>
      <trkpt lat="59.2304159235" lon="17.6923819911">
        <ele>39.4</ele>
        <time>2011-05-01T07:58:40Z</time>
      </trkpt>
      <trkpt lat="59.2303559929" lon="17.6920469664">
        <ele>40</ele>
        <time>2011-05-01T07:58:43Z</time>
      </trkpt>
      <trkpt lat="59.230286926" lon="17.6917109359">
        <ele>40</ele>
        <time>2011-05-01T07:58:46Z</time>
      </trkpt>
      <trkpt lat="59.2302089743" lon="17.6913799345">
        <ele>40.4</ele>
        <time>2011-05-01T07:58:49Z</time>
      </trkpt>
      <trkpt lat="59.2301219702" lon="17.6910539623">
        <ele>40.8</ele>
        <time>2011-05-01T07:58:52Z</time>
      </trkpt>
      <trkpt lat="59.2300239857" lon="17.6907379646">
        <ele>41.4</ele>
        <time>2011-05-01T07:58:55Z</time>
      </trkpt>
      <trkpt lat="59.2299169488" lon="17.690433953">
        <ele>41.8</ele>
        <time>2011-05-01T07:58:58Z</time>
      </trkpt>
      <trkpt lat="59.2298009433" lon="17.6901409216">
        <ele>41.8</ele>
        <time>2011-05-01T07:59:01Z</time>
      </trkpt>
      <trkpt lat="59.2296789866" lon="17.6898579486">
        <ele>42.4</ele>
        <time>2011-05-01T07:59:04Z</time>
      </trkpt>
      <trkpt lat="59.2295549344" lon="17.6895859558">
        <ele>43.2</ele>
        <time>2011-05-01T07:59:07Z</time>
      </trkpt>
      <trkpt lat="59.2294359952" lon="17.6893279608">
        <ele>43.8</ele>
        <time>2011-05-01T07:59:10Z</time>
      </trkpt>
      <trkpt lat="59.2293209955" lon="17.6890789345">
        <ele>44.2</ele>
        <time>2011-05-01T07:59:13Z</time>
      </trkpt>
      <trkpt lat="59.2292119469" lon="17.6888419781">
        <ele>45.6</ele>
        <time>2011-05-01T07:59:16Z</time>
      </trkpt>
      <trkpt lat="59.2291059997" lon="17.6886129845">
        <ele>46.6</ele>
        <time>2011-05-01T07:59:19Z</time>
      </trkpt>
      <trkpt lat="59.2290029861" lon="17.6883689873">
        <ele>47.6</ele>
        <time>2011-05-01T07:59:22Z</time>
      </trkpt>
      <trkpt lat="59.2289689556" lon="17.6882879343">
        <ele>47.6</ele>
        <time>2011-05-01T07:59:23Z</time>
      </trkpt>
      <trkpt lat="59.2288649362" lon="17.6880559232">
        <ele>48.6</ele>
        <time>2011-05-01T07:59:26Z</time>
      </trkpt>
      <trkpt lat="59.2287569772" lon="17.6878059749">
        <ele>48.2</ele>
        <time>2011-05-01T07:59:29Z</time>
      </trkpt>
      <trkpt lat="59.2286349367" lon="17.6875389274">
        <ele>47.6</ele>
        <time>2011-05-01T07:59:32Z</time>
      </trkpt>
      <trkpt lat="59.2284999881" lon="17.6872319821">
        <ele>46.6</ele>
        <time>2011-05-01T07:59:35Z</time>
      </trkpt>
      <trkpt lat="59.2283439171" lon="17.6868879888">
        <ele>45.6</ele>
        <time>2011-05-01T07:59:38Z</time>
      </trkpt>
      <trkpt lat="59.2281639576" lon="17.6864889264">
        <ele>44.8</ele>
        <time>2011-05-01T07:59:41Z</time>
      </trkpt>
      <trkpt lat="59.227978969" lon="17.6860619523">
        <ele>43.8</ele>
        <time>2011-05-01T07:59:44Z</time>
      </trkpt>
      <trkpt lat="59.2278539948" lon="17.6857749559">
        <ele>43.8</ele>
        <time>2011-05-01T07:59:46Z</time>
      </trkpt>
      <trkpt lat="59.2277909629" lon="17.685629949">
        <ele>43.2</ele>
        <time>2011-05-01T07:59:47Z</time>
      </trkpt>
      <trkpt lat="59.2271539383" lon="17.6841689833">
        <ele>38.4</ele>
        <time>2011-05-01T07:59:56Z</time>
      </trkpt>
      <trkpt lat="59.2269239388" lon="17.6836639736">
        <ele>35.6</ele>
        <time>2011-05-01T07:59:59Z</time>
      </trkpt>
      <trkpt lat="59.2267639283" lon="17.6833179686">
        <ele>35.2</ele>
        <time>2011-05-01T08:00:01Z</time>
      </trkpt>
      <trkpt lat="59.2266049236" lon="17.6830049884">
        <ele>34.6</ele>
        <time>2011-05-01T08:00:03Z</time>
      </trkpt>
      <trkpt lat="59.2263629381" lon="17.6825559698">
        <ele>33.2</ele>
        <time>2011-05-01T08:00:06Z</time>
      </trkpt>
      <trkpt lat="59.2261189409" lon="17.6821189374">
        <ele>32.2</ele>
        <time>2011-05-01T08:00:09Z</time>
      </trkpt>
      <trkpt lat="59.22603596" lon="17.6819809712">
        <ele>32.2</ele>
        <time>2011-05-01T08:00:10Z</time>
      </trkpt>
      <trkpt lat="59.2257819884" lon="17.6815749519">
        <ele>32.2</ele>
        <time>2011-05-01T08:00:13Z</time>
      </trkpt>
      <trkpt lat="59.2255189642" lon="17.6811689325">
        <ele>31.8</ele>
        <time>2011-05-01T08:00:16Z</time>
      </trkpt>
      <trkpt lat="59.2252599634" lon="17.680774983">
        <ele>31.8</ele>
        <time>2011-05-01T08:00:19Z</time>
      </trkpt>
      <trkpt lat="59.2250109371" lon="17.6803989708">
        <ele>31.8</ele>
        <time>2011-05-01T08:00:22Z</time>
      </trkpt>
      <trkpt lat="59.2247669399" lon="17.6800329331">
        <ele>30.4</ele>
        <time>2011-05-01T08:00:25Z</time>
      </trkpt>
      <trkpt lat="59.2245329171" lon="17.6796719246">
        <ele>29.4</ele>
        <time>2011-05-01T08:00:28Z</time>
      </trkpt>
      <trkpt lat="59.2242999841" lon="17.679316951">
        <ele>28.8</ele>
        <time>2011-05-01T08:00:31Z</time>
      </trkpt>
      <trkpt lat="59.2240629438" lon="17.6789559424">
        <ele>29.4</ele>
        <time>2011-05-01T08:00:34Z</time>
      </trkpt>
      <trkpt lat="59.2238189466" lon="17.6785949338">
        <ele>28.8</ele>
        <time>2011-05-01T08:00:37Z</time>
      </trkpt>
      <trkpt lat="59.2235869355" lon="17.6782389544">
        <ele>29.8</ele>
        <time>2011-05-01T08:00:40Z</time>
      </trkpt>
      <trkpt lat="59.2233669944" lon="17.6779019181">
        <ele>29.4</ele>
        <time>2011-05-01T08:00:43Z</time>
      </trkpt>
      <trkpt lat="59.2231569439" lon="17.6775849983">
        <ele>30.4</ele>
        <time>2011-05-01T08:00:46Z</time>
      </trkpt>
      <trkpt lat="59.2229459714" lon="17.6772699226">
        <ele>30.8</ele>
        <time>2011-05-01T08:00:49Z</time>
      </trkpt>
      <trkpt lat="59.2227319814" lon="17.6769449562">
        <ele>29.8</ele>
        <time>2011-05-01T08:00:52Z</time>
      </trkpt>
      <trkpt lat="59.2225219309" lon="17.6766069978">
        <ele>30.8</ele>
        <time>2011-05-01T08:00:55Z</time>
      </trkpt>
      <trkpt lat="59.2223269679" lon="17.6762259565">
        <ele>31.2</ele>
        <time>2011-05-01T08:00:58Z</time>
      </trkpt>
      <trkpt lat="59.2222669534" lon="17.6760899182">
        <ele>31.2</ele>
        <time>2011-05-01T08:00:59Z</time>
      </trkpt>
      <trkpt lat="59.2221129779" lon="17.675681971">
        <ele>33.2</ele>
        <time>2011-05-01T08:01:02Z</time>
      </trkpt>
      <trkpt lat="59.2219849862" lon="17.6752779633">
        <ele>34.6</ele>
        <time>2011-05-01T08:01:05Z</time>
      </trkpt>
      <trkpt lat="59.2218659632" lon="17.6748689264">
        <ele>34.6</ele>
        <time>2011-05-01T08:01:08Z</time>
      </trkpt>
      <trkpt lat="59.2217489518" lon="17.6744649187">
        <ele>35.2</ele>
        <time>2011-05-01T08:01:11Z</time>
      </trkpt>
      <trkpt lat="59.2216329463" lon="17.6740739867">
        <ele>34.6</ele>
        <time>2011-05-01T08:01:14Z</time>
      </trkpt>
      <trkpt lat="59.2215049546" lon="17.673663944">
        <ele>34.6</ele>
        <time>2011-05-01T08:01:17Z</time>
      </trkpt>
      <trkpt lat="59.2214229796" lon="17.6733849943">
        <ele>35.6</ele>
        <time>2011-05-01T08:01:19Z</time>
      </trkpt>
      <trkpt lat="59.2213439383" lon="17.6731089782">
        <ele>36</ele>
        <time>2011-05-01T08:01:21Z</time>
      </trkpt>
      <trkpt lat="59.2213039566" lon="17.6729729399">
        <ele>36</ele>
        <time>2011-05-01T08:01:22Z</time>
      </trkpt>
      <trkpt lat="59.2211869452" lon="17.6725659985">
        <ele>35.6</ele>
        <time>2011-05-01T08:01:25Z</time>
      </trkpt>
      <trkpt lat="59.2210659944" lon="17.6721629966">
        <ele>36</ele>
        <time>2011-05-01T08:01:28Z</time>
      </trkpt>
      <trkpt lat="59.2209479772" lon="17.6717639342">
        <ele>36</ele>
        <time>2011-05-01T08:01:31Z</time>
      </trkpt>
      <trkpt lat="59.2208269425" lon="17.6713649556">
        <ele>36.6</ele>
        <time>2011-05-01T08:01:34Z</time>
      </trkpt>
      <trkpt lat="59.2207099311" lon="17.6709719282">
        <ele>36.6</ele>
        <time>2011-05-01T08:01:37Z</time>
      </trkpt>
      <trkpt lat="59.2205939256" lon="17.670594994">
        <ele>37.6</ele>
        <time>2011-05-01T08:01:40Z</time>
      </trkpt>
      <trkpt lat="59.220483955" lon="17.6702339854">
        <ele>38</ele>
        <time>2011-05-01T08:01:43Z</time>
      </trkpt>
      <trkpt lat="59.2204469908" lon="17.6701149624">
        <ele>38</ele>
        <time>2011-05-01T08:01:44Z</time>
      </trkpt>
      <trkpt lat="59.2203369364" lon="17.6697639283">
        <ele>39</ele>
        <time>2011-05-01T08:01:47Z</time>
      </trkpt>
      <trkpt lat="59.2202349287" lon="17.6694089547">
        <ele>40</ele>
        <time>2011-05-01T08:01:50Z</time>
      </trkpt>
      <trkpt lat="59.2201279756" lon="17.669066973">
        <ele>40.8</ele>
        <time>2011-05-01T08:01:53Z</time>
      </trkpt>
      <trkpt lat="59.2200219445" lon="17.6687479578">
        <ele>41.4</ele>
        <time>2011-05-01T08:01:56Z</time>
      </trkpt>
      <trkpt lat="59.2199099623" lon="17.6684489753">
        <ele>41.8</ele>
        <time>2011-05-01T08:01:59Z</time>
      </trkpt>
      <trkpt lat="59.2197909392" lon="17.6681789942">
        <ele>43.2</ele>
        <time>2011-05-01T08:02:02Z</time>
      </trkpt>
      <trkpt lat="59.2196609359" lon="17.667934997">
        <ele>43.8</ele>
        <time>2011-05-01T08:02:05Z</time>
      </trkpt>
      <trkpt lat="59.2196129914" lon="17.6678569615">
        <ele>44.2</ele>
        <time>2011-05-01T08:02:06Z</time>
      </trkpt>
      <trkpt lat="59.2195619456" lon="17.6677759923">
        <ele>43.8</ele>
        <time>2011-05-01T08:02:07Z</time>
      </trkpt>
      <trkpt lat="59.219395984" lon="17.6675389521">
        <ele>44.2</ele>
        <time>2011-05-01T08:02:10Z</time>
      </trkpt>
      <trkpt lat="59.2192189582" lon="17.6673289854">
        <ele>44.8</ele>
        <time>2011-05-01T08:02:13Z</time>
      </trkpt>
      <trkpt lat="59.2190249171" lon="17.6671539713">
        <ele>44.2</ele>
        <time>2011-05-01T08:02:16Z</time>
      </trkpt>
      <trkpt lat="59.2188159563" lon="17.6670089643">
        <ele>44.2</ele>
        <time>2011-05-01T08:02:19Z</time>
      </trkpt>
      <trkpt lat="59.2185889743" lon="17.6668889355">
        <ele>43.2</ele>
        <time>2011-05-01T08:02:22Z</time>
      </trkpt>
      <trkpt lat="59.2183489166" lon="17.6667749416">
        <ele>42.8</ele>
        <time>2011-05-01T08:02:25Z</time>
      </trkpt>
      <trkpt lat="59.218087988" lon="17.6666529849">
        <ele>41.4</ele>
        <time>2011-05-01T08:02:28Z</time>
      </trkpt>
      <trkpt lat="59.2178149894" lon="17.6665289328">
        <ele>39.4</ele>
        <time>2011-05-01T08:02:31Z</time>
      </trkpt>
      <trkpt lat="59.2175369617" lon="17.6663809922">
        <ele>37.6</ele>
        <time>2011-05-01T08:02:34Z</time>
      </trkpt>
      <trkpt lat="59.2172449362" lon="17.6662029605">
        <ele>36.6</ele>
        <time>2011-05-01T08:02:37Z</time>
      </trkpt>
      <trkpt lat="59.2169459537" lon="17.6659879647">
        <ele>36</ele>
        <time>2011-05-01T08:02:40Z</time>
      </trkpt>
      <trkpt lat="59.2166569456" lon="17.6657189894">
        <ele>35.6</ele>
        <time>2011-05-01T08:02:43Z</time>
      </trkpt>
      <trkpt lat="59.2163959332" lon="17.665363932">
        <ele>34.2</ele>
        <time>2011-05-01T08:02:46Z</time>
      </trkpt>
      <trkpt lat="59.216182949" lon="17.6649319287">
        <ele>33.2</ele>
        <time>2011-05-01T08:02:49Z</time>
      </trkpt>
      <trkpt lat="59.2160139699" lon="17.6644579321">
        <ele>35.2</ele>
        <time>2011-05-01T08:02:52Z</time>
      </trkpt>
      <trkpt lat="59.2159709707" lon="17.6642989274">
        <ele>34.6</ele>
        <time>2011-05-01T08:02:53Z</time>
      </trkpt>
      <trkpt lat="59.2158749979" lon="17.6638489868">
        <ele>36</ele>
        <time>2011-05-01T08:02:56Z</time>
      </trkpt>
      <trkpt lat="59.2158099543" lon="17.6634219289">
        <ele>37</ele>
        <time>2011-05-01T08:02:59Z</time>
      </trkpt>
      <trkpt lat="59.2157759238" lon="17.66301197">
        <ele>39</ele>
        <time>2011-05-01T08:03:02Z</time>
      </trkpt>
      <trkpt lat="59.2157669552" lon="17.6626079623">
        <ele>40</ele>
        <time>2011-05-01T08:03:05Z</time>
      </trkpt>
      <trkpt lat="59.2157769296" lon="17.6622159407">
        <ele>40</ele>
        <time>2011-05-01T08:03:08Z</time>
      </trkpt>
      <trkpt lat="59.2158019915" lon="17.6618179679">
        <ele>40.8</ele>
        <time>2011-05-01T08:03:11Z</time>
      </trkpt>
      <trkpt lat="59.2158339266" lon="17.6613849588">
        <ele>41.4</ele>
        <time>2011-05-01T08:03:14Z</time>
      </trkpt>
      <trkpt lat="59.2158579826" lon="17.6611059252">
        <ele>41.8</ele>
        <time>2011-05-01T08:03:16Z</time>
      </trkpt>
      <trkpt lat="59.2158689629" lon="17.6609729882">
        <ele>41.8</ele>
        <time>2011-05-01T08:03:17Z</time>
      </trkpt>
      <trkpt lat="59.2158979643" lon="17.6605709922">
        <ele>42.8</ele>
        <time>2011-05-01T08:03:20Z</time>
      </trkpt>
      <trkpt lat="59.2159179971" lon="17.6601659786">
        <ele>43.8</ele>
        <time>2011-05-01T08:03:23Z</time>
      </trkpt>
      <trkpt lat="59.2159339227" lon="17.659767922">
        <ele>44.2</ele>
        <time>2011-05-01T08:03:26Z</time>
      </trkpt>
      <trkpt lat="59.2159429751" lon="17.6593649201">
        <ele>43.8</ele>
        <time>2011-05-01T08:03:29Z</time>
      </trkpt>
      <trkpt lat="59.2159289774" lon="17.6589459926">
        <ele>43.2</ele>
        <time>2011-05-01T08:03:32Z</time>
      </trkpt>
      <trkpt lat="59.2158899177" lon="17.658509966">
        <ele>43.2</ele>
        <time>2011-05-01T08:03:35Z</time>
      </trkpt>
      <trkpt lat="59.2158089485" lon="17.6580519788">
        <ele>42.4</ele>
        <time>2011-05-01T08:03:38Z</time>
      </trkpt>
      <trkpt lat="59.215773996" lon="17.6579039544">
        <ele>42.4</ele>
        <time>2011-05-01T08:03:39Z</time>
      </trkpt>
      <trkpt lat="59.2156619299" lon="17.6574779861">
        <ele>42.4</ele>
        <time>2011-05-01T08:03:42Z</time>
      </trkpt>
      <trkpt lat="59.2155469302" lon="17.6570599806">
        <ele>42.4</ele>
        <time>2011-05-01T08:03:45Z</time>
      </trkpt>
      <trkpt lat="59.2154269852" lon="17.6566429809">
        <ele>42.4</ele>
        <time>2011-05-01T08:03:48Z</time>
      </trkpt>
      <trkpt lat="59.2152969819" lon="17.6562389731">
        <ele>42.4</ele>
        <time>2011-05-01T08:03:51Z</time>
      </trkpt>
      <trkpt lat="59.2151469458" lon="17.6558689959">
        <ele>41.8</ele>
        <time>2011-05-01T08:03:54Z</time>
      </trkpt>
      <trkpt lat="59.2150909547" lon="17.6557549182">
        <ele>40.8</ele>
        <time>2011-05-01T08:03:55Z</time>
      </trkpt>
      <trkpt lat="59.2148339655" lon="17.6553629804">
        <ele>41.4</ele>
        <time>2011-05-01T08:03:59Z</time>
      </trkpt>
      <trkpt lat="59.2146159522" lon="17.6551219169">
        <ele>41.4</ele>
        <time>2011-05-01T08:04:02Z</time>
      </trkpt>
      <trkpt lat="59.2143819295" lon="17.6549299713">
        <ele>40.8</ele>
        <time>2011-05-01T08:04:05Z</time>
      </trkpt>
      <trkpt lat="59.2141429614" lon="17.6547679491">
        <ele>41.4</ele>
        <time>2011-05-01T08:04:08Z</time>
      </trkpt>
      <trkpt lat="59.2138879839" lon="17.6545959525">
        <ele>41.4</ele>
        <time>2011-05-01T08:04:11Z</time>
      </trkpt>
      <trkpt lat="59.2136449926" lon="17.6544449944">
        <ele>41.4</ele>
        <time>2011-05-01T08:04:14Z</time>
      </trkpt>
      <trkpt lat="59.2134049349" lon="17.6542989817">
        <ele>41.4</ele>
        <time>2011-05-01T08:04:17Z</time>
      </trkpt>
      <trkpt lat="59.2131669726" lon="17.6541519631">
        <ele>41.8</ele>
        <time>2011-05-01T08:04:20Z</time>
      </trkpt>
      <trkpt lat="59.2129269987" lon="17.6540049445">
        <ele>40.8</ele>
        <time>2011-05-01T08:04:23Z</time>
      </trkpt>
      <trkpt lat="59.2127689999" lon="17.6539089717">
        <ele>41.4</ele>
        <time>2011-05-01T08:04:25Z</time>
      </trkpt>
      <trkpt lat="59.2126909643" lon="17.6538609434">
        <ele>41.4</ele>
        <time>2011-05-01T08:04:26Z</time>
      </trkpt>
      <trkpt lat="59.2124609649" lon="17.6537209656">
        <ele>41.4</ele>
        <time>2011-05-01T08:04:29Z</time>
      </trkpt>
      <trkpt lat="59.2122259364" lon="17.6535599492">
        <ele>41.8</ele>
        <time>2011-05-01T08:04:32Z</time>
      </trkpt>
      <trkpt lat="59.2120009661" lon="17.6533889584">
        <ele>41.8</ele>
        <time>2011-05-01T08:04:35Z</time>
      </trkpt>
      <trkpt lat="59.2117819469" lon="17.6531949174">
        <ele>41.4</ele>
        <time>2011-05-01T08:04:38Z</time>
      </trkpt>
      <trkpt lat="59.2115639336" lon="17.6529809274">
        <ele>41.4</ele>
        <time>2011-05-01T08:04:41Z</time>
      </trkpt>
      <trkpt lat="59.2113459203" lon="17.6527629979">
        <ele>40.8</ele>
        <time>2011-05-01T08:04:44Z</time>
      </trkpt>
      <trkpt lat="59.2111229617" lon="17.652560994">
        <ele>40.8</ele>
        <time>2011-05-01T08:04:47Z</time>
      </trkpt>
      <trkpt lat="59.2108909506" lon="17.6523959544">
        <ele>41.4</ele>
        <time>2011-05-01T08:04:50Z</time>
      </trkpt>
      <trkpt lat="59.2106589396" lon="17.6522809546">
        <ele>41.4</ele>
        <time>2011-05-01T08:04:53Z</time>
      </trkpt>
      <trkpt lat="59.2104179598" lon="17.6521779411">
        <ele>41.4</ele>
        <time>2011-05-01T08:04:56Z</time>
      </trkpt>
      <trkpt lat="59.2101769801" lon="17.6520789508">
        <ele>41.4</ele>
        <time>2011-05-01T08:04:59Z</time>
      </trkpt>
      <trkpt lat="59.2099319771" lon="17.6519779488">
        <ele>40.8</ele>
        <time>2011-05-01T08:05:02Z</time>
      </trkpt>
      <trkpt lat="59.2096839566" lon="17.6518729236">
        <ele>40.4</ele>
        <time>2011-05-01T08:05:05Z</time>
      </trkpt>
      <trkpt lat="59.2094389535" lon="17.6517579239">
        <ele>40.8</ele>
        <time>2011-05-01T08:05:08Z</time>
      </trkpt>
      <trkpt lat="59.2092089541" lon="17.6516339555">
        <ele>41.4</ele>
        <time>2011-05-01T08:05:11Z</time>
      </trkpt>
      <trkpt lat="59.2089879233" lon="17.6514849253">
        <ele>40.8</ele>
        <time>2011-05-01T08:05:14Z</time>
      </trkpt>
      <trkpt lat="59.2087799683" lon="17.6512959972">
        <ele>42.4</ele>
        <time>2011-05-01T08:05:17Z</time>
      </trkpt>
      <trkpt lat="59.2087099794" lon="17.651228942">
        <ele>42.4</ele>
        <time>2011-05-01T08:05:18Z</time>
      </trkpt>
      <trkpt lat="59.2085119989" lon="17.651020987">
        <ele>43.2</ele>
        <time>2011-05-01T08:05:21Z</time>
      </trkpt>
      <trkpt lat="59.2083149403" lon="17.6507919934">
        <ele>43.8</ele>
        <time>2011-05-01T08:05:24Z</time>
      </trkpt>
      <trkpt lat="59.208133975" lon="17.6505609881">
        <ele>44.2</ele>
        <time>2011-05-01T08:05:27Z</time>
      </trkpt>
      <trkpt lat="59.2079539318" lon="17.6503129676">
        <ele>44.8</ele>
        <time>2011-05-01T08:05:30Z</time>
      </trkpt>
      <trkpt lat="59.2077859584" lon="17.6500589959">
        <ele>45.2</ele>
        <time>2011-05-01T08:05:33Z</time>
      </trkpt>
      <trkpt lat="59.2076779995" lon="17.6498739235">
        <ele>45.6</ele>
        <time>2011-05-01T08:05:35Z</time>
      </trkpt>
      <trkpt lat="59.2075029854" lon="17.6494069677">
        <ele>45.2</ele>
        <time>2011-05-01T08:05:39Z</time>
      </trkpt>
      <trkpt lat="59.2073939368" lon="17.6489949971">
        <ele>45.2</ele>
        <time>2011-05-01T08:05:42Z</time>
      </trkpt>
      <trkpt lat="59.2072779313" lon="17.6485669333">
        <ele>44.2</ele>
        <time>2011-05-01T08:05:45Z</time>
      </trkpt>
      <trkpt lat="59.2071949504" lon="17.6482889894">
        <ele>44.2</ele>
        <time>2011-05-01T08:05:47Z</time>
      </trkpt>
      <trkpt lat="59.207059918" lon="17.6479099598">
        <ele>44.2</ele>
        <time>2011-05-01T08:05:50Z</time>
      </trkpt>
      <trkpt lat="59.2069489416" lon="17.6473729312">
        <ele>43.2</ele>
        <time>2011-05-01T08:05:54Z</time>
      </trkpt>
      <trkpt lat="59.2067989893" lon="17.6471219771">
        <ele>42.8</ele>
        <time>2011-05-01T08:05:57Z</time>
      </trkpt>
      <trkpt lat="59.2065859213" lon="17.6469439454">
        <ele>40.8</ele>
        <time>2011-05-01T08:06:00Z</time>
      </trkpt>
      <trkpt lat="59.2064479552" lon="17.6467869524">
        <ele>41.8</ele>
        <time>2011-05-01T08:06:02Z</time>
      </trkpt>
      <trkpt lat="59.2061439436" lon="17.6465479843">
        <ele>40.4</ele>
        <time>2011-05-01T08:06:06Z</time>
      </trkpt>
      <trkpt lat="59.2059059814" lon="17.6464049891">
        <ele>41.4</ele>
        <time>2011-05-01T08:06:09Z</time>
      </trkpt>
      <trkpt lat="59.2056669295" lon="17.6462729741">
        <ele>40.8</ele>
        <time>2011-05-01T08:06:12Z</time>
      </trkpt>
      <trkpt lat="59.2054309789" lon="17.6461429708">
        <ele>40.8</ele>
        <time>2011-05-01T08:06:15Z</time>
      </trkpt>
      <trkpt lat="59.205197962" lon="17.6460199244">
        <ele>40.4</ele>
        <time>2011-05-01T08:06:18Z</time>
      </trkpt>
      <trkpt lat="59.2049629334" lon="17.6458959561">
        <ele>40.4</ele>
        <time>2011-05-01T08:06:21Z</time>
      </trkpt>
      <trkpt lat="59.2047319282" lon="17.6457329281">
        <ele>40</ele>
        <time>2011-05-01T08:06:24Z</time>
      </trkpt>
      <trkpt lat="59.2045279965" lon="17.6454979833">
        <ele>39</ele>
        <time>2011-05-01T08:06:27Z</time>
      </trkpt>
      <trkpt lat="59.2043589335" lon="17.6452199556">
        <ele>39.4</ele>
        <time>2011-05-01T08:06:30Z</time>
      </trkpt>
      <trkpt lat="59.2043099832" lon="17.6451209653">
        <ele>39.4</ele>
        <time>2011-05-01T08:06:31Z</time>
      </trkpt>
      <trkpt lat="59.2042009346" lon="17.6446709409">
        <ele>39.4</ele>
        <time>2011-05-01T08:06:35Z</time>
      </trkpt>
      <trkpt lat="59.204059951" lon="17.6443749759">
        <ele>39.4</ele>
        <time>2011-05-01T08:06:39Z</time>
      </trkpt>
      <trkpt lat="59.2038379982" lon="17.6442519296">
        <ele>40</ele>
        <time>2011-05-01T08:06:43Z</time>
      </trkpt>
      <trkpt lat="59.2036799993" lon="17.6441979501">
        <ele>40</ele>
        <time>2011-05-01T08:06:46Z</time>
      </trkpt>
      <trkpt lat="59.2034879699" lon="17.6441879757">
        <ele>40</ele>
        <time>2011-05-01T08:06:50Z</time>
      </trkpt>
      <trkpt lat="59.203355955" lon="17.6442569587">
        <ele>40</ele>
        <time>2011-05-01T08:06:54Z</time>
      </trkpt>
      <trkpt lat="59.2032709625" lon="17.6443709526">
        <ele>40.4</ele>
        <time>2011-05-01T08:06:59Z</time>
      </trkpt>
      <trkpt lat="59.2031989619" lon="17.6443959307">
        <ele>40.4</ele>
        <time>2011-05-01T08:07:09Z</time>
      </trkpt>
      <trkpt lat="59.203172978" lon="17.644324936">
        <ele>40.4</ele>
        <time>2011-05-01T08:07:18Z</time>
      </trkpt>
      <trkpt lat="59.2031219322" lon="17.6442219224">
        <ele>40.4</ele>
        <time>2011-05-01T08:07:25Z</time>
      </trkpt>
      <trkpt lat="59.2031219322" lon="17.6441969443">
        <ele>40.4</ele>
        <time>2011-05-01T08:07:29Z</time>
      </trkpt>
      <trkpt lat="59.2031219322" lon="17.6441959385">
        <ele>40.4</ele>
        <time>2011-05-01T08:07:30Z</time>
      </trkpt>
      <trkpt lat="59.2031189986" lon="17.6441709604">
        <ele>40.4</ele>
        <time>2011-05-01T08:07:42Z</time>
      </trkpt>
      <trkpt lat="59.2031119578" lon="17.6441609859">
        <ele>40.4</ele>
        <time>2011-05-01T08:08:11Z</time>
      </trkpt>
      <trkpt lat="59.2031119578" lon="17.6441619918">
        <ele>39</ele>
        <time>2011-05-01T08:08:12Z</time>
      </trkpt>
      <trkpt lat="59.2031189986" lon="17.6442029793">
        <ele>40.4</ele>
        <time>2011-05-01T08:10:00Z</time>
      </trkpt>
      <trkpt lat="59.2031269614" lon="17.6443479862">
        <ele>40</ele>
        <time>2011-05-01T08:10:08Z</time>
      </trkpt>
      <trkpt lat="59.2031329963" lon="17.644355949">
        <ele>40.4</ele>
        <time>2011-05-01T08:10:09Z</time>
      </trkpt>
      <trkpt lat="59.2031389475" lon="17.6443629898">
        <ele>40</ele>
        <time>2011-05-01T08:10:10Z</time>
      </trkpt>
      <trkpt lat="59.2031429708" lon="17.6443669293">
        <ele>40</ele>
        <time>2011-05-01T08:10:11Z</time>
      </trkpt>
      <trkpt lat="59.2031469941" lon="17.6443639956">
        <ele>40</ele>
        <time>2011-05-01T08:10:12Z</time>
      </trkpt>
      <trkpt lat="59.2031559628" lon="17.644355949">
        <ele>40</ele>
        <time>2011-05-01T08:10:15Z</time>
      </trkpt>
      <trkpt lat="59.2031779233" lon="17.6443679351">
        <ele>40.4</ele>
        <time>2011-05-01T08:10:24Z</time>
      </trkpt>
      <trkpt lat="59.20318597" lon="17.6443749759">
        <ele>40.4</ele>
        <time>2011-05-01T08:10:25Z</time>
      </trkpt>
      <trkpt lat="59.203210948" lon="17.6443779934">
        <ele>40.4</ele>
        <time>2011-05-01T08:10:28Z</time>
      </trkpt>
      <trkpt lat="59.2032379378" lon="17.6443859562">
        <ele>40</ele>
        <time>2011-05-01T08:10:29Z</time>
      </trkpt>
      <trkpt lat="59.2032419611" lon="17.6443909854">
        <ele>40</ele>
        <time>2011-05-01T08:10:31Z</time>
      </trkpt>
      <trkpt lat="59.2032179888" lon="17.644412946">
        <ele>40</ele>
        <time>2011-05-01T08:10:40Z</time>
      </trkpt>
      <trkpt lat="59.2032259516" lon="17.6444149576">
        <ele>40.4</ele>
        <time>2011-05-01T08:10:41Z</time>
      </trkpt>
      <trkpt lat="59.2032229342" lon="17.6444139518">
        <ele>40.4</ele>
        <time>2011-05-01T08:10:42Z</time>
      </trkpt>
      <trkpt lat="59.2032389436" lon="17.6443399396">
        <ele>40.4</ele>
        <time>2011-05-01T08:10:55Z</time>
      </trkpt>
      <trkpt lat="59.2032269575" lon="17.6443399396">
        <ele>40.4</ele>
        <time>2011-05-01T08:10:56Z</time>
      </trkpt>
      <trkpt lat="59.2033269536" lon="17.6440409571">
        <ele>59.6</ele>
        <time>2011-05-01T08:14:10Z</time>
      </trkpt>
      <trkpt lat="59.203260988" lon="17.6440099441">
        <ele>59.2</ele>
        <time>2011-05-01T08:14:11Z</time>
      </trkpt>
      <trkpt lat="59.2031159811" lon="17.6439289749">
        <ele>59.6</ele>
        <time>2011-05-01T08:14:15Z</time>
      </trkpt>
      <trkpt lat="59.2029639333" lon="17.6438399591">
        <ele>60.6</ele>
        <time>2011-05-01T08:14:19Z</time>
      </trkpt>
      <trkpt lat="59.2028139811" lon="17.6437469199">
        <ele>59.2</ele>
        <time>2011-05-01T08:14:23Z</time>
      </trkpt>
      <trkpt lat="59.2026629392" lon="17.6436309982">
        <ele>61.6</ele>
        <time>2011-05-01T08:14:27Z</time>
      </trkpt>
      <trkpt lat="59.2025289964" lon="17.6434719935">
        <ele>61.6</ele>
        <time>2011-05-01T08:14:31Z</time>
      </trkpt>
      <trkpt lat="59.2024039384" lon="17.6432739291">
        <ele>62</ele>
        <time>2011-05-01T08:14:35Z</time>
      </trkpt>
      <trkpt lat="59.2023729254" lon="17.6432149205">
        <ele>61.6</ele>
        <time>2011-05-01T08:14:36Z</time>
      </trkpt>
      <trkpt lat="59.2022449337" lon="17.64284092">
        <ele>62</ele>
        <time>2011-05-01T08:14:41Z</time>
      </trkpt>
      <trkpt lat="59.202173939" lon="17.6424779836">
        <ele>62</ele>
        <time>2011-05-01T08:14:45Z</time>
      </trkpt>
      <trkpt lat="59.202129934" lon="17.6421539392">
        <ele>62</ele>
        <time>2011-05-01T08:14:48Z</time>
      </trkpt>
      <trkpt lat="59.2020779662" lon="17.6418299787">
        <ele>61.6</ele>
        <time>2011-05-01T08:14:51Z</time>
      </trkpt>
      <trkpt lat="59.2020369787" lon="17.6414939482">
        <ele>62</ele>
        <time>2011-05-01T08:14:54Z</time>
      </trkpt>
      <trkpt lat="59.2019939795" lon="17.6411429979">
        <ele>61.6</ele>
        <time>2011-05-01T08:14:57Z</time>
      </trkpt>
      <trkpt lat="59.2019459512" lon="17.6407769602">
        <ele>61</ele>
        <time>2011-05-01T08:15:00Z</time>
      </trkpt>
      <trkpt lat="59.2019019462" lon="17.6403959189">
        <ele>61</ele>
        <time>2011-05-01T08:15:03Z</time>
      </trkpt>
      <trkpt lat="59.2018519901" lon="17.6400019694">
        <ele>60.6</ele>
        <time>2011-05-01T08:15:06Z</time>
      </trkpt>
      <trkpt lat="59.2018029559" lon="17.6395989675">
        <ele>60.2</ele>
        <time>2011-05-01T08:15:09Z</time>
      </trkpt>
      <trkpt lat="59.2017569393" lon="17.6391959656">
        <ele>59.2</ele>
        <time>2011-05-01T08:15:12Z</time>
      </trkpt>
      <trkpt lat="59.2017109226" lon="17.6387759484">
        <ele>58.2</ele>
        <time>2011-05-01T08:15:15Z</time>
      </trkpt>
      <trkpt lat="59.201663984" lon="17.6383299474">
        <ele>57.2</ele>
        <time>2011-05-01T08:15:18Z</time>
      </trkpt>
      <trkpt lat="59.2016179673" lon="17.6378619857">
        <ele>55.8</ele>
        <time>2011-05-01T08:15:21Z</time>
      </trkpt>
      <trkpt lat="59.2015869543" lon="17.637539953">
        <ele>54.8</ele>
        <time>2011-05-01T08:15:23Z</time>
      </trkpt>
      <trkpt lat="59.201544961" lon="17.6370409783">
        <ele>53.4</ele>
        <time>2011-05-01T08:15:26Z</time>
      </trkpt>
      <trkpt lat="59.201500956" lon="17.6365189534">
        <ele>51.4</ele>
        <time>2011-05-01T08:15:29Z</time>
      </trkpt>
      <trkpt lat="59.2014619801" lon="17.6359779853">
        <ele>50</ele>
        <time>2011-05-01T08:15:32Z</time>
      </trkpt>
      <trkpt lat="59.2014169693" lon="17.6354139671">
        <ele>48.2</ele>
        <time>2011-05-01T08:15:35Z</time>
      </trkpt>
      <trkpt lat="59.2013699468" lon="17.6348289941">
        <ele>46.2</ele>
        <time>2011-05-01T08:15:38Z</time>
      </trkpt>
      <trkpt lat="59.2013119441" lon="17.6342299394">
        <ele>43.8</ele>
        <time>2011-05-01T08:15:41Z</time>
      </trkpt>
      <trkpt lat="59.2012229282" lon="17.6336189825">
        <ele>41.8</ele>
        <time>2011-05-01T08:15:44Z</time>
      </trkpt>
      <trkpt lat="59.2011069227" lon="17.6330029964">
        <ele>40</ele>
        <time>2011-05-01T08:15:47Z</time>
      </trkpt>
      <trkpt lat="59.2009719741" lon="17.6324179396">
        <ele>40</ele>
        <time>2011-05-01T08:15:50Z</time>
      </trkpt>
      <trkpt lat="59.2008159868" lon="17.6318139397">
        <ele>37</ele>
        <time>2011-05-01T08:15:53Z</time>
      </trkpt>
      <trkpt lat="59.2007079441" lon="17.63139694">
        <ele>36.6</ele>
        <time>2011-05-01T08:15:55Z</time>
      </trkpt>
      <trkpt lat="59.2005999852" lon="17.6309719775">
        <ele>35.6</ele>
        <time>2011-05-01T08:15:57Z</time>
      </trkpt>
      <trkpt lat="59.2004929483" lon="17.6305469312">
        <ele>34.6</ele>
        <time>2011-05-01T08:15:59Z</time>
      </trkpt>
      <trkpt lat="59.2004039325" lon="17.6301209629">
        <ele>34.2</ele>
        <time>2011-05-01T08:16:01Z</time>
      </trkpt>
      <trkpt lat="59.2003109772" lon="17.629503971">
        <ele>32.8</ele>
        <time>2011-05-01T08:16:04Z</time>
      </trkpt>
      <trkpt lat="59.2001949716" lon="17.6289729774">
        <ele>33.2</ele>
        <time>2011-05-01T08:16:07Z</time>
      </trkpt>
      <trkpt lat="59.2000699975" lon="17.6284779422">
        <ele>33.2</ele>
        <time>2011-05-01T08:16:10Z</time>
      </trkpt>
      <trkpt lat="59.1999459453" lon="17.6279799733">
        <ele>32.2</ele>
        <time>2011-05-01T08:16:13Z</time>
      </trkpt>
      <trkpt lat="59.1998199653" lon="17.627472952">
        <ele>31.2</ele>
        <time>2011-05-01T08:16:16Z</time>
      </trkpt>
      <trkpt lat="59.1996919736" lon="17.6269609854">
        <ele>30.8</ele>
        <time>2011-05-01T08:16:19Z</time>
      </trkpt>
      <trkpt lat="59.1995529179" lon="17.6264509466">
        <ele>30.4</ele>
        <time>2011-05-01T08:16:22Z</time>
      </trkpt>
      <trkpt lat="59.1994069889" lon="17.6259459369">
        <ele>29.4</ele>
        <time>2011-05-01T08:16:25Z</time>
      </trkpt>
      <trkpt lat="59.1992439609" lon="17.6254419331">
        <ele>28.8</ele>
        <time>2011-05-01T08:16:28Z</time>
      </trkpt>
      <trkpt lat="59.199098954" lon="17.6249629911">
        <ele>29.8</ele>
        <time>2011-05-01T08:16:31Z</time>
      </trkpt>
      <trkpt lat="59.198959982" lon="17.6244969573">
        <ele>29.8</ele>
        <time>2011-05-01T08:16:34Z</time>
      </trkpt>
      <trkpt lat="59.1988269612" lon="17.624051962">
        <ele>29.8</ele>
        <time>2011-05-01T08:16:37Z</time>
      </trkpt>
      <trkpt lat="59.1986989696" lon="17.6236189529">
        <ele>30.4</ele>
        <time>2011-05-01T08:16:40Z</time>
      </trkpt>
      <trkpt lat="59.1985679604" lon="17.6231829263">
        <ele>30.8</ele>
        <time>2011-05-01T08:16:43Z</time>
      </trkpt>
      <trkpt lat="59.1984399687" lon="17.6227399427">
        <ele>31.2</ele>
        <time>2011-05-01T08:16:46Z</time>
      </trkpt>
      <trkpt lat="59.1983579937" lon="17.6224509347">
        <ele>31.8</ele>
        <time>2011-05-01T08:16:48Z</time>
      </trkpt>
      <trkpt lat="59.1982479393" lon="17.6220119745">
        <ele>33.2</ele>
        <time>2011-05-01T08:16:51Z</time>
      </trkpt>
      <trkpt lat="59.198154984" lon="17.6215659734">
        <ele>34.2</ele>
        <time>2011-05-01T08:16:54Z</time>
      </trkpt>
      <trkpt lat="59.1980749369" lon="17.6211479679">
        <ele>35.6</ele>
        <time>2011-05-01T08:16:57Z</time>
      </trkpt>
      <trkpt lat="59.1980029363" lon="17.6208099257">
        <ele>37</ele>
        <time>2011-05-01T08:17:00Z</time>
      </trkpt>
      <trkpt lat="59.1979829874" lon="17.6207149588">
        <ele>37</ele>
        <time>2011-05-01T08:17:01Z</time>
      </trkpt>
      <trkpt lat="59.1979339533" lon="17.6204789244">
        <ele>38</ele>
        <time>2011-05-01T08:17:04Z</time>
      </trkpt>
      <trkpt lat="59.197909981" lon="17.6202989649">
        <ele>39</ele>
        <time>2011-05-01T08:17:07Z</time>
      </trkpt>
      <trkpt lat="59.1979209613" lon="17.6201719791">
        <ele>38.4</ele>
        <time>2011-05-01T08:17:10Z</time>
      </trkpt>
      <trkpt lat="59.1979839932" lon="17.620115988">
        <ele>38.4</ele>
        <time>2011-05-01T08:17:15Z</time>
      </trkpt>
      <trkpt lat="59.2004019208" lon="17.6177439932">
        <ele>45.2</ele>
        <time>2011-05-01T08:18:11Z</time>
      </trkpt>
      <trkpt lat="59.2005189322" lon="17.6176039316">
        <ele>58.6</ele>
        <time>2011-05-01T08:18:12Z</time>
      </trkpt>
      <trkpt lat="59.2005789466" lon="17.6175349485">
        <ele>58.2</ele>
        <time>2011-05-01T08:18:13Z</time>
      </trkpt>
      <trkpt lat="59.2007619236" lon="17.617317941">
        <ele>59.6</ele>
        <time>2011-05-01T08:18:16Z</time>
      </trkpt>
      <trkpt lat="59.2009439785" lon="17.6170889474">
        <ele>59.6</ele>
        <time>2011-05-01T08:18:19Z</time>
      </trkpt>
      <trkpt lat="59.2011249438" lon="17.6168559305">
        <ele>59.6</ele>
        <time>2011-05-01T08:18:22Z</time>
      </trkpt>
      <trkpt lat="59.2012999579" lon="17.6165839378">
        <ele>58.6</ele>
        <time>2011-05-01T08:18:25Z</time>
      </trkpt>
      <trkpt lat="59.2014079168" lon="17.6163709536">
        <ele>58.2</ele>
        <time>2011-05-01T08:18:27Z</time>
      </trkpt>
      <trkpt lat="59.201569939" lon="17.6160349231">
        <ele>57.8</ele>
        <time>2011-05-01T08:18:30Z</time>
      </trkpt>
      <trkpt lat="59.2017229926" lon="17.6156659517">
        <ele>57.8</ele>
        <time>2011-05-01T08:18:33Z</time>
      </trkpt>
      <trkpt lat="59.2018589471" lon="17.615261944">
        <ele>57.8</ele>
        <time>2011-05-01T08:18:36Z</time>
      </trkpt>
      <trkpt lat="59.2019769643" lon="17.614852991">
        <ele>58.6</ele>
        <time>2011-05-01T08:18:39Z</time>
      </trkpt>
      <trkpt lat="59.2020809837" lon="17.6144509949">
        <ele>57.2</ele>
        <time>2011-05-01T08:18:42Z</time>
      </trkpt>
      <trkpt lat="59.2021149304" lon="17.6143209916">
        <ele>57.2</ele>
        <time>2011-05-01T08:18:43Z</time>
      </trkpt>
      <trkpt lat="59.2022119928" lon="17.6139359269">
        <ele>58.6</ele>
        <time>2011-05-01T08:18:46Z</time>
      </trkpt>
      <trkpt lat="59.2022419162" lon="17.6138049178">
        <ele>58.6</ele>
        <time>2011-05-01T08:18:47Z</time>
      </trkpt>
      <trkpt lat="59.202323975" lon="17.6134049334">
        <ele>59.2</ele>
        <time>2011-05-01T08:18:50Z</time>
      </trkpt>
      <trkpt lat="59.2023939639" lon="17.6129929628">
        <ele>59.6</ele>
        <time>2011-05-01T08:18:53Z</time>
      </trkpt>
      <trkpt lat="59.2024519667" lon="17.612576969">
        <ele>59.2</ele>
        <time>2011-05-01T08:18:56Z</time>
      </trkpt>
      <trkpt lat="59.2025029287" lon="17.6121469773">
        <ele>59.2</ele>
        <time>2011-05-01T08:18:59Z</time>
      </trkpt>
      <trkpt lat="59.2025469337" lon="17.6117089391">
        <ele>59.2</ele>
        <time>2011-05-01T08:19:02Z</time>
      </trkpt>
      <trkpt lat="59.2025929503" lon="17.611293951">
        <ele>58.6</ele>
        <time>2011-05-01T08:19:05Z</time>
      </trkpt>
      <trkpt lat="59.2026529647" lon="17.610878963">
        <ele>58.2</ele>
        <time>2011-05-01T08:19:08Z</time>
      </trkpt>
      <trkpt lat="59.2027199361" lon="17.6104669925">
        <ele>59.6</ele>
        <time>2011-05-01T08:19:11Z</time>
      </trkpt>
      <trkpt lat="59.2027829681" lon="17.6100639906">
        <ele>58.6</ele>
        <time>2011-05-01T08:19:14Z</time>
      </trkpt>
      <trkpt lat="59.2028349359" lon="17.609665934">
        <ele>60.2</ele>
        <time>2011-05-01T08:19:17Z</time>
      </trkpt>
      <trkpt lat="59.2028489336" lon="17.609532997">
        <ele>60.2</ele>
        <time>2011-05-01T08:19:18Z</time>
      </trkpt>
      <trkpt lat="59.2028919328" lon="17.6091379579">
        <ele>60.2</ele>
        <time>2011-05-01T08:19:21Z</time>
      </trkpt>
      <trkpt lat="59.2029329203" lon="17.6087519713">
        <ele>61.6</ele>
        <time>2011-05-01T08:19:24Z</time>
      </trkpt>
      <trkpt lat="59.2029469181" lon="17.6086239796">
        <ele>62</ele>
        <time>2011-05-01T08:19:25Z</time>
      </trkpt>
      <trkpt lat="59.2029779311" lon="17.6082389988">
        <ele>62.6</ele>
        <time>2011-05-01T08:19:28Z</time>
      </trkpt>
      <trkpt lat="59.203002993" lon="17.6078519225">
        <ele>62.6</ele>
        <time>2011-05-01T08:19:31Z</time>
      </trkpt>
      <trkpt lat="59.2030249536" lon="17.6074809395">
        <ele>62.6</ele>
        <time>2011-05-01T08:19:34Z</time>
      </trkpt>
      <trkpt lat="59.203040963" lon="17.6071109623">
        <ele>63</ele>
        <time>2011-05-01T08:19:37Z</time>
      </trkpt>
      <trkpt lat="59.2030449864" lon="17.6067239698">
        <ele>63.4</ele>
        <time>2011-05-01T08:19:40Z</time>
      </trkpt>
      <trkpt lat="59.2030389514" lon="17.6063339598">
        <ele>63.4</ele>
        <time>2011-05-01T08:19:43Z</time>
      </trkpt>
      <trkpt lat="59.2030289769" lon="17.6059379987">
        <ele>63.4</ele>
        <time>2011-05-01T08:19:46Z</time>
      </trkpt>
      <trkpt lat="59.20300995" lon="17.6055359188">
        <ele>63</ele>
        <time>2011-05-01T08:19:49Z</time>
      </trkpt>
      <trkpt lat="59.2029899172" lon="17.6051279716">
        <ele>62.6</ele>
        <time>2011-05-01T08:19:52Z</time>
      </trkpt>
      <trkpt lat="59.2029699683" lon="17.6047129836">
        <ele>62</ele>
        <time>2011-05-01T08:19:55Z</time>
      </trkpt>
      <trkpt lat="59.2029459961" lon="17.6042909548">
        <ele>61.6</ele>
        <time>2011-05-01T08:19:58Z</time>
      </trkpt>
      <trkpt lat="59.2029129714" lon="17.6038629748">
        <ele>61.6</ele>
        <time>2011-05-01T08:20:01Z</time>
      </trkpt>
      <trkpt lat="59.2028689664" lon="17.6034349948">
        <ele>61</ele>
        <time>2011-05-01T08:20:04Z</time>
      </trkpt>
      <trkpt lat="59.2028199323" lon="17.6029929332">
        <ele>60.6</ele>
        <time>2011-05-01T08:20:07Z</time>
      </trkpt>
      <trkpt lat="59.2027289886" lon="17.6025429927">
        <ele>60.6</ele>
        <time>2011-05-01T08:20:10Z</time>
      </trkpt>
      <trkpt lat="59.2025999911" lon="17.6020679902">
        <ele>60.6</ele>
        <time>2011-05-01T08:20:13Z</time>
      </trkpt>
      <trkpt lat="59.202468982" lon="17.6016759686">
        <ele>61</ele>
        <time>2011-05-01T08:20:16Z</time>
      </trkpt>
      <trkpt lat="59.2023249809" lon="17.6013329811">
        <ele>62</ele>
        <time>2011-05-01T08:20:19Z</time>
      </trkpt>
      <trkpt lat="59.2021699995" lon="17.6010199171">
        <ele>62</ele>
        <time>2011-05-01T08:20:22Z</time>
      </trkpt>
      <trkpt lat="59.2020059656" lon="17.600729987">
        <ele>62.6</ele>
        <time>2011-05-01T08:20:25Z</time>
      </trkpt>
      <trkpt lat="59.2018419318" lon="17.6004499476">
        <ele>63</ele>
        <time>2011-05-01T08:20:28Z</time>
      </trkpt>
      <trkpt lat="59.2016819213" lon="17.6001939643">
        <ele>64</ele>
        <time>2011-05-01T08:20:31Z</time>
      </trkpt>
      <trkpt lat="59.2015239224" lon="17.5999509729">
        <ele>65</ele>
        <time>2011-05-01T08:20:34Z</time>
      </trkpt>
      <trkpt lat="59.2013759818" lon="17.5997199677">
        <ele>65.4</ele>
        <time>2011-05-01T08:20:37Z</time>
      </trkpt>
      <trkpt lat="59.2012269516" lon="17.5994869508">
        <ele>65.8</ele>
        <time>2011-05-01T08:20:40Z</time>
      </trkpt>
      <trkpt lat="59.201079933" lon="17.5992639922">
        <ele>66.4</ele>
        <time>2011-05-01T08:20:43Z</time>
      </trkpt>
      <trkpt lat="59.2009289749" lon="17.5990359206">
        <ele>66.4</ele>
        <time>2011-05-01T08:20:46Z</time>
      </trkpt>
      <trkpt lat="59.2007759213" lon="17.5988079328">
        <ele>66.8</ele>
        <time>2011-05-01T08:20:49Z</time>
      </trkpt>
      <trkpt lat="59.2006189283" lon="17.5985789392">
        <ele>66.4</ele>
        <time>2011-05-01T08:20:52Z</time>
      </trkpt>
      <trkpt lat="59.2004579958" lon="17.5983389653">
        <ele>66.8</ele>
        <time>2011-05-01T08:20:55Z</time>
      </trkpt>
      <trkpt lat="59.2002919503" lon="17.5981019251">
        <ele>66.4</ele>
        <time>2011-05-01T08:20:58Z</time>
      </trkpt>
      <trkpt lat="59.2001259886" lon="17.5978659745">
        <ele>67.4</ele>
        <time>2011-05-01T08:21:01Z</time>
      </trkpt>
      <trkpt lat="59.1999679897" lon="17.5976209715">
        <ele>66.8</ele>
        <time>2011-05-01T08:21:04Z</time>
      </trkpt>
      <trkpt lat="59.1998749506" lon="17.5974329654">
        <ele>67.4</ele>
        <time>2011-05-01T08:21:06Z</time>
      </trkpt>
      <trkpt lat="59.1997099947" lon="17.5970249344">
        <ele>67.4</ele>
        <time>2011-05-01T08:21:10Z</time>
      </trkpt>
      <trkpt lat="59.1996499803" lon="17.5969739724">
        <ele>67.4</ele>
        <time>2011-05-01T08:21:11Z</time>
      </trkpt>
      <trkpt lat="59.1993389279" lon="17.5966289733">
        <ele>67.4</ele>
        <time>2011-05-01T08:21:16Z</time>
      </trkpt>
      <trkpt lat="59.1991719604" lon="17.5963379536">
        <ele>67.8</ele>
        <time>2011-05-01T08:21:19Z</time>
      </trkpt>
      <trkpt lat="59.1990189906" lon="17.5960249733">
        <ele>68.2</ele>
        <time>2011-05-01T08:21:22Z</time>
      </trkpt>
      <trkpt lat="59.1988779232" lon="17.5956909545">
        <ele>68.8</ele>
        <time>2011-05-01T08:21:25Z</time>
      </trkpt>
      <trkpt lat="59.1987439804" lon="17.595341932">
        <ele>68.2</ele>
        <time>2011-05-01T08:21:28Z</time>
      </trkpt>
      <trkpt lat="59.1986239515" lon="17.594976984">
        <ele>69.2</ele>
        <time>2011-05-01T08:21:31Z</time>
      </trkpt>
      <trkpt lat="59.1985119693" lon="17.5945929252">
        <ele>69.2</ele>
        <time>2011-05-01T08:21:34Z</time>
      </trkpt>
      <trkpt lat="59.1984009929" lon="17.5942019932">
        <ele>69.8</ele>
        <time>2011-05-01T08:21:37Z</time>
      </trkpt>
      <trkpt lat="59.198286999" lon="17.5937989913">
        <ele>69.2</ele>
        <time>2011-05-01T08:21:40Z</time>
      </trkpt>
      <trkpt lat="59.198174933" lon="17.5934059639">
        <ele>69.8</ele>
        <time>2011-05-01T08:21:43Z</time>
      </trkpt>
      <trkpt lat="59.1980699915" lon="17.5930259284">
        <ele>69.8</ele>
        <time>2011-05-01T08:21:46Z</time>
      </trkpt>
      <trkpt lat="59.1979679838" lon="17.5926389359">
        <ele>69.8</ele>
        <time>2011-05-01T08:21:49Z</time>
      </trkpt>
      <trkpt lat="59.1978719272" lon="17.592241969">
        <ele>70.6</ele>
        <time>2011-05-01T08:21:52Z</time>
      </trkpt>
      <trkpt lat="59.1977839172" lon="17.5918409787">
        <ele>70.6</ele>
        <time>2011-05-01T08:21:55Z</time>
      </trkpt>
      <trkpt lat="59.1976979189" lon="17.5914379768">
        <ele>71.2</ele>
        <time>2011-05-01T08:21:58Z</time>
      </trkpt>
      <trkpt lat="59.1976179555" lon="17.5910399202">
        <ele>71.2</ele>
        <time>2011-05-01T08:22:01Z</time>
      </trkpt>
      <trkpt lat="59.19753992" lon="17.5906449649">
        <ele>71.6</ele>
        <time>2011-05-01T08:22:04Z</time>
      </trkpt>
      <trkpt lat="59.1974549275" lon="17.5902349222">
        <ele>71.6</ele>
        <time>2011-05-01T08:22:07Z</time>
      </trkpt>
      <trkpt lat="59.1973779816" lon="17.5898349378">
        <ele>71.6</ele>
        <time>2011-05-01T08:22:10Z</time>
      </trkpt>
      <trkpt lat="59.1973109264" lon="17.5894319359">
        <ele>71.6</ele>
        <time>2011-05-01T08:22:13Z</time>
      </trkpt>
      <trkpt lat="59.1972509958" lon="17.5890229829">
        <ele>72.2</ele>
        <time>2011-05-01T08:22:16Z</time>
      </trkpt>
      <trkpt lat="59.1972089186" lon="17.5886029657">
        <ele>71.2</ele>
        <time>2011-05-01T08:22:19Z</time>
      </trkpt>
      <trkpt lat="59.197168937" lon="17.5881939288">
        <ele>72.6</ele>
        <time>2011-05-01T08:22:22Z</time>
      </trkpt>
      <trkpt lat="59.1971219983" lon="17.5877939444">
        <ele>72.6</ele>
        <time>2011-05-01T08:22:25Z</time>
      </trkpt>
      <trkpt lat="59.1970889736" lon="17.5873689819">
        <ele>73</ele>
        <time>2011-05-01T08:22:28Z</time>
      </trkpt>
      <trkpt lat="59.1970619839" lon="17.5869179517">
        <ele>73</ele>
        <time>2011-05-01T08:22:31Z</time>
      </trkpt>
      <trkpt lat="59.1970449686" lon="17.5864529237">
        <ele>73.6</ele>
        <time>2011-05-01T08:22:34Z</time>
      </trkpt>
      <trkpt lat="59.197036922" lon="17.5859739818">
        <ele>72.6</ele>
        <time>2011-05-01T08:22:37Z</time>
      </trkpt>
      <trkpt lat="59.197036922" lon="17.585494956">
        <ele>73</ele>
        <time>2011-05-01T08:22:40Z</time>
      </trkpt>
      <trkpt lat="59.1970379278" lon="17.5850199535">
        <ele>72.6</ele>
        <time>2011-05-01T08:22:43Z</time>
      </trkpt>
      <trkpt lat="59.1970409453" lon="17.5845379941">
        <ele>71.6</ele>
        <time>2011-05-01T08:22:46Z</time>
      </trkpt>
      <trkpt lat="59.1970439628" lon="17.5840639975">
        <ele>71.2</ele>
        <time>2011-05-01T08:22:49Z</time>
      </trkpt>
      <trkpt lat="59.1970449686" lon="17.5835979637">
        <ele>71.2</ele>
        <time>2011-05-01T08:22:52Z</time>
      </trkpt>
      <trkpt lat="59.1970489919" lon="17.5831419881">
        <ele>70.2</ele>
        <time>2011-05-01T08:22:55Z</time>
      </trkpt>
      <trkpt lat="59.1970539372" lon="17.5826939754">
        <ele>69.8</ele>
        <time>2011-05-01T08:22:58Z</time>
      </trkpt>
      <trkpt lat="59.1970549431" lon="17.5822599605">
        <ele>68.8</ele>
        <time>2011-05-01T08:23:01Z</time>
      </trkpt>
      <trkpt lat="59.1972099245" lon="17.5817739777">
        <ele>67.4</ele>
        <time>2011-05-01T08:23:05Z</time>
      </trkpt>
      <trkpt lat="59.1974349786" lon="17.5816469919">
        <ele>68.2</ele>
        <time>2011-05-01T08:23:08Z</time>
      </trkpt>
      <trkpt lat="59.1977309436" lon="17.5816769991">
        <ele>70.2</ele>
        <time>2011-05-01T08:23:12Z</time>
      </trkpt>
      <trkpt lat="59.1978009325" lon="17.5816999655">
        <ele>70.6</ele>
        <time>2011-05-01T08:23:13Z</time>
      </trkpt>
      <trkpt lat="59.1979779582" lon="17.5817739777">
        <ele>71.6</ele>
        <time>2011-05-01T08:23:16Z</time>
      </trkpt>
      <trkpt lat="59.1980319377" lon="17.5817959383">
        <ele>72.2</ele>
        <time>2011-05-01T08:23:17Z</time>
      </trkpt>
      <trkpt lat="59.1982239671" lon="17.5816569664">
        <ele>73</ele>
        <time>2011-05-01T08:23:21Z</time>
      </trkpt>
      <trkpt lat="59.1982519627" lon="17.5815609936">
        <ele>73</ele>
        <time>2011-05-01T08:23:22Z</time>
      </trkpt>
      <trkpt lat="59.1983999871" lon="17.5809669681">
        <ele>72.6</ele>
        <time>2011-05-01T08:23:27Z</time>
      </trkpt>
      <trkpt lat="59.1984939482" lon="17.5805679895">
        <ele>72.2</ele>
        <time>2011-05-01T08:23:30Z</time>
      </trkpt>
      <trkpt lat="59.198589921" lon="17.5801469665">
        <ele>72.2</ele>
        <time>2011-05-01T08:23:33Z</time>
      </trkpt>
      <trkpt lat="59.1986909229" lon="17.579722926">
        <ele>71.6</ele>
        <time>2011-05-01T08:23:36Z</time>
      </trkpt>
      <trkpt lat="59.198790919" lon="17.5792859774">
        <ele>71.6</ele>
        <time>2011-05-01T08:23:39Z</time>
      </trkpt>
      <trkpt lat="59.1988889873" lon="17.5788599253">
        <ele>72.2</ele>
        <time>2011-05-01T08:23:42Z</time>
      </trkpt>
      <trkpt lat="59.1989769973" lon="17.5784559175">
        <ele>72.6</ele>
        <time>2011-05-01T08:23:45Z</time>
      </trkpt>
      <trkpt lat="59.199054949" lon="17.5780829228">
        <ele>73.6</ele>
        <time>2011-05-01T08:23:48Z</time>
      </trkpt>
      <trkpt lat="59.1991289612" lon="17.5777409412">
        <ele>73.6</ele>
        <time>2011-05-01T08:23:51Z</time>
      </trkpt>
      <trkpt lat="59.1992099304" lon="17.5774199981">
        <ele>75</ele>
        <time>2011-05-01T08:23:54Z</time>
      </trkpt>
      <trkpt lat="59.1992789973" lon="17.5770959537">
        <ele>76</ele>
        <time>2011-05-01T08:23:57Z</time>
      </trkpt>
      <trkpt lat="59.1993459687" lon="17.5767899305">
        <ele>76</ele>
        <time>2011-05-01T08:24:00Z</time>
      </trkpt>
      <trkpt lat="59.1994179692" lon="17.5764759444">
        <ele>77</ele>
        <time>2011-05-01T08:24:03Z</time>
      </trkpt>
      <trkpt lat="59.1994919814" lon="17.5761469547">
        <ele>77</ele>
        <time>2011-05-01T08:24:06Z</time>
      </trkpt>
      <trkpt lat="59.1995569412" lon="17.5757889636">
        <ele>76.4</ele>
        <time>2011-05-01T08:24:09Z</time>
      </trkpt>
      <trkpt lat="59.1996349767" lon="17.5754369237">
        <ele>76.4</ele>
        <time>2011-05-01T08:24:12Z</time>
      </trkpt>
      <trkpt lat="59.1997239925" lon="17.5750699639">
        <ele>75.6</ele>
        <time>2011-05-01T08:24:15Z</time>
      </trkpt>
      <trkpt lat="59.1998169478" lon="17.5746639445">
        <ele>74.6</ele>
        <time>2011-05-01T08:24:18Z</time>
      </trkpt>
      <trkpt lat="59.1999199614" lon="17.5742109865">
        <ele>73</ele>
        <time>2011-05-01T08:24:21Z</time>
      </trkpt>
      <trkpt lat="59.2000339553" lon="17.5737299491">
        <ele>71.6</ele>
        <time>2011-05-01T08:24:24Z</time>
      </trkpt>
      <trkpt lat="59.2001529783" lon="17.5732389372">
        <ele>70.6</ele>
        <time>2011-05-01T08:24:27Z</time>
      </trkpt>
      <trkpt lat="59.2002909444" lon="17.5727609172">
        <ele>70.2</ele>
        <time>2011-05-01T08:24:30Z</time>
      </trkpt>
      <trkpt lat="59.2004369572" lon="17.5722979847">
        <ele>67.4</ele>
        <time>2011-05-01T08:24:33Z</time>
      </trkpt>
      <trkpt lat="59.2004859913" lon="17.5721479487">
        <ele>67.4</ele>
        <time>2011-05-01T08:24:34Z</time>
      </trkpt>
      <trkpt lat="59.2006359436" lon="17.5717069767">
        <ele>68.8</ele>
        <time>2011-05-01T08:24:37Z</time>
      </trkpt>
      <trkpt lat="59.200783968" lon="17.5712749735">
        <ele>68.8</ele>
        <time>2011-05-01T08:24:40Z</time>
      </trkpt>
      <trkpt lat="59.2009279691" lon="17.5708599854">
        <ele>68.2</ele>
        <time>2011-05-01T08:24:43Z</time>
      </trkpt>
      <trkpt lat="59.2010259535" lon="17.5705919322">
        <ele>67.4</ele>
        <time>2011-05-01T08:24:45Z</time>
      </trkpt>
      <trkpt lat="59.2011729721" lon="17.5701889303">
        <ele>68.2</ele>
        <time>2011-05-01T08:24:48Z</time>
      </trkpt>
      <trkpt lat="59.201317979" lon="17.5697699189">
        <ele>68.8</ele>
        <time>2011-05-01T08:24:51Z</time>
      </trkpt>
      <trkpt lat="59.2014579568" lon="17.5693479739">
        <ele>66.8</ele>
        <time>2011-05-01T08:24:54Z</time>
      </trkpt>
      <trkpt lat="59.2015999462" lon="17.5689439662">
        <ele>67.8</ele>
        <time>2011-05-01T08:24:57Z</time>
      </trkpt>
      <trkpt lat="59.2017379962" lon="17.5685329176">
        <ele>67.8</ele>
        <time>2011-05-01T08:25:00Z</time>
      </trkpt>
      <trkpt lat="59.201871939" lon="17.5681269821">
        <ele>68.2</ele>
        <time>2011-05-01T08:25:03Z</time>
      </trkpt>
      <trkpt lat="59.2019889504" lon="17.567718951">
        <ele>67.8</ele>
        <time>2011-05-01T08:25:06Z</time>
      </trkpt>
      <trkpt lat="59.2020929698" lon="17.5672939885">
        <ele>67.4</ele>
        <time>2011-05-01T08:25:09Z</time>
      </trkpt>
      <trkpt lat="59.2021889426" lon="17.5668569561">
        <ele>66.8</ele>
        <time>2011-05-01T08:25:12Z</time>
      </trkpt>
      <trkpt lat="59.2022599373" lon="17.5663699675">
        <ele>66.4</ele>
        <time>2011-05-01T08:25:15Z</time>
      </trkpt>
      <trkpt lat="59.2023199517" lon="17.5658849906">
        <ele>65.8</ele>
        <time>2011-05-01T08:25:18Z</time>
      </trkpt>
      <trkpt lat="59.2023729254" lon="17.5653979182">
        <ele>65.4</ele>
        <time>2011-05-01T08:25:21Z</time>
      </trkpt>
      <trkpt lat="59.202411985" lon="17.5649109297">
        <ele>65.4</ele>
        <time>2011-05-01T08:25:24Z</time>
      </trkpt>
      <trkpt lat="59.2024359573" lon="17.5644379389">
        <ele>65.4</ele>
        <time>2011-05-01T08:25:27Z</time>
      </trkpt>
      <trkpt lat="59.2024469376" lon="17.5639719889">
        <ele>65.4</ele>
        <time>2011-05-01T08:25:30Z</time>
      </trkpt>
      <trkpt lat="59.2024439201" lon="17.5635229703">
        <ele>65.4</ele>
        <time>2011-05-01T08:25:33Z</time>
      </trkpt>
      <trkpt lat="59.202424977" lon="17.563084932">
        <ele>66.4</ele>
        <time>2011-05-01T08:25:36Z</time>
      </trkpt>
      <trkpt lat="59.2023949698" lon="17.5626579579">
        <ele>66.8</ele>
        <time>2011-05-01T08:25:39Z</time>
      </trkpt>
      <trkpt lat="59.2023629509" lon="17.562241964">
        <ele>67.4</ele>
        <time>2011-05-01T08:25:42Z</time>
      </trkpt>
      <trkpt lat="59.2023319378" lon="17.5618389621">
        <ele>68.2</ele>
        <time>2011-05-01T08:25:45Z</time>
      </trkpt>
      <trkpt lat="59.2023049481" lon="17.5614469405">
        <ele>69.2</ele>
        <time>2011-05-01T08:25:48Z</time>
      </trkpt>
      <trkpt lat="59.2022729293" lon="17.561078975">
        <ele>70.2</ele>
        <time>2011-05-01T08:25:51Z</time>
      </trkpt>
      <trkpt lat="59.2022469454" lon="17.5606969278">
        <ele>70.6</ele>
        <time>2011-05-01T08:25:54Z</time>
      </trkpt>
      <trkpt lat="59.202242922" lon="17.5605769828">
        <ele>71.2</ele>
        <time>2011-05-01T08:25:55Z</time>
      </trkpt>
      <trkpt lat="59.2022229731" lon="17.5600969512">
        <ele>71.6</ele>
        <time>2011-05-01T08:25:59Z</time>
      </trkpt>
      <trkpt lat="59.2021949776" lon="17.5597299915">
        <ele>72.2</ele>
        <time>2011-05-01T08:26:02Z</time>
      </trkpt>
      <trkpt lat="59.2021599412" lon="17.5593279954">
        <ele>72.2</ele>
        <time>2011-05-01T08:26:05Z</time>
      </trkpt>
      <trkpt lat="59.2021239828" lon="17.5589409191">
        <ele>72.2</ele>
        <time>2011-05-01T08:26:08Z</time>
      </trkpt>
      <trkpt lat="59.2020999268" lon="17.55855795">
        <ele>72.2</ele>
        <time>2011-05-01T08:26:11Z</time>
      </trkpt>
      <trkpt lat="59.2020779662" lon="17.5581899844">
        <ele>72.6</ele>
        <time>2011-05-01T08:26:14Z</time>
      </trkpt>
      <trkpt lat="59.2020499706" lon="17.5578249525">
        <ele>73</ele>
        <time>2011-05-01T08:26:17Z</time>
      </trkpt>
      <trkpt lat="59.2020219751" lon="17.5574289914">
        <ele>73</ele>
        <time>2011-05-01T08:26:20Z</time>
      </trkpt>
      <trkpt lat="59.2019899562" lon="17.5570129976">
        <ele>73.6</ele>
        <time>2011-05-01T08:26:23Z</time>
      </trkpt>
      <trkpt lat="59.2019839212" lon="17.5566099957">
        <ele>73.6</ele>
        <time>2011-05-01T08:26:26Z</time>
      </trkpt>
      <trkpt lat="59.2019819934" lon="17.5561789982">
        <ele>73</ele>
        <time>2011-05-01T08:26:29Z</time>
      </trkpt>
      <trkpt lat="59.2020059656" lon="17.5557229389">
        <ele>72.6</ele>
        <time>2011-05-01T08:26:32Z</time>
      </trkpt>
      <trkpt lat="59.2020359728" lon="17.5554119702">
        <ele>72.2</ele>
        <time>2011-05-01T08:26:34Z</time>
      </trkpt>
      <trkpt lat="59.202129934" lon="17.5547979958">
        <ele>71.6</ele>
        <time>2011-05-01T08:26:38Z</time>
      </trkpt>
      <trkpt lat="59.2022259906" lon="17.5543549284">
        <ele>71.2</ele>
        <time>2011-05-01T08:26:41Z</time>
      </trkpt>
      <trkpt lat="59.2023479473" lon="17.5539259426">
        <ele>70.2</ele>
        <time>2011-05-01T08:26:44Z</time>
      </trkpt>
      <trkpt lat="59.2024769448" lon="17.5534699671">
        <ele>68.2</ele>
        <time>2011-05-01T08:26:47Z</time>
      </trkpt>
      <trkpt lat="59.2026179284" lon="17.5529959705">
        <ele>65.8</ele>
        <time>2011-05-01T08:26:50Z</time>
      </trkpt>
      <trkpt lat="59.2027369514" lon="17.5524439383">
        <ele>66.4</ele>
        <time>2011-05-01T08:26:53Z</time>
      </trkpt>
      <trkpt lat="59.2029449902" lon="17.5516289659">
        <ele>65</ele>
        <time>2011-05-01T08:26:58Z</time>
      </trkpt>
      <trkpt lat="59.2030249536" lon="17.5511369482">
        <ele>65.8</ele>
        <time>2011-05-01T08:27:01Z</time>
      </trkpt>
      <trkpt lat="59.2030769214" lon="17.5506429188">
        <ele>65.8</ele>
        <time>2011-05-01T08:27:04Z</time>
      </trkpt>
      <trkpt lat="59.2031139694" lon="17.5501529966">
        <ele>65.4</ele>
        <time>2011-05-01T08:27:07Z</time>
      </trkpt>
      <trkpt lat="59.2031319905" lon="17.5496689416">
        <ele>65</ele>
        <time>2011-05-01T08:27:10Z</time>
      </trkpt>
      <trkpt lat="59.2031119578" lon="17.5491769239">
        <ele>65.4</ele>
        <time>2011-05-01T08:27:13Z</time>
      </trkpt>
      <trkpt lat="59.2030819505" lon="17.5487159193">
        <ele>65.4</ele>
        <time>2011-05-01T08:27:16Z</time>
      </trkpt>
      <trkpt lat="59.2030369397" lon="17.5482749473">
        <ele>65.8</ele>
        <time>2011-05-01T08:27:19Z</time>
      </trkpt>
      <trkpt lat="59.2029759195" lon="17.5478569418">
        <ele>66.8</ele>
        <time>2011-05-01T08:27:22Z</time>
      </trkpt>
      <trkpt lat="59.2028989736" lon="17.5474699493">
        <ele>67.4</ele>
        <time>2011-05-01T08:27:25Z</time>
      </trkpt>
      <trkpt lat="59.2028149869" lon="17.5470899977">
        <ele>67.8</ele>
        <time>2011-05-01T08:27:28Z</time>
      </trkpt>
      <trkpt lat="59.2027169187" lon="17.5467209425">
        <ele>68.2</ele>
        <time>2011-05-01T08:27:31Z</time>
      </trkpt>
      <trkpt lat="59.2026059423" lon="17.5463739317">
        <ele>68.2</ele>
        <time>2011-05-01T08:27:34Z</time>
      </trkpt>
      <trkpt lat="59.2024949659" lon="17.5460419245">
        <ele>68.8</ele>
        <time>2011-05-01T08:27:37Z</time>
      </trkpt>
      <trkpt lat="59.2023779545" lon="17.5457029603">
        <ele>69.2</ele>
        <time>2011-05-01T08:27:40Z</time>
      </trkpt>
      <trkpt lat="59.2022669781" lon="17.5453769881">
        <ele>69.8</ele>
        <time>2011-05-01T08:27:43Z</time>
      </trkpt>
      <trkpt lat="59.202160947" lon="17.5450529438">
        <ele>70.2</ele>
        <time>2011-05-01T08:27:46Z</time>
      </trkpt>
      <trkpt lat="59.2020469531" lon="17.5447229482">
        <ele>70.2</ele>
        <time>2011-05-01T08:27:49Z</time>
      </trkpt>
      <trkpt lat="59.2019319534" lon="17.5443849899">
        <ele>70.2</ele>
        <time>2011-05-01T08:27:52Z</time>
      </trkpt>
      <trkpt lat="59.2018089909" lon="17.5440599397">
        <ele>70.2</ele>
        <time>2011-05-01T08:27:55Z</time>
      </trkpt>
      <trkpt lat="59.2016499862" lon="17.5437469594">
        <ele>69.2</ele>
        <time>2011-05-01T08:27:58Z</time>
      </trkpt>
      <trkpt lat="59.2014469765" lon="17.5434609689">
        <ele>68.2</ele>
        <time>2011-05-01T08:28:01Z</time>
      </trkpt>
      <trkpt lat="59.2012139596" lon="17.5431929994">
        <ele>66.8</ele>
        <time>2011-05-01T08:28:04Z</time>
      </trkpt>
      <trkpt lat="59.2009659391" lon="17.542919917">
        <ele>65.8</ele>
        <time>2011-05-01T08:28:07Z</time>
      </trkpt>
      <trkpt lat="59.2007289827" lon="17.5426709745">
        <ele>65.8</ele>
        <time>2011-05-01T08:28:10Z</time>
      </trkpt>
      <trkpt lat="59.2005229555" lon="17.5424469262">
        <ele>67.4</ele>
        <time>2011-05-01T08:28:13Z</time>
      </trkpt>
      <trkpt lat="59.2003419902" lon="17.5422389712">
        <ele>68.2</ele>
        <time>2011-05-01T08:28:16Z</time>
      </trkpt>
      <trkpt lat="59.2001749389" lon="17.5420029368">
        <ele>69.2</ele>
        <time>2011-05-01T08:28:19Z</time>
      </trkpt>
      <trkpt lat="59.2000239808" lon="17.5417219754">
        <ele>70.2</ele>
        <time>2011-05-01T08:28:22Z</time>
      </trkpt>
      <trkpt lat="59.1998709273" lon="17.5412639882">
        <ele>70.2</ele>
        <time>2011-05-01T08:28:26Z</time>
      </trkpt>
      <trkpt lat="59.1997759603" lon="17.5408929214">
        <ele>70.2</ele>
        <time>2011-05-01T08:28:29Z</time>
      </trkpt>
      <trkpt lat="59.1996799875" lon="17.5404939428">
        <ele>69.2</ele>
        <time>2011-05-01T08:28:32Z</time>
      </trkpt>
      <trkpt lat="59.1995849367" lon="17.5400909409">
        <ele>68.8</ele>
        <time>2011-05-01T08:28:35Z</time>
      </trkpt>
      <trkpt lat="59.1994939931" lon="17.5396909565">
        <ele>69.8</ele>
        <time>2011-05-01T08:28:38Z</time>
      </trkpt>
      <trkpt lat="59.1994009539" lon="17.5392859429">
        <ele>69.2</ele>
        <time>2011-05-01T08:28:41Z</time>
      </trkpt>
      <trkpt lat="59.1993029695" lon="17.5388799235">
        <ele>68.8</ele>
        <time>2011-05-01T08:28:44Z</time>
      </trkpt>
      <trkpt lat="59.1991789173" lon="17.5384779274">
        <ele>67.8</ele>
        <time>2011-05-01T08:28:47Z</time>
      </trkpt>
      <trkpt lat="59.1990319826" lon="17.5381019991">
        <ele>67.8</ele>
        <time>2011-05-01T08:28:50Z</time>
      </trkpt>
      <trkpt lat="59.1988629196" lon="17.5377219636">
        <ele>67.4</ele>
        <time>2011-05-01T08:28:53Z</time>
      </trkpt>
      <trkpt lat="59.1987399571" lon="17.5374729373">
        <ele>66.4</ele>
        <time>2011-05-01T08:28:55Z</time>
      </trkpt>
      <trkpt lat="59.1985469218" lon="17.5370879564">
        <ele>65.4</ele>
        <time>2011-05-01T08:28:58Z</time>
      </trkpt>
      <trkpt lat="59.1983469296" lon="17.5366919953">
        <ele>65</ele>
        <time>2011-05-01T08:29:01Z</time>
      </trkpt>
      <trkpt lat="59.1981499549" lon="17.5362959504">
        <ele>65.4</ele>
        <time>2011-05-01T08:29:04Z</time>
      </trkpt>
      <trkpt lat="59.1979619488" lon="17.5359149929">
        <ele>65</ele>
        <time>2011-05-01T08:29:07Z</time>
      </trkpt>
      <trkpt lat="59.1977769602" lon="17.5355459377">
        <ele>65</ele>
        <time>2011-05-01T08:29:10Z</time>
      </trkpt>
      <trkpt lat="59.1975969169" lon="17.535178978">
        <ele>65</ele>
        <time>2011-05-01T08:29:13Z</time>
      </trkpt>
      <trkpt lat="59.1974209808" lon="17.5348239206">
        <ele>65.4</ele>
        <time>2011-05-01T08:29:16Z</time>
      </trkpt>
      <trkpt lat="59.1972479783" lon="17.5344769936">
        <ele>65.8</ele>
        <time>2011-05-01T08:29:19Z</time>
      </trkpt>
      <trkpt lat="59.1970759816" lon="17.5341369398">
        <ele>65.8</ele>
        <time>2011-05-01T08:29:22Z</time>
      </trkpt>
      <trkpt lat="59.1968989559" lon="17.5338349398">
        <ele>66.8</ele>
        <time>2011-05-01T08:29:25Z</time>
      </trkpt>
      <trkpt lat="59.1967159789" lon="17.5335779507">
        <ele>67.4</ele>
        <time>2011-05-01T08:29:28Z</time>
      </trkpt>
      <trkpt lat="59.1965289786" lon="17.5333479512">
        <ele>67.4</ele>
        <time>2011-05-01T08:29:31Z</time>
      </trkpt>
      <trkpt lat="59.1963399667" lon="17.5331209693">
        <ele>67.4</ele>
        <time>2011-05-01T08:29:34Z</time>
      </trkpt>
      <trkpt lat="59.1961439978" lon="17.5328929815">
        <ele>67.4</ele>
        <time>2011-05-01T08:29:37Z</time>
      </trkpt>
      <trkpt lat="59.1959429998" lon="17.5326529238">
        <ele>66.4</ele>
        <time>2011-05-01T08:29:40Z</time>
      </trkpt>
      <trkpt lat="59.1957299318" lon="17.5323749799">
        <ele>64.4</ele>
        <time>2011-05-01T08:29:43Z</time>
      </trkpt>
      <trkpt lat="59.1955129243" lon="17.5320459902">
        <ele>64</ele>
        <time>2011-05-01T08:29:46Z</time>
      </trkpt>
      <trkpt lat="59.1953109205" lon="17.5316789467">
        <ele>63.4</ele>
        <time>2011-05-01T08:29:49Z</time>
      </trkpt>
      <trkpt lat="59.1951299552" lon="17.5312959775">
        <ele>63.4</ele>
        <time>2011-05-01T08:29:52Z</time>
      </trkpt>
      <trkpt lat="59.1949509177" lon="17.5309059676">
        <ele>63.4</ele>
        <time>2011-05-01T08:29:55Z</time>
      </trkpt>
      <trkpt lat="59.1947739758" lon="17.5305159576">
        <ele>63</ele>
        <time>2011-05-01T08:29:58Z</time>
      </trkpt>
      <trkpt lat="59.1946579702" lon="17.5302529335">
        <ele>62</ele>
        <time>2011-05-01T08:30:00Z</time>
      </trkpt>
      <trkpt lat="59.1944779269" lon="17.5298429746">
        <ele>58.6</ele>
        <time>2011-05-01T08:30:03Z</time>
      </trkpt>
      <trkpt lat="59.1943519469" lon="17.5295549724">
        <ele>57.8</ele>
        <time>2011-05-01T08:30:05Z</time>
      </trkpt>
      <trkpt lat="59.1941509489" lon="17.529086927">
        <ele>55.4</ele>
        <time>2011-05-01T08:30:08Z</time>
      </trkpt>
      <trkpt lat="59.1939409822" lon="17.5286139362">
        <ele>53.8</ele>
        <time>2011-05-01T08:30:11Z</time>
      </trkpt>
      <trkpt lat="59.1937279981" lon="17.5281329826">
        <ele>52</ele>
        <time>2011-05-01T08:30:14Z</time>
      </trkpt>
      <trkpt lat="59.1935149301" lon="17.5276469998">
        <ele>50.6</ele>
        <time>2011-05-01T08:30:17Z</time>
      </trkpt>
      <trkpt lat="59.1933049634" lon="17.5271729194">
        <ele>51</ele>
        <time>2011-05-01T08:30:20Z</time>
      </trkpt>
      <trkpt lat="59.1931699309" lon="17.526872931">
        <ele>52</ele>
        <time>2011-05-01T08:30:22Z</time>
      </trkpt>
      <trkpt lat="59.1929829307" lon="17.5264609605">
        <ele>52.4</ele>
        <time>2011-05-01T08:30:25Z</time>
      </trkpt>
      <trkpt lat="59.1928209923" lon="17.5261019636">
        <ele>53</ele>
        <time>2011-05-01T08:30:28Z</time>
      </trkpt>
      <trkpt lat="59.1926709563" lon="17.5257709622">
        <ele>53.8</ele>
        <time>2011-05-01T08:30:31Z</time>
      </trkpt>
      <trkpt lat="59.192521926" lon="17.5254399609">
        <ele>54.8</ele>
        <time>2011-05-01T08:30:34Z</time>
      </trkpt>
      <trkpt lat="59.1923739854" lon="17.5251289923">
        <ele>55.4</ele>
        <time>2011-05-01T08:30:37Z</time>
      </trkpt>
      <trkpt lat="59.192219926" lon="17.5248339493">
        <ele>56.2</ele>
        <time>2011-05-01T08:30:40Z</time>
      </trkpt>
      <trkpt lat="59.1920619272" lon="17.5245419238">
        <ele>57.8</ele>
        <time>2011-05-01T08:30:43Z</time>
      </trkpt>
      <trkpt lat="59.1918979771" lon="17.5242679194">
        <ele>57.8</ele>
        <time>2011-05-01T08:30:46Z</time>
      </trkpt>
      <trkpt lat="59.1917369608" lon="17.524011936">
        <ele>57.2</ele>
        <time>2011-05-01T08:30:49Z</time>
      </trkpt>
      <trkpt lat="59.1915789619" lon="17.5237529352">
        <ele>58.2</ele>
        <time>2011-05-01T08:30:52Z</time>
      </trkpt>
      <trkpt lat="59.1914139222" lon="17.5235029869">
        <ele>57.8</ele>
        <time>2011-05-01T08:30:55Z</time>
      </trkpt>
      <trkpt lat="59.1912429314" lon="17.5232349336">
        <ele>57.2</ele>
        <time>2011-05-01T08:30:58Z</time>
      </trkpt>
      <trkpt lat="59.1910649836" lon="17.5229579955">
        <ele>57.2</ele>
        <time>2011-05-01T08:31:01Z</time>
      </trkpt>
      <trkpt lat="59.1908849403" lon="17.5226849969">
        <ele>56.8</ele>
        <time>2011-05-01T08:31:04Z</time>
      </trkpt>
      <trkpt lat="59.1907059867" lon="17.5223969948">
        <ele>56.8</ele>
        <time>2011-05-01T08:31:07Z</time>
      </trkpt>
      <trkpt lat="59.1905279551" lon="17.5220909715">
        <ele>57.2</ele>
        <time>2011-05-01T08:31:10Z</time>
      </trkpt>
      <trkpt lat="59.1903579701" lon="17.521779919">
        <ele>57.2</ele>
        <time>2011-05-01T08:31:13Z</time>
      </trkpt>
      <trkpt lat="59.1901949421" lon="17.5214489177">
        <ele>56.8</ele>
        <time>2011-05-01T08:31:16Z</time>
      </trkpt>
      <trkpt lat="59.1900389548" lon="17.521106936">
        <ele>57.2</ele>
        <time>2011-05-01T08:31:19Z</time>
      </trkpt>
      <trkpt lat="59.1898929421" lon="17.5207439996">
        <ele>56.8</ele>
        <time>2011-05-01T08:31:22Z</time>
      </trkpt>
      <trkpt lat="59.1897529643" lon="17.5203529838">
        <ele>56.2</ele>
        <time>2011-05-01T08:31:25Z</time>
      </trkpt>
      <trkpt lat="59.189628996" lon="17.5199479703">
        <ele>56.2</ele>
        <time>2011-05-01T08:31:28Z</time>
      </trkpt>
      <trkpt lat="59.1895119846" lon="17.5195319764">
        <ele>56.2</ele>
        <time>2011-05-01T08:31:31Z</time>
      </trkpt>
      <trkpt lat="59.1894079652" lon="17.5190919265">
        <ele>56.8</ele>
        <time>2011-05-01T08:31:34Z</time>
      </trkpt>
      <trkpt lat="59.1893189494" lon="17.5186529662">
        <ele>56.2</ele>
        <time>2011-05-01T08:31:37Z</time>
      </trkpt>
      <trkpt lat="59.1892349627" lon="17.5182109885">
        <ele>56.2</ele>
        <time>2011-05-01T08:31:40Z</time>
      </trkpt>
      <trkpt lat="59.1891649738" lon="17.5177649874">
        <ele>56.2</ele>
        <time>2011-05-01T08:31:43Z</time>
      </trkpt>
      <trkpt lat="59.1891159397" lon="17.5173089281">
        <ele>55.8</ele>
        <time>2011-05-01T08:31:46Z</time>
      </trkpt>
      <trkpt lat="59.189075958" lon="17.5168389548">
        <ele>55.8</ele>
        <time>2011-05-01T08:31:49Z</time>
      </trkpt>
      <trkpt lat="59.1890489683" lon="17.5163699873">
        <ele>55.4</ele>
        <time>2011-05-01T08:31:52Z</time>
      </trkpt>
      <trkpt lat="59.1890439391" lon="17.5158969965">
        <ele>55.4</ele>
        <time>2011-05-01T08:31:55Z</time>
      </trkpt>
      <trkpt lat="59.1890429333" lon="17.5154339802">
        <ele>55.4</ele>
        <time>2011-05-01T08:31:58Z</time>
      </trkpt>
      <trkpt lat="59.189062966" lon="17.5149549544">
        <ele>54.8</ele>
        <time>2011-05-01T08:32:01Z</time>
      </trkpt>
      <trkpt lat="59.189081993" lon="17.5144639425">
        <ele>54.8</ele>
        <time>2011-05-01T08:32:04Z</time>
      </trkpt>
      <trkpt lat="59.189113928" lon="17.5139769539">
        <ele>54.8</ele>
        <time>2011-05-01T08:32:07Z</time>
      </trkpt>
      <trkpt lat="59.1891379841" lon="17.5135169551">
        <ele>55.4</ele>
        <time>2011-05-01T08:32:10Z</time>
      </trkpt>
      <trkpt lat="59.189157933" lon="17.5130999554">
        <ele>56.2</ele>
        <time>2011-05-01T08:32:13Z</time>
      </trkpt>
      <trkpt lat="59.1891839169" lon="17.5127039943">
        <ele>57.2</ele>
        <time>2011-05-01T08:32:16Z</time>
      </trkpt>
      <trkpt lat="59.189207973" lon="17.5123059377">
        <ele>58.2</ele>
        <time>2011-05-01T08:32:19Z</time>
      </trkpt>
      <trkpt lat="59.1892269999" lon="17.5119359605">
        <ele>58.2</ele>
        <time>2011-05-01T08:32:22Z</time>
      </trkpt>
      <trkpt lat="59.1892409977" lon="17.511568917">
        <ele>60.2</ele>
        <time>2011-05-01T08:32:25Z</time>
      </trkpt>
      <trkpt lat="59.1892599408" lon="17.511215955">
        <ele>60.6</ele>
        <time>2011-05-01T08:32:28Z</time>
      </trkpt>
      <trkpt lat="59.189276956" lon="17.5108719617">
        <ele>61</ele>
        <time>2011-05-01T08:32:31Z</time>
      </trkpt>
      <trkpt lat="59.189289948" lon="17.5106469914">
        <ele>62</ele>
        <time>2011-05-01T08:32:33Z</time>
      </trkpt>
      <trkpt lat="59.1893109865" lon="17.5103129726">
        <ele>62.6</ele>
        <time>2011-05-01T08:32:36Z</time>
      </trkpt>
      <trkpt lat="59.189333953" lon="17.5099919457">
        <ele>63</ele>
        <time>2011-05-01T08:32:39Z</time>
      </trkpt>
      <trkpt lat="59.1893559974" lon="17.5096669793">
        <ele>64</ele>
        <time>2011-05-01T08:32:42Z</time>
      </trkpt>
      <trkpt lat="59.189377958" lon="17.5093409233">
        <ele>64.4</ele>
        <time>2011-05-01T08:32:45Z</time>
      </trkpt>
      <trkpt lat="59.1893979907" lon="17.5090029649">
        <ele>64.4</ele>
        <time>2011-05-01T08:32:48Z</time>
      </trkpt>
      <trkpt lat="59.1894219629" lon="17.5086479913">
        <ele>64.4</ele>
        <time>2011-05-01T08:32:51Z</time>
      </trkpt>
      <trkpt lat="59.1894449294" lon="17.5082879886">
        <ele>64.4</ele>
        <time>2011-05-01T08:32:54Z</time>
      </trkpt>
      <trkpt lat="59.1894659679" lon="17.5079349428">
        <ele>65.8</ele>
        <time>2011-05-01T08:32:57Z</time>
      </trkpt>
      <trkpt lat="59.1894879285" lon="17.5075869262">
        <ele>66.4</ele>
        <time>2011-05-01T08:33:00Z</time>
      </trkpt>
      <trkpt lat="59.1895019263" lon="17.5072499737">
        <ele>66.8</ele>
        <time>2011-05-01T08:33:03Z</time>
      </trkpt>
      <trkpt lat="59.1895189416" lon="17.5069089979">
        <ele>67.8</ele>
        <time>2011-05-01T08:33:06Z</time>
      </trkpt>
      <trkpt lat="59.1895269882" lon="17.5065689441">
        <ele>68.8</ele>
        <time>2011-05-01T08:33:09Z</time>
      </trkpt>
      <trkpt lat="59.1895269882" lon="17.5062539522">
        <ele>69.2</ele>
        <time>2011-05-01T08:33:12Z</time>
      </trkpt>
      <trkpt lat="59.1895189416" lon="17.5059499405">
        <ele>70.2</ele>
        <time>2011-05-01T08:33:15Z</time>
      </trkpt>
      <trkpt lat="59.1895049438" lon="17.505632937">
        <ele>71.2</ele>
        <time>2011-05-01T08:33:18Z</time>
      </trkpt>
      <trkpt lat="59.1894799657" lon="17.5052949786">
        <ele>71.2</ele>
        <time>2011-05-01T08:33:21Z</time>
      </trkpt>
      <trkpt lat="59.1894439235" lon="17.5049429387">
        <ele>71.6</ele>
        <time>2011-05-01T08:33:24Z</time>
      </trkpt>
      <trkpt lat="59.1894139163" lon="17.5045909826">
        <ele>72.6</ele>
        <time>2011-05-01T08:33:27Z</time>
      </trkpt>
      <trkpt lat="59.1893849988" lon="17.5042509288">
        <ele>73.6</ele>
        <time>2011-05-01T08:33:30Z</time>
      </trkpt>
      <trkpt lat="59.189358931" lon="17.5039249565">
        <ele>74</ele>
        <time>2011-05-01T08:33:33Z</time>
      </trkpt>
      <trkpt lat="59.1893309355" lon="17.5036069471">
        <ele>74.6</ele>
        <time>2011-05-01T08:33:36Z</time>
      </trkpt>
      <trkpt lat="59.1892879363" lon="17.5032889377">
        <ele>75</ele>
        <time>2011-05-01T08:33:39Z</time>
      </trkpt>
      <trkpt lat="59.1892319452" lon="17.5029619597">
        <ele>75</ele>
        <time>2011-05-01T08:33:42Z</time>
      </trkpt>
      <trkpt lat="59.1891649738" lon="17.5026079919">
        <ele>75</ele>
        <time>2011-05-01T08:33:45Z</time>
      </trkpt>
      <trkpt lat="59.1890989244" lon="17.5022149645">
        <ele>73.6</ele>
        <time>2011-05-01T08:33:48Z</time>
      </trkpt>
      <trkpt lat="59.1889999341" lon="17.5017369445">
        <ele>72.2</ele>
        <time>2011-05-01T08:33:51Z</time>
      </trkpt>
      <trkpt lat="59.1889019497" lon="17.5012129918">
        <ele>70.2</ele>
        <time>2011-05-01T08:33:54Z</time>
      </trkpt>
      <trkpt lat="59.1888039652" lon="17.5006579421">
        <ele>67.4</ele>
        <time>2011-05-01T08:33:57Z</time>
      </trkpt>
      <trkpt lat="59.1887079924" lon="17.5000849552">
        <ele>67.8</ele>
        <time>2011-05-01T08:34:00Z</time>
      </trkpt>
      <trkpt lat="59.1886339802" lon="17.4995019939">
        <ele>67.4</ele>
        <time>2011-05-01T08:34:03Z</time>
      </trkpt>
      <trkpt lat="59.1885839403" lon="17.4989369698">
        <ele>66.8</ele>
        <time>2011-05-01T08:34:06Z</time>
      </trkpt>
      <trkpt lat="59.1885699425" lon="17.4983749632">
        <ele>66.4</ele>
        <time>2011-05-01T08:34:09Z</time>
      </trkpt>
      <trkpt lat="59.1885879636" lon="17.4978149682">
        <ele>66.4</ele>
        <time>2011-05-01T08:34:12Z</time>
      </trkpt>
      <trkpt lat="59.18861093" lon="17.4972399697">
        <ele>65.4</ele>
        <time>2011-05-01T08:34:15Z</time>
      </trkpt>
      <trkpt lat="59.1886699386" lon="17.4967149273">
        <ele>64.4</ele>
        <time>2011-05-01T08:34:18Z</time>
      </trkpt>
      <trkpt lat="59.1887539253" lon="17.4961849395">
        <ele>63.4</ele>
        <time>2011-05-01T08:34:21Z</time>
      </trkpt>
      <trkpt lat="59.1888419352" lon="17.4956289679">
        <ele>61</ele>
        <time>2011-05-01T08:34:24Z</time>
      </trkpt>
      <trkpt lat="59.1889379919" lon="17.4950399715">
        <ele>60.2</ele>
        <time>2011-05-01T08:34:27Z</time>
      </trkpt>
      <trkpt lat="59.1890229844" lon="17.4944449402">
        <ele>58.6</ele>
        <time>2011-05-01T08:34:30Z</time>
      </trkpt>
      <trkpt lat="59.1890739463" lon="17.4938949198">
        <ele>60.2</ele>
        <time>2011-05-01T08:34:33Z</time>
      </trkpt>
      <trkpt lat="59.1890969966" lon="17.4934049975">
        <ele>61</ele>
        <time>2011-05-01T08:34:36Z</time>
      </trkpt>
      <trkpt lat="59.1890989244" lon="17.4929329287">
        <ele>61.6</ele>
        <time>2011-05-01T08:34:39Z</time>
      </trkpt>
      <trkpt lat="59.1890899558" lon="17.4924539868">
        <ele>61.6</ele>
        <time>2011-05-01T08:34:42Z</time>
      </trkpt>
      <trkpt lat="59.1890689172" lon="17.4919519946">
        <ele>60.6</ele>
        <time>2011-05-01T08:34:45Z</time>
      </trkpt>
      <trkpt lat="59.1890519857" lon="17.4914429616">
        <ele>60.6</ele>
        <time>2011-05-01T08:34:48Z</time>
      </trkpt>
      <trkpt lat="59.1890429333" lon="17.4909239542">
        <ele>60.2</ele>
        <time>2011-05-01T08:34:51Z</time>
      </trkpt>
      <trkpt lat="59.1890389938" lon="17.490383992">
        <ele>59.6</ele>
        <time>2011-05-01T08:34:54Z</time>
      </trkpt>
      <trkpt lat="59.1890329588" lon="17.4898339715">
        <ele>59.6</ele>
        <time>2011-05-01T08:34:57Z</time>
      </trkpt>
      <trkpt lat="59.1890289355" lon="17.4892759882">
        <ele>58.2</ele>
        <time>2011-05-01T08:35:00Z</time>
      </trkpt>
      <trkpt lat="59.189025918" lon="17.4887339305">
        <ele>58.2</ele>
        <time>2011-05-01T08:35:03Z</time>
      </trkpt>
      <trkpt lat="59.189025918" lon="17.4882019311">
        <ele>58.2</ele>
        <time>2011-05-01T08:35:06Z</time>
      </trkpt>
      <trkpt lat="59.189024996" lon="17.4878509808">
        <ele>59.2</ele>
        <time>2011-05-01T08:35:08Z</time>
      </trkpt>
      <trkpt lat="59.1890199669" lon="17.4873279501">
        <ele>58.6</ele>
        <time>2011-05-01T08:35:11Z</time>
      </trkpt>
      <trkpt lat="59.1890199669" lon="17.4868109543">
        <ele>59.2</ele>
        <time>2011-05-01T08:35:14Z</time>
      </trkpt>
      <trkpt lat="59.1890109982" lon="17.486296976">
        <ele>58.6</ele>
        <time>2011-05-01T08:35:17Z</time>
      </trkpt>
      <trkpt lat="59.1890089866" lon="17.4857969955">
        <ele>59.2</ele>
        <time>2011-05-01T08:35:20Z</time>
      </trkpt>
      <trkpt lat="59.1890089866" lon="17.4853109289">
        <ele>59.6</ele>
        <time>2011-05-01T08:35:23Z</time>
      </trkpt>
      <trkpt lat="59.1890059691" lon="17.4848319869">
        <ele>60.2</ele>
        <time>2011-05-01T08:35:26Z</time>
      </trkpt>
      <trkpt lat="59.1890019458" lon="17.4843639415">
        <ele>60.2</ele>
        <time>2011-05-01T08:35:29Z</time>
      </trkpt>
      <trkpt lat="59.1889929771" lon="17.4839069601">
        <ele>60.6</ele>
        <time>2011-05-01T08:35:32Z</time>
      </trkpt>
      <trkpt lat="59.1889929771" lon="17.4834509846">
        <ele>60.6</ele>
        <time>2011-05-01T08:35:35Z</time>
      </trkpt>
      <trkpt lat="59.1889999341" lon="17.4829809275">
        <ele>61</ele>
        <time>2011-05-01T08:35:38Z</time>
      </trkpt>
      <trkpt lat="59.1890149377" lon="17.482498968">
        <ele>60.6</ele>
        <time>2011-05-01T08:35:41Z</time>
      </trkpt>
      <trkpt lat="59.189037988" lon="17.4820299167">
        <ele>59.2</ele>
        <time>2011-05-01T08:35:44Z</time>
      </trkpt>
      <trkpt lat="59.1890679952" lon="17.4815669842">
        <ele>58.6</ele>
        <time>2011-05-01T08:35:47Z</time>
      </trkpt>
      <trkpt lat="59.1890979186" lon="17.4810929876">
        <ele>59.2</ele>
        <time>2011-05-01T08:35:50Z</time>
      </trkpt>
      <trkpt lat="59.1891279258" lon="17.4806119502">
        <ele>59.2</ele>
        <time>2011-05-01T08:35:53Z</time>
      </trkpt>
      <trkpt lat="59.1891519818" lon="17.4801179208">
        <ele>59.2</ele>
        <time>2011-05-01T08:35:56Z</time>
      </trkpt>
      <trkpt lat="59.1891719308" lon="17.4796029367">
        <ele>57.8</ele>
        <time>2011-05-01T08:35:59Z</time>
      </trkpt>
      <trkpt lat="59.1891819891" lon="17.4790799897">
        <ele>57.2</ele>
        <time>2011-05-01T08:36:02Z</time>
      </trkpt>
      <trkpt lat="59.1891819891" lon="17.4785499182">
        <ele>57.2</ele>
        <time>2011-05-01T08:36:05Z</time>
      </trkpt>
      <trkpt lat="59.1891849227" lon="17.4780129734">
        <ele>56.8</ele>
        <time>2011-05-01T08:36:08Z</time>
      </trkpt>
      <trkpt lat="59.1891979985" lon="17.4774729274">
        <ele>56.2</ele>
        <time>2011-05-01T08:36:11Z</time>
      </trkpt>
      <trkpt lat="59.1892209649" lon="17.4769319594">
        <ele>54.8</ele>
        <time>2011-05-01T08:36:14Z</time>
      </trkpt>
      <trkpt lat="59.189245943" lon="17.4763879739">
        <ele>54.8</ele>
        <time>2011-05-01T08:36:17Z</time>
      </trkpt>
      <trkpt lat="59.1892739385" lon="17.4758519512">
        <ele>53</ele>
        <time>2011-05-01T08:36:20Z</time>
      </trkpt>
      <trkpt lat="59.1893019341" lon="17.4753219634">
        <ele>54.4</ele>
        <time>2011-05-01T08:36:23Z</time>
      </trkpt>
      <trkpt lat="59.1893179435" lon="17.4747579452">
        <ele>55.4</ele>
        <time>2011-05-01T08:36:26Z</time>
      </trkpt>
      <trkpt lat="59.1893469449" lon="17.4742209166">
        <ele>54.8</ele>
        <time>2011-05-01T08:36:29Z</time>
      </trkpt>
      <trkpt lat="59.1893759463" lon="17.4736929405">
        <ele>54.8</ele>
        <time>2011-05-01T08:36:32Z</time>
      </trkpt>
      <trkpt lat="59.1893989965" lon="17.4731659703">
        <ele>53.8</ele>
        <time>2011-05-01T08:36:35Z</time>
      </trkpt>
      <trkpt lat="59.189415928" lon="17.4726279359">
        <ele>53.8</ele>
        <time>2011-05-01T08:36:38Z</time>
      </trkpt>
      <trkpt lat="59.1894389782" lon="17.4720899854">
        <ele>51.4</ele>
        <time>2011-05-01T08:36:41Z</time>
      </trkpt>
      <trkpt lat="59.1894489527" lon="17.4719149712">
        <ele>51.4</ele>
        <time>2011-05-01T08:36:42Z</time>
      </trkpt>
      <trkpt lat="59.1894849949" lon="17.4713759311">
        <ele>51.4</ele>
        <time>2011-05-01T08:36:45Z</time>
      </trkpt>
      <trkpt lat="59.1895259824" lon="17.4708309397">
        <ele>51</ele>
        <time>2011-05-01T08:36:48Z</time>
      </trkpt>
      <trkpt lat="59.1895639524" lon="17.4702869542">
        <ele>50</ele>
        <time>2011-05-01T08:36:51Z</time>
      </trkpt>
      <trkpt lat="59.1895969771" lon="17.4697449803">
        <ele>49.6</ele>
        <time>2011-05-01T08:36:54Z</time>
      </trkpt>
      <trkpt lat="59.1896199435" lon="17.4692189321">
        <ele>49</ele>
        <time>2011-05-01T08:36:57Z</time>
      </trkpt>
      <trkpt lat="59.1896399762" lon="17.4687009305">
        <ele>49</ele>
        <time>2011-05-01T08:37:00Z</time>
      </trkpt>
      <trkpt lat="59.189653974" lon="17.4681869522">
        <ele>49</ele>
        <time>2011-05-01T08:37:03Z</time>
      </trkpt>
      <trkpt lat="59.1896679718" lon="17.4676729739">
        <ele>48.6</ele>
        <time>2011-05-01T08:37:06Z</time>
      </trkpt>
      <trkpt lat="59.1896959674" lon="17.4671389628">
        <ele>47.6</ele>
        <time>2011-05-01T08:37:09Z</time>
      </trkpt>
      <trkpt lat="59.1897499468" lon="17.4665939715">
        <ele>45.6</ele>
        <time>2011-05-01T08:37:12Z</time>
      </trkpt>
      <trkpt lat="59.1897869948" lon="17.4662189651">
        <ele>44.8</ele>
        <time>2011-05-01T08:37:14Z</time>
      </trkpt>
      <trkpt lat="59.1898639407" lon="17.4656859599">
        <ele>45.2</ele>
        <time>2011-05-01T08:37:17Z</time>
      </trkpt>
      <trkpt lat="59.1899549682" lon="17.4651539605">
        <ele>43.8</ele>
        <time>2011-05-01T08:37:20Z</time>
      </trkpt>
      <trkpt lat="59.1900649387" lon="17.4646289181">
        <ele>44.8</ele>
        <time>2011-05-01T08:37:23Z</time>
      </trkpt>
      <trkpt lat="59.1901909187" lon="17.464113934">
        <ele>43.8</ele>
        <time>2011-05-01T08:37:26Z</time>
      </trkpt>
      <trkpt lat="59.1904249415" lon="17.4633219279">
        <ele>44.2</ele>
        <time>2011-05-01T08:37:31Z</time>
      </trkpt>
      <trkpt lat="59.1905629914" lon="17.4628729932">
        <ele>44.2</ele>
        <time>2011-05-01T08:37:34Z</time>
      </trkpt>
      <trkpt lat="59.1906979401" lon="17.4624359608">
        <ele>45.2</ele>
        <time>2011-05-01T08:37:37Z</time>
      </trkpt>
      <trkpt lat="59.1908239201" lon="17.4620209727">
        <ele>44.8</ele>
        <time>2011-05-01T08:37:40Z</time>
      </trkpt>
      <trkpt lat="59.1909469664" lon="17.4616209883">
        <ele>42.8</ele>
        <time>2011-05-01T08:37:43Z</time>
      </trkpt>
      <trkpt lat="59.1910699289" lon="17.4612169806">
        <ele>44.8</ele>
        <time>2011-05-01T08:37:46Z</time>
      </trkpt>
      <trkpt lat="59.1912009381" lon="17.4608029984">
        <ele>42.4</ele>
        <time>2011-05-01T08:37:49Z</time>
      </trkpt>
      <trkpt lat="59.1912469547" lon="17.4606639426">
        <ele>42.4</ele>
        <time>2011-05-01T08:37:50Z</time>
      </trkpt>
      <trkpt lat="59.1913909558" lon="17.4602429196">
        <ele>44.2</ele>
        <time>2011-05-01T08:37:53Z</time>
      </trkpt>
      <trkpt lat="59.1914369725" lon="17.460094979">
        <ele>44.2</ele>
        <time>2011-05-01T08:37:54Z</time>
      </trkpt>
      <trkpt lat="59.1915629525" lon="17.4596469663">
        <ele>43.2</ele>
        <time>2011-05-01T08:37:57Z</time>
      </trkpt>
      <trkpt lat="59.1916949674" lon="17.4592249375">
        <ele>43.2</ele>
        <time>2011-05-01T08:38:00Z</time>
      </trkpt>
      <trkpt lat="59.1917809658" lon="17.4589419644">
        <ele>41.4</ele>
        <time>2011-05-01T08:38:02Z</time>
      </trkpt>
      <trkpt lat="59.1919069458" lon="17.4585139845">
        <ele>41.8</ele>
        <time>2011-05-01T08:38:05Z</time>
      </trkpt>
      <trkpt lat="59.1920239571" lon="17.458082987">
        <ele>40.8</ele>
        <time>2011-05-01T08:38:08Z</time>
      </trkpt>
      <trkpt lat="59.192143986" lon="17.4576349743">
        <ele>40.8</ele>
        <time>2011-05-01T08:38:11Z</time>
      </trkpt>
      <trkpt lat="59.1922579799" lon="17.4571829382">
        <ele>40</ele>
        <time>2011-05-01T08:38:14Z</time>
      </trkpt>
      <trkpt lat="59.1923689563" lon="17.4567359313">
        <ele>40</ele>
        <time>2011-05-01T08:38:17Z</time>
      </trkpt>
      <trkpt lat="59.192483956" lon="17.4562809616">
        <ele>40</ele>
        <time>2011-05-01T08:38:20Z</time>
      </trkpt>
      <trkpt lat="59.1925979499" lon="17.4558189511">
        <ele>40.4</ele>
        <time>2011-05-01T08:38:23Z</time>
      </trkpt>
      <trkpt lat="59.1927129496" lon="17.4553529173">
        <ele>40</ele>
        <time>2011-05-01T08:38:26Z</time>
      </trkpt>
      <trkpt lat="59.1928269435" lon="17.4548869673">
        <ele>39</ele>
        <time>2011-05-01T08:38:29Z</time>
      </trkpt>
      <trkpt lat="59.1929409374" lon="17.4544249568">
        <ele>39</ele>
        <time>2011-05-01T08:38:32Z</time>
      </trkpt>
      <trkpt lat="59.1930539254" lon="17.4539659638">
        <ele>37.6</ele>
        <time>2011-05-01T08:38:35Z</time>
      </trkpt>
      <trkpt lat="59.1931299493" lon="17.4536619522">
        <ele>36.6</ele>
        <time>2011-05-01T08:38:37Z</time>
      </trkpt>
      <trkpt lat="59.1932439432" lon="17.4532029592">
        <ele>36</ele>
        <time>2011-05-01T08:38:40Z</time>
      </trkpt>
      <trkpt lat="59.1933559254" lon="17.4527429603">
        <ele>36</ele>
        <time>2011-05-01T08:38:43Z</time>
      </trkpt>
      <trkpt lat="59.1934689973" lon="17.4522839673">
        <ele>36</ele>
        <time>2011-05-01T08:38:46Z</time>
      </trkpt>
      <trkpt lat="59.193584919" lon="17.4518169276">
        <ele>35.6</ele>
        <time>2011-05-01T08:38:49Z</time>
      </trkpt>
      <trkpt lat="59.1937059537" lon="17.4513349682">
        <ele>36</ele>
        <time>2011-05-01T08:38:52Z</time>
      </trkpt>
      <trkpt lat="59.1938279942" lon="17.4508489855">
        <ele>35.6</ele>
        <time>2011-05-01T08:38:55Z</time>
      </trkpt>
      <trkpt lat="59.1939509567" lon="17.450367948">
        <ele>34.6</ele>
        <time>2011-05-01T08:38:58Z</time>
      </trkpt>
      <trkpt lat="59.1940779425" lon="17.4498889223">
        <ele>34.2</ele>
        <time>2011-05-01T08:39:01Z</time>
      </trkpt>
      <trkpt lat="59.1942149866" lon="17.4494249839">
        <ele>33.2</ele>
        <time>2011-05-01T08:39:04Z</time>
      </trkpt>
      <trkpt lat="59.1943709739" lon="17.4489809945">
        <ele>33.2</ele>
        <time>2011-05-01T08:39:07Z</time>
      </trkpt>
      <trkpt lat="59.1945389472" lon="17.4485499971">
        <ele>32.2</ele>
        <time>2011-05-01T08:39:10Z</time>
      </trkpt>
      <trkpt lat="59.1946529411" lon="17.4482629169">
        <ele>31.2</ele>
        <time>2011-05-01T08:39:12Z</time>
      </trkpt>
      <trkpt lat="59.1948249377" lon="17.4478269741">
        <ele>29.8</ele>
        <time>2011-05-01T08:39:15Z</time>
      </trkpt>
      <trkpt lat="59.1949999519" lon="17.4473889358">
        <ele>28.4</ele>
        <time>2011-05-01T08:39:18Z</time>
      </trkpt>
      <trkpt lat="59.1951769777" lon="17.4469579384">
        <ele>28</ele>
        <time>2011-05-01T08:39:21Z</time>
      </trkpt>
      <trkpt lat="59.1953519918" lon="17.4465199839">
        <ele>30.4</ele>
        <time>2011-05-01T08:39:24Z</time>
      </trkpt>
      <trkpt lat="59.1955339629" lon="17.4460699596">
        <ele>28.8</ele>
        <time>2011-05-01T08:39:27Z</time>
      </trkpt>
      <trkpt lat="59.1957179457" lon="17.445620941">
        <ele>29.4</ele>
        <time>2011-05-01T08:39:30Z</time>
      </trkpt>
      <trkpt lat="59.195897989" lon="17.4451769516">
        <ele>30.4</ele>
        <time>2011-05-01T08:39:33Z</time>
      </trkpt>
      <trkpt lat="59.196074931" lon="17.44474696">
        <ele>29.4</ele>
        <time>2011-05-01T08:39:36Z</time>
      </trkpt>
      <trkpt lat="59.1962369531" lon="17.444312945">
        <ele>30.4</ele>
        <time>2011-05-01T08:39:39Z</time>
      </trkpt>
      <trkpt lat="59.1963749193" lon="17.4438449834">
        <ele>29.8</ele>
        <time>2011-05-01T08:39:42Z</time>
      </trkpt>
      <trkpt lat="59.1964949481" lon="17.443344919">
        <ele>29.4</ele>
        <time>2011-05-01T08:39:45Z</time>
      </trkpt>
      <trkpt lat="59.1966099478" lon="17.4428389873">
        <ele>28.8</ele>
        <time>2011-05-01T08:39:48Z</time>
      </trkpt>
      <trkpt lat="59.1967009753" lon="17.4423189741">
        <ele>28.4</ele>
        <time>2011-05-01T08:39:51Z</time>
      </trkpt>
      <trkpt lat="59.1967469919" lon="17.4417699594">
        <ele>27</ele>
        <time>2011-05-01T08:39:54Z</time>
      </trkpt>
      <trkpt lat="59.1967369337" lon="17.441206947">
        <ele>26</ele>
        <time>2011-05-01T08:39:57Z</time>
      </trkpt>
      <trkpt lat="59.1967049986" lon="17.4406429287">
        <ele>25.6</ele>
        <time>2011-05-01T08:40:00Z</time>
      </trkpt>
      <trkpt lat="59.1966639273" lon="17.440068936">
        <ele>24.6</ele>
        <time>2011-05-01T08:40:03Z</time>
      </trkpt>
      <trkpt lat="59.1966299806" lon="17.4394689593">
        <ele>23.6</ele>
        <time>2011-05-01T08:40:06Z</time>
      </trkpt>
      <trkpt lat="59.1966249514" lon="17.4388569966">
        <ele>22.6</ele>
        <time>2011-05-01T08:40:09Z</time>
      </trkpt>
      <trkpt lat="59.1966369376" lon="17.4386629555">
        <ele>22.6</ele>
        <time>2011-05-01T08:40:10Z</time>
      </trkpt>
      <trkpt lat="59.1967889853" lon="17.4379829317">
        <ele>23.2</ele>
        <time>2011-05-01T08:40:14Z</time>
      </trkpt>
      <trkpt lat="59.1968529392" lon="17.4378479831">
        <ele>23.6</ele>
        <time>2011-05-01T08:40:15Z</time>
      </trkpt>
      <trkpt lat="59.1971169692" lon="17.4373549595">
        <ele>22.2</ele>
        <time>2011-05-01T08:40:19Z</time>
      </trkpt>
      <trkpt lat="59.1973149497" lon="17.4369829707">
        <ele>24</ele>
        <time>2011-05-01T08:40:22Z</time>
      </trkpt>
      <trkpt lat="59.1975149419" lon="17.4366069585">
        <ele>23.6</ele>
        <time>2011-05-01T08:40:25Z</time>
      </trkpt>
      <trkpt lat="59.1977129225" lon="17.4362309463">
        <ele>23.2</ele>
        <time>2011-05-01T08:40:28Z</time>
      </trkpt>
      <trkpt lat="59.197909981" lon="17.4358679261">
        <ele>24.6</ele>
        <time>2011-05-01T08:40:31Z</time>
      </trkpt>
      <trkpt lat="59.1981009208" lon="17.4355079234">
        <ele>24.6</ele>
        <time>2011-05-01T08:40:34Z</time>
      </trkpt>
      <trkpt lat="59.1982929502" lon="17.4351459928">
        <ele>24.6</ele>
        <time>2011-05-01T08:40:37Z</time>
      </trkpt>
      <trkpt lat="59.1984839737" lon="17.4347769376">
        <ele>24.6</ele>
        <time>2011-05-01T08:40:40Z</time>
      </trkpt>
      <trkpt lat="59.1986759193" lon="17.434408972">
        <ele>24</ele>
        <time>2011-05-01T08:40:43Z</time>
      </trkpt>
      <trkpt lat="59.1988649312" lon="17.4340579379">
        <ele>25</ele>
        <time>2011-05-01T08:40:46Z</time>
      </trkpt>
      <trkpt lat="59.1990569606" lon="17.4337469693">
        <ele>24</ele>
        <time>2011-05-01T08:40:49Z</time>
      </trkpt>
      <trkpt lat="59.1992609762" lon="17.4334769882">
        <ele>24.6</ele>
        <time>2011-05-01T08:40:52Z</time>
      </trkpt>
      <trkpt lat="59.1994769778" lon="17.4332349189">
        <ele>24</ele>
        <time>2011-05-01T08:40:55Z</time>
      </trkpt>
      <trkpt lat="59.1996979248" lon="17.4330149777">
        <ele>24</ele>
        <time>2011-05-01T08:40:58Z</time>
      </trkpt>
      <trkpt lat="59.1999229789" lon="17.4328139797">
        <ele>24.6</ele>
        <time>2011-05-01T08:41:01Z</time>
      </trkpt>
      <trkpt lat="59.2001559958" lon="17.4326329306">
        <ele>24.6</ele>
        <time>2011-05-01T08:41:04Z</time>
      </trkpt>
      <trkpt lat="59.2003919464" lon="17.4324589223">
        <ele>24</ele>
        <time>2011-05-01T08:41:07Z</time>
      </trkpt>
      <trkpt lat="59.2006279808" lon="17.4322769511">
        <ele>25</ele>
        <time>2011-05-01T08:41:10Z</time>
      </trkpt>
      <trkpt lat="59.2008539569" lon="17.4320599437">
        <ele>25</ele>
        <time>2011-05-01T08:41:13Z</time>
      </trkpt>
      <trkpt lat="59.2011279613" lon="17.4316709395">
        <ele>24.6</ele>
        <time>2011-05-01T08:41:17Z</time>
      </trkpt>
      <trkpt lat="59.2013049871" lon="17.431315966">
        <ele>25</ele>
        <time>2011-05-01T08:41:20Z</time>
      </trkpt>
      <trkpt lat="59.2014579568" lon="17.4309209269">
        <ele>23.6</ele>
        <time>2011-05-01T08:41:23Z</time>
      </trkpt>
      <trkpt lat="59.2015939951" lon="17.4305069447">
        <ele>24</ele>
        <time>2011-05-01T08:41:26Z</time>
      </trkpt>
      <trkpt lat="59.2017089948" lon="17.4300789647">
        <ele>23.6</ele>
        <time>2011-05-01T08:41:29Z</time>
      </trkpt>
      <trkpt lat="59.2017989326" lon="17.4296219833">
        <ele>24</ele>
        <time>2011-05-01T08:41:32Z</time>
      </trkpt>
      <trkpt lat="59.2018599529" lon="17.4291349947">
        <ele>24.6</ele>
        <time>2011-05-01T08:41:35Z</time>
      </trkpt>
      <trkpt lat="59.2019099928" lon="17.4286489282">
        <ele>23.2</ele>
        <time>2011-05-01T08:41:38Z</time>
      </trkpt>
      <trkpt lat="59.2019569315" lon="17.4281609338">
        <ele>23.2</ele>
        <time>2011-05-01T08:41:41Z</time>
      </trkpt>
      <trkpt lat="59.2020019423" lon="17.4276719335">
        <ele>23.2</ele>
        <time>2011-05-01T08:41:44Z</time>
      </trkpt>
      <trkpt lat="59.2020459473" lon="17.4271899741">
        <ele>22.6</ele>
        <time>2011-05-01T08:41:47Z</time>
      </trkpt>
      <trkpt lat="59.2020909581" lon="17.4267109483">
        <ele>22.6</ele>
        <time>2011-05-01T08:41:50Z</time>
      </trkpt>
      <trkpt lat="59.2021379806" lon="17.4262069445">
        <ele>21.6</ele>
        <time>2011-05-01T08:41:53Z</time>
      </trkpt>
      <trkpt lat="59.2021869309" lon="17.4256979953">
        <ele>21.6</ele>
        <time>2011-05-01T08:41:56Z</time>
      </trkpt>
      <trkpt lat="59.2022379767" lon="17.4251819216">
        <ele>21.2</ele>
        <time>2011-05-01T08:41:59Z</time>
      </trkpt>
      <trkpt lat="59.202286927" lon="17.4246739782">
        <ele>21.2</ele>
        <time>2011-05-01T08:42:02Z</time>
      </trkpt>
      <trkpt lat="59.2023299262" lon="17.4241949525">
        <ele>19.8</ele>
        <time>2011-05-01T08:42:05Z</time>
      </trkpt>
      <trkpt lat="59.202374937" lon="17.4237229675">
        <ele>20.2</ele>
        <time>2011-05-01T08:42:08Z</time>
      </trkpt>
      <trkpt lat="59.2024229653" lon="17.4232629687">
        <ele>21.2</ele>
        <time>2011-05-01T08:42:11Z</time>
      </trkpt>
      <trkpt lat="59.202462947" lon="17.4228289537">
        <ele>22.2</ele>
        <time>2011-05-01T08:42:14Z</time>
      </trkpt>
      <trkpt lat="59.202499995" lon="17.4224079307">
        <ele>23.2</ele>
        <time>2011-05-01T08:42:17Z</time>
      </trkpt>
      <trkpt lat="59.2025429942" lon="17.4219819624">
        <ele>23.6</ele>
        <time>2011-05-01T08:42:20Z</time>
      </trkpt>
      <trkpt lat="59.2025849875" lon="17.4215549883">
        <ele>23.6</ele>
        <time>2011-05-01T08:42:23Z</time>
      </trkpt>
      <trkpt lat="59.2026299983" lon="17.4210969172">
        <ele>23.2</ele>
        <time>2011-05-01T08:42:26Z</time>
      </trkpt>
      <trkpt lat="59.2026759312" lon="17.4206309672">
        <ele>24</ele>
        <time>2011-05-01T08:42:29Z</time>
      </trkpt>
      <trkpt lat="59.20270795" lon="17.4203129578">
        <ele>25</ele>
        <time>2011-05-01T08:42:31Z</time>
      </trkpt>
      <trkpt lat="59.2027529608" lon="17.4198299926">
        <ele>26</ele>
        <time>2011-05-01T08:42:34Z</time>
      </trkpt>
      <trkpt lat="59.2028009892" lon="17.4193489552">
        <ele>26.4</ele>
        <time>2011-05-01T08:42:37Z</time>
      </trkpt>
      <trkpt lat="59.202846922" lon="17.4188639782">
        <ele>25.6</ele>
        <time>2011-05-01T08:42:40Z</time>
      </trkpt>
      <trkpt lat="59.2028929386" lon="17.418374978">
        <ele>26</ele>
        <time>2011-05-01T08:42:43Z</time>
      </trkpt>
      <trkpt lat="59.2029389553" lon="17.4178839661">
        <ele>25</ele>
        <time>2011-05-01T08:42:46Z</time>
      </trkpt>
      <trkpt lat="59.2029889952" lon="17.4173779506">
        <ele>24.6</ele>
        <time>2011-05-01T08:42:49Z</time>
      </trkpt>
      <trkpt lat="59.2030399572" lon="17.4168549199">
        <ele>24</ele>
        <time>2011-05-01T08:42:52Z</time>
      </trkpt>
      <trkpt lat="59.2030899972" lon="17.4163239263">
        <ele>23.6</ele>
        <time>2011-05-01T08:42:55Z</time>
      </trkpt>
      <trkpt lat="59.203141965" lon="17.4157869816">
        <ele>23.6</ele>
        <time>2011-05-01T08:42:58Z</time>
      </trkpt>
      <trkpt lat="59.2031929269" lon="17.4152529705">
        <ele>24</ele>
        <time>2011-05-01T08:43:01Z</time>
      </trkpt>
      <trkpt lat="59.2032439727" lon="17.4147339631">
        <ele>25.6</ele>
        <time>2011-05-01T08:43:04Z</time>
      </trkpt>
      <trkpt lat="59.2032909952" lon="17.4142369162">
        <ele>26</ele>
        <time>2011-05-01T08:43:07Z</time>
      </trkpt>
      <trkpt lat="59.2033349164" lon="17.4137449823">
        <ele>26.4</ele>
        <time>2011-05-01T08:43:10Z</time>
      </trkpt>
      <trkpt lat="59.2033719644" lon="17.4132569879">
        <ele>27.4</ele>
        <time>2011-05-01T08:43:13Z</time>
      </trkpt>
      <trkpt lat="59.2033989541" lon="17.4127759505">
        <ele>28</ele>
        <time>2011-05-01T08:43:16Z</time>
      </trkpt>
      <trkpt lat="59.2034219205" lon="17.4123049714">
        <ele>28.8</ele>
        <time>2011-05-01T08:43:19Z</time>
      </trkpt>
      <trkpt lat="59.2034459766" lon="17.4118349981">
        <ele>28</ele>
        <time>2011-05-01T08:43:22Z</time>
      </trkpt>
      <trkpt lat="59.2034799233" lon="17.4113759212">
        <ele>28</ele>
        <time>2011-05-01T08:43:25Z</time>
      </trkpt>
      <trkpt lat="59.2035249341" lon="17.4109219573">
        <ele>26</ele>
        <time>2011-05-01T08:43:28Z</time>
      </trkpt>
      <trkpt lat="59.2035429552" lon="17.4107639585">
        <ele>26</ele>
        <time>2011-05-01T08:43:29Z</time>
      </trkpt>
      <trkpt lat="59.2035979405" lon="17.4102689233">
        <ele>24.6</ele>
        <time>2011-05-01T08:43:32Z</time>
      </trkpt>
      <trkpt lat="59.2036599666" lon="17.4097389355">
        <ele>24</ele>
        <time>2011-05-01T08:43:35Z</time>
      </trkpt>
      <trkpt lat="59.2037169635" lon="17.4092159886">
        <ele>24.6</ele>
        <time>2011-05-01T08:43:38Z</time>
      </trkpt>
      <trkpt lat="59.2037689313" lon="17.4087009206">
        <ele>25.6</ele>
        <time>2011-05-01T08:43:41Z</time>
      </trkpt>
      <trkpt lat="59.2038229946" lon="17.4081919715">
        <ele>25</ele>
        <time>2011-05-01T08:43:44Z</time>
      </trkpt>
      <trkpt lat="59.2038719449" lon="17.4077219982">
        <ele>27</ele>
        <time>2011-05-01T08:43:47Z</time>
      </trkpt>
      <trkpt lat="59.2038879544" lon="17.4075729679">
        <ele>27</ele>
        <time>2011-05-01T08:43:48Z</time>
      </trkpt>
      <trkpt lat="59.2039369885" lon="17.4071479216">
        <ele>28</ele>
        <time>2011-05-01T08:43:51Z</time>
      </trkpt>
      <trkpt lat="59.2039879505" lon="17.4067169242">
        <ele>28</ele>
        <time>2011-05-01T08:43:54Z</time>
      </trkpt>
      <trkpt lat="59.2040369846" lon="17.4062919617">
        <ele>29.4</ele>
        <time>2011-05-01T08:43:57Z</time>
      </trkpt>
      <trkpt lat="59.2040819954" lon="17.4058679212">
        <ele>30.4</ele>
        <time>2011-05-01T08:44:00Z</time>
      </trkpt>
      <trkpt lat="59.2041339632" lon="17.4054339901">
        <ele>30.4</ele>
        <time>2011-05-01T08:44:03Z</time>
      </trkpt>
      <trkpt lat="59.2041809857" lon="17.4050009809">
        <ele>29.8</ele>
        <time>2011-05-01T08:44:06Z</time>
      </trkpt>
      <trkpt lat="59.2042329535" lon="17.4045769405">
        <ele>29.8</ele>
        <time>2011-05-01T08:44:09Z</time>
      </trkpt>
      <trkpt lat="59.2042809818" lon="17.4041599408">
        <ele>30.8</ele>
        <time>2011-05-01T08:44:12Z</time>
      </trkpt>
      <trkpt lat="59.2043279205" lon="17.4037479702">
        <ele>31.8</ele>
        <time>2011-05-01T08:44:15Z</time>
      </trkpt>
      <trkpt lat="59.2043719254" lon="17.4033509195">
        <ele>32.8</ele>
        <time>2011-05-01T08:44:18Z</time>
      </trkpt>
      <trkpt lat="59.2044109851" lon="17.4029659387">
        <ele>32.8</ele>
        <time>2011-05-01T08:44:21Z</time>
      </trkpt>
      <trkpt lat="59.2044559959" lon="17.4025889207">
        <ele>33.6</ele>
        <time>2011-05-01T08:44:24Z</time>
      </trkpt>
      <trkpt lat="59.2044979893" lon="17.4022149201">
        <ele>34.2</ele>
        <time>2011-05-01T08:44:27Z</time>
      </trkpt>
      <trkpt lat="59.2045439221" lon="17.4018349685">
        <ele>33.6</ele>
        <time>2011-05-01T08:44:30Z</time>
      </trkpt>
      <trkpt lat="59.2045909446" lon="17.4014469702">
        <ele>34.2</ele>
        <time>2011-05-01T08:44:33Z</time>
      </trkpt>
      <trkpt lat="59.2046469357" lon="17.4010549486">
        <ele>34.6</ele>
        <time>2011-05-01T08:44:36Z</time>
      </trkpt>
      <trkpt lat="59.2047139909" lon="17.4006689619">
        <ele>34.2</ele>
        <time>2011-05-01T08:44:39Z</time>
      </trkpt>
      <trkpt lat="59.2047969718" lon="17.4002919439">
        <ele>34.6</ele>
        <time>2011-05-01T08:44:42Z</time>
      </trkpt>
      <trkpt lat="59.2048919387" lon="17.3999279179">
        <ele>34.2</ele>
        <time>2011-05-01T08:44:45Z</time>
      </trkpt>
      <trkpt lat="59.2050009873" lon="17.399561964">
        <ele>35.6</ele>
        <time>2011-05-01T08:44:48Z</time>
      </trkpt>
      <trkpt lat="59.2050709762" lon="17.3993089981">
        <ele>36</ele>
        <time>2011-05-01T08:44:50Z</time>
      </trkpt>
      <trkpt lat="59.2051689606" lon="17.3989159707">
        <ele>36</ele>
        <time>2011-05-01T08:44:53Z</time>
      </trkpt>
      <trkpt lat="59.2052519415" lon="17.3984979652">
        <ele>35.2</ele>
        <time>2011-05-01T08:44:56Z</time>
      </trkpt>
      <trkpt lat="59.2053199187" lon="17.3980589211">
        <ele>35.2</ele>
        <time>2011-05-01T08:44:59Z</time>
      </trkpt>
      <trkpt lat="59.2053759936" lon="17.3976069689">
        <ele>34.2</ele>
        <time>2011-05-01T08:45:02Z</time>
      </trkpt>
      <trkpt lat="59.2054209206" lon="17.3971439525">
        <ele>34.2</ele>
        <time>2011-05-01T08:45:05Z</time>
      </trkpt>
      <trkpt lat="59.2054639198" lon="17.3966859654">
        <ele>34.2</ele>
        <time>2011-05-01T08:45:08Z</time>
      </trkpt>
      <trkpt lat="59.2055019736" lon="17.3962489329">
        <ele>35.2</ele>
        <time>2011-05-01T08:45:11Z</time>
      </trkpt>
      <trkpt lat="59.2055349983" lon="17.3958279938">
        <ele>35.2</ele>
        <time>2011-05-01T08:45:14Z</time>
      </trkpt>
      <trkpt lat="59.2055619881" lon="17.3954169452">
        <ele>36</ele>
        <time>2011-05-01T08:45:17Z</time>
      </trkpt>
      <trkpt lat="59.2055889778" lon="17.395002963">
        <ele>37.6</ele>
        <time>2011-05-01T08:45:20Z</time>
      </trkpt>
      <trkpt lat="59.2056199908" lon="17.3946149647">
        <ele>39</ele>
        <time>2011-05-01T08:45:23Z</time>
      </trkpt>
      <trkpt lat="59.2056519259" lon="17.3942629248">
        <ele>39</ele>
        <time>2011-05-01T08:45:26Z</time>
      </trkpt>
      <trkpt lat="59.2056979425" lon="17.3938039318">
        <ele>40.8</ele>
        <time>2011-05-01T08:45:30Z</time>
      </trkpt>
      <trkpt lat="59.2057269439" lon="17.393462956">
        <ele>41.8</ele>
        <time>2011-05-01T08:45:33Z</time>
      </trkpt>
      <trkpt lat="59.2057369184" lon="17.3933519796">
        <ele>41.8</ele>
        <time>2011-05-01T08:45:34Z</time>
      </trkpt>
      <trkpt lat="59.2057639919" lon="17.3930259235">
        <ele>42.8</ele>
        <time>2011-05-01T08:45:37Z</time>
      </trkpt>
      <trkpt lat="59.2057939991" lon="17.3927119374">
        <ele>44.2</ele>
        <time>2011-05-01T08:45:40Z</time>
      </trkpt>
      <trkpt lat="59.2058299575" lon="17.3924049921">
        <ele>45.2</ele>
        <time>2011-05-01T08:45:43Z</time>
      </trkpt>
      <trkpt lat="59.205863988" lon="17.3920969572">
        <ele>46.6</ele>
        <time>2011-05-01T08:45:46Z</time>
      </trkpt>
      <trkpt lat="59.2058989406" lon="17.3917809594">
        <ele>47.6</ele>
        <time>2011-05-01T08:45:49Z</time>
      </trkpt>
      <trkpt lat="59.2059239186" lon="17.3914609384">
        <ele>48.6</ele>
        <time>2011-05-01T08:45:52Z</time>
      </trkpt>
      <trkpt lat="59.20595292" lon="17.391142929">
        <ele>49.6</ele>
        <time>2011-05-01T08:45:55Z</time>
      </trkpt>
      <trkpt lat="59.2059839331" lon="17.3908299487">
        <ele>50</ele>
        <time>2011-05-01T08:45:58Z</time>
      </trkpt>
      <trkpt lat="59.2060139403" lon="17.3905249313">
        <ele>51</ele>
        <time>2011-05-01T08:46:01Z</time>
      </trkpt>
      <trkpt lat="59.2060369905" lon="17.3902099393">
        <ele>51.4</ele>
        <time>2011-05-01T08:46:04Z</time>
      </trkpt>
      <trkpt lat="59.2060599569" lon="17.3898939416">
        <ele>52.4</ele>
        <time>2011-05-01T08:46:07Z</time>
      </trkpt>
      <trkpt lat="59.2060869467" lon="17.3895749263">
        <ele>53</ele>
        <time>2011-05-01T08:46:10Z</time>
      </trkpt>
      <trkpt lat="59.2061199713" lon="17.389236968">
        <ele>53</ele>
        <time>2011-05-01T08:46:13Z</time>
      </trkpt>
      <trkpt lat="59.2061579414" lon="17.3888879456">
        <ele>53.4</ele>
        <time>2011-05-01T08:46:16Z</time>
      </trkpt>
      <trkpt lat="59.206197923" lon="17.3885299545">
        <ele>54.4</ele>
        <time>2011-05-01T08:46:19Z</time>
      </trkpt>
      <trkpt lat="59.2062509805" lon="17.3881799262">
        <ele>54.4</ele>
        <time>2011-05-01T08:46:22Z</time>
      </trkpt>
      <trkpt lat="59.2063099891" lon="17.3878439795">
        <ele>55.4</ele>
        <time>2011-05-01T08:46:25Z</time>
      </trkpt>
      <trkpt lat="59.206373943" lon="17.3875279818">
        <ele>56.2</ele>
        <time>2011-05-01T08:46:28Z</time>
      </trkpt>
      <trkpt lat="59.2064419203" lon="17.3872239701">
        <ele>56.2</ele>
        <time>2011-05-01T08:46:31Z</time>
      </trkpt>
      <trkpt lat="59.2065099813" lon="17.3869199585">
        <ele>56.2</ele>
        <time>2011-05-01T08:46:34Z</time>
      </trkpt>
      <trkpt lat="59.2065769527" lon="17.3866219819">
        <ele>57.2</ele>
        <time>2011-05-01T08:46:37Z</time>
      </trkpt>
      <trkpt lat="59.2066149227" lon="17.3864259291">
        <ele>58.2</ele>
        <time>2011-05-01T08:46:39Z</time>
      </trkpt>
      <trkpt lat="59.206706956" lon="17.386049917">
        <ele>59.6</ele>
        <time>2011-05-01T08:46:43Z</time>
      </trkpt>
      <trkpt lat="59.2067849915" lon="17.3856669478">
        <ele>61</ele>
        <time>2011-05-01T08:46:47Z</time>
      </trkpt>
      <trkpt lat="59.206832936" lon="17.3853689712">
        <ele>61.6</ele>
        <time>2011-05-01T08:46:50Z</time>
      </trkpt>
      <trkpt lat="59.2068669666" lon="17.3850609362">
        <ele>62</ele>
        <time>2011-05-01T08:46:53Z</time>
      </trkpt>
      <trkpt lat="59.2068929505" lon="17.384734964">
        <ele>61.6</ele>
        <time>2011-05-01T08:46:56Z</time>
      </trkpt>
      <trkpt lat="59.206913989" lon="17.384388959">
        <ele>61.6</ele>
        <time>2011-05-01T08:46:59Z</time>
      </trkpt>
      <trkpt lat="59.2069359496" lon="17.3840209935">
        <ele>61</ele>
        <time>2011-05-01T08:47:02Z</time>
      </trkpt>
      <trkpt lat="59.2069559824" lon="17.3836369347">
        <ele>61</ele>
        <time>2011-05-01T08:47:05Z</time>
      </trkpt>
      <trkpt lat="59.2069829721" lon="17.3832309991">
        <ele>61</ele>
        <time>2011-05-01T08:47:08Z</time>
      </trkpt>
      <trkpt lat="59.2070159968" lon="17.3828069586">
        <ele>61</ele>
        <time>2011-05-01T08:47:11Z</time>
      </trkpt>
      <trkpt lat="59.2070679646" lon="17.3823829181">
        <ele>60.2</ele>
        <time>2011-05-01T08:47:14Z</time>
      </trkpt>
      <trkpt lat="59.2071459163" lon="17.3819609731">
        <ele>60.2</ele>
        <time>2011-05-01T08:47:17Z</time>
      </trkpt>
      <trkpt lat="59.2072579823" lon="17.3815449793">
        <ele>59.2</ele>
        <time>2011-05-01T08:47:20Z</time>
      </trkpt>
      <trkpt lat="59.2073999718" lon="17.3811329249">
        <ele>58.2</ele>
        <time>2011-05-01T08:47:23Z</time>
      </trkpt>
      <trkpt lat="59.2075629998" lon="17.3807469383">
        <ele>57.8</ele>
        <time>2011-05-01T08:47:26Z</time>
      </trkpt>
      <trkpt lat="59.2077029776" lon="17.3803429306">
        <ele>58.2</ele>
        <time>2011-05-01T08:47:29Z</time>
      </trkpt>
      <trkpt lat="59.2078049853" lon="17.3799359892">
        <ele>58.6</ele>
        <time>2011-05-01T08:47:32Z</time>
      </trkpt>
      <trkpt lat="59.2078769859" lon="17.3795359209">
        <ele>58.2</ele>
        <time>2011-05-01T08:47:35Z</time>
      </trkpt>
      <trkpt lat="59.2079209909" lon="17.3791269679">
        <ele>59.2</ele>
        <time>2011-05-01T08:47:38Z</time>
      </trkpt>
      <trkpt lat="59.2079319712" lon="17.378717931">
        <ele>59.2</ele>
        <time>2011-05-01T08:47:41Z</time>
      </trkpt>
      <trkpt lat="59.2079159617" lon="17.3783049546">
        <ele>59.2</ele>
        <time>2011-05-01T08:47:44Z</time>
      </trkpt>
      <trkpt lat="59.2078769859" lon="17.3779019527">
        <ele>59.6</ele>
        <time>2011-05-01T08:47:47Z</time>
      </trkpt>
      <trkpt lat="59.207807919" lon="17.377497945">
        <ele>59.6</ele>
        <time>2011-05-01T08:47:50Z</time>
      </trkpt>
      <trkpt lat="59.2077359185" lon="17.3770889919">
        <ele>59.6</ele>
        <time>2011-05-01T08:47:53Z</time>
      </trkpt>
      <trkpt lat="59.2076589726" lon="17.3766789492">
        <ele>59.6</ele>
        <time>2011-05-01T08:47:56Z</time>
      </trkpt>
      <trkpt lat="59.2075779196" lon="17.3762629554">
        <ele>59.6</ele>
        <time>2011-05-01T08:47:59Z</time>
      </trkpt>
      <trkpt lat="59.2074989621" lon="17.3758449499">
        <ele>59.6</ele>
        <time>2011-05-01T08:48:02Z</time>
      </trkpt>
      <trkpt lat="59.2074209265" lon="17.3754329793">
        <ele>59.2</ele>
        <time>2011-05-01T08:48:05Z</time>
      </trkpt>
      <trkpt lat="59.207335934" lon="17.3750259541">
        <ele>59.2</ele>
        <time>2011-05-01T08:48:08Z</time>
      </trkpt>
      <trkpt lat="59.2072559707" lon="17.3746229522">
        <ele>59.6</ele>
        <time>2011-05-01T08:48:11Z</time>
      </trkpt>
      <trkpt lat="59.207178941" lon="17.3742419947">
        <ele>61</ele>
        <time>2011-05-01T08:48:14Z</time>
      </trkpt>
      <trkpt lat="59.2071059346" lon="17.3738509789">
        <ele>61.6</ele>
        <time>2011-05-01T08:48:17Z</time>
      </trkpt>
      <trkpt lat="59.2070359457" lon="17.3734739609">
        <ele>62</ele>
        <time>2011-05-01T08:48:20Z</time>
      </trkpt>
      <trkpt lat="59.2069739196" lon="17.3730939254">
        <ele>63</ele>
        <time>2011-05-01T08:48:23Z</time>
      </trkpt>
      <trkpt lat="59.206913989" lon="17.3727129679">
        <ele>63.4</ele>
        <time>2011-05-01T08:48:26Z</time>
      </trkpt>
      <trkpt lat="59.2068629432" lon="17.3723379616">
        <ele>64.4</ele>
        <time>2011-05-01T08:48:29Z</time>
      </trkpt>
      <trkpt lat="59.2068239674" lon="17.3719599377">
        <ele>65.4</ele>
        <time>2011-05-01T08:48:32Z</time>
      </trkpt>
      <trkpt lat="59.206794966" lon="17.3715899605">
        <ele>66.4</ele>
        <time>2011-05-01T08:48:35Z</time>
      </trkpt>
      <trkpt lat="59.2067819741" lon="17.3712259345">
        <ele>66.8</ele>
        <time>2011-05-01T08:48:38Z</time>
      </trkpt>
      <trkpt lat="59.2067819741" lon="17.3709879722">
        <ele>67.4</ele>
        <time>2011-05-01T08:48:40Z</time>
      </trkpt>
      <trkpt lat="59.2067869194" lon="17.3706329986">
        <ele>68.2</ele>
        <time>2011-05-01T08:48:43Z</time>
      </trkpt>
      <trkpt lat="59.2068119813" lon="17.3702769354">
        <ele>68.8</ele>
        <time>2011-05-01T08:48:46Z</time>
      </trkpt>
      <trkpt lat="59.2068489455" lon="17.3698799685">
        <ele>67.4</ele>
        <time>2011-05-01T08:48:49Z</time>
      </trkpt>
      <trkpt lat="59.2068909388" lon="17.3694209754">
        <ele>65.4</ele>
        <time>2011-05-01T08:48:52Z</time>
      </trkpt>
      <trkpt lat="59.2069079541" lon="17.3692529183">
        <ele>65.8</ele>
        <time>2011-05-01T08:48:53Z</time>
      </trkpt>
      <trkpt lat="59.2069569882" lon="17.3687139619">
        <ele>62.6</ele>
        <time>2011-05-01T08:48:56Z</time>
      </trkpt>
      <trkpt lat="59.207014991" lon="17.3681459203">
        <ele>62.6</ele>
        <time>2011-05-01T08:48:59Z</time>
      </trkpt>
      <trkpt lat="59.2070729937" lon="17.3675729334">
        <ele>62.6</ele>
        <time>2011-05-01T08:49:02Z</time>
      </trkpt>
      <trkpt lat="59.2071319185" lon="17.3670059815">
        <ele>61.6</ele>
        <time>2011-05-01T08:49:05Z</time>
      </trkpt>
      <trkpt lat="59.2072259635" lon="17.3660749197">
        <ele>62.6</ele>
        <time>2011-05-01T08:49:09Z</time>
      </trkpt>
      <trkpt lat="59.2073019873" lon="17.3653509747">
        <ele>62.6</ele>
        <time>2011-05-01T08:49:13Z</time>
      </trkpt>
      <trkpt lat="59.2073579784" lon="17.3648269381">
        <ele>62</ele>
        <time>2011-05-01T08:49:16Z</time>
      </trkpt>
      <trkpt lat="59.2074059229" lon="17.3642879818">
        <ele>62.6</ele>
        <time>2011-05-01T08:49:19Z</time>
      </trkpt>
      <trkpt lat="59.2074589804" lon="17.3637629393">
        <ele>62.6</ele>
        <time>2011-05-01T08:49:22Z</time>
      </trkpt>
      <trkpt lat="59.2075019795" lon="17.3632659763">
        <ele>63.4</ele>
        <time>2011-05-01T08:49:25Z</time>
      </trkpt>
      <trkpt lat="59.2075409554" lon="17.3628049716">
        <ele>64</ele>
        <time>2011-05-01T08:49:28Z</time>
      </trkpt>
      <trkpt lat="59.2075809371" lon="17.3623639997">
        <ele>64.4</ele>
        <time>2011-05-01T08:49:31Z</time>
      </trkpt>
      <trkpt lat="59.2076269537" lon="17.3619079404">
        <ele>63.4</ele>
        <time>2011-05-01T08:49:34Z</time>
      </trkpt>
      <trkpt lat="59.207674982" lon="17.3614249751">
        <ele>62.6</ele>
        <time>2011-05-01T08:49:37Z</time>
      </trkpt>
      <trkpt lat="59.2077329848" lon="17.3609049618">
        <ele>61.6</ele>
        <time>2011-05-01T08:49:40Z</time>
      </trkpt>
      <trkpt lat="59.2078179773" lon="17.3603669275">
        <ele>60.2</ele>
        <time>2011-05-01T08:49:43Z</time>
      </trkpt>
      <trkpt lat="59.2079289537" lon="17.3598179966">
        <ele>56.8</ele>
        <time>2011-05-01T08:49:46Z</time>
      </trkpt>
      <trkpt lat="59.2080479767" lon="17.3592549842">
        <ele>53.8</ele>
        <time>2011-05-01T08:49:49Z</time>
      </trkpt>
      <trkpt lat="59.2081699334" lon="17.3586889543">
        <ele>53.4</ele>
        <time>2011-05-01T08:49:52Z</time>
      </trkpt>
      <trkpt lat="59.2082899623" lon="17.3581129499">
        <ele>52</ele>
        <time>2011-05-01T08:49:55Z</time>
      </trkpt>
      <trkpt lat="59.2084079795" lon="17.3575309943">
        <ele>51.4</ele>
        <time>2011-05-01T08:49:58Z</time>
      </trkpt>
      <trkpt lat="59.2085099872" lon="17.3569179419">
        <ele>51</ele>
        <time>2011-05-01T08:50:01Z</time>
      </trkpt>
      <trkpt lat="59.2086099833" lon="17.356319977">
        <ele>51.4</ele>
        <time>2011-05-01T08:50:04Z</time>
      </trkpt>
      <trkpt lat="59.2086969875" lon="17.3557439726">
        <ele>50</ele>
        <time>2011-05-01T08:50:07Z</time>
      </trkpt>
      <trkpt lat="59.2087729275" lon="17.355188923">
        <ele>50.6</ele>
        <time>2011-05-01T08:50:10Z</time>
      </trkpt>
      <trkpt lat="59.2088439222" lon="17.3546439316">
        <ele>51</ele>
        <time>2011-05-01T08:50:13Z</time>
      </trkpt>
      <trkpt lat="59.2089059483" lon="17.3540919833">
        <ele>49.6</ele>
        <time>2011-05-01T08:50:16Z</time>
      </trkpt>
      <trkpt lat="59.2089559883" lon="17.3535229359">
        <ele>49</ele>
        <time>2011-05-01T08:50:19Z</time>
      </trkpt>
      <trkpt lat="59.2089889292" lon="17.352936957">
        <ele>49</ele>
        <time>2011-05-01T08:50:22Z</time>
      </trkpt>
      <trkpt lat="59.2090019211" lon="17.3523599468">
        <ele>49</ele>
        <time>2011-05-01T08:50:25Z</time>
      </trkpt>
      <trkpt lat="59.208982978" lon="17.351817973">
        <ele>49</ele>
        <time>2011-05-01T08:50:28Z</time>
      </trkpt>
      <trkpt lat="59.2089529708" lon="17.3513149749">
        <ele>50</ele>
        <time>2011-05-01T08:50:31Z</time>
      </trkpt>
      <trkpt lat="59.2089429963" lon="17.3508289922">
        <ele>51.4</ele>
        <time>2011-05-01T08:50:34Z</time>
      </trkpt>
      <trkpt lat="59.2089409847" lon="17.3506709933">
        <ele>51</ele>
        <time>2011-05-01T08:50:35Z</time>
      </trkpt>
      <trkpt lat="59.2089249752" lon="17.3501999304">
        <ele>51</ele>
        <time>2011-05-01T08:50:38Z</time>
      </trkpt>
      <trkpt lat="59.2088999972" lon="17.3497339804">
        <ele>51.4</ele>
        <time>2011-05-01T08:50:41Z</time>
      </trkpt>
      <trkpt lat="59.2088689841" lon="17.3492619954">
        <ele>51.4</ele>
        <time>2011-05-01T08:50:44Z</time>
      </trkpt>
      <trkpt lat="59.2088389769" lon="17.3487909324">
        <ele>52.4</ele>
        <time>2011-05-01T08:50:47Z</time>
      </trkpt>
      <trkpt lat="59.2088179383" lon="17.3483189475">
        <ele>53</ele>
        <time>2011-05-01T08:50:50Z</time>
      </trkpt>
      <trkpt lat="59.2087959778" lon="17.3478639778">
        <ele>53.8</ele>
        <time>2011-05-01T08:50:53Z</time>
      </trkpt>
      <trkpt lat="59.2087719217" lon="17.3474389315">
        <ele>54.4</ele>
        <time>2011-05-01T08:50:56Z</time>
      </trkpt>
      <trkpt lat="59.2087559961" lon="17.3470249493">
        <ele>54.8</ele>
        <time>2011-05-01T08:50:59Z</time>
      </trkpt>
      <trkpt lat="59.20873194" lon="17.3466099612">
        <ele>55.4</ele>
        <time>2011-05-01T08:51:02Z</time>
      </trkpt>
      <trkpt lat="59.2087059561" lon="17.3462059535">
        <ele>55.8</ele>
        <time>2011-05-01T08:51:05Z</time>
      </trkpt>
      <trkpt lat="59.2086849175" lon="17.345818961">
        <ele>56.8</ele>
        <time>2011-05-01T08:51:08Z</time>
      </trkpt>
      <trkpt lat="59.2086649686" lon="17.3454349861">
        <ele>57.8</ele>
        <time>2011-05-01T08:51:11Z</time>
      </trkpt>
      <trkpt lat="59.2086399905" lon="17.3450509273">
        <ele>58.6</ele>
        <time>2011-05-01T08:51:14Z</time>
      </trkpt>
      <trkpt lat="59.208618952" lon="17.3446789384">
        <ele>59.2</ele>
        <time>2011-05-01T08:51:17Z</time>
      </trkpt>
      <trkpt lat="59.2085959855" lon="17.344309967">
        <ele>59.6</ele>
        <time>2011-05-01T08:51:20Z</time>
      </trkpt>
      <trkpt lat="59.2085739411" lon="17.3439199571">
        <ele>60.6</ele>
        <time>2011-05-01T08:51:23Z</time>
      </trkpt>
      <trkpt lat="59.2085529864" lon="17.3435279354">
        <ele>60.6</ele>
        <time>2011-05-01T08:51:26Z</time>
      </trkpt>
      <trkpt lat="59.2085279245" lon="17.3431189824">
        <ele>60.2</ele>
        <time>2011-05-01T08:51:29Z</time>
      </trkpt>
      <trkpt lat="59.2085059639" lon="17.3427089397">
        <ele>60.2</ele>
        <time>2011-05-01T08:51:32Z</time>
      </trkpt>
      <trkpt lat="59.2084819917" lon="17.3422709852">
        <ele>60.2</ele>
        <time>2011-05-01T08:51:35Z</time>
      </trkpt>
      <trkpt lat="59.2084719334" lon="17.341832947">
        <ele>60.2</ele>
        <time>2011-05-01T08:51:38Z</time>
      </trkpt>
      <trkpt lat="59.2084779684" lon="17.3414019495">
        <ele>60.2</ele>
        <time>2011-05-01T08:51:41Z</time>
      </trkpt>
      <trkpt lat="59.2084979173" lon="17.3409609776">
        <ele>59.6</ele>
        <time>2011-05-01T08:51:44Z</time>
      </trkpt>
      <trkpt lat="59.2085359711" lon="17.3405149765">
        <ele>60.2</ele>
        <time>2011-05-01T08:51:47Z</time>
      </trkpt>
      <trkpt lat="59.2085919622" lon="17.3400649521">
        <ele>59.6</ele>
        <time>2011-05-01T08:51:50Z</time>
      </trkpt>
      <trkpt lat="59.2086679861" lon="17.3396209627">
        <ele>59.6</ele>
        <time>2011-05-01T08:51:53Z</time>
      </trkpt>
      <trkpt lat="59.2087579239" lon="17.3391829245">
        <ele>60.6</ele>
        <time>2011-05-01T08:51:56Z</time>
      </trkpt>
      <trkpt lat="59.2088659666" lon="17.3387609795">
        <ele>60.6</ele>
        <time>2011-05-01T08:51:59Z</time>
      </trkpt>
      <trkpt lat="59.2089889292" lon="17.3383609951">
        <ele>60.6</ele>
        <time>2011-05-01T08:52:02Z</time>
      </trkpt>
      <trkpt lat="59.2091229558" lon="17.3379889224">
        <ele>60.6</ele>
        <time>2011-05-01T08:52:05Z</time>
      </trkpt>
      <trkpt lat="59.2092699744" lon="17.3376409896">
        <ele>60.6</ele>
        <time>2011-05-01T08:52:08Z</time>
      </trkpt>
      <trkpt lat="59.2094319966" lon="17.3373219743">
        <ele>60.6</ele>
        <time>2011-05-01T08:52:11Z</time>
      </trkpt>
      <trkpt lat="59.2096019816" lon="17.3370249197">
        <ele>60.6</ele>
        <time>2011-05-01T08:52:14Z</time>
      </trkpt>
      <trkpt lat="59.2097769957" lon="17.3367429525">
        <ele>60.6</ele>
        <time>2011-05-01T08:52:17Z</time>
      </trkpt>
      <trkpt lat="59.209957961" lon="17.3364519328">
        <ele>60.2</ele>
        <time>2011-05-01T08:52:20Z</time>
      </trkpt>
      <trkpt lat="59.2101459671" lon="17.3361449875">
        <ele>59.6</ele>
        <time>2011-05-01T08:52:23Z</time>
      </trkpt>
      <trkpt lat="59.210328944" lon="17.3358249664">
        <ele>57.2</ele>
        <time>2011-05-01T08:52:26Z</time>
      </trkpt>
      <trkpt lat="59.2105139326" lon="17.3354609404">
        <ele>54.8</ele>
        <time>2011-05-01T08:52:29Z</time>
      </trkpt>
      <trkpt lat="59.2106929701" lon="17.3350379895">
        <ele>55.4</ele>
        <time>2011-05-01T08:52:32Z</time>
      </trkpt>
      <trkpt lat="59.2108599376" lon="17.3345499951">
        <ele>53.8</ele>
        <time>2011-05-01T08:52:35Z</time>
      </trkpt>
      <trkpt lat="59.211014919" lon="17.3339959513">
        <ele>51</ele>
        <time>2011-05-01T08:52:38Z</time>
      </trkpt>
      <trkpt lat="59.211102929" lon="17.3335949611">
        <ele>49.6</ele>
        <time>2011-05-01T08:52:40Z</time>
      </trkpt>
      <trkpt lat="59.2111759353" lon="17.3331749439">
        <ele>49</ele>
        <time>2011-05-01T08:52:42Z</time>
      </trkpt>
      <trkpt lat="59.2112379614" lon="17.3327479698">
        <ele>49</ele>
        <time>2011-05-01T08:52:44Z</time>
      </trkpt>
      <trkpt lat="59.2113269772" lon="17.3321199976">
        <ele>47.2</ele>
        <time>2011-05-01T08:52:47Z</time>
      </trkpt>
      <trkpt lat="59.2113559786" lon="17.3319149762">
        <ele>47.2</ele>
        <time>2011-05-01T08:52:48Z</time>
      </trkpt>
      <trkpt lat="59.2114369478" lon="17.3313269857">
        <ele>47.6</ele>
        <time>2011-05-01T08:52:51Z</time>
      </trkpt>
      <trkpt lat="59.2115189228" lon="17.3307709303">
        <ele>47.6</ele>
        <time>2011-05-01T08:52:54Z</time>
      </trkpt>
      <trkpt lat="59.2116289772" lon="17.3302399367">
        <ele>49.6</ele>
        <time>2011-05-01T08:52:57Z</time>
      </trkpt>
      <trkpt lat="59.2117589805" lon="17.3297399562">
        <ele>49</ele>
        <time>2011-05-01T08:53:00Z</time>
      </trkpt>
      <trkpt lat="59.2118989583" lon="17.3292739224">
        <ele>47.6</ele>
        <time>2011-05-01T08:53:03Z</time>
      </trkpt>
      <trkpt lat="59.2120469827" lon="17.3288189527">
        <ele>47.6</ele>
        <time>2011-05-01T08:53:06Z</time>
      </trkpt>
      <trkpt lat="59.2121979408" lon="17.3283679225">
        <ele>48.2</ele>
        <time>2011-05-01T08:53:09Z</time>
      </trkpt>
      <trkpt lat="59.212346971" lon="17.3279219214">
        <ele>47.6</ele>
        <time>2011-05-01T08:53:12Z</time>
      </trkpt>
      <trkpt lat="59.2124969233" lon="17.3274739925">
        <ele>48.6</ele>
        <time>2011-05-01T08:53:15Z</time>
      </trkpt>
      <trkpt lat="59.2125469632" lon="17.3273219448">
        <ele>48.6</ele>
        <time>2011-05-01T08:53:16Z</time>
      </trkpt>
      <trkpt lat="59.212699933" lon="17.3268659692">
        <ele>48.6</ele>
        <time>2011-05-01T08:53:19Z</time>
      </trkpt>
      <trkpt lat="59.2128549982" lon="17.3264069762">
        <ele>48.2</ele>
        <time>2011-05-01T08:53:22Z</time>
      </trkpt>
      <trkpt lat="59.2130109854" lon="17.3259459715">
        <ele>47.2</ele>
        <time>2011-05-01T08:53:25Z</time>
      </trkpt>
      <trkpt lat="59.2131659668" lon="17.3254879843">
        <ele>46.6</ele>
        <time>2011-05-01T08:53:28Z</time>
      </trkpt>
      <trkpt lat="59.2133169249" lon="17.3250289913">
        <ele>45.6</ele>
        <time>2011-05-01T08:53:31Z</time>
      </trkpt>
      <trkpt lat="59.2134759296" lon="17.3245839961">
        <ele>46.2</ele>
        <time>2011-05-01T08:53:34Z</time>
      </trkpt>
      <trkpt lat="59.213654967" lon="17.3241779767">
        <ele>45.6</ele>
        <time>2011-05-01T08:53:37Z</time>
      </trkpt>
      <trkpt lat="59.2138419673" lon="17.3237999529">
        <ele>45.2</ele>
        <time>2011-05-01T08:53:40Z</time>
      </trkpt>
      <trkpt lat="59.2140329909" lon="17.3234549537">
        <ele>46.2</ele>
        <time>2011-05-01T08:53:43Z</time>
      </trkpt>
      <trkpt lat="59.214221919" lon="17.3231399618">
        <ele>47.2</ele>
        <time>2011-05-01T08:53:46Z</time>
      </trkpt>
      <trkpt lat="59.2144089192" lon="17.3228459246">
        <ele>47.6</ele>
        <time>2011-05-01T08:53:49Z</time>
      </trkpt>
      <trkpt lat="59.2145889625" lon="17.3225589283">
        <ele>49</ele>
        <time>2011-05-01T08:53:52Z</time>
      </trkpt>
      <trkpt lat="59.214761965" lon="17.3222749494">
        <ele>50</ele>
        <time>2011-05-01T08:53:55Z</time>
      </trkpt>
      <trkpt lat="59.2149299383" lon="17.3219929822">
        <ele>51</ele>
        <time>2011-05-01T08:53:58Z</time>
      </trkpt>
      <trkpt lat="59.2150899488" lon="17.3216949217">
        <ele>51.4</ele>
        <time>2011-05-01T08:54:01Z</time>
      </trkpt>
      <trkpt lat="59.2152419966" lon="17.3213819414">
        <ele>51.4</ele>
        <time>2011-05-01T08:54:04Z</time>
      </trkpt>
      <trkpt lat="59.2153829802" lon="17.3210369423">
        <ele>52</ele>
        <time>2011-05-01T08:54:07Z</time>
      </trkpt>
      <trkpt lat="59.2155129835" lon="17.3206709884">
        <ele>52.4</ele>
        <time>2011-05-01T08:54:10Z</time>
      </trkpt>
      <trkpt lat="59.2156279832" lon="17.3202869296">
        <ele>52</ele>
        <time>2011-05-01T08:54:13Z</time>
      </trkpt>
      <trkpt lat="59.2157319188" lon="17.319880994">
        <ele>51.4</ele>
        <time>2011-05-01T08:54:16Z</time>
      </trkpt>
      <trkpt lat="59.2158279754" lon="17.3194759805">
        <ele>52</ele>
        <time>2011-05-01T08:54:19Z</time>
      </trkpt>
      <trkpt lat="59.2159169912" lon="17.3190499283">
        <ele>52</ele>
        <time>2011-05-01T08:54:22Z</time>
      </trkpt>
      <trkpt lat="59.2160029896" lon="17.3186229542">
        <ele>53</ele>
        <time>2011-05-01T08:54:25Z</time>
      </trkpt>
      <trkpt lat="59.2160559632" lon="17.3183389753">
        <ele>53.4</ele>
        <time>2011-05-01T08:54:27Z</time>
      </trkpt>
      <trkpt lat="59.2161319871" lon="17.3179259989">
        <ele>54.4</ele>
        <time>2011-05-01T08:54:30Z</time>
      </trkpt>
      <trkpt lat="59.2162059993" lon="17.3175379168">
        <ele>55.4</ele>
        <time>2011-05-01T08:54:33Z</time>
      </trkpt>
      <trkpt lat="59.2162759881" lon="17.3171649221">
        <ele>56.8</ele>
        <time>2011-05-01T08:54:36Z</time>
      </trkpt>
      <trkpt lat="59.2162999604" lon="17.3170439713">
        <ele>56.8</ele>
        <time>2011-05-01T08:54:37Z</time>
      </trkpt>
      <trkpt lat="59.2163649201" lon="17.3166959547">
        <ele>57.8</ele>
        <time>2011-05-01T08:54:40Z</time>
      </trkpt>
      <trkpt lat="59.2164289579" lon="17.3163449205">
        <ele>58.2</ele>
        <time>2011-05-01T08:54:43Z</time>
      </trkpt>
      <trkpt lat="59.2164929956" lon="17.3159919586">
        <ele>58.6</ele>
        <time>2011-05-01T08:54:46Z</time>
      </trkpt>
      <trkpt lat="59.2165579554" lon="17.3156389967">
        <ele>59.2</ele>
        <time>2011-05-01T08:54:49Z</time>
      </trkpt>
      <trkpt lat="59.2166229989" lon="17.3152819276">
        <ele>59.6</ele>
        <time>2011-05-01T08:54:52Z</time>
      </trkpt>
      <trkpt lat="59.216685947" lon="17.3149109446">
        <ele>59.6</ele>
        <time>2011-05-01T08:54:55Z</time>
      </trkpt>
      <trkpt lat="59.2167479731" lon="17.3145179171">
        <ele>59.2</ele>
        <time>2011-05-01T08:54:58Z</time>
      </trkpt>
      <trkpt lat="59.2168049701" lon="17.3140979838">
        <ele>58.6</ele>
        <time>2011-05-01T08:55:01Z</time>
      </trkpt>
      <trkpt lat="59.2168629728" lon="17.3136349674">
        <ele>58.2</ele>
        <time>2011-05-01T08:55:04Z</time>
      </trkpt>
      <trkpt lat="59.2169199698" lon="17.3131399322">
        <ele>57.2</ele>
        <time>2011-05-01T08:55:07Z</time>
      </trkpt>
      <trkpt lat="59.2169549223" lon="17.3127919994">
        <ele>56.8</ele>
        <time>2011-05-01T08:55:09Z</time>
      </trkpt>
      <trkpt lat="59.2170019448" lon="17.3122599162">
        <ele>55.4</ele>
        <time>2011-05-01T08:55:12Z</time>
      </trkpt>
      <trkpt lat="59.2170489673" lon="17.311725989">
        <ele>54.8</ele>
        <time>2011-05-01T08:55:15Z</time>
      </trkpt>
      <trkpt lat="59.2170959897" lon="17.3111899663">
        <ele>53.8</ele>
        <time>2011-05-01T08:55:18Z</time>
      </trkpt>
      <trkpt lat="59.2171459459" lon="17.3106559552">
        <ele>53.8</ele>
        <time>2011-05-01T08:55:21Z</time>
      </trkpt>
      <trkpt lat="59.2171919625" lon="17.3101279791">
        <ele>53.8</ele>
        <time>2011-05-01T08:55:24Z</time>
      </trkpt>
      <trkpt lat="59.2172339559" lon="17.3096029367">
        <ele>53.4</ele>
        <time>2011-05-01T08:55:27Z</time>
      </trkpt>
      <trkpt lat="59.2172779609" lon="17.3090749606">
        <ele>53.4</ele>
        <time>2011-05-01T08:55:30Z</time>
      </trkpt>
      <trkpt lat="59.2173199542" lon="17.3085359205">
        <ele>53.4</ele>
        <time>2011-05-01T08:55:33Z</time>
      </trkpt>
      <trkpt lat="59.2173419986" lon="17.3079729918">
        <ele>53.4</ele>
        <time>2011-05-01T08:55:36Z</time>
      </trkpt>
      <trkpt lat="59.2173759453" lon="17.3074199539">
        <ele>52</ele>
        <time>2011-05-01T08:55:39Z</time>
      </trkpt>
      <trkpt lat="59.2174239736" lon="17.3068919778">
        <ele>52</ele>
        <time>2011-05-01T08:55:42Z</time>
      </trkpt>
      <trkpt lat="59.2174659669" lon="17.3063499201">
        <ele>51</ele>
        <time>2011-05-01T08:55:45Z</time>
      </trkpt>
      <trkpt lat="59.2175089661" lon="17.3058079462">
        <ele>50.6</ele>
        <time>2011-05-01T08:55:48Z</time>
      </trkpt>
      <trkpt lat="59.217547942" lon="17.3052639607">
        <ele>49.6</ele>
        <time>2011-05-01T08:55:51Z</time>
      </trkpt>
      <trkpt lat="59.2175989877" lon="17.3046979308">
        <ele>49</ele>
        <time>2011-05-01T08:55:54Z</time>
      </trkpt>
      <trkpt lat="59.2176629417" lon="17.3041229323">
        <ele>49</ele>
        <time>2011-05-01T08:55:57Z</time>
      </trkpt>
      <trkpt lat="59.2177559808" lon="17.3035719898">
        <ele>49.6</ele>
        <time>2011-05-01T08:56:00Z</time>
      </trkpt>
      <trkpt lat="59.217880955" lon="17.303061951">
        <ele>48.2</ele>
        <time>2011-05-01T08:56:03Z</time>
      </trkpt>
      <trkpt lat="59.2179779336" lon="17.3027449474">
        <ele>47.2</ele>
        <time>2011-05-01T08:56:05Z</time>
      </trkpt>
      <trkpt lat="59.2181399558" lon="17.3022969346">
        <ele>49</ele>
        <time>2011-05-01T08:56:08Z</time>
      </trkpt>
      <trkpt lat="59.2183179874" lon="17.3018849641">
        <ele>48.6</ele>
        <time>2011-05-01T08:56:11Z</time>
      </trkpt>
      <trkpt lat="59.218502976" lon="17.3015059344">
        <ele>48.2</ele>
        <time>2011-05-01T08:56:14Z</time>
      </trkpt>
      <trkpt lat="59.2186939996" lon="17.3011399806">
        <ele>49</ele>
        <time>2011-05-01T08:56:17Z</time>
      </trkpt>
      <trkpt lat="59.2188789882" lon="17.3007719312">
        <ele>48.2</ele>
        <time>2011-05-01T08:56:20Z</time>
      </trkpt>
      <trkpt lat="59.2190549243" lon="17.300388962">
        <ele>48.2</ele>
        <time>2011-05-01T08:56:23Z</time>
      </trkpt>
      <trkpt lat="59.2192179523" lon="17.2999689449">
        <ele>46.6</ele>
        <time>2011-05-01T08:56:26Z</time>
      </trkpt>
      <trkpt lat="59.2193609476" lon="17.2995079402">
        <ele>45.6</ele>
        <time>2011-05-01T08:56:29Z</time>
      </trkpt>
      <trkpt lat="59.2194809765" lon="17.2990099713">
        <ele>46.2</ele>
        <time>2011-05-01T08:56:32Z</time>
      </trkpt>
      <trkpt lat="59.2195759434" lon="17.2984829172">
        <ele>45.2</ele>
        <time>2011-05-01T08:56:35Z</time>
      </trkpt>
      <trkpt lat="59.2196419928" lon="17.2979309689">
        <ele>44.8</ele>
        <time>2011-05-01T08:56:38Z</time>
      </trkpt>
      <trkpt lat="59.2196769454" lon="17.2973659448">
        <ele>44.2</ele>
        <time>2011-05-01T08:56:41Z</time>
      </trkpt>
      <trkpt lat="59.2196769454" lon="17.2968029324">
        <ele>43.8</ele>
        <time>2011-05-01T08:56:44Z</time>
      </trkpt>
      <trkpt lat="59.2196509615" lon="17.296238998">
        <ele>42.8</ele>
        <time>2011-05-01T08:56:47Z</time>
      </trkpt>
      <trkpt lat="59.2195939645" lon="17.2956749797">
        <ele>42.4</ele>
        <time>2011-05-01T08:56:50Z</time>
      </trkpt>
      <trkpt lat="59.2194979917" lon="17.2951569781">
        <ele>41.8</ele>
        <time>2011-05-01T08:56:53Z</time>
      </trkpt>
      <trkpt lat="59.2193559185" lon="17.2947339434">
        <ele>41.8</ele>
        <time>2011-05-01T08:56:56Z</time>
      </trkpt>
      <trkpt lat="59.2192419246" lon="17.2941879462">
        <ele>41.8</ele>
        <time>2011-05-01T08:56:59Z</time>
      </trkpt>
      <trkpt lat="59.2190679163" lon="17.2936739679">
        <ele>41.8</ele>
        <time>2011-05-01T08:57:02Z</time>
      </trkpt>
      <trkpt lat="59.2189269327" lon="17.2931719758">
        <ele>42.4</ele>
        <time>2011-05-01T08:57:05Z</time>
      </trkpt>
      <trkpt lat="59.2188039701" lon="17.292641988">
        <ele>42.8</ele>
        <time>2011-05-01T08:57:08Z</time>
      </trkpt>
      <trkpt lat="59.218703974" lon="17.2921209689">
        <ele>43.8</ele>
        <time>2011-05-01T08:57:11Z</time>
      </trkpt>
      <trkpt lat="59.2186389305" lon="17.2916079964">
        <ele>43.8</ele>
        <time>2011-05-01T08:57:14Z</time>
      </trkpt>
      <trkpt lat="59.2186039779" lon="17.291101981">
        <ele>43.8</ele>
        <time>2011-05-01T08:57:17Z</time>
      </trkpt>
      <trkpt lat="59.2185989488" lon="17.2906039283">
        <ele>45.2</ele>
        <time>2011-05-01T08:57:20Z</time>
      </trkpt>
      <trkpt lat="59.2186149582" lon="17.2900999244">
        <ele>45.6</ele>
        <time>2011-05-01T08:57:23Z</time>
      </trkpt>
      <trkpt lat="59.2186509166" lon="17.2896189708">
        <ele>46.2</ele>
        <time>2011-05-01T08:57:26Z</time>
      </trkpt>
      <trkpt lat="59.2187129427" lon="17.289152937">
        <ele>46.6</ele>
        <time>2011-05-01T08:57:29Z</time>
      </trkpt>
      <trkpt lat="59.2187949177" lon="17.2886949498">
        <ele>47.2</ele>
        <time>2011-05-01T08:57:32Z</time>
      </trkpt>
      <trkpt lat="59.218873959" lon="17.2882459313">
        <ele>47.2</ele>
        <time>2011-05-01T08:57:35Z</time>
      </trkpt>
      <trkpt lat="59.2189579457" lon="17.2878039535">
        <ele>46.2</ele>
        <time>2011-05-01T08:57:38Z</time>
      </trkpt>
      <trkpt lat="59.2190369871" lon="17.2873539291">
        <ele>45.6</ele>
        <time>2011-05-01T08:57:41Z</time>
      </trkpt>
      <trkpt lat="59.2191229854" lon="17.2868979536">
        <ele>46.2</ele>
        <time>2011-05-01T08:57:44Z</time>
      </trkpt>
      <trkpt lat="59.2192109954" lon="17.2864349373">
        <ele>46.2</ele>
        <time>2011-05-01T08:57:47Z</time>
      </trkpt>
      <trkpt lat="59.2192969937" lon="17.2859779559">
        <ele>46.2</ele>
        <time>2011-05-01T08:57:50Z</time>
      </trkpt>
      <trkpt lat="59.2193779629" lon="17.2855199687">
        <ele>46.6</ele>
        <time>2011-05-01T08:57:53Z</time>
      </trkpt>
      <trkpt lat="59.2194619495" lon="17.2850699443">
        <ele>47.2</ele>
        <time>2011-05-01T08:57:56Z</time>
      </trkpt>
      <trkpt lat="59.219546942" lon="17.2846239433">
        <ele>46.6</ele>
        <time>2011-05-01T08:57:59Z</time>
      </trkpt>
      <trkpt lat="59.2196289171" lon="17.2841719911">
        <ele>47.6</ele>
        <time>2011-05-01T08:58:02Z</time>
      </trkpt>
      <trkpt lat="59.2197129875" lon="17.2837099805">
        <ele>47.6</ele>
        <time>2011-05-01T08:58:05Z</time>
      </trkpt>
      <trkpt lat="59.2197859939" lon="17.2832559329">
        <ele>48.2</ele>
        <time>2011-05-01T08:58:08Z</time>
      </trkpt>
      <trkpt lat="59.2198629398" lon="17.2828199901">
        <ele>49</ele>
        <time>2011-05-01T08:58:11Z</time>
      </trkpt>
      <trkpt lat="59.2199399695" lon="17.2824059241">
        <ele>49.6</ele>
        <time>2011-05-01T08:58:14Z</time>
      </trkpt>
      <trkpt lat="59.2200109642" lon="17.2820069455">
        <ele>51</ele>
        <time>2011-05-01T08:58:17Z</time>
      </trkpt>
      <trkpt lat="59.2200839706" lon="17.2816189472">
        <ele>51</ele>
        <time>2011-05-01T08:58:20Z</time>
      </trkpt>
      <trkpt lat="59.220156977" lon="17.2812249977">
        <ele>52</ele>
        <time>2011-05-01T08:58:23Z</time>
      </trkpt>
      <trkpt lat="59.220231995" lon="17.2808349878">
        <ele>53.4</ele>
        <time>2011-05-01T08:58:26Z</time>
      </trkpt>
      <trkpt lat="59.2203019839" lon="17.280443972">
        <ele>52</ele>
        <time>2011-05-01T08:58:29Z</time>
      </trkpt>
      <trkpt lat="59.2203689553" lon="17.2800549679">
        <ele>52</ele>
        <time>2011-05-01T08:58:32Z</time>
      </trkpt>
      <trkpt lat="59.2204409558" lon="17.2796659637">
        <ele>53</ele>
        <time>2011-05-01T08:58:35Z</time>
      </trkpt>
      <trkpt lat="59.2205119506" lon="17.2792809829">
        <ele>54.4</ele>
        <time>2011-05-01T08:58:38Z</time>
      </trkpt>
      <trkpt lat="59.2205809336" lon="17.2789009474">
        <ele>54.8</ele>
        <time>2011-05-01T08:58:41Z</time>
      </trkpt>
      <trkpt lat="59.2206519283" lon="17.2785309702">
        <ele>55.8</ele>
        <time>2011-05-01T08:58:44Z</time>
      </trkpt>
      <trkpt lat="59.2207239289" lon="17.278160993">
        <ele>56.2</ele>
        <time>2011-05-01T08:58:47Z</time>
      </trkpt>
      <trkpt lat="59.2207919899" lon="17.2777979728">
        <ele>56.8</ele>
        <time>2011-05-01T08:58:50Z</time>
      </trkpt>
      <trkpt lat="59.2208569497" lon="17.2774369642">
        <ele>56.8</ele>
        <time>2011-05-01T08:58:53Z</time>
      </trkpt>
      <trkpt lat="59.2209239211" lon="17.277066987">
        <ele>57.2</ele>
        <time>2011-05-01T08:58:56Z</time>
      </trkpt>
      <trkpt lat="59.2209899705" lon="17.2766939923">
        <ele>57.8</ele>
        <time>2011-05-01T08:58:59Z</time>
      </trkpt>
      <trkpt lat="59.2210629769" lon="17.2763149627">
        <ele>57.8</ele>
        <time>2011-05-01T08:59:02Z</time>
      </trkpt>
      <trkpt lat="59.2211339716" lon="17.2759119608">
        <ele>58.2</ele>
        <time>2011-05-01T08:59:05Z</time>
      </trkpt>
      <trkpt lat="59.221206978" lon="17.2754879203">
        <ele>58.2</ele>
        <time>2011-05-01T08:59:08Z</time>
      </trkpt>
      <trkpt lat="59.2212769669" lon="17.27504896">
        <ele>57.2</ele>
        <time>2011-05-01T08:59:11Z</time>
      </trkpt>
      <trkpt lat="59.2213389929" lon="17.2745939903">
        <ele>56.8</ele>
        <time>2011-05-01T08:59:14Z</time>
      </trkpt>
      <trkpt lat="59.2213979177" lon="17.2741169762">
        <ele>56.8</ele>
        <time>2011-05-01T08:59:17Z</time>
      </trkpt>
      <trkpt lat="59.221451981" lon="17.2736269701">
        <ele>56.2</ele>
        <time>2011-05-01T08:59:20Z</time>
      </trkpt>
      <trkpt lat="59.2215039488" lon="17.2731239721">
        <ele>55.8</ele>
        <time>2011-05-01T08:59:23Z</time>
      </trkpt>
      <trkpt lat="59.2215549946" lon="17.2726179566">
        <ele>55.4</ele>
        <time>2011-05-01T08:59:26Z</time>
      </trkpt>
      <trkpt lat="59.2216079682" lon="17.2721099295">
        <ele>55.8</ele>
        <time>2011-05-01T08:59:29Z</time>
      </trkpt>
      <trkpt lat="59.2216579244" lon="17.2716049198">
        <ele>55.8</ele>
        <time>2011-05-01T08:59:32Z</time>
      </trkpt>
      <trkpt lat="59.2217159271" lon="17.2711109743">
        <ele>55.8</ele>
        <time>2011-05-01T08:59:35Z</time>
      </trkpt>
      <trkpt lat="59.2217779532" lon="17.2706409171">
        <ele>55.8</ele>
        <time>2011-05-01T08:59:38Z</time>
      </trkpt>
      <trkpt lat="59.2219649535" lon="17.2692719847">
        <ele>56.2</ele>
        <time>2011-05-01T08:59:47Z</time>
      </trkpt>
      <trkpt lat="59.2220269796" lon="17.2688089684">
        <ele>56.2</ele>
        <time>2011-05-01T08:59:50Z</time>
      </trkpt>
      <trkpt lat="59.222093951" lon="17.2683499753">
        <ele>56.2</ele>
        <time>2011-05-01T08:59:53Z</time>
      </trkpt>
      <trkpt lat="59.2221589945" lon="17.2678919882">
        <ele>56.8</ele>
        <time>2011-05-01T08:59:56Z</time>
      </trkpt>
      <trkpt lat="59.2222309951" lon="17.267427966">
        <ele>57.2</ele>
        <time>2011-05-01T08:59:59Z</time>
      </trkpt>
      <trkpt lat="59.2223059293" lon="17.2669579927">
        <ele>57.2</ele>
        <time>2011-05-01T09:00:02Z</time>
      </trkpt>
      <trkpt lat="59.2223739903" lon="17.2664829902">
        <ele>57.2</ele>
        <time>2011-05-01T09:00:05Z</time>
      </trkpt>
      <trkpt lat="59.2224219348" lon="17.2660059761">
        <ele>57.2</ele>
        <time>2011-05-01T09:00:08Z</time>
      </trkpt>
      <trkpt lat="59.2224759981" lon="17.2655369248">
        <ele>57.2</ele>
        <time>2011-05-01T09:00:11Z</time>
      </trkpt>
      <trkpt lat="59.2225249484" lon="17.2650859784">
        <ele>57.2</ele>
        <time>2011-05-01T09:00:14Z</time>
      </trkpt>
      <trkpt lat="59.2225639243" lon="17.2646269854">
        <ele>57.2</ele>
        <time>2011-05-01T09:00:17Z</time>
      </trkpt>
      <trkpt lat="59.2225949373" lon="17.2641589399">
        <ele>56.8</ele>
        <time>2011-05-01T09:00:20Z</time>
      </trkpt>
      <trkpt lat="59.2226099409" lon="17.2636729572">
        <ele>56.2</ele>
        <time>2011-05-01T09:00:23Z</time>
      </trkpt>
      <trkpt lat="59.2226139642" lon="17.2631859686">
        <ele>56.2</ele>
        <time>2011-05-01T09:00:26Z</time>
      </trkpt>
      <trkpt lat="59.2226039898" lon="17.2627129778">
        <ele>56.2</ele>
        <time>2011-05-01T09:00:29Z</time>
      </trkpt>
      <trkpt lat="59.2225749884" lon="17.2622289229">
        <ele>55.8</ele>
        <time>2011-05-01T09:00:32Z</time>
      </trkpt>
      <trkpt lat="59.2225289717" lon="17.2617379948">
        <ele>56.2</ele>
        <time>2011-05-01T09:00:35Z</time>
      </trkpt>
      <trkpt lat="59.2224679515" lon="17.2612559516">
        <ele>56.8</ele>
        <time>2011-05-01T09:00:38Z</time>
      </trkpt>
      <trkpt lat="59.2223969568" lon="17.2607829608">
        <ele>56.8</ele>
        <time>2011-05-01T09:00:41Z</time>
      </trkpt>
      <trkpt lat="59.2223119643" lon="17.2603299189">
        <ele>55.8</ele>
        <time>2011-05-01T09:00:44Z</time>
      </trkpt>
      <trkpt lat="59.2222159915" lon="17.2598919645">
        <ele>57.8</ele>
        <time>2011-05-01T09:00:47Z</time>
      </trkpt>
      <trkpt lat="59.2221089546" lon="17.2594579495">
        <ele>57.8</ele>
        <time>2011-05-01T09:00:50Z</time>
      </trkpt>
      <trkpt lat="59.2219879199" lon="17.2590249404">
        <ele>56.8</ele>
        <time>2011-05-01T09:00:53Z</time>
      </trkpt>
      <trkpt lat="59.2218569946" lon="17.2585999779">
        <ele>57.2</ele>
        <time>2011-05-01T09:00:56Z</time>
      </trkpt>
      <trkpt lat="59.2217279971" lon="17.2581769433">
        <ele>57.2</ele>
        <time>2011-05-01T09:00:59Z</time>
      </trkpt>
      <trkpt lat="59.2215989996" lon="17.2577569261">
        <ele>57.8</ele>
        <time>2011-05-01T09:01:02Z</time>
      </trkpt>
      <trkpt lat="59.2214689963" lon="17.2573309578">
        <ele>56.8</ele>
        <time>2011-05-01T09:01:05Z</time>
      </trkpt>
      <trkpt lat="59.2213399988" lon="17.2569079231">
        <ele>57.2</ele>
        <time>2011-05-01T09:01:08Z</time>
      </trkpt>
      <trkpt lat="59.2212139349" lon="17.2564899176">
        <ele>57.8</ele>
        <time>2011-05-01T09:01:11Z</time>
      </trkpt>
      <trkpt lat="59.2210909724" lon="17.2560779471">
        <ele>58.2</ele>
        <time>2011-05-01T09:01:14Z</time>
      </trkpt>
      <trkpt lat="59.2209719494" lon="17.2556779627">
        <ele>59.2</ele>
        <time>2011-05-01T09:01:17Z</time>
      </trkpt>
      <trkpt lat="59.2208539322" lon="17.2552959993">
        <ele>60.2</ele>
        <time>2011-05-01T09:01:20Z</time>
      </trkpt>
      <trkpt lat="59.2207389325" lon="17.2549389303">
        <ele>61</ele>
        <time>2011-05-01T09:01:23Z</time>
      </trkpt>
      <trkpt lat="59.2206279561" lon="17.254574988">
        <ele>62.6</ele>
        <time>2011-05-01T09:01:26Z</time>
      </trkpt>
      <trkpt lat="59.2205229308" lon="17.2542099562">
        <ele>63.4</ele>
        <time>2011-05-01T09:01:29Z</time>
      </trkpt>
      <trkpt lat="59.2204179894" lon="17.2538429964">
        <ele>64</ele>
        <time>2011-05-01T09:01:32Z</time>
      </trkpt>
      <trkpt lat="59.2203249503" lon="17.2534659784">
        <ele>64</ele>
        <time>2011-05-01T09:01:35Z</time>
      </trkpt>
      <trkpt lat="59.2202409636" lon="17.2530839313">
        <ele>64</ele>
        <time>2011-05-01T09:01:38Z</time>
      </trkpt>
      <trkpt lat="59.2201619223" lon="17.2526769899">
        <ele>63.4</ele>
        <time>2011-05-01T09:01:41Z</time>
      </trkpt>
      <trkpt lat="59.2200849764" lon="17.2522469983">
        <ele>63</ele>
        <time>2011-05-01T09:01:44Z</time>
      </trkpt>
      <trkpt lat="59.2200069409" lon="17.2517809644">
        <ele>62</ele>
        <time>2011-05-01T09:01:47Z</time>
      </trkpt>
      <trkpt lat="59.2199259717" lon="17.2512819897">
        <ele>61.6</ele>
        <time>2011-05-01T09:01:50Z</time>
      </trkpt>
      <trkpt lat="59.2198369559" lon="17.2507379204">
        <ele>60.6</ele>
        <time>2011-05-01T09:01:53Z</time>
      </trkpt>
      <trkpt lat="59.219753975" lon="17.250167951">
        <ele>58.2</ele>
        <time>2011-05-01T09:01:56Z</time>
      </trkpt>
      <trkpt lat="59.2196579184" lon="17.2495719977">
        <ele>56.2</ele>
        <time>2011-05-01T09:01:59Z</time>
      </trkpt>
      <trkpt lat="59.2195949703" lon="17.249148963">
        <ele>54.4</ele>
        <time>2011-05-01T09:02:01Z</time>
      </trkpt>
      <trkpt lat="59.2195309326" lon="17.2487159539">
        <ele>53.4</ele>
        <time>2011-05-01T09:02:03Z</time>
      </trkpt>
      <trkpt lat="59.2194619495" lon="17.2482759878">
        <ele>52.4</ele>
        <time>2011-05-01T09:02:05Z</time>
      </trkpt>
      <trkpt lat="59.219426997" lon="17.248054957">
        <ele>52</ele>
        <time>2011-05-01T09:02:06Z</time>
      </trkpt>
      <trkpt lat="59.219358936" lon="17.2476169188">
        <ele>51</ele>
        <time>2011-05-01T09:02:08Z</time>
      </trkpt>
      <trkpt lat="59.2192919645" lon="17.2471789643">
        <ele>51</ele>
        <time>2011-05-01T09:02:10Z</time>
      </trkpt>
      <trkpt lat="59.219226921" lon="17.2467379924">
        <ele>50</ele>
        <time>2011-05-01T09:02:12Z</time>
      </trkpt>
      <trkpt lat="59.219169924" lon="17.2462959308">
        <ele>49</ele>
        <time>2011-05-01T09:02:14Z</time>
      </trkpt>
      <trkpt lat="59.2191219795" lon="17.2458479181">
        <ele>48.6</ele>
        <time>2011-05-01T09:02:16Z</time>
      </trkpt>
      <trkpt lat="59.2190819979" lon="17.24539496">
        <ele>47.6</ele>
        <time>2011-05-01T09:02:18Z</time>
      </trkpt>
      <trkpt lat="59.219049979" lon="17.2449409962">
        <ele>47.2</ele>
        <time>2011-05-01T09:02:20Z</time>
      </trkpt>
      <trkpt lat="59.2190279346" lon="17.244483931">
        <ele>46.6</ele>
        <time>2011-05-01T09:02:22Z</time>
      </trkpt>
      <trkpt lat="59.2190199718" lon="17.2440229263">
        <ele>46.2</ele>
        <time>2011-05-01T09:02:24Z</time>
      </trkpt>
      <trkpt lat="59.2190269288" lon="17.2435439844">
        <ele>45.2</ele>
        <time>2011-05-01T09:02:26Z</time>
      </trkpt>
      <trkpt lat="59.2190509848" lon="17.2430659644">
        <ele>44.8</ele>
        <time>2011-05-01T09:02:28Z</time>
      </trkpt>
      <trkpt lat="59.2190719396" lon="17.2425989248">
        <ele>43.2</ele>
        <time>2011-05-01T09:02:30Z</time>
      </trkpt>
      <trkpt lat="59.2190959956" lon="17.2421289515">
        <ele>42.4</ele>
        <time>2011-05-01T09:02:32Z</time>
      </trkpt>
      <trkpt lat="59.2191209737" lon="17.241659984">
        <ele>41.4</ele>
        <time>2011-05-01T09:02:34Z</time>
      </trkpt>
      <trkpt lat="59.2191459518" lon="17.241200991">
        <ele>41.4</ele>
        <time>2011-05-01T09:02:36Z</time>
      </trkpt>
      <trkpt lat="59.2191719357" lon="17.2407519724">
        <ele>41.4</ele>
        <time>2011-05-01T09:02:38Z</time>
      </trkpt>
      <trkpt lat="59.2191969976" lon="17.2403089888">
        <ele>41.4</ele>
        <time>2011-05-01T09:02:40Z</time>
      </trkpt>
      <trkpt lat="59.2192219757" lon="17.2398689389">
        <ele>40.4</ele>
        <time>2011-05-01T09:02:42Z</time>
      </trkpt>
      <trkpt lat="59.2192609515" lon="17.2392249573">
        <ele>40.4</ele>
        <time>2011-05-01T09:02:45Z</time>
      </trkpt>
      <trkpt lat="59.2192959879" lon="17.2386119887">
        <ele>40.8</ele>
        <time>2011-05-01T09:02:48Z</time>
      </trkpt>
      <trkpt lat="59.2193289287" lon="17.2380459588">
        <ele>42.4</ele>
        <time>2011-05-01T09:02:51Z</time>
      </trkpt>
      <trkpt lat="59.2193629593" lon="17.2375009675">
        <ele>42.8</ele>
        <time>2011-05-01T09:02:54Z</time>
      </trkpt>
      <trkpt lat="59.219395984" lon="17.2369619273">
        <ele>42.8</ele>
        <time>2011-05-01T09:02:57Z</time>
      </trkpt>
      <trkpt lat="59.219427919" lon="17.2364329454">
        <ele>42.8</ele>
        <time>2011-05-01T09:03:00Z</time>
      </trkpt>
      <trkpt lat="59.2194619495" lon="17.2359219845">
        <ele>43.2</ele>
        <time>2011-05-01T09:03:03Z</time>
      </trkpt>
      <trkpt lat="59.2194889393" lon="17.235434996">
        <ele>43.8</ele>
        <time>2011-05-01T09:03:06Z</time>
      </trkpt>
      <trkpt lat="59.2195199523" lon="17.2349679563">
        <ele>44.8</ele>
        <time>2011-05-01T09:03:09Z</time>
      </trkpt>
      <trkpt lat="59.2195479479" lon="17.2345189378">
        <ele>46.2</ele>
        <time>2011-05-01T09:03:12Z</time>
      </trkpt>
      <trkpt lat="59.2195679806" lon="17.2342329472">
        <ele>47.2</ele>
        <time>2011-05-01T09:03:14Z</time>
      </trkpt>
      <trkpt lat="59.219596982" lon="17.2338179592">
        <ele>47.6</ele>
        <time>2011-05-01T09:03:17Z</time>
      </trkpt>
      <trkpt lat="59.2196259834" lon="17.2334269434">
        <ele>48.2</ele>
        <time>2011-05-01T09:03:20Z</time>
      </trkpt>
      <trkpt lat="59.2196649592" lon="17.2330479976">
        <ele>49.6</ele>
        <time>2011-05-01T09:03:23Z</time>
      </trkpt>
      <trkpt lat="59.2197129875" lon="17.2326789424">
        <ele>50.6</ele>
        <time>2011-05-01T09:03:26Z</time>
      </trkpt>
      <trkpt lat="59.219766967" lon="17.2323199455">
        <ele>52</ele>
        <time>2011-05-01T09:03:29Z</time>
      </trkpt>
      <trkpt lat="59.2198279873" lon="17.2319629602">
        <ele>52.4</ele>
        <time>2011-05-01T09:03:32Z</time>
      </trkpt>
      <trkpt lat="59.219898982" lon="17.2315949947">
        <ele>53.4</ele>
        <time>2011-05-01T09:03:35Z</time>
      </trkpt>
      <trkpt lat="59.2199769337" lon="17.2312199883">
        <ele>53.8</ele>
        <time>2011-05-01T09:03:38Z</time>
      </trkpt>
      <trkpt lat="59.2200749181" lon="17.2308439761">
        <ele>53.8</ele>
        <time>2011-05-01T09:03:41Z</time>
      </trkpt>
      <trkpt lat="59.22018799" lon="17.230467964">
        <ele>53.4</ele>
        <time>2011-05-01T09:03:44Z</time>
      </trkpt>
      <trkpt lat="59.220307935" lon="17.2301089671">
        <ele>52</ele>
        <time>2011-05-01T09:03:47Z</time>
      </trkpt>
      <trkpt lat="59.220452942" lon="17.2297339607">
        <ele>53.8</ele>
        <time>2011-05-01T09:03:50Z</time>
      </trkpt>
      <trkpt lat="59.2206169758" lon="17.2293519974">
        <ele>53</ele>
        <time>2011-05-01T09:03:53Z</time>
      </trkpt>
      <trkpt lat="59.2207929958" lon="17.2289729677">
        <ele>51.4</ele>
        <time>2011-05-01T09:03:56Z</time>
      </trkpt>
      <trkpt lat="59.2208529264" lon="17.2288479935">
        <ele>51.4</ele>
        <time>2011-05-01T09:03:57Z</time>
      </trkpt>
      <trkpt lat="59.2210349813" lon="17.228467958">
        <ele>50.6</ele>
        <time>2011-05-01T09:04:00Z</time>
      </trkpt>
      <trkpt lat="59.2212229874" lon="17.2280979808">
        <ele>51</ele>
        <time>2011-05-01T09:04:03Z</time>
      </trkpt>
      <trkpt lat="59.2214059643" lon="17.2277309373">
        <ele>50.6</ele>
        <time>2011-05-01T09:04:06Z</time>
      </trkpt>
      <trkpt lat="59.221583996" lon="17.2273669951">
        <ele>51</ele>
        <time>2011-05-01T09:04:09Z</time>
      </trkpt>
      <trkpt lat="59.2217659671" lon="17.2270169668">
        <ele>51</ele>
        <time>2011-05-01T09:04:12Z</time>
      </trkpt>
      <trkpt lat="59.2219439987" lon="17.226675991">
        <ele>51.4</ele>
        <time>2011-05-01T09:04:15Z</time>
      </trkpt>
      <trkpt lat="59.2221139837" lon="17.2263279743">
        <ele>52</ele>
        <time>2011-05-01T09:04:18Z</time>
      </trkpt>
      <trkpt lat="59.2222829629" lon="17.2259589192">
        <ele>52</ele>
        <time>2011-05-01T09:04:21Z</time>
      </trkpt>
      <trkpt lat="59.2224629223" lon="17.2256149258">
        <ele>52.4</ele>
        <time>2011-05-01T09:04:24Z</time>
      </trkpt>
      <trkpt lat="59.2226489168" lon="17.2253019456">
        <ele>52</ele>
        <time>2011-05-01T09:04:27Z</time>
      </trkpt>
      <trkpt lat="59.2228239309" lon="17.2249639872">
        <ele>53</ele>
        <time>2011-05-01T09:04:30Z</time>
      </trkpt>
      <trkpt lat="59.2229999509" lon="17.2246279567">
        <ele>52.4</ele>
        <time>2011-05-01T09:04:33Z</time>
      </trkpt>
      <trkpt lat="59.2231739592" lon="17.2242909204">
        <ele>53.4</ele>
        <time>2011-05-01T09:04:36Z</time>
      </trkpt>
      <trkpt lat="59.2233409267" lon="17.2239679657">
        <ele>54.4</ele>
        <time>2011-05-01T09:04:39Z</time>
      </trkpt>
      <trkpt lat="59.2234999314" lon="17.2236549854">
        <ele>55.4</ele>
        <time>2011-05-01T09:04:42Z</time>
      </trkpt>
      <trkpt lat="59.2236449383" lon="17.2233609483">
        <ele>56.2</ele>
        <time>2011-05-01T09:04:45Z</time>
      </trkpt>
      <trkpt lat="59.223778965" lon="17.2231049649">
        <ele>56.2</ele>
        <time>2011-05-01T09:04:48Z</time>
      </trkpt>
      <trkpt lat="59.2239059508" lon="17.2228679247">
        <ele>58.2</ele>
        <time>2011-05-01T09:04:51Z</time>
      </trkpt>
      <trkpt lat="59.2240319308" lon="17.2226149589">
        <ele>59.2</ele>
        <time>2011-05-01T09:04:54Z</time>
      </trkpt>
      <trkpt lat="59.2241589166" lon="17.2223589756">
        <ele>60.6</ele>
        <time>2011-05-01T09:04:57Z</time>
      </trkpt>
      <trkpt lat="59.2242829688" lon="17.22211699">
        <ele>61</ele>
        <time>2011-05-01T09:05:00Z</time>
      </trkpt>
      <trkpt lat="59.224407943" lon="17.2218809556">
        <ele>61.6</ele>
        <time>2011-05-01T09:05:03Z</time>
      </trkpt>
      <trkpt lat="59.224533923" lon="17.2216479387">
        <ele>62</ele>
        <time>2011-05-01T09:05:06Z</time>
      </trkpt>
      <trkpt lat="59.2246559635" lon="17.221406959">
        <ele>62.6</ele>
        <time>2011-05-01T09:05:09Z</time>
      </trkpt>
      <trkpt lat="59.2247839551" lon="17.2211409174">
        <ele>63.4</ele>
        <time>2011-05-01T09:05:12Z</time>
      </trkpt>
      <trkpt lat="59.2249169759" lon="17.2208559327">
        <ele>63.4</ele>
        <time>2011-05-01T09:05:15Z</time>
      </trkpt>
      <trkpt lat="59.2250519246" lon="17.2205619793">
        <ele>63.4</ele>
        <time>2011-05-01T09:05:18Z</time>
      </trkpt>
      <trkpt lat="59.2251799162" lon="17.2202499211">
        <ele>63.4</ele>
        <time>2011-05-01T09:05:21Z</time>
      </trkpt>
      <trkpt lat="59.2253049742" lon="17.2199209314">
        <ele>63</ele>
        <time>2011-05-01T09:05:24Z</time>
      </trkpt>
      <trkpt lat="59.2254239973" lon="17.2195699811">
        <ele>64</ele>
        <time>2011-05-01T09:05:27Z</time>
      </trkpt>
      <trkpt lat="59.2255429365" lon="17.2191919573">
        <ele>63</ele>
        <time>2011-05-01T09:05:30Z</time>
      </trkpt>
      <trkpt lat="59.2256709281" lon="17.2187869437">
        <ele>63</ele>
        <time>2011-05-01T09:05:33Z</time>
      </trkpt>
      <trkpt lat="59.2258039489" lon="17.2183359973">
        <ele>60.6</ele>
        <time>2011-05-01T09:05:36Z</time>
      </trkpt>
      <trkpt lat="59.2259419989" lon="17.2178609949">
        <ele>60.2</ele>
        <time>2011-05-01T09:05:39Z</time>
      </trkpt>
      <trkpt lat="59.226092957" lon="17.2173829749">
        <ele>59.6</ele>
        <time>2011-05-01T09:05:42Z</time>
      </trkpt>
      <trkpt lat="59.2262569908" lon="17.2169289272">
        <ele>59.2</ele>
        <time>2011-05-01T09:05:45Z</time>
      </trkpt>
      <trkpt lat="59.2264239583" lon="17.2165139392">
        <ele>59.6</ele>
        <time>2011-05-01T09:05:48Z</time>
      </trkpt>
      <trkpt lat="59.2265999783" lon="17.2161579598">
        <ele>60.6</ele>
        <time>2011-05-01T09:05:51Z</time>
      </trkpt>
      <trkpt lat="59.2267189175" lon="17.2159529384">
        <ele>62</ele>
        <time>2011-05-01T09:05:53Z</time>
      </trkpt>
      <trkpt lat="59.2269009724" lon="17.2156839631">
        <ele>62</ele>
        <time>2011-05-01T09:05:56Z</time>
      </trkpt>
      <trkpt lat="59.2270849552" lon="17.215457987">
        <ele>63</ele>
        <time>2011-05-01T09:05:59Z</time>
      </trkpt>
      <trkpt lat="59.2272639927" lon="17.2152779438">
        <ele>64.4</ele>
        <time>2011-05-01T09:06:02Z</time>
      </trkpt>
      <trkpt lat="59.2273229174" lon="17.2152229585">
        <ele>64.4</ele>
        <time>2011-05-01T09:06:03Z</time>
      </trkpt>
      <trkpt lat="59.2275029607" lon="17.2150729224">
        <ele>65.4</ele>
        <time>2011-05-01T09:06:06Z</time>
      </trkpt>
      <trkpt lat="59.2276919726" lon="17.2149329446">
        <ele>65.8</ele>
        <time>2011-05-01T09:06:09Z</time>
      </trkpt>
      <trkpt lat="59.2278869357" lon="17.214797996">
        <ele>66.8</ele>
        <time>2011-05-01T09:06:12Z</time>
      </trkpt>
      <trkpt lat="59.2280859221" lon="17.2146609519">
        <ele>66.4</ele>
        <time>2011-05-01T09:06:15Z</time>
      </trkpt>
      <trkpt lat="59.2282949667" lon="17.2145079821">
        <ele>65.8</ele>
        <time>2011-05-01T09:06:18Z</time>
      </trkpt>
      <trkpt lat="59.2285059392" lon="17.2143469658">
        <ele>65.8</ele>
        <time>2011-05-01T09:06:21Z</time>
      </trkpt>
      <trkpt lat="59.2287159897" lon="17.2141589597">
        <ele>65.8</ele>
        <time>2011-05-01T09:06:24Z</time>
      </trkpt>
      <trkpt lat="59.2289299797" lon="17.213948993">
        <ele>65.4</ele>
        <time>2011-05-01T09:06:27Z</time>
      </trkpt>
      <trkpt lat="59.2291489989" lon="17.21370399">
        <ele>65</ele>
        <time>2011-05-01T09:06:30Z</time>
      </trkpt>
      <trkpt lat="59.2293709517" lon="17.2134309914">
        <ele>64</ele>
        <time>2011-05-01T09:06:33Z</time>
      </trkpt>
      <trkpt lat="59.2295849416" lon="17.2131339367">
        <ele>63</ele>
        <time>2011-05-01T09:06:36Z</time>
      </trkpt>
      <trkpt lat="59.2297939863" lon="17.2128159273">
        <ele>63.4</ele>
        <time>2011-05-01T09:06:39Z</time>
      </trkpt>
      <trkpt lat="59.2300019413" lon="17.2125019412">
        <ele>64</ele>
        <time>2011-05-01T09:06:42Z</time>
      </trkpt>
      <trkpt lat="59.2301369738" lon="17.212301949">
        <ele>65</ele>
        <time>2011-05-01T09:06:44Z</time>
      </trkpt>
      <trkpt lat="59.2303269915" lon="17.2120089177">
        <ele>64.4</ele>
        <time>2011-05-01T09:06:47Z</time>
      </trkpt>
      <trkpt lat="59.2305039335" lon="17.2117409483">
        <ele>66.8</ele>
        <time>2011-05-01T09:06:50Z</time>
      </trkpt>
      <trkpt lat="59.2306689732" lon="17.2114799358">
        <ele>67.8</ele>
        <time>2011-05-01T09:06:53Z</time>
      </trkpt>
      <trkpt lat="59.2308219429" lon="17.2112029977">
        <ele>68.2</ele>
        <time>2011-05-01T09:06:56Z</time>
      </trkpt>
      <trkpt lat="59.2309629265" lon="17.2109079547">
        <ele>67.4</ele>
        <time>2011-05-01T09:06:59Z</time>
      </trkpt>
      <trkpt lat="59.2310939357" lon="17.2106219642">
        <ele>68.8</ele>
        <time>2011-05-01T09:07:02Z</time>
      </trkpt>
      <trkpt lat="59.2312189937" lon="17.2103189584">
        <ele>69.2</ele>
        <time>2011-05-01T09:07:05Z</time>
      </trkpt>
      <trkpt lat="59.2313439678" lon="17.2100099176">
        <ele>69.8</ele>
        <time>2011-05-01T09:07:08Z</time>
      </trkpt>
      <trkpt lat="59.231468942" lon="17.209704984">
        <ele>70.2</ele>
        <time>2011-05-01T09:07:11Z</time>
      </trkpt>
      <trkpt lat="59.2315939162" lon="17.2093919199">
        <ele>70.2</ele>
        <time>2011-05-01T09:07:14Z</time>
      </trkpt>
      <trkpt lat="59.2317159567" lon="17.2090749163">
        <ele>73</ele>
        <time>2011-05-01T09:07:17Z</time>
      </trkpt>
      <trkpt lat="59.2318419367" lon="17.2087559849">
        <ele>72.2</ele>
        <time>2011-05-01T09:07:20Z</time>
      </trkpt>
      <trkpt lat="59.2319729459" lon="17.2084339522">
        <ele>73</ele>
        <time>2011-05-01T09:07:23Z</time>
      </trkpt>
      <trkpt lat="59.232103955" lon="17.2081109975">
        <ele>72.6</ele>
        <time>2011-05-01T09:07:26Z</time>
      </trkpt>
      <trkpt lat="59.2322399933" lon="17.2077759728">
        <ele>73</ele>
        <time>2011-05-01T09:07:29Z</time>
      </trkpt>
      <trkpt lat="59.2323819827" lon="17.2074319795">
        <ele>72.2</ele>
        <time>2011-05-01T09:07:32Z</time>
      </trkpt>
      <trkpt lat="59.232524978" lon="17.2070799395">
        <ele>70.2</ele>
        <time>2011-05-01T09:07:35Z</time>
      </trkpt>
      <trkpt lat="59.2326779477" lon="17.206718931">
        <ele>70.2</ele>
        <time>2011-05-01T09:07:38Z</time>
      </trkpt>
      <trkpt lat="59.2328459211" lon="17.2063529771">
        <ele>70.2</ele>
        <time>2011-05-01T09:07:41Z</time>
      </trkpt>
      <trkpt lat="59.2330299877" lon="17.2059769649">
        <ele>69.8</ele>
        <time>2011-05-01T09:07:44Z</time>
      </trkpt>
      <trkpt lat="59.2332249507" lon="17.2055759747">
        <ele>68.8</ele>
        <time>2011-05-01T09:07:47Z</time>
      </trkpt>
      <trkpt lat="59.2334309779" lon="17.2052059975">
        <ele>68.2</ele>
        <time>2011-05-01T09:07:50Z</time>
      </trkpt>
      <trkpt lat="59.2336369213" lon="17.2048389539">
        <ele>67.4</ele>
        <time>2011-05-01T09:07:53Z</time>
      </trkpt>
      <trkpt lat="59.2338459659" lon="17.2044779453">
        <ele>67.8</ele>
        <time>2011-05-01T09:07:56Z</time>
      </trkpt>
      <trkpt lat="59.2340459581" lon="17.2041149251">
        <ele>67.4</ele>
        <time>2011-05-01T09:07:59Z</time>
      </trkpt>
      <trkpt lat="59.2342389934" lon="17.2037479654">
        <ele>66.8</ele>
        <time>2011-05-01T09:08:02Z</time>
      </trkpt>
      <trkpt lat="59.2344219703" lon="17.203372959">
        <ele>66.4</ele>
        <time>2011-05-01T09:08:05Z</time>
      </trkpt>
      <trkpt lat="59.2345949728" lon="17.2029919177">
        <ele>66.8</ele>
        <time>2011-05-01T09:08:08Z</time>
      </trkpt>
      <trkpt lat="59.2347629461" lon="17.2026109602">
        <ele>67.4</ele>
        <time>2011-05-01T09:08:11Z</time>
      </trkpt>
      <trkpt lat="59.2349299975" lon="17.2022319306">
        <ele>67.4</ele>
        <time>2011-05-01T09:08:14Z</time>
      </trkpt>
      <trkpt lat="59.235103922" lon="17.2018499672">
        <ele>66.8</ele>
        <time>2011-05-01T09:08:17Z</time>
      </trkpt>
      <trkpt lat="59.2352719791" lon="17.2014629748">
        <ele>67.4</ele>
        <time>2011-05-01T09:08:20Z</time>
      </trkpt>
      <trkpt lat="59.2354469933" lon="17.2010679357">
        <ele>68.2</ele>
        <time>2011-05-01T09:08:23Z</time>
      </trkpt>
      <trkpt lat="59.2356249411" lon="17.2006619163">
        <ele>67.8</ele>
        <time>2011-05-01T09:08:26Z</time>
      </trkpt>
      <trkpt lat="59.2358119413" lon="17.2002499457">
        <ele>65.8</ele>
        <time>2011-05-01T09:08:29Z</time>
      </trkpt>
      <trkpt lat="59.2358749732" lon="17.200109968">
        <ele>65.8</ele>
        <time>2011-05-01T09:08:30Z</time>
      </trkpt>
      <trkpt lat="59.2360629793" lon="17.1996709239">
        <ele>65.8</ele>
        <time>2011-05-01T09:08:33Z</time>
      </trkpt>
      <trkpt lat="59.2361949943" lon="17.1993759647">
        <ele>63</ele>
        <time>2011-05-01T09:08:35Z</time>
      </trkpt>
      <trkpt lat="59.2362619657" lon="17.1992269345">
        <ele>63.4</ele>
        <time>2011-05-01T09:08:36Z</time>
      </trkpt>
      <trkpt lat="59.2364659812" lon="17.1987699531">
        <ele>62</ele>
        <time>2011-05-01T09:08:39Z</time>
      </trkpt>
      <trkpt lat="59.2366699968" lon="17.1983149834">
        <ele>62</ele>
        <time>2011-05-01T09:08:42Z</time>
      </trkpt>
      <trkpt lat="59.2368719168" lon="17.1978669707">
        <ele>61</ele>
        <time>2011-05-01T09:08:45Z</time>
      </trkpt>
      <trkpt lat="59.2370659579" lon="17.1974279266">
        <ele>61.6</ele>
        <time>2011-05-01T09:08:48Z</time>
      </trkpt>
      <trkpt lat="59.2372579873" lon="17.1970059816">
        <ele>61</ele>
        <time>2011-05-01T09:08:51Z</time>
      </trkpt>
      <trkpt lat="59.2374579795" lon="17.1965919994">
        <ele>60.2</ele>
        <time>2011-05-01T09:08:54Z</time>
      </trkpt>
      <trkpt lat="59.2376649287" lon="17.1961789392">
        <ele>59.6</ele>
        <time>2011-05-01T09:08:57Z</time>
      </trkpt>
      <trkpt lat="59.2378879711" lon="17.1957939584">
        <ele>59.2</ele>
        <time>2011-05-01T09:09:00Z</time>
      </trkpt>
      <trkpt lat="59.2381329741" lon="17.1954149287">
        <ele>57.2</ele>
        <time>2011-05-01T09:09:03Z</time>
      </trkpt>
      <trkpt lat="59.238215955" lon="17.1952859312">
        <ele>57.2</ele>
        <time>2011-05-01T09:09:04Z</time>
      </trkpt>
      <trkpt lat="59.2384699266" lon="17.1949139424">
        <ele>56.8</ele>
        <time>2011-05-01T09:09:07Z</time>
      </trkpt>
      <trkpt lat="59.2387389857" lon="17.1945469826">
        <ele>54.8</ele>
        <time>2011-05-01T09:09:10Z</time>
      </trkpt>
      <trkpt lat="59.2390069552" lon="17.194173988">
        <ele>51.4</ele>
        <time>2011-05-01T09:09:13Z</time>
      </trkpt>
      <trkpt lat="59.2390969768" lon="17.1940459963">
        <ele>51.4</ele>
        <time>2011-05-01T09:09:14Z</time>
      </trkpt>
      <trkpt lat="59.2392779421" lon="17.1937849838">
        <ele>49</ele>
        <time>2011-05-01T09:09:16Z</time>
      </trkpt>
      <trkpt lat="59.2394639365" lon="17.1935139969">
        <ele>47.2</ele>
        <time>2011-05-01T09:09:18Z</time>
      </trkpt>
      <trkpt lat="59.2396519426" lon="17.1932349633">
        <ele>45.6</ele>
        <time>2011-05-01T09:09:20Z</time>
      </trkpt>
      <trkpt lat="59.2398449779" lon="17.1929659881">
        <ele>47.2</ele>
        <time>2011-05-01T09:09:22Z</time>
      </trkpt>
      <trkpt lat="59.2400349956" lon="17.1926909778">
        <ele>46.6</ele>
        <time>2011-05-01T09:09:24Z</time>
      </trkpt>
      <trkpt lat="59.2402179725" lon="17.1924039815">
        <ele>47.2</ele>
        <time>2011-05-01T09:09:26Z</time>
      </trkpt>
      <trkpt lat="59.2403939925" lon="17.1921079326">
        <ele>45.6</ele>
        <time>2011-05-01T09:09:28Z</time>
      </trkpt>
      <trkpt lat="59.24056096" lon="17.1918009873">
        <ele>45.6</ele>
        <time>2011-05-01T09:09:30Z</time>
      </trkpt>
      <trkpt lat="59.2407229822" lon="17.1914809663">
        <ele>45.2</ele>
        <time>2011-05-01T09:09:32Z</time>
      </trkpt>
      <trkpt lat="59.2408769578" lon="17.1911499649">
        <ele>45.2</ele>
        <time>2011-05-01T09:09:34Z</time>
      </trkpt>
      <trkpt lat="59.241019953" lon="17.1908009425">
        <ele>44.2</ele>
        <time>2011-05-01T09:09:36Z</time>
      </trkpt>
      <trkpt lat="59.241151968" lon="17.1904429514">
        <ele>43.2</ele>
        <time>2011-05-01T09:09:38Z</time>
      </trkpt>
      <trkpt lat="59.2412749305" lon="17.1900749858">
        <ele>41.8</ele>
        <time>2011-05-01T09:09:40Z</time>
      </trkpt>
      <trkpt lat="59.2413919419" lon="17.1897019912">
        <ele>41.8</ele>
        <time>2011-05-01T09:09:42Z</time>
      </trkpt>
      <trkpt lat="59.2415009905" lon="17.1893059462">
        <ele>40.8</ele>
        <time>2011-05-01T09:09:44Z</time>
      </trkpt>
      <trkpt lat="59.2416009866" lon="17.1888879407">
        <ele>40</ele>
        <time>2011-05-01T09:09:46Z</time>
      </trkpt>
      <trkpt lat="59.241692936" lon="17.1884559374">
        <ele>38</ele>
        <time>2011-05-01T09:09:48Z</time>
      </trkpt>
      <trkpt lat="59.2417339236" lon="17.1882379241">
        <ele>38</ele>
        <time>2011-05-01T09:09:49Z</time>
      </trkpt>
      <trkpt lat="59.2418119591" lon="17.1877769195">
        <ele>36</ele>
        <time>2011-05-01T09:09:51Z</time>
      </trkpt>
      <trkpt lat="59.2418759968" lon="17.1873029228">
        <ele>34.6</ele>
        <time>2011-05-01T09:09:53Z</time>
      </trkpt>
      <trkpt lat="59.241925953" lon="17.1868169401">
        <ele>33.6</ele>
        <time>2011-05-01T09:09:55Z</time>
      </trkpt>
      <trkpt lat="59.2419619951" lon="17.1863189712">
        <ele>31.8</ele>
        <time>2011-05-01T09:09:57Z</time>
      </trkpt>
      <trkpt lat="59.241987979" lon="17.1858119499">
        <ele>30.4</ele>
        <time>2011-05-01T09:09:59Z</time>
      </trkpt>
      <trkpt lat="59.241925953" lon="17.1844929736">
        <ele>26</ele>
        <time>2011-05-01T09:10:04Z</time>
      </trkpt>
      <trkpt lat="59.2418919224" lon="17.1839529276">
        <ele>25</ele>
        <time>2011-05-01T09:10:06Z</time>
      </trkpt>
      <trkpt lat="59.2418539524" lon="17.1834109537">
        <ele>22.6</ele>
        <time>2011-05-01T09:10:08Z</time>
      </trkpt>
      <trkpt lat="59.2418189999" lon="17.1828689799">
        <ele>21.2</ele>
        <time>2011-05-01T09:10:10Z</time>
      </trkpt>
      <trkpt lat="59.2417829577" lon="17.1823199652">
        <ele>19.8</ele>
        <time>2011-05-01T09:10:12Z</time>
      </trkpt>
      <trkpt lat="59.2417509388" lon="17.1817889716">
        <ele>17.8</ele>
        <time>2011-05-01T09:10:14Z</time>
      </trkpt>
      <trkpt lat="59.2417189199" lon="17.1812409628">
        <ele>16.4</ele>
        <time>2011-05-01T09:10:16Z</time>
      </trkpt>
      <trkpt lat="59.2416919302" lon="17.1806979831">
        <ele>15</ele>
        <time>2011-05-01T09:10:18Z</time>
      </trkpt>
      <trkpt lat="59.2416809499" lon="17.1801559255">
        <ele>14.4</ele>
        <time>2011-05-01T09:10:20Z</time>
      </trkpt>
      <trkpt lat="59.2416909244" lon="17.1796179749">
        <ele>13</ele>
        <time>2011-05-01T09:10:22Z</time>
      </trkpt>
      <trkpt lat="59.2417169921" lon="17.1790809464">
        <ele>12.6</ele>
        <time>2011-05-01T09:10:24Z</time>
      </trkpt>
      <trkpt lat="59.2417639308" lon="17.1785579994">
        <ele>11</ele>
        <time>2011-05-01T09:10:26Z</time>
      </trkpt>
      <trkpt lat="59.2418339197" lon="17.1780519839">
        <ele>10.2</ele>
        <time>2011-05-01T09:10:28Z</time>
      </trkpt>
      <trkpt lat="59.2419179901" lon="17.1775659174">
        <ele>8.6</ele>
        <time>2011-05-01T09:10:30Z</time>
      </trkpt>
      <trkpt lat="59.2420209199" lon="17.1770919207">
        <ele>6.8</ele>
        <time>2011-05-01T09:10:32Z</time>
      </trkpt>
      <trkpt lat="59.2421419546" lon="17.1766309999">
        <ele>5.4</ele>
        <time>2011-05-01T09:10:34Z</time>
      </trkpt>
      <trkpt lat="59.2422809266" lon="17.1761919558">
        <ele>4.8</ele>
        <time>2011-05-01T09:10:36Z</time>
      </trkpt>
      <trkpt lat="59.2424319685" lon="17.1757789794">
        <ele>3.4</ele>
        <time>2011-05-01T09:10:38Z</time>
      </trkpt>
      <trkpt lat="59.242510926" lon="17.1755859442">
        <ele>3.4</ele>
        <time>2011-05-01T09:10:39Z</time>
      </trkpt>
      <trkpt lat="59.2426729482" lon="17.1752249356">
        <ele>2.4</ele>
        <time>2011-05-01T09:10:41Z</time>
      </trkpt>
      <trkpt lat="59.2428339645" lon="17.1748939343">
        <ele>3</ele>
        <time>2011-05-01T09:10:43Z</time>
      </trkpt>
      <trkpt lat="59.2430729326" lon="17.1744399704">
        <ele>2.4</ele>
        <time>2011-05-01T09:10:46Z</time>
      </trkpt>
      <trkpt lat="59.2433019262" lon="17.1740169358">
        <ele>2</ele>
        <time>2011-05-01T09:10:49Z</time>
      </trkpt>
      <trkpt lat="59.2435279861" lon="17.1736019477">
        <ele>3.4</ele>
        <time>2011-05-01T09:10:52Z</time>
      </trkpt>
      <trkpt lat="59.2437499389" lon="17.1731929947">
        <ele>3.8</ele>
        <time>2011-05-01T09:10:55Z</time>
      </trkpt>
      <trkpt lat="59.2439679522" lon="17.1727989614">
        <ele>4.4</ele>
        <time>2011-05-01T09:10:58Z</time>
      </trkpt>
      <trkpt lat="59.2441799305" lon="17.1724119689">
        <ele>4.4</ele>
        <time>2011-05-01T09:11:01Z</time>
      </trkpt>
      <trkpt lat="59.2443839461" lon="17.1720359568">
        <ele>5.4</ele>
        <time>2011-05-01T09:11:04Z</time>
      </trkpt>
      <trkpt lat="59.2445799988" lon="17.1716779657">
        <ele>5.8</ele>
        <time>2011-05-01T09:11:07Z</time>
      </trkpt>
      <trkpt lat="59.2447689269" lon="17.1713309549">
        <ele>5.8</ele>
        <time>2011-05-01T09:11:10Z</time>
      </trkpt>
      <trkpt lat="59.2449529935" lon="17.1709939186">
        <ele>6.2</ele>
        <time>2011-05-01T09:11:13Z</time>
      </trkpt>
      <trkpt lat="59.2451279238" lon="17.1706789266">
        <ele>5.4</ele>
        <time>2011-05-01T09:11:16Z</time>
      </trkpt>
      <trkpt lat="59.2452969868" lon="17.1703749988">
        <ele>4.8</ele>
        <time>2011-05-01T09:11:19Z</time>
      </trkpt>
      <trkpt lat="59.2454729229" lon="17.1700749267">
        <ele>6.2</ele>
        <time>2011-05-01T09:11:22Z</time>
      </trkpt>
      <trkpt lat="59.2456489429" lon="17.1697969828">
        <ele>7.2</ele>
        <time>2011-05-01T09:11:25Z</time>
      </trkpt>
      <trkpt lat="59.2458189279" lon="17.169537982">
        <ele>9.2</ele>
        <time>2011-05-01T09:11:28Z</time>
      </trkpt>
      <trkpt lat="59.2459819559" lon="17.1693029534">
        <ele>9.6</ele>
        <time>2011-05-01T09:11:31Z</time>
      </trkpt>
      <trkpt lat="59.2461339198" lon="17.1690869518">
        <ele>11</ele>
        <time>2011-05-01T09:11:34Z</time>
      </trkpt>
      <trkpt lat="59.2462819442" lon="17.1688679326">
        <ele>12</ele>
        <time>2011-05-01T09:11:37Z</time>
      </trkpt>
      <trkpt lat="59.2463819403" lon="17.1687229257">
        <ele>12.6</ele>
        <time>2011-05-01T09:11:39Z</time>
      </trkpt>
      <trkpt lat="59.2465319764" lon="17.1685079299">
        <ele>13.4</ele>
        <time>2011-05-01T09:11:42Z</time>
      </trkpt>
      <trkpt lat="59.246678995" lon="17.1682939399">
        <ele>15.4</ele>
        <time>2011-05-01T09:11:45Z</time>
      </trkpt>
      <trkpt lat="59.2468259297" lon="17.1680769324">
        <ele>15.8</ele>
        <time>2011-05-01T09:11:48Z</time>
      </trkpt>
      <trkpt lat="59.246968925" lon="17.167846933">
        <ele>16.8</ele>
        <time>2011-05-01T09:11:51Z</time>
      </trkpt>
      <trkpt lat="59.2471029516" lon="17.1676039416">
        <ele>17.4</ele>
        <time>2011-05-01T09:11:54Z</time>
      </trkpt>
      <trkpt lat="59.2472289316" lon="17.1673529875">
        <ele>17.8</ele>
        <time>2011-05-01T09:11:57Z</time>
      </trkpt>
      <trkpt lat="59.2473449372" lon="17.1670969203">
        <ele>18.4</ele>
        <time>2011-05-01T09:12:00Z</time>
      </trkpt>
      <trkpt lat="59.2474519741" lon="17.1668329742">
        <ele>18.4</ele>
        <time>2011-05-01T09:12:03Z</time>
      </trkpt>
      <trkpt lat="59.2475449294" lon="17.1665709559">
        <ele>18.8</ele>
        <time>2011-05-01T09:12:06Z</time>
      </trkpt>
      <trkpt lat="59.2476269882" lon="17.1663039923">
        <ele>19.2</ele>
        <time>2011-05-01T09:12:09Z</time>
      </trkpt>
      <trkpt lat="59.2477079574" lon="17.1660319995">
        <ele>18.8</ele>
        <time>2011-05-01T09:12:12Z</time>
      </trkpt>
      <trkpt lat="59.2477909382" lon="17.1657549776">
        <ele>18.8</ele>
        <time>2011-05-01T09:12:15Z</time>
      </trkpt>
      <trkpt lat="59.2478789482" lon="17.1654799674">
        <ele>19.2</ele>
        <time>2011-05-01T09:12:18Z</time>
      </trkpt>
      <trkpt lat="59.2479659524" lon="17.1651989222">
        <ele>19.2</ele>
        <time>2011-05-01T09:12:21Z</time>
      </trkpt>
      <trkpt lat="59.2480579857" lon="17.1649229899">
        <ele>19.2</ele>
        <time>2011-05-01T09:12:24Z</time>
      </trkpt>
      <trkpt lat="59.2480919324" lon="17.1648329683">
        <ele>19.8</ele>
        <time>2011-05-01T09:12:25Z</time>
      </trkpt>
      <trkpt lat="59.2482859734" lon="17.1646199841">
        <ele>18.8</ele>
        <time>2011-05-01T09:12:29Z</time>
      </trkpt>
      <trkpt lat="59.248401979" lon="17.1647039708">
        <ele>16.8</ele>
        <time>2011-05-01T09:12:31Z</time>
      </trkpt>
      <trkpt lat="59.2486309726" lon="17.1649779752">
        <ele>15.4</ele>
        <time>2011-05-01T09:12:35Z</time>
      </trkpt>
      <trkpt lat="59.2488089204" lon="17.1651909593">
        <ele>16.4</ele>
        <time>2011-05-01T09:12:38Z</time>
      </trkpt>
      <trkpt lat="59.2489899695" lon="17.1654689871">
        <ele>14.4</ele>
        <time>2011-05-01T09:12:41Z</time>
      </trkpt>
      <trkpt lat="59.2491649836" lon="17.1657689754">
        <ele>12.6</ele>
        <time>2011-05-01T09:12:44Z</time>
      </trkpt>
      <trkpt lat="59.2493509781" lon="17.1660619229">
        <ele>12.6</ele>
        <time>2011-05-01T09:12:47Z</time>
      </trkpt>
      <trkpt lat="59.2495239805" lon="17.1664009709">
        <ele>11.6</ele>
        <time>2011-05-01T09:12:50Z</time>
      </trkpt>
      <trkpt lat="59.2496849969" lon="17.1667799167">
        <ele>10.6</ele>
        <time>2011-05-01T09:12:53Z</time>
      </trkpt>
      <trkpt lat="59.2498349492" lon="17.1671819966">
        <ele>9.6</ele>
        <time>2011-05-01T09:12:56Z</time>
      </trkpt>
      <trkpt lat="59.24996797" lon="17.1676089708">
        <ele>8.6</ele>
        <time>2011-05-01T09:12:59Z</time>
      </trkpt>
      <trkpt lat="59.2500829697" lon="17.1680599172">
        <ele>8.6</ele>
        <time>2011-05-01T09:13:02Z</time>
      </trkpt>
      <trkpt lat="59.2501799483" lon="17.1685229335">
        <ele>8.2</ele>
        <time>2011-05-01T09:13:05Z</time>
      </trkpt>
      <trkpt lat="59.2502609175" lon="17.1689839382">
        <ele>7.8</ele>
        <time>2011-05-01T09:13:08Z</time>
      </trkpt>
      <trkpt lat="59.250331996" lon="17.1694469545">
        <ele>7.2</ele>
        <time>2011-05-01T09:13:11Z</time>
      </trkpt>
      <trkpt lat="59.2503789347" lon="17.1697639581">
        <ele>10.6</ele>
        <time>2011-05-01T09:13:13Z</time>
      </trkpt>
      <trkpt lat="59.2504219338" lon="17.1700859908">
        <ele>11.6</ele>
        <time>2011-05-01T09:13:15Z</time>
      </trkpt>
      <trkpt lat="59.2504879832" lon="17.1705659386">
        <ele>11.6</ele>
        <time>2011-05-01T09:13:18Z</time>
      </trkpt>
      <trkpt lat="59.2505599838" lon="17.1710339841">
        <ele>11</ele>
        <time>2011-05-01T09:13:21Z</time>
      </trkpt>
      <trkpt lat="59.2506369296" lon="17.1714809909">
        <ele>12</ele>
        <time>2011-05-01T09:13:24Z</time>
      </trkpt>
      <trkpt lat="59.2507219221" lon="17.1719059534">
        <ele>11.6</ele>
        <time>2011-05-01T09:13:27Z</time>
      </trkpt>
      <trkpt lat="59.2508149613" lon="17.1723129787">
        <ele>12.6</ele>
        <time>2011-05-01T09:13:30Z</time>
      </trkpt>
      <trkpt lat="59.2509179749" lon="17.1727049164">
        <ele>13</ele>
        <time>2011-05-01T09:13:33Z</time>
      </trkpt>
      <trkpt lat="59.2510289513" lon="17.1730879694">
        <ele>12.6</ele>
        <time>2011-05-01T09:13:36Z</time>
      </trkpt>
      <trkpt lat="59.2511529196" lon="17.1734649874">
        <ele>13.4</ele>
        <time>2011-05-01T09:13:39Z</time>
      </trkpt>
      <trkpt lat="59.2512889579" lon="17.173832953">
        <ele>13</ele>
        <time>2011-05-01T09:13:42Z</time>
      </trkpt>
      <trkpt lat="59.2514349706" lon="17.1741879266">
        <ele>13</ele>
        <time>2011-05-01T09:13:45Z</time>
      </trkpt>
      <trkpt lat="59.251589952" lon="17.1745289862">
        <ele>10.6</ele>
        <time>2011-05-01T09:13:48Z</time>
      </trkpt>
      <trkpt lat="59.2517549917" lon="17.1748579759">
        <ele>9.6</ele>
        <time>2011-05-01T09:13:51Z</time>
      </trkpt>
      <trkpt lat="59.2519269884" lon="17.1751809306">
        <ele>9.2</ele>
        <time>2011-05-01T09:13:54Z</time>
      </trkpt>
      <trkpt lat="59.2521019187" lon="17.1755059808">
        <ele>9.2</ele>
        <time>2011-05-01T09:13:57Z</time>
      </trkpt>
      <trkpt lat="59.252275927" lon="17.175837988">
        <ele>12.6</ele>
        <time>2011-05-01T09:14:00Z</time>
      </trkpt>
      <trkpt lat="59.2524489295" lon="17.1761849988">
        <ele>13</ele>
        <time>2011-05-01T09:14:03Z</time>
      </trkpt>
      <trkpt lat="59.2526209261" lon="17.1765439957">
        <ele>13</ele>
        <time>2011-05-01T09:14:06Z</time>
      </trkpt>
      <trkpt lat="59.2527879775" lon="17.1769159846">
        <ele>12</ele>
        <time>2011-05-01T09:14:09Z</time>
      </trkpt>
      <trkpt lat="59.252947988" lon="17.177309934">
        <ele>9.6</ele>
        <time>2011-05-01T09:14:12Z</time>
      </trkpt>
      <trkpt lat="59.2531089205" lon="17.1777169593">
        <ele>9.6</ele>
        <time>2011-05-01T09:14:15Z</time>
      </trkpt>
      <trkpt lat="59.2532639857" lon="17.1781449392">
        <ele>8.6</ele>
        <time>2011-05-01T09:14:18Z</time>
      </trkpt>
      <trkpt lat="59.253419973" lon="17.1785789542">
        <ele>7.2</ele>
        <time>2011-05-01T09:14:21Z</time>
      </trkpt>
      <trkpt lat="59.2534709349" lon="17.1787219495">
        <ele>6.8</ele>
        <time>2011-05-01T09:14:22Z</time>
      </trkpt>
      <trkpt lat="59.2536239885" lon="17.1791429725">
        <ele>6.8</ele>
        <time>2011-05-01T09:14:25Z</time>
      </trkpt>
      <trkpt lat="59.2536709271" lon="17.1792839561">
        <ele>6.2</ele>
        <time>2011-05-01T09:14:26Z</time>
      </trkpt>
      <trkpt lat="59.253784921" lon="17.1799079888">
        <ele>6.8</ele>
        <time>2011-05-01T09:14:30Z</time>
      </trkpt>
      <trkpt lat="59.253966976" lon="17.1802229807">
        <ele>5.4</ele>
        <time>2011-05-01T09:14:33Z</time>
      </trkpt>
      <trkpt lat="59.2540829815" lon="17.1804539859">
        <ele>5.8</ele>
        <time>2011-05-01T09:14:35Z</time>
      </trkpt>
      <trkpt lat="59.2542709876" lon="17.1809339337">
        <ele>3.8</ele>
        <time>2011-05-01T09:14:39Z</time>
      </trkpt>
      <trkpt lat="59.2544899229" lon="17.1811309922">
        <ele>5.8</ele>
        <time>2011-05-01T09:14:43Z</time>
      </trkpt>
      <trkpt lat="59.2546249554" lon="17.1810719837">
        <ele>5.4</ele>
        <time>2011-05-01T09:14:45Z</time>
      </trkpt>
      <trkpt lat="59.2549009714" lon="17.1808739193">
        <ele>5.4</ele>
        <time>2011-05-01T09:14:49Z</time>
      </trkpt>
      <trkpt lat="59.2550719623" lon="17.1806559898">
        <ele>5.4</ele>
        <time>2011-05-01T09:14:52Z</time>
      </trkpt>
      <trkpt lat="59.2552169692" lon="17.180396989">
        <ele>5.8</ele>
        <time>2011-05-01T09:14:55Z</time>
      </trkpt>
      <trkpt lat="59.255343955" lon="17.1801099926">
        <ele>6.2</ele>
        <time>2011-05-01T09:14:58Z</time>
      </trkpt>
      <trkpt lat="59.2554479744" lon="17.1797959227">
        <ele>6.8</ele>
        <time>2011-05-01T09:15:01Z</time>
      </trkpt>
      <trkpt lat="59.2555669975" lon="17.1794499177">
        <ele>5.8</ele>
        <time>2011-05-01T09:15:04Z</time>
      </trkpt>
      <trkpt lat="59.2556949891" lon="17.1790679544">
        <ele>6.8</ele>
        <time>2011-05-01T09:15:07Z</time>
      </trkpt>
      <trkpt lat="59.2558329552" lon="17.178674927">
        <ele>6.8</ele>
        <time>2011-05-01T09:15:10Z</time>
      </trkpt>
      <trkpt lat="59.255965976" lon="17.1782989986">
        <ele>7.2</ele>
        <time>2011-05-01T09:15:13Z</time>
      </trkpt>
      <trkpt lat="59.2560949735" lon="17.1779249981">
        <ele>7.2</ele>
        <time>2011-05-01T09:15:16Z</time>
      </trkpt>
      <trkpt lat="59.2562199477" lon="17.1775579546">
        <ele>8.2</ele>
        <time>2011-05-01T09:15:19Z</time>
      </trkpt>
      <trkpt lat="59.2563459277" lon="17.1771889832">
        <ele>8.6</ele>
        <time>2011-05-01T09:15:22Z</time>
      </trkpt>
      <trkpt lat="59.2564739194" lon="17.1768169943">
        <ele>8.6</ele>
        <time>2011-05-01T09:15:25Z</time>
      </trkpt>
      <trkpt lat="59.2566109635" lon="17.1764309239">
        <ele>8.6</ele>
        <time>2011-05-01T09:15:28Z</time>
      </trkpt>
      <trkpt lat="59.2567499354" lon="17.176027922">
        <ele>8.2</ele>
        <time>2011-05-01T09:15:31Z</time>
      </trkpt>
      <trkpt lat="59.2568799388" lon="17.1756549273">
        <ele>8.6</ele>
        <time>2011-05-01T09:15:34Z</time>
      </trkpt>
      <trkpt lat="59.2569999676" lon="17.1753069945">
        <ele>9.2</ele>
        <time>2011-05-01T09:15:37Z</time>
      </trkpt>
      <trkpt lat="59.2571319826" lon="17.174957972">
        <ele>8.6</ele>
        <time>2011-05-01T09:15:40Z</time>
      </trkpt>
      <trkpt lat="59.2572729662" lon="17.1746049263">
        <ele>9.2</ele>
        <time>2011-05-01T09:15:43Z</time>
      </trkpt>
      <trkpt lat="59.2574229185" lon="17.1742619388">
        <ele>9.6</ele>
        <time>2011-05-01T09:15:46Z</time>
      </trkpt>
      <trkpt lat="59.2575839348" lon="17.1739399899">
        <ele>9.6</ele>
        <time>2011-05-01T09:15:49Z</time>
      </trkpt>
      <trkpt lat="59.257745957" lon="17.1736349724">
        <ele>9.6</ele>
        <time>2011-05-01T09:15:52Z</time>
      </trkpt>
      <trkpt lat="59.2579099908" lon="17.1733479761">
        <ele>10.2</ele>
        <time>2011-05-01T09:15:55Z</time>
      </trkpt>
      <trkpt lat="59.2580819875" lon="17.1730579622">
        <ele>10.6</ele>
        <time>2011-05-01T09:15:58Z</time>
      </trkpt>
      <trkpt lat="59.25825499" lon="17.1727589797">
        <ele>10.2</ele>
        <time>2011-05-01T09:16:01Z</time>
      </trkpt>
      <trkpt lat="59.258431932" lon="17.1724559739">
        <ele>10.2</ele>
        <time>2011-05-01T09:16:04Z</time>
      </trkpt>
      <trkpt lat="59.2586049344" lon="17.1721529681">
        <ele>10.2</ele>
        <time>2011-05-01T09:16:07Z</time>
      </trkpt>
      <trkpt lat="59.2587759253" lon="17.1718599368">
        <ele>10.2</ele>
        <time>2011-05-01T09:16:10Z</time>
      </trkpt>
      <trkpt lat="59.2589379475" lon="17.1715729404">
        <ele>11</ele>
        <time>2011-05-01T09:16:13Z</time>
      </trkpt>
      <trkpt lat="59.2590969522" lon="17.1713009477">
        <ele>11</ele>
        <time>2011-05-01T09:16:16Z</time>
      </trkpt>
      <trkpt lat="59.2592579685" lon="17.1710289549">
        <ele>10.6</ele>
        <time>2011-05-01T09:16:19Z</time>
      </trkpt>
      <trkpt lat="59.2594169732" lon="17.1707549505">
        <ele>11</ele>
        <time>2011-05-01T09:16:22Z</time>
      </trkpt>
      <trkpt lat="59.2595759779" lon="17.1704759169">
        <ele>12</ele>
        <time>2011-05-01T09:16:25Z</time>
      </trkpt>
      <trkpt lat="59.2597389221" lon="17.1701989789">
        <ele>12</ele>
        <time>2011-05-01T09:16:28Z</time>
      </trkpt>
      <trkpt lat="59.2599019501" lon="17.1699179336">
        <ele>12.6</ele>
        <time>2011-05-01T09:16:31Z</time>
      </trkpt>
      <trkpt lat="59.2600589432" lon="17.1696409956">
        <ele>13.4</ele>
        <time>2011-05-01T09:16:34Z</time>
      </trkpt>
      <trkpt lat="59.2602159362" lon="17.1693789773">
        <ele>14</ele>
        <time>2011-05-01T09:16:37Z</time>
      </trkpt>
      <trkpt lat="59.2603709176" lon="17.169116959">
        <ele>15</ele>
        <time>2011-05-01T09:16:40Z</time>
      </trkpt>
      <trkpt lat="59.2605179362" lon="17.1688629873">
        <ele>15</ele>
        <time>2011-05-01T09:16:43Z</time>
      </trkpt>
      <trkpt lat="59.2606599256" lon="17.1686129551">
        <ele>15.4</ele>
        <time>2011-05-01T09:16:46Z</time>
      </trkpt>
      <trkpt lat="59.2607999872" lon="17.1683709696">
        <ele>16.8</ele>
        <time>2011-05-01T09:16:49Z</time>
      </trkpt>
      <trkpt lat="59.2609309964" lon="17.1681509446">
        <ele>17.8</ele>
        <time>2011-05-01T09:16:52Z</time>
      </trkpt>
      <trkpt lat="59.2610539589" lon="17.1679449175">
        <ele>18.8</ele>
        <time>2011-05-01T09:16:55Z</time>
      </trkpt>
      <trkpt lat="59.2611739878" lon="17.1677329391">
        <ele>19.8</ele>
        <time>2011-05-01T09:16:58Z</time>
      </trkpt>
      <trkpt lat="59.2612949386" lon="17.1675259899">
        <ele>20.8</ele>
        <time>2011-05-01T09:17:01Z</time>
      </trkpt>
      <trkpt lat="59.2614109442" lon="17.1673159394">
        <ele>21.6</ele>
        <time>2011-05-01T09:17:04Z</time>
      </trkpt>
      <trkpt lat="59.2615239322" lon="17.1671039611">
        <ele>21.6</ele>
        <time>2011-05-01T09:17:07Z</time>
      </trkpt>
      <trkpt lat="59.2616369203" lon="17.1668809187">
        <ele>22.6</ele>
        <time>2011-05-01T09:17:10Z</time>
      </trkpt>
      <trkpt lat="59.2617609724" lon="17.1666429564">
        <ele>22.6</ele>
        <time>2011-05-01T09:17:13Z</time>
      </trkpt>
      <trkpt lat="59.2618929874" lon="17.1663719695">
        <ele>22.2</ele>
        <time>2011-05-01T09:17:16Z</time>
      </trkpt>
      <trkpt lat="59.2620269302" lon="17.166079944">
        <ele>21.6</ele>
        <time>2011-05-01T09:17:19Z</time>
      </trkpt>
      <trkpt lat="59.2621619627" lon="17.1657849848">
        <ele>21.6</ele>
        <time>2011-05-01T09:17:22Z</time>
      </trkpt>
      <trkpt lat="59.262298923" lon="17.1654829849">
        <ele>22.2</ele>
        <time>2011-05-01T09:17:25Z</time>
      </trkpt>
      <trkpt lat="59.2624329496" lon="17.1651829965">
        <ele>22.2</ele>
        <time>2011-05-01T09:17:28Z</time>
      </trkpt>
      <trkpt lat="59.2625609413" lon="17.1648889594">
        <ele>22.2</ele>
        <time>2011-05-01T09:17:31Z</time>
      </trkpt>
      <trkpt lat="59.2626889329" lon="17.1645929944">
        <ele>22.6</ele>
        <time>2011-05-01T09:17:34Z</time>
      </trkpt>
      <trkpt lat="59.2628199421" lon="17.1643079259">
        <ele>22.6</ele>
        <time>2011-05-01T09:17:37Z</time>
      </trkpt>
      <trkpt lat="59.2629499454" lon="17.1640339214">
        <ele>22.2</ele>
        <time>2011-05-01T09:17:40Z</time>
      </trkpt>
      <trkpt lat="59.2630919348" lon="17.163765952">
        <ele>22.6</ele>
        <time>2011-05-01T09:17:43Z</time>
      </trkpt>
      <trkpt lat="59.2632449884" lon="17.163513992">
        <ele>22.6</ele>
        <time>2011-05-01T09:17:46Z</time>
      </trkpt>
      <trkpt lat="59.2634089384" lon="17.163268989">
        <ele>23.2</ele>
        <time>2011-05-01T09:17:49Z</time>
      </trkpt>
      <trkpt lat="59.2635789234" lon="17.1630309429">
        <ele>23.2</ele>
        <time>2011-05-01T09:17:52Z</time>
      </trkpt>
      <trkpt lat="59.2637559492" lon="17.1628359798">
        <ele>23.6</ele>
        <time>2011-05-01T09:17:55Z</time>
      </trkpt>
      <trkpt lat="59.2639309634" lon="17.162671946">
        <ele>24</ele>
        <time>2011-05-01T09:17:58Z</time>
      </trkpt>
      <trkpt lat="59.2641039658" lon="17.1625219937">
        <ele>25.6</ele>
        <time>2011-05-01T09:18:01Z</time>
      </trkpt>
      <trkpt lat="59.2642229889" lon="17.1624359954">
        <ele>25.6</ele>
        <time>2011-05-01T09:18:03Z</time>
      </trkpt>
      <trkpt lat="59.2644769605" lon="17.1622539405">
        <ele>25.6</ele>
        <time>2011-05-01T09:18:07Z</time>
      </trkpt>
      <trkpt lat="59.2646769527" lon="17.1620759927">
        <ele>25</ele>
        <time>2011-05-01T09:18:10Z</time>
      </trkpt>
      <trkpt lat="59.2648729216" lon="17.1619009785">
        <ele>26</ele>
        <time>2011-05-01T09:18:13Z</time>
      </trkpt>
      <trkpt lat="59.2650639452" lon="17.1617309935">
        <ele>27</ele>
        <time>2011-05-01T09:18:16Z</time>
      </trkpt>
      <trkpt lat="59.2652609199" lon="17.1615729947">
        <ele>28</ele>
        <time>2011-05-01T09:18:19Z</time>
      </trkpt>
      <trkpt lat="59.2654479202" lon="17.1614129841">
        <ele>28</ele>
        <time>2011-05-01T09:18:22Z</time>
      </trkpt>
      <trkpt lat="59.2656269576" lon="17.1612609364">
        <ele>28.4</ele>
        <time>2011-05-01T09:18:25Z</time>
      </trkpt>
      <trkpt lat="59.2658079229" lon="17.16111199">
        <ele>28.8</ele>
        <time>2011-05-01T09:18:28Z</time>
      </trkpt>
      <trkpt lat="59.2659909837" lon="17.160955919">
        <ele>28.8</ele>
        <time>2011-05-01T09:18:31Z</time>
      </trkpt>
      <trkpt lat="59.2661699373" lon="17.1608079784">
        <ele>28</ele>
        <time>2011-05-01T09:18:34Z</time>
      </trkpt>
      <trkpt lat="59.2663549259" lon="17.1606509853">
        <ele>28</ele>
        <time>2011-05-01T09:18:37Z</time>
      </trkpt>
      <trkpt lat="59.2665409204" lon="17.1605059784">
        <ele>28.8</ele>
        <time>2011-05-01T09:18:40Z</time>
      </trkpt>
      <trkpt lat="59.2667279206" lon="17.1603529248">
        <ele>27</ele>
        <time>2011-05-01T09:18:43Z</time>
      </trkpt>
      <trkpt lat="59.2667919584" lon="17.1603019629">
        <ele>27.4</ele>
        <time>2011-05-01T09:18:44Z</time>
      </trkpt>
      <trkpt lat="59.2669849936" lon="17.1601559501">
        <ele>28.4</ele>
        <time>2011-05-01T09:18:47Z</time>
      </trkpt>
      <trkpt lat="59.2671719939" lon="17.1600329876">
        <ele>29.4</ele>
        <time>2011-05-01T09:18:50Z</time>
      </trkpt>
      <trkpt lat="59.2673619278" lon="17.1599329915">
        <ele>28.8</ele>
        <time>2011-05-01T09:18:53Z</time>
      </trkpt>
      <trkpt lat="59.2674939428" lon="17.1598739829">
        <ele>32.2</ele>
        <time>2011-05-01T09:18:55Z</time>
      </trkpt>
      <trkpt lat="59.26756192" lon="17.1598379407">
        <ele>31.8</ele>
        <time>2011-05-01T09:18:56Z</time>
      </trkpt>
      <trkpt lat="59.2677739821" lon="17.1597309876">
        <ele>30.8</ele>
        <time>2011-05-01T09:18:59Z</time>
      </trkpt>
      <trkpt lat="59.267988978" lon="17.1596299857">
        <ele>30.8</ele>
        <time>2011-05-01T09:19:02Z</time>
      </trkpt>
      <trkpt lat="59.2682109307" lon="17.1595229488">
        <ele>29.8</ele>
        <time>2011-05-01T09:19:05Z</time>
      </trkpt>
      <trkpt lat="59.2684359848" lon="17.1593969688">
        <ele>27.4</ele>
        <time>2011-05-01T09:19:08Z</time>
      </trkpt>
      <trkpt lat="59.2686579376" lon="17.1592409816">
        <ele>27.4</ele>
        <time>2011-05-01T09:19:11Z</time>
      </trkpt>
      <trkpt lat="59.2688729335" lon="17.1590489522">
        <ele>26.4</ele>
        <time>2011-05-01T09:19:14Z</time>
      </trkpt>
      <trkpt lat="59.2690839898" lon="17.1588019375">
        <ele>26.4</ele>
        <time>2011-05-01T09:19:17Z</time>
      </trkpt>
      <trkpt lat="59.2692769412" lon="17.1585159469">
        <ele>26.4</ele>
        <time>2011-05-01T09:19:20Z</time>
      </trkpt>
      <trkpt lat="59.269447932" lon="17.15820699">
        <ele>27.4</ele>
        <time>2011-05-01T09:19:23Z</time>
      </trkpt>
      <trkpt lat="59.2696119659" lon="17.1578709595">
        <ele>28</ele>
        <time>2011-05-01T09:19:26Z</time>
      </trkpt>
      <trkpt lat="59.2697629239" lon="17.1575229429">
        <ele>28.8</ele>
        <time>2011-05-01T09:19:29Z</time>
      </trkpt>
      <trkpt lat="59.2698899936" lon="17.1571869962">
        <ele>29.4</ele>
        <time>2011-05-01T09:19:32Z</time>
      </trkpt>
      <trkpt lat="59.2699959408" lon="17.1568699926">
        <ele>30.4</ele>
        <time>2011-05-01T09:19:35Z</time>
      </trkpt>
      <trkpt lat="59.2700719647" lon="17.1566659771">
        <ele>30.4</ele>
        <time>2011-05-01T09:19:37Z</time>
      </trkpt>
      <trkpt lat="59.2701409478" lon="17.1564259194">
        <ele>30.4</ele>
        <time>2011-05-01T09:19:39Z</time>
      </trkpt>
      <trkpt lat="59.2702489905" lon="17.1558739711">
        <ele>29.4</ele>
        <time>2011-05-01T09:19:43Z</time>
      </trkpt>
      <trkpt lat="59.2703119386" lon="17.1554079372">
        <ele>29.4</ele>
        <time>2011-05-01T09:19:46Z</time>
      </trkpt>
      <trkpt lat="59.2703699414" lon="17.1549009997">
        <ele>28.4</ele>
        <time>2011-05-01T09:19:49Z</time>
      </trkpt>
      <trkpt lat="59.2704339791" lon="17.1543739457">
        <ele>27</ele>
        <time>2011-05-01T09:19:52Z</time>
      </trkpt>
      <trkpt lat="59.2704819236" lon="17.1540059801">
        <ele>25.6</ele>
        <time>2011-05-01T09:19:54Z</time>
      </trkpt>
      <trkpt lat="59.2705629766" lon="17.1534609888">
        <ele>25.6</ele>
        <time>2011-05-01T09:19:57Z</time>
      </trkpt>
      <trkpt lat="59.270635983" lon="17.1529159974">
        <ele>25</ele>
        <time>2011-05-01T09:20:00Z</time>
      </trkpt>
      <trkpt lat="59.2707079835" lon="17.1523989178">
        <ele>24.6</ele>
        <time>2011-05-01T09:20:03Z</time>
      </trkpt>
      <trkpt lat="59.2707799841" lon="17.1518959198">
        <ele>25</ele>
        <time>2011-05-01T09:20:06Z</time>
      </trkpt>
      <trkpt lat="59.2708409205" lon="17.1514059976">
        <ele>26</ele>
        <time>2011-05-01T09:20:09Z</time>
      </trkpt>
      <trkpt lat="59.2709049582" lon="17.1509149857">
        <ele>25.6</ele>
        <time>2011-05-01T09:20:12Z</time>
      </trkpt>
      <trkpt lat="59.2709769588" lon="17.1504149213">
        <ele>25.6</ele>
        <time>2011-05-01T09:20:15Z</time>
      </trkpt>
      <trkpt lat="59.2710659746" lon="17.1499029547">
        <ele>24</ele>
        <time>2011-05-01T09:20:18Z</time>
      </trkpt>
      <trkpt lat="59.271101933" lon="17.1497329697">
        <ele>23.6</ele>
        <time>2011-05-01T09:20:19Z</time>
      </trkpt>
      <trkpt lat="59.2712239735" lon="17.1492309775">
        <ele>22.6</ele>
        <time>2011-05-01T09:20:22Z</time>
      </trkpt>
      <trkpt lat="59.2714699823" lon="17.1484069526">
        <ele>21.2</ele>
        <time>2011-05-01T09:20:27Z</time>
      </trkpt>
      <trkpt lat="59.271522956" lon="17.1482419968">
        <ele>21.2</ele>
        <time>2011-05-01T09:20:28Z</time>
      </trkpt>
      <trkpt lat="59.271679949" lon="17.1477399208">
        <ele>20.8</ele>
        <time>2011-05-01T09:20:31Z</time>
      </trkpt>
      <trkpt lat="59.2718369421" lon="17.1472349949">
        <ele>19.2</ele>
        <time>2011-05-01T09:20:34Z</time>
      </trkpt>
      <trkpt lat="59.2719929293" lon="17.1467319969">
        <ele>18.4</ele>
        <time>2011-05-01T09:20:37Z</time>
      </trkpt>
      <trkpt lat="59.2721499223" lon="17.1462359559">
        <ele>18.4</ele>
        <time>2011-05-01T09:20:40Z</time>
      </trkpt>
      <trkpt lat="59.2723099329" lon="17.1457349695">
        <ele>16.8</ele>
        <time>2011-05-01T09:20:43Z</time>
      </trkpt>
      <trkpt lat="59.2724649981" lon="17.1452619787">
        <ele>16.4</ele>
        <time>2011-05-01T09:20:46Z</time>
      </trkpt>
      <trkpt lat="59.2726119328" lon="17.1447989624">
        <ele>19.2</ele>
        <time>2011-05-01T09:20:49Z</time>
      </trkpt>
      <trkpt lat="59.2727309559" lon="17.1443299949">
        <ele>18.4</ele>
        <time>2011-05-01T09:20:52Z</time>
      </trkpt>
      <trkpt lat="59.2728259228" lon="17.1438489575">
        <ele>17.8</ele>
        <time>2011-05-01T09:20:55Z</time>
      </trkpt>
      <trkpt lat="59.2729149386" lon="17.1433529165">
        <ele>17.4</ele>
        <time>2011-05-01T09:20:58Z</time>
      </trkpt>
      <trkpt lat="59.2729999311" lon="17.1428479906">
        <ele>15</ele>
        <time>2011-05-01T09:21:01Z</time>
      </trkpt>
      <trkpt lat="59.2730269209" lon="17.1426779218">
        <ele>14.4</ele>
        <time>2011-05-01T09:21:02Z</time>
      </trkpt>
      <trkpt lat="59.2731049564" lon="17.1421429887">
        <ele>14.4</ele>
        <time>2011-05-01T09:21:05Z</time>
      </trkpt>
      <trkpt lat="59.2731699999" lon="17.1415909566">
        <ele>14</ele>
        <time>2011-05-01T09:21:08Z</time>
      </trkpt>
      <trkpt lat="59.2732199561" lon="17.1410369966">
        <ele>15.4</ele>
        <time>2011-05-01T09:21:11Z</time>
      </trkpt>
      <trkpt lat="59.2732359655" lon="17.1408549417">
        <ele>15.4</ele>
        <time>2011-05-01T09:21:12Z</time>
      </trkpt>
      <trkpt lat="59.2732849997" lon="17.140311962">
        <ele>15</ele>
        <time>2011-05-01T09:21:15Z</time>
      </trkpt>
      <trkpt lat="59.2733309325" lon="17.1397729218">
        <ele>15.4</ele>
        <time>2011-05-01T09:21:18Z</time>
      </trkpt>
      <trkpt lat="59.2733749375" lon="17.1392379887">
        <ele>15.8</ele>
        <time>2011-05-01T09:21:21Z</time>
      </trkpt>
      <trkpt lat="59.2734049447" lon="17.1387029719">
        <ele>15.4</ele>
        <time>2011-05-01T09:21:24Z</time>
      </trkpt>
      <trkpt lat="59.2734059505" lon="17.1381639317">
        <ele>15</ele>
        <time>2011-05-01T09:21:27Z</time>
      </trkpt>
      <trkpt lat="59.2733739316" lon="17.1376249753">
        <ele>14.4</ele>
        <time>2011-05-01T09:21:30Z</time>
      </trkpt>
      <trkpt lat="59.2733079661" lon="17.1371059678">
        <ele>15</ele>
        <time>2011-05-01T09:21:33Z</time>
      </trkpt>
      <trkpt lat="59.2732259911" lon="17.136608921">
        <ele>14.4</ele>
        <time>2011-05-01T09:21:36Z</time>
      </trkpt>
      <trkpt lat="59.2731299344" lon="17.1361289732">
        <ele>14.4</ele>
        <time>2011-05-01T09:21:39Z</time>
      </trkpt>
      <trkpt lat="59.2730539944" lon="17.1358199324">
        <ele>15.8</ele>
        <time>2011-05-01T09:21:41Z</time>
      </trkpt>
      <trkpt lat="59.2729279306" lon="17.1353689861">
        <ele>15.4</ele>
        <time>2011-05-01T09:21:44Z</time>
      </trkpt>
      <trkpt lat="59.2727929819" lon="17.1349109989">
        <ele>15</ele>
        <time>2011-05-01T09:21:47Z</time>
      </trkpt>
      <trkpt lat="59.2726459634" lon="17.1344509162">
        <ele>15</ele>
        <time>2011-05-01T09:21:50Z</time>
      </trkpt>
      <trkpt lat="59.2724859528" lon="17.1339829545">
        <ele>13</ele>
        <time>2011-05-01T09:21:53Z</time>
      </trkpt>
      <trkpt lat="59.272321919" lon="17.1334939543">
        <ele>12.6</ele>
        <time>2011-05-01T09:21:56Z</time>
      </trkpt>
      <trkpt lat="59.2722719628" lon="17.1333219577">
        <ele>12</ele>
        <time>2011-05-01T09:21:57Z</time>
      </trkpt>
      <trkpt lat="59.272151934" lon="17.132558953">
        <ele>11</ele>
        <time>2011-05-01T09:22:01Z</time>
      </trkpt>
      <trkpt lat="59.2721359245" lon="17.1321569569">
        <ele>10.2</ele>
        <time>2011-05-01T09:22:03Z</time>
      </trkpt>
      <trkpt lat="59.2721739784" lon="17.131539965">
        <ele>9.6</ele>
        <time>2011-05-01T09:22:06Z</time>
      </trkpt>
      <trkpt lat="59.2722899839" lon="17.1309599373">
        <ele>8.6</ele>
        <time>2011-05-01T09:22:09Z</time>
      </trkpt>
      <trkpt lat="59.2724699434" lon="17.1304379962">
        <ele>7.2</ele>
        <time>2011-05-01T09:22:12Z</time>
      </trkpt>
      <trkpt lat="59.2727329675" lon="17.1297969483">
        <ele>7.2</ele>
        <time>2011-05-01T09:22:16Z</time>
      </trkpt>
      <trkpt lat="59.2729239911" lon="17.1293199342">
        <ele>5.4</ele>
        <time>2011-05-01T09:22:19Z</time>
      </trkpt>
      <trkpt lat="59.2731079739" lon="17.1288519725">
        <ele>5.4</ele>
        <time>2011-05-01T09:22:22Z</time>
      </trkpt>
      <trkpt lat="59.2732869275" lon="17.1283879504">
        <ele>4.8</ele>
        <time>2011-05-01T09:22:25Z</time>
      </trkpt>
      <trkpt lat="59.2734679766" lon="17.127930969">
        <ele>4.4</ele>
        <time>2011-05-01T09:22:28Z</time>
      </trkpt>
      <trkpt lat="59.2736489419" lon="17.1274679527">
        <ele>3.8</ele>
        <time>2011-05-01T09:22:31Z</time>
      </trkpt>
      <trkpt lat="59.2738289852" lon="17.1270079538">
        <ele>4.4</ele>
        <time>2011-05-01T09:22:34Z</time>
      </trkpt>
      <trkpt lat="59.2740039993" lon="17.1265599411">
        <ele>3.8</ele>
        <time>2011-05-01T09:22:37Z</time>
      </trkpt>
      <trkpt lat="59.274169961" lon="17.1261229925">
        <ele>4.4</ele>
        <time>2011-05-01T09:22:40Z</time>
      </trkpt>
      <trkpt lat="59.2743319832" lon="17.1257009637">
        <ele>4.4</ele>
        <time>2011-05-01T09:22:43Z</time>
      </trkpt>
      <trkpt lat="59.2744959332" lon="17.1252819523">
        <ele>4.4</ele>
        <time>2011-05-01T09:22:46Z</time>
      </trkpt>
      <trkpt lat="59.2746609729" lon="17.124868976">
        <ele>4.4</ele>
        <time>2011-05-01T09:22:49Z</time>
      </trkpt>
      <trkpt lat="59.2748219892" lon="17.1244529821">
        <ele>4.8</ele>
        <time>2011-05-01T09:22:52Z</time>
      </trkpt>
      <trkpt lat="59.2749799881" lon="17.1240339708">
        <ele>5.8</ele>
        <time>2011-05-01T09:22:55Z</time>
      </trkpt>
      <trkpt lat="59.2751419265" lon="17.12363692">
        <ele>6.2</ele>
        <time>2011-05-01T09:22:58Z</time>
      </trkpt>
      <trkpt lat="59.2752979975" lon="17.1232549567">
        <ele>6.8</ele>
        <time>2011-05-01T09:23:01Z</time>
      </trkpt>
      <trkpt lat="59.2754559964" lon="17.1228789445">
        <ele>6.8</ele>
        <time>2011-05-01T09:23:04Z</time>
      </trkpt>
      <trkpt lat="59.2756109778" lon="17.122510979">
        <ele>6.8</ele>
        <time>2011-05-01T09:23:07Z</time>
      </trkpt>
      <trkpt lat="59.2757659592" lon="17.1221499704">
        <ele>7.2</ele>
        <time>2011-05-01T09:23:10Z</time>
      </trkpt>
      <trkpt lat="59.2759189289" lon="17.1218019538">
        <ele>7.8</ele>
        <time>2011-05-01T09:23:13Z</time>
      </trkpt>
      <trkpt lat="59.2760679591" lon="17.1214659233">
        <ele>8.2</ele>
        <time>2011-05-01T09:23:16Z</time>
      </trkpt>
      <trkpt lat="59.2762159836" lon="17.1211319882">
        <ele>8.6</ele>
        <time>2011-05-01T09:23:19Z</time>
      </trkpt>
      <trkpt lat="59.2763669416" lon="17.1208029985">
        <ele>9.2</ele>
        <time>2011-05-01T09:23:22Z</time>
      </trkpt>
      <trkpt lat="59.2765229288" lon="17.1204829775">
        <ele>9.2</ele>
        <time>2011-05-01T09:23:25Z</time>
      </trkpt>
      <trkpt lat="59.2766879685" lon="17.1201639622">
        <ele>9.2</ele>
        <time>2011-05-01T09:23:28Z</time>
      </trkpt>
      <trkpt lat="59.2768539302" lon="17.1198299434">
        <ele>9.6</ele>
        <time>2011-05-01T09:23:31Z</time>
      </trkpt>
      <trkpt lat="59.2770179641" lon="17.1194959246">
        <ele>9.2</ele>
        <time>2011-05-01T09:23:34Z</time>
      </trkpt>
      <trkpt lat="59.2771829199" lon="17.1191619895">
        <ele>9.2</ele>
        <time>2011-05-01T09:23:37Z</time>
      </trkpt>
      <trkpt lat="59.2773469537" lon="17.1188309882">
        <ele>9.2</ele>
        <time>2011-05-01T09:23:40Z</time>
      </trkpt>
      <trkpt lat="59.2775119934" lon="17.1185099613">
        <ele>9.6</ele>
        <time>2011-05-01T09:23:43Z</time>
      </trkpt>
      <trkpt lat="59.2776759434" lon="17.1181959752">
        <ele>9.6</ele>
        <time>2011-05-01T09:23:46Z</time>
      </trkpt>
      <trkpt lat="59.2778409831" lon="17.1178789716">
        <ele>10.2</ele>
        <time>2011-05-01T09:23:49Z</time>
      </trkpt>
      <trkpt lat="59.2780109681" lon="17.1175659914">
        <ele>10.6</ele>
        <time>2011-05-01T09:23:52Z</time>
      </trkpt>
      <trkpt lat="59.2781779356" lon="17.1172579564">
        <ele>12.6</ele>
        <time>2011-05-01T09:23:55Z</time>
      </trkpt>
      <trkpt lat="59.2782929353" lon="17.1170519292">
        <ele>13</ele>
        <time>2011-05-01T09:23:57Z</time>
      </trkpt>
      <trkpt lat="59.278464932" lon="17.1167479176">
        <ele>13.4</ele>
        <time>2011-05-01T09:24:00Z</time>
      </trkpt>
      <trkpt lat="59.2786379345" lon="17.1164449956">
        <ele>13</ele>
        <time>2011-05-01T09:24:03Z</time>
      </trkpt>
      <trkpt lat="59.2788129486" lon="17.1161399782">
        <ele>12.6</ele>
        <time>2011-05-01T09:24:06Z</time>
      </trkpt>
      <trkpt lat="59.2789949197" lon="17.1158369724">
        <ele>13.4</ele>
        <time>2011-05-01T09:24:09Z</time>
      </trkpt>
      <trkpt lat="59.27918192" lon="17.1155279316">
        <ele>13.4</ele>
        <time>2011-05-01T09:24:12Z</time>
      </trkpt>
      <trkpt lat="59.2793689203" lon="17.115203971">
        <ele>13.4</ele>
        <time>2011-05-01T09:24:15Z</time>
      </trkpt>
      <trkpt lat="59.2795549985" lon="17.1148789208">
        <ele>14.4</ele>
        <time>2011-05-01T09:24:18Z</time>
      </trkpt>
      <trkpt lat="59.2797489557" lon="17.1145589836">
        <ele>14.4</ele>
        <time>2011-05-01T09:24:21Z</time>
      </trkpt>
      <trkpt lat="59.2799409851" lon="17.1142389625">
        <ele>14</ele>
        <time>2011-05-01T09:24:24Z</time>
      </trkpt>
      <trkpt lat="59.2801339366" lon="17.113915924">
        <ele>13</ele>
        <time>2011-05-01T09:24:27Z</time>
      </trkpt>
      <trkpt lat="59.2801989801" lon="17.1138059534">
        <ele>13</ele>
        <time>2011-05-01T09:24:28Z</time>
      </trkpt>
      <trkpt lat="59.2803929374" lon="17.1134799812">
        <ele>13</ele>
        <time>2011-05-01T09:24:31Z</time>
      </trkpt>
      <trkpt lat="59.2805829551" lon="17.1131619718">
        <ele>13</ele>
        <time>2011-05-01T09:24:34Z</time>
      </trkpt>
      <trkpt lat="59.2807709612" lon="17.1128499974">
        <ele>13</ele>
        <time>2011-05-01T09:24:37Z</time>
      </trkpt>
      <trkpt lat="59.2809589673" lon="17.1125459857">
        <ele>12.6</ele>
        <time>2011-05-01T09:24:40Z</time>
      </trkpt>
      <trkpt lat="59.2811469734" lon="17.1122559719">
        <ele>12.6</ele>
        <time>2011-05-01T09:24:43Z</time>
      </trkpt>
      <trkpt lat="59.2813379969" lon="17.1119869966">
        <ele>12.6</ele>
        <time>2011-05-01T09:24:46Z</time>
      </trkpt>
      <trkpt lat="59.2815439403" lon="17.1117239725">
        <ele>12.6</ele>
        <time>2011-05-01T09:24:49Z</time>
      </trkpt>
      <trkpt lat="59.2817479558" lon="17.1114489622">
        <ele>12.6</ele>
        <time>2011-05-01T09:24:52Z</time>
      </trkpt>
      <trkpt lat="59.2819579225" lon="17.1112189628">
        <ele>12.6</ele>
        <time>2011-05-01T09:24:55Z</time>
      </trkpt>
      <trkpt lat="59.2821729183" lon="17.1109849401">
        <ele>13</ele>
        <time>2011-05-01T09:24:58Z</time>
      </trkpt>
      <trkpt lat="59.2823929433" lon="17.110745972">
        <ele>12.6</ele>
        <time>2011-05-01T09:25:01Z</time>
      </trkpt>
      <trkpt lat="59.2825979646" lon="17.110538939">
        <ele>12.6</ele>
        <time>2011-05-01T09:25:04Z</time>
      </trkpt>
      <trkpt lat="59.282802986" lon="17.1103639249">
        <ele>12</ele>
        <time>2011-05-01T09:25:07Z</time>
      </trkpt>
      <trkpt lat="59.2831079196" lon="17.1102759987">
        <ele>11.6</ele>
        <time>2011-05-01T09:25:11Z</time>
      </trkpt>
      <trkpt lat="59.2833329737" lon="17.1103369351">
        <ele>11</ele>
        <time>2011-05-01T09:25:14Z</time>
      </trkpt>
      <trkpt lat="59.2835439462" lon="17.110500969">
        <ele>11.6</ele>
        <time>2011-05-01T09:25:17Z</time>
      </trkpt>
      <trkpt lat="59.2836649809" lon="17.1106609795">
        <ele>11.6</ele>
        <time>2011-05-01T09:25:19Z</time>
      </trkpt>
      <trkpt lat="59.2838249914" lon="17.1109469701">
        <ele>10.2</ele>
        <time>2011-05-01T09:25:22Z</time>
      </trkpt>
      <trkpt lat="59.2839699984" lon="17.1113849245">
        <ele>10.2</ele>
        <time>2011-05-01T09:25:26Z</time>
      </trkpt>
      <trkpt lat="59.2839959823" lon="17.1114999242">
        <ele>10.2</ele>
        <time>2011-05-01T09:25:27Z</time>
      </trkpt>
      <trkpt lat="59.2841699906" lon="17.1118169278">
        <ele>11</ele>
        <time>2011-05-01T09:25:31Z</time>
      </trkpt>
      <trkpt lat="59.2843619362" lon="17.1117489506">
        <ele>10.6</ele>
        <time>2011-05-01T09:25:34Z</time>
      </trkpt>
      <trkpt lat="59.2846149858" lon="17.1114839986">
        <ele>10.6</ele>
        <time>2011-05-01T09:25:38Z</time>
      </trkpt>
      <trkpt lat="59.2847999744" lon="17.111299932">
        <ele>11</ele>
        <time>2011-05-01T09:25:41Z</time>
      </trkpt>
      <trkpt lat="59.2849809397" lon="17.1111069806">
        <ele>11</ele>
        <time>2011-05-01T09:25:44Z</time>
      </trkpt>
      <trkpt lat="59.2851619888" lon="17.1108989418">
        <ele>11</ele>
        <time>2011-05-01T09:25:47Z</time>
      </trkpt>
      <trkpt lat="59.2853439599" lon="17.1106699482">
        <ele>12</ele>
        <time>2011-05-01T09:25:50Z</time>
      </trkpt>
      <trkpt lat="59.2855309602" lon="17.1104499232">
        <ele>12</ele>
        <time>2011-05-01T09:25:53Z</time>
      </trkpt>
      <trkpt lat="59.2857199721" lon="17.1102399565">
        <ele>13.4</ele>
        <time>2011-05-01T09:25:56Z</time>
      </trkpt>
      <trkpt lat="59.2858499754" lon="17.1100959554">
        <ele>15.4</ele>
        <time>2011-05-01T09:25:58Z</time>
      </trkpt>
      <trkpt lat="59.2860489618" lon="17.1098749246">
        <ele>15.4</ele>
        <time>2011-05-01T09:26:01Z</time>
      </trkpt>
      <trkpt lat="59.286248954" lon="17.1096669696">
        <ele>15.4</ele>
        <time>2011-05-01T09:26:04Z</time>
      </trkpt>
      <trkpt lat="59.2864509579" lon="17.1094859205">
        <ele>15.4</ele>
        <time>2011-05-01T09:26:07Z</time>
      </trkpt>
      <trkpt lat="59.2866479326" lon="17.109331945">
        <ele>15.8</ele>
        <time>2011-05-01T09:26:10Z</time>
      </trkpt>
      <trkpt lat="59.286852954" lon="17.1091959905">
        <ele>16.8</ele>
        <time>2011-05-01T09:26:13Z</time>
      </trkpt>
      <trkpt lat="59.2870489229" lon="17.1090769675">
        <ele>15.8</ele>
        <time>2011-05-01T09:26:16Z</time>
      </trkpt>
      <trkpt lat="59.2871769983" lon="17.1090069786">
        <ele>15</ele>
        <time>2011-05-01T09:26:18Z</time>
      </trkpt>
      <trkpt lat="59.2873619869" lon="17.1089139394">
        <ele>16.8</ele>
        <time>2011-05-01T09:26:21Z</time>
      </trkpt>
      <trkpt lat="59.2874229234" lon="17.1088869497">
        <ele>16.8</ele>
        <time>2011-05-01T09:26:22Z</time>
      </trkpt>
      <trkpt lat="59.2876019608" lon="17.1088139433">
        <ele>16.8</ele>
        <time>2011-05-01T09:26:25Z</time>
      </trkpt>
      <trkpt lat="59.2877779808" lon="17.1087549347">
        <ele>17.4</ele>
        <time>2011-05-01T09:26:28Z</time>
      </trkpt>
      <trkpt lat="59.2879499774" lon="17.1087019611">
        <ele>18.8</ele>
        <time>2011-05-01T09:26:31Z</time>
      </trkpt>
      <trkpt lat="59.2880079802" lon="17.1086869575">
        <ele>19.2</ele>
        <time>2011-05-01T09:26:32Z</time>
      </trkpt>
      <trkpt lat="59.288178971" lon="17.10864597">
        <ele>19.8</ele>
        <time>2011-05-01T09:26:35Z</time>
      </trkpt>
      <trkpt lat="59.2883469444" lon="17.108614957">
        <ele>19.8</ele>
        <time>2011-05-01T09:26:38Z</time>
      </trkpt>
      <trkpt lat="59.2885079607" lon="17.1085789986">
        <ele>18.8</ele>
        <time>2011-05-01T09:26:41Z</time>
      </trkpt>
      <trkpt lat="59.2886579968" lon="17.1085489914">
        <ele>20.8</ele>
        <time>2011-05-01T09:26:44Z</time>
      </trkpt>
      <trkpt lat="59.2888089549" lon="17.1085219178">
        <ele>21.2</ele>
        <time>2011-05-01T09:26:47Z</time>
      </trkpt>
      <trkpt lat="59.2890079413" lon="17.1084919944">
        <ele>22.6</ele>
        <time>2011-05-01T09:26:51Z</time>
      </trkpt>
      <trkpt lat="59.2892069276" lon="17.1084629931">
        <ele>22.6</ele>
        <time>2011-05-01T09:26:55Z</time>
      </trkpt>
      <trkpt lat="59.2893599812" lon="17.1084409487">
        <ele>23.6</ele>
        <time>2011-05-01T09:26:58Z</time>
      </trkpt>
      <trkpt lat="59.2895189859" lon="17.1084229276">
        <ele>24.6</ele>
        <time>2011-05-01T09:27:01Z</time>
      </trkpt>
      <trkpt lat="59.2896839418" lon="17.1084029786">
        <ele>25.6</ele>
        <time>2011-05-01T09:27:04Z</time>
      </trkpt>
      <trkpt lat="59.2898539267" lon="17.1083799284">
        <ele>26</ele>
        <time>2011-05-01T09:27:07Z</time>
      </trkpt>
      <trkpt lat="59.2900299467" lon="17.1083469875">
        <ele>26.4</ele>
        <time>2011-05-01T09:27:10Z</time>
      </trkpt>
      <trkpt lat="59.2902109958" lon="17.1083179861">
        <ele>25.6</ele>
        <time>2011-05-01T09:27:13Z</time>
      </trkpt>
      <trkpt lat="59.2903949786" lon="17.1082939301">
        <ele>26</ele>
        <time>2011-05-01T09:27:16Z</time>
      </trkpt>
      <trkpt lat="59.2905859184" lon="17.1082669403">
        <ele>25.6</ele>
        <time>2011-05-01T09:27:19Z</time>
      </trkpt>
      <trkpt lat="59.2907829769" lon="17.1082359273">
        <ele>24.6</ele>
        <time>2011-05-01T09:27:22Z</time>
      </trkpt>
      <trkpt lat="59.2909829691" lon="17.1082089376">
        <ele>26</ele>
        <time>2011-05-01T09:27:25Z</time>
      </trkpt>
      <trkpt lat="59.2911929358" lon="17.1081819478">
        <ele>24.6</ele>
        <time>2011-05-01T09:27:28Z</time>
      </trkpt>
      <trkpt lat="59.2914059199" lon="17.1081469953">
        <ele>24.6</ele>
        <time>2011-05-01T09:27:31Z</time>
      </trkpt>
      <trkpt lat="59.2916169763" lon="17.1081009787">
        <ele>25.6</ele>
        <time>2011-05-01T09:27:34Z</time>
      </trkpt>
      <trkpt lat="59.2918249313" lon="17.1080449875">
        <ele>25.6</ele>
        <time>2011-05-01T09:27:37Z</time>
      </trkpt>
      <trkpt lat="59.2920309585" lon="17.1079629287">
        <ele>25</ele>
        <time>2011-05-01T09:27:40Z</time>
      </trkpt>
      <trkpt lat="59.2922369856" lon="17.1078669559">
        <ele>26</ele>
        <time>2011-05-01T09:27:43Z</time>
      </trkpt>
      <trkpt lat="59.2924399953" lon="17.1077489387">
        <ele>27.4</ele>
        <time>2011-05-01T09:27:46Z</time>
      </trkpt>
      <trkpt lat="59.2925069667" lon="17.1077069454">
        <ele>27</ele>
        <time>2011-05-01T09:27:47Z</time>
      </trkpt>
      <trkpt lat="59.2927079648" lon="17.1075689793">
        <ele>28</ele>
        <time>2011-05-01T09:27:50Z</time>
      </trkpt>
      <trkpt lat="59.2929059453" lon="17.1074109804">
        <ele>28.4</ele>
        <time>2011-05-01T09:27:53Z</time>
      </trkpt>
      <trkpt lat="59.2931039259" lon="17.1072369721">
        <ele>28.8</ele>
        <time>2011-05-01T09:27:56Z</time>
      </trkpt>
      <trkpt lat="59.2932999786" lon="17.107042931">
        <ele>29.4</ele>
        <time>2011-05-01T09:27:59Z</time>
      </trkpt>
      <trkpt lat="59.2934879847" lon="17.1068279352">
        <ele>29.4</ele>
        <time>2011-05-01T09:28:02Z</time>
      </trkpt>
      <trkpt lat="59.29366895" lon="17.1065989416">
        <ele>28.8</ele>
        <time>2011-05-01T09:28:05Z</time>
      </trkpt>
      <trkpt lat="59.2938439641" lon="17.1063559502">
        <ele>28.8</ele>
        <time>2011-05-01T09:28:08Z</time>
      </trkpt>
      <trkpt lat="59.2940119375" lon="17.1060999669">
        <ele>29.8</ele>
        <time>2011-05-01T09:28:11Z</time>
      </trkpt>
      <trkpt lat="59.2941759713" lon="17.1058299858">
        <ele>29.4</ele>
        <time>2011-05-01T09:28:14Z</time>
      </trkpt>
      <trkpt lat="59.2943389993" lon="17.1055479348">
        <ele>29.8</ele>
        <time>2011-05-01T09:28:17Z</time>
      </trkpt>
      <trkpt lat="59.2944999319" lon="17.1052499581">
        <ele>30.4</ele>
        <time>2011-05-01T09:28:20Z</time>
      </trkpt>
      <trkpt lat="59.2946639657" lon="17.1049529873">
        <ele>30.4</ele>
        <time>2011-05-01T09:28:23Z</time>
      </trkpt>
      <trkpt lat="59.2948269937" lon="17.1046189684">
        <ele>30.4</ele>
        <time>2011-05-01T09:28:26Z</time>
      </trkpt>
      <trkpt lat="59.2949959729" lon="17.1043229196">
        <ele>29.4</ele>
        <time>2011-05-01T09:28:29Z</time>
      </trkpt>
      <trkpt lat="59.2951629404" lon="17.1040329896">
        <ele>30.4</ele>
        <time>2011-05-01T09:28:32Z</time>
      </trkpt>
      <trkpt lat="59.2953239568" lon="17.1037399583">
        <ele>28.8</ele>
        <time>2011-05-01T09:28:35Z</time>
      </trkpt>
      <trkpt lat="59.2954909243" lon="17.1034609247">
        <ele>29.8</ele>
        <time>2011-05-01T09:28:38Z</time>
      </trkpt>
      <trkpt lat="59.2956619989" lon="17.1031929553">
        <ele>30.8</ele>
        <time>2011-05-01T09:28:41Z</time>
      </trkpt>
      <trkpt lat="59.2958359234" lon="17.1029349603">
        <ele>31.2</ele>
        <time>2011-05-01T09:28:44Z</time>
      </trkpt>
      <trkpt lat="59.296013955" lon="17.1026879456">
        <ele>30.8</ele>
        <time>2011-05-01T09:28:47Z</time>
      </trkpt>
      <trkpt lat="59.2961939983" lon="17.1024569403">
        <ele>30.8</ele>
        <time>2011-05-01T09:28:50Z</time>
      </trkpt>
      <trkpt lat="59.2963749636" lon="17.1022529248">
        <ele>30.8</ele>
        <time>2011-05-01T09:28:53Z</time>
      </trkpt>
      <trkpt lat="59.2965479661" lon="17.1020319778">
        <ele>32.8</ele>
        <time>2011-05-01T09:28:56Z</time>
      </trkpt>
      <trkpt lat="59.296736978" lon="17.1018429659">
        <ele>32.2</ele>
        <time>2011-05-01T09:28:59Z</time>
      </trkpt>
      <trkpt lat="59.2969239783" lon="17.1016719751">
        <ele>32.8</ele>
        <time>2011-05-01T09:29:02Z</time>
      </trkpt>
      <trkpt lat="59.297113996" lon="17.1015069354">
        <ele>33.6</ele>
        <time>2011-05-01T09:29:05Z</time>
      </trkpt>
      <trkpt lat="59.2972969729" lon="17.1013509482">
        <ele>34.2</ele>
        <time>2011-05-01T09:29:08Z</time>
      </trkpt>
      <trkpt lat="59.2974839732" lon="17.101200996">
        <ele>34.2</ele>
        <time>2011-05-01T09:29:11Z</time>
      </trkpt>
      <trkpt lat="59.2976729851" lon="17.1010499541">
        <ele>32.8</ele>
        <time>2011-05-01T09:29:14Z</time>
      </trkpt>
      <trkpt lat="59.2977359332" lon="17.1009999979">
        <ele>32.2</ele>
        <time>2011-05-01T09:29:15Z</time>
      </trkpt>
      <trkpt lat="59.2979279626" lon="17.100848956">
        <ele>32.8</ele>
        <time>2011-05-01T09:29:18Z</time>
      </trkpt>
      <trkpt lat="59.2981179804" lon="17.1007019375">
        <ele>33.2</ele>
        <time>2011-05-01T09:29:21Z</time>
      </trkpt>
      <trkpt lat="59.2983099259" lon="17.100552991">
        <ele>33.6</ele>
        <time>2011-05-01T09:29:24Z</time>
      </trkpt>
      <trkpt lat="59.2985059787" lon="17.1003979258">
        <ele>33.2</ele>
        <time>2011-05-01T09:29:27Z</time>
      </trkpt>
      <trkpt lat="59.2987109162" lon="17.1002399269">
        <ele>32.8</ele>
        <time>2011-05-01T09:29:30Z</time>
      </trkpt>
      <trkpt lat="59.2989209667" lon="17.1000749711">
        <ele>31.8</ele>
        <time>2011-05-01T09:29:33Z</time>
      </trkpt>
      <trkpt lat="59.2991379742" lon="17.0999079198">
        <ele>31.8</ele>
        <time>2011-05-01T09:29:36Z</time>
      </trkpt>
      <trkpt lat="59.2993579991" lon="17.0997289661">
        <ele>31.2</ele>
        <time>2011-05-01T09:29:39Z</time>
      </trkpt>
      <trkpt lat="59.2995869927" lon="17.099522939">
        <ele>29.4</ele>
        <time>2011-05-01T09:29:42Z</time>
      </trkpt>
      <trkpt lat="59.2998219375" lon="17.0993389562">
        <ele>28</ele>
        <time>2011-05-01T09:29:45Z</time>
      </trkpt>
      <trkpt lat="59.3000499252" lon="17.0991599187">
        <ele>28.8</ele>
        <time>2011-05-01T09:29:48Z</time>
      </trkpt>
      <trkpt lat="59.3002799246" lon="17.0989729185">
        <ele>28.4</ele>
        <time>2011-05-01T09:29:51Z</time>
      </trkpt>
      <trkpt lat="59.3003569543" lon="17.0989079587">
        <ele>28.4</ele>
        <time>2011-05-01T09:29:52Z</time>
      </trkpt>
      <trkpt lat="59.3005119357" lon="17.0987829845">
        <ele>27</ele>
        <time>2011-05-01T09:29:54Z</time>
      </trkpt>
      <trkpt lat="59.3007459585" lon="17.0985949785">
        <ele>26</ele>
        <time>2011-05-01T09:29:57Z</time>
      </trkpt>
      <trkpt lat="59.3009849265" lon="17.0984049607">
        <ele>27</ele>
        <time>2011-05-01T09:30:00Z</time>
      </trkpt>
      <trkpt lat="59.3012299296" lon="17.0982119255">
        <ele>23.6</ele>
        <time>2011-05-01T09:30:03Z</time>
      </trkpt>
      <trkpt lat="59.3014799617" lon="17.0980159566">
        <ele>23.6</ele>
        <time>2011-05-01T09:30:06Z</time>
      </trkpt>
      <trkpt lat="59.3017369509" lon="17.0978069957">
        <ele>22.2</ele>
        <time>2011-05-01T09:30:09Z</time>
      </trkpt>
      <trkpt lat="59.3020049203" lon="17.0975909941">
        <ele>20.2</ele>
        <time>2011-05-01T09:30:12Z</time>
      </trkpt>
      <trkpt lat="59.3020959478" lon="17.0975209214">
        <ele>17.4</ele>
        <time>2011-05-01T09:30:13Z</time>
      </trkpt>
      <trkpt lat="59.3021869753" lon="17.0974499267">
        <ele>18.4</ele>
        <time>2011-05-01T09:30:14Z</time>
      </trkpt>
      <trkpt lat="59.3024509214" lon="17.0972369425">
        <ele>20.2</ele>
        <time>2011-05-01T09:30:17Z</time>
      </trkpt>
      <trkpt lat="59.3027059827" lon="17.09702597">
        <ele>19.2</ele>
        <time>2011-05-01T09:30:20Z</time>
      </trkpt>
      <trkpt lat="59.3028729502" lon="17.0968879201">
        <ele>18.4</ele>
        <time>2011-05-01T09:30:22Z</time>
      </trkpt>
      <trkpt lat="59.3031099904" lon="17.0966749359">
        <ele>19.8</ele>
        <time>2011-05-01T09:30:25Z</time>
      </trkpt>
      <trkpt lat="59.303263966" lon="17.0965279173">
        <ele>23.2</ele>
        <time>2011-05-01T09:30:27Z</time>
      </trkpt>
      <trkpt lat="59.3034909479" lon="17.0962979179">
        <ele>23.6</ele>
        <time>2011-05-01T09:30:30Z</time>
      </trkpt>
      <trkpt lat="59.3037139904" lon="17.0960409287">
        <ele>23.6</ele>
        <time>2011-05-01T09:30:33Z</time>
      </trkpt>
      <trkpt lat="59.3039359432" lon="17.0958299562">
        <ele>21.2</ele>
        <time>2011-05-01T09:30:36Z</time>
      </trkpt>
      <trkpt lat="59.304156974" lon="17.095598951">
        <ele>21.2</ele>
        <time>2011-05-01T09:30:39Z</time>
      </trkpt>
      <trkpt lat="59.3043849617" lon="17.0953729749">
        <ele>20.8</ele>
        <time>2011-05-01T09:30:42Z</time>
      </trkpt>
      <trkpt lat="59.3046249356" lon="17.0951379463">
        <ele>18.4</ele>
        <time>2011-05-01T09:30:45Z</time>
      </trkpt>
      <trkpt lat="59.3047829345" lon="17.0949719846">
        <ele>17.4</ele>
        <time>2011-05-01T09:30:47Z</time>
      </trkpt>
      <trkpt lat="59.3050159514" lon="17.0947279874">
        <ele>17.4</ele>
        <time>2011-05-01T09:30:50Z</time>
      </trkpt>
      <trkpt lat="59.3052479625" lon="17.094491953">
        <ele>17.4</ele>
        <time>2011-05-01T09:30:53Z</time>
      </trkpt>
      <trkpt lat="59.3054739386" lon="17.0942739397">
        <ele>16.4</ele>
        <time>2011-05-01T09:30:56Z</time>
      </trkpt>
      <trkpt lat="59.3056919519" lon="17.0940579381">
        <ele>18.4</ele>
        <time>2011-05-01T09:30:59Z</time>
      </trkpt>
      <trkpt lat="59.3059019186" lon="17.0938099176">
        <ele>18.4</ele>
        <time>2011-05-01T09:31:02Z</time>
      </trkpt>
      <trkpt lat="59.3061199319" lon="17.0935979392">
        <ele>18.4</ele>
        <time>2011-05-01T09:31:05Z</time>
      </trkpt>
      <trkpt lat="59.3063329998" lon="17.093372969">
        <ele>16.8</ele>
        <time>2011-05-01T09:31:08Z</time>
      </trkpt>
      <trkpt lat="59.3065439723" lon="17.0931509323">
        <ele>17.4</ele>
        <time>2011-05-01T09:31:11Z</time>
      </trkpt>
      <trkpt lat="59.3067569565" lon="17.0929349307">
        <ele>17.8</ele>
        <time>2011-05-01T09:31:14Z</time>
      </trkpt>
      <trkpt lat="59.3069719523" lon="17.0927129779">
        <ele>17.8</ele>
        <time>2011-05-01T09:31:17Z</time>
      </trkpt>
      <trkpt lat="59.3071829248" lon="17.0924459305">
        <ele>18.4</ele>
        <time>2011-05-01T09:31:20Z</time>
      </trkpt>
      <trkpt lat="59.3073689193" lon="17.0921449363">
        <ele>17.8</ele>
        <time>2011-05-01T09:31:23Z</time>
      </trkpt>
      <trkpt lat="59.3076989986" lon="17.0915229991">
        <ele>17.4</ele>
        <time>2011-05-01T09:31:44Z</time>
      </trkpt>
      <trkpt lat="59.3084239494" lon="17.089435989">
        <ele>21.6</ele>
        <time>2011-05-01T09:31:47Z</time>
      </trkpt>
      <trkpt lat="59.3085409608" lon="17.0890599769">
        <ele>21.2</ele>
        <time>2011-05-01T09:31:50Z</time>
      </trkpt>
      <trkpt lat="59.308665935" lon="17.0886779297">
        <ele>21.2</ele>
        <time>2011-05-01T09:31:53Z</time>
      </trkpt>
      <trkpt lat="59.3087969441" lon="17.0882839803">
        <ele>19.8</ele>
        <time>2011-05-01T09:31:56Z</time>
      </trkpt>
      <trkpt lat="59.3088429607" lon="17.0881519653">
        <ele>19.8</ele>
        <time>2011-05-01T09:31:57Z</time>
      </trkpt>
      <trkpt lat="59.308985956" lon="17.0877459459">
        <ele>19.8</ele>
        <time>2011-05-01T09:32:00Z</time>
      </trkpt>
      <trkpt lat="59.3090889696" lon="17.0874769706">
        <ele>18.8</ele>
        <time>2011-05-01T09:32:02Z</time>
      </trkpt>
      <trkpt lat="59.3092519976" lon="17.0870889723">
        <ele>18.8</ele>
        <time>2011-05-01T09:32:05Z</time>
      </trkpt>
      <trkpt lat="59.309413936" lon="17.0867109485">
        <ele>18.4</ele>
        <time>2011-05-01T09:32:08Z</time>
      </trkpt>
      <trkpt lat="59.3095799815" lon="17.0863459166">
        <ele>18.4</ele>
        <time>2011-05-01T09:32:11Z</time>
      </trkpt>
      <trkpt lat="59.3097429257" lon="17.085996978">
        <ele>19.2</ele>
        <time>2011-05-01T09:32:14Z</time>
      </trkpt>
      <trkpt lat="59.3099119887" lon="17.0856559183">
        <ele>19.8</ele>
        <time>2011-05-01T09:32:17Z</time>
      </trkpt>
      <trkpt lat="59.310092954" lon="17.0853359811">
        <ele>19.8</ele>
        <time>2011-05-01T09:32:20Z</time>
      </trkpt>
      <trkpt lat="59.310218934" lon="17.0851269364">
        <ele>21.2</ele>
        <time>2011-05-01T09:32:22Z</time>
      </trkpt>
      <trkpt lat="59.3104149867" lon="17.0848299656">
        <ele>20.8</ele>
        <time>2011-05-01T09:32:25Z</time>
      </trkpt>
      <trkpt lat="59.3106219359" lon="17.0845579728">
        <ele>20.2</ele>
        <time>2011-05-01T09:32:28Z</time>
      </trkpt>
      <trkpt lat="59.3108329922" lon="17.0842929371">
        <ele>20.8</ele>
        <time>2011-05-01T09:32:31Z</time>
      </trkpt>
      <trkpt lat="59.3110489938" lon="17.0840199385">
        <ele>19.2</ele>
        <time>2011-05-01T09:32:34Z</time>
      </trkpt>
      <trkpt lat="59.311268935" lon="17.0837499574">
        <ele>19.2</ele>
        <time>2011-05-01T09:32:37Z</time>
      </trkpt>
      <trkpt lat="59.3114929833" lon="17.0834779646">
        <ele>18.8</ele>
        <time>2011-05-01T09:32:40Z</time>
      </trkpt>
      <trkpt lat="59.3117189594" lon="17.0832089894">
        <ele>17.8</ele>
        <time>2011-05-01T09:32:43Z</time>
      </trkpt>
      <trkpt lat="59.3119459413" lon="17.0829299558">
        <ele>16.8</ele>
        <time>2011-05-01T09:32:46Z</time>
      </trkpt>
      <trkpt lat="59.3121709954" lon="17.0826509222">
        <ele>16.8</ele>
        <time>2011-05-01T09:32:49Z</time>
      </trkpt>
      <trkpt lat="59.312393954" lon="17.0823719725">
        <ele>17.4</ele>
        <time>2011-05-01T09:32:52Z</time>
      </trkpt>
      <trkpt lat="59.312613979" lon="17.0820939448">
        <ele>17.4</ele>
        <time>2011-05-01T09:32:55Z</time>
      </trkpt>
      <trkpt lat="59.3128319923" lon="17.0818239637">
        <ele>17.4</ele>
        <time>2011-05-01T09:32:58Z</time>
      </trkpt>
      <trkpt lat="59.3130479939" lon="17.081569992">
        <ele>17.4</ele>
        <time>2011-05-01T09:33:01Z</time>
      </trkpt>
      <trkpt lat="59.3132609781" lon="17.0813359693">
        <ele>17.8</ele>
        <time>2011-05-01T09:33:04Z</time>
      </trkpt>
      <trkpt lat="59.3134739622" lon="17.081117956">
        <ele>17.8</ele>
        <time>2011-05-01T09:33:07Z</time>
      </trkpt>
      <trkpt lat="59.3136909697" lon="17.0809119288">
        <ele>17.8</ele>
        <time>2011-05-01T09:33:10Z</time>
      </trkpt>
      <trkpt lat="59.3139119167" lon="17.0807169657">
        <ele>17.4</ele>
        <time>2011-05-01T09:33:13Z</time>
      </trkpt>
      <trkpt lat="59.3141349591" lon="17.0805289596">
        <ele>17.4</ele>
        <time>2011-05-01T09:33:16Z</time>
      </trkpt>
      <trkpt lat="59.3143569957" lon="17.0803469885">
        <ele>17.8</ele>
        <time>2011-05-01T09:33:19Z</time>
      </trkpt>
      <trkpt lat="59.3145729974" lon="17.080180943">
        <ele>17.4</ele>
        <time>2011-05-01T09:33:22Z</time>
      </trkpt>
      <trkpt lat="59.3146449979" lon="17.0801289752">
        <ele>14</ele>
        <time>2011-05-01T09:33:23Z</time>
      </trkpt>
      <trkpt lat="59.3147159927" lon="17.0800769236">
        <ele>14</ele>
        <time>2011-05-01T09:33:24Z</time>
      </trkpt>
      <trkpt lat="59.3148599938" lon="17.0799709763">
        <ele>15.4</ele>
        <time>2011-05-01T09:33:26Z</time>
      </trkpt>
      <trkpt lat="59.3150769174" lon="17.0798179228">
        <ele>15</ele>
        <time>2011-05-01T09:33:29Z</time>
      </trkpt>
      <trkpt lat="59.3152949307" lon="17.0796669647">
        <ele>14.4</ele>
        <time>2011-05-01T09:33:32Z</time>
      </trkpt>
      <trkpt lat="59.3155049812" lon="17.0795159228">
        <ele>14.4</ele>
        <time>2011-05-01T09:33:35Z</time>
      </trkpt>
      <trkpt lat="59.3157179654" lon="17.0793639589">
        <ele>12</ele>
        <time>2011-05-01T09:33:38Z</time>
      </trkpt>
      <trkpt lat="59.3159399182" lon="17.0792149287">
        <ele>13.4</ele>
        <time>2011-05-01T09:33:41Z</time>
      </trkpt>
      <trkpt lat="59.316153992" lon="17.0790739451">
        <ele>11.6</ele>
        <time>2011-05-01T09:33:44Z</time>
      </trkpt>
      <trkpt lat="59.3163509667" lon="17.0789349731">
        <ele>13.4</ele>
        <time>2011-05-01T09:33:47Z</time>
      </trkpt>
      <trkpt lat="59.3165459298" lon="17.078790972">
        <ele>15.8</ele>
        <time>2011-05-01T09:33:50Z</time>
      </trkpt>
      <trkpt lat="59.3167369533" lon="17.0786519162">
        <ele>16.8</ele>
        <time>2011-05-01T09:33:53Z</time>
      </trkpt>
      <trkpt lat="59.3169329222" lon="17.0785049815">
        <ele>16.8</ele>
        <time>2011-05-01T09:33:56Z</time>
      </trkpt>
      <trkpt lat="59.3171219341" lon="17.0783669315">
        <ele>17.4</ele>
        <time>2011-05-01T09:33:59Z</time>
      </trkpt>
      <trkpt lat="59.317316981" lon="17.0782369282">
        <ele>16.4</ele>
        <time>2011-05-01T09:34:02Z</time>
      </trkpt>
      <trkpt lat="59.3175119441" lon="17.0780969504">
        <ele>16.8</ele>
        <time>2011-05-01T09:34:05Z</time>
      </trkpt>
      <trkpt lat="59.3177119363" lon="17.077954961">
        <ele>16.4</ele>
        <time>2011-05-01T09:34:08Z</time>
      </trkpt>
      <trkpt lat="59.3179269321" lon="17.0778119657">
        <ele>14.4</ele>
        <time>2011-05-01T09:34:11Z</time>
      </trkpt>
      <trkpt lat="59.3179989327" lon="17.0777629316">
        <ele>14.4</ele>
        <time>2011-05-01T09:34:12Z</time>
      </trkpt>
      <trkpt lat="59.3182129227" lon="17.0776029211">
        <ele>14</ele>
        <time>2011-05-01T09:34:15Z</time>
      </trkpt>
      <trkpt lat="59.3184379768" lon="17.0774399769">
        <ele>14.4</ele>
        <time>2011-05-01T09:34:18Z</time>
      </trkpt>
      <trkpt lat="59.3186669704" lon="17.0772779547">
        <ele>15</ele>
        <time>2011-05-01T09:34:21Z</time>
      </trkpt>
      <trkpt lat="59.3188889232" lon="17.0771179441">
        <ele>15</ele>
        <time>2011-05-01T09:34:24Z</time>
      </trkpt>
      <trkpt lat="59.3191079423" lon="17.0769549999">
        <ele>14.4</ele>
        <time>2011-05-01T09:34:27Z</time>
      </trkpt>
      <trkpt lat="59.3193219323" lon="17.0768119209">
        <ele>14.4</ele>
        <time>2011-05-01T09:34:30Z</time>
      </trkpt>
      <trkpt lat="59.3195349164" lon="17.0766499825">
        <ele>15.8</ele>
        <time>2011-05-01T09:34:33Z</time>
      </trkpt>
      <trkpt lat="59.3197439611" lon="17.0764929894">
        <ele>16.4</ele>
        <time>2011-05-01T09:34:36Z</time>
      </trkpt>
      <trkpt lat="59.3199559394" lon="17.076351">
        <ele>16.8</ele>
        <time>2011-05-01T09:34:39Z</time>
      </trkpt>
      <trkpt lat="59.3201619666" lon="17.0762069989">
        <ele>16.4</ele>
        <time>2011-05-01T09:34:42Z</time>
      </trkpt>
      <trkpt lat="59.3203729391" lon="17.0760539453">
        <ele>16.8</ele>
        <time>2011-05-01T09:34:45Z</time>
      </trkpt>
      <trkpt lat="59.3205809779" lon="17.0759049989">
        <ele>17.4</ele>
        <time>2011-05-01T09:34:48Z</time>
      </trkpt>
      <trkpt lat="59.320788933" lon="17.0757569745">
        <ele>17.4</ele>
        <time>2011-05-01T09:34:51Z</time>
      </trkpt>
      <trkpt lat="59.3209939543" lon="17.0755979698">
        <ele>17.8</ele>
        <time>2011-05-01T09:34:54Z</time>
      </trkpt>
      <trkpt lat="59.3212009873" lon="17.0754529629">
        <ele>18.4</ele>
        <time>2011-05-01T09:34:57Z</time>
      </trkpt>
      <trkpt lat="59.3214129657" lon="17.0753059443">
        <ele>17.4</ele>
        <time>2011-05-01T09:35:00Z</time>
      </trkpt>
      <trkpt lat="59.3216269556" lon="17.0751469396">
        <ele>17.8</ele>
        <time>2011-05-01T09:35:03Z</time>
      </trkpt>
      <trkpt lat="59.3218439631" lon="17.0749909524">
        <ele>17.8</ele>
        <time>2011-05-01T09:35:06Z</time>
      </trkpt>
      <trkpt lat="59.3220619764" lon="17.074829936">
        <ele>17.4</ele>
        <time>2011-05-01T09:35:09Z</time>
      </trkpt>
      <trkpt lat="59.3222799897" lon="17.074672943">
        <ele>16.8</ele>
        <time>2011-05-01T09:35:12Z</time>
      </trkpt>
      <trkpt lat="59.3224979192" lon="17.0745129324">
        <ele>17.8</ele>
        <time>2011-05-01T09:35:15Z</time>
      </trkpt>
      <trkpt lat="59.3227129988" lon="17.0743779838">
        <ele>16.8</ele>
        <time>2011-05-01T09:35:18Z</time>
      </trkpt>
      <trkpt lat="59.3229309283" lon="17.074238928">
        <ele>16.8</ele>
        <time>2011-05-01T09:35:21Z</time>
      </trkpt>
      <trkpt lat="59.3231649511" lon="17.07408797">
        <ele>15.4</ele>
        <time>2011-05-01T09:35:24Z</time>
      </trkpt>
      <trkpt lat="59.3234099541" lon="17.0739269536">
        <ele>15</ele>
        <time>2011-05-01T09:35:27Z</time>
      </trkpt>
      <trkpt lat="59.3236569688" lon="17.0737659372">
        <ele>15</ele>
        <time>2011-05-01T09:35:30Z</time>
      </trkpt>
      <trkpt lat="59.3239019718" lon="17.0736009814">
        <ele>15</ele>
        <time>2011-05-01T09:35:33Z</time>
      </trkpt>
      <trkpt lat="59.3241439573" lon="17.0734429825">
        <ele>14.4</ele>
        <time>2011-05-01T09:35:36Z</time>
      </trkpt>
      <trkpt lat="59.3243799917" lon="17.0732909348">
        <ele>13.4</ele>
        <time>2011-05-01T09:35:39Z</time>
      </trkpt>
      <trkpt lat="59.3246129248" lon="17.0731419884">
        <ele>13</ele>
        <time>2011-05-01T09:35:42Z</time>
      </trkpt>
      <trkpt lat="59.3248399906" lon="17.0729909465">
        <ele>13.4</ele>
        <time>2011-05-01T09:35:45Z</time>
      </trkpt>
      <trkpt lat="59.3250659667" lon="17.0728359651">
        <ele>14</ele>
        <time>2011-05-01T09:35:48Z</time>
      </trkpt>
      <trkpt lat="59.3252969719" lon="17.072685929">
        <ele>13.4</ele>
        <time>2011-05-01T09:35:51Z</time>
      </trkpt>
      <trkpt lat="59.3255179189" lon="17.0725419279">
        <ele>13.4</ele>
        <time>2011-05-01T09:35:54Z</time>
      </trkpt>
      <trkpt lat="59.3257379439" lon="17.072396921">
        <ele>13</ele>
        <time>2011-05-01T09:35:57Z</time>
      </trkpt>
      <trkpt lat="59.3259619921" lon="17.0722439513">
        <ele>12.6</ele>
        <time>2011-05-01T09:36:00Z</time>
      </trkpt>
      <trkpt lat="59.3261879683" lon="17.072094921">
        <ele>11</ele>
        <time>2011-05-01T09:36:03Z</time>
      </trkpt>
      <trkpt lat="59.3264129385" lon="17.0719509199">
        <ele>12</ele>
        <time>2011-05-01T09:36:06Z</time>
      </trkpt>
      <trkpt lat="59.3266409263" lon="17.0718039852">
        <ele>10.6</ele>
        <time>2011-05-01T09:36:09Z</time>
      </trkpt>
      <trkpt lat="59.3268699199" lon="17.0716529433">
        <ele>9.6</ele>
        <time>2011-05-01T09:36:12Z</time>
      </trkpt>
      <trkpt lat="59.3270929623" lon="17.0714999735">
        <ele>9.6</ele>
        <time>2011-05-01T09:36:15Z</time>
      </trkpt>
      <trkpt lat="59.3273199443" lon="17.0713519491">
        <ele>8.6</ele>
        <time>2011-05-01T09:36:18Z</time>
      </trkpt>
      <trkpt lat="59.3275459204" lon="17.0712029189">
        <ele>8.6</ele>
        <time>2011-05-01T09:36:21Z</time>
      </trkpt>
      <trkpt lat="59.327767957" lon="17.0710529666">
        <ele>7.8</ele>
        <time>2011-05-01T09:36:24Z</time>
      </trkpt>
      <trkpt lat="59.3279859703" lon="17.0709069539">
        <ele>9.2</ele>
        <time>2011-05-01T09:36:27Z</time>
      </trkpt>
      <trkpt lat="59.3282009661" lon="17.0707669761">
        <ele>8.6</ele>
        <time>2011-05-01T09:36:30Z</time>
      </trkpt>
      <trkpt lat="59.3284159619" lon="17.0706279203">
        <ele>8.2</ele>
        <time>2011-05-01T09:36:33Z</time>
      </trkpt>
      <trkpt lat="59.3286349811" lon="17.0704829972">
        <ele>7.8</ele>
        <time>2011-05-01T09:36:36Z</time>
      </trkpt>
      <trkpt lat="59.3288549222" lon="17.0703309495">
        <ele>7.8</ele>
        <time>2011-05-01T09:36:39Z</time>
      </trkpt>
      <trkpt lat="59.329075953" lon="17.0701919775">
        <ele>7.8</ele>
        <time>2011-05-01T09:36:42Z</time>
      </trkpt>
      <trkpt lat="59.3292949721" lon="17.0700509939">
        <ele>7.8</ele>
        <time>2011-05-01T09:36:45Z</time>
      </trkpt>
      <trkpt lat="59.3295189366" lon="17.0699069928">
        <ele>7.8</ele>
        <time>2011-05-01T09:36:48Z</time>
      </trkpt>
      <trkpt lat="59.3297499418" lon="17.0697539393">
        <ele>7.2</ele>
        <time>2011-05-01T09:36:51Z</time>
      </trkpt>
      <trkpt lat="59.3299839646" lon="17.0696019754">
        <ele>7.2</ele>
        <time>2011-05-01T09:36:54Z</time>
      </trkpt>
      <trkpt lat="59.3302159756" lon="17.0694529451">
        <ele>6.8</ele>
        <time>2011-05-01T09:36:57Z</time>
      </trkpt>
      <trkpt lat="59.3304479867" lon="17.0692999754">
        <ele>6.8</ele>
        <time>2011-05-01T09:37:00Z</time>
      </trkpt>
      <trkpt lat="59.330678992" lon="17.0691319183">
        <ele>6.2</ele>
        <time>2011-05-01T09:37:03Z</time>
      </trkpt>
      <trkpt lat="59.3309059739" lon="17.0689639449">
        <ele>6.2</ele>
        <time>2011-05-01T09:37:06Z</time>
      </trkpt>
      <trkpt lat="59.3311269209" lon="17.0687829796">
        <ele>6.2</ele>
        <time>2011-05-01T09:37:09Z</time>
      </trkpt>
      <trkpt lat="59.33134594" lon="17.0685779583">
        <ele>6.2</ele>
        <time>2011-05-01T09:37:12Z</time>
      </trkpt>
      <trkpt lat="59.3315649591" lon="17.0683709253">
        <ele>5.8</ele>
        <time>2011-05-01T09:37:15Z</time>
      </trkpt>
      <trkpt lat="59.3317789491" lon="17.0681609586">
        <ele>5.8</ele>
        <time>2011-05-01T09:37:18Z</time>
      </trkpt>
      <trkpt lat="59.3319929391" lon="17.0679409336">
        <ele>5.8</ele>
        <time>2011-05-01T09:37:21Z</time>
      </trkpt>
      <trkpt lat="59.3322049174" lon="17.0677009597">
        <ele>5.8</ele>
        <time>2011-05-01T09:37:24Z</time>
      </trkpt>
      <trkpt lat="59.3324119505" lon="17.0674499217">
        <ele>5.4</ele>
        <time>2011-05-01T09:37:27Z</time>
      </trkpt>
      <trkpt lat="59.3326109368" lon="17.067208942">
        <ele>6.2</ele>
        <time>2011-05-01T09:37:30Z</time>
      </trkpt>
      <trkpt lat="59.3328009546" lon="17.0669709798">
        <ele>6.2</ele>
        <time>2011-05-01T09:37:33Z</time>
      </trkpt>
      <trkpt lat="59.3329809979" lon="17.0667259768">
        <ele>5.8</ele>
        <time>2011-05-01T09:37:36Z</time>
      </trkpt>
      <trkpt lat="59.3331639748" lon="17.0664639585">
        <ele>6.2</ele>
        <time>2011-05-01T09:37:39Z</time>
      </trkpt>
      <trkpt lat="59.3333479576" lon="17.0661819912">
        <ele>6.8</ele>
        <time>2011-05-01T09:37:42Z</time>
      </trkpt>
      <trkpt lat="59.333527917" lon="17.0658959169">
        <ele>6.2</ele>
        <time>2011-05-01T09:37:45Z</time>
      </trkpt>
      <trkpt lat="59.3337029312" lon="17.0656149555">
        <ele>6.8</ele>
        <time>2011-05-01T09:37:48Z</time>
      </trkpt>
      <trkpt lat="59.333873" lon="17.0653369278">
        <ele>6.8</ele>
        <time>2011-05-01T09:37:51Z</time>
      </trkpt>
      <trkpt lat="59.3340399675" lon="17.0650729816">
        <ele>7.2</ele>
        <time>2011-05-01T09:37:54Z</time>
      </trkpt>
      <trkpt lat="59.3342039175" lon="17.0648139808">
        <ele>6.8</ele>
        <time>2011-05-01T09:37:57Z</time>
      </trkpt>
      <trkpt lat="59.3343749922" lon="17.0645449217">
        <ele>7.2</ele>
        <time>2011-05-01T09:38:00Z</time>
      </trkpt>
      <trkpt lat="59.3345469888" lon="17.0642639603">
        <ele>7.8</ele>
        <time>2011-05-01T09:38:03Z</time>
      </trkpt>
      <trkpt lat="59.3347169738" lon="17.0639859326">
        <ele>8.2</ele>
        <time>2011-05-01T09:38:06Z</time>
      </trkpt>
      <trkpt lat="59.3348819297" lon="17.0637249202">
        <ele>8.2</ele>
        <time>2011-05-01T09:38:09Z</time>
      </trkpt>
      <trkpt lat="59.3350389227" lon="17.0634829346">
        <ele>9.2</ele>
        <time>2011-05-01T09:38:12Z</time>
      </trkpt>
      <trkpt lat="59.3351889588" lon="17.0632569585">
        <ele>9.2</ele>
        <time>2011-05-01T09:38:15Z</time>
      </trkpt>
      <trkpt lat="59.335350981" lon="17.0630079322">
        <ele>8.6</ele>
        <time>2011-05-01T09:38:18Z</time>
      </trkpt>
      <trkpt lat="59.3355139252" lon="17.0627379511">
        <ele>7.8</ele>
        <time>2011-05-01T09:38:21Z</time>
      </trkpt>
      <trkpt lat="59.3356849998" lon="17.0624599233">
        <ele>8.6</ele>
        <time>2011-05-01T09:38:24Z</time>
      </trkpt>
      <trkpt lat="59.3358449265" lon="17.0621849969">
        <ele>8.6</ele>
        <time>2011-05-01T09:38:27Z</time>
      </trkpt>
      <trkpt lat="59.3360009976" lon="17.0619159378">
        <ele>8.6</ele>
        <time>2011-05-01T09:38:30Z</time>
      </trkpt>
      <trkpt lat="59.3361549731" lon="17.0616389997">
        <ele>9.2</ele>
        <time>2011-05-01T09:38:33Z</time>
      </trkpt>
      <trkpt lat="59.3363079429" lon="17.061354937">
        <ele>8.6</ele>
        <time>2011-05-01T09:38:36Z</time>
      </trkpt>
      <trkpt lat="59.3364639301" lon="17.0610799268">
        <ele>9.2</ele>
        <time>2011-05-01T09:38:39Z</time>
      </trkpt>
      <trkpt lat="59.3366169836" lon="17.0608069282">
        <ele>9.6</ele>
        <time>2011-05-01T09:38:42Z</time>
      </trkpt>
      <trkpt lat="59.3367709592" lon="17.0605329238">
        <ele>9.6</ele>
        <time>2011-05-01T09:38:45Z</time>
      </trkpt>
      <trkpt lat="59.3369309697" lon="17.0602509566">
        <ele>10.2</ele>
        <time>2011-05-01T09:38:48Z</time>
      </trkpt>
      <trkpt lat="59.3370889686" lon="17.0599829871">
        <ele>10.6</ele>
        <time>2011-05-01T09:38:51Z</time>
      </trkpt>
      <trkpt lat="59.3372429442" lon="17.0597059652">
        <ele>11</ele>
        <time>2011-05-01T09:38:54Z</time>
      </trkpt>
      <trkpt lat="59.3373929802" lon="17.0594409294">
        <ele>11.6</ele>
        <time>2011-05-01T09:38:57Z</time>
      </trkpt>
      <trkpt lat="59.3375409208" lon="17.0591739658">
        <ele>12.6</ele>
        <time>2011-05-01T09:39:00Z</time>
      </trkpt>
      <trkpt lat="59.3376889452" lon="17.0589129534">
        <ele>12</ele>
        <time>2011-05-01T09:39:03Z</time>
      </trkpt>
      <trkpt lat="59.337834958" lon="17.0586519409">
        <ele>12</ele>
        <time>2011-05-01T09:39:06Z</time>
      </trkpt>
      <trkpt lat="59.3379809707" lon="17.0583939459">
        <ele>12.6</ele>
        <time>2011-05-01T09:39:09Z</time>
      </trkpt>
      <trkpt lat="59.3381209485" lon="17.0581139904">
        <ele>13.4</ele>
        <time>2011-05-01T09:39:12Z</time>
      </trkpt>
      <trkpt lat="59.3382609263" lon="17.0578119904">
        <ele>13</ele>
        <time>2011-05-01T09:39:15Z</time>
      </trkpt>
      <trkpt lat="59.3384019937" lon="17.057480989">
        <ele>12.6</ele>
        <time>2011-05-01T09:39:18Z</time>
      </trkpt>
      <trkpt lat="59.3385439832" lon="17.0571219921">
        <ele>12.6</ele>
        <time>2011-05-01T09:39:21Z</time>
      </trkpt>
      <trkpt lat="59.3386729807" lon="17.0567589719">
        <ele>12</ele>
        <time>2011-05-01T09:39:24Z</time>
      </trkpt>
      <trkpt lat="59.3387839571" lon="17.0563859772">
        <ele>11.6</ele>
        <time>2011-05-01T09:39:27Z</time>
      </trkpt>
      <trkpt lat="59.3388879765" lon="17.0559949614">
        <ele>11</ele>
        <time>2011-05-01T09:39:30Z</time>
      </trkpt>
      <trkpt lat="59.3389829434" lon="17.0555879362">
        <ele>11</ele>
        <time>2011-05-01T09:39:33Z</time>
      </trkpt>
      <trkpt lat="59.3390659243" lon="17.0551519934">
        <ele>11.6</ele>
        <time>2011-05-01T09:39:36Z</time>
      </trkpt>
      <trkpt lat="59.3391379248" lon="17.0546949282">
        <ele>11</ele>
        <time>2011-05-01T09:39:39Z</time>
      </trkpt>
      <trkpt lat="59.3391999509" lon="17.0542299841">
        <ele>11</ele>
        <time>2011-05-01T09:39:42Z</time>
      </trkpt>
      <trkpt lat="59.3392629828" lon="17.0537679736">
        <ele>12</ele>
        <time>2011-05-01T09:39:45Z</time>
      </trkpt>
      <trkpt lat="59.3393249251" lon="17.0533149317">
        <ele>12</ele>
        <time>2011-05-01T09:39:48Z</time>
      </trkpt>
      <trkpt lat="59.3393829279" lon="17.0528829284">
        <ele>13</ele>
        <time>2011-05-01T09:39:51Z</time>
      </trkpt>
      <trkpt lat="59.3394399248" lon="17.052469952">
        <ele>14</ele>
        <time>2011-05-01T09:39:54Z</time>
      </trkpt>
      <trkpt lat="59.3394889589" lon="17.0520749968">
        <ele>15</ele>
        <time>2011-05-01T09:39:57Z</time>
      </trkpt>
      <trkpt lat="59.3395399209" lon="17.0516939554">
        <ele>15.8</ele>
        <time>2011-05-01T09:40:00Z</time>
      </trkpt>
      <trkpt lat="59.3395869434" lon="17.0513259899">
        <ele>16.8</ele>
        <time>2011-05-01T09:40:03Z</time>
      </trkpt>
      <trkpt lat="59.3396379892" lon="17.0509599522">
        <ele>17.8</ele>
        <time>2011-05-01T09:40:06Z</time>
      </trkpt>
      <trkpt lat="59.3396879453" lon="17.050589975">
        <ele>18.4</ele>
        <time>2011-05-01T09:40:09Z</time>
      </trkpt>
      <trkpt lat="59.3397389911" lon="17.050212957">
        <ele>19.2</ele>
        <time>2011-05-01T09:40:12Z</time>
      </trkpt>
      <trkpt lat="59.3397899531" lon="17.0498409681">
        <ele>19.8</ele>
        <time>2011-05-01T09:40:15Z</time>
      </trkpt>
      <trkpt lat="59.3398389872" lon="17.0494529698">
        <ele>19.8</ele>
        <time>2011-05-01T09:40:18Z</time>
      </trkpt>
      <trkpt lat="59.3398829922" lon="17.0490399934">
        <ele>19.8</ele>
        <time>2011-05-01T09:40:21Z</time>
      </trkpt>
      <trkpt lat="59.3399279192" lon="17.0486109238">
        <ele>19.2</ele>
        <time>2011-05-01T09:40:24Z</time>
      </trkpt>
      <trkpt lat="59.3399709184" lon="17.0481589716">
        <ele>18.8</ele>
        <time>2011-05-01T09:40:27Z</time>
      </trkpt>
      <trkpt lat="59.3400139175" lon="17.0476869866">
        <ele>17.8</ele>
        <time>2011-05-01T09:40:30Z</time>
      </trkpt>
      <trkpt lat="59.3400549889" lon="17.0472039375">
        <ele>17.4</ele>
        <time>2011-05-01T09:40:33Z</time>
      </trkpt>
      <trkpt lat="59.340097988" lon="17.0467009395">
        <ele>16.8</ele>
        <time>2011-05-01T09:40:36Z</time>
      </trkpt>
      <trkpt lat="59.3401429988" lon="17.0461889729">
        <ele>16.4</ele>
        <time>2011-05-01T09:40:39Z</time>
      </trkpt>
      <trkpt lat="59.3401889317" lon="17.0456629246">
        <ele>15.8</ele>
        <time>2011-05-01T09:40:42Z</time>
      </trkpt>
      <trkpt lat="59.34023696" lon="17.0451279916">
        <ele>15.4</ele>
        <time>2011-05-01T09:40:45Z</time>
      </trkpt>
      <trkpt lat="59.3402859941" lon="17.0445929747">
        <ele>14.4</ele>
        <time>2011-05-01T09:40:48Z</time>
      </trkpt>
      <trkpt lat="59.3403319269" lon="17.0440529287">
        <ele>14.4</ele>
        <time>2011-05-01T09:40:51Z</time>
      </trkpt>
      <trkpt lat="59.3403799552" lon="17.043509949">
        <ele>14</ele>
        <time>2011-05-01T09:40:54Z</time>
      </trkpt>
      <trkpt lat="59.3404269777" lon="17.0429589227">
        <ele>13</ele>
        <time>2011-05-01T09:40:57Z</time>
      </trkpt>
      <trkpt lat="59.3404779397" lon="17.042402951">
        <ele>13</ele>
        <time>2011-05-01T09:41:00Z</time>
      </trkpt>
      <trkpt lat="59.3405299913" lon="17.0418429561">
        <ele>13</ele>
        <time>2011-05-01T09:41:03Z</time>
      </trkpt>
      <trkpt lat="59.3405909277" lon="17.0412739925">
        <ele>11.6</ele>
        <time>2011-05-01T09:41:06Z</time>
      </trkpt>
      <trkpt lat="59.3406679574" lon="17.0407159254">
        <ele>9.2</ele>
        <time>2011-05-01T09:41:09Z</time>
      </trkpt>
      <trkpt lat="59.3407619186" lon="17.0401789807">
        <ele>10.6</ele>
        <time>2011-05-01T09:41:12Z</time>
      </trkpt>
      <trkpt lat="59.340871973" lon="17.0396529324">
        <ele>9.6</ele>
        <time>2011-05-01T09:41:15Z</time>
      </trkpt>
      <trkpt lat="59.3410019763" lon="17.0391429774">
        <ele>9.2</ele>
        <time>2011-05-01T09:41:18Z</time>
      </trkpt>
      <trkpt lat="59.3411469832" lon="17.0386569947">
        <ele>8.6</ele>
        <time>2011-05-01T09:41:21Z</time>
      </trkpt>
      <trkpt lat="59.3413059879" lon="17.03819599">
        <ele>7.2</ele>
        <time>2011-05-01T09:41:24Z</time>
      </trkpt>
      <trkpt lat="59.3414789904" lon="17.0377569459">
        <ele>8.2</ele>
        <time>2011-05-01T09:41:27Z</time>
      </trkpt>
      <trkpt lat="59.3416659907" lon="17.0373379346">
        <ele>8.2</ele>
        <time>2011-05-01T09:41:30Z</time>
      </trkpt>
      <trkpt lat="59.3418629654" lon="17.0369459968">
        <ele>7.8</ele>
        <time>2011-05-01T09:41:33Z</time>
      </trkpt>
      <trkpt lat="59.3420689926" lon="17.0365859941">
        <ele>5.8</ele>
        <time>2011-05-01T09:41:36Z</time>
      </trkpt>
      <trkpt lat="59.3422829825" lon="17.0362649672">
        <ele>4.8</ele>
        <time>2011-05-01T09:41:39Z</time>
      </trkpt>
      <trkpt lat="59.3424989842" lon="17.0359669905">
        <ele>9.2</ele>
        <time>2011-05-01T09:41:42Z</time>
      </trkpt>
      <trkpt lat="59.3425719906" lon="17.0358749572">
        <ele>7.8</ele>
        <time>2011-05-01T09:41:43Z</time>
      </trkpt>
      <trkpt lat="59.3427949492" lon="17.0356239192">
        <ele>8.2</ele>
        <time>2011-05-01T09:41:46Z</time>
      </trkpt>
      <trkpt lat="59.3430179916" lon="17.0354009606">
        <ele>9.2</ele>
        <time>2011-05-01T09:41:49Z</time>
      </trkpt>
      <trkpt lat="59.3432359211" lon="17.0351859648">
        <ele>8.2</ele>
        <time>2011-05-01T09:41:52Z</time>
      </trkpt>
      <trkpt lat="59.3434329797" lon="17.0349479187">
        <ele>8.2</ele>
        <time>2011-05-01T09:41:55Z</time>
      </trkpt>
      <trkpt lat="59.3436099216" lon="17.0346539654">
        <ele>7.8</ele>
        <time>2011-05-01T09:41:58Z</time>
      </trkpt>
      <trkpt lat="59.3437549286" lon="17.0343139954">
        <ele>6.2</ele>
        <time>2011-05-01T09:42:01Z</time>
      </trkpt>
      <trkpt lat="59.3438789807" lon="17.0339469519">
        <ele>5.8</ele>
        <time>2011-05-01T09:42:04Z</time>
      </trkpt>
      <trkpt lat="59.344103951" lon="17.0335989352">
        <ele>6.8</ele>
        <time>2011-05-01T09:42:08Z</time>
      </trkpt>
      <trkpt lat="59.3443089724" lon="17.0335059799">
        <ele>6.8</ele>
        <time>2011-05-01T09:42:11Z</time>
      </trkpt>
      <trkpt lat="59.3444469385" lon="17.033524923">
        <ele>7.2</ele>
        <time>2011-05-01T09:42:13Z</time>
      </trkpt>
      <trkpt lat="59.3447249662" lon="17.0335969236">
        <ele>7.2</ele>
        <time>2011-05-01T09:42:17Z</time>
      </trkpt>
      <trkpt lat="59.3449259643" lon="17.0336159505">
        <ele>7.8</ele>
        <time>2011-05-01T09:42:20Z</time>
      </trkpt>
      <trkpt lat="59.3451349251" lon="17.0335919783">
        <ele>7.8</ele>
        <time>2011-05-01T09:42:23Z</time>
      </trkpt>
      <trkpt lat="59.3453519326" lon="17.0335299522">
        <ele>6.8</ele>
        <time>2011-05-01T09:42:26Z</time>
      </trkpt>
      <trkpt lat="59.3454969395" lon="17.0334679261">
        <ele>7.2</ele>
        <time>2011-05-01T09:42:28Z</time>
      </trkpt>
      <trkpt lat="59.3457119353" lon="17.0333339833">
        <ele>8.2</ele>
        <time>2011-05-01T09:42:31Z</time>
      </trkpt>
      <trkpt lat="59.3459269311" lon="17.0331679378">
        <ele>8.2</ele>
        <time>2011-05-01T09:42:34Z</time>
      </trkpt>
      <trkpt lat="59.3461459503" lon="17.0330089331">
        <ele>8.2</ele>
        <time>2011-05-01T09:42:37Z</time>
      </trkpt>
      <trkpt lat="59.3463609461" lon="17.032844983">
        <ele>6.8</ele>
        <time>2011-05-01T09:42:40Z</time>
      </trkpt>
      <trkpt lat="59.346430935" lon="17.0327909198">
        <ele>6.8</ele>
        <time>2011-05-01T09:42:41Z</time>
      </trkpt>
      <trkpt lat="59.3466469366" lon="17.0326389559">
        <ele>6.8</ele>
        <time>2011-05-01T09:42:44Z</time>
      </trkpt>
      <trkpt lat="59.3467919435" lon="17.0325489342">
        <ele>6.8</ele>
        <time>2011-05-01T09:42:46Z</time>
      </trkpt>
      <trkpt lat="59.3470749166" lon="17.0325719845">
        <ele>6.8</ele>
        <time>2011-05-01T09:42:50Z</time>
      </trkpt>
      <trkpt lat="59.3472579774" lon="17.0327559672">
        <ele>6.8</ele>
        <time>2011-05-01T09:42:53Z</time>
      </trkpt>
      <trkpt lat="59.347398961" lon="17.0330769941">
        <ele>6.2</ele>
        <time>2011-05-01T09:42:56Z</time>
      </trkpt>
      <trkpt lat="59.3475549482" lon="17.0335929841">
        <ele>5.4</ele>
        <time>2011-05-01T09:43:00Z</time>
      </trkpt>
      <trkpt lat="59.3476489931" lon="17.0338339638">
        <ele>7.2</ele>
        <time>2011-05-01T09:43:02Z</time>
      </trkpt>
      <trkpt lat="59.3478189781" lon="17.0341489557">
        <ele>6.8</ele>
        <time>2011-05-01T09:43:05Z</time>
      </trkpt>
      <trkpt lat="59.348096922" lon="17.0344389696">
        <ele>6.2</ele>
        <time>2011-05-01T09:43:09Z</time>
      </trkpt>
      <trkpt lat="59.3483259995" lon="17.0345439948">
        <ele>5.8</ele>
        <time>2011-05-01T09:43:12Z</time>
      </trkpt>
      <trkpt lat="59.3485639617" lon="17.0345559809">
        <ele>5.4</ele>
        <time>2011-05-01T09:43:15Z</time>
      </trkpt>
      <trkpt lat="59.3488039356" lon="17.0345009957">
        <ele>4.4</ele>
        <time>2011-05-01T09:43:18Z</time>
      </trkpt>
      <trkpt lat="59.3490569852" lon="17.0344129857">
        <ele>3.4</ele>
        <time>2011-05-01T09:43:21Z</time>
      </trkpt>
      <trkpt lat="59.3493189197" lon="17.0343159232">
        <ele>1</ele>
        <time>2011-05-01T09:43:24Z</time>
      </trkpt>
      <trkpt lat="59.349404918" lon="17.0342839882">
        <ele>1.4</ele>
        <time>2011-05-01T09:43:25Z</time>
      </trkpt>
      <trkpt lat="59.349661991" lon="17.0341859199">
        <ele>1.4</ele>
        <time>2011-05-01T09:43:28Z</time>
      </trkpt>
      <trkpt lat="59.3499119394" lon="17.0340949763">
        <ele>2</ele>
        <time>2011-05-01T09:43:31Z</time>
      </trkpt>
      <trkpt lat="59.3501679227" lon="17.0340039488">
        <ele>1.4</ele>
        <time>2011-05-01T09:43:34Z</time>
      </trkpt>
      <trkpt lat="59.3504209723" lon="17.0339069702">
        <ele>1</ele>
        <time>2011-05-01T09:43:37Z</time>
      </trkpt>
      <trkpt lat="59.3506659754" lon="17.0338149369">
        <ele>1.4</ele>
        <time>2011-05-01T09:43:40Z</time>
      </trkpt>
      <trkpt lat="59.3509039376" lon="17.0337259211">
        <ele>0.6</ele>
        <time>2011-05-01T09:43:43Z</time>
      </trkpt>
      <trkpt lat="59.35112698" lon="17.0336409286">
        <ele>0.6</ele>
        <time>2011-05-01T09:43:46Z</time>
      </trkpt>
      <trkpt lat="59.3513419759" lon="17.0335649885">
        <ele>1</ele>
        <time>2011-05-01T09:43:49Z</time>
      </trkpt>
      <trkpt lat="59.3515529484" lon="17.0334829297">
        <ele>1</ele>
        <time>2011-05-01T09:43:52Z</time>
      </trkpt>
      <trkpt lat="59.3518959358" lon="17.0333569497">
        <ele>1</ele>
        <time>2011-05-01T09:43:57Z</time>
      </trkpt>
      <trkpt lat="59.3521069922" lon="17.0332769863">
        <ele>1.4</ele>
        <time>2011-05-01T09:44:00Z</time>
      </trkpt>
      <trkpt lat="59.352315953" lon="17.033197945">
        <ele>1.4</ele>
        <time>2011-05-01T09:44:03Z</time>
      </trkpt>
      <trkpt lat="59.3525239918" lon="17.033122927">
        <ele>0.6</ele>
        <time>2011-05-01T09:44:06Z</time>
      </trkpt>
      <trkpt lat="59.3527329527" lon="17.0330409519">
        <ele>1.4</ele>
        <time>2011-05-01T09:44:09Z</time>
      </trkpt>
      <trkpt lat="59.3529429194" lon="17.0329619944">
        <ele>2</ele>
        <time>2011-05-01T09:44:12Z</time>
      </trkpt>
      <trkpt lat="59.3531509582" lon="17.0328869764">
        <ele>2.4</ele>
        <time>2011-05-01T09:44:15Z</time>
      </trkpt>
      <trkpt lat="59.3533559795" lon="17.0328119583">
        <ele>2.4</ele>
        <time>2011-05-01T09:44:18Z</time>
      </trkpt>
      <trkpt lat="59.3535629287" lon="17.0327359345">
        <ele>2</ele>
        <time>2011-05-01T09:44:21Z</time>
      </trkpt>
      <trkpt lat="59.3537599873" lon="17.0326579828">
        <ele>1.4</ele>
        <time>2011-05-01T09:44:24Z</time>
      </trkpt>
      <trkpt lat="59.3539519329" lon="17.0325789414">
        <ele>2.4</ele>
        <time>2011-05-01T09:44:27Z</time>
      </trkpt>
      <trkpt lat="59.354139939" lon="17.0325019956">
        <ele>2</ele>
        <time>2011-05-01T09:44:30Z</time>
      </trkpt>
      <trkpt lat="59.3543249276" lon="17.0324219484">
        <ele>2.4</ele>
        <time>2011-05-01T09:44:33Z</time>
      </trkpt>
      <trkpt lat="59.3545219861" lon="17.032341985">
        <ele>3.4</ele>
        <time>2011-05-01T09:44:36Z</time>
      </trkpt>
      <trkpt lat="59.3547169492" lon="17.032266967">
        <ele>4.4</ele>
        <time>2011-05-01T09:44:39Z</time>
      </trkpt>
      <trkpt lat="59.3549069669" lon="17.0322319306">
        <ele>4.8</ele>
        <time>2011-05-01T09:44:42Z</time>
      </trkpt>
      <trkpt lat="59.3550999183" lon="17.0322429948">
        <ele>5.4</ele>
        <time>2011-05-01T09:44:45Z</time>
      </trkpt>
      <trkpt lat="59.3553069513" lon="17.032310972">
        <ele>4.8</ele>
        <time>2011-05-01T09:44:48Z</time>
      </trkpt>
      <trkpt lat="59.3555069435" lon="17.0324379578">
        <ele>5.4</ele>
        <time>2011-05-01T09:44:51Z</time>
      </trkpt>
      <trkpt lat="59.3556989729" lon="17.0325849764">
        <ele>5.4</ele>
        <time>2011-05-01T09:44:54Z</time>
      </trkpt>
      <trkpt lat="59.3559049163" lon="17.032732917">
        <ele>4.8</ele>
        <time>2011-05-01T09:44:57Z</time>
      </trkpt>
      <trkpt lat="59.3561289646" lon="17.0328879822">
        <ele>3.4</ele>
        <time>2011-05-01T09:45:00Z</time>
      </trkpt>
      <trkpt lat="59.3563619815" lon="17.0330369286">
        <ele>3.4</ele>
        <time>2011-05-01T09:45:03Z</time>
      </trkpt>
      <trkpt lat="59.3565869518" lon="17.0331869647">
        <ele>3.4</ele>
        <time>2011-05-01T09:45:06Z</time>
      </trkpt>
      <trkpt lat="59.3567309529" lon="17.0332769863">
        <ele>2.4</ele>
        <time>2011-05-01T09:45:08Z</time>
      </trkpt>
      <trkpt lat="59.3570049573" lon="17.0331929997">
        <ele>3.4</ele>
        <time>2011-05-01T09:45:12Z</time>
      </trkpt>
      <trkpt lat="59.3571119942" lon="17.0329979528">
        <ele>4.4</ele>
        <time>2011-05-01T09:45:14Z</time>
      </trkpt>
      <trkpt lat="59.3573079631" lon="17.0326099545">
        <ele>5.4</ele>
        <time>2011-05-01T09:45:18Z</time>
      </trkpt>
      <trkpt lat="59.3574619386" lon="17.0323209465">
        <ele>5.4</ele>
        <time>2011-05-01T09:45:21Z</time>
      </trkpt>
      <trkpt lat="59.3576269783" lon="17.0320399851">
        <ele>5.8</ele>
        <time>2011-05-01T09:45:24Z</time>
      </trkpt>
      <trkpt lat="59.35779294" lon="17.0317629632">
        <ele>5.4</ele>
        <time>2011-05-01T09:45:27Z</time>
      </trkpt>
      <trkpt lat="59.3579579797" lon="17.0314869471">
        <ele>5.4</ele>
        <time>2011-05-01T09:45:30Z</time>
      </trkpt>
      <trkpt lat="59.3581169844" lon="17.0312149543">
        <ele>6.8</ele>
        <time>2011-05-01T09:45:33Z</time>
      </trkpt>
      <trkpt lat="59.3582769949" lon="17.0309569594">
        <ele>7.8</ele>
        <time>2011-05-01T09:45:36Z</time>
      </trkpt>
      <trkpt lat="59.3584359996" lon="17.0307099447">
        <ele>7.8</ele>
        <time>2011-05-01T09:45:39Z</time>
      </trkpt>
      <trkpt lat="59.358666921" lon="17.0304769278">
        <ele>8.2</ele>
        <time>2011-05-01T09:45:43Z</time>
      </trkpt>
      <trkpt lat="59.3588379957" lon="17.0303499419">
        <ele>8.2</ele>
        <time>2011-05-01T09:45:46Z</time>
      </trkpt>
      <trkpt lat="59.3590669893" lon="17.0304679591">
        <ele>7.8</ele>
        <time>2011-05-01T09:45:50Z</time>
      </trkpt>
      <trkpt lat="59.359106971" lon="17.0305849705">
        <ele>7.8</ele>
        <time>2011-05-01T09:45:51Z</time>
      </trkpt>
      <trkpt lat="59.3592319451" lon="17.0311189815">
        <ele>8.2</ele>
        <time>2011-05-01T09:45:55Z</time>
      </trkpt>
      <trkpt lat="59.3593199551" lon="17.0315359812">
        <ele>7.8</ele>
        <time>2011-05-01T09:45:58Z</time>
      </trkpt>
      <trkpt lat="59.3594279978" lon="17.0319239795">
        <ele>8.2</ele>
        <time>2011-05-01T09:46:01Z</time>
      </trkpt>
      <trkpt lat="59.3595569953" lon="17.0322489459">
        <ele>6.2</ele>
        <time>2011-05-01T09:46:04Z</time>
      </trkpt>
      <trkpt lat="59.359671995" lon="17.0325869881">
        <ele>7.8</ele>
        <time>2011-05-01T09:46:07Z</time>
      </trkpt>
      <trkpt lat="59.3597649503" lon="17.0329229347">
        <ele>8.2</ele>
        <time>2011-05-01T09:46:10Z</time>
      </trkpt>
      <trkpt lat="59.3598289881" lon="17.0331449714">
        <ele>9.2</ele>
        <time>2011-05-01T09:46:12Z</time>
      </trkpt>
      <trkpt lat="59.3599259667" lon="17.0334839355">
        <ele>8.6</ele>
        <time>2011-05-01T09:46:15Z</time>
      </trkpt>
      <trkpt lat="59.3600259628" lon="17.033819966">
        <ele>9.6</ele>
        <time>2011-05-01T09:46:18Z</time>
      </trkpt>
      <trkpt lat="59.3601249531" lon="17.0341519732">
        <ele>7.8</ele>
        <time>2011-05-01T09:46:21Z</time>
      </trkpt>
      <trkpt lat="59.3602149747" lon="17.034485992">
        <ele>9.6</ele>
        <time>2011-05-01T09:46:24Z</time>
      </trkpt>
      <trkpt lat="59.3603169825" lon="17.0348079409">
        <ele>9.6</ele>
        <time>2011-05-01T09:46:27Z</time>
      </trkpt>
      <trkpt lat="59.3604349997" lon="17.0351099409">
        <ele>9.6</ele>
        <time>2011-05-01T09:46:30Z</time>
      </trkpt>
      <trkpt lat="59.3605649192" lon="17.0354089234">
        <ele>10.2</ele>
        <time>2011-05-01T09:46:33Z</time>
      </trkpt>
      <trkpt lat="59.3607029691" lon="17.0356969256">
        <ele>10.2</ele>
        <time>2011-05-01T09:46:36Z</time>
      </trkpt>
      <trkpt lat="59.3608409353" lon="17.0359869394">
        <ele>10.2</ele>
        <time>2011-05-01T09:46:39Z</time>
      </trkpt>
      <trkpt lat="59.3609779794" lon="17.03627293">
        <ele>10.6</ele>
        <time>2011-05-01T09:46:42Z</time>
      </trkpt>
      <trkpt lat="59.3610709347" lon="17.0364549849">
        <ele>11</ele>
        <time>2011-05-01T09:46:44Z</time>
      </trkpt>
      <trkpt lat="59.3611989263" lon="17.0367279835">
        <ele>11.6</ele>
        <time>2011-05-01T09:46:47Z</time>
      </trkpt>
      <trkpt lat="59.3613319471" lon="17.0370179974">
        <ele>11</ele>
        <time>2011-05-01T09:46:50Z</time>
      </trkpt>
      <trkpt lat="59.3614699971" lon="17.0373249426">
        <ele>10.2</ele>
        <time>2011-05-01T09:46:53Z</time>
      </trkpt>
      <trkpt lat="59.3615749385" lon="17.0375079196">
        <ele>9.2</ele>
        <time>2011-05-01T09:46:55Z</time>
      </trkpt>
      <trkpt lat="59.361828994" lon="17.037737919">
        <ele>9.6</ele>
        <time>2011-05-01T09:46:59Z</time>
      </trkpt>
      <trkpt lat="59.3618959654" lon="17.0377689321">
        <ele>9.6</ele>
        <time>2011-05-01T09:47:00Z</time>
      </trkpt>
      <trkpt lat="59.362162929" lon="17.0378919784">
        <ele>9.6</ele>
        <time>2011-05-01T09:47:04Z</time>
      </trkpt>
      <trkpt lat="59.3623709679" lon="17.0380089898">
        <ele>8.6</ele>
        <time>2011-05-01T09:47:07Z</time>
      </trkpt>
      <trkpt lat="59.362583952" lon="17.0381179545">
        <ele>8.2</ele>
        <time>2011-05-01T09:47:10Z</time>
      </trkpt>
      <trkpt lat="59.3627929967" lon="17.0381989237">
        <ele>9.2</ele>
        <time>2011-05-01T09:47:13Z</time>
      </trkpt>
      <trkpt lat="59.3628619798" lon="17.038215939">
        <ele>9.2</ele>
        <time>2011-05-01T09:47:14Z</time>
      </trkpt>
      <trkpt lat="59.3630679231" lon="17.038252987">
        <ele>9.6</ele>
        <time>2011-05-01T09:47:17Z</time>
      </trkpt>
      <trkpt lat="59.3632879481" lon="17.0382609498">
        <ele>10.2</ele>
        <time>2011-05-01T09:47:20Z</time>
      </trkpt>
      <trkpt lat="59.3635189533" lon="17.0382419229">
        <ele>10.2</ele>
        <time>2011-05-01T09:47:23Z</time>
      </trkpt>
      <trkpt lat="59.3637589272" lon="17.0381939784">
        <ele>10.2</ele>
        <time>2011-05-01T09:47:26Z</time>
      </trkpt>
      <trkpt lat="59.3639939558" lon="17.0381399989">
        <ele>10.6</ele>
        <time>2011-05-01T09:47:29Z</time>
      </trkpt>
      <trkpt lat="59.3641479313" lon="17.0381019451">
        <ele>11</ele>
        <time>2011-05-01T09:47:31Z</time>
      </trkpt>
      <trkpt lat="59.3643649388" lon="17.038039919">
        <ele>11.6</ele>
        <time>2011-05-01T09:47:34Z</time>
      </trkpt>
      <trkpt lat="59.3645759951" lon="17.0379679184">
        <ele>11.6</ele>
        <time>2011-05-01T09:47:37Z</time>
      </trkpt>
      <trkpt lat="59.3647829443" lon="17.0379039645">
        <ele>12</ele>
        <time>2011-05-01T09:47:40Z</time>
      </trkpt>
      <trkpt lat="59.3649949227" lon="17.0378329698">
        <ele>12</ele>
        <time>2011-05-01T09:47:43Z</time>
      </trkpt>
      <trkpt lat="59.3652139418" lon="17.0377549343">
        <ele>12</ele>
        <time>2011-05-01T09:47:46Z</time>
      </trkpt>
      <trkpt lat="59.3654419295" lon="17.0376529265">
        <ele>11.6</ele>
        <time>2011-05-01T09:47:49Z</time>
      </trkpt>
      <trkpt lat="59.3656659778" lon="17.037491994">
        <ele>9.6</ele>
        <time>2011-05-01T09:47:52Z</time>
      </trkpt>
      <trkpt lat="59.3658249825" lon="17.0373879746">
        <ele>9.2</ele>
        <time>2011-05-01T09:47:54Z</time>
      </trkpt>
      <trkpt lat="59.365997985" lon="17.0373339951">
        <ele>8.2</ele>
        <time>2011-05-01T09:47:56Z</time>
      </trkpt>
      <trkpt lat="59.3662829697" lon="17.0373509265">
        <ele>5.4</ele>
        <time>2011-05-01T09:47:59Z</time>
      </trkpt>
      <trkpt lat="59.3665779289" lon="17.0374569576">
        <ele>4.4</ele>
        <time>2011-05-01T09:48:02Z</time>
      </trkpt>
      <trkpt lat="59.3669489957" lon="17.0375269465">
        <ele>4.4</ele>
        <time>2011-05-01T09:48:06Z</time>
      </trkpt>
      <trkpt lat="59.3671969324" lon="17.0374739729">
        <ele>5.4</ele>
        <time>2011-05-01T09:48:09Z</time>
      </trkpt>
      <trkpt lat="59.3674329668" lon="17.0373609848">
        <ele>4.8</ele>
        <time>2011-05-01T09:48:12Z</time>
      </trkpt>
      <trkpt lat="59.3675909657" lon="17.0372679457">
        <ele>3.8</ele>
        <time>2011-05-01T09:48:14Z</time>
      </trkpt>
      <trkpt lat="59.3678299338" lon="17.0370689593">
        <ele>4.4</ele>
        <time>2011-05-01T09:48:17Z</time>
      </trkpt>
      <trkpt lat="59.3680499587" lon="17.0368219446">
        <ele>4.4</ele>
        <time>2011-05-01T09:48:20Z</time>
      </trkpt>
      <trkpt lat="59.3682569917" lon="17.0365379658">
        <ele>3.8</ele>
        <time>2011-05-01T09:48:23Z</time>
      </trkpt>
      <trkpt lat="59.3684469257" lon="17.0361809805">
        <ele>4.4</ele>
        <time>2011-05-01T09:48:26Z</time>
      </trkpt>
      <trkpt lat="59.3686309922" lon="17.0358299464">
        <ele>4.4</ele>
        <time>2011-05-01T09:48:29Z</time>
      </trkpt>
      <trkpt lat="59.3688139692" lon="17.0354909822">
        <ele>3.8</ele>
        <time>2011-05-01T09:48:32Z</time>
      </trkpt>
      <trkpt lat="59.3689949345" lon="17.0351419598">
        <ele>3.8</ele>
        <time>2011-05-01T09:48:35Z</time>
      </trkpt>
      <trkpt lat="59.3691809289" lon="17.0348019898">
        <ele>3.4</ele>
        <time>2011-05-01T09:48:38Z</time>
      </trkpt>
      <trkpt lat="59.3693599664" lon="17.0344689768">
        <ele>3.8</ele>
        <time>2011-05-01T09:48:41Z</time>
      </trkpt>
      <trkpt lat="59.3695359863" lon="17.0341639593">
        <ele>3.8</ele>
        <time>2011-05-01T09:48:44Z</time>
      </trkpt>
      <trkpt lat="59.3697069772" lon="17.0338819921">
        <ele>3.8</ele>
        <time>2011-05-01T09:48:47Z</time>
      </trkpt>
      <trkpt lat="59.3698769622" lon="17.0336239971">
        <ele>4.8</ele>
        <time>2011-05-01T09:48:50Z</time>
      </trkpt>
      <trkpt lat="59.369990956" lon="17.0334629808">
        <ele>5.4</ele>
        <time>2011-05-01T09:48:52Z</time>
      </trkpt>
      <trkpt lat="59.3702329416" lon="17.0332629886">
        <ele>6.2</ele>
        <time>2011-05-01T09:48:56Z</time>
      </trkpt>
      <trkpt lat="59.3704239652" lon="17.0331789181">
        <ele>6.8</ele>
        <time>2011-05-01T09:48:59Z</time>
      </trkpt>
      <trkpt lat="59.3706119712" lon="17.0331019722">
        <ele>6.2</ele>
        <time>2011-05-01T09:49:02Z</time>
      </trkpt>
      <trkpt lat="59.3708079401" lon="17.0330139622">
        <ele>6.2</ele>
        <time>2011-05-01T09:49:05Z</time>
      </trkpt>
      <trkpt lat="59.3710049987" lon="17.0329719689">
        <ele>5.8</ele>
        <time>2011-05-01T09:49:08Z</time>
      </trkpt>
      <trkpt lat="59.371192921" lon="17.0329519361">
        <ele>7.2</ele>
        <time>2011-05-01T09:49:11Z</time>
      </trkpt>
      <trkpt lat="59.371380927" lon="17.0329749864">
        <ele>7.2</ele>
        <time>2011-05-01T09:49:14Z</time>
      </trkpt>
      <trkpt lat="59.371512942" lon="17.0330009703">
        <ele>6.2</ele>
        <time>2011-05-01T09:49:16Z</time>
      </trkpt>
      <trkpt lat="59.3717279378" lon="17.0329919178">
        <ele>3.8</ele>
        <time>2011-05-01T09:49:19Z</time>
      </trkpt>
      <trkpt lat="59.3719369825" lon="17.0329219289">
        <ele>3.8</ele>
        <time>2011-05-01T09:49:22Z</time>
      </trkpt>
      <trkpt lat="59.3721649703" lon="17.0328379422">
        <ele>2</ele>
        <time>2011-05-01T09:49:25Z</time>
      </trkpt>
      <trkpt lat="59.3722399883" lon="17.0328069292">
        <ele>2</ele>
        <time>2011-05-01T09:49:26Z</time>
      </trkpt>
      <trkpt lat="59.3724609353" lon="17.0326989703">
        <ele>0.6</ele>
        <time>2011-05-01T09:49:29Z</time>
      </trkpt>
      <trkpt lat="59.3726089597" lon="17.0326449908">
        <ele>1</ele>
        <time>2011-05-01T09:49:31Z</time>
      </trkpt>
      <trkpt lat="59.3727949541" lon="17.0330099389">
        <ele>0</ele>
        <time>2011-05-01T09:49:35Z</time>
      </trkpt>
      <trkpt lat="59.3727979716" lon="17.0331589691">
        <ele>0</ele>
        <time>2011-05-01T09:49:36Z</time>
      </trkpt>
      <trkpt lat="59.37274592" lon="17.0336289424">
        <ele>0</ele>
        <time>2011-05-01T09:49:39Z</time>
      </trkpt>
      <trkpt lat="59.3725809641" lon="17.0341919549">
        <ele>0</ele>
        <time>2011-05-01T09:49:43Z</time>
      </trkpt>
      <trkpt lat="59.3725029286" lon="17.0344559848">
        <ele>0</ele>
        <time>2011-05-01T09:49:45Z</time>
      </trkpt>
      <trkpt lat="59.3724689819" lon="17.0349249523">
        <ele>0</ele>
        <time>2011-05-01T09:49:49Z</time>
      </trkpt>
      <trkpt lat="59.3725119811" lon="17.0350099448">
        <ele>0</ele>
        <time>2011-05-01T09:49:50Z</time>
      </trkpt>
      <trkpt lat="59.3727089558" lon="17.035334995">
        <ele>0</ele>
        <time>2011-05-01T09:49:54Z</time>
      </trkpt>
      <trkpt lat="59.3728549685" lon="17.0355599653">
        <ele>0</ele>
        <time>2011-05-01T09:49:57Z</time>
      </trkpt>
      <trkpt lat="59.3729939405" lon="17.0357769728">
        <ele>0</ele>
        <time>2011-05-01T09:50:00Z</time>
      </trkpt>
      <trkpt lat="59.3731379416" lon="17.0359899569">
        <ele>0</ele>
        <time>2011-05-01T09:50:03Z</time>
      </trkpt>
      <trkpt lat="59.3732969463" lon="17.036183998">
        <ele>0</ele>
        <time>2011-05-01T09:50:06Z</time>
      </trkpt>
      <trkpt lat="59.3734299671" lon="17.0362619497">
        <ele>0</ele>
        <time>2011-05-01T09:50:08Z</time>
      </trkpt>
      <trkpt lat="59.3736449629" lon="17.0363069605">
        <ele>0</ele>
        <time>2011-05-01T09:50:11Z</time>
      </trkpt>
      <trkpt lat="59.3738599587" lon="17.0363529772">
        <ele>0</ele>
        <time>2011-05-01T09:50:14Z</time>
      </trkpt>
      <trkpt lat="59.3740819953" lon="17.0364279952">
        <ele>0</ele>
        <time>2011-05-01T09:50:17Z</time>
      </trkpt>
      <trkpt lat="59.3743469473" lon="17.0366929471">
        <ele>0</ele>
        <time>2011-05-01T09:50:21Z</time>
      </trkpt>
      <trkpt lat="59.3745249789" lon="17.0369239524">
        <ele>0</ele>
        <time>2011-05-01T09:50:24Z</time>
      </trkpt>
      <trkpt lat="59.3747049384" lon="17.0371539518">
        <ele>0</ele>
        <time>2011-05-01T09:50:27Z</time>
      </trkpt>
      <trkpt lat="59.3748929445" lon="17.037353944">
        <ele>0</ele>
        <time>2011-05-01T09:50:30Z</time>
      </trkpt>
      <trkpt lat="59.3750919309" lon="17.0375159662">
        <ele>0</ele>
        <time>2011-05-01T09:50:33Z</time>
      </trkpt>
      <trkpt lat="59.3752919231" lon="17.0376369171">
        <ele>0</ele>
        <time>2011-05-01T09:50:36Z</time>
      </trkpt>
      <trkpt lat="59.375423938" lon="17.0377099235">
        <ele>0</ele>
        <time>2011-05-01T09:50:38Z</time>
      </trkpt>
      <trkpt lat="59.3756359164" lon="17.0380639751">
        <ele>0</ele>
        <time>2011-05-01T09:50:42Z</time>
      </trkpt>
      <trkpt lat="59.3758029677" lon="17.0385239739">
        <ele>0</ele>
        <time>2011-05-01T09:50:46Z</time>
      </trkpt>
      <trkpt lat="59.3759199791" lon="17.0388229564">
        <ele>0</ele>
        <time>2011-05-01T09:50:49Z</time>
      </trkpt>
      <trkpt lat="59.376051994" lon="17.0391059294">
        <ele>0</ele>
        <time>2011-05-01T09:50:52Z</time>
      </trkpt>
      <trkpt lat="59.3760999385" lon="17.0391939394">
        <ele>0</ele>
        <time>2011-05-01T09:50:53Z</time>
      </trkpt>
      <trkpt lat="59.3763129227" lon="17.0394789241">
        <ele>0</ele>
        <time>2011-05-01T09:50:57Z</time>
      </trkpt>
      <trkpt lat="59.3764269166" lon="17.0396089274">
        <ele>0</ele>
        <time>2011-05-01T09:50:59Z</time>
      </trkpt>
      <trkpt lat="59.3766649626" lon="17.0395619888">
        <ele>0</ele>
        <time>2011-05-01T09:51:03Z</time>
      </trkpt>
      <trkpt lat="59.3767509609" lon="17.0393509325">
        <ele>0</ele>
        <time>2011-05-01T09:51:05Z</time>
      </trkpt>
      <trkpt lat="59.3768709898" lon="17.0389009919">
        <ele>0</ele>
        <time>2011-05-01T09:51:09Z</time>
      </trkpt>
      <trkpt lat="59.3769469298" lon="17.0385439228">
        <ele>0</ele>
        <time>2011-05-01T09:51:12Z</time>
      </trkpt>
      <trkpt lat="59.3770329282" lon="17.0382079761">
        <ele>0</ele>
        <time>2011-05-01T09:51:15Z</time>
      </trkpt>
      <trkpt lat="59.3771359418" lon="17.0379249193">
        <ele>0</ele>
        <time>2011-05-01T09:51:18Z</time>
      </trkpt>
      <trkpt lat="59.3772339262" lon="17.0376899745">
        <ele>0</ele>
        <time>2011-05-01T09:51:21Z</time>
      </trkpt>
      <trkpt lat="59.3773419689" lon="17.0375659224">
        <ele>1</ele>
        <time>2011-05-01T09:51:24Z</time>
      </trkpt>
      <trkpt lat="59.3774729781" lon="17.037604982">
        <ele>0.6</ele>
        <time>2011-05-01T09:51:27Z</time>
      </trkpt>
      <trkpt lat="59.3777119461" lon="17.0377519168">
        <ele>1.4</ele>
        <time>2011-05-01T09:51:32Z</time>
      </trkpt>
      <trkpt lat="59.377862988" lon="17.0378439501">
        <ele>2.4</ele>
        <time>2011-05-01T09:51:35Z</time>
      </trkpt>
      <trkpt lat="59.3780139461" lon="17.0379309542">
        <ele>3.4</ele>
        <time>2011-05-01T09:51:38Z</time>
      </trkpt>
      <trkpt lat="59.3781679217" lon="17.0380229875">
        <ele>3.4</ele>
        <time>2011-05-01T09:51:41Z</time>
      </trkpt>
      <trkpt lat="59.3783239927" lon="17.0381159429">
        <ele>3</ele>
        <time>2011-05-01T09:51:44Z</time>
      </trkpt>
      <trkpt lat="59.3784949835" lon="17.0382149331">
        <ele>3</ele>
        <time>2011-05-01T09:51:47Z</time>
      </trkpt>
      <trkpt lat="59.3786779605" lon="17.0383179467">
        <ele>3</ele>
        <time>2011-05-01T09:51:50Z</time>
      </trkpt>
      <trkpt lat="59.3788679782" lon="17.0384279173">
        <ele>3</ele>
        <time>2011-05-01T09:51:53Z</time>
      </trkpt>
      <trkpt lat="59.379064953" lon="17.038541995">
        <ele>2.4</ele>
        <time>2011-05-01T09:51:56Z</time>
      </trkpt>
      <trkpt lat="59.3792629335" lon="17.0386579167">
        <ele>2</ele>
        <time>2011-05-01T09:51:59Z</time>
      </trkpt>
      <trkpt lat="59.3794569746" lon="17.0387739222">
        <ele>0.6</ele>
        <time>2011-05-01T09:52:02Z</time>
      </trkpt>
      <trkpt lat="59.3796529435" lon="17.0388899278">
        <ele>0</ele>
        <time>2011-05-01T09:52:05Z</time>
      </trkpt>
      <trkpt lat="59.379850924" lon="17.039000988">
        <ele>0</ele>
        <time>2011-05-01T09:52:08Z</time>
      </trkpt>
      <trkpt lat="59.3800529279" lon="17.0391159877">
        <ele>0</ele>
        <time>2011-05-01T09:52:11Z</time>
      </trkpt>
      <trkpt lat="59.3802619725" lon="17.0392469969">
        <ele>0</ele>
        <time>2011-05-01T09:52:14Z</time>
      </trkpt>
      <trkpt lat="59.3804809917" lon="17.039371971">
        <ele>0</ele>
        <time>2011-05-01T09:52:17Z</time>
      </trkpt>
      <trkpt lat="59.3806949817" lon="17.0394869708">
        <ele>0</ele>
        <time>2011-05-01T09:52:20Z</time>
      </trkpt>
      <trkpt lat="59.3808979914" lon="17.0396049879">
        <ele>0</ele>
        <time>2011-05-01T09:52:23Z</time>
      </trkpt>
      <trkpt lat="59.3811029289" lon="17.0397229213">
        <ele>0</ele>
        <time>2011-05-01T09:52:26Z</time>
      </trkpt>
      <trkpt lat="59.3813069444" lon="17.0398359932">
        <ele>0</ele>
        <time>2011-05-01T09:52:29Z</time>
      </trkpt>
      <trkpt lat="59.381371988" lon="17.0398719516">
        <ele>0</ele>
        <time>2011-05-01T09:52:30Z</time>
      </trkpt>
      <trkpt lat="59.3815699685" lon="17.0399779826">
        <ele>0</ele>
        <time>2011-05-01T09:52:33Z</time>
      </trkpt>
      <trkpt lat="59.3817659374" lon="17.0400859416">
        <ele>0</ele>
        <time>2011-05-01T09:52:36Z</time>
      </trkpt>
      <trkpt lat="59.3819579668" lon="17.0402129274">
        <ele>0</ele>
        <time>2011-05-01T09:52:39Z</time>
      </trkpt>
      <trkpt lat="59.3821549416" lon="17.0403499715">
        <ele>0</ele>
        <time>2011-05-01T09:52:42Z</time>
      </trkpt>
      <trkpt lat="59.3823529221" lon="17.0404909551">
        <ele>0</ele>
        <time>2011-05-01T09:52:45Z</time>
      </trkpt>
      <trkpt lat="59.3825589493" lon="17.0405789651">
        <ele>0</ele>
        <time>2011-05-01T09:52:48Z</time>
      </trkpt>
      <trkpt lat="59.3827669881" lon="17.040654989">
        <ele>0</ele>
        <time>2011-05-01T09:52:51Z</time>
      </trkpt>
      <trkpt lat="59.3829669803" lon="17.040743921">
        <ele>0</ele>
        <time>2011-05-01T09:52:54Z</time>
      </trkpt>
      <trkpt lat="59.3830319401" lon="17.0407769457">
        <ele>0</ele>
        <time>2011-05-01T09:52:55Z</time>
      </trkpt>
      <trkpt lat="59.383226987" lon="17.0408739243">
        <ele>0</ele>
        <time>2011-05-01T09:52:58Z</time>
      </trkpt>
      <trkpt lat="59.38342195" lon="17.0409669634">
        <ele>0</ele>
        <time>2011-05-01T09:53:01Z</time>
      </trkpt>
      <trkpt lat="59.3836149853" lon="17.041056985">
        <ele>0</ele>
        <time>2011-05-01T09:53:04Z</time>
      </trkpt>
      <trkpt lat="59.383805925" lon="17.0411469229">
        <ele>0</ele>
        <time>2011-05-01T09:53:07Z</time>
      </trkpt>
      <trkpt lat="59.3839949369" lon="17.0412359387">
        <ele>0</ele>
        <time>2011-05-01T09:53:10Z</time>
      </trkpt>
      <trkpt lat="59.384182943" lon="17.0413199253">
        <ele>0</ele>
        <time>2011-05-01T09:53:13Z</time>
      </trkpt>
      <trkpt lat="59.3843719549" lon="17.0414019842">
        <ele>0</ele>
        <time>2011-05-01T09:53:16Z</time>
      </trkpt>
      <trkpt lat="59.3845559377" lon="17.0414799359">
        <ele>1</ele>
        <time>2011-05-01T09:53:19Z</time>
      </trkpt>
      <trkpt lat="59.3847329635" lon="17.0415409561">
        <ele>1</ele>
        <time>2011-05-01T09:53:22Z</time>
      </trkpt>
      <trkpt lat="59.3848889507" lon="17.041579932">
        <ele>2</ele>
        <time>2011-05-01T09:53:25Z</time>
      </trkpt>
      <trkpt lat="59.3850769568" lon="17.0416249428">
        <ele>3</ele>
        <time>2011-05-01T09:53:29Z</time>
      </trkpt>
      <trkpt lat="59.3852359615" lon="17.0416429639">
        <ele>3.4</ele>
        <time>2011-05-01T09:53:32Z</time>
      </trkpt>
      <trkpt lat="59.385402929" lon="17.0416389406">
        <ele>3.8</ele>
        <time>2011-05-01T09:53:35Z</time>
      </trkpt>
      <trkpt lat="59.3855689745" lon="17.0415989589">
        <ele>5.4</ele>
        <time>2011-05-01T09:53:38Z</time>
      </trkpt>
      <trkpt lat="59.3857359421" lon="17.0415199175">
        <ele>5.8</ele>
        <time>2011-05-01T09:53:41Z</time>
      </trkpt>
      <trkpt lat="59.3858969584" lon="17.0414269622">
        <ele>6.8</ele>
        <time>2011-05-01T09:53:44Z</time>
      </trkpt>
      <trkpt lat="59.386050934" lon="17.0413249545">
        <ele>7.8</ele>
        <time>2011-05-01T09:53:47Z</time>
      </trkpt>
      <trkpt lat="59.3862039875" lon="17.0412189234">
        <ele>8.2</ele>
        <time>2011-05-01T09:53:50Z</time>
      </trkpt>
      <trkpt lat="59.3863589689" lon="17.0410979725">
        <ele>8.6</ele>
        <time>2011-05-01T09:53:53Z</time>
      </trkpt>
      <trkpt lat="59.386515962" lon="17.0409619343">
        <ele>9.2</ele>
        <time>2011-05-01T09:53:56Z</time>
      </trkpt>
      <trkpt lat="59.386672955" lon="17.0408029296">
        <ele>9.2</ele>
        <time>2011-05-01T09:53:59Z</time>
      </trkpt>
      <trkpt lat="59.3868329655" lon="17.0406209584">
        <ele>9.2</ele>
        <time>2011-05-01T09:54:02Z</time>
      </trkpt>
      <trkpt lat="59.3869909644" lon="17.0404109918">
        <ele>9.2</ele>
        <time>2011-05-01T09:54:05Z</time>
      </trkpt>
      <trkpt lat="59.3871489633" lon="17.0401849318">
        <ele>8.6</ele>
        <time>2011-05-01T09:54:08Z</time>
      </trkpt>
      <trkpt lat="59.387301933" lon="17.0399309602">
        <ele>9.6</ele>
        <time>2011-05-01T09:54:11Z</time>
      </trkpt>
      <trkpt lat="59.3874519691" lon="17.0396599732">
        <ele>10.2</ele>
        <time>2011-05-01T09:54:14Z</time>
      </trkpt>
      <trkpt lat="59.3876019213" lon="17.0393939316">
        <ele>10.2</ele>
        <time>2011-05-01T09:54:17Z</time>
      </trkpt>
      <trkpt lat="59.3877519574" lon="17.039126968">
        <ele>10.2</ele>
        <time>2011-05-01T09:54:20Z</time>
      </trkpt>
      <trkpt lat="59.3878969643" lon="17.038868973">
        <ele>11</ele>
        <time>2011-05-01T09:54:23Z</time>
      </trkpt>
      <trkpt lat="59.3880399596" lon="17.0386199467">
        <ele>13</ele>
        <time>2011-05-01T09:54:26Z</time>
      </trkpt>
      <trkpt lat="59.3882679474" lon="17.03819599">
        <ele>14.4</ele>
        <time>2011-05-01T09:54:31Z</time>
      </trkpt>
      <trkpt lat="59.3884079251" lon="17.0379319601">
        <ele>14.4</ele>
        <time>2011-05-01T09:54:34Z</time>
      </trkpt>
      <trkpt lat="59.3885549437" lon="17.0376629848">
        <ele>14.4</ele>
        <time>2011-05-01T09:54:37Z</time>
      </trkpt>
      <trkpt lat="59.3887059856" lon="17.0373859629">
        <ele>15</ele>
        <time>2011-05-01T09:54:40Z</time>
      </trkpt>
      <trkpt lat="59.3888619728" lon="17.0371079352">
        <ele>14.4</ele>
        <time>2011-05-01T09:54:43Z</time>
      </trkpt>
      <trkpt lat="59.3890199717" lon="17.0368319191">
        <ele>14.4</ele>
        <time>2011-05-01T09:54:46Z</time>
      </trkpt>
      <trkpt lat="59.3891759589" lon="17.0365609322">
        <ele>14.4</ele>
        <time>2011-05-01T09:54:49Z</time>
      </trkpt>
      <trkpt lat="59.3893349636" lon="17.0362879336">
        <ele>15</ele>
        <time>2011-05-01T09:54:52Z</time>
      </trkpt>
      <trkpt lat="59.3894929625" lon="17.0360019431">
        <ele>15.8</ele>
        <time>2011-05-01T09:54:55Z</time>
      </trkpt>
      <trkpt lat="59.3896039389" lon="17.0358059742">
        <ele>14</ele>
        <time>2011-05-01T09:54:57Z</time>
      </trkpt>
      <trkpt lat="59.3897819705" lon="17.0354839414">
        <ele>12.6</ele>
        <time>2011-05-01T09:55:00Z</time>
      </trkpt>
      <trkpt lat="59.3899819627" lon="17.0351239387">
        <ele>11.6</ele>
        <time>2011-05-01T09:55:03Z</time>
      </trkpt>
      <trkpt lat="59.3902049214" lon="17.0347609185">
        <ele>11</ele>
        <time>2011-05-01T09:55:06Z</time>
      </trkpt>
      <trkpt lat="59.3904369324" lon="17.0343909413">
        <ele>10.2</ele>
        <time>2011-05-01T09:55:09Z</time>
      </trkpt>
      <trkpt lat="59.3906569574" lon="17.0340219699">
        <ele>9.6</ele>
        <time>2011-05-01T09:55:12Z</time>
      </trkpt>
      <trkpt lat="59.3908709474" lon="17.0336479694">
        <ele>9.6</ele>
        <time>2011-05-01T09:55:15Z</time>
      </trkpt>
      <trkpt lat="59.3910839316" lon="17.0332519244">
        <ele>9.6</ele>
        <time>2011-05-01T09:55:18Z</time>
      </trkpt>
      <trkpt lat="59.3912949879" lon="17.0328589808">
        <ele>8.2</ele>
        <time>2011-05-01T09:55:21Z</time>
      </trkpt>
      <trkpt lat="59.3915069662" lon="17.0324699767">
        <ele>9.6</ele>
        <time>2011-05-01T09:55:24Z</time>
      </trkpt>
      <trkpt lat="59.3917129934" lon="17.032096982">
        <ele>8.6</ele>
        <time>2011-05-01T09:55:27Z</time>
      </trkpt>
      <trkpt lat="59.3919019215" lon="17.0317539945">
        <ele>11</ele>
        <time>2011-05-01T09:55:30Z</time>
      </trkpt>
      <trkpt lat="59.3919619359" lon="17.0316469576">
        <ele>11</ele>
        <time>2011-05-01T09:55:31Z</time>
      </trkpt>
      <trkpt lat="59.3921319209" lon="17.031348981">
        <ele>12.6</ele>
        <time>2011-05-01T09:55:34Z</time>
      </trkpt>
      <trkpt lat="59.3922929373" lon="17.0310709532">
        <ele>14</ele>
        <time>2011-05-01T09:55:37Z</time>
      </trkpt>
      <trkpt lat="59.3924479187" lon="17.0307949372">
        <ele>14</ele>
        <time>2011-05-01T09:55:40Z</time>
      </trkpt>
      <trkpt lat="59.3926069234" lon="17.0305169933">
        <ele>13.4</ele>
        <time>2011-05-01T09:55:43Z</time>
      </trkpt>
      <trkpt lat="59.3927699514" lon="17.0302299969">
        <ele>14</ele>
        <time>2011-05-01T09:55:46Z</time>
      </trkpt>
      <trkpt lat="59.3929359969" lon="17.0299489517">
        <ele>14.4</ele>
        <time>2011-05-01T09:55:49Z</time>
      </trkpt>
      <trkpt lat="59.3931099214" lon="17.0296709239">
        <ele>14</ele>
        <time>2011-05-01T09:55:52Z</time>
      </trkpt>
      <trkpt lat="59.3933029566" lon="17.0294189639">
        <ele>14.4</ele>
        <time>2011-05-01T09:55:55Z</time>
      </trkpt>
      <trkpt lat="59.3935139291" lon="17.0291979332">
        <ele>13</ele>
        <time>2011-05-01T09:55:58Z</time>
      </trkpt>
      <trkpt lat="59.3937419169" lon="17.0290239248">
        <ele>13.4</ele>
        <time>2011-05-01T09:56:01Z</time>
      </trkpt>
      <trkpt lat="59.3939779513" lon="17.0288939215">
        <ele>14</ele>
        <time>2011-05-01T09:56:04Z</time>
      </trkpt>
      <trkpt lat="59.3942109682" lon="17.0288159698">
        <ele>14</ele>
        <time>2011-05-01T09:56:07Z</time>
      </trkpt>
      <trkpt lat="59.3944379501" lon="17.0288069174">
        <ele>15.4</ele>
        <time>2011-05-01T09:56:10Z</time>
      </trkpt>
      <trkpt lat="59.3946479168" lon="17.0288379304">
        <ele>17.4</ele>
        <time>2011-05-01T09:56:13Z</time>
      </trkpt>
      <trkpt lat="59.3948479928" lon="17.0288999565">
        <ele>17.8</ele>
        <time>2011-05-01T09:56:16Z</time>
      </trkpt>
      <trkpt lat="59.3950359989" lon="17.0289629884">
        <ele>18.4</ele>
        <time>2011-05-01T09:56:19Z</time>
      </trkpt>
      <trkpt lat="59.39521797" lon="17.0290139504">
        <ele>17.8</ele>
        <time>2011-05-01T09:56:22Z</time>
      </trkpt>
      <trkpt lat="59.3953839317" lon="17.0290799998">
        <ele>18.8</ele>
        <time>2011-05-01T09:56:25Z</time>
      </trkpt>
      <trkpt lat="59.3954369891" lon="17.0291009545">
        <ele>19.2</ele>
        <time>2011-05-01T09:56:26Z</time>
      </trkpt>
      <trkpt lat="59.3956669886" lon="17.0291589573">
        <ele>19.8</ele>
        <time>2011-05-01T09:56:31Z</time>
      </trkpt>
      <trkpt lat="59.395815935" lon="17.0291909762">
        <ele>19.8</ele>
        <time>2011-05-01T09:56:35Z</time>
      </trkpt>
      <trkpt lat="59.3959799688" lon="17.0292309579">
        <ele>19.2</ele>
        <time>2011-05-01T09:56:39Z</time>
      </trkpt>
      <trkpt lat="59.3961529713" lon="17.0292579476">
        <ele>19.8</ele>
        <time>2011-05-01T09:56:43Z</time>
      </trkpt>
      <trkpt lat="59.3963439949" lon="17.0292859431">
        <ele>18.4</ele>
        <time>2011-05-01T09:56:47Z</time>
      </trkpt>
      <trkpt lat="59.3965469208" lon="17.0293089934">
        <ele>17.8</ele>
        <time>2011-05-01T09:56:51Z</time>
      </trkpt>
      <trkpt lat="59.3967409618" lon="17.029323997">
        <ele>16.8</ele>
        <time>2011-05-01T09:56:55Z</time>
      </trkpt>
      <trkpt lat="59.3969219271" lon="17.0293509867">
        <ele>18.4</ele>
        <time>2011-05-01T09:56:59Z</time>
      </trkpt>
      <trkpt lat="59.3971219193" lon="17.0293699298">
        <ele>17.8</ele>
        <time>2011-05-01T09:57:03Z</time>
      </trkpt>
      <trkpt lat="59.397273967" lon="17.0293729473">
        <ele>17.8</ele>
        <time>2011-05-01T09:57:06Z</time>
      </trkpt>
      <trkpt lat="59.3974289484" lon="17.0293869451">
        <ele>19.2</ele>
        <time>2011-05-01T09:57:09Z</time>
      </trkpt>
      <trkpt lat="59.3975929823" lon="17.0293959975">
        <ele>18.4</ele>
        <time>2011-05-01T09:57:12Z</time>
      </trkpt>
      <trkpt lat="59.3977559265" lon="17.0293919742">
        <ele>18.4</ele>
        <time>2011-05-01T09:57:15Z</time>
      </trkpt>
      <trkpt lat="59.3979179487" lon="17.0293799881">
        <ele>17.4</ele>
        <time>2011-05-01T09:57:18Z</time>
      </trkpt>
      <trkpt lat="59.3980769534" lon="17.0293679181">
        <ele>18.8</ele>
        <time>2011-05-01T09:57:21Z</time>
      </trkpt>
      <trkpt lat="59.3982389756" lon="17.0293499809">
        <ele>18.8</ele>
        <time>2011-05-01T09:57:24Z</time>
      </trkpt>
      <trkpt lat="59.3984029256" lon="17.0293279365">
        <ele>18.8</ele>
        <time>2011-05-01T09:57:27Z</time>
      </trkpt>
      <trkpt lat="59.3985689711" lon="17.0293049701">
        <ele>19.2</ele>
        <time>2011-05-01T09:57:30Z</time>
      </trkpt>
      <trkpt lat="59.3987369444" lon="17.0292909723">
        <ele>19.2</ele>
        <time>2011-05-01T09:57:33Z</time>
      </trkpt>
      <trkpt lat="59.3989059236" lon="17.0292699337">
        <ele>19.2</ele>
        <time>2011-05-01T09:57:36Z</time>
      </trkpt>
      <trkpt lat="59.3990759924" lon="17.0292469673">
        <ele>19.2</ele>
        <time>2011-05-01T09:57:39Z</time>
      </trkpt>
      <trkpt lat="59.3992449716" lon="17.0292279404">
        <ele>19.8</ele>
        <time>2011-05-01T09:57:42Z</time>
      </trkpt>
      <trkpt lat="59.3994209915" lon="17.0292029623">
        <ele>20.8</ele>
        <time>2011-05-01T09:57:45Z</time>
      </trkpt>
      <trkpt lat="59.3996029627" lon="17.0291799959">
        <ele>21.2</ele>
        <time>2011-05-01T09:57:48Z</time>
      </trkpt>
      <trkpt lat="59.3997899629" lon="17.0291529223">
        <ele>21.2</ele>
        <time>2011-05-01T09:57:51Z</time>
      </trkpt>
      <trkpt lat="59.3999759573" lon="17.0291129407">
        <ele>21.2</ele>
        <time>2011-05-01T09:57:54Z</time>
      </trkpt>
      <trkpt lat="59.400160946" lon="17.0290609729">
        <ele>21.2</ele>
        <time>2011-05-01T09:57:57Z</time>
      </trkpt>
      <trkpt lat="59.4003449287" lon="17.0289929956">
        <ele>20.8</ele>
        <time>2011-05-01T09:58:00Z</time>
      </trkpt>
      <trkpt lat="59.4005289953" lon="17.0289189834">
        <ele>21.6</ele>
        <time>2011-05-01T09:58:03Z</time>
      </trkpt>
      <trkpt lat="59.4007189292" lon="17.0288329851">
        <ele>21.6</ele>
        <time>2011-05-01T09:58:06Z</time>
      </trkpt>
      <trkpt lat="59.4009129703" lon="17.0287469868">
        <ele>21.6</ele>
        <time>2011-05-01T09:58:09Z</time>
      </trkpt>
      <trkpt lat="59.4011109509" lon="17.0286639221">
        <ele>21.2</ele>
        <time>2011-05-01T09:58:12Z</time>
      </trkpt>
      <trkpt lat="59.4013099372" lon="17.0285719726">
        <ele>21.2</ele>
        <time>2011-05-01T09:58:15Z</time>
      </trkpt>
      <trkpt lat="59.4015119411" lon="17.028487986">
        <ele>21.2</ele>
        <time>2011-05-01T09:58:18Z</time>
      </trkpt>
      <trkpt lat="59.4017129391" lon="17.028399976">
        <ele>21.2</ele>
        <time>2011-05-01T09:58:21Z</time>
      </trkpt>
      <trkpt lat="59.401914943" lon="17.028311966">
        <ele>21.2</ele>
        <time>2011-05-01T09:58:24Z</time>
      </trkpt>
      <trkpt lat="59.402121976" lon="17.0282189269">
        <ele>20.2</ele>
        <time>2011-05-01T09:58:27Z</time>
      </trkpt>
      <trkpt lat="59.4023279194" lon="17.0281229541">
        <ele>21.6</ele>
        <time>2011-05-01T09:58:30Z</time>
      </trkpt>
      <trkpt lat="59.4025419932" lon="17.0280279871">
        <ele>20.8</ele>
        <time>2011-05-01T09:58:33Z</time>
      </trkpt>
      <trkpt lat="59.4027659576" lon="17.0279289968">
        <ele>18.8</ele>
        <time>2011-05-01T09:58:36Z</time>
      </trkpt>
      <trkpt lat="59.403001992" lon="17.0278289169">
        <ele>18.8</ele>
        <time>2011-05-01T09:58:39Z</time>
      </trkpt>
      <trkpt lat="59.4032459892" lon="17.0277169347">
        <ele>19.2</ele>
        <time>2011-05-01T09:58:42Z</time>
      </trkpt>
      <trkpt lat="59.4034989551" lon="17.0276049525">
        <ele>21.2</ele>
        <time>2011-05-01T09:58:45Z</time>
      </trkpt>
      <trkpt lat="59.4035849534" lon="17.0275639649">
        <ele>20.8</ele>
        <time>2011-05-01T09:58:46Z</time>
      </trkpt>
      <trkpt lat="59.4038379192" lon="17.0274399966">
        <ele>18.8</ele>
        <time>2011-05-01T09:58:49Z</time>
      </trkpt>
      <trkpt lat="59.4040779769" lon="17.0273349714">
        <ele>18.8</ele>
        <time>2011-05-01T09:58:52Z</time>
      </trkpt>
      <trkpt lat="59.4042909611" lon="17.0272429381">
        <ele>19.8</ele>
        <time>2011-05-01T09:58:55Z</time>
      </trkpt>
      <trkpt lat="59.4044829905" lon="17.0271489769">
        <ele>20.2</ele>
        <time>2011-05-01T09:58:58Z</time>
      </trkpt>
      <trkpt lat="59.4046719186" lon="17.0270689297">
        <ele>20.2</ele>
        <time>2011-05-01T09:59:01Z</time>
      </trkpt>
      <trkpt lat="59.4048559852" lon="17.0269879606">
        <ele>20.8</ele>
        <time>2011-05-01T09:59:04Z</time>
      </trkpt>
      <trkpt lat="59.4050389621" lon="17.0269039739">
        <ele>19.2</ele>
        <time>2011-05-01T09:59:07Z</time>
      </trkpt>
      <trkpt lat="59.4052169938" lon="17.0268269442">
        <ele>20.2</ele>
        <time>2011-05-01T09:59:10Z</time>
      </trkpt>
      <trkpt lat="59.4053969532" lon="17.0267419517">
        <ele>21.2</ele>
        <time>2011-05-01T09:59:13Z</time>
      </trkpt>
      <trkpt lat="59.4055789243" lon="17.0266609825">
        <ele>20.8</ele>
        <time>2011-05-01T09:59:16Z</time>
      </trkpt>
      <trkpt lat="59.4057609793" lon="17.0265799295">
        <ele>21.2</ele>
        <time>2011-05-01T09:59:19Z</time>
      </trkpt>
      <trkpt lat="59.4059439562" lon="17.0264959428">
        <ele>20.8</ele>
        <time>2011-05-01T09:59:22Z</time>
      </trkpt>
      <trkpt lat="59.406120982" lon="17.0264059212">
        <ele>21.2</ele>
        <time>2011-05-01T09:59:25Z</time>
      </trkpt>
      <trkpt lat="59.4062859379" lon="17.0263089426">
        <ele>20.8</ele>
        <time>2011-05-01T09:59:28Z</time>
      </trkpt>
      <trkpt lat="59.4064479601" lon="17.0262029953">
        <ele>21.6</ele>
        <time>2011-05-01T09:59:31Z</time>
      </trkpt>
      <trkpt lat="59.4066129997" lon="17.0260759257">
        <ele>21.6</ele>
        <time>2011-05-01T09:59:34Z</time>
      </trkpt>
      <trkpt lat="59.4067769498" lon="17.0259419829">
        <ele>22.2</ele>
        <time>2011-05-01T09:59:37Z</time>
      </trkpt>
      <trkpt lat="59.4069359545" lon="17.0257959701">
        <ele>22.2</ele>
        <time>2011-05-01T09:59:40Z</time>
      </trkpt>
      <trkpt lat="59.4070889242" lon="17.0256399829">
        <ele>22.2</ele>
        <time>2011-05-01T09:59:43Z</time>
      </trkpt>
      <trkpt lat="59.4072379544" lon="17.0254739374">
        <ele>22.2</ele>
        <time>2011-05-01T09:59:46Z</time>
      </trkpt>
      <trkpt lat="59.4073839672" lon="17.0253079757">
        <ele>21.6</ele>
        <time>2011-05-01T09:59:49Z</time>
      </trkpt>
      <trkpt lat="59.407523945" lon="17.0251229871">
        <ele>23.2</ele>
        <time>2011-05-01T09:59:52Z</time>
      </trkpt>
      <trkpt lat="59.4076619949" lon="17.0249229949">
        <ele>23.2</ele>
        <time>2011-05-01T09:59:55Z</time>
      </trkpt>
      <trkpt lat="59.407799961" lon="17.0247109327">
        <ele>24.6</ele>
        <time>2011-05-01T09:59:58Z</time>
      </trkpt>
      <trkpt lat="59.4079329818" lon="17.0244859625">
        <ele>24.6</ele>
        <time>2011-05-01T10:00:01Z</time>
      </trkpt>
      <trkpt lat="59.4080689363" lon="17.0242409594">
        <ele>24.6</ele>
        <time>2011-05-01T10:00:04Z</time>
      </trkpt>
      <trkpt lat="59.4082069863" lon="17.0239959564">
        <ele>23.6</ele>
        <time>2011-05-01T10:00:07Z</time>
      </trkpt>
      <trkpt lat="59.4083449524" lon="17.0237539709">
        <ele>23.6</ele>
        <time>2011-05-01T10:00:10Z</time>
      </trkpt>
      <trkpt lat="59.4084839243" lon="17.0235089678">
        <ele>24.6</ele>
        <time>2011-05-01T10:00:13Z</time>
      </trkpt>
      <trkpt lat="59.4086229801" lon="17.0232549962">
        <ele>25</ele>
        <time>2011-05-01T10:00:16Z</time>
      </trkpt>
      <trkpt lat="59.4087629579" lon="17.0229949895">
        <ele>25</ele>
        <time>2011-05-01T10:00:19Z</time>
      </trkpt>
      <trkpt lat="59.4088919554" lon="17.0227199793">
        <ele>25</ele>
        <time>2011-05-01T10:00:22Z</time>
      </trkpt>
      <trkpt lat="59.4089979865" lon="17.0224149618">
        <ele>25.6</ele>
        <time>2011-05-01T10:00:25Z</time>
      </trkpt>
      <trkpt lat="59.4090819731" lon="17.0220819488">
        <ele>26.4</ele>
        <time>2011-05-01T10:00:28Z</time>
      </trkpt>
      <trkpt lat="59.4091409817" lon="17.0217309985">
        <ele>27</ele>
        <time>2011-05-01T10:00:31Z</time>
      </trkpt>
      <trkpt lat="59.4091689773" lon="17.021363955">
        <ele>27</ele>
        <time>2011-05-01T10:00:34Z</time>
      </trkpt>
      <trkpt lat="59.4091889262" lon="17.0210039522">
        <ele>27.4</ele>
        <time>2011-05-01T10:00:37Z</time>
      </trkpt>
      <trkpt lat="59.4091999903" lon="17.0208939817">
        <ele>28</ele>
        <time>2011-05-01T10:00:38Z</time>
      </trkpt>
      <trkpt lat="59.4093309995" lon="17.020596927">
        <ele>28</ele>
        <time>2011-05-01T10:00:43Z</time>
      </trkpt>
      <trkpt lat="59.4094269723" lon="17.0205939934">
        <ele>28</ele>
        <time>2011-05-01T10:00:45Z</time>
      </trkpt>
      <trkpt lat="59.4096839614" lon="17.0206189714">
        <ele>27</ele>
        <time>2011-05-01T10:00:49Z</time>
      </trkpt>
      <trkpt lat="59.4099089317" lon="17.0206419379">
        <ele>25.6</ele>
        <time>2011-05-01T10:00:52Z</time>
      </trkpt>
      <trkpt lat="59.4101529289" lon="17.0206649881">
        <ele>27.4</ele>
        <time>2011-05-01T10:00:55Z</time>
      </trkpt>
      <trkpt lat="59.4102389272" lon="17.0206709392">
        <ele>27.4</ele>
        <time>2011-05-01T10:00:56Z</time>
      </trkpt>
      <trkpt lat="59.410503963" lon="17.02067798">
        <ele>26.4</ele>
        <time>2011-05-01T10:00:59Z</time>
      </trkpt>
      <trkpt lat="59.4105939846" lon="17.0206769742">
        <ele>26</ele>
        <time>2011-05-01T10:01:00Z</time>
      </trkpt>
      <trkpt lat="59.4108629599" lon="17.0206639823">
        <ele>24.6</ele>
        <time>2011-05-01T10:01:03Z</time>
      </trkpt>
      <trkpt lat="59.411125984" lon="17.0206289459">
        <ele>24</ele>
        <time>2011-05-01T10:01:06Z</time>
      </trkpt>
      <trkpt lat="59.4113919418" lon="17.0205729548">
        <ele>23.6</ele>
        <time>2011-05-01T10:01:09Z</time>
      </trkpt>
      <trkpt lat="59.4116589893" lon="17.0204949193">
        <ele>23.2</ele>
        <time>2011-05-01T10:01:12Z</time>
      </trkpt>
      <trkpt lat="59.4119259529" lon="17.0204039756">
        <ele>20.8</ele>
        <time>2011-05-01T10:01:15Z</time>
      </trkpt>
      <trkpt lat="59.4121879712" lon="17.0202839468">
        <ele>19.2</ele>
        <time>2011-05-01T10:01:18Z</time>
      </trkpt>
      <trkpt lat="59.4122749753" lon="17.0202419534">
        <ele>19.2</ele>
        <time>2011-05-01T10:01:19Z</time>
      </trkpt>
      <trkpt lat="59.4125319645" lon="17.0201209188">
        <ele>20.8</ele>
        <time>2011-05-01T10:01:22Z</time>
      </trkpt>
      <trkpt lat="59.4127919711" lon="17.020004997">
        <ele>20.2</ele>
        <time>2011-05-01T10:01:25Z</time>
      </trkpt>
      <trkpt lat="59.4130499661" lon="17.0198769215">
        <ele>20.2</ele>
        <time>2011-05-01T10:01:28Z</time>
      </trkpt>
      <trkpt lat="59.4132979866" lon="17.0197489299">
        <ele>21.2</ele>
        <time>2011-05-01T10:01:31Z</time>
      </trkpt>
      <trkpt lat="59.413540978" lon="17.0196299907">
        <ele>21.6</ele>
        <time>2011-05-01T10:01:34Z</time>
      </trkpt>
      <trkpt lat="59.4137769286" lon="17.0195079502">
        <ele>21.6</ele>
        <time>2011-05-01T10:01:37Z</time>
      </trkpt>
      <trkpt lat="59.4140139688" lon="17.0193889271">
        <ele>22.2</ele>
        <time>2011-05-01T10:01:40Z</time>
      </trkpt>
      <trkpt lat="59.4142479915" lon="17.0192819741">
        <ele>22.2</ele>
        <time>2011-05-01T10:01:43Z</time>
      </trkpt>
      <trkpt lat="59.4144759793" lon="17.0192019269">
        <ele>22.2</ele>
        <time>2011-05-01T10:01:46Z</time>
      </trkpt>
      <trkpt lat="59.4146969263" lon="17.0191429183">
        <ele>22.6</ele>
        <time>2011-05-01T10:01:49Z</time>
      </trkpt>
      <trkpt lat="59.414917957" lon="17.0191109832">
        <ele>23.2</ele>
        <time>2011-05-01T10:01:52Z</time>
      </trkpt>
      <trkpt lat="59.4151359703" lon="17.0190969855">
        <ele>22.6</ele>
        <time>2011-05-01T10:01:55Z</time>
      </trkpt>
      <trkpt lat="59.4153509662" lon="17.0191069599">
        <ele>22.6</ele>
        <time>2011-05-01T10:01:58Z</time>
      </trkpt>
      <trkpt lat="59.415565962" lon="17.019131938">
        <ele>23.2</ele>
        <time>2011-05-01T10:02:01Z</time>
      </trkpt>
      <trkpt lat="59.4157829694" lon="17.0191769488">
        <ele>23.6</ele>
        <time>2011-05-01T10:02:04Z</time>
      </trkpt>
      <trkpt lat="59.4159969594" lon="17.0192459319">
        <ele>23.6</ele>
        <time>2011-05-01T10:02:07Z</time>
      </trkpt>
      <trkpt lat="59.4162099436" lon="17.0193339419">
        <ele>23.6</ele>
        <time>2011-05-01T10:02:10Z</time>
      </trkpt>
      <trkpt lat="59.4164209999" lon="17.0194439963">
        <ele>24</ele>
        <time>2011-05-01T10:02:13Z</time>
      </trkpt>
      <trkpt lat="59.4166309666" lon="17.0195719879">
        <ele>23.2</ele>
        <time>2011-05-01T10:02:16Z</time>
      </trkpt>
      <trkpt lat="59.4168339763" lon="17.0197209343">
        <ele>24</ele>
        <time>2011-05-01T10:02:19Z</time>
      </trkpt>
      <trkpt lat="59.4170339685" lon="17.0199049171">
        <ele>24</ele>
        <time>2011-05-01T10:02:22Z</time>
      </trkpt>
      <trkpt lat="59.4172269199" lon="17.020105999">
        <ele>24</ele>
        <time>2011-05-01T10:02:25Z</time>
      </trkpt>
      <trkpt lat="59.4174189493" lon="17.0203209948">
        <ele>24</ele>
        <time>2011-05-01T10:02:28Z</time>
      </trkpt>
      <trkpt lat="59.4176149182" lon="17.020552922">
        <ele>24</ele>
        <time>2011-05-01T10:02:31Z</time>
      </trkpt>
      <trkpt lat="59.4178129826" lon="17.0207959972">
        <ele>24</ele>
        <time>2011-05-01T10:02:34Z</time>
      </trkpt>
      <trkpt lat="59.4180129748" lon="17.0210389886">
        <ele>22.6</ele>
        <time>2011-05-01T10:02:37Z</time>
      </trkpt>
      <trkpt lat="59.4182169903" lon="17.0212879311">
        <ele>22.6</ele>
        <time>2011-05-01T10:02:40Z</time>
      </trkpt>
      <trkpt lat="59.4184169825" lon="17.0215349458">
        <ele>21.6</ele>
        <time>2011-05-01T10:02:43Z</time>
      </trkpt>
      <trkpt lat="59.4186149631" lon="17.0217799488">
        <ele>22.2</ele>
        <time>2011-05-01T10:02:46Z</time>
      </trkpt>
      <trkpt lat="59.4188159611" lon="17.0220259577">
        <ele>22.2</ele>
        <time>2011-05-01T10:02:49Z</time>
      </trkpt>
      <trkpt lat="59.4190229941" lon="17.0222789235">
        <ele>20.8</ele>
        <time>2011-05-01T10:02:52Z</time>
      </trkpt>
      <trkpt lat="59.4192279316" lon="17.022532979">
        <ele>21.2</ele>
        <time>2011-05-01T10:02:55Z</time>
      </trkpt>
      <trkpt lat="59.4194349647" lon="17.022790974">
        <ele>20.8</ele>
        <time>2011-05-01T10:02:58Z</time>
      </trkpt>
      <trkpt lat="59.419646943" lon="17.0230479632">
        <ele>21.2</ele>
        <time>2011-05-01T10:03:01Z</time>
      </trkpt>
      <trkpt lat="59.4198579993" lon="17.0233059581">
        <ele>20.8</ele>
        <time>2011-05-01T10:03:04Z</time>
      </trkpt>
      <trkpt lat="59.4200639427" lon="17.0235599298">
        <ele>19.2</ele>
        <time>2011-05-01T10:03:07Z</time>
      </trkpt>
      <trkpt lat="59.4202619232" lon="17.0238069445">
        <ele>20.2</ele>
        <time>2011-05-01T10:03:10Z</time>
      </trkpt>
      <trkpt lat="59.4204559643" lon="17.0240449905">
        <ele>21.2</ele>
        <time>2011-05-01T10:03:13Z</time>
      </trkpt>
      <trkpt lat="59.4206499215" lon="17.0242639259">
        <ele>21.6</ele>
        <time>2011-05-01T10:03:16Z</time>
      </trkpt>
      <trkpt lat="59.4208439626" lon="17.0244709589">
        <ele>21.6</ele>
        <time>2011-05-01T10:03:19Z</time>
      </trkpt>
      <trkpt lat="59.4210399315" lon="17.024645973">
        <ele>22.6</ele>
        <time>2011-05-01T10:03:22Z</time>
      </trkpt>
      <trkpt lat="59.4212349784" lon="17.0248089172">
        <ele>23.6</ele>
        <time>2011-05-01T10:03:25Z</time>
      </trkpt>
      <trkpt lat="59.4213009439" lon="17.0248609688">
        <ele>23.6</ele>
        <time>2011-05-01T10:03:26Z</time>
      </trkpt>
      <trkpt lat="59.4214969967" lon="17.0249979291">
        <ele>24</ele>
        <time>2011-05-01T10:03:29Z</time>
      </trkpt>
      <trkpt lat="59.4216889422" lon="17.0251139347">
        <ele>25</ele>
        <time>2011-05-01T10:03:32Z</time>
      </trkpt>
      <trkpt lat="59.42187896" lon="17.0252069738">
        <ele>25</ele>
        <time>2011-05-01T10:03:35Z</time>
      </trkpt>
      <trkpt lat="59.4220579974" lon="17.0252799802">
        <ele>25</ele>
        <time>2011-05-01T10:03:38Z</time>
      </trkpt>
      <trkpt lat="59.4222389627" lon="17.0253379829">
        <ele>25.6</ele>
        <time>2011-05-01T10:03:41Z</time>
      </trkpt>
      <trkpt lat="59.4224229455" lon="17.0253739413">
        <ele>25.6</ele>
        <time>2011-05-01T10:03:44Z</time>
      </trkpt>
      <trkpt lat="59.4226089399" lon="17.0254019368">
        <ele>26</ele>
        <time>2011-05-01T10:03:47Z</time>
      </trkpt>
      <trkpt lat="59.4228049926" lon="17.0254229754">
        <ele>25.6</ele>
        <time>2011-05-01T10:03:50Z</time>
      </trkpt>
      <trkpt lat="59.4230129477" lon="17.0254409965">
        <ele>25</ele>
        <time>2011-05-01T10:03:53Z</time>
      </trkpt>
      <trkpt lat="59.4232429471" lon="17.0254609454">
        <ele>24.6</ele>
        <time>2011-05-01T10:03:56Z</time>
      </trkpt>
      <trkpt lat="59.4234849326" lon="17.025481984">
        <ele>23.2</ele>
        <time>2011-05-01T10:03:59Z</time>
      </trkpt>
      <trkpt lat="59.4237369765" lon="17.0254999213">
        <ele>22.2</ele>
        <time>2011-05-01T10:04:02Z</time>
      </trkpt>
      <trkpt lat="59.4239929598" lon="17.0255169366">
        <ele>23.2</ele>
        <time>2011-05-01T10:04:05Z</time>
      </trkpt>
      <trkpt lat="59.4242549781" lon="17.0255449321">
        <ele>21.6</ele>
        <time>2011-05-01T10:04:08Z</time>
      </trkpt>
      <trkpt lat="59.424430998" lon="17.0255629532">
        <ele>20.8</ele>
        <time>2011-05-01T10:04:10Z</time>
      </trkpt>
      <trkpt lat="59.4246969558" lon="17.0255789626">
        <ele>20.8</ele>
        <time>2011-05-01T10:04:13Z</time>
      </trkpt>
      <trkpt lat="59.4249699544" lon="17.0255989954">
        <ele>20.2</ele>
        <time>2011-05-01T10:04:16Z</time>
      </trkpt>
      <trkpt lat="59.425248988" lon="17.0256249793">
        <ele>18.8</ele>
        <time>2011-05-01T10:04:19Z</time>
      </trkpt>
      <trkpt lat="59.4255339727" lon="17.0256509632">
        <ele>18.4</ele>
        <time>2011-05-01T10:04:22Z</time>
      </trkpt>
      <trkpt lat="59.4258179516" lon="17.0256779529">
        <ele>20.2</ele>
        <time>2011-05-01T10:04:25Z</time>
      </trkpt>
      <trkpt lat="59.4260909501" lon="17.025702931">
        <ele>19.8</ele>
        <time>2011-05-01T10:04:28Z</time>
      </trkpt>
      <trkpt lat="59.4263609312" lon="17.0257279929">
        <ele>20.2</ele>
        <time>2011-05-01T10:04:31Z</time>
      </trkpt>
      <trkpt lat="59.426625967" lon="17.0257509593">
        <ele>19.8</ele>
        <time>2011-05-01T10:04:34Z</time>
      </trkpt>
      <trkpt lat="59.426883962" lon="17.0257749315">
        <ele>20.2</ele>
        <time>2011-05-01T10:04:37Z</time>
      </trkpt>
      <trkpt lat="59.4271369278" lon="17.0257979818">
        <ele>20.2</ele>
        <time>2011-05-01T10:04:40Z</time>
      </trkpt>
      <trkpt lat="59.4273909833" lon="17.0258179307">
        <ele>18.8</ele>
        <time>2011-05-01T10:04:43Z</time>
      </trkpt>
      <trkpt lat="59.4276489783" lon="17.0258419868">
        <ele>18.8</ele>
        <time>2011-05-01T10:04:46Z</time>
      </trkpt>
      <trkpt lat="59.4279129244" lon="17.0258519612">
        <ele>18.4</ele>
        <time>2011-05-01T10:04:49Z</time>
      </trkpt>
      <trkpt lat="59.4280019403" lon="17.0258479379">
        <ele>18.4</ele>
        <time>2011-05-01T10:04:50Z</time>
      </trkpt>
      <trkpt lat="59.428178966" lon="17.0258289948">
        <ele>19.8</ele>
        <time>2011-05-01T10:04:52Z</time>
      </trkpt>
      <trkpt lat="59.4284469355" lon="17.0257749315">
        <ele>19.2</ele>
        <time>2011-05-01T10:04:55Z</time>
      </trkpt>
      <trkpt lat="59.4287109654" lon="17.0256489515">
        <ele>18.8</ele>
        <time>2011-05-01T10:04:58Z</time>
      </trkpt>
      <trkpt lat="59.4289789349" lon="17.0255189482">
        <ele>16.8</ele>
        <time>2011-05-01T10:05:01Z</time>
      </trkpt>
      <trkpt lat="59.4292449765" lon="17.0253729355">
        <ele>18.4</ele>
        <time>2011-05-01T10:05:04Z</time>
      </trkpt>
      <trkpt lat="59.4295169692" lon="17.0252209716">
        <ele>17.4</ele>
        <time>2011-05-01T10:05:07Z</time>
      </trkpt>
      <trkpt lat="59.4299699273" lon="17.0249579474">
        <ele>16.8</ele>
        <time>2011-05-01T10:05:12Z</time>
      </trkpt>
      <trkpt lat="59.4301519822" lon="17.0248549338">
        <ele>16.8</ele>
        <time>2011-05-01T10:05:14Z</time>
      </trkpt>
      <trkpt lat="59.4304289203" lon="17.0247079991">
        <ele>15.4</ele>
        <time>2011-05-01T10:05:17Z</time>
      </trkpt>
      <trkpt lat="59.4305239711" lon="17.0246579591">
        <ele>15</ele>
        <time>2011-05-01T10:05:18Z</time>
      </trkpt>
      <trkpt lat="59.4308119733" lon="17.0244999602">
        <ele>14</ele>
        <time>2011-05-01T10:05:21Z</time>
      </trkpt>
      <trkpt lat="59.4311089441" lon="17.0243359264">
        <ele>13</ele>
        <time>2011-05-01T10:05:24Z</time>
      </trkpt>
      <trkpt lat="59.4314109441" lon="17.0241689589">
        <ele>11.6</ele>
        <time>2011-05-01T10:05:27Z</time>
      </trkpt>
      <trkpt lat="59.4317089207" lon="17.024004925">
        <ele>11.6</ele>
        <time>2011-05-01T10:05:30Z</time>
      </trkpt>
      <trkpt lat="59.4319989346" lon="17.0238429867">
        <ele>10.6</ele>
        <time>2011-05-01T10:05:33Z</time>
      </trkpt>
      <trkpt lat="59.4322809856" lon="17.0236919448">
        <ele>12</ele>
        <time>2011-05-01T10:05:36Z</time>
      </trkpt>
      <trkpt lat="59.4325539842" lon="17.0235399809">
        <ele>11.6</ele>
        <time>2011-05-01T10:05:39Z</time>
      </trkpt>
      <trkpt lat="59.432825977" lon="17.0233869273">
        <ele>12</ele>
        <time>2011-05-01T10:05:42Z</time>
      </trkpt>
      <trkpt lat="59.4330999814" lon="17.0232389867">
        <ele>10.2</ele>
        <time>2011-05-01T10:05:45Z</time>
      </trkpt>
      <trkpt lat="59.4333769195" lon="17.0230989251">
        <ele>11</ele>
        <time>2011-05-01T10:05:48Z</time>
      </trkpt>
      <trkpt lat="59.4336589705" lon="17.0229839254">
        <ele>12</ele>
        <time>2011-05-01T10:05:51Z</time>
      </trkpt>
      <trkpt lat="59.4339469727" lon="17.0228919759">
        <ele>11</ele>
        <time>2011-05-01T10:05:54Z</time>
      </trkpt>
      <trkpt lat="59.4341419358" lon="17.0228479709">
        <ele>10.2</ele>
        <time>2011-05-01T10:05:56Z</time>
      </trkpt>
      <trkpt lat="59.4344309438" lon="17.0228069834">
        <ele>9.6</ele>
        <time>2011-05-01T10:05:59Z</time>
      </trkpt>
      <trkpt lat="59.4347179402" lon="17.0228049718">
        <ele>9.2</ele>
        <time>2011-05-01T10:06:02Z</time>
      </trkpt>
      <trkpt lat="59.4349989854" lon="17.0228399243">
        <ele>10.2</ele>
        <time>2011-05-01T10:06:05Z</time>
      </trkpt>
      <trkpt lat="59.4350919407" lon="17.0228589512">
        <ele>10.6</ele>
        <time>2011-05-01T10:06:06Z</time>
      </trkpt>
      <trkpt lat="59.4353639334" lon="17.0229189657">
        <ele>9.2</ele>
        <time>2011-05-01T10:06:09Z</time>
      </trkpt>
      <trkpt lat="59.4356349204" lon="17.0229819976">
        <ele>10.6</ele>
        <time>2011-05-01T10:06:12Z</time>
      </trkpt>
      <trkpt lat="59.435906997" lon="17.023035977">
        <ele>8.6</ele>
        <time>2011-05-01T10:06:15Z</time>
      </trkpt>
      <trkpt lat="59.436183935" lon="17.0230609551">
        <ele>9.6</ele>
        <time>2011-05-01T10:06:18Z</time>
      </trkpt>
      <trkpt lat="59.4364679977" lon="17.0230659842">
        <ele>7.8</ele>
        <time>2011-05-01T10:06:21Z</time>
      </trkpt>
      <trkpt lat="59.4367609452" lon="17.0230549201">
        <ele>6.8</ele>
        <time>2011-05-01T10:06:24Z</time>
      </trkpt>
      <trkpt lat="59.4370659627" lon="17.0230379887">
        <ele>4.4</ele>
        <time>2011-05-01T10:06:27Z</time>
      </trkpt>
      <trkpt lat="59.4373799488" lon="17.0230289362">
        <ele>3</ele>
        <time>2011-05-01T10:06:30Z</time>
      </trkpt>
      <trkpt lat="59.4377039932" lon="17.0230159443">
        <ele>2.4</ele>
        <time>2011-05-01T10:06:33Z</time>
      </trkpt>
      <trkpt lat="59.4380179793" lon="17.0230069757">
        <ele>1.4</ele>
        <time>2011-05-01T10:06:36Z</time>
      </trkpt>
      <trkpt lat="59.4383239187" lon="17.0229769684">
        <ele>2.4</ele>
        <time>2011-05-01T10:06:39Z</time>
      </trkpt>
      <trkpt lat="59.4386129268" lon="17.0229279343">
        <ele>2.4</ele>
        <time>2011-05-01T10:06:42Z</time>
      </trkpt>
      <trkpt lat="59.438887937" lon="17.0228369907">
        <ele>2</ele>
        <time>2011-05-01T10:06:45Z</time>
      </trkpt>
      <trkpt lat="59.4391639531" lon="17.0227189735">
        <ele>1</ele>
        <time>2011-05-01T10:06:48Z</time>
      </trkpt>
      <trkpt lat="59.4394619297" lon="17.0225549396">
        <ele>3</ele>
        <time>2011-05-01T10:06:51Z</time>
      </trkpt>
      <trkpt lat="59.4397649355" lon="17.0223789196">
        <ele>1.4</ele>
        <time>2011-05-01T10:06:54Z</time>
      </trkpt>
      <trkpt lat="59.4400659297" lon="17.022199966">
        <ele>0</ele>
        <time>2011-05-01T10:06:57Z</time>
      </trkpt>
      <trkpt lat="59.440358961" lon="17.0220219344">
        <ele>0.6</ele>
        <time>2011-05-01T10:07:00Z</time>
      </trkpt>
      <trkpt lat="59.4406409282" lon="17.0218509436">
        <ele>2.4</ele>
        <time>2011-05-01T10:07:03Z</time>
      </trkpt>
      <trkpt lat="59.4409089815" lon="17.021696968">
        <ele>2</ele>
        <time>2011-05-01T10:07:06Z</time>
      </trkpt>
      <trkpt lat="59.441163959" lon="17.0215509553">
        <ele>3.8</ele>
        <time>2011-05-01T10:07:09Z</time>
      </trkpt>
      <trkpt lat="59.4414099678" lon="17.0214039367">
        <ele>3.4</ele>
        <time>2011-05-01T10:07:12Z</time>
      </trkpt>
      <trkpt lat="59.4416469242" lon="17.0212609414">
        <ele>4.4</ele>
        <time>2011-05-01T10:07:15Z</time>
      </trkpt>
      <trkpt lat="59.4418799412" lon="17.0211149286">
        <ele>3.8</ele>
        <time>2011-05-01T10:07:18Z</time>
      </trkpt>
      <trkpt lat="59.4421169814" lon="17.0209549181">
        <ele>4.4</ele>
        <time>2011-05-01T10:07:21Z</time>
      </trkpt>
      <trkpt lat="59.4423599727" lon="17.0207719412">
        <ele>3.8</ele>
        <time>2011-05-01T10:07:24Z</time>
      </trkpt>
      <trkpt lat="59.4426019583" lon="17.0205769781">
        <ele>3.8</ele>
        <time>2011-05-01T10:07:27Z</time>
      </trkpt>
      <trkpt lat="59.4428449497" lon="17.0203699451">
        <ele>4.4</ele>
        <time>2011-05-01T10:07:30Z</time>
      </trkpt>
      <trkpt lat="59.443093976" lon="17.0201599784">
        <ele>3.8</ele>
        <time>2011-05-01T10:07:33Z</time>
      </trkpt>
      <trkpt lat="59.4433409907" lon="17.0199429709">
        <ele>3.4</ele>
        <time>2011-05-01T10:07:36Z</time>
      </trkpt>
      <trkpt lat="59.4435879216" lon="17.0197079424">
        <ele>3</ele>
        <time>2011-05-01T10:07:39Z</time>
      </trkpt>
      <trkpt lat="59.4438349362" lon="17.0194599219">
        <ele>3</ele>
        <time>2011-05-01T10:07:42Z</time>
      </trkpt>
      <trkpt lat="59.4440799393" lon="17.0191889349">
        <ele>3</ele>
        <time>2011-05-01T10:07:45Z</time>
      </trkpt>
      <trkpt lat="59.4443239365" lon="17.0188859291">
        <ele>3.4</ele>
        <time>2011-05-01T10:07:48Z</time>
      </trkpt>
      <trkpt lat="59.444558965" lon="17.0185569394">
        <ele>3.8</ele>
        <time>2011-05-01T10:07:51Z</time>
      </trkpt>
      <trkpt lat="59.4447889645" lon="17.0182109345">
        <ele>4.4</ele>
        <time>2011-05-01T10:07:54Z</time>
      </trkpt>
      <trkpt lat="59.4450099953" lon="17.0178499259">
        <ele>3</ele>
        <time>2011-05-01T10:07:57Z</time>
      </trkpt>
      <trkpt lat="59.4452189561" lon="17.0174729917">
        <ele>4.8</ele>
        <time>2011-05-01T10:08:00Z</time>
      </trkpt>
      <trkpt lat="59.4454199541" lon="17.0170859993">
        <ele>3.4</ele>
        <time>2011-05-01T10:08:03Z</time>
      </trkpt>
      <trkpt lat="59.4456089661" lon="17.016647961">
        <ele>3.4</ele>
        <time>2011-05-01T10:08:06Z</time>
      </trkpt>
      <trkpt lat="59.4458099641" lon="17.0162179694">
        <ele>3.4</ele>
        <time>2011-05-01T10:08:09Z</time>
      </trkpt>
      <trkpt lat="59.4460309949" lon="17.015804993">
        <ele>1.4</ele>
        <time>2011-05-01T10:08:12Z</time>
      </trkpt>
      <trkpt lat="59.4462499302" lon="17.0153689664">
        <ele>0.6</ele>
        <time>2011-05-01T10:08:15Z</time>
      </trkpt>
      <trkpt lat="59.4464769959" lon="17.0149429981">
        <ele>0</ele>
        <time>2011-05-01T10:08:18Z</time>
      </trkpt>
      <trkpt lat="59.4467079174" lon="17.0145379845">
        <ele>0</ele>
        <time>2011-05-01T10:08:21Z</time>
      </trkpt>
      <trkpt lat="59.4469399285" lon="17.0141759701">
        <ele>0.6</ele>
        <time>2011-05-01T10:08:24Z</time>
      </trkpt>
      <trkpt lat="59.4471649826" lon="17.0138509199">
        <ele>0.6</ele>
        <time>2011-05-01T10:08:27Z</time>
      </trkpt>
      <trkpt lat="59.4473909587" lon="17.0135709643">
        <ele>0.6</ele>
        <time>2011-05-01T10:08:30Z</time>
      </trkpt>
      <trkpt lat="59.4476079661" lon="17.0133369416">
        <ele>0.6</ele>
        <time>2011-05-01T10:08:33Z</time>
      </trkpt>
      <trkpt lat="59.4478129875" lon="17.0131429844">
        <ele>0.6</ele>
        <time>2011-05-01T10:08:36Z</time>
      </trkpt>
      <trkpt lat="59.4480149914" lon="17.0129769389">
        <ele>0</ele>
        <time>2011-05-01T10:08:39Z</time>
      </trkpt>
      <trkpt lat="59.4482079428" lon="17.0128289983">
        <ele>0</ele>
        <time>2011-05-01T10:08:42Z</time>
      </trkpt>
      <trkpt lat="59.4484039955" lon="17.0126829855">
        <ele>0.6</ele>
        <time>2011-05-01T10:08:45Z</time>
      </trkpt>
      <trkpt lat="59.4485959411" lon="17.0125469472">
        <ele>0</ele>
        <time>2011-05-01T10:08:48Z</time>
      </trkpt>
      <trkpt lat="59.4487869646" lon="17.0124069694">
        <ele>0</ele>
        <time>2011-05-01T10:08:51Z</time>
      </trkpt>
      <trkpt lat="59.4489809219" lon="17.0122669917">
        <ele>0</ele>
        <time>2011-05-01T10:08:54Z</time>
      </trkpt>
      <trkpt lat="59.4491779804" lon="17.0121159498">
        <ele>2</ele>
        <time>2011-05-01T10:08:57Z</time>
      </trkpt>
      <trkpt lat="59.4493679982" lon="17.0119719487">
        <ele>1.4</ele>
        <time>2011-05-01T10:09:00Z</time>
      </trkpt>
      <trkpt lat="59.4495519809" lon="17.0118279476">
        <ele>2.4</ele>
        <time>2011-05-01T10:09:03Z</time>
      </trkpt>
      <trkpt lat="59.4497289229" lon="17.0116789173">
        <ele>1.4</ele>
        <time>2011-05-01T10:09:06Z</time>
      </trkpt>
      <trkpt lat="59.4499079604" lon="17.0115199964">
        <ele>3</ele>
        <time>2011-05-01T10:09:09Z</time>
      </trkpt>
      <trkpt lat="59.4500879198" lon="17.0113369357">
        <ele>1.4</ele>
        <time>2011-05-01T10:09:12Z</time>
      </trkpt>
      <trkpt lat="59.4501489401" lon="17.0112739876">
        <ele>1.4</ele>
        <time>2011-05-01T10:09:13Z</time>
      </trkpt>
      <trkpt lat="59.450330995" lon="17.011082964">
        <ele>1</ele>
        <time>2011-05-01T10:09:16Z</time>
      </trkpt>
      <trkpt lat="59.4505159836" lon="17.0108919404">
        <ele>1</ele>
        <time>2011-05-01T10:09:19Z</time>
      </trkpt>
      <trkpt lat="59.4507039897" lon="17.0106879249">
        <ele>1</ele>
        <time>2011-05-01T10:09:22Z</time>
      </trkpt>
      <trkpt lat="59.4509059936" lon="17.0104799699">
        <ele>2.4</ele>
        <time>2011-05-01T10:09:25Z</time>
      </trkpt>
      <trkpt lat="59.4509759825" lon="17.0104079694">
        <ele>2</ele>
        <time>2011-05-01T10:09:26Z</time>
      </trkpt>
      <trkpt lat="59.4511929899" lon="17.0101909619">
        <ele>1.4</ele>
        <time>2011-05-01T10:09:29Z</time>
      </trkpt>
      <trkpt lat="59.4514239952" lon="17.0099899638">
        <ele>1.4</ele>
        <time>2011-05-01T10:09:32Z</time>
      </trkpt>
      <trkpt lat="59.4516609516" lon="17.0098249242">
        <ele>1</ele>
        <time>2011-05-01T10:09:35Z</time>
      </trkpt>
      <trkpt lat="59.451896986" lon="17.0096919872">
        <ele>1</ele>
        <time>2011-05-01T10:09:38Z</time>
      </trkpt>
      <trkpt lat="59.4521339424" lon="17.0095929969">
        <ele>0.6</ele>
        <time>2011-05-01T10:09:41Z</time>
      </trkpt>
      <trkpt lat="59.452368971" lon="17.0095179789">
        <ele>1.4</ele>
        <time>2011-05-01T10:09:44Z</time>
      </trkpt>
      <trkpt lat="59.4525969587" lon="17.009454947">
        <ele>2</ele>
        <time>2011-05-01T10:09:47Z</time>
      </trkpt>
      <trkpt lat="59.4528189953" lon="17.0093969442">
        <ele>2.4</ele>
        <time>2011-05-01T10:09:50Z</time>
      </trkpt>
      <trkpt lat="59.4530299678" lon="17.0093449764">
        <ele>4.4</ele>
        <time>2011-05-01T10:09:53Z</time>
      </trkpt>
      <trkpt lat="59.4530999567" lon="17.0093279611">
        <ele>4.4</ele>
        <time>2011-05-01T10:09:54Z</time>
      </trkpt>
      <trkpt lat="59.4533079956" lon="17.0092729758">
        <ele>5.4</ele>
        <time>2011-05-01T10:09:57Z</time>
      </trkpt>
      <trkpt lat="59.4533769786" lon="17.0092539489">
        <ele>5.8</ele>
        <time>2011-05-01T10:09:58Z</time>
      </trkpt>
      <trkpt lat="59.4535779767" lon="17.0092009753">
        <ele>6.2</ele>
        <time>2011-05-01T10:10:01Z</time>
      </trkpt>
      <trkpt lat="59.4537759572" lon="17.0091489237">
        <ele>6.2</ele>
        <time>2011-05-01T10:10:04Z</time>
      </trkpt>
      <trkpt lat="59.453972932" lon="17.0090979617">
        <ele>5.8</ele>
        <time>2011-05-01T10:10:07Z</time>
      </trkpt>
      <trkpt lat="59.4541689847" lon="17.0090449881">
        <ele>5.8</ele>
        <time>2011-05-01T10:10:10Z</time>
      </trkpt>
      <trkpt lat="59.454367971" lon="17.008989919">
        <ele>7.2</ele>
        <time>2011-05-01T10:10:13Z</time>
      </trkpt>
      <trkpt lat="59.4545649458" lon="17.0089139789">
        <ele>5.8</ele>
        <time>2011-05-01T10:10:16Z</time>
      </trkpt>
      <trkpt lat="59.454757981" lon="17.0088429842">
        <ele>4.8</ele>
        <time>2011-05-01T10:10:19Z</time>
      </trkpt>
      <trkpt lat="59.454958979" lon="17.0087929443">
        <ele>4.4</ele>
        <time>2011-05-01T10:10:22Z</time>
      </trkpt>
      <trkpt lat="59.4551789202" lon="17.0087389648">
        <ele>4.8</ele>
        <time>2011-05-01T10:10:25Z</time>
      </trkpt>
      <trkpt lat="59.4554099254" lon="17.0086669642">
        <ele>3.8</ele>
        <time>2011-05-01T10:10:28Z</time>
      </trkpt>
      <trkpt lat="59.4556469657" lon="17.0085849892">
        <ele>3</ele>
        <time>2011-05-01T10:10:31Z</time>
      </trkpt>
      <trkpt lat="59.4558929745" lon="17.0084879268">
        <ele>3</ele>
        <time>2011-05-01T10:10:34Z</time>
      </trkpt>
      <trkpt lat="59.4561499637" lon="17.0083679818">
        <ele>4.8</ele>
        <time>2011-05-01T10:10:37Z</time>
      </trkpt>
      <trkpt lat="59.456411982" lon="17.0081919618">
        <ele>3.4</ele>
        <time>2011-05-01T10:10:40Z</time>
      </trkpt>
      <trkpt lat="59.4566739164" lon="17.0079969987">
        <ele>3</ele>
        <time>2011-05-01T10:10:43Z</time>
      </trkpt>
      <trkpt lat="59.4569359347" lon="17.007800946">
        <ele>0</ele>
        <time>2011-05-01T10:10:46Z</time>
      </trkpt>
      <trkpt lat="59.4570249505" lon="17.0077419374">
        <ele>0</ele>
        <time>2011-05-01T10:10:47Z</time>
      </trkpt>
      <trkpt lat="59.4572019763" lon="17.0076319668">
        <ele>2</ele>
        <time>2011-05-01T10:10:49Z</time>
      </trkpt>
      <trkpt lat="59.4574609771" lon="17.0074809249">
        <ele>1</ele>
        <time>2011-05-01T10:10:52Z</time>
      </trkpt>
      <trkpt lat="59.4575499929" lon="17.0074349921">
        <ele>1</ele>
        <time>2011-05-01T10:10:53Z</time>
      </trkpt>
      <trkpt lat="59.4578149449" lon="17.0073189866">
        <ele>1.4</ele>
        <time>2011-05-01T10:10:56Z</time>
      </trkpt>
      <trkpt lat="59.4580789749" lon="17.0072419569">
        <ele>1.4</ele>
        <time>2011-05-01T10:10:59Z</time>
      </trkpt>
      <trkpt lat="59.458341999" lon="17.0072009694">
        <ele>2</ele>
        <time>2011-05-01T10:11:02Z</time>
      </trkpt>
      <trkpt lat="59.4585779496" lon="17.0071849599">
        <ele>2.4</ele>
        <time>2011-05-01T10:11:05Z</time>
      </trkpt>
      <trkpt lat="59.4587999862" lon="17.0071979519">
        <ele>3.4</ele>
        <time>2011-05-01T10:11:08Z</time>
      </trkpt>
      <trkpt lat="59.4590169936" lon="17.0072269533">
        <ele>3.4</ele>
        <time>2011-05-01T10:11:11Z</time>
      </trkpt>
      <trkpt lat="59.459228972" lon="17.0072719641">
        <ele>3.8</ele>
        <time>2011-05-01T10:11:14Z</time>
      </trkpt>
      <trkpt lat="59.4594459794" lon="17.0073389355">
        <ele>4.4</ele>
        <time>2011-05-01T10:11:17Z</time>
      </trkpt>
      <trkpt lat="59.4596599694" lon="17.0074249338">
        <ele>5.4</ele>
        <time>2011-05-01T10:11:20Z</time>
      </trkpt>
      <trkpt lat="59.4598569442" lon="17.0075089205">
        <ele>5.4</ele>
        <time>2011-05-01T10:11:23Z</time>
      </trkpt>
      <trkpt lat="59.4600549247" lon="17.007592991">
        <ele>7.2</ele>
        <time>2011-05-01T10:11:26Z</time>
      </trkpt>
      <trkpt lat="59.4602519833" lon="17.0076709427">
        <ele>8.2</ele>
        <time>2011-05-01T10:11:29Z</time>
      </trkpt>
      <trkpt lat="59.4604509696" lon="17.0077529177">
        <ele>8.6</ele>
        <time>2011-05-01T10:11:32Z</time>
      </trkpt>
      <trkpt lat="59.460643921" lon="17.0078229904">
        <ele>8.6</ele>
        <time>2011-05-01T10:11:35Z</time>
      </trkpt>
      <trkpt lat="59.4608359504" lon="17.0079039596">
        <ele>8.6</ele>
        <time>2011-05-01T10:11:38Z</time>
      </trkpt>
      <trkpt lat="59.4610359427" lon="17.0079749543">
        <ele>9.2</ele>
        <time>2011-05-01T10:11:41Z</time>
      </trkpt>
      <trkpt lat="59.4611739926" lon="17.0080299396">
        <ele>10.2</ele>
        <time>2011-05-01T10:11:43Z</time>
      </trkpt>
      <trkpt lat="59.4613759965" lon="17.0081159379">
        <ele>10.2</ele>
        <time>2011-05-01T10:11:46Z</time>
      </trkpt>
      <trkpt lat="59.461580934" lon="17.0081949793">
        <ele>10.6</ele>
        <time>2011-05-01T10:11:49Z</time>
      </trkpt>
      <trkpt lat="59.4617869612" lon="17.0082849171">
        <ele>10.6</ele>
        <time>2011-05-01T10:11:52Z</time>
      </trkpt>
      <trkpt lat="59.4619969279" lon="17.0083679818">
        <ele>11</ele>
        <time>2011-05-01T10:11:55Z</time>
      </trkpt>
      <trkpt lat="59.4622019492" lon="17.0084489509">
        <ele>12</ele>
        <time>2011-05-01T10:11:58Z</time>
      </trkpt>
      <trkpt lat="59.4624079764" lon="17.0085319318">
        <ele>12.6</ele>
        <time>2011-05-01T10:12:01Z</time>
      </trkpt>
      <trkpt lat="59.462623978" lon="17.008605944">
        <ele>14</ele>
        <time>2011-05-01T10:12:04Z</time>
      </trkpt>
      <trkpt lat="59.4628499541" lon="17.0087059401">
        <ele>15</ele>
        <time>2011-05-01T10:12:07Z</time>
      </trkpt>
      <trkpt lat="59.4630589988" lon="17.0087929443">
        <ele>14.4</ele>
        <time>2011-05-01T10:12:10Z</time>
      </trkpt>
      <trkpt lat="59.4632629305" lon="17.0088779368">
        <ele>14.4</ele>
        <time>2011-05-01T10:12:13Z</time>
      </trkpt>
      <trkpt lat="59.4634719752" lon="17.0089619234">
        <ele>13</ele>
        <time>2011-05-01T10:12:16Z</time>
      </trkpt>
      <trkpt lat="59.4636789244" lon="17.0090459939">
        <ele>15</ele>
        <time>2011-05-01T10:12:19Z</time>
      </trkpt>
      <trkpt lat="59.4638869632" lon="17.0091279689">
        <ele>14</ele>
        <time>2011-05-01T10:12:22Z</time>
      </trkpt>
      <trkpt lat="59.4640929904" lon="17.0092059206">
        <ele>15.8</ele>
        <time>2011-05-01T10:12:25Z</time>
      </trkpt>
      <trkpt lat="59.4643069804" lon="17.0092859678">
        <ele>14.4</ele>
        <time>2011-05-01T10:12:28Z</time>
      </trkpt>
      <trkpt lat="59.4645159412" lon="17.009372972">
        <ele>15.8</ele>
        <time>2011-05-01T10:12:31Z</time>
      </trkpt>
      <trkpt lat="59.4647179451" lon="17.0094589703">
        <ele>17.4</ele>
        <time>2011-05-01T10:12:34Z</time>
      </trkpt>
      <trkpt lat="59.4649159256" lon="17.0095319767">
        <ele>17.4</ele>
        <time>2011-05-01T10:12:37Z</time>
      </trkpt>
      <trkpt lat="59.4651089609" lon="17.0095959306">
        <ele>17.8</ele>
        <time>2011-05-01T10:12:40Z</time>
      </trkpt>
      <trkpt lat="59.4653009903" lon="17.0096529275">
        <ele>17.8</ele>
        <time>2011-05-01T10:12:43Z</time>
      </trkpt>
      <trkpt lat="59.4655059278" lon="17.0097019617">
        <ele>16.8</ele>
        <time>2011-05-01T10:12:46Z</time>
      </trkpt>
      <trkpt lat="59.4657239411" lon="17.0097269397">
        <ele>16.4</ele>
        <time>2011-05-01T10:12:49Z</time>
      </trkpt>
      <trkpt lat="59.4659519289" lon="17.0097389258">
        <ele>16.4</ele>
        <time>2011-05-01T10:12:52Z</time>
      </trkpt>
      <trkpt lat="59.4661879633" lon="17.009736998">
        <ele>16.4</ele>
        <time>2011-05-01T10:12:55Z</time>
      </trkpt>
      <trkpt lat="59.4664209802" lon="17.0097419433">
        <ele>15.8</ele>
        <time>2011-05-01T10:12:58Z</time>
      </trkpt>
      <trkpt lat="59.4666519854" lon="17.0097609702">
        <ele>16.4</ele>
        <time>2011-05-01T10:13:01Z</time>
      </trkpt>
      <trkpt lat="59.4668839965" lon="17.0097899716">
        <ele>16.4</ele>
        <time>2011-05-01T10:13:04Z</time>
      </trkpt>
      <trkpt lat="59.4671099726" lon="17.0098419394">
        <ele>16.4</ele>
        <time>2011-05-01T10:13:07Z</time>
      </trkpt>
      <trkpt lat="59.4673319254" lon="17.0099119283">
        <ele>16.4</ele>
        <time>2011-05-01T10:13:10Z</time>
      </trkpt>
      <trkpt lat="59.4675579853" lon="17.0100009441">
        <ele>15.8</ele>
        <time>2011-05-01T10:13:13Z</time>
      </trkpt>
      <trkpt lat="59.4677849673" lon="17.0100959949">
        <ele>16.4</ele>
        <time>2011-05-01T10:13:16Z</time>
      </trkpt>
      <trkpt lat="59.4680049922" lon="17.0101869386">
        <ele>16.4</ele>
        <time>2011-05-01T10:13:19Z</time>
      </trkpt>
      <trkpt lat="59.4682169706" lon="17.0102799777">
        <ele>15.8</ele>
        <time>2011-05-01T10:13:22Z</time>
      </trkpt>
      <trkpt lat="59.4684389234" lon="17.010378968">
        <ele>15.8</ele>
        <time>2011-05-01T10:13:25Z</time>
      </trkpt>
      <trkpt lat="59.468667917" lon="17.0104969852">
        <ele>15.4</ele>
        <time>2011-05-01T10:13:28Z</time>
      </trkpt>
      <trkpt lat="59.4688929711" lon="17.0106389746">
        <ele>15.8</ele>
        <time>2011-05-01T10:13:31Z</time>
      </trkpt>
      <trkpt lat="59.4691229705" lon="17.0108079538">
        <ele>13</ele>
        <time>2011-05-01T10:13:34Z</time>
      </trkpt>
      <trkpt lat="59.4693509582" lon="17.0110059343">
        <ele>13.4</ele>
        <time>2011-05-01T10:13:37Z</time>
      </trkpt>
      <trkpt lat="59.4695769344" lon="17.0112279709">
        <ele>13.4</ele>
        <time>2011-05-01T10:13:40Z</time>
      </trkpt>
      <trkpt lat="59.4697999768" lon="17.0114419609">
        <ele>13</ele>
        <time>2011-05-01T10:13:43Z</time>
      </trkpt>
      <trkpt lat="59.4700109493" lon="17.0116699487">
        <ele>12.6</ele>
        <time>2011-05-01T10:13:46Z</time>
      </trkpt>
      <trkpt lat="59.4702289626" lon="17.0118679293">
        <ele>14</ele>
        <time>2011-05-01T10:13:49Z</time>
      </trkpt>
      <trkpt lat="59.4704389293" lon="17.0120709389">
        <ele>12</ele>
        <time>2011-05-01T10:13:52Z</time>
      </trkpt>
      <trkpt lat="59.4706549309" lon="17.0122829173">
        <ele>13</ele>
        <time>2011-05-01T10:13:55Z</time>
      </trkpt>
      <trkpt lat="59.4708769675" lon="17.0125059597">
        <ele>11</ele>
        <time>2011-05-01T10:13:58Z</time>
      </trkpt>
      <trkpt lat="59.471100932" lon="17.01273093">
        <ele>12</ele>
        <time>2011-05-01T10:14:01Z</time>
      </trkpt>
      <trkpt lat="59.4713289198" lon="17.0129559841">
        <ele>11</ele>
        <time>2011-05-01T10:14:04Z</time>
      </trkpt>
      <trkpt lat="59.4714039378" lon="17.0130309183">
        <ele>10.6</ele>
        <time>2011-05-01T10:14:05Z</time>
      </trkpt>
      <trkpt lat="59.4716299977" lon="17.0132389572">
        <ele>13.4</ele>
        <time>2011-05-01T10:14:08Z</time>
      </trkpt>
      <trkpt lat="59.4718459994" lon="17.0134489238">
        <ele>12</ele>
        <time>2011-05-01T10:14:11Z</time>
      </trkpt>
      <trkpt lat="59.4720639288" lon="17.0136589743">
        <ele>12</ele>
        <time>2011-05-01T10:14:14Z</time>
      </trkpt>
      <trkpt lat="59.4722839538" lon="17.0138739701">
        <ele>12</ele>
        <time>2011-05-01T10:14:17Z</time>
      </trkpt>
      <trkpt lat="59.4724999554" lon="17.014082931">
        <ele>13</ele>
        <time>2011-05-01T10:14:20Z</time>
      </trkpt>
      <trkpt lat="59.4727129396" lon="17.014295999">
        <ele>13</ele>
        <time>2011-05-01T10:14:23Z</time>
      </trkpt>
      <trkpt lat="59.4729199726" lon="17.014497919">
        <ele>12.6</ele>
        <time>2011-05-01T10:14:26Z</time>
      </trkpt>
      <trkpt lat="59.4731369801" lon="17.0147089753">
        <ele>12</ele>
        <time>2011-05-01T10:14:29Z</time>
      </trkpt>
      <trkpt lat="59.4733519759" lon="17.0149239711">
        <ele>11.6</ele>
        <time>2011-05-01T10:14:32Z</time>
      </trkpt>
      <trkpt lat="59.4735749345" lon="17.0151499473">
        <ele>10.6</ele>
        <time>2011-05-01T10:14:35Z</time>
      </trkpt>
      <trkpt lat="59.4737939537" lon="17.0153599977">
        <ele>10.2</ele>
        <time>2011-05-01T10:14:38Z</time>
      </trkpt>
      <trkpt lat="59.474005932" lon="17.0155649353">
        <ele>10.2</ele>
        <time>2011-05-01T10:14:41Z</time>
      </trkpt>
      <trkpt lat="59.4742089417" lon="17.0157499239">
        <ele>10.6</ele>
        <time>2011-05-01T10:14:44Z</time>
      </trkpt>
      <trkpt lat="59.4743969478" lon="17.0159069169">
        <ele>10.6</ele>
        <time>2011-05-01T10:14:47Z</time>
      </trkpt>
      <trkpt lat="59.4745809305" lon="17.016043961">
        <ele>12</ele>
        <time>2011-05-01T10:14:50Z</time>
      </trkpt>
      <trkpt lat="59.4747749716" lon="17.0161709469">
        <ele>13</ele>
        <time>2011-05-01T10:14:53Z</time>
      </trkpt>
      <trkpt lat="59.4749649893" lon="17.0162849408">
        <ele>11.6</ele>
        <time>2011-05-01T10:14:56Z</time>
      </trkpt>
      <trkpt lat="59.4751559291" lon="17.0163829252">
        <ele>11.6</ele>
        <time>2011-05-01T10:14:59Z</time>
      </trkpt>
      <trkpt lat="59.4753549993" lon="17.0164729469">
        <ele>12.6</ele>
        <time>2011-05-01T10:15:02Z</time>
      </trkpt>
      <trkpt lat="59.475564966" lon="17.0165679976">
        <ele>12.6</ele>
        <time>2011-05-01T10:15:05Z</time>
      </trkpt>
      <trkpt lat="59.4757699873" lon="17.0166629646">
        <ele>12</ele>
        <time>2011-05-01T10:15:08Z</time>
      </trkpt>
      <trkpt lat="59.4759789482" lon="17.0167639665">
        <ele>12.6</ele>
        <time>2011-05-01T10:15:11Z</time>
      </trkpt>
      <trkpt lat="59.476199979" lon="17.016861951">
        <ele>11.6</ele>
        <time>2011-05-01T10:15:14Z</time>
      </trkpt>
      <trkpt lat="59.4764309842" lon="17.0169629529">
        <ele>11</ele>
        <time>2011-05-01T10:15:17Z</time>
      </trkpt>
      <trkpt lat="59.4766709581" lon="17.017075941">
        <ele>10.6</ele>
        <time>2011-05-01T10:15:20Z</time>
      </trkpt>
      <trkpt lat="59.4769229181" lon="17.0172209479">
        <ele>9.2</ele>
        <time>2011-05-01T10:15:23Z</time>
      </trkpt>
      <trkpt lat="59.4771839306" lon="17.0174009912">
        <ele>7.2</ele>
        <time>2011-05-01T10:15:26Z</time>
      </trkpt>
      <trkpt lat="59.4774559233" lon="17.0176349301">
        <ele>5.4</ele>
        <time>2011-05-01T10:15:29Z</time>
      </trkpt>
      <trkpt lat="59.4776409958" lon="17.0178149734">
        <ele>3.8</ele>
        <time>2011-05-01T10:15:31Z</time>
      </trkpt>
      <trkpt lat="59.477922963" lon="17.0181049872">
        <ele>2.4</ele>
        <time>2011-05-01T10:15:34Z</time>
      </trkpt>
      <trkpt lat="59.4781959616" lon="17.0183929894">
        <ele>0.6</ele>
        <time>2011-05-01T10:15:37Z</time>
      </trkpt>
      <trkpt lat="59.4784589857" lon="17.0186739508">
        <ele>0</ele>
        <time>2011-05-01T10:15:40Z</time>
      </trkpt>
      <trkpt lat="59.4787109457" lon="17.0189379808">
        <ele>0</ele>
        <time>2011-05-01T10:15:43Z</time>
      </trkpt>
      <trkpt lat="59.4789569546" lon="17.0191949699">
        <ele>0</ele>
        <time>2011-05-01T10:15:46Z</time>
      </trkpt>
      <trkpt lat="59.4791969284" lon="17.0194479357">
        <ele>0</ele>
        <time>2011-05-01T10:15:49Z</time>
      </trkpt>
      <trkpt lat="59.4794299453" lon="17.0196959563">
        <ele>0</ele>
        <time>2011-05-01T10:15:52Z</time>
      </trkpt>
      <trkpt lat="59.4796609506" lon="17.0199269615">
        <ele>0</ele>
        <time>2011-05-01T10:15:55Z</time>
      </trkpt>
      <trkpt lat="59.4798869267" lon="17.0201389398">
        <ele>0</ele>
        <time>2011-05-01T10:15:58Z</time>
      </trkpt>
      <trkpt lat="59.4801119808" lon="17.0203229226">
        <ele>0</ele>
        <time>2011-05-01T10:16:01Z</time>
      </trkpt>
      <trkpt lat="59.4803359453" lon="17.0204759762">
        <ele>0</ele>
        <time>2011-05-01T10:16:04Z</time>
      </trkpt>
      <trkpt lat="59.4805539586" lon="17.0205899701">
        <ele>1.4</ele>
        <time>2011-05-01T10:16:07Z</time>
      </trkpt>
      <trkpt lat="59.4807589799" lon="17.02067798">
        <ele>0.6</ele>
        <time>2011-05-01T10:16:10Z</time>
      </trkpt>
      <trkpt lat="59.4809609838" lon="17.0207399223">
        <ele>2</ele>
        <time>2011-05-01T10:16:13Z</time>
      </trkpt>
      <trkpt lat="59.4810269494" lon="17.0207509864">
        <ele>2</ele>
        <time>2011-05-01T10:16:14Z</time>
      </trkpt>
      <trkpt lat="59.4814769737" lon="17.020778982">
        <ele>3.8</ele>
        <time>2011-05-01T10:16:21Z</time>
      </trkpt>
      <trkpt lat="59.481663974" lon="17.0207549259">
        <ele>4.8</ele>
        <time>2011-05-01T10:16:24Z</time>
      </trkpt>
      <trkpt lat="59.4818499684" lon="17.020721985">
        <ele>4.8</ele>
        <time>2011-05-01T10:16:27Z</time>
      </trkpt>
      <trkpt lat="59.4820309337" lon="17.0206709392">
        <ele>5.8</ele>
        <time>2011-05-01T10:16:30Z</time>
      </trkpt>
      <trkpt lat="59.4822139945" lon="17.0205859467">
        <ele>5.8</ele>
        <time>2011-05-01T10:16:33Z</time>
      </trkpt>
      <trkpt lat="59.4823999889" lon="17.0204829331">
        <ele>5.8</ele>
        <time>2011-05-01T10:16:36Z</time>
      </trkpt>
      <trkpt lat="59.4825839717" lon="17.0203629881">
        <ele>6.2</ele>
        <time>2011-05-01T10:16:39Z</time>
      </trkpt>
      <trkpt lat="59.4827679545" lon="17.0202159695">
        <ele>6.8</ele>
        <time>2011-05-01T10:16:42Z</time>
      </trkpt>
      <trkpt lat="59.4829549547" lon="17.0200509299">
        <ele>6.8</ele>
        <time>2011-05-01T10:16:45Z</time>
      </trkpt>
      <trkpt lat="59.4831429608" lon="17.0198479202">
        <ele>5.8</ele>
        <time>2011-05-01T10:16:48Z</time>
      </trkpt>
      <trkpt lat="59.4833349902" lon="17.0196149871">
        <ele>5.8</ele>
        <time>2011-05-01T10:16:51Z</time>
      </trkpt>
      <trkpt lat="59.4835309591" lon="17.0193409827">
        <ele>5.8</ele>
        <time>2011-05-01T10:16:54Z</time>
      </trkpt>
      <trkpt lat="59.4837259222" lon="17.0190599374">
        <ele>5.8</ele>
        <time>2011-05-01T10:16:57Z</time>
      </trkpt>
      <trkpt lat="59.4839189574" lon="17.0187789761">
        <ele>5.4</ele>
        <time>2011-05-01T10:17:00Z</time>
      </trkpt>
      <trkpt lat="59.4841079693" lon="17.0184909739">
        <ele>4.8</ele>
        <time>2011-05-01T10:17:03Z</time>
      </trkpt>
      <trkpt lat="59.4842979871" lon="17.0181989484">
        <ele>5.8</ele>
        <time>2011-05-01T10:17:06Z</time>
      </trkpt>
      <trkpt lat="59.4844929501" lon="17.0179079287">
        <ele>5.8</ele>
        <time>2011-05-01T10:17:09Z</time>
      </trkpt>
      <trkpt lat="59.484687997" lon="17.0176379476">
        <ele>5.8</ele>
        <time>2011-05-01T10:17:12Z</time>
      </trkpt>
      <trkpt lat="59.4848799426" lon="17.0173939504">
        <ele>6.2</ele>
        <time>2011-05-01T10:17:15Z</time>
      </trkpt>
      <trkpt lat="59.4850679487" lon="17.017181972">
        <ele>7.8</ele>
        <time>2011-05-01T10:17:18Z</time>
      </trkpt>
      <trkpt lat="59.4852559548" lon="17.0169909485">
        <ele>8.2</ele>
        <time>2011-05-01T10:17:21Z</time>
      </trkpt>
      <trkpt lat="59.4854479842" lon="17.0168079715">
        <ele>8.2</ele>
        <time>2011-05-01T10:17:24Z</time>
      </trkpt>
      <trkpt lat="59.4856399298" lon="17.0166519843">
        <ele>8.6</ele>
        <time>2011-05-01T10:17:27Z</time>
      </trkpt>
      <trkpt lat="59.485832965" lon="17.0165099949">
        <ele>8.2</ele>
        <time>2011-05-01T10:17:30Z</time>
      </trkpt>
      <trkpt lat="59.486033963" lon="17.0163759682">
        <ele>7.8</ele>
        <time>2011-05-01T10:17:33Z</time>
      </trkpt>
      <trkpt lat="59.4862499647" lon="17.0162389241">
        <ele>8.2</ele>
        <time>2011-05-01T10:17:36Z</time>
      </trkpt>
      <trkpt lat="59.4864719175" lon="17.0161019638">
        <ele>8.2</ele>
        <time>2011-05-01T10:17:39Z</time>
      </trkpt>
      <trkpt lat="59.4866979774" lon="17.0159629919">
        <ele>7.8</ele>
        <time>2011-05-01T10:17:42Z</time>
      </trkpt>
      <trkpt lat="59.486926971" lon="17.0158159733">
        <ele>6.8</ele>
        <time>2011-05-01T10:17:45Z</time>
      </trkpt>
      <trkpt lat="59.4871669449" lon="17.0156689547">
        <ele>6.8</ele>
        <time>2011-05-01T10:17:48Z</time>
      </trkpt>
      <trkpt lat="59.4874229282" lon="17.0155089442">
        <ele>5.8</ele>
        <time>2011-05-01T10:17:51Z</time>
      </trkpt>
      <trkpt lat="59.4876919873" lon="17.0153329242">
        <ele>4.4</ele>
        <time>2011-05-01T10:17:54Z</time>
      </trkpt>
      <trkpt lat="59.4879729487" lon="17.0151619334">
        <ele>3</ele>
        <time>2011-05-01T10:17:57Z</time>
      </trkpt>
      <trkpt lat="59.488159949" lon="17.0150459278">
        <ele>1</ele>
        <time>2011-05-01T10:17:59Z</time>
      </trkpt>
      <trkpt lat="59.4884409942" lon="17.01486798">
        <ele>2</ele>
        <time>2011-05-01T10:18:02Z</time>
      </trkpt>
      <trkpt lat="59.4886269886" lon="17.0147539862">
        <ele>0.6</ele>
        <time>2011-05-01T10:18:04Z</time>
      </trkpt>
      <trkpt lat="59.4888929464" lon="17.0145889465">
        <ele>0</ele>
        <time>2011-05-01T10:18:07Z</time>
      </trkpt>
      <trkpt lat="59.4891349319" lon="17.0144399162">
        <ele>1</ele>
        <time>2011-05-01T10:18:10Z</time>
      </trkpt>
      <trkpt lat="59.4893559627" lon="17.0143019501">
        <ele>3.8</ele>
        <time>2011-05-01T10:18:13Z</time>
      </trkpt>
      <trkpt lat="59.4894249458" lon="17.0142609626">
        <ele>3.8</ele>
        <time>2011-05-01T10:18:14Z</time>
      </trkpt>
      <trkpt lat="59.4896219205" lon="17.0141329709">
        <ele>4.4</ele>
        <time>2011-05-01T10:18:17Z</time>
      </trkpt>
      <trkpt lat="59.4898199849" lon="17.0140109304">
        <ele>5.8</ele>
        <time>2011-05-01T10:18:20Z</time>
      </trkpt>
      <trkpt lat="59.4900269341" lon="17.0138899796">
        <ele>4.8</ele>
        <time>2011-05-01T10:18:23Z</time>
      </trkpt>
      <trkpt lat="59.4902369846" lon="17.0137609821">
        <ele>5.8</ele>
        <time>2011-05-01T10:18:26Z</time>
      </trkpt>
      <trkpt lat="59.4904459454" lon="17.0136289671">
        <ele>6.2</ele>
        <time>2011-05-01T10:18:29Z</time>
      </trkpt>
      <trkpt lat="59.4906549901" lon="17.0134959463">
        <ele>5.8</ele>
        <time>2011-05-01T10:18:32Z</time>
      </trkpt>
      <trkpt lat="59.4908699859" lon="17.013365943">
        <ele>3.8</ele>
        <time>2011-05-01T10:18:35Z</time>
      </trkpt>
      <trkpt lat="59.4909419864" lon="17.0133199263">
        <ele>3.8</ele>
        <time>2011-05-01T10:18:36Z</time>
      </trkpt>
      <trkpt lat="59.4911649451" lon="17.013182966">
        <ele>3.8</ele>
        <time>2011-05-01T10:18:39Z</time>
      </trkpt>
      <trkpt lat="59.491391927" lon="17.0130389649">
        <ele>4.4</ele>
        <time>2011-05-01T10:18:42Z</time>
      </trkpt>
      <trkpt lat="59.4915459864" lon="17.0129479375">
        <ele>3</ele>
        <time>2011-05-01T10:18:44Z</time>
      </trkpt>
      <trkpt lat="59.4917779975" lon="17.0128049422">
        <ele>4.4</ele>
        <time>2011-05-01T10:18:47Z</time>
      </trkpt>
      <trkpt lat="59.4920059852" lon="17.0126639586">
        <ele>3</ele>
        <time>2011-05-01T10:18:50Z</time>
      </trkpt>
      <trkpt lat="59.4922299497" lon="17.0125269983">
        <ele>5.4</ele>
        <time>2011-05-01T10:18:53Z</time>
      </trkpt>
      <trkpt lat="59.4924529921" lon="17.0123919658">
        <ele>5.4</ele>
        <time>2011-05-01T10:18:56Z</time>
      </trkpt>
      <trkpt lat="59.4926739391" lon="17.0122549217">
        <ele>5.8</ele>
        <time>2011-05-01T10:18:59Z</time>
      </trkpt>
      <trkpt lat="59.4928899407" lon="17.0121199731">
        <ele>6.2</ele>
        <time>2011-05-01T10:19:02Z</time>
      </trkpt>
      <trkpt lat="59.4930999912" lon="17.0119939931">
        <ele>6.8</ele>
        <time>2011-05-01T10:19:05Z</time>
      </trkpt>
      <trkpt lat="59.4933049288" lon="17.0118649956">
        <ele>5.8</ele>
        <time>2011-05-01T10:19:08Z</time>
      </trkpt>
      <trkpt lat="59.4935079385" lon="17.0117429551">
        <ele>5.8</ele>
        <time>2011-05-01T10:19:11Z</time>
      </trkpt>
      <trkpt lat="59.4937089365" lon="17.0116209984">
        <ele>6.2</ele>
        <time>2011-05-01T10:19:14Z</time>
      </trkpt>
      <trkpt lat="59.4939109404" lon="17.0115009695">
        <ele>6.8</ele>
        <time>2011-05-01T10:19:17Z</time>
      </trkpt>
      <trkpt lat="59.4941139501" lon="17.011384964">
        <ele>7.2</ele>
        <time>2011-05-01T10:19:20Z</time>
      </trkpt>
      <trkpt lat="59.4943129364" lon="17.0112809446">
        <ele>8.2</ele>
        <time>2011-05-01T10:19:23Z</time>
      </trkpt>
      <trkpt lat="59.4944989309" lon="17.0111849718">
        <ele>8.6</ele>
        <time>2011-05-01T10:19:26Z</time>
      </trkpt>
      <trkpt lat="59.49467998" lon="17.0110939443">
        <ele>9.6</ele>
        <time>2011-05-01T10:19:29Z</time>
      </trkpt>
      <trkpt lat="59.4948529825" lon="17.011000989">
        <ele>10.2</ele>
        <time>2011-05-01T10:19:32Z</time>
      </trkpt>
      <trkpt lat="59.4950229675" lon="17.0109179243">
        <ele>10.6</ele>
        <time>2011-05-01T10:19:35Z</time>
      </trkpt>
      <trkpt lat="59.4951919466" lon="17.0108369552">
        <ele>11.6</ele>
        <time>2011-05-01T10:19:38Z</time>
      </trkpt>
      <trkpt lat="59.495358998" lon="17.0107539743">
        <ele>12.6</ele>
        <time>2011-05-01T10:19:41Z</time>
      </trkpt>
      <trkpt lat="59.4955369458" lon="17.0106639527">
        <ele>13.4</ele>
        <time>2011-05-01T10:19:44Z</time>
      </trkpt>
      <trkpt lat="59.4957179949" lon="17.0105729252">
        <ele>13</ele>
        <time>2011-05-01T10:19:47Z</time>
      </trkpt>
      <trkpt lat="59.4959009718" lon="17.0104889385">
        <ele>13</ele>
        <time>2011-05-01T10:19:50Z</time>
      </trkpt>
      <trkpt lat="59.4960839488" lon="17.0104029402">
        <ele>12</ele>
        <time>2011-05-01T10:19:53Z</time>
      </trkpt>
      <trkpt lat="59.4962599687" lon="17.0103129186">
        <ele>12.6</ele>
        <time>2011-05-01T10:19:56Z</time>
      </trkpt>
      <trkpt lat="59.4964389224" lon="17.0102259982">
        <ele>12.6</ele>
        <time>2011-05-01T10:19:59Z</time>
      </trkpt>
      <trkpt lat="59.496622989" lon="17.0101349708">
        <ele>13.4</ele>
        <time>2011-05-01T10:20:02Z</time>
      </trkpt>
      <trkpt lat="59.4968089834" lon="17.0100449491">
        <ele>14</ele>
        <time>2011-05-01T10:20:05Z</time>
      </trkpt>
      <trkpt lat="59.4969909545" lon="17.0099569391">
        <ele>14.4</ele>
        <time>2011-05-01T10:20:08Z</time>
      </trkpt>
      <trkpt lat="59.4971739314" lon="17.0098689292">
        <ele>15</ele>
        <time>2011-05-01T10:20:11Z</time>
      </trkpt>
      <trkpt lat="59.4973569922" lon="17.0097779855">
        <ele>15.4</ele>
        <time>2011-05-01T10:20:14Z</time>
      </trkpt>
      <trkpt lat="59.4975459203" lon="17.0096909814">
        <ele>15.4</ele>
        <time>2011-05-01T10:20:17Z</time>
      </trkpt>
      <trkpt lat="59.4977369439" lon="17.0095959306">
        <ele>15.4</ele>
        <time>2011-05-01T10:20:20Z</time>
      </trkpt>
      <trkpt lat="59.4979389478" lon="17.009491995">
        <ele>15</ele>
        <time>2011-05-01T10:20:23Z</time>
      </trkpt>
      <trkpt lat="59.4981419574" lon="17.0093959384">
        <ele>14.4</ele>
        <time>2011-05-01T10:20:26Z</time>
      </trkpt>
      <trkpt lat="59.4983419497" lon="17.0093009714">
        <ele>15.8</ele>
        <time>2011-05-01T10:20:29Z</time>
      </trkpt>
      <trkpt lat="59.4985439535" lon="17.0091979578">
        <ele>16.4</ele>
        <time>2011-05-01T10:20:32Z</time>
      </trkpt>
      <trkpt lat="59.4987409282" lon="17.0090979617">
        <ele>16.8</ele>
        <time>2011-05-01T10:20:35Z</time>
      </trkpt>
      <trkpt lat="59.498936981" lon="17.0089969598">
        <ele>17.4</ele>
        <time>2011-05-01T10:20:38Z</time>
      </trkpt>
      <trkpt lat="59.4990589377" lon="17.0089379512">
        <ele>18.4</ele>
        <time>2011-05-01T10:20:40Z</time>
      </trkpt>
      <trkpt lat="59.4992389809" lon="17.0088479295">
        <ele>19.8</ele>
        <time>2011-05-01T10:20:43Z</time>
      </trkpt>
      <trkpt lat="59.4994169287" lon="17.0087579917">
        <ele>20.2</ele>
        <time>2011-05-01T10:20:46Z</time>
      </trkpt>
      <trkpt lat="59.4995949604" lon="17.008680962">
        <ele>21.6</ele>
        <time>2011-05-01T10:20:49Z</time>
      </trkpt>
      <trkpt lat="59.4997709803" lon="17.0085909404">
        <ele>22.2</ele>
        <time>2011-05-01T10:20:52Z</time>
      </trkpt>
      <trkpt lat="59.4999459945" lon="17.0085019246">
        <ele>23.2</ele>
        <time>2011-05-01T10:20:55Z</time>
      </trkpt>
      <trkpt lat="59.500119919" lon="17.0084169321">
        <ele>23.2</ele>
        <time>2011-05-01T10:20:58Z</time>
      </trkpt>
      <trkpt lat="59.5002979506" lon="17.0083299279">
        <ele>23.6</ele>
        <time>2011-05-01T10:21:01Z</time>
      </trkpt>
      <trkpt lat="59.5004779939" lon="17.0082319435">
        <ele>24</ele>
        <time>2011-05-01T10:21:04Z</time>
      </trkpt>
      <trkpt lat="59.5006589592" lon="17.0081449393">
        <ele>25</ele>
        <time>2011-05-01T10:21:07Z</time>
      </trkpt>
      <trkpt lat="59.5008389186" lon="17.0080539957">
        <ele>25</ele>
        <time>2011-05-01T10:21:10Z</time>
      </trkpt>
      <trkpt lat="59.5010209735" lon="17.0079519879">
        <ele>25.6</ele>
        <time>2011-05-01T10:21:13Z</time>
      </trkpt>
      <trkpt lat="59.5012059622" lon="17.007837994">
        <ele>25</ele>
        <time>2011-05-01T10:21:16Z</time>
      </trkpt>
      <trkpt lat="59.5013969857" lon="17.0077159535">
        <ele>26</ele>
        <time>2011-05-01T10:21:19Z</time>
      </trkpt>
      <trkpt lat="59.5015949663" lon="17.0075809211">
        <ele>25.6</ele>
        <time>2011-05-01T10:21:22Z</time>
      </trkpt>
      <trkpt lat="59.5018029213" lon="17.007429963">
        <ele>26.4</ele>
        <time>2011-05-01T10:21:25Z</time>
      </trkpt>
      <trkpt lat="59.5020169951" lon="17.0072689466">
        <ele>26</ele>
        <time>2011-05-01T10:21:28Z</time>
      </trkpt>
      <trkpt lat="59.5022379421" lon="17.0071079303">
        <ele>25</ele>
        <time>2011-05-01T10:21:31Z</time>
      </trkpt>
      <trkpt lat="59.5024789218" lon="17.0069289766">
        <ele>23.2</ele>
        <time>2011-05-01T10:21:34Z</time>
      </trkpt>
      <trkpt lat="59.5027309656" lon="17.0067469217">
        <ele>23.6</ele>
        <time>2011-05-01T10:21:37Z</time>
      </trkpt>
      <trkpt lat="59.5029949956" lon="17.0065529644">
        <ele>21.6</ele>
        <time>2011-05-01T10:21:40Z</time>
      </trkpt>
      <trkpt lat="59.503262965" lon="17.0063579176">
        <ele>21.6</ele>
        <time>2011-05-01T10:21:43Z</time>
      </trkpt>
      <trkpt lat="59.5034499653" lon="17.0062259864">
        <ele>20.2</ele>
        <time>2011-05-01T10:21:45Z</time>
      </trkpt>
      <trkpt lat="59.503639983" lon="17.0060859248">
        <ele>22.6</ele>
        <time>2011-05-01T10:21:47Z</time>
      </trkpt>
      <trkpt lat="59.5039269794" lon="17.0058749523">
        <ele>20.8</ele>
        <time>2011-05-01T10:21:50Z</time>
      </trkpt>
      <trkpt lat="59.5042139757" lon="17.0056639798">
        <ele>20.2</ele>
        <time>2011-05-01T10:21:53Z</time>
      </trkpt>
      <trkpt lat="59.5045099407" lon="17.0054539293">
        <ele>17.8</ele>
        <time>2011-05-01T10:21:56Z</time>
      </trkpt>
      <trkpt lat="59.5046119485" lon="17.0053829346">
        <ele>17.8</ele>
        <time>2011-05-01T10:21:57Z</time>
      </trkpt>
      <trkpt lat="59.5049259346" lon="17.0051579643">
        <ele>15</ele>
        <time>2011-05-01T10:22:00Z</time>
      </trkpt>
      <trkpt lat="59.5051389188" lon="17.0049969479">
        <ele>14</ele>
        <time>2011-05-01T10:22:02Z</time>
      </trkpt>
      <trkpt lat="59.5053529926" lon="17.0048229396">
        <ele>13.4</ele>
        <time>2011-05-01T10:22:04Z</time>
      </trkpt>
      <trkpt lat="59.5055619534" lon="17.0046349335">
        <ele>13</ele>
        <time>2011-05-01T10:22:06Z</time>
      </trkpt>
      <trkpt lat="59.5057609398" lon="17.0044189319">
        <ele>12.6</ele>
        <time>2011-05-01T10:22:08Z</time>
      </trkpt>
      <trkpt lat="59.5060399733" lon="17.0040489547">
        <ele>11.6</ele>
        <time>2011-05-01T10:22:11Z</time>
      </trkpt>
      <trkpt lat="59.5062179212" lon="17.0037809853">
        <ele>10.2</ele>
        <time>2011-05-01T10:22:13Z</time>
      </trkpt>
      <trkpt lat="59.5064789336" lon="17.0033669192">
        <ele>10.6</ele>
        <time>2011-05-01T10:22:16Z</time>
      </trkpt>
      <trkpt lat="59.5067359228" lon="17.0029549487">
        <ele>8.2</ele>
        <time>2011-05-01T10:22:19Z</time>
      </trkpt>
      <trkpt lat="59.5069129486" lon="17.0026479196">
        <ele>8.2</ele>
        <time>2011-05-01T10:22:21Z</time>
      </trkpt>
      <trkpt lat="59.5072569419" lon="17.0021049399">
        <ele>7.8</ele>
        <time>2011-05-01T10:22:25Z</time>
      </trkpt>
      <trkpt lat="59.5075029507" lon="17.0017049555">
        <ele>7.2</ele>
        <time>2011-05-01T10:22:28Z</time>
      </trkpt>
      <trkpt lat="59.5077449363" lon="17.0013129339">
        <ele>6.8</ele>
        <time>2011-05-01T10:22:31Z</time>
      </trkpt>
      <trkpt lat="59.5079959743" lon="17.0009349938">
        <ele>5.8</ele>
        <time>2011-05-01T10:22:34Z</time>
      </trkpt>
      <trkpt lat="59.5082469285" lon="17.0005239453">
        <ele>4.8</ele>
        <time>2011-05-01T10:22:37Z</time>
      </trkpt>
      <trkpt lat="59.5085089467" lon="17.0000999887">
        <ele>3</ele>
        <time>2011-05-01T10:22:40Z</time>
      </trkpt>
      <trkpt lat="59.5086879842" lon="16.9998059515">
        <ele>2.4</ele>
        <time>2011-05-01T10:22:42Z</time>
      </trkpt>
      <trkpt lat="59.5089589711" lon="16.9994029496">
        <ele>1.4</ele>
        <time>2011-05-01T10:22:45Z</time>
      </trkpt>
      <trkpt lat="59.5092399325" lon="16.9990679249">
        <ele>1</ele>
        <time>2011-05-01T10:22:48Z</time>
      </trkpt>
      <trkpt lat="59.5095279347" lon="16.9987999555">
        <ele>0</ele>
        <time>2011-05-01T10:22:51Z</time>
      </trkpt>
      <trkpt lat="59.5098149311" lon="16.9985979516">
        <ele>0.6</ele>
        <time>2011-05-01T10:22:54Z</time>
      </trkpt>
      <trkpt lat="59.5100889355" lon="16.9984459877">
        <ele>1</ele>
        <time>2011-05-01T10:22:57Z</time>
      </trkpt>
      <trkpt lat="59.5103659574" lon="16.9983429741">
        <ele>2.4</ele>
        <time>2011-05-01T10:23:00Z</time>
      </trkpt>
      <trkpt lat="59.510550946" lon="16.9982949458">
        <ele>1</ele>
        <time>2011-05-01T10:23:02Z</time>
      </trkpt>
      <trkpt lat="59.5108259562" lon="16.9982579816">
        <ele>0</ele>
        <time>2011-05-01T10:23:05Z</time>
      </trkpt>
      <trkpt lat="59.5110039879" lon="16.998242978">
        <ele>1.4</ele>
        <time>2011-05-01T10:23:07Z</time>
      </trkpt>
      <trkpt lat="59.5112719573" lon="16.9982209336">
        <ele>1</ele>
        <time>2011-05-01T10:23:10Z</time>
      </trkpt>
      <trkpt lat="59.5115389209" lon="16.9981999788">
        <ele>0</ele>
        <time>2011-05-01T10:23:13Z</time>
      </trkpt>
      <trkpt lat="59.5118049625" lon="16.9981839694">
        <ele>2</ele>
        <time>2011-05-01T10:23:16Z</time>
      </trkpt>
      <trkpt lat="59.5118919667" lon="16.9981779344">
        <ele>1.4</ele>
        <time>2011-05-01T10:23:17Z</time>
      </trkpt>
      <trkpt lat="59.5121509675" lon="16.998161925">
        <ele>1.4</ele>
        <time>2011-05-01T10:23:20Z</time>
      </trkpt>
      <trkpt lat="59.5124039333" lon="16.9981459994">
        <ele>2</ele>
        <time>2011-05-01T10:23:23Z</time>
      </trkpt>
      <trkpt lat="59.5126599167" lon="16.9981279783">
        <ele>1.4</ele>
        <time>2011-05-01T10:23:26Z</time>
      </trkpt>
      <trkpt lat="59.5129189175" lon="16.9981139805">
        <ele>1.4</ele>
        <time>2011-05-01T10:23:29Z</time>
      </trkpt>
      <trkpt lat="59.5131839532" lon="16.998110963">
        <ele>2.4</ele>
        <time>2011-05-01T10:23:32Z</time>
      </trkpt>
      <trkpt lat="59.5134529285" lon="16.9981319178">
        <ele>2</ele>
        <time>2011-05-01T10:23:35Z</time>
      </trkpt>
      <trkpt lat="59.5137249213" lon="16.9982109591">
        <ele>2</ele>
        <time>2011-05-01T10:23:38Z</time>
      </trkpt>
      <trkpt lat="59.5139859337" lon="16.9983369391">
        <ele>2</ele>
        <time>2011-05-01T10:23:41Z</time>
      </trkpt>
      <trkpt lat="59.5142279193" lon="16.998494938">
        <ele>1.4</ele>
        <time>2011-05-01T10:23:44Z</time>
      </trkpt>
      <trkpt lat="59.5144689828" lon="16.9987069163">
        <ele>1</ele>
        <time>2011-05-01T10:23:47Z</time>
      </trkpt>
      <trkpt lat="59.5146949589" lon="16.9989529252">
        <ele>2</ele>
        <time>2011-05-01T10:23:50Z</time>
      </trkpt>
      <trkpt lat="59.5148969628" lon="16.9992229901">
        <ele>2.4</ele>
        <time>2011-05-01T10:23:53Z</time>
      </trkpt>
      <trkpt lat="59.5151149761" lon="16.9994899537">
        <ele>0.6</ele>
        <time>2011-05-01T10:23:56Z</time>
      </trkpt>
      <trkpt lat="59.515341958" lon="16.9997689873">
        <ele>2.4</ele>
        <time>2011-05-01T10:23:59Z</time>
      </trkpt>
      <trkpt lat="59.5155289583" lon="17.0000299998">
        <ele>2.4</ele>
        <time>2011-05-01T10:24:02Z</time>
      </trkpt>
      <trkpt lat="59.515693998" lon="17.0002879947">
        <ele>3.8</ele>
        <time>2011-05-01T10:24:05Z</time>
      </trkpt>
      <trkpt lat="59.5158379991" lon="17.0005359314">
        <ele>5.4</ele>
        <time>2011-05-01T10:24:08Z</time>
      </trkpt>
      <trkpt lat="59.5159669966" lon="17.0007799286">
        <ele>6.8</ele>
        <time>2011-05-01T10:24:11Z</time>
      </trkpt>
      <trkpt lat="59.5160869416" lon="17.0010169689">
        <ele>7.8</ele>
        <time>2011-05-01T10:24:14Z</time>
      </trkpt>
      <trkpt lat="59.5162009355" lon="17.0012449566">
        <ele>8.6</ele>
        <time>2011-05-01T10:24:17Z</time>
      </trkpt>
      <trkpt lat="59.516316941" lon="17.0014679991">
        <ele>9.6</ele>
        <time>2011-05-01T10:24:20Z</time>
      </trkpt>
      <trkpt lat="59.5164289232" lon="17.0016809832">
        <ele>11</ele>
        <time>2011-05-01T10:24:23Z</time>
      </trkpt>
      <trkpt lat="59.5165399835" lon="17.0019059535">
        <ele>11</ele>
        <time>2011-05-01T10:24:26Z</time>
      </trkpt>
      <trkpt lat="59.516655989" lon="17.0021369588">
        <ele>12</ele>
        <time>2011-05-01T10:24:29Z</time>
      </trkpt>
      <trkpt lat="59.5167679712" lon="17.0023599174">
        <ele>12.6</ele>
        <time>2011-05-01T10:24:32Z</time>
      </trkpt>
      <trkpt lat="59.516876936" lon="17.0025739912">
        <ele>13</ele>
        <time>2011-05-01T10:24:35Z</time>
      </trkpt>
      <trkpt lat="59.5170199312" lon="17.0028479956">
        <ele>13.4</ele>
        <time>2011-05-01T10:24:39Z</time>
      </trkpt>
      <trkpt lat="59.5171689615" lon="17.0031089243">
        <ele>13.4</ele>
        <time>2011-05-01T10:24:43Z</time>
      </trkpt>
      <trkpt lat="59.5172899961" lon="17.0032999478">
        <ele>14</ele>
        <time>2011-05-01T10:24:46Z</time>
      </trkpt>
      <trkpt lat="59.5174219273" lon="17.0034869481">
        <ele>14.4</ele>
        <time>2011-05-01T10:24:49Z</time>
      </trkpt>
      <trkpt lat="59.5175669342" lon="17.0036639739">
        <ele>14.4</ele>
        <time>2011-05-01T10:24:52Z</time>
      </trkpt>
      <trkpt lat="59.5177039783" lon="17.0038119983">
        <ele>14.4</ele>
        <time>2011-05-01T10:24:55Z</time>
      </trkpt>
      <trkpt lat="59.5178599656" lon="17.0039509702">
        <ele>16.4</ele>
        <time>2011-05-01T10:24:58Z</time>
      </trkpt>
      <trkpt lat="59.5180389192" lon="17.0040819794">
        <ele>15.4</ele>
        <time>2011-05-01T10:25:01Z</time>
      </trkpt>
      <trkpt lat="59.5182409231" lon="17.0042049419">
        <ele>14.4</ele>
        <time>2011-05-01T10:25:04Z</time>
      </trkpt>
      <trkpt lat="59.5184629597" lon="17.0043339394">
        <ele>15.4</ele>
        <time>2011-05-01T10:25:07Z</time>
      </trkpt>
      <trkpt lat="59.5186959766" lon="17.0044689719">
        <ele>15</ele>
        <time>2011-05-01T10:25:10Z</time>
      </trkpt>
      <trkpt lat="59.5189349446" lon="17.0046009868">
        <ele>14.4</ele>
        <time>2011-05-01T10:25:13Z</time>
      </trkpt>
      <trkpt lat="59.519177936" lon="17.004725961">
        <ele>14.4</ele>
        <time>2011-05-01T10:25:16Z</time>
      </trkpt>
      <trkpt lat="59.5194199216" lon="17.0048249513">
        <ele>15.4</ele>
        <time>2011-05-01T10:25:19Z</time>
      </trkpt>
      <trkpt lat="59.5196649246" lon="17.0048969518">
        <ele>15</ele>
        <time>2011-05-01T10:25:22Z</time>
      </trkpt>
      <trkpt lat="59.5199119393" lon="17.0049609896">
        <ele>15.4</ele>
        <time>2011-05-01T10:25:25Z</time>
      </trkpt>
      <trkpt lat="59.520152919" lon="17.0050119516">
        <ele>15.8</ele>
        <time>2011-05-01T10:25:28Z</time>
      </trkpt>
      <trkpt lat="59.5203839242" lon="17.0050599799">
        <ele>15.4</ele>
        <time>2011-05-01T10:25:31Z</time>
      </trkpt>
      <trkpt lat="59.5206139237" lon="17.0051019732">
        <ele>16.8</ele>
        <time>2011-05-01T10:25:34Z</time>
      </trkpt>
      <trkpt lat="59.5208469406" lon="17.0051379316">
        <ele>16.8</ele>
        <time>2011-05-01T10:25:37Z</time>
      </trkpt>
      <trkpt lat="59.5210809633" lon="17.0051689446">
        <ele>15.8</ele>
        <time>2011-05-01T10:25:40Z</time>
      </trkpt>
      <trkpt lat="59.521239968" lon="17.005190989">
        <ele>17.4</ele>
        <time>2011-05-01T10:25:42Z</time>
      </trkpt>
      <trkpt lat="59.5214829594" lon="17.0052169729">
        <ele>15.4</ele>
        <time>2011-05-01T10:25:45Z</time>
      </trkpt>
      <trkpt lat="59.5217309799" lon="17.005234994">
        <ele>15</ele>
        <time>2011-05-01T10:25:48Z</time>
      </trkpt>
      <trkpt lat="59.5219909865" lon="17.0052479859">
        <ele>15</ele>
        <time>2011-05-01T10:25:51Z</time>
      </trkpt>
      <trkpt lat="59.5222639851" lon="17.0052559488">
        <ele>14</ele>
        <time>2011-05-01T10:25:54Z</time>
      </trkpt>
      <trkpt lat="59.5225489698" lon="17.0052549429">
        <ele>12.6</ele>
        <time>2011-05-01T10:25:57Z</time>
      </trkpt>
      <trkpt lat="59.5227499679" lon="17.0052509196">
        <ele>12</ele>
        <time>2011-05-01T10:25:59Z</time>
      </trkpt>
      <trkpt lat="59.5228539873" lon="17.0052499976">
        <ele>8.2</ele>
        <time>2011-05-01T10:26:00Z</time>
      </trkpt>
      <trkpt lat="59.5229599345" lon="17.0052499976">
        <ele>8.6</ele>
        <time>2011-05-01T10:26:01Z</time>
      </trkpt>
      <trkpt lat="59.5232929476" lon="17.0052549429">
        <ele>6.2</ele>
        <time>2011-05-01T10:26:04Z</time>
      </trkpt>
      <trkpt lat="59.5235259645" lon="17.0052609779">
        <ele>4.8</ele>
        <time>2011-05-01T10:26:06Z</time>
      </trkpt>
      <trkpt lat="59.5237779245" lon="17.0052739698">
        <ele>3</ele>
        <time>2011-05-01T10:26:08Z</time>
      </trkpt>
      <trkpt lat="59.5240249392" lon="17.0052999537">
        <ele>2</ele>
        <time>2011-05-01T10:26:10Z</time>
      </trkpt>
      <trkpt lat="59.5241479855" lon="17.0053059887">
        <ele>0</ele>
        <time>2011-05-01T10:26:11Z</time>
      </trkpt>
      <trkpt lat="59.5243929885" lon="17.0053199865">
        <ele>0</ele>
        <time>2011-05-01T10:26:13Z</time>
      </trkpt>
      <trkpt lat="59.5245119277" lon="17.0053279493">
        <ele>0</ele>
        <time>2011-05-01T10:26:14Z</time>
      </trkpt>
      <trkpt lat="59.5247419272" lon="17.0053459704">
        <ele>0</ele>
        <time>2011-05-01T10:26:16Z</time>
      </trkpt>
      <trkpt lat="59.5250679832" lon="17.0053849462">
        <ele>0</ele>
        <time>2011-05-01T10:26:19Z</time>
      </trkpt>
      <trkpt lat="59.5253769401" lon="17.0054269396">
        <ele>0</ele>
        <time>2011-05-01T10:26:22Z</time>
      </trkpt>
      <trkpt lat="59.5256689657" lon="17.0054779854">
        <ele>0</ele>
        <time>2011-05-01T10:26:25Z</time>
      </trkpt>
      <trkpt lat="59.5259469934" lon="17.0055379998">
        <ele>0</ele>
        <time>2011-05-01T10:26:28Z</time>
      </trkpt>
      <trkpt lat="59.5262149628" lon="17.0055969246">
        <ele>0</ele>
        <time>2011-05-01T10:26:31Z</time>
      </trkpt>
      <trkpt lat="59.5263889711" lon="17.0056389179">
        <ele>3.4</ele>
        <time>2011-05-01T10:26:33Z</time>
      </trkpt>
      <trkpt lat="59.5264759753" lon="17.0056599565">
        <ele>2.4</ele>
        <time>2011-05-01T10:26:34Z</time>
      </trkpt>
      <trkpt lat="59.5267329644" lon="17.005731957">
        <ele>3</ele>
        <time>2011-05-01T10:26:37Z</time>
      </trkpt>
      <trkpt lat="59.527137978" lon="17.0058549196">
        <ele>1</ele>
        <time>2011-05-01T10:26:42Z</time>
      </trkpt>
      <trkpt lat="59.5272899419" lon="17.0059059653">
        <ele>0</ele>
        <time>2011-05-01T10:26:44Z</time>
      </trkpt>
      <trkpt lat="59.5275099669" lon="17.0059809834">
        <ele>0</ele>
        <time>2011-05-01T10:26:47Z</time>
      </trkpt>
      <trkpt lat="59.5277239569" lon="17.0060579292">
        <ele>0</ele>
        <time>2011-05-01T10:26:50Z</time>
      </trkpt>
      <trkpt lat="59.5279339235" lon="17.0061379764">
        <ele>0.6</ele>
        <time>2011-05-01T10:26:53Z</time>
      </trkpt>
      <trkpt lat="59.5281349216" lon="17.0062209573">
        <ele>1.4</ele>
        <time>2011-05-01T10:26:56Z</time>
      </trkpt>
      <trkpt lat="59.528326951" lon="17.0062989928">
        <ele>2.4</ele>
        <time>2011-05-01T10:26:59Z</time>
      </trkpt>
      <trkpt lat="59.5285139512" lon="17.0063829795">
        <ele>1.4</ele>
        <time>2011-05-01T10:27:02Z</time>
      </trkpt>
      <trkpt lat="59.5286949165" lon="17.0064649545">
        <ele>1.4</ele>
        <time>2011-05-01T10:27:05Z</time>
      </trkpt>
      <trkpt lat="59.5288779773" lon="17.0065489411">
        <ele>2</ele>
        <time>2011-05-01T10:27:08Z</time>
      </trkpt>
      <trkpt lat="59.5290609542" lon="17.006624965">
        <ele>2.4</ele>
        <time>2011-05-01T10:27:11Z</time>
      </trkpt>
      <trkpt lat="59.5292359684" lon="17.0066959597">
        <ele>3.4</ele>
        <time>2011-05-01T10:27:14Z</time>
      </trkpt>
      <trkpt lat="59.5294169337" lon="17.0067769289">
        <ele>3.4</ele>
        <time>2011-05-01T10:27:17Z</time>
      </trkpt>
      <trkpt lat="59.529590942" lon="17.0068529528">
        <ele>3.4</ele>
        <time>2011-05-01T10:27:20Z</time>
      </trkpt>
      <trkpt lat="59.5297599211" lon="17.006926965">
        <ele>5.4</ele>
        <time>2011-05-01T10:27:23Z</time>
      </trkpt>
      <trkpt lat="59.5299349353" lon="17.0070029888">
        <ele>3.8</ele>
        <time>2011-05-01T10:27:26Z</time>
      </trkpt>
      <trkpt lat="59.5301119611" lon="17.0070799347">
        <ele>5.4</ele>
        <time>2011-05-01T10:27:29Z</time>
      </trkpt>
      <trkpt lat="59.5302889869" lon="17.0071599819">
        <ele>3.8</ele>
        <time>2011-05-01T10:27:32Z</time>
      </trkpt>
      <trkpt lat="59.530464923" lon="17.0072329883">
        <ele>5.8</ele>
        <time>2011-05-01T10:27:35Z</time>
      </trkpt>
      <trkpt lat="59.5306419488" lon="17.0073149633">
        <ele>6.8</ele>
        <time>2011-05-01T10:27:38Z</time>
      </trkpt>
      <trkpt lat="59.5308219921" lon="17.007391993">
        <ele>5.4</ele>
        <time>2011-05-01T10:27:41Z</time>
      </trkpt>
      <trkpt lat="59.5309999399" lon="17.0074709505">
        <ele>6.2</ele>
        <time>2011-05-01T10:27:44Z</time>
      </trkpt>
      <trkpt lat="59.531180989" lon="17.0075479802">
        <ele>6.2</ele>
        <time>2011-05-01T10:27:47Z</time>
      </trkpt>
      <trkpt lat="59.5313649718" lon="17.0076299552">
        <ele>6.2</ele>
        <time>2011-05-01T10:27:50Z</time>
      </trkpt>
      <trkpt lat="59.5315549895" lon="17.0077159535">
        <ele>6.2</ele>
        <time>2011-05-01T10:27:53Z</time>
      </trkpt>
      <trkpt lat="59.5317489468" lon="17.0077999402">
        <ele>4.8</ele>
        <time>2011-05-01T10:27:56Z</time>
      </trkpt>
      <trkpt lat="59.5319459215" lon="17.0078869443">
        <ele>4.8</ele>
        <time>2011-05-01T10:27:59Z</time>
      </trkpt>
      <trkpt lat="59.532149937" lon="17.007976966">
        <ele>4.8</ele>
        <time>2011-05-01T10:28:02Z</time>
      </trkpt>
      <trkpt lat="59.5323619992" lon="17.0080669876">
        <ele>3.4</ele>
        <time>2011-05-01T10:28:05Z</time>
      </trkpt>
      <trkpt lat="59.5325079281" lon="17.0081319474">
        <ele>2.4</ele>
        <time>2011-05-01T10:28:07Z</time>
      </trkpt>
      <trkpt lat="59.5327389333" lon="17.008234961">
        <ele>5.8</ele>
        <time>2011-05-01T10:28:10Z</time>
      </trkpt>
      <trkpt lat="59.5328209922" lon="17.0082719252">
        <ele>5.8</ele>
        <time>2011-05-01T10:28:11Z</time>
      </trkpt>
      <trkpt lat="59.5330759697" lon="17.0083829854">
        <ele>4.8</ele>
        <time>2011-05-01T10:28:14Z</time>
      </trkpt>
      <trkpt lat="59.5333389938" lon="17.0084929559">
        <ele>3.4</ele>
        <time>2011-05-01T10:28:17Z</time>
      </trkpt>
      <trkpt lat="59.5336059574" lon="17.0086079556">
        <ele>3</ele>
        <time>2011-05-01T10:28:20Z</time>
      </trkpt>
      <trkpt lat="59.533872921" lon="17.0087059401">
        <ele>1.4</ele>
        <time>2011-05-01T10:28:23Z</time>
      </trkpt>
      <trkpt lat="59.5340509526" lon="17.0087569859">
        <ele>3.8</ele>
        <time>2011-05-01T10:28:25Z</time>
      </trkpt>
      <trkpt lat="59.5341379568" lon="17.0087779406">
        <ele>0.6</ele>
        <time>2011-05-01T10:28:26Z</time>
      </trkpt>
      <trkpt lat="59.534224961" lon="17.0087959617">
        <ele>1.4</ele>
        <time>2011-05-01T10:28:27Z</time>
      </trkpt>
      <trkpt lat="59.5344859734" lon="17.0088279806">
        <ele>3</ele>
        <time>2011-05-01T10:28:30Z</time>
      </trkpt>
      <trkpt lat="59.5347429626" lon="17.0088279806">
        <ele>3.4</ele>
        <time>2011-05-01T10:28:33Z</time>
      </trkpt>
      <trkpt lat="59.5349909831" lon="17.0088099595">
        <ele>0.6</ele>
        <time>2011-05-01T10:28:36Z</time>
      </trkpt>
      <trkpt lat="59.5352219883" lon="17.0087489393">
        <ele>1.4</ele>
        <time>2011-05-01T10:28:39Z</time>
      </trkpt>
      <trkpt lat="59.5354369842" lon="17.0086829737">
        <ele>2.4</ele>
        <time>2011-05-01T10:28:42Z</time>
      </trkpt>
      <trkpt lat="59.5356469508" lon="17.0086069498">
        <ele>3</ele>
        <time>2011-05-01T10:28:45Z</time>
      </trkpt>
      <trkpt lat="59.5358509663" lon="17.0085169282">
        <ele>3</ele>
        <time>2011-05-01T10:28:48Z</time>
      </trkpt>
      <trkpt lat="59.5360519644" lon="17.0084199496">
        <ele>3.4</ele>
        <time>2011-05-01T10:28:51Z</time>
      </trkpt>
      <trkpt lat="59.5362539683" lon="17.0082979929">
        <ele>4.8</ele>
        <time>2011-05-01T10:28:54Z</time>
      </trkpt>
      <trkpt lat="59.5364549663" lon="17.0081619546">
        <ele>5.4</ele>
        <time>2011-05-01T10:28:57Z</time>
      </trkpt>
      <trkpt lat="59.536664933" lon="17.0080219768">
        <ele>4.8</ele>
        <time>2011-05-01T10:29:00Z</time>
      </trkpt>
      <trkpt lat="59.5368809346" lon="17.0078409277">
        <ele>5.4</ele>
        <time>2011-05-01T10:29:03Z</time>
      </trkpt>
      <trkpt lat="59.5371009596" lon="17.007637918">
        <ele>5.8</ele>
        <time>2011-05-01T10:29:06Z</time>
      </trkpt>
      <trkpt lat="59.5373199787" lon="17.0074399374">
        <ele>5.4</ele>
        <time>2011-05-01T10:29:09Z</time>
      </trkpt>
      <trkpt lat="59.5375419315" lon="17.0072409511">
        <ele>4.8</ele>
        <time>2011-05-01T10:29:12Z</time>
      </trkpt>
      <trkpt lat="59.5377569273" lon="17.007045988">
        <ele>3.8</ele>
        <time>2011-05-01T10:29:15Z</time>
      </trkpt>
      <trkpt lat="59.5379719231" lon="17.0068649389">
        <ele>4.4</ele>
        <time>2011-05-01T10:29:18Z</time>
      </trkpt>
      <trkpt lat="59.5381909423" lon="17.0067029167">
        <ele>3.8</ele>
        <time>2011-05-01T10:29:21Z</time>
      </trkpt>
      <trkpt lat="59.5384139847" lon="17.0065679681">
        <ele>3.8</ele>
        <time>2011-05-01T10:29:24Z</time>
      </trkpt>
      <trkpt lat="59.538638955" lon="17.0064529683">
        <ele>3.8</ele>
        <time>2011-05-01T10:29:27Z</time>
      </trkpt>
      <trkpt lat="59.5388629194" lon="17.0063329395">
        <ele>4.4</ele>
        <time>2011-05-01T10:29:30Z</time>
      </trkpt>
      <trkpt lat="59.5390959363" lon="17.0062469412">
        <ele>3.4</ele>
        <time>2011-05-01T10:29:33Z</time>
      </trkpt>
      <trkpt lat="59.5393279474" lon="17.0061779581">
        <ele>4.8</ele>
        <time>2011-05-01T10:29:36Z</time>
      </trkpt>
      <trkpt lat="59.5395599585" lon="17.0061459392">
        <ele>3.8</ele>
        <time>2011-05-01T10:29:39Z</time>
      </trkpt>
      <trkpt lat="59.5397869404" lon="17.0061269961">
        <ele>4.8</ele>
        <time>2011-05-01T10:29:42Z</time>
      </trkpt>
      <trkpt lat="59.5400109887" lon="17.0061119925">
        <ele>5.8</ele>
        <time>2011-05-01T10:29:45Z</time>
      </trkpt>
      <trkpt lat="59.5402309299" lon="17.0061429217">
        <ele>5.4</ele>
        <time>2011-05-01T10:29:48Z</time>
      </trkpt>
      <trkpt lat="59.5404419862" lon="17.0061739348">
        <ele>5.4</ele>
        <time>2011-05-01T10:29:51Z</time>
      </trkpt>
      <trkpt lat="59.5406529587" lon="17.0062239747">
        <ele>4.8</ele>
        <time>2011-05-01T10:29:54Z</time>
      </trkpt>
      <trkpt lat="59.5408659428" lon="17.0062709972">
        <ele>4.8</ele>
        <time>2011-05-01T10:29:57Z</time>
      </trkpt>
      <trkpt lat="59.5410799328" lon="17.0063159242">
        <ele>5.8</ele>
        <time>2011-05-01T10:30:00Z</time>
      </trkpt>
      <trkpt lat="59.5412879717" lon="17.0063729212">
        <ele>5.4</ele>
        <time>2011-05-01T10:30:03Z</time>
      </trkpt>
      <trkpt lat="59.541492993" lon="17.0064219553">
        <ele>5.8</ele>
        <time>2011-05-01T10:30:06Z</time>
      </trkpt>
      <trkpt lat="59.5416999422" lon="17.0064669661">
        <ele>4.8</ele>
        <time>2011-05-01T10:30:09Z</time>
      </trkpt>
      <trkpt lat="59.5419029519" lon="17.006505942">
        <ele>6.2</ele>
        <time>2011-05-01T10:30:12Z</time>
      </trkpt>
      <trkpt lat="59.5421109907" lon="17.0065559819">
        <ele>5.8</ele>
        <time>2011-05-01T10:30:15Z</time>
      </trkpt>
      <trkpt lat="59.5423179399" lon="17.0065989811">
        <ele>5.8</ele>
        <time>2011-05-01T10:30:18Z</time>
      </trkpt>
      <trkpt lat="59.5425199438" lon="17.0066379569">
        <ele>7.2</ele>
        <time>2011-05-01T10:30:21Z</time>
      </trkpt>
      <trkpt lat="59.5427269768" lon="17.0066859853">
        <ele>6.8</ele>
        <time>2011-05-01T10:30:24Z</time>
      </trkpt>
      <trkpt lat="59.5429289807" lon="17.0067409705">
        <ele>6.8</ele>
        <time>2011-05-01T10:30:27Z</time>
      </trkpt>
      <trkpt lat="59.5431359299" lon="17.0067889988">
        <ele>7.2</ele>
        <time>2011-05-01T10:30:30Z</time>
      </trkpt>
      <trkpt lat="59.5433509257" lon="17.0068359375">
        <ele>7.8</ele>
        <time>2011-05-01T10:30:33Z</time>
      </trkpt>
      <trkpt lat="59.5435629878" lon="17.0068879891">
        <ele>6.2</ele>
        <time>2011-05-01T10:30:36Z</time>
      </trkpt>
      <trkpt lat="59.5437799953" lon="17.0069279708">
        <ele>6.8</ele>
        <time>2011-05-01T10:30:39Z</time>
      </trkpt>
      <trkpt lat="59.5440029539" lon="17.0069749933">
        <ele>7.2</ele>
        <time>2011-05-01T10:30:42Z</time>
      </trkpt>
      <trkpt lat="59.5442229789" lon="17.0070229378">
        <ele>7.8</ele>
        <time>2011-05-01T10:30:45Z</time>
      </trkpt>
      <trkpt lat="59.5444399863" lon="17.0070759952">
        <ele>6.8</ele>
        <time>2011-05-01T10:30:48Z</time>
      </trkpt>
      <trkpt lat="59.5446519647" lon="17.0071259513">
        <ele>7.2</ele>
        <time>2011-05-01T10:30:51Z</time>
      </trkpt>
      <trkpt lat="59.5448609255" lon="17.0071779191">
        <ele>6.8</ele>
        <time>2011-05-01T10:30:54Z</time>
      </trkpt>
      <trkpt lat="59.545064941" lon="17.0072199963">
        <ele>6.8</ele>
        <time>2011-05-01T10:30:57Z</time>
      </trkpt>
      <trkpt lat="59.5452699624" lon="17.0072609838">
        <ele>6.8</ele>
        <time>2011-05-01T10:31:00Z</time>
      </trkpt>
      <trkpt lat="59.5454799291" lon="17.007303983">
        <ele>7.8</ele>
        <time>2011-05-01T10:31:03Z</time>
      </trkpt>
      <trkpt lat="59.5456859563" lon="17.0073489938">
        <ele>8.6</ele>
        <time>2011-05-01T10:31:06Z</time>
      </trkpt>
      <trkpt lat="59.5458879601" lon="17.0073929988">
        <ele>8.6</ele>
        <time>2011-05-01T10:31:09Z</time>
      </trkpt>
      <trkpt lat="59.546083929" lon="17.0074339863">
        <ele>9.2</ele>
        <time>2011-05-01T10:31:12Z</time>
      </trkpt>
      <trkpt lat="59.5462869387" lon="17.0074879657">
        <ele>9.2</ele>
        <time>2011-05-01T10:31:15Z</time>
      </trkpt>
      <trkpt lat="59.5464259945" lon="17.0075189788">
        <ele>7.8</ele>
        <time>2011-05-01T10:31:17Z</time>
      </trkpt>
      <trkpt lat="59.5466259867" lon="17.0075579546">
        <ele>10.6</ele>
        <time>2011-05-01T10:31:20Z</time>
      </trkpt>
      <trkpt lat="59.5468219556" lon="17.0076009538">
        <ele>11</ele>
        <time>2011-05-01T10:31:23Z</time>
      </trkpt>
      <trkpt lat="59.547020942" lon="17.0076469705">
        <ele>10.6</ele>
        <time>2011-05-01T10:31:26Z</time>
      </trkpt>
      <trkpt lat="59.5472179167" lon="17.0076979324">
        <ele>10.6</ele>
        <time>2011-05-01T10:31:29Z</time>
      </trkpt>
      <trkpt lat="59.547422938" lon="17.0077429432">
        <ele>10.6</ele>
        <time>2011-05-01T10:31:32Z</time>
      </trkpt>
      <trkpt lat="59.5476419572" lon="17.0077899657">
        <ele>11</ele>
        <time>2011-05-01T10:31:35Z</time>
      </trkpt>
      <trkpt lat="59.5478619821" lon="17.0078619663">
        <ele>10.2</ele>
        <time>2011-05-01T10:31:38Z</time>
      </trkpt>
      <trkpt lat="59.5480059832" lon="17.007919969">
        <ele>8.2</ele>
        <time>2011-05-01T10:31:40Z</time>
      </trkpt>
      <trkpt lat="59.5482089929" lon="17.0079959929">
        <ele>9.6</ele>
        <time>2011-05-01T10:31:43Z</time>
      </trkpt>
      <trkpt lat="59.5484019443" lon="17.0080849249">
        <ele>9.6</ele>
        <time>2011-05-01T10:31:46Z</time>
      </trkpt>
      <trkpt lat="59.5485959854" lon="17.0081919618">
        <ele>8.6</ele>
        <time>2011-05-01T10:31:49Z</time>
      </trkpt>
      <trkpt lat="59.5487899426" lon="17.0083009265">
        <ele>9.2</ele>
        <time>2011-05-01T10:31:52Z</time>
      </trkpt>
      <trkpt lat="59.5489839837" lon="17.0084149204">
        <ele>9.6</ele>
        <time>2011-05-01T10:31:55Z</time>
      </trkpt>
      <trkpt lat="59.5491749234" lon="17.0085379668">
        <ele>10.2</ele>
        <time>2011-05-01T10:31:58Z</time>
      </trkpt>
      <trkpt lat="59.5493669529" lon="17.0086679701">
        <ele>10.6</ele>
        <time>2011-05-01T10:32:01Z</time>
      </trkpt>
      <trkpt lat="59.5494289789" lon="17.0087159984">
        <ele>10.6</ele>
        <time>2011-05-01T10:32:02Z</time>
      </trkpt>
      <trkpt lat="59.5496109501" lon="17.0088559762">
        <ele>11.6</ele>
        <time>2011-05-01T10:32:05Z</time>
      </trkpt>
      <trkpt lat="59.5497889817" lon="17.0090089459">
        <ele>8.6</ele>
        <time>2011-05-01T10:32:08Z</time>
      </trkpt>
      <trkpt lat="59.5499689411" lon="17.0091469958">
        <ele>9.6</ele>
        <time>2011-05-01T10:32:11Z</time>
      </trkpt>
      <trkpt lat="59.5501439553" lon="17.0093029831">
        <ele>8.2</ele>
        <time>2011-05-01T10:32:14Z</time>
      </trkpt>
      <trkpt lat="59.5503149461" lon="17.0094669331">
        <ele>8.6</ele>
        <time>2011-05-01T10:32:17Z</time>
      </trkpt>
      <trkpt lat="59.5504319575" lon="17.0095789991">
        <ele>9.6</ele>
        <time>2011-05-01T10:32:19Z</time>
      </trkpt>
      <trkpt lat="59.5506109949" lon="17.0097449608">
        <ele>10.6</ele>
        <time>2011-05-01T10:32:22Z</time>
      </trkpt>
      <trkpt lat="59.5506689977" lon="17.0097999461">
        <ele>11</ele>
        <time>2011-05-01T10:32:23Z</time>
      </trkpt>
      <trkpt lat="59.5508469455" lon="17.0099629741">
        <ele>10.6</ele>
        <time>2011-05-01T10:32:26Z</time>
      </trkpt>
      <trkpt lat="59.5510239713" lon="17.0101269241">
        <ele>11.6</ele>
        <time>2011-05-01T10:32:29Z</time>
      </trkpt>
      <trkpt lat="59.5511929505" lon="17.0103109907">
        <ele>11.6</ele>
        <time>2011-05-01T10:32:32Z</time>
      </trkpt>
      <trkpt lat="59.5513699763" lon="17.0104869269">
        <ele>9.6</ele>
        <time>2011-05-01T10:32:35Z</time>
      </trkpt>
      <trkpt lat="59.5515579823" lon="17.0106699876">
        <ele>11.6</ele>
        <time>2011-05-01T10:32:38Z</time>
      </trkpt>
      <trkpt lat="59.5517509338" lon="17.0108569879">
        <ele>10.2</ele>
        <time>2011-05-01T10:32:41Z</time>
      </trkpt>
      <trkpt lat="59.5519479923" lon="17.0110409707">
        <ele>12.6</ele>
        <time>2011-05-01T10:32:44Z</time>
      </trkpt>
      <trkpt lat="59.5520819351" lon="17.0111679565">
        <ele>9.6</ele>
        <time>2011-05-01T10:32:46Z</time>
      </trkpt>
      <trkpt lat="59.5522829331" lon="17.0113589801">
        <ele>11.6</ele>
        <time>2011-05-01T10:32:49Z</time>
      </trkpt>
      <trkpt lat="59.5524749625" lon="17.011547992">
        <ele>11.6</ele>
        <time>2011-05-01T10:32:52Z</time>
      </trkpt>
      <trkpt lat="59.5526599512" lon="17.0117239282">
        <ele>12</ele>
        <time>2011-05-01T10:32:55Z</time>
      </trkpt>
      <trkpt lat="59.5528379828" lon="17.0118969306">
        <ele>11.6</ele>
        <time>2011-05-01T10:32:58Z</time>
      </trkpt>
      <trkpt lat="59.5530119911" lon="17.012063982">
        <ele>12</ele>
        <time>2011-05-01T10:33:01Z</time>
      </trkpt>
      <trkpt lat="59.5531819761" lon="17.0122229867">
        <ele>12.6</ele>
        <time>2011-05-01T10:33:04Z</time>
      </trkpt>
      <trkpt lat="59.5533439983" lon="17.0123789739">
        <ele>14</ele>
        <time>2011-05-01T10:33:07Z</time>
      </trkpt>
      <trkpt lat="59.5535079483" lon="17.0125409961">
        <ele>14.4</ele>
        <time>2011-05-01T10:33:10Z</time>
      </trkpt>
      <trkpt lat="59.5536169969" lon="17.0126459375">
        <ele>15.4</ele>
        <time>2011-05-01T10:33:12Z</time>
      </trkpt>
      <trkpt lat="59.5537789352" lon="17.0128019247">
        <ele>15</ele>
        <time>2011-05-01T10:33:15Z</time>
      </trkpt>
      <trkpt lat="59.5539419632" lon="17.0129549783">
        <ele>15.8</ele>
        <time>2011-05-01T10:33:18Z</time>
      </trkpt>
      <trkpt lat="59.5541069191" lon="17.0131169166">
        <ele>16.8</ele>
        <time>2011-05-01T10:33:21Z</time>
      </trkpt>
      <trkpt lat="59.5542729646" lon="17.013270976">
        <ele>16.8</ele>
        <time>2011-05-01T10:33:24Z</time>
      </trkpt>
      <trkpt lat="59.5544409379" lon="17.0134309866">
        <ele>17.4</ele>
        <time>2011-05-01T10:33:27Z</time>
      </trkpt>
      <trkpt lat="59.5546099171" lon="17.0135939308">
        <ele>17.4</ele>
        <time>2011-05-01T10:33:30Z</time>
      </trkpt>
      <trkpt lat="59.5547729451" lon="17.013749918">
        <ele>17.8</ele>
        <time>2011-05-01T10:33:33Z</time>
      </trkpt>
      <trkpt lat="59.554936979" lon="17.0139119402">
        <ele>19.2</ele>
        <time>2011-05-01T10:33:36Z</time>
      </trkpt>
      <trkpt lat="59.5550969895" lon="17.0140679274">
        <ele>19.2</ele>
        <time>2011-05-01T10:33:39Z</time>
      </trkpt>
      <trkpt lat="59.5552669745" lon="17.0142349787">
        <ele>19.8</ele>
        <time>2011-05-01T10:33:42Z</time>
      </trkpt>
      <trkpt lat="59.5554429945" lon="17.0144019462">
        <ele>19.8</ele>
        <time>2011-05-01T10:33:45Z</time>
      </trkpt>
      <trkpt lat="59.5556089561" lon="17.0145639684">
        <ele>19.8</ele>
        <time>2011-05-01T10:33:48Z</time>
      </trkpt>
      <trkpt lat="59.5557719842" lon="17.0147309359">
        <ele>20.2</ele>
        <time>2011-05-01T10:33:51Z</time>
      </trkpt>
      <trkpt lat="59.5559549611" lon="17.0149179362">
        <ele>19.8</ele>
        <time>2011-05-01T10:33:54Z</time>
      </trkpt>
      <trkpt lat="59.5561339986" lon="17.0150919445">
        <ele>20.8</ele>
        <time>2011-05-01T10:33:57Z</time>
      </trkpt>
      <trkpt lat="59.5563299675" lon="17.0152779389">
        <ele>20.2</ele>
        <time>2011-05-01T10:34:00Z</time>
      </trkpt>
      <trkpt lat="59.5565319713" lon="17.0154739916">
        <ele>19.2</ele>
        <time>2011-05-01T10:34:03Z</time>
      </trkpt>
      <trkpt lat="59.5567319635" lon="17.0156629197">
        <ele>19.8</ele>
        <time>2011-05-01T10:34:06Z</time>
      </trkpt>
      <trkpt lat="59.5569449477" lon="17.0158529375">
        <ele>18.8</ele>
        <time>2011-05-01T10:34:09Z</time>
      </trkpt>
      <trkpt lat="59.5571609493" lon="17.0160469785">
        <ele>18.4</ele>
        <time>2011-05-01T10:34:12Z</time>
      </trkpt>
      <trkpt lat="59.5573869254" lon="17.0162369963">
        <ele>16.4</ele>
        <time>2011-05-01T10:34:15Z</time>
      </trkpt>
      <trkpt lat="59.5576419868" lon="17.0164309535">
        <ele>15.4</ele>
        <time>2011-05-01T10:34:18Z</time>
      </trkpt>
      <trkpt lat="59.5579089504" lon="17.0166109968">
        <ele>14</ele>
        <time>2011-05-01T10:34:21Z</time>
      </trkpt>
      <trkpt lat="59.558181949" lon="17.0167769585">
        <ele>12.6</ele>
        <time>2011-05-01T10:34:24Z</time>
      </trkpt>
      <trkpt lat="59.5582729764" lon="17.0168319438">
        <ele>12</ele>
        <time>2011-05-01T10:34:25Z</time>
      </trkpt>
      <trkpt lat="59.5585479867" lon="17.0169819798">
        <ele>11</ele>
        <time>2011-05-01T10:34:28Z</time>
      </trkpt>
      <trkpt lat="59.5588149503" lon="17.0171139948">
        <ele>10.2</ele>
        <time>2011-05-01T10:34:31Z</time>
      </trkpt>
      <trkpt lat="59.5590669941" lon="17.0172189362">
        <ele>11</ele>
        <time>2011-05-01T10:34:34Z</time>
      </trkpt>
      <trkpt lat="59.5591489691" lon="17.0172479376">
        <ele>15.4</ele>
        <time>2011-05-01T10:34:35Z</time>
      </trkpt>
      <trkpt lat="59.5593909547" lon="17.017326979">
        <ele>17.8</ele>
        <time>2011-05-01T10:34:38Z</time>
      </trkpt>
      <trkpt lat="59.5596239716" lon="17.0173909329">
        <ele>15.8</ele>
        <time>2011-05-01T10:34:41Z</time>
      </trkpt>
      <trkpt lat="59.5598499477" lon="17.017439967">
        <ele>14.4</ele>
        <time>2011-05-01T10:34:44Z</time>
      </trkpt>
      <trkpt lat="59.5600709785" lon="17.0174809545">
        <ele>16.4</ele>
        <time>2011-05-01T10:34:47Z</time>
      </trkpt>
      <trkpt lat="59.560287986" lon="17.0175099559">
        <ele>16.4</ele>
        <time>2011-05-01T10:34:50Z</time>
      </trkpt>
      <trkpt lat="59.5605009701" lon="17.0175289828">
        <ele>16.4</ele>
        <time>2011-05-01T10:34:53Z</time>
      </trkpt>
      <trkpt lat="59.5606379304" lon="17.0175379515">
        <ele>15</ele>
        <time>2011-05-01T10:34:55Z</time>
      </trkpt>
      <trkpt lat="59.5608329773" lon="17.017540969">
        <ele>15.4</ele>
        <time>2011-05-01T10:34:58Z</time>
      </trkpt>
      <trkpt lat="59.5610199776" lon="17.0175339282">
        <ele>15.8</ele>
        <time>2011-05-01T10:35:01Z</time>
      </trkpt>
      <trkpt lat="59.5612039603" lon="17.0175179187">
        <ele>15.4</ele>
        <time>2011-05-01T10:35:04Z</time>
      </trkpt>
      <trkpt lat="59.5613919664" lon="17.0174979698">
        <ele>15.8</ele>
        <time>2011-05-01T10:35:07Z</time>
      </trkpt>
      <trkpt lat="59.5615849178" lon="17.0174629334">
        <ele>15.8</ele>
        <time>2011-05-01T10:35:10Z</time>
      </trkpt>
      <trkpt lat="59.5617769472" lon="17.0174249634">
        <ele>15.8</ele>
        <time>2011-05-01T10:35:13Z</time>
      </trkpt>
      <trkpt lat="59.561973922" lon="17.017370984">
        <ele>15.8</ele>
        <time>2011-05-01T10:35:16Z</time>
      </trkpt>
      <trkpt lat="59.5621729922" lon="17.0173049346">
        <ele>15.8</ele>
        <time>2011-05-01T10:35:19Z</time>
      </trkpt>
      <trkpt lat="59.5623649377" lon="17.0172469318">
        <ele>15.8</ele>
        <time>2011-05-01T10:35:22Z</time>
      </trkpt>
      <trkpt lat="59.5625539497" lon="17.0171939582">
        <ele>15.8</ele>
        <time>2011-05-01T10:35:25Z</time>
      </trkpt>
      <trkpt lat="59.562752936" lon="17.0171259809">
        <ele>15.8</ele>
        <time>2011-05-01T10:35:28Z</time>
      </trkpt>
      <trkpt lat="59.5629519224" lon="17.017062949">
        <ele>15.8</ele>
        <time>2011-05-01T10:35:31Z</time>
      </trkpt>
      <trkpt lat="59.5631529205" lon="17.0169999171">
        <ele>15.8</ele>
        <time>2011-05-01T10:35:34Z</time>
      </trkpt>
      <trkpt lat="59.5633459557" lon="17.016936969">
        <ele>16.4</ele>
        <time>2011-05-01T10:35:37Z</time>
      </trkpt>
      <trkpt lat="59.5635339618" lon="17.0168709196">
        <ele>16.4</ele>
        <time>2011-05-01T10:35:40Z</time>
      </trkpt>
      <trkpt lat="59.5637249853" lon="17.0168039482">
        <ele>16.4</ele>
        <time>2011-05-01T10:35:43Z</time>
      </trkpt>
      <trkpt lat="59.5639159251" lon="17.0167449396">
        <ele>17.4</ele>
        <time>2011-05-01T10:35:46Z</time>
      </trkpt>
      <trkpt lat="59.5641029254" lon="17.0166829973">
        <ele>17.8</ele>
        <time>2011-05-01T10:35:49Z</time>
      </trkpt>
      <trkpt lat="59.5642909314" lon="17.0166189596">
        <ele>18.4</ele>
        <time>2011-05-01T10:35:52Z</time>
      </trkpt>
      <trkpt lat="59.5644829609" lon="17.0165569335">
        <ele>16.8</ele>
        <time>2011-05-01T10:35:55Z</time>
      </trkpt>
      <trkpt lat="59.5646749903" lon="17.0164949913">
        <ele>17.4</ele>
        <time>2011-05-01T10:35:58Z</time>
      </trkpt>
      <trkpt lat="59.564871965" lon="17.0164309535">
        <ele>17.4</ele>
        <time>2011-05-01T10:36:01Z</time>
      </trkpt>
      <trkpt lat="59.565078998" lon="17.0163659938">
        <ele>16.4</ele>
        <time>2011-05-01T10:36:04Z</time>
      </trkpt>
      <trkpt lat="59.565286953" lon="17.0162969269">
        <ele>16.4</ele>
        <time>2011-05-01T10:36:07Z</time>
      </trkpt>
      <trkpt lat="59.565493986" lon="17.0162309613">
        <ele>16.8</ele>
        <time>2011-05-01T10:36:10Z</time>
      </trkpt>
      <trkpt lat="59.5657009352" lon="17.0161639899">
        <ele>16.4</ele>
        <time>2011-05-01T10:36:13Z</time>
      </trkpt>
      <trkpt lat="59.5659069624" lon="17.0160989463">
        <ele>17.4</ele>
        <time>2011-05-01T10:36:16Z</time>
      </trkpt>
      <trkpt lat="59.5661099721" lon="17.0160319749">
        <ele>18.4</ele>
        <time>2011-05-01T10:36:19Z</time>
      </trkpt>
      <trkpt lat="59.5663099643" lon="17.0159649197">
        <ele>19.2</ele>
        <time>2011-05-01T10:36:22Z</time>
      </trkpt>
      <trkpt lat="59.5665039215" lon="17.0159029774">
        <ele>19.2</ele>
        <time>2011-05-01T10:36:25Z</time>
      </trkpt>
      <trkpt lat="59.5667049196" lon="17.0158399455">
        <ele>19.8</ele>
        <time>2011-05-01T10:36:28Z</time>
      </trkpt>
      <trkpt lat="59.5669039898" lon="17.0157739799">
        <ele>20.2</ele>
        <time>2011-05-01T10:36:31Z</time>
      </trkpt>
      <trkpt lat="59.5670949295" lon="17.015710948">
        <ele>20.8</ele>
        <time>2011-05-01T10:36:34Z</time>
      </trkpt>
      <trkpt lat="59.5672919881" lon="17.0156469941">
        <ele>20.8</ele>
        <time>2011-05-01T10:36:37Z</time>
      </trkpt>
      <trkpt lat="59.5674939919" lon="17.0155809447">
        <ele>20.2</ele>
        <time>2011-05-01T10:36:40Z</time>
      </trkpt>
      <trkpt lat="59.5677039586" lon="17.0155129675">
        <ele>19.2</ele>
        <time>2011-05-01T10:36:43Z</time>
      </trkpt>
      <trkpt lat="59.5679209661" lon="17.0154429786">
        <ele>19.8</ele>
        <time>2011-05-01T10:36:46Z</time>
      </trkpt>
      <trkpt lat="59.5681429189" lon="17.0153729897">
        <ele>18.8</ele>
        <time>2011-05-01T10:36:49Z</time>
      </trkpt>
      <trkpt lat="59.5683669671" lon="17.015302917">
        <ele>18.8</ele>
        <time>2011-05-01T10:36:52Z</time>
      </trkpt>
      <trkpt lat="59.5685949549" lon="17.0152299944">
        <ele>19.2</ele>
        <time>2011-05-01T10:36:55Z</time>
      </trkpt>
      <trkpt lat="59.5688329171" lon="17.0151549764">
        <ele>19.8</ele>
        <time>2011-05-01T10:36:58Z</time>
      </trkpt>
      <trkpt lat="59.5690769982" lon="17.0150729176">
        <ele>19.2</ele>
        <time>2011-05-01T10:37:01Z</time>
      </trkpt>
      <trkpt lat="59.5693259407" lon="17.0149969775">
        <ele>19.2</ele>
        <time>2011-05-01T10:37:04Z</time>
      </trkpt>
      <trkpt lat="59.5695729554" lon="17.0149149187">
        <ele>18.8</ele>
        <time>2011-05-01T10:37:07Z</time>
      </trkpt>
      <trkpt lat="59.5698169526" lon="17.0148219634">
        <ele>18.4</ele>
        <time>2011-05-01T10:37:10Z</time>
      </trkpt>
      <trkpt lat="59.5700619556" lon="17.014717944">
        <ele>16.8</ele>
        <time>2011-05-01T10:37:13Z</time>
      </trkpt>
      <trkpt lat="59.5703119878" lon="17.014585929">
        <ele>16.8</ele>
        <time>2011-05-01T10:37:16Z</time>
      </trkpt>
      <trkpt lat="59.5705729164" lon="17.0144289359">
        <ele>15</ele>
        <time>2011-05-01T10:37:19Z</time>
      </trkpt>
      <trkpt lat="59.5706619322" lon="17.0143699273">
        <ele>15</ele>
        <time>2011-05-01T10:37:20Z</time>
      </trkpt>
      <trkpt lat="59.5709349308" lon="17.0141789876">
        <ele>13.4</ele>
        <time>2011-05-01T10:37:23Z</time>
      </trkpt>
      <trkpt lat="59.5712109469" lon="17.013956951">
        <ele>13</ele>
        <time>2011-05-01T10:37:26Z</time>
      </trkpt>
      <trkpt lat="59.571392918" lon="17.013793923">
        <ele>11.6</ele>
        <time>2011-05-01T10:37:28Z</time>
      </trkpt>
      <trkpt lat="59.5716599654" lon="17.0135399513">
        <ele>11.6</ele>
        <time>2011-05-01T10:37:31Z</time>
      </trkpt>
      <trkpt lat="59.5719149429" lon="17.013270976">
        <ele>11.6</ele>
        <time>2011-05-01T10:37:34Z</time>
      </trkpt>
      <trkpt lat="59.5721549168" lon="17.0129929483">
        <ele>11.6</ele>
        <time>2011-05-01T10:37:37Z</time>
      </trkpt>
      <trkpt lat="59.5723789651" lon="17.0127059519">
        <ele>12.6</ele>
        <time>2011-05-01T10:37:40Z</time>
      </trkpt>
      <trkpt lat="59.5725949667" lon="17.0124099869">
        <ele>12</ele>
        <time>2011-05-01T10:37:43Z</time>
      </trkpt>
      <trkpt lat="59.5728009939" lon="17.012101952">
        <ele>11.6</ele>
        <time>2011-05-01T10:37:46Z</time>
      </trkpt>
      <trkpt lat="59.5729999803" lon="17.011793917">
        <ele>12</ele>
        <time>2011-05-01T10:37:49Z</time>
      </trkpt>
      <trkpt lat="59.5731909201" lon="17.0114879776">
        <ele>13.4</ele>
        <time>2011-05-01T10:37:52Z</time>
      </trkpt>
      <trkpt lat="59.5733849611" lon="17.0111749973">
        <ele>14</ele>
        <time>2011-05-01T10:37:55Z</time>
      </trkpt>
      <trkpt lat="59.5735839475" lon="17.0108539704">
        <ele>12.6</ele>
        <time>2011-05-01T10:37:58Z</time>
      </trkpt>
      <trkpt lat="59.573787963" lon="17.010529926">
        <ele>12.6</ele>
        <time>2011-05-01T10:38:01Z</time>
      </trkpt>
      <trkpt lat="59.5739919785" lon="17.0101989247">
        <ele>13</ele>
        <time>2011-05-01T10:38:04Z</time>
      </trkpt>
      <trkpt lat="59.5741949882" lon="17.0098739583">
        <ele>13</ele>
        <time>2011-05-01T10:38:07Z</time>
      </trkpt>
      <trkpt lat="59.574391963" lon="17.009560978">
        <ele>13.4</ele>
        <time>2011-05-01T10:38:10Z</time>
      </trkpt>
      <trkpt lat="59.574579969" lon="17.0092529431">
        <ele>13.4</ele>
        <time>2011-05-01T10:38:13Z</time>
      </trkpt>
      <trkpt lat="59.5747639518" lon="17.0089609176">
        <ele>14</ele>
        <time>2011-05-01T10:38:16Z</time>
      </trkpt>
      <trkpt lat="59.574938966" lon="17.0086789504">
        <ele>13.4</ele>
        <time>2011-05-01T10:38:19Z</time>
      </trkpt>
      <trkpt lat="59.5751079451" lon="17.0084079634">
        <ele>13.4</ele>
        <time>2011-05-01T10:38:22Z</time>
      </trkpt>
      <trkpt lat="59.5753719751" lon="17.0079779718">
        <ele>14.4</ele>
        <time>2011-05-01T10:38:27Z</time>
      </trkpt>
      <trkpt lat="59.5755329914" lon="17.0077179652">
        <ele>14.4</ele>
        <time>2011-05-01T10:38:30Z</time>
      </trkpt>
      <trkpt lat="59.5756929182" lon="17.0074689388">
        <ele>15</ele>
        <time>2011-05-01T10:38:33Z</time>
      </trkpt>
      <trkpt lat="59.5758479834" lon="17.0072179846">
        <ele>15.4</ele>
        <time>2011-05-01T10:38:36Z</time>
      </trkpt>
      <trkpt lat="59.5760179684" lon="17.0069419686">
        <ele>15.4</ele>
        <time>2011-05-01T10:38:39Z</time>
      </trkpt>
      <trkpt lat="59.5761939883" lon="17.0066519547">
        <ele>14.4</ele>
        <time>2011-05-01T10:38:42Z</time>
      </trkpt>
      <trkpt lat="59.5763789769" lon="17.0063709933">
        <ele>14.4</ele>
        <time>2011-05-01T10:38:45Z</time>
      </trkpt>
      <trkpt lat="59.576560948" lon="17.0060799737">
        <ele>16.8</ele>
        <time>2011-05-01T10:38:48Z</time>
      </trkpt>
      <trkpt lat="59.5766219683" lon="17.0059799775">
        <ele>16.8</ele>
        <time>2011-05-01T10:38:49Z</time>
      </trkpt>
      <trkpt lat="59.5768099744" lon="17.0056799892">
        <ele>16.8</ele>
        <time>2011-05-01T10:38:52Z</time>
      </trkpt>
      <trkpt lat="59.5769979805" lon="17.0053799171">
        <ele>16.4</ele>
        <time>2011-05-01T10:38:55Z</time>
      </trkpt>
      <trkpt lat="59.5771839749" lon="17.0050829463">
        <ele>16.4</ele>
        <time>2011-05-01T10:38:58Z</time>
      </trkpt>
      <trkpt lat="59.5773679577" lon="17.0047859754">
        <ele>16.8</ele>
        <time>2011-05-01T10:39:01Z</time>
      </trkpt>
      <trkpt lat="59.5775519405" lon="17.0044929441">
        <ele>17.4</ele>
        <time>2011-05-01T10:39:04Z</time>
      </trkpt>
      <trkpt lat="59.5777369291" lon="17.0041989908">
        <ele>16.8</ele>
        <time>2011-05-01T10:39:07Z</time>
      </trkpt>
      <trkpt lat="59.577918984" lon="17.0039099827">
        <ele>17.4</ele>
        <time>2011-05-01T10:39:10Z</time>
      </trkpt>
      <trkpt lat="59.5781009551" lon="17.0036219805">
        <ele>16.4</ele>
        <time>2011-05-01T10:39:13Z</time>
      </trkpt>
      <trkpt lat="59.5782849379" lon="17.0033289492">
        <ele>17.4</ele>
        <time>2011-05-01T10:39:16Z</time>
      </trkpt>
      <trkpt lat="59.5784709323" lon="17.0030379295">
        <ele>16.4</ele>
        <time>2011-05-01T10:39:19Z</time>
      </trkpt>
      <trkpt lat="59.5786459465" lon="17.0027639251">
        <ele>16.4</ele>
        <time>2011-05-01T10:39:22Z</time>
      </trkpt>
      <trkpt lat="59.5788149256" lon="17.0024979673">
        <ele>16.4</ele>
        <time>2011-05-01T10:39:25Z</time>
      </trkpt>
      <trkpt lat="59.5789869223" lon="17.0022319257">
        <ele>16.4</ele>
        <time>2011-05-01T10:39:28Z</time>
      </trkpt>
      <trkpt lat="59.5791599248" lon="17.0019669738">
        <ele>16.8</ele>
        <time>2011-05-01T10:39:31Z</time>
      </trkpt>
      <trkpt lat="59.5793329272" lon="17.0017139241">
        <ele>16.8</ele>
        <time>2011-05-01T10:39:34Z</time>
      </trkpt>
      <trkpt lat="59.579515988" lon="17.0014669932">
        <ele>17.4</ele>
        <time>2011-05-01T10:39:37Z</time>
      </trkpt>
      <trkpt lat="59.5797049999" lon="17.0012239181">
        <ele>16.8</ele>
        <time>2011-05-01T10:39:40Z</time>
      </trkpt>
      <trkpt lat="59.5798979513" lon="17.0009829383">
        <ele>16.4</ele>
        <time>2011-05-01T10:39:43Z</time>
      </trkpt>
      <trkpt lat="59.5800949261" lon="17.0007459819">
        <ele>16.4</ele>
        <time>2011-05-01T10:39:46Z</time>
      </trkpt>
      <trkpt lat="59.5802959241" lon="17.0005079359">
        <ele>16.4</ele>
        <time>2011-05-01T10:39:49Z</time>
      </trkpt>
      <trkpt lat="59.5805039629" lon="17.0002629329">
        <ele>15.8</ele>
        <time>2011-05-01T10:39:52Z</time>
      </trkpt>
      <trkpt lat="59.5807179529" lon="17.0000119787">
        <ele>15.4</ele>
        <time>2011-05-01T10:39:55Z</time>
      </trkpt>
      <trkpt lat="59.5809379779" lon="16.9997489545">
        <ele>16.4</ele>
        <time>2011-05-01T10:39:58Z</time>
      </trkpt>
      <trkpt lat="59.5811599307" lon="16.9994809851">
        <ele>16.4</ele>
        <time>2011-05-01T10:40:01Z</time>
      </trkpt>
      <trkpt lat="59.5813919418" lon="16.999204969">
        <ele>15.4</ele>
        <time>2011-05-01T10:40:04Z</time>
      </trkpt>
      <trkpt lat="59.5816319995" lon="16.9989179727">
        <ele>15.4</ele>
        <time>2011-05-01T10:40:07Z</time>
      </trkpt>
      <trkpt lat="59.581873985" lon="16.998626953">
        <ele>13</ele>
        <time>2011-05-01T10:40:10Z</time>
      </trkpt>
      <trkpt lat="59.5821119472" lon="16.9983449858">
        <ele>14</ele>
        <time>2011-05-01T10:40:13Z</time>
      </trkpt>
      <trkpt lat="59.58234597" lon="16.998072993">
        <ele>13</ele>
        <time>2011-05-01T10:40:16Z</time>
      </trkpt>
      <trkpt lat="59.5825819205" lon="16.9978119805">
        <ele>12.6</ele>
        <time>2011-05-01T10:40:19Z</time>
      </trkpt>
      <trkpt lat="59.5828169491" lon="16.9975689892">
        <ele>12</ele>
        <time>2011-05-01T10:40:22Z</time>
      </trkpt>
      <trkpt lat="59.5830579288" lon="16.99734997">
        <ele>12.6</ele>
        <time>2011-05-01T10:40:25Z</time>
      </trkpt>
      <trkpt lat="59.5833049435" lon="16.997155929">
        <ele>10.6</ele>
        <time>2011-05-01T10:40:28Z</time>
      </trkpt>
      <trkpt lat="59.5834739227" lon="16.9970409293">
        <ele>9.6</ele>
        <time>2011-05-01T10:40:30Z</time>
      </trkpt>
      <trkpt lat="59.5837309957" lon="16.9968959223">
        <ele>8.2</ele>
        <time>2011-05-01T10:40:33Z</time>
      </trkpt>
      <trkpt lat="59.583993936" lon="16.9967829343">
        <ele>6.2</ele>
        <time>2011-05-01T10:40:36Z</time>
      </trkpt>
      <trkpt lat="59.5842729695" lon="16.9967089221">
        <ele>3.8</ele>
        <time>2011-05-01T10:40:39Z</time>
      </trkpt>
      <trkpt lat="59.5844649989" lon="16.9966799207">
        <ele>3</ele>
        <time>2011-05-01T10:40:41Z</time>
      </trkpt>
      <trkpt lat="59.5847559348" lon="16.9966619834">
        <ele>2.4</ele>
        <time>2011-05-01T10:40:44Z</time>
      </trkpt>
      <trkpt lat="59.5850479603" lon="16.9966829382">
        <ele>0</ele>
        <time>2011-05-01T10:40:47Z</time>
      </trkpt>
      <trkpt lat="59.5853339508" lon="16.9967389293">
        <ele>0</ele>
        <time>2011-05-01T10:40:50Z</time>
      </trkpt>
      <trkpt lat="59.5856029261" lon="16.9968269393">
        <ele>0</ele>
        <time>2011-05-01T10:40:53Z</time>
      </trkpt>
      <trkpt lat="59.5858559757" lon="16.996941939">
        <ele>0</ele>
        <time>2011-05-01T10:40:56Z</time>
      </trkpt>
      <trkpt lat="59.586093938" lon="16.9970789831">
        <ele>0</ele>
        <time>2011-05-01T10:40:59Z</time>
      </trkpt>
      <trkpt lat="59.5863129571" lon="16.9972319528">
        <ele>0</ele>
        <time>2011-05-01T10:41:02Z</time>
      </trkpt>
      <trkpt lat="59.5865119435" lon="16.9973919634">
        <ele>0</ele>
        <time>2011-05-01T10:41:05Z</time>
      </trkpt>
      <trkpt lat="59.5866939984" lon="16.9975619484">
        <ele>1</ele>
        <time>2011-05-01T10:41:08Z</time>
      </trkpt>
      <trkpt lat="59.5868689287" lon="16.9977429975">
        <ele>2</ele>
        <time>2011-05-01T10:41:11Z</time>
      </trkpt>
      <trkpt lat="59.5870399196" lon="16.9979339372">
        <ele>2.4</ele>
        <time>2011-05-01T10:41:14Z</time>
      </trkpt>
      <trkpt lat="59.5872069709" lon="16.9981429819">
        <ele>4.4</ele>
        <time>2011-05-01T10:41:17Z</time>
      </trkpt>
      <trkpt lat="59.5872619562" lon="16.9982169941">
        <ele>4.4</ele>
        <time>2011-05-01T10:41:18Z</time>
      </trkpt>
      <trkpt lat="59.5874239784" lon="16.9984519389">
        <ele>3.8</ele>
        <time>2011-05-01T10:41:21Z</time>
      </trkpt>
      <trkpt lat="59.5875809714" lon="16.998701971">
        <ele>4.8</ele>
        <time>2011-05-01T10:41:24Z</time>
      </trkpt>
      <trkpt lat="59.5877289958" lon="16.998959966">
        <ele>4.8</ele>
        <time>2011-05-01T10:41:27Z</time>
      </trkpt>
      <trkpt lat="59.5878679678" lon="16.9992259238">
        <ele>5.4</ele>
        <time>2011-05-01T10:41:30Z</time>
      </trkpt>
      <trkpt lat="59.5880039223" lon="16.9994969945">
        <ele>4.8</ele>
        <time>2011-05-01T10:41:33Z</time>
      </trkpt>
      <trkpt lat="59.5881309919" lon="16.9997689873">
        <ele>5.4</ele>
        <time>2011-05-01T10:41:36Z</time>
      </trkpt>
      <trkpt lat="59.5882499311" lon="17.0000349451">
        <ele>6.8</ele>
        <time>2011-05-01T10:41:39Z</time>
      </trkpt>
      <trkpt lat="59.5883689541" lon="17.0002949517">
        <ele>8.2</ele>
        <time>2011-05-01T10:41:42Z</time>
      </trkpt>
      <trkpt lat="59.5884819422" lon="17.0005479176">
        <ele>8.2</ele>
        <time>2011-05-01T10:41:45Z</time>
      </trkpt>
      <trkpt lat="59.5885869674" lon="17.0007919986">
        <ele>9.6</ele>
        <time>2011-05-01T10:41:48Z</time>
      </trkpt>
      <trkpt lat="59.5887269452" lon="17.001103973">
        <ele>10.6</ele>
        <time>2011-05-01T10:41:52Z</time>
      </trkpt>
      <trkpt lat="59.5888279472" lon="17.0013279375">
        <ele>11.6</ele>
        <time>2011-05-01T10:41:55Z</time>
      </trkpt>
      <trkpt lat="59.588960968" lon="17.0016239863">
        <ele>11.6</ele>
        <time>2011-05-01T10:41:59Z</time>
      </trkpt>
      <trkpt lat="59.5890619699" lon="17.0018409938">
        <ele>13</ele>
        <time>2011-05-01T10:42:02Z</time>
      </trkpt>
      <trkpt lat="59.5891969185" lon="17.0021329354">
        <ele>14</ele>
        <time>2011-05-01T10:42:06Z</time>
      </trkpt>
      <trkpt lat="59.5893039554" lon="17.0023659524">
        <ele>13.4</ele>
        <time>2011-05-01T10:42:09Z</time>
      </trkpt>
      <trkpt lat="59.5894179493" lon="17.0026069321">
        <ele>13.4</ele>
        <time>2011-05-01T10:42:12Z</time>
      </trkpt>
      <trkpt lat="59.5895359665" lon="17.0028489176">
        <ele>12.6</ele>
        <time>2011-05-01T10:42:15Z</time>
      </trkpt>
      <trkpt lat="59.5896639582" lon="17.0031059906">
        <ele>12</ele>
        <time>2011-05-01T10:42:18Z</time>
      </trkpt>
      <trkpt lat="59.5897999965" lon="17.0033779833">
        <ele>12.6</ele>
        <time>2011-05-01T10:42:21Z</time>
      </trkpt>
      <trkpt lat="59.5899429917" lon="17.0036619622">
        <ele>12</ele>
        <time>2011-05-01T10:42:24Z</time>
      </trkpt>
      <trkpt lat="59.5900969673" lon="17.003964968">
        <ele>10.2</ele>
        <time>2011-05-01T10:42:27Z</time>
      </trkpt>
      <trkpt lat="59.5902619231" lon="17.0042789541">
        <ele>8.6</ele>
        <time>2011-05-01T10:42:30Z</time>
      </trkpt>
      <trkpt lat="59.5904249512" lon="17.0046019927">
        <ele>7.2</ele>
        <time>2011-05-01T10:42:33Z</time>
      </trkpt>
      <trkpt lat="59.590588985" lon="17.0049199183">
        <ele>8.6</ele>
        <time>2011-05-01T10:42:36Z</time>
      </trkpt>
      <trkpt lat="59.5907509234" lon="17.0052339882">
        <ele>6.2</ele>
        <time>2011-05-01T10:42:39Z</time>
      </trkpt>
      <trkpt lat="59.5908559486" lon="17.0054369979">
        <ele>5.8</ele>
        <time>2011-05-01T10:42:41Z</time>
      </trkpt>
      <trkpt lat="59.5910089184" lon="17.0057419315">
        <ele>5.4</ele>
        <time>2011-05-01T10:42:44Z</time>
      </trkpt>
      <trkpt lat="59.5911659952" lon="17.0060459431">
        <ele>6.8</ele>
        <time>2011-05-01T10:42:47Z</time>
      </trkpt>
      <trkpt lat="59.5912189689" lon="17.0061489567">
        <ele>6.8</ele>
        <time>2011-05-01T10:42:48Z</time>
      </trkpt>
      <trkpt lat="59.5913769677" lon="17.00645498">
        <ele>7.2</ele>
        <time>2011-05-01T10:42:51Z</time>
      </trkpt>
      <trkpt lat="59.5915339608" lon="17.0067599975">
        <ele>7.2</ele>
        <time>2011-05-01T10:42:54Z</time>
      </trkpt>
      <trkpt lat="59.5916919596" lon="17.0070669428">
        <ele>6.2</ele>
        <time>2011-05-01T10:42:57Z</time>
      </trkpt>
      <trkpt lat="59.5918499585" lon="17.0073719602">
        <ele>5.4</ele>
        <time>2011-05-01T10:43:00Z</time>
      </trkpt>
      <trkpt lat="59.5920109749" lon="17.007687958">
        <ele>6.2</ele>
        <time>2011-05-01T10:43:03Z</time>
      </trkpt>
      <trkpt lat="59.5921779424" lon="17.0080129243">
        <ele>7.2</ele>
        <time>2011-05-01T10:43:06Z</time>
      </trkpt>
      <trkpt lat="59.5923469216" lon="17.0083389804">
        <ele>7.2</ele>
        <time>2011-05-01T10:43:09Z</time>
      </trkpt>
      <trkpt lat="59.5925159846" lon="17.0086669642">
        <ele>7.8</ele>
        <time>2011-05-01T10:43:12Z</time>
      </trkpt>
      <trkpt lat="59.5926829521" lon="17.0089909248">
        <ele>6.2</ele>
        <time>2011-05-01T10:43:15Z</time>
      </trkpt>
      <trkpt lat="59.5928469859" lon="17.0093069226">
        <ele>7.2</ele>
        <time>2011-05-01T10:43:18Z</time>
      </trkpt>
      <trkpt lat="59.5929549448" lon="17.0095209964">
        <ele>5.4</ele>
        <time>2011-05-01T10:43:20Z</time>
      </trkpt>
      <trkpt lat="59.5931199845" lon="17.0098479744">
        <ele>5.4</ele>
        <time>2011-05-01T10:43:23Z</time>
      </trkpt>
      <trkpt lat="59.5932879578" lon="17.010171935">
        <ele>6.2</ele>
        <time>2011-05-01T10:43:26Z</time>
      </trkpt>
      <trkpt lat="59.5934539195" lon="17.010497991">
        <ele>6.2</ele>
        <time>2011-05-01T10:43:29Z</time>
      </trkpt>
      <trkpt lat="59.593619965" lon="17.0108209457">
        <ele>6.2</ele>
        <time>2011-05-01T10:43:32Z</time>
      </trkpt>
      <trkpt lat="59.5937879384" lon="17.0111389551">
        <ele>5.4</ele>
        <time>2011-05-01T10:43:35Z</time>
      </trkpt>
      <trkpt lat="59.593952978" lon="17.0114469901">
        <ele>6.8</ele>
        <time>2011-05-01T10:43:38Z</time>
      </trkpt>
      <trkpt lat="59.5941169281" lon="17.0117409434">
        <ele>6.2</ele>
        <time>2011-05-01T10:43:41Z</time>
      </trkpt>
      <trkpt lat="59.5942849852" lon="17.0120259281">
        <ele>6.2</ele>
        <time>2011-05-01T10:43:44Z</time>
      </trkpt>
      <trkpt lat="59.5944589935" lon="17.0123019442">
        <ele>4.8</ele>
        <time>2011-05-01T10:43:47Z</time>
      </trkpt>
      <trkpt lat="59.5946359355" lon="17.0125639625">
        <ele>5.8</ele>
        <time>2011-05-01T10:43:50Z</time>
      </trkpt>
      <trkpt lat="59.5947569702" lon="17.0127299242">
        <ele>3.4</ele>
        <time>2011-05-01T10:43:52Z</time>
      </trkpt>
      <trkpt lat="59.594933996" lon="17.0129669644">
        <ele>4.8</ele>
        <time>2011-05-01T10:43:55Z</time>
      </trkpt>
      <trkpt lat="59.5951139554" lon="17.0131859835">
        <ele>3.8</ele>
        <time>2011-05-01T10:43:58Z</time>
      </trkpt>
      <trkpt lat="59.5952979382" lon="17.013389999">
        <ele>6.2</ele>
        <time>2011-05-01T10:44:01Z</time>
      </trkpt>
      <trkpt lat="59.5954899676" lon="17.0135839563">
        <ele>7.8</ele>
        <time>2011-05-01T10:44:04Z</time>
      </trkpt>
      <trkpt lat="59.5956839249" lon="17.0137789194">
        <ele>7.2</ele>
        <time>2011-05-01T10:44:07Z</time>
      </trkpt>
      <trkpt lat="59.5958799776" lon="17.0139709488">
        <ele>7.2</ele>
        <time>2011-05-01T10:44:10Z</time>
      </trkpt>
      <trkpt lat="59.5960089751" lon="17.0140959229">
        <ele>6.2</ele>
        <time>2011-05-01T10:44:12Z</time>
      </trkpt>
      <trkpt lat="59.5962039381" lon="17.0142849348">
        <ele>6.8</ele>
        <time>2011-05-01T10:44:15Z</time>
      </trkpt>
      <trkpt lat="59.5963979792" lon="17.0144719351">
        <ele>6.2</ele>
        <time>2011-05-01T10:44:18Z</time>
      </trkpt>
      <trkpt lat="59.5965879969" lon="17.0146559179">
        <ele>6.8</ele>
        <time>2011-05-01T10:44:21Z</time>
      </trkpt>
      <trkpt lat="59.5967779309" lon="17.0148399845">
        <ele>6.8</ele>
        <time>2011-05-01T10:44:24Z</time>
      </trkpt>
      <trkpt lat="59.5969679486" lon="17.0150199439">
        <ele>6.8</ele>
        <time>2011-05-01T10:44:27Z</time>
      </trkpt>
      <trkpt lat="59.5971549489" lon="17.0151989814">
        <ele>6.2</ele>
        <time>2011-05-01T10:44:30Z</time>
      </trkpt>
      <trkpt lat="59.5973389316" lon="17.0153769292">
        <ele>6.2</ele>
        <time>2011-05-01T10:44:33Z</time>
      </trkpt>
      <trkpt lat="59.5975219924" lon="17.0155519433">
        <ele>6.2</ele>
        <time>2011-05-01T10:44:36Z</time>
      </trkpt>
      <trkpt lat="59.5977049693" lon="17.0157289691">
        <ele>6.2</ele>
        <time>2011-05-01T10:44:39Z</time>
      </trkpt>
      <trkpt lat="59.597883923" lon="17.01589996">
        <ele>5.8</ele>
        <time>2011-05-01T10:44:42Z</time>
      </trkpt>
      <trkpt lat="59.5980559196" lon="17.0160669275">
        <ele>6.8</ele>
        <time>2011-05-01T10:44:45Z</time>
      </trkpt>
      <trkpt lat="59.5982219651" lon="17.016226938">
        <ele>8.2</ele>
        <time>2011-05-01T10:44:48Z</time>
      </trkpt>
      <trkpt lat="59.598386921" lon="17.0163879544">
        <ele>7.2</ele>
        <time>2011-05-01T10:44:51Z</time>
      </trkpt>
      <trkpt lat="59.5985569898" lon="17.0165499765">
        <ele>7.2</ele>
        <time>2011-05-01T10:44:54Z</time>
      </trkpt>
      <trkpt lat="59.5987289865" lon="17.0167159382">
        <ele>7.2</ele>
        <time>2011-05-01T10:44:57Z</time>
      </trkpt>
      <trkpt lat="59.5989019889" lon="17.0168849174">
        <ele>7.8</ele>
        <time>2011-05-01T10:45:00Z</time>
      </trkpt>
      <trkpt lat="59.5990179945" lon="17.0169989951">
        <ele>8.2</ele>
        <time>2011-05-01T10:45:02Z</time>
      </trkpt>
      <trkpt lat="59.5991939306" lon="17.0171699859">
        <ele>8.6</ele>
        <time>2011-05-01T10:45:05Z</time>
      </trkpt>
      <trkpt lat="59.5993699506" lon="17.0173409767">
        <ele>9.2</ele>
        <time>2011-05-01T10:45:08Z</time>
      </trkpt>
      <trkpt lat="59.5995439589" lon="17.0175079443">
        <ele>9.2</ele>
        <time>2011-05-01T10:45:11Z</time>
      </trkpt>
      <trkpt lat="59.5997179672" lon="17.0176779293">
        <ele>9.2</ele>
        <time>2011-05-01T10:45:14Z</time>
      </trkpt>
      <trkpt lat="59.599894993" lon="17.0178469922">
        <ele>8.6</ele>
        <time>2011-05-01T10:45:17Z</time>
      </trkpt>
      <trkpt lat="59.6000789758" lon="17.0180289634">
        <ele>5.8</ele>
        <time>2011-05-01T10:45:20Z</time>
      </trkpt>
      <trkpt lat="59.6002669819" lon="17.018206995">
        <ele>6.2</ele>
        <time>2011-05-01T10:45:23Z</time>
      </trkpt>
      <trkpt lat="59.6004569996" lon="17.0183829311">
        <ele>6.8</ele>
        <time>2011-05-01T10:45:26Z</time>
      </trkpt>
      <trkpt lat="59.6006409824" lon="17.018553922">
        <ele>7.2</ele>
        <time>2011-05-01T10:45:29Z</time>
      </trkpt>
      <trkpt lat="59.6008189302" lon="17.0187219791">
        <ele>6.8</ele>
        <time>2011-05-01T10:45:32Z</time>
      </trkpt>
      <trkpt lat="59.6009909268" lon="17.0188879408">
        <ele>7.8</ele>
        <time>2011-05-01T10:45:35Z</time>
      </trkpt>
      <trkpt lat="59.601165941" lon="17.0190549921">
        <ele>8.6</ele>
        <time>2011-05-01T10:45:38Z</time>
      </trkpt>
      <trkpt lat="59.6013429668" lon="17.0192259829">
        <ele>8.6</ele>
        <time>2011-05-01T10:45:41Z</time>
      </trkpt>
      <trkpt lat="59.6015199926" lon="17.0193929505">
        <ele>9.6</ele>
        <time>2011-05-01T10:45:44Z</time>
      </trkpt>
      <trkpt lat="59.6016979404" lon="17.0195679646">
        <ele>9.2</ele>
        <time>2011-05-01T10:45:47Z</time>
      </trkpt>
      <trkpt lat="59.6018849406" lon="17.0197499357">
        <ele>9.6</ele>
        <time>2011-05-01T10:45:50Z</time>
      </trkpt>
      <trkpt lat="59.60207697" lon="17.019929979">
        <ele>8.2</ele>
        <time>2011-05-01T10:45:53Z</time>
      </trkpt>
      <trkpt lat="59.6022699215" lon="17.0201029815">
        <ele>7.8</ele>
        <time>2011-05-01T10:45:56Z</time>
      </trkpt>
      <trkpt lat="59.6024559997" lon="17.0202789176">
        <ele>8.2</ele>
        <time>2011-05-01T10:45:59Z</time>
      </trkpt>
      <trkpt lat="59.602643" lon="17.0204489864">
        <ele>10.6</ele>
        <time>2011-05-01T10:46:02Z</time>
      </trkpt>
      <trkpt lat="59.6027059481" lon="17.0205039717">
        <ele>11</ele>
        <time>2011-05-01T10:46:03Z</time>
      </trkpt>
      <trkpt lat="59.6028959658" lon="17.0206749626">
        <ele>10.6</ele>
        <time>2011-05-01T10:46:06Z</time>
      </trkpt>
      <trkpt lat="59.6030879952" lon="17.0208519883">
        <ele>10.6</ele>
        <time>2011-05-01T10:46:09Z</time>
      </trkpt>
      <trkpt lat="59.6032839641" lon="17.021030942">
        <ele>10.6</ele>
        <time>2011-05-01T10:46:12Z</time>
      </trkpt>
      <trkpt lat="59.6034749877" lon="17.0211979933">
        <ele>11</ele>
        <time>2011-05-01T10:46:15Z</time>
      </trkpt>
      <trkpt lat="59.6036619879" lon="17.0213649608">
        <ele>11.6</ele>
        <time>2011-05-01T10:46:18Z</time>
      </trkpt>
      <trkpt lat="59.6038489882" lon="17.0215289947">
        <ele>11.6</ele>
        <time>2011-05-01T10:46:21Z</time>
      </trkpt>
      <trkpt lat="59.6040319651" lon="17.021690933">
        <ele>11.6</ele>
        <time>2011-05-01T10:46:24Z</time>
      </trkpt>
      <trkpt lat="59.6042159479" lon="17.0218499377">
        <ele>11.6</ele>
        <time>2011-05-01T10:46:27Z</time>
      </trkpt>
      <trkpt lat="59.6044069715" lon="17.0220179949">
        <ele>13</ele>
        <time>2011-05-01T10:46:30Z</time>
      </trkpt>
      <trkpt lat="59.6045399923" lon="17.0221299771">
        <ele>9.2</ele>
        <time>2011-05-01T10:46:32Z</time>
      </trkpt>
      <trkpt lat="59.6046059579" lon="17.0221859682">
        <ele>9.6</ele>
        <time>2011-05-01T10:46:33Z</time>
      </trkpt>
      <trkpt lat="59.6047959756" lon="17.0223509241">
        <ele>9.2</ele>
        <time>2011-05-01T10:46:36Z</time>
      </trkpt>
      <trkpt lat="59.6049839817" lon="17.0225139521">
        <ele>9.2</ele>
        <time>2011-05-01T10:46:39Z</time>
      </trkpt>
      <trkpt lat="59.6051749215" lon="17.0226739626">
        <ele>9.2</ele>
        <time>2011-05-01T10:46:42Z</time>
      </trkpt>
      <trkpt lat="59.6053039189" lon="17.0227809995">
        <ele>12.6</ele>
        <time>2011-05-01T10:46:44Z</time>
      </trkpt>
      <trkpt lat="59.6053699683" lon="17.0228379965">
        <ele>13</ele>
        <time>2011-05-01T10:46:45Z</time>
      </trkpt>
      <trkpt lat="59.6055749897" lon="17.023004964">
        <ele>12.6</ele>
        <time>2011-05-01T10:46:48Z</time>
      </trkpt>
      <trkpt lat="59.6057849564" lon="17.0231769606">
        <ele>12.6</ele>
        <time>2011-05-01T10:46:51Z</time>
      </trkpt>
      <trkpt lat="59.606000958" lon="17.0233549923">
        <ele>10.6</ele>
        <time>2011-05-01T10:46:54Z</time>
      </trkpt>
      <trkpt lat="59.6062229946" lon="17.0235349517">
        <ele>9.6</ele>
        <time>2011-05-01T10:46:57Z</time>
      </trkpt>
      <trkpt lat="59.6064399183" lon="17.0237169228">
        <ele>11.6</ele>
        <time>2011-05-01T10:47:00Z</time>
      </trkpt>
      <trkpt lat="59.6066639666" lon="17.0238959603">
        <ele>11</ele>
        <time>2011-05-01T10:47:03Z</time>
      </trkpt>
      <trkpt lat="59.6068929601" lon="17.0240849722">
        <ele>11</ele>
        <time>2011-05-01T10:47:06Z</time>
      </trkpt>
      <trkpt lat="59.6071259771" lon="17.0242779236">
        <ele>9.6</ele>
        <time>2011-05-01T10:47:09Z</time>
      </trkpt>
      <trkpt lat="59.6073509473" lon="17.0244649239">
        <ele>7.8</ele>
        <time>2011-05-01T10:47:12Z</time>
      </trkpt>
      <trkpt lat="59.6074229479" lon="17.0245219208">
        <ele>7.8</ele>
        <time>2011-05-01T10:47:13Z</time>
      </trkpt>
      <trkpt lat="59.6076299809" lon="17.0246929955">
        <ele>7.8</ele>
        <time>2011-05-01T10:47:16Z</time>
      </trkpt>
      <trkpt lat="59.6078329906" lon="17.0248609688">
        <ele>8.2</ele>
        <time>2011-05-01T10:47:19Z</time>
      </trkpt>
      <trkpt lat="59.6080359165" lon="17.0250289422">
        <ele>8.6</ele>
        <time>2011-05-01T10:47:22Z</time>
      </trkpt>
      <trkpt lat="59.6082429495" lon="17.0251979213">
        <ele>8.2</ele>
        <time>2011-05-01T10:47:25Z</time>
      </trkpt>
      <trkpt lat="59.6084559336" lon="17.025369918">
        <ele>7.2</ele>
        <time>2011-05-01T10:47:28Z</time>
      </trkpt>
      <trkpt lat="59.6086639725" lon="17.0255459379">
        <ele>7.2</ele>
        <time>2011-05-01T10:47:31Z</time>
      </trkpt>
      <trkpt lat="59.6088719275" lon="17.0257159229">
        <ele>7.2</ele>
        <time>2011-05-01T10:47:34Z</time>
      </trkpt>
      <trkpt lat="59.6090789605" lon="17.0258819684">
        <ele>6.8</ele>
        <time>2011-05-01T10:47:37Z</time>
      </trkpt>
      <trkpt lat="59.6092889272" lon="17.0260519534">
        <ele>8.2</ele>
        <time>2011-05-01T10:47:40Z</time>
      </trkpt>
      <trkpt lat="59.609496966" lon="17.0262229443">
        <ele>8.2</ele>
        <time>2011-05-01T10:47:43Z</time>
      </trkpt>
      <trkpt lat="59.6096969582" lon="17.0263889898">
        <ele>7.2</ele>
        <time>2011-05-01T10:47:46Z</time>
      </trkpt>
      <trkpt lat="59.6098939329" lon="17.0265509281">
        <ele>9.6</ele>
        <time>2011-05-01T10:47:49Z</time>
      </trkpt>
      <trkpt lat="59.6099579707" lon="17.0266029797">
        <ele>9.6</ele>
        <time>2011-05-01T10:47:50Z</time>
      </trkpt>
      <trkpt lat="59.6101469826" lon="17.026758967">
        <ele>10.6</ele>
        <time>2011-05-01T10:47:53Z</time>
      </trkpt>
      <trkpt lat="59.6103369165" lon="17.0269109309">
        <ele>10.2</ele>
        <time>2011-05-01T10:47:56Z</time>
      </trkpt>
      <trkpt lat="59.6105279401" lon="17.0270729531">
        <ele>9.6</ele>
        <time>2011-05-01T10:47:59Z</time>
      </trkpt>
      <trkpt lat="59.6107119229" lon="17.0272289403">
        <ele>10.6</ele>
        <time>2011-05-01T10:48:02Z</time>
      </trkpt>
      <trkpt lat="59.6108829975" lon="17.027380988">
        <ele>10.6</ele>
        <time>2011-05-01T10:48:05Z</time>
      </trkpt>
      <trkpt lat="59.6110459417" lon="17.0275329519">
        <ele>10.6</ele>
        <time>2011-05-01T10:48:08Z</time>
      </trkpt>
      <trkpt lat="59.611212993" lon="17.0277029369">
        <ele>10.6</ele>
        <time>2011-05-01T10:48:11Z</time>
      </trkpt>
      <trkpt lat="59.6113809664" lon="17.027883986">
        <ele>10.6</ele>
        <time>2011-05-01T10:48:14Z</time>
      </trkpt>
      <trkpt lat="59.6115449164" lon="17.0280709863">
        <ele>11</ele>
        <time>2011-05-01T10:48:17Z</time>
      </trkpt>
      <trkpt lat="59.6117079444" lon="17.0282609202">
        <ele>11</ele>
        <time>2011-05-01T10:48:20Z</time>
      </trkpt>
      <trkpt lat="59.6118699666" lon="17.0284599904">
        <ele>11.6</ele>
        <time>2011-05-01T10:48:23Z</time>
      </trkpt>
      <trkpt lat="59.6120349225" lon="17.0286719687">
        <ele>11.6</ele>
        <time>2011-05-01T10:48:26Z</time>
      </trkpt>
      <trkpt lat="59.6121979505" lon="17.0288989507">
        <ele>11.6</ele>
        <time>2011-05-01T10:48:29Z</time>
      </trkpt>
      <trkpt lat="59.612364918" lon="17.0291409362">
        <ele>11.6</ele>
        <time>2011-05-01T10:48:32Z</time>
      </trkpt>
      <trkpt lat="59.6125329752" lon="17.029399937">
        <ele>11</ele>
        <time>2011-05-01T10:48:35Z</time>
      </trkpt>
      <trkpt lat="59.6126999427" lon="17.0296469517">
        <ele>12</ele>
        <time>2011-05-01T10:48:38Z</time>
      </trkpt>
      <trkpt lat="59.612860959" lon="17.0299189445">
        <ele>11</ele>
        <time>2011-05-01T10:48:41Z</time>
      </trkpt>
      <trkpt lat="59.6129139327" lon="17.0300119836">
        <ele>11</ele>
        <time>2011-05-01T10:48:42Z</time>
      </trkpt>
      <trkpt lat="59.6130739432" lon="17.0302939508">
        <ele>9.6</ele>
        <time>2011-05-01T10:48:45Z</time>
      </trkpt>
      <trkpt lat="59.6132299304" lon="17.030587988">
        <ele>8.2</ele>
        <time>2011-05-01T10:48:48Z</time>
      </trkpt>
      <trkpt lat="59.6134849917" lon="17.031090986">
        <ele>9.2</ele>
        <time>2011-05-01T10:48:53Z</time>
      </trkpt>
      <trkpt lat="59.6136359498" lon="17.0314069837">
        <ele>9.2</ele>
        <time>2011-05-01T10:48:56Z</time>
      </trkpt>
      <trkpt lat="59.6137869917" lon="17.0317379851">
        <ele>8.2</ele>
        <time>2011-05-01T10:48:59Z</time>
      </trkpt>
      <trkpt lat="59.6139339264" lon="17.0320799667">
        <ele>8.6</ele>
        <time>2011-05-01T10:49:02Z</time>
      </trkpt>
      <trkpt lat="59.6140779275" lon="17.032436952">
        <ele>8.2</ele>
        <time>2011-05-01T10:49:05Z</time>
      </trkpt>
      <trkpt lat="59.614219917" lon="17.0328099467">
        <ele>7.8</ele>
        <time>2011-05-01T10:49:08Z</time>
      </trkpt>
      <trkpt lat="59.6143649239" lon="17.033190988">
        <ele>6.2</ele>
        <time>2011-05-01T10:49:11Z</time>
      </trkpt>
      <trkpt lat="59.6145059913" lon="17.0335849375">
        <ele>7.8</ele>
        <time>2011-05-01T10:49:14Z</time>
      </trkpt>
      <trkpt lat="59.6145999525" lon="17.0338489674">
        <ele>8.2</ele>
        <time>2011-05-01T10:49:16Z</time>
      </trkpt>
      <trkpt lat="59.6147439536" lon="17.0342519693">
        <ele>8.6</ele>
        <time>2011-05-01T10:49:19Z</time>
      </trkpt>
      <trkpt lat="59.6148929838" lon="17.0346649457">
        <ele>7.8</ele>
        <time>2011-05-01T10:49:22Z</time>
      </trkpt>
      <trkpt lat="59.6150469594" lon="17.0350609906">
        <ele>7.8</ele>
        <time>2011-05-01T10:49:25Z</time>
      </trkpt>
      <trkpt lat="59.6152039524" lon="17.0354379248">
        <ele>6.2</ele>
        <time>2011-05-01T10:49:28Z</time>
      </trkpt>
      <trkpt lat="59.6153649688" lon="17.0358109195">
        <ele>7.8</ele>
        <time>2011-05-01T10:49:31Z</time>
      </trkpt>
      <trkpt lat="59.615526991" lon="17.0361649711">
        <ele>6.8</ele>
        <time>2011-05-01T10:49:34Z</time>
      </trkpt>
      <trkpt lat="59.6156889293" lon="17.0365029294">
        <ele>6.2</ele>
        <time>2011-05-01T10:49:37Z</time>
      </trkpt>
      <trkpt lat="59.6158559807" lon="17.0368279796">
        <ele>6.2</ele>
        <time>2011-05-01T10:49:40Z</time>
      </trkpt>
      <trkpt lat="59.6160259657" lon="17.037139954">
        <ele>6.8</ele>
        <time>2011-05-01T10:49:43Z</time>
      </trkpt>
      <trkpt lat="59.6161979623" lon="17.0374439657">
        <ele>5.8</ele>
        <time>2011-05-01T10:49:46Z</time>
      </trkpt>
      <trkpt lat="59.6163709648" lon="17.0377359912">
        <ele>2.4</ele>
        <time>2011-05-01T10:49:49Z</time>
      </trkpt>
      <trkpt lat="59.6165469848" lon="17.0380199701">
        <ele>3</ele>
        <time>2011-05-01T10:49:52Z</time>
      </trkpt>
      <trkpt lat="59.6166639961" lon="17.0382039528">
        <ele>6.8</ele>
        <time>2011-05-01T10:49:54Z</time>
      </trkpt>
      <trkpt lat="59.6167239267" lon="17.0382949803">
        <ele>6.2</ele>
        <time>2011-05-01T10:49:55Z</time>
      </trkpt>
      <trkpt lat="59.6169059817" lon="17.0385579206">
        <ele>6.8</ele>
        <time>2011-05-01T10:49:58Z</time>
      </trkpt>
      <trkpt lat="59.6170859411" lon="17.0388009958">
        <ele>6.8</ele>
        <time>2011-05-01T10:50:01Z</time>
      </trkpt>
      <trkpt lat="59.6172689181" lon="17.0390279777">
        <ele>3</ele>
        <time>2011-05-01T10:50:04Z</time>
      </trkpt>
      <trkpt lat="59.61733195" lon="17.0390969608">
        <ele>2.4</ele>
        <time>2011-05-01T10:50:05Z</time>
      </trkpt>
      <trkpt lat="59.6175219677" lon="17.0392879844">
        <ele>3</ele>
        <time>2011-05-01T10:50:08Z</time>
      </trkpt>
      <trkpt lat="59.6177009214" lon="17.0394839533">
        <ele>3.4</ele>
        <time>2011-05-01T10:50:11Z</time>
      </trkpt>
      <trkpt lat="59.617878953" lon="17.0396779943">
        <ele>3</ele>
        <time>2011-05-01T10:50:14Z</time>
      </trkpt>
      <trkpt lat="59.6180559788" lon="17.0398719516">
        <ele>3.4</ele>
        <time>2011-05-01T10:50:17Z</time>
      </trkpt>
      <trkpt lat="59.6182339266" lon="17.0400609635">
        <ele>3.8</ele>
        <time>2011-05-01T10:50:20Z</time>
      </trkpt>
      <trkpt lat="59.6184119582" lon="17.0402619615">
        <ele>5.8</ele>
        <time>2011-05-01T10:50:23Z</time>
      </trkpt>
      <trkpt lat="59.6185999643" lon="17.0404819865">
        <ele>5.4</ele>
        <time>2011-05-01T10:50:26Z</time>
      </trkpt>
      <trkpt lat="59.6188009623" lon="17.0406969823">
        <ele>4.8</ele>
        <time>2011-05-01T10:50:29Z</time>
      </trkpt>
      <trkpt lat="59.6190009546" lon="17.0409049373">
        <ele>5.8</ele>
        <time>2011-05-01T10:50:32Z</time>
      </trkpt>
      <trkpt lat="59.6191769745" lon="17.0411229506">
        <ele>3</ele>
        <time>2011-05-01T10:50:35Z</time>
      </trkpt>
      <trkpt lat="59.6193509828" lon="17.0412929356">
        <ele>4.8</ele>
        <time>2011-05-01T10:50:38Z</time>
      </trkpt>
      <trkpt lat="59.619519962" lon="17.0414749905">
        <ele>5.4</ele>
        <time>2011-05-01T10:50:41Z</time>
      </trkpt>
      <trkpt lat="59.6196789667" lon="17.0416519325">
        <ele>4.8</ele>
        <time>2011-05-01T10:50:44Z</time>
      </trkpt>
      <trkpt lat="59.6198539808" lon="17.0418419503">
        <ele>5.4</ele>
        <time>2011-05-01T10:50:47Z</time>
      </trkpt>
      <trkpt lat="59.6199689806" lon="17.0419639908">
        <ele>6.2</ele>
        <time>2011-05-01T10:50:49Z</time>
      </trkpt>
      <trkpt lat="59.6201449167" lon="17.0421589538">
        <ele>5.4</ele>
        <time>2011-05-01T10:50:52Z</time>
      </trkpt>
      <trkpt lat="59.6203139797" lon="17.0423459541">
        <ele>5.8</ele>
        <time>2011-05-01T10:50:55Z</time>
      </trkpt>
      <trkpt lat="59.6204799414" lon="17.0425279252">
        <ele>5.8</ele>
        <time>2011-05-01T10:50:58Z</time>
      </trkpt>
      <trkpt lat="59.6205929294" lon="17.042653989">
        <ele>4.8</ele>
        <time>2011-05-01T10:51:00Z</time>
      </trkpt>
      <trkpt lat="59.6207739785" lon="17.0428569987">
        <ele>4.8</ele>
        <time>2011-05-01T10:51:03Z</time>
      </trkpt>
      <trkpt lat="59.620959973" lon="17.0430539735">
        <ele>2.4</ele>
        <time>2011-05-01T10:51:06Z</time>
      </trkpt>
      <trkpt lat="59.6211319696" lon="17.0432339329">
        <ele>3.8</ele>
        <time>2011-05-01T10:51:09Z</time>
      </trkpt>
      <trkpt lat="59.621299943" lon="17.0434069354">
        <ele>3.8</ele>
        <time>2011-05-01T10:51:12Z</time>
      </trkpt>
      <trkpt lat="59.6213559341" lon="17.0434629265">
        <ele>4.4</ele>
        <time>2011-05-01T10:51:13Z</time>
      </trkpt>
      <trkpt lat="59.6215219796" lon="17.0436279662">
        <ele>3</ele>
        <time>2011-05-01T10:51:16Z</time>
      </trkpt>
      <trkpt lat="59.6216839179" lon="17.0437859651">
        <ele>3.8</ele>
        <time>2011-05-01T10:51:19Z</time>
      </trkpt>
      <trkpt lat="59.6218419168" lon="17.0439359173">
        <ele>3.8</ele>
        <time>2011-05-01T10:51:22Z</time>
      </trkpt>
      <trkpt lat="59.6219999995" lon="17.0440849476">
        <ele>4.4</ele>
        <time>2011-05-01T10:51:25Z</time>
      </trkpt>
      <trkpt lat="59.622160932" lon="17.0442339778">
        <ele>5.4</ele>
        <time>2011-05-01T10:51:28Z</time>
      </trkpt>
      <trkpt lat="59.6223239601" lon="17.0443819184">
        <ele>5.4</ele>
        <time>2011-05-01T10:51:31Z</time>
      </trkpt>
      <trkpt lat="59.6224879939" lon="17.0445269253">
        <ele>5.8</ele>
        <time>2011-05-01T10:51:34Z</time>
      </trkpt>
      <trkpt lat="59.6226559673" lon="17.0446619578">
        <ele>4.8</ele>
        <time>2011-05-01T10:51:37Z</time>
      </trkpt>
      <trkpt lat="59.6228269581" lon="17.0448059589">
        <ele>4.8</ele>
        <time>2011-05-01T10:51:40Z</time>
      </trkpt>
      <trkpt lat="59.6230019722" lon="17.0449409913">
        <ele>4.8</ele>
        <time>2011-05-01T10:51:43Z</time>
      </trkpt>
      <trkpt lat="59.6231779922" lon="17.0450779516">
        <ele>4.8</ele>
        <time>2011-05-01T10:51:46Z</time>
      </trkpt>
      <trkpt lat="59.6233519167" lon="17.0452099666">
        <ele>4.8</ele>
        <time>2011-05-01T10:51:49Z</time>
      </trkpt>
      <trkpt lat="59.6235269308" lon="17.0453359466">
        <ele>5.4</ele>
        <time>2011-05-01T10:51:52Z</time>
      </trkpt>
      <trkpt lat="59.6237059683" lon="17.0454619266">
        <ele>5.8</ele>
        <time>2011-05-01T10:51:55Z</time>
      </trkpt>
      <trkpt lat="59.6238849219" lon="17.0455849729">
        <ele>5.4</ele>
        <time>2011-05-01T10:51:58Z</time>
      </trkpt>
      <trkpt lat="59.6240689885" lon="17.0457059238">
        <ele>5.8</ele>
        <time>2011-05-01T10:52:01Z</time>
      </trkpt>
      <trkpt lat="59.6242589224" lon="17.045829976">
        <ele>6.2</ele>
        <time>2011-05-01T10:52:04Z</time>
      </trkpt>
      <trkpt lat="59.6244509518" lon="17.0459469873">
        <ele>5.8</ele>
        <time>2011-05-01T10:52:07Z</time>
      </trkpt>
      <trkpt lat="59.624643987" lon="17.0460579637">
        <ele>6.8</ele>
        <time>2011-05-01T10:52:10Z</time>
      </trkpt>
      <trkpt lat="59.6248359326" lon="17.0461689401">
        <ele>6.8</ele>
        <time>2011-05-01T10:52:13Z</time>
      </trkpt>
      <trkpt lat="59.6250299737" lon="17.0462719537">
        <ele>7.2</ele>
        <time>2011-05-01T10:52:16Z</time>
      </trkpt>
      <trkpt lat="59.6252309717" lon="17.0463699382">
        <ele>6.2</ele>
        <time>2011-05-01T10:52:19Z</time>
      </trkpt>
      <trkpt lat="59.6254339814" lon="17.0464699343">
        <ele>6.8</ele>
        <time>2011-05-01T10:52:22Z</time>
      </trkpt>
      <trkpt lat="59.6256439481" lon="17.0465689246">
        <ele>6.2</ele>
        <time>2011-05-01T10:52:25Z</time>
      </trkpt>
      <trkpt lat="59.6258569323" lon="17.0466649812">
        <ele>8.6</ele>
        <time>2011-05-01T10:52:28Z</time>
      </trkpt>
      <trkpt lat="59.6260689944" lon="17.0467499737">
        <ele>7.2</ele>
        <time>2011-05-01T10:52:31Z</time>
      </trkpt>
      <trkpt lat="59.6261399891" lon="17.0467759576">
        <ele>7.2</ele>
        <time>2011-05-01T10:52:32Z</time>
      </trkpt>
      <trkpt lat="59.6263519675" lon="17.0468609501">
        <ele>7.2</ele>
        <time>2011-05-01T10:52:35Z</time>
      </trkpt>
      <trkpt lat="59.6265599225" lon="17.0469389856">
        <ele>7.8</ele>
        <time>2011-05-01T10:52:38Z</time>
      </trkpt>
      <trkpt lat="59.6267659497" lon="17.0470149256">
        <ele>6.8</ele>
        <time>2011-05-01T10:52:41Z</time>
      </trkpt>
      <trkpt lat="59.6269679535" lon="17.047087932">
        <ele>5.8</ele>
        <time>2011-05-01T10:52:44Z</time>
      </trkpt>
      <trkpt lat="59.6271669399" lon="17.0471699908">
        <ele>5.4</ele>
        <time>2011-05-01T10:52:47Z</time>
      </trkpt>
      <trkpt lat="59.6273669321" lon="17.0472479425">
        <ele>5.8</ele>
        <time>2011-05-01T10:52:50Z</time>
      </trkpt>
      <trkpt lat="59.6275609732" lon="17.0473239664">
        <ele>6.2</ele>
        <time>2011-05-01T10:52:53Z</time>
      </trkpt>
      <trkpt lat="59.6277519967" lon="17.0473949611">
        <ele>5.8</ele>
        <time>2011-05-01T10:52:56Z</time>
      </trkpt>
      <trkpt lat="59.6279429365" lon="17.04746495">
        <ele>5.8</ele>
        <time>2011-05-01T10:52:59Z</time>
      </trkpt>
      <trkpt lat="59.6281369776" lon="17.0475359447">
        <ele>6.2</ele>
        <time>2011-05-01T10:53:02Z</time>
      </trkpt>
      <trkpt lat="59.6283329464" lon="17.0476099569">
        <ele>5.4</ele>
        <time>2011-05-01T10:53:05Z</time>
      </trkpt>
      <trkpt lat="59.6285299212" lon="17.0476799458">
        <ele>5.8</ele>
        <time>2011-05-01T10:53:08Z</time>
      </trkpt>
      <trkpt lat="59.6287269797" lon="17.047753958">
        <ele>6.2</ele>
        <time>2011-05-01T10:53:11Z</time>
      </trkpt>
      <trkpt lat="59.6289229486" lon="17.0478279702">
        <ele>5.8</ele>
        <time>2011-05-01T10:53:14Z</time>
      </trkpt>
      <trkpt lat="59.6291209292" lon="17.0479049999">
        <ele>6.8</ele>
        <time>2011-05-01T10:53:17Z</time>
      </trkpt>
      <trkpt lat="59.6293259505" lon="17.0479819458">
        <ele>7.2</ele>
        <time>2011-05-01T10:53:20Z</time>
      </trkpt>
      <trkpt lat="59.6295319777" lon="17.0480579697">
        <ele>5.8</ele>
        <time>2011-05-01T10:53:23Z</time>
      </trkpt>
      <trkpt lat="59.6297339816" lon="17.0481429622">
        <ele>5.8</ele>
        <time>2011-05-01T10:53:26Z</time>
      </trkpt>
      <trkpt lat="59.6299359854" lon="17.0482309721">
        <ele>6.2</ele>
        <time>2011-05-01T10:53:29Z</time>
      </trkpt>
      <trkpt lat="59.6301399171" lon="17.0483249333">
        <ele>4.8</ele>
        <time>2011-05-01T10:53:32Z</time>
      </trkpt>
      <trkpt lat="59.6302079782" lon="17.048357958">
        <ele>4.8</ele>
        <time>2011-05-01T10:53:33Z</time>
      </trkpt>
      <trkpt lat="59.6304099821" lon="17.0484609716">
        <ele>5.4</ele>
        <time>2011-05-01T10:53:36Z</time>
      </trkpt>
      <trkpt lat="59.6306139976" lon="17.0485659968">
        <ele>5.4</ele>
        <time>2011-05-01T10:53:39Z</time>
      </trkpt>
      <trkpt lat="59.6308149956" lon="17.0486749616">
        <ele>5.4</ele>
        <time>2011-05-01T10:53:42Z</time>
      </trkpt>
      <trkpt lat="59.6309469268" lon="17.0487509854">
        <ele>6.8</ele>
        <time>2011-05-01T10:53:44Z</time>
      </trkpt>
      <trkpt lat="59.6311519481" lon="17.0488739479">
        <ele>6.2</ele>
        <time>2011-05-01T10:53:47Z</time>
      </trkpt>
      <trkpt lat="59.6313589811" lon="17.0490039513">
        <ele>5.4</ele>
        <time>2011-05-01T10:53:50Z</time>
      </trkpt>
      <trkpt lat="59.6315619908" lon="17.0491319429">
        <ele>5.8</ele>
        <time>2011-05-01T10:53:53Z</time>
      </trkpt>
      <trkpt lat="59.6317639947" lon="17.0492639579">
        <ele>5.8</ele>
        <time>2011-05-01T10:53:56Z</time>
      </trkpt>
      <trkpt lat="59.6318989433" lon="17.0493489504">
        <ele>6.2</ele>
        <time>2011-05-01T10:53:58Z</time>
      </trkpt>
      <trkpt lat="59.6321029589" lon="17.0494799595">
        <ele>5.4</ele>
        <time>2011-05-01T10:54:01Z</time>
      </trkpt>
      <trkpt lat="59.6323059686" lon="17.0496159978">
        <ele>6.8</ele>
        <time>2011-05-01T10:54:04Z</time>
      </trkpt>
      <trkpt lat="59.6325219702" lon="17.0497559756">
        <ele>5.8</ele>
        <time>2011-05-01T10:54:07Z</time>
      </trkpt>
      <trkpt lat="59.6327329427" lon="17.0498949476">
        <ele>5.8</ele>
        <time>2011-05-01T10:54:10Z</time>
      </trkpt>
      <trkpt lat="59.6329429932" lon="17.0500389487">
        <ele>6.8</ele>
        <time>2011-05-01T10:54:13Z</time>
      </trkpt>
      <trkpt lat="59.6331549715" lon="17.0501759928">
        <ele>6.2</ele>
        <time>2011-05-01T10:54:16Z</time>
      </trkpt>
      <trkpt lat="59.633371979" lon="17.0503239334">
        <ele>6.2</ele>
        <time>2011-05-01T10:54:19Z</time>
      </trkpt>
      <trkpt lat="59.6335849632" lon="17.0504659228">
        <ele>6.2</ele>
        <time>2011-05-01T10:54:22Z</time>
      </trkpt>
      <trkpt lat="59.6337959357" lon="17.0505989436">
        <ele>6.2</ele>
        <time>2011-05-01T10:54:25Z</time>
      </trkpt>
      <trkpt lat="59.6340079978" lon="17.0507399272">
        <ele>5.8</ele>
        <time>2011-05-01T10:54:28Z</time>
      </trkpt>
      <trkpt lat="59.6342199761" lon="17.0508879516">
        <ele>6.8</ele>
        <time>2011-05-01T10:54:31Z</time>
      </trkpt>
      <trkpt lat="59.6344309486" lon="17.0510219783">
        <ele>6.2</ele>
        <time>2011-05-01T10:54:34Z</time>
      </trkpt>
      <trkpt lat="59.6346389875" lon="17.0511489641">
        <ele>6.2</ele>
        <time>2011-05-01T10:54:37Z</time>
      </trkpt>
      <trkpt lat="59.6348449308" lon="17.0512539893">
        <ele>5.8</ele>
        <time>2011-05-01T10:54:40Z</time>
      </trkpt>
      <trkpt lat="59.635056993" lon="17.051306963">
        <ele>5.8</ele>
        <time>2011-05-01T10:54:43Z</time>
      </trkpt>
      <trkpt lat="59.6352749225" lon="17.0513179433">
        <ele>6.2</ele>
        <time>2011-05-01T10:54:46Z</time>
      </trkpt>
      <trkpt lat="59.6354899183" lon="17.0513049513">
        <ele>6.2</ele>
        <time>2011-05-01T10:54:49Z</time>
      </trkpt>
      <trkpt lat="59.6356879827" lon="17.0512829907">
        <ele>6.8</ele>
        <time>2011-05-01T10:54:52Z</time>
      </trkpt>
      <trkpt lat="59.6358729713" lon="17.0512739383">
        <ele>6.2</ele>
        <time>2011-05-01T10:54:55Z</time>
      </trkpt>
      <trkpt lat="59.6359929163" lon="17.0513159316">
        <ele>5.4</ele>
        <time>2011-05-01T10:54:57Z</time>
      </trkpt>
      <trkpt lat="59.6361429524" lon="17.051520953">
        <ele>5.4</ele>
        <time>2011-05-01T10:55:00Z</time>
      </trkpt>
      <trkpt lat="59.6363199782" lon="17.0518949535">
        <ele>5.4</ele>
        <time>2011-05-01T10:55:04Z</time>
      </trkpt>
      <trkpt lat="59.6364569385" lon="17.0522019826">
        <ele>7.2</ele>
        <time>2011-05-01T10:55:07Z</time>
      </trkpt>
      <trkpt lat="59.6365959942" lon="17.0525039826">
        <ele>7.2</ele>
        <time>2011-05-01T10:55:10Z</time>
      </trkpt>
      <trkpt lat="59.6367399953" lon="17.0528079942">
        <ele>7.8</ele>
        <time>2011-05-01T10:55:13Z</time>
      </trkpt>
      <trkpt lat="59.6368929651" lon="17.0531159453">
        <ele>6.2</ele>
        <time>2011-05-01T10:55:16Z</time>
      </trkpt>
      <trkpt lat="59.6370429173" lon="17.0534259919">
        <ele>7.2</ele>
        <time>2011-05-01T10:55:19Z</time>
      </trkpt>
      <trkpt lat="59.6371939592" lon="17.053733943">
        <ele>7.8</ele>
        <time>2011-05-01T10:55:22Z</time>
      </trkpt>
      <trkpt lat="59.6373499464" lon="17.0540379547">
        <ele>7.8</ele>
        <time>2011-05-01T10:55:25Z</time>
      </trkpt>
      <trkpt lat="59.6375049278" lon="17.0543479174">
        <ele>7.8</ele>
        <time>2011-05-01T10:55:28Z</time>
      </trkpt>
      <trkpt lat="59.6376659442" lon="17.0546499174">
        <ele>7.2</ele>
        <time>2011-05-01T10:55:31Z</time>
      </trkpt>
      <trkpt lat="59.6378159802" lon="17.054959964">
        <ele>7.8</ele>
        <time>2011-05-01T10:55:34Z</time>
      </trkpt>
      <trkpt lat="59.637955958" lon="17.0552849304">
        <ele>6.8</ele>
        <time>2011-05-01T10:55:37Z</time>
      </trkpt>
      <trkpt lat="59.6380789205" lon="17.0556349587">
        <ele>6.2</ele>
        <time>2011-05-01T10:55:40Z</time>
      </trkpt>
      <trkpt lat="59.6381919924" lon="17.0561679639">
        <ele>5.8</ele>
        <time>2011-05-01T10:55:44Z</time>
      </trkpt>
      <trkpt lat="59.6382359974" lon="17.056594938">
        <ele>5.4</ele>
        <time>2011-05-01T10:55:47Z</time>
      </trkpt>
      <trkpt lat="59.6382419486" lon="17.0570259355">
        <ele>6.2</ele>
        <time>2011-05-01T10:55:50Z</time>
      </trkpt>
      <trkpt lat="59.6382129472" lon="17.0574539993">
        <ele>5.8</ele>
        <time>2011-05-01T10:55:53Z</time>
      </trkpt>
      <trkpt lat="59.6381849516" lon="17.057738984">
        <ele>7.2</ele>
        <time>2011-05-01T10:55:55Z</time>
      </trkpt>
      <trkpt lat="59.6381399408" lon="17.0581759326">
        <ele>4.8</ele>
        <time>2011-05-01T10:55:58Z</time>
      </trkpt>
      <trkpt lat="59.6380919963" lon="17.0586019848">
        <ele>6.8</ele>
        <time>2011-05-01T10:56:01Z</time>
      </trkpt>
      <trkpt lat="59.638074981" lon="17.0587429684">
        <ele>6.2</ele>
        <time>2011-05-01T10:56:02Z</time>
      </trkpt>
      <trkpt lat="59.6380249411" lon="17.0591649972">
        <ele>4.8</ele>
        <time>2011-05-01T10:56:05Z</time>
      </trkpt>
      <trkpt lat="59.6379749849" lon="17.0595979225">
        <ele>6.8</ele>
        <time>2011-05-01T10:56:08Z</time>
      </trkpt>
      <trkpt lat="59.6379589755" lon="17.0597459469">
        <ele>6.2</ele>
        <time>2011-05-01T10:56:09Z</time>
      </trkpt>
      <trkpt lat="59.6379049961" lon="17.0602029283">
        <ele>4.4</ele>
        <time>2011-05-01T10:56:12Z</time>
      </trkpt>
      <trkpt lat="59.6378509328" lon="17.0606349315">
        <ele>3</ele>
        <time>2011-05-01T10:56:15Z</time>
      </trkpt>
      <trkpt lat="59.6377969533" lon="17.0610519312">
        <ele>4.4</ele>
        <time>2011-05-01T10:56:18Z</time>
      </trkpt>
      <trkpt lat="59.6377389506" lon="17.0614529215">
        <ele>4.8</ele>
        <time>2011-05-01T10:56:21Z</time>
      </trkpt>
      <trkpt lat="59.6376859769" lon="17.0618679933">
        <ele>5.4</ele>
        <time>2011-05-01T10:56:24Z</time>
      </trkpt>
      <trkpt lat="59.6376449894" lon="17.0622949675">
        <ele>6.2</ele>
        <time>2011-05-01T10:56:27Z</time>
      </trkpt>
      <trkpt lat="59.6376039181" lon="17.06271993">
        <ele>6.8</ele>
        <time>2011-05-01T10:56:30Z</time>
      </trkpt>
      <trkpt lat="59.6375569794" lon="17.0631579682">
        <ele>5.4</ele>
        <time>2011-05-01T10:56:33Z</time>
      </trkpt>
      <trkpt lat="59.6375069395" lon="17.063586954">
        <ele>4.4</ele>
        <time>2011-05-01T10:56:36Z</time>
      </trkpt>
      <trkpt lat="59.6374709811" lon="17.0640109945">
        <ele>4.4</ele>
        <time>2011-05-01T10:56:39Z</time>
      </trkpt>
      <trkpt lat="59.6374349389" lon="17.0643949695">
        <ele>5.4</ele>
        <time>2011-05-01T10:56:42Z</time>
      </trkpt>
      <trkpt lat="59.6373999864" lon="17.0647509489">
        <ele>4.8</ele>
        <time>2011-05-01T10:56:45Z</time>
      </trkpt>
      <trkpt lat="59.6374359448" lon="17.0651759952">
        <ele>4.8</ele>
        <time>2011-05-01T10:56:49Z</time>
      </trkpt>
      <trkpt lat="59.6374619287" lon="17.0652619936">
        <ele>4.4</ele>
        <time>2011-05-01T10:56:50Z</time>
      </trkpt>
      <trkpt lat="59.6375649422" lon="17.0656279474">
        <ele>4.8</ele>
        <time>2011-05-01T10:56:55Z</time>
      </trkpt>
      <trkpt lat="59.637571983" lon="17.0659019519">
        <ele>4.4</ele>
        <time>2011-05-01T10:56:59Z</time>
      </trkpt>
      <trkpt lat="59.63757894" lon="17.0659599546">
        <ele>4.4</ele>
        <time>2011-05-01T10:57:00Z</time>
      </trkpt>
      <trkpt lat="59.6372509561" lon="17.0672569703">
        <ele>5.8</ele>
        <time>2011-05-01T11:47:27Z</time>
      </trkpt>
      <trkpt lat="59.6372469328" lon="17.067422932">
        <ele>5.8</ele>
        <time>2011-05-01T11:47:28Z</time>
      </trkpt>
      <trkpt lat="59.63723897" lon="17.0677859522">
        <ele>5.4</ele>
        <time>2011-05-01T11:47:32Z</time>
      </trkpt>
      <trkpt lat="59.6372279897" lon="17.0681429375">
        <ele>4.4</ele>
        <time>2011-05-01T11:47:36Z</time>
      </trkpt>
      <trkpt lat="59.6372239664" lon="17.0685129985">
        <ele>4.8</ele>
        <time>2011-05-01T11:47:40Z</time>
      </trkpt>
      <trkpt lat="59.6372199431" lon="17.0688909385">
        <ele>5.4</ele>
        <time>2011-05-01T11:47:44Z</time>
      </trkpt>
      <trkpt lat="59.6372109745" lon="17.069283966">
        <ele>4.4</ele>
        <time>2011-05-01T11:47:48Z</time>
      </trkpt>
      <trkpt lat="59.6371999942" lon="17.0695959404">
        <ele>4.8</ele>
        <time>2011-05-01T11:47:51Z</time>
      </trkpt>
      <trkpt lat="59.6371789556" lon="17.0699159615">
        <ele>4.4</ele>
        <time>2011-05-01T11:47:54Z</time>
      </trkpt>
      <trkpt lat="59.637163952" lon="17.0702389162">
        <ele>4.4</ele>
        <time>2011-05-01T11:47:57Z</time>
      </trkpt>
      <trkpt lat="59.6371499542" lon="17.0705649722">
        <ele>3.4</ele>
        <time>2011-05-01T11:48:00Z</time>
      </trkpt>
      <trkpt lat="59.6371459309" lon="17.0708989911">
        <ele>4.4</ele>
        <time>2011-05-01T11:48:03Z</time>
      </trkpt>
      <trkpt lat="59.6371389739" lon="17.0712179225">
        <ele>4.4</ele>
        <time>2011-05-01T11:48:06Z</time>
      </trkpt>
      <trkpt lat="59.6371149179" lon="17.0715489239">
        <ele>5.4</ele>
        <time>2011-05-01T11:48:09Z</time>
      </trkpt>
      <trkpt lat="59.637088934" lon="17.0718899835">
        <ele>4.4</ele>
        <time>2011-05-01T11:48:12Z</time>
      </trkpt>
      <trkpt lat="59.6370539814" lon="17.0722279418">
        <ele>4.4</ele>
        <time>2011-05-01T11:48:15Z</time>
      </trkpt>
      <trkpt lat="59.63702498" lon="17.0725589432">
        <ele>4.8</ele>
        <time>2011-05-01T11:48:18Z</time>
      </trkpt>
      <trkpt lat="59.6369969845" lon="17.0728649665">
        <ele>5.4</ele>
        <time>2011-05-01T11:48:21Z</time>
      </trkpt>
      <trkpt lat="59.6369689889" lon="17.073245924">
        <ele>5.4</ele>
        <time>2011-05-01T11:48:25Z</time>
      </trkpt>
      <trkpt lat="59.6369549911" lon="17.0735949464">
        <ele>5.8</ele>
        <time>2011-05-01T11:48:29Z</time>
      </trkpt>
      <trkpt lat="59.6369469445" lon="17.0736649353">
        <ele>5.8</ele>
        <time>2011-05-01T11:48:30Z</time>
      </trkpt>
      <trkpt lat="59.6369139198" lon="17.0738149714">
        <ele>5.4</ele>
        <time>2011-05-01T11:48:32Z</time>
      </trkpt>
      <trkpt lat="59.6369669773" lon="17.074238928">
        <ele>5.4</ele>
        <time>2011-05-01T11:48:37Z</time>
      </trkpt>
      <trkpt lat="59.6371469367" lon="17.0746169519">
        <ele>3.8</ele>
        <time>2011-05-01T11:48:42Z</time>
      </trkpt>
      <trkpt lat="59.6371989883" lon="17.0748029463">
        <ele>5.8</ele>
        <time>2011-05-01T11:48:44Z</time>
      </trkpt>
      <trkpt lat="59.6372619364" lon="17.0751899388">
        <ele>6.2</ele>
        <time>2011-05-01T11:48:48Z</time>
      </trkpt>
      <trkpt lat="59.6373359486" lon="17.0753169246">
        <ele>6.2</ele>
        <time>2011-05-01T11:48:50Z</time>
      </trkpt>
      <trkpt lat="59.6375739947" lon="17.0755619276">
        <ele>6.2</ele>
        <time>2011-05-01T11:48:55Z</time>
      </trkpt>
      <trkpt lat="59.6377029922" lon="17.0757589862">
        <ele>6.8</ele>
        <time>2011-05-01T11:48:58Z</time>
      </trkpt>
      <trkpt lat="59.6378489211" lon="17.0760419592">
        <ele>6.8</ele>
        <time>2011-05-01T11:49:02Z</time>
      </trkpt>
      <trkpt lat="59.6382099297" lon="17.0766839292">
        <ele>6.2</ele>
        <time>2011-05-01T11:49:11Z</time>
      </trkpt>
      <trkpt lat="59.6383309644" lon="17.0768819936">
        <ele>7.8</ele>
        <time>2011-05-01T11:49:14Z</time>
      </trkpt>
      <trkpt lat="59.6384579502" lon="17.0770769566">
        <ele>8.2</ele>
        <time>2011-05-01T11:49:17Z</time>
      </trkpt>
      <trkpt lat="59.6385829244" lon="17.0772829838">
        <ele>9.2</ele>
        <time>2011-05-01T11:49:20Z</time>
      </trkpt>
      <trkpt lat="59.6387069765" lon="17.077476941">
        <ele>7.8</ele>
        <time>2011-05-01T11:49:23Z</time>
      </trkpt>
      <trkpt lat="59.6388419252" lon="17.0776739996">
        <ele>8.6</ele>
        <time>2011-05-01T11:49:27Z</time>
      </trkpt>
      <trkpt lat="59.6389939729" lon="17.0778619219">
        <ele>9.6</ele>
        <time>2011-05-01T11:49:31Z</time>
      </trkpt>
      <trkpt lat="59.6391659696" lon="17.0780579746">
        <ele>9.6</ele>
        <time>2011-05-01T11:49:35Z</time>
      </trkpt>
      <trkpt lat="59.6393009182" lon="17.0782189909">
        <ele>10.2</ele>
        <time>2011-05-01T11:49:38Z</time>
      </trkpt>
      <trkpt lat="59.6394319274" lon="17.078382941">
        <ele>10.2</ele>
        <time>2011-05-01T11:49:41Z</time>
      </trkpt>
      <trkpt lat="59.639603924" lon="17.078596931">
        <ele>11</ele>
        <time>2011-05-01T11:49:45Z</time>
      </trkpt>
      <trkpt lat="59.639735939" lon="17.078759959">
        <ele>11</ele>
        <time>2011-05-01T11:49:48Z</time>
      </trkpt>
      <trkpt lat="59.6398659423" lon="17.0789199695">
        <ele>10.6</ele>
        <time>2011-05-01T11:49:51Z</time>
      </trkpt>
      <trkpt lat="59.6400349215" lon="17.0791209675">
        <ele>12</ele>
        <time>2011-05-01T11:49:55Z</time>
      </trkpt>
      <trkpt lat="59.6400759928" lon="17.0791719295">
        <ele>12</ele>
        <time>2011-05-01T11:49:56Z</time>
      </trkpt>
      <trkpt lat="59.640238937" lon="17.0793779567">
        <ele>13</ele>
        <time>2011-05-01T11:50:00Z</time>
      </trkpt>
      <trkpt lat="59.640408922" lon="17.0795629453">
        <ele>12.6</ele>
        <time>2011-05-01T11:50:04Z</time>
      </trkpt>
      <trkpt lat="59.6405879594" lon="17.079714993">
        <ele>14</ele>
        <time>2011-05-01T11:50:08Z</time>
      </trkpt>
      <trkpt lat="59.6407659911" lon="17.0798659511">
        <ele>14.4</ele>
        <time>2011-05-01T11:50:12Z</time>
      </trkpt>
      <trkpt lat="59.6409379877" lon="17.0800209325">
        <ele>14.4</ele>
        <time>2011-05-01T11:50:16Z</time>
      </trkpt>
      <trkpt lat="59.6411109902" lon="17.0801729802">
        <ele>15.4</ele>
        <time>2011-05-01T11:50:20Z</time>
      </trkpt>
      <trkpt lat="59.6412799694" lon="17.0803279616">
        <ele>15.8</ele>
        <time>2011-05-01T11:50:24Z</time>
      </trkpt>
      <trkpt lat="59.6414489485" lon="17.080482943">
        <ele>16.8</ele>
        <time>2011-05-01T11:50:28Z</time>
      </trkpt>
      <trkpt lat="59.6416189335" lon="17.0806329791">
        <ele>18.4</ele>
        <time>2011-05-01T11:50:32Z</time>
      </trkpt>
      <trkpt lat="59.6417909302" lon="17.080771951">
        <ele>18.8</ele>
        <time>2011-05-01T11:50:36Z</time>
      </trkpt>
      <trkpt lat="59.6419689618" lon="17.0808899682">
        <ele>18.8</ele>
        <time>2011-05-01T11:50:40Z</time>
      </trkpt>
      <trkpt lat="59.642161997" lon="17.0810139365">
        <ele>19.8</ele>
        <time>2011-05-01T11:50:44Z</time>
      </trkpt>
      <trkpt lat="59.6423429623" lon="17.0811319537">
        <ele>19.8</ele>
        <time>2011-05-01T11:50:48Z</time>
      </trkpt>
      <trkpt lat="59.6425249334" lon="17.0812509768">
        <ele>20.2</ele>
        <time>2011-05-01T11:50:52Z</time>
      </trkpt>
      <trkpt lat="59.642709922" lon="17.0813619532">
        <ele>20.2</ele>
        <time>2011-05-01T11:50:56Z</time>
      </trkpt>
      <trkpt lat="59.6428019553" lon="17.0814179443">
        <ele>21.2</ele>
        <time>2011-05-01T11:50:58Z</time>
      </trkpt>
      <trkpt lat="59.6429869439" lon="17.081532944">
        <ele>21.2</ele>
        <time>2011-05-01T11:51:02Z</time>
      </trkpt>
      <trkpt lat="59.6431739442" lon="17.0816579182">
        <ele>22.6</ele>
        <time>2011-05-01T11:51:06Z</time>
      </trkpt>
      <trkpt lat="59.6433189511" lon="17.0817449223">
        <ele>22.2</ele>
        <time>2011-05-01T11:51:09Z</time>
      </trkpt>
      <trkpt lat="59.6434639581" lon="17.0818369556">
        <ele>23.2</ele>
        <time>2011-05-01T11:51:12Z</time>
      </trkpt>
      <trkpt lat="59.6436129883" lon="17.0819279831">
        <ele>23.6</ele>
        <time>2011-05-01T11:51:15Z</time>
      </trkpt>
      <trkpt lat="59.643765958" lon="17.0820209384">
        <ele>23.6</ele>
        <time>2011-05-01T11:51:18Z</time>
      </trkpt>
      <trkpt lat="59.6439189278" lon="17.0821149834">
        <ele>24</ele>
        <time>2011-05-01T11:51:21Z</time>
      </trkpt>
      <trkpt lat="59.644073993" lon="17.0822129678">
        <ele>24</ele>
        <time>2011-05-01T11:51:24Z</time>
      </trkpt>
      <trkpt lat="59.644230986" lon="17.0823189989">
        <ele>22.6</ele>
        <time>2011-05-01T11:51:27Z</time>
      </trkpt>
      <trkpt lat="59.6443449799" lon="17.0822899975">
        <ele>23.6</ele>
        <time>2011-05-01T11:51:30Z</time>
      </trkpt>
      <trkpt lat="59.6444689482" lon="17.0824659336">
        <ele>24</ele>
        <time>2011-05-01T11:51:33Z</time>
      </trkpt>
      <trkpt lat="59.6445579641" lon="17.0827909838">
        <ele>23.6</ele>
        <time>2011-05-01T11:51:37Z</time>
      </trkpt>
      <trkpt lat="59.6446099319" lon="17.0832519885">
        <ele>25</ele>
        <time>2011-05-01T11:51:42Z</time>
      </trkpt>
      <trkpt lat="59.6446329821" lon="17.0834359713">
        <ele>26</ele>
        <time>2011-05-01T11:51:44Z</time>
      </trkpt>
      <trkpt lat="59.6446569543" lon="17.0837199502">
        <ele>25.6</ele>
        <time>2011-05-01T11:51:47Z</time>
      </trkpt>
      <trkpt lat="59.6446549427" lon="17.0841169171">
        <ele>27</ele>
        <time>2011-05-01T11:51:51Z</time>
      </trkpt>
      <trkpt lat="59.6446329821" lon="17.0844259579">
        <ele>26.4</ele>
        <time>2011-05-01T11:51:54Z</time>
      </trkpt>
      <trkpt lat="59.6446049865" lon="17.0846379362">
        <ele>26</ele>
        <time>2011-05-01T11:51:56Z</time>
      </trkpt>
      <trkpt lat="59.6445209999" lon="17.0850639883">
        <ele>26.4</ele>
        <time>2011-05-01T11:52:00Z</time>
      </trkpt>
      <trkpt lat="59.6444619913" lon="17.0853919722">
        <ele>27</ele>
        <time>2011-05-01T11:52:03Z</time>
      </trkpt>
      <trkpt lat="59.644400971" lon="17.0857219677">
        <ele>26.4</ele>
        <time>2011-05-01T11:52:06Z</time>
      </trkpt>
      <trkpt lat="59.6443399508" lon="17.0860519633">
        <ele>27</ele>
        <time>2011-05-01T11:52:09Z</time>
      </trkpt>
      <trkpt lat="59.6442609932" lon="17.086373996">
        <ele>28.4</ele>
        <time>2011-05-01T11:52:12Z</time>
      </trkpt>
      <trkpt lat="59.6441639308" lon="17.0866779238">
        <ele>27</ele>
        <time>2011-05-01T11:52:15Z</time>
      </trkpt>
      <trkpt lat="59.6440259647" lon="17.0870439615">
        <ele>26.4</ele>
        <time>2011-05-01T11:52:19Z</time>
      </trkpt>
      <trkpt lat="59.6439149883" lon="17.0872999448">
        <ele>28.4</ele>
        <time>2011-05-01T11:52:22Z</time>
      </trkpt>
      <trkpt lat="59.6438389644" lon="17.0874629728">
        <ele>28.4</ele>
        <time>2011-05-01T11:52:24Z</time>
      </trkpt>
      <trkpt lat="59.6437189355" lon="17.0878569223">
        <ele>28.4</ele>
        <time>2011-05-01T11:52:28Z</time>
      </trkpt>
      <trkpt lat="59.6436279919" lon="17.0881579164">
        <ele>28.4</ele>
        <time>2011-05-01T11:52:31Z</time>
      </trkpt>
      <trkpt lat="59.6435299236" lon="17.0884599164">
        <ele>28.4</ele>
        <time>2011-05-01T11:52:34Z</time>
      </trkpt>
      <trkpt lat="59.6434369683" lon="17.0887779258">
        <ele>28</ele>
        <time>2011-05-01T11:52:37Z</time>
      </trkpt>
      <trkpt lat="59.6433539875" lon="17.0891199913">
        <ele>27</ele>
        <time>2011-05-01T11:52:40Z</time>
      </trkpt>
      <trkpt lat="59.6432869323" lon="17.0894779824">
        <ele>27</ele>
        <time>2011-05-01T11:52:43Z</time>
      </trkpt>
      <trkpt lat="59.6432209667" lon="17.0898279268">
        <ele>26</ele>
        <time>2011-05-01T11:52:46Z</time>
      </trkpt>
      <trkpt lat="59.6431559231" lon="17.0901579224">
        <ele>26.4</ele>
        <time>2011-05-01T11:52:49Z</time>
      </trkpt>
      <trkpt lat="59.6430939808" lon="17.0904779434">
        <ele>27</ele>
        <time>2011-05-01T11:52:52Z</time>
      </trkpt>
      <trkpt lat="59.6430289373" lon="17.0908099506">
        <ele>26.4</ele>
        <time>2011-05-01T11:52:55Z</time>
      </trkpt>
      <trkpt lat="59.642966995" lon="17.0911549497">
        <ele>26</ele>
        <time>2011-05-01T11:52:58Z</time>
      </trkpt>
      <trkpt lat="59.6428969223" lon="17.0915309619">
        <ele>24.6</ele>
        <time>2011-05-01T11:53:01Z</time>
      </trkpt>
      <trkpt lat="59.6428139415" lon="17.0919399988">
        <ele>22.2</ele>
        <time>2011-05-01T11:53:04Z</time>
      </trkpt>
      <trkpt lat="59.642715957" lon="17.0923709963">
        <ele>20.2</ele>
        <time>2011-05-01T11:53:07Z</time>
      </trkpt>
      <trkpt lat="59.6425999515" lon="17.0927899238">
        <ele>18.4</ele>
        <time>2011-05-01T11:53:10Z</time>
      </trkpt>
      <trkpt lat="59.6425609756" lon="17.0929249562">
        <ele>18.4</ele>
        <time>2011-05-01T11:53:11Z</time>
      </trkpt>
      <trkpt lat="59.642432984" lon="17.0933259465">
        <ele>15.4</ele>
        <time>2011-05-01T11:53:14Z</time>
      </trkpt>
      <trkpt lat="59.642294934" lon="17.0937579498">
        <ele>13.4</ele>
        <time>2011-05-01T11:53:17Z</time>
      </trkpt>
      <trkpt lat="59.6421969496" lon="17.0940659847">
        <ele>12.6</ele>
        <time>2011-05-01T11:53:19Z</time>
      </trkpt>
      <trkpt lat="59.6420609951" lon="17.0945629478">
        <ele>9.6</ele>
        <time>2011-05-01T11:53:22Z</time>
      </trkpt>
      <trkpt lat="59.6419809479" lon="17.0949159935">
        <ele>8.2</ele>
        <time>2011-05-01T11:53:24Z</time>
      </trkpt>
      <trkpt lat="59.6418909263" lon="17.0954699535">
        <ele>8.6</ele>
        <time>2011-05-01T11:53:27Z</time>
      </trkpt>
      <trkpt lat="59.6418719832" lon="17.0956529304">
        <ele>9.6</ele>
        <time>2011-05-01T11:53:28Z</time>
      </trkpt>
      <trkpt lat="59.6418699715" lon="17.0963309426">
        <ele>10.6</ele>
        <time>2011-05-01T11:53:32Z</time>
      </trkpt>
      <trkpt lat="59.6419419721" lon="17.0967509598">
        <ele>11.6</ele>
        <time>2011-05-01T11:53:35Z</time>
      </trkpt>
      <trkpt lat="59.6419749968" lon="17.0968719944">
        <ele>11.6</ele>
        <time>2011-05-01T11:53:36Z</time>
      </trkpt>
      <trkpt lat="59.6421239432" lon="17.097290922">
        <ele>13</ele>
        <time>2011-05-01T11:53:40Z</time>
      </trkpt>
      <trkpt lat="59.6422299743" lon="17.0975699555">
        <ele>14.4</ele>
        <time>2011-05-01T11:53:43Z</time>
      </trkpt>
      <trkpt lat="59.6423359215" lon="17.0978389308">
        <ele>16.4</ele>
        <time>2011-05-01T11:53:46Z</time>
      </trkpt>
      <trkpt lat="59.6423689462" lon="17.0979289524">
        <ele>16.4</ele>
        <time>2011-05-01T11:53:47Z</time>
      </trkpt>
      <trkpt lat="59.6424669307" lon="17.0981869474">
        <ele>16.8</ele>
        <time>2011-05-01T11:53:50Z</time>
      </trkpt>
      <trkpt lat="59.6425599698" lon="17.0984399971">
        <ele>18.4</ele>
        <time>2011-05-01T11:53:53Z</time>
      </trkpt>
      <trkpt lat="59.6426559426" lon="17.0986939687">
        <ele>18.4</ele>
        <time>2011-05-01T11:53:56Z</time>
      </trkpt>
      <trkpt lat="59.6427469701" lon="17.0989389718">
        <ele>18.8</ele>
        <time>2011-05-01T11:53:59Z</time>
      </trkpt>
      <trkpt lat="59.6428619698" lon="17.0992479287">
        <ele>19.2</ele>
        <time>2011-05-01T11:54:03Z</time>
      </trkpt>
      <trkpt lat="59.6429339703" lon="17.0994699653">
        <ele>20.2</ele>
        <time>2011-05-01T11:54:06Z</time>
      </trkpt>
      <trkpt lat="59.6430399176" lon="17.0997449756">
        <ele>21.2</ele>
        <time>2011-05-01T11:54:10Z</time>
      </trkpt>
      <trkpt lat="59.6431689989" lon="17.1001399308">
        <ele>22.6</ele>
        <time>2011-05-01T11:54:15Z</time>
      </trkpt>
      <trkpt lat="59.6432679892" lon="17.1004419308">
        <ele>23.6</ele>
        <time>2011-05-01T11:54:19Z</time>
      </trkpt>
      <trkpt lat="59.6433639619" lon="17.1007219702">
        <ele>24.6</ele>
        <time>2011-05-01T11:54:23Z</time>
      </trkpt>
      <trkpt lat="59.6434529778" lon="17.1010009199">
        <ele>25.6</ele>
        <time>2011-05-01T11:54:27Z</time>
      </trkpt>
      <trkpt lat="59.6435489506" lon="17.1012729965">
        <ele>27</ele>
        <time>2011-05-01T11:54:31Z</time>
      </trkpt>
      <trkpt lat="59.6436369605" lon="17.1015369426">
        <ele>27.4</ele>
        <time>2011-05-01T11:54:35Z</time>
      </trkpt>
      <trkpt lat="59.643727988" lon="17.1017959435">
        <ele>27.4</ele>
        <time>2011-05-01T11:54:39Z</time>
      </trkpt>
      <trkpt lat="59.643815998" lon="17.1020529326">
        <ele>28.8</ele>
        <time>2011-05-01T11:54:43Z</time>
      </trkpt>
      <trkpt lat="59.6439069416" lon="17.1022999473">
        <ele>29.8</ele>
        <time>2011-05-01T11:54:47Z</time>
      </trkpt>
      <trkpt lat="59.6439949516" lon="17.1025609598">
        <ele>30.4</ele>
        <time>2011-05-01T11:54:51Z</time>
      </trkpt>
      <trkpt lat="59.6440859791" lon="17.1028259955">
        <ele>31.2</ele>
        <time>2011-05-01T11:54:55Z</time>
      </trkpt>
      <trkpt lat="59.6441739891" lon="17.1031039394">
        <ele>31.8</ele>
        <time>2011-05-01T11:54:59Z</time>
      </trkpt>
      <trkpt lat="59.6442719735" lon="17.1033839788">
        <ele>31.8</ele>
        <time>2011-05-01T11:55:03Z</time>
      </trkpt>
      <trkpt lat="59.6443219297" lon="17.1035279799">
        <ele>32.2</ele>
        <time>2011-05-01T11:55:05Z</time>
      </trkpt>
      <trkpt lat="59.6444549505" lon="17.1038939338">
        <ele>32.8</ele>
        <time>2011-05-01T11:55:10Z</time>
      </trkpt>
      <trkpt lat="59.6445599757" lon="17.1042149607">
        <ele>32.8</ele>
        <time>2011-05-01T11:55:14Z</time>
      </trkpt>
      <trkpt lat="59.6446629893" lon="17.1045469679">
        <ele>32.8</ele>
        <time>2011-05-01T11:55:18Z</time>
      </trkpt>
      <trkpt lat="59.6447609738" lon="17.1048869379">
        <ele>33.2</ele>
        <time>2011-05-01T11:55:22Z</time>
      </trkpt>
      <trkpt lat="59.6448569465" lon="17.1052369662">
        <ele>33.6</ele>
        <time>2011-05-01T11:55:26Z</time>
      </trkpt>
      <trkpt lat="59.6449289471" lon="17.1055089589">
        <ele>33.6</ele>
        <time>2011-05-01T11:55:29Z</time>
      </trkpt>
      <trkpt lat="59.6449929848" lon="17.1057859808">
        <ele>33.6</ele>
        <time>2011-05-01T11:55:32Z</time>
      </trkpt>
      <trkpt lat="59.6450529993" lon="17.106067948">
        <ele>34.6</ele>
        <time>2011-05-01T11:55:35Z</time>
      </trkpt>
      <trkpt lat="59.6451189648" lon="17.1063529328">
        <ele>35.2</ele>
        <time>2011-05-01T11:55:38Z</time>
      </trkpt>
      <trkpt lat="59.6451729443" lon="17.1066399291">
        <ele>35.6</ele>
        <time>2011-05-01T11:55:41Z</time>
      </trkpt>
      <trkpt lat="59.6452089865" lon="17.1068339702">
        <ele>36.6</ele>
        <time>2011-05-01T11:55:43Z</time>
      </trkpt>
      <trkpt lat="59.6452599484" lon="17.1071329527">
        <ele>36</ele>
        <time>2011-05-01T11:55:46Z</time>
      </trkpt>
      <trkpt lat="59.6452999301" lon="17.1074409876">
        <ele>36.6</ele>
        <time>2011-05-01T11:55:49Z</time>
      </trkpt>
      <trkpt lat="59.6453369781" lon="17.1077459212">
        <ele>36</ele>
        <time>2011-05-01T11:55:52Z</time>
      </trkpt>
      <trkpt lat="59.645369919" lon="17.1080519445">
        <ele>36.6</ele>
        <time>2011-05-01T11:55:55Z</time>
      </trkpt>
      <trkpt lat="59.6454049554" lon="17.1084649209">
        <ele>36</ele>
        <time>2011-05-01T11:55:59Z</time>
      </trkpt>
      <trkpt lat="59.6454289276" lon="17.108777985">
        <ele>36</ele>
        <time>2011-05-01T11:56:02Z</time>
      </trkpt>
      <trkpt lat="59.6454519778" lon="17.1090929769">
        <ele>37</ele>
        <time>2011-05-01T11:56:05Z</time>
      </trkpt>
      <trkpt lat="59.6454659756" lon="17.1094159316">
        <ele>37</ele>
        <time>2011-05-01T11:56:08Z</time>
      </trkpt>
      <trkpt lat="59.6454759501" lon="17.1097379643">
        <ele>38.4</ele>
        <time>2011-05-01T11:56:11Z</time>
      </trkpt>
      <trkpt lat="59.6454769559" lon="17.110066954">
        <ele>38.4</ele>
        <time>2011-05-01T11:56:14Z</time>
      </trkpt>
      <trkpt lat="59.6454729326" lon="17.1104079299">
        <ele>38.4</ele>
        <time>2011-05-01T11:56:17Z</time>
      </trkpt>
      <trkpt lat="59.6454689931" lon="17.1107499953">
        <ele>38.4</ele>
        <time>2011-05-01T11:56:20Z</time>
      </trkpt>
      <trkpt lat="59.645463964" lon="17.1110639814">
        <ele>39.4</ele>
        <time>2011-05-01T11:56:23Z</time>
      </trkpt>
      <trkpt lat="59.6454559173" lon="17.1113899536">
        <ele>39.4</ele>
        <time>2011-05-01T11:56:26Z</time>
      </trkpt>
      <trkpt lat="59.6454479545" lon="17.11172699">
        <ele>39.4</ele>
        <time>2011-05-01T11:56:29Z</time>
      </trkpt>
      <trkpt lat="59.6454379801" lon="17.1120659541">
        <ele>39.4</ele>
        <time>2011-05-01T11:56:32Z</time>
      </trkpt>
      <trkpt lat="59.6454339568" lon="17.11240693">
        <ele>39.4</ele>
        <time>2011-05-01T11:56:35Z</time>
      </trkpt>
      <trkpt lat="59.645419959" lon="17.1127549466">
        <ele>39.4</ele>
        <time>2011-05-01T11:56:38Z</time>
      </trkpt>
      <trkpt lat="59.645419959" lon="17.1131009515">
        <ele>39</ele>
        <time>2011-05-01T11:56:41Z</time>
      </trkpt>
      <trkpt lat="59.6454119962" lon="17.1134319529">
        <ele>38.4</ele>
        <time>2011-05-01T11:56:44Z</time>
      </trkpt>
      <trkpt lat="59.6454049554" lon="17.1137859207">
        <ele>38</ele>
        <time>2011-05-01T11:56:47Z</time>
      </trkpt>
      <trkpt lat="59.6453889459" lon="17.1141639445">
        <ele>36.6</ele>
        <time>2011-05-01T11:56:50Z</time>
      </trkpt>
      <trkpt lat="59.645381989" lon="17.1145579778">
        <ele>36.6</ele>
        <time>2011-05-01T11:56:53Z</time>
      </trkpt>
      <trkpt lat="59.6453709248" lon="17.1149539389">
        <ele>36</ele>
        <time>2011-05-01T11:56:56Z</time>
      </trkpt>
      <trkpt lat="59.6453589387" lon="17.1153459605">
        <ele>35.2</ele>
        <time>2011-05-01T11:56:59Z</time>
      </trkpt>
      <trkpt lat="59.6453539934" lon="17.1157429274">
        <ele>34.6</ele>
        <time>2011-05-01T11:57:02Z</time>
      </trkpt>
      <trkpt lat="59.6453549992" lon="17.1161619388">
        <ele>32.8</ele>
        <time>2011-05-01T11:57:05Z</time>
      </trkpt>
      <trkpt lat="59.6453579329" lon="17.1165639348">
        <ele>33.2</ele>
        <time>2011-05-01T11:57:08Z</time>
      </trkpt>
      <trkpt lat="59.645369919" lon="17.1169929206">
        <ele>31.8</ele>
        <time>2011-05-01T11:57:11Z</time>
      </trkpt>
      <trkpt lat="59.6453849226" lon="17.117442945">
        <ele>30.8</ele>
        <time>2011-05-01T11:57:14Z</time>
      </trkpt>
      <trkpt lat="59.6454019379" lon="17.117901938">
        <ele>30.8</ele>
        <time>2011-05-01T11:57:17Z</time>
      </trkpt>
      <trkpt lat="59.645419959" lon="17.118379958">
        <ele>29.8</ele>
        <time>2011-05-01T11:57:20Z</time>
      </trkpt>
      <trkpt lat="59.6454469487" lon="17.1188619174">
        <ele>29.8</ele>
        <time>2011-05-01T11:57:23Z</time>
      </trkpt>
      <trkpt lat="59.6454749443" lon="17.1193399373">
        <ele>28.8</ele>
        <time>2011-05-01T11:57:26Z</time>
      </trkpt>
      <trkpt lat="59.6455089748" lon="17.119806977">
        <ele>29.8</ele>
        <time>2011-05-01T11:57:29Z</time>
      </trkpt>
      <trkpt lat="59.6455499623" lon="17.1202649642">
        <ele>28</ele>
        <time>2011-05-01T11:57:32Z</time>
      </trkpt>
      <trkpt lat="59.6455969848" lon="17.1207219455">
        <ele>28.8</ele>
        <time>2011-05-01T11:57:35Z</time>
      </trkpt>
      <trkpt lat="59.6456479467" lon="17.121183956">
        <ele>29.4</ele>
        <time>2011-05-01T11:57:38Z</time>
      </trkpt>
      <trkpt lat="59.6456999984" lon="17.1216339804">
        <ele>28.8</ele>
        <time>2011-05-01T11:57:41Z</time>
      </trkpt>
      <trkpt lat="59.6457499545" lon="17.122082999">
        <ele>29.4</ele>
        <time>2011-05-01T11:57:44Z</time>
      </trkpt>
      <trkpt lat="59.6457979828" lon="17.1225339454">
        <ele>28.4</ele>
        <time>2011-05-01T11:57:47Z</time>
      </trkpt>
      <trkpt lat="59.6458449215" lon="17.1229669545">
        <ele>27</ele>
        <time>2011-05-01T11:57:50Z</time>
      </trkpt>
      <trkpt lat="59.6458919439" lon="17.1233809367">
        <ele>28.8</ele>
        <time>2011-05-01T11:57:53Z</time>
      </trkpt>
      <trkpt lat="59.6459399723" lon="17.1237979364">
        <ele>29.4</ele>
        <time>2011-05-01T11:57:56Z</time>
      </trkpt>
      <trkpt lat="59.6459919401" lon="17.1242229827">
        <ele>28</ele>
        <time>2011-05-01T11:57:59Z</time>
      </trkpt>
      <trkpt lat="59.6460449975" lon="17.1246339474">
        <ele>28</ele>
        <time>2011-05-01T11:58:02Z</time>
      </trkpt>
      <trkpt lat="59.6460979711" lon="17.1250339318">
        <ele>27</ele>
        <time>2011-05-01T11:58:05Z</time>
      </trkpt>
      <trkpt lat="59.6461529564" lon="17.1254299767">
        <ele>28</ele>
        <time>2011-05-01T11:58:08Z</time>
      </trkpt>
      <trkpt lat="59.6462079417" lon="17.1258119401">
        <ele>28</ele>
        <time>2011-05-01T11:58:11Z</time>
      </trkpt>
      <trkpt lat="59.6462609991" lon="17.1261789836">
        <ele>29.8</ele>
        <time>2011-05-01T11:58:14Z</time>
      </trkpt>
      <trkpt lat="59.6462769248" lon="17.1262999345">
        <ele>29.8</ele>
        <time>2011-05-01T11:58:15Z</time>
      </trkpt>
      <trkpt lat="59.6463249531" lon="17.126666978">
        <ele>29.8</ele>
        <time>2011-05-01T11:58:18Z</time>
      </trkpt>
      <trkpt lat="59.6463699639" lon="17.127044918">
        <ele>29.8</ele>
        <time>2011-05-01T11:58:21Z</time>
      </trkpt>
      <trkpt lat="59.646412963" lon="17.1274089441">
        <ele>29.4</ele>
        <time>2011-05-01T11:58:24Z</time>
      </trkpt>
      <trkpt lat="59.6464519389" lon="17.1277669352">
        <ele>29.4</ele>
        <time>2011-05-01T11:58:27Z</time>
      </trkpt>
      <trkpt lat="59.6464909986" lon="17.1281329729">
        <ele>28.4</ele>
        <time>2011-05-01T11:58:30Z</time>
      </trkpt>
      <trkpt lat="59.6465229336" lon="17.1285099909">
        <ele>27.4</ele>
        <time>2011-05-01T11:58:33Z</time>
      </trkpt>
      <trkpt lat="59.646544978" lon="17.1288939659">
        <ele>28</ele>
        <time>2011-05-01T11:58:36Z</time>
      </trkpt>
      <trkpt lat="59.6465619933" lon="17.129276935">
        <ele>28</ele>
        <time>2011-05-01T11:58:39Z</time>
      </trkpt>
      <trkpt lat="59.6465769969" lon="17.129659988">
        <ele>25.6</ele>
        <time>2011-05-01T11:58:42Z</time>
      </trkpt>
      <trkpt lat="59.6465809364" lon="17.1297809388">
        <ele>26</ele>
        <time>2011-05-01T11:58:43Z</time>
      </trkpt>
      <trkpt lat="59.6465839539" lon="17.130149994">
        <ele>28</ele>
        <time>2011-05-01T11:58:46Z</time>
      </trkpt>
      <trkpt lat="59.6465859655" lon="17.1305239946">
        <ele>27</ele>
        <time>2011-05-01T11:58:49Z</time>
      </trkpt>
      <trkpt lat="59.6465819422" lon="17.1308989171">
        <ele>28.4</ele>
        <time>2011-05-01T11:58:52Z</time>
      </trkpt>
      <trkpt lat="59.6465709619" lon="17.1312769409">
        <ele>28</ele>
        <time>2011-05-01T11:58:55Z</time>
      </trkpt>
      <trkpt lat="59.6465539467" lon="17.1316529531">
        <ele>26.4</ele>
        <time>2011-05-01T11:58:58Z</time>
      </trkpt>
      <trkpt lat="59.6465309802" lon="17.1320349164">
        <ele>28</ele>
        <time>2011-05-01T11:59:01Z</time>
      </trkpt>
      <trkpt lat="59.6464979555" lon="17.132426938">
        <ele>28.8</ele>
        <time>2011-05-01T11:59:04Z</time>
      </trkpt>
      <trkpt lat="59.646456968" lon="17.1328329574">
        <ele>28.8</ele>
        <time>2011-05-01T11:59:07Z</time>
      </trkpt>
      <trkpt lat="59.6464139689" lon="17.1332609374">
        <ele>28.8</ele>
        <time>2011-05-01T11:59:10Z</time>
      </trkpt>
      <trkpt lat="59.6463739872" lon="17.1336949524">
        <ele>28.4</ele>
        <time>2011-05-01T11:59:13Z</time>
      </trkpt>
      <trkpt lat="59.6463299822" lon="17.1341349185">
        <ele>28</ele>
        <time>2011-05-01T11:59:16Z</time>
      </trkpt>
      <trkpt lat="59.6462839656" lon="17.1345819253">
        <ele>28.4</ele>
        <time>2011-05-01T11:59:19Z</time>
      </trkpt>
      <trkpt lat="59.6462419722" lon="17.1350259986">
        <ele>28.4</ele>
        <time>2011-05-01T11:59:22Z</time>
      </trkpt>
      <trkpt lat="59.6461159922" lon="17.1362499241">
        <ele>28.8</ele>
        <time>2011-05-01T11:59:30Z</time>
      </trkpt>
      <trkpt lat="59.6460699756" lon="17.1367099229">
        <ele>28.4</ele>
        <time>2011-05-01T11:59:33Z</time>
      </trkpt>
      <trkpt lat="59.6460279822" lon="17.1371599473">
        <ele>27.4</ele>
        <time>2011-05-01T11:59:36Z</time>
      </trkpt>
      <trkpt lat="59.6459949575" lon="17.1376059484">
        <ele>28</ele>
        <time>2011-05-01T11:59:39Z</time>
      </trkpt>
      <trkpt lat="59.6459759306" lon="17.137903925">
        <ele>27</ele>
        <time>2011-05-01T11:59:41Z</time>
      </trkpt>
      <trkpt lat="59.6459559817" lon="17.1383489203">
        <ele>26</ele>
        <time>2011-05-01T11:59:44Z</time>
      </trkpt>
      <trkpt lat="59.6459479351" lon="17.1387859527">
        <ele>27.4</ele>
        <time>2011-05-01T11:59:47Z</time>
      </trkpt>
      <trkpt lat="59.6459489409" lon="17.139211921">
        <ele>27.4</ele>
        <time>2011-05-01T11:59:50Z</time>
      </trkpt>
      <trkpt lat="59.645960927" lon="17.1396239754">
        <ele>28</ele>
        <time>2011-05-01T11:59:53Z</time>
      </trkpt>
      <trkpt lat="59.6459749248" lon="17.1398879215">
        <ele>28.8</ele>
        <time>2011-05-01T11:59:55Z</time>
      </trkpt>
      <trkpt lat="59.6459969692" lon="17.1402579825">
        <ele>27.4</ele>
        <time>2011-05-01T11:59:58Z</time>
      </trkpt>
      <trkpt lat="59.6460299939" lon="17.1406229306">
        <ele>28</ele>
        <time>2011-05-01T12:00:01Z</time>
      </trkpt>
      <trkpt lat="59.6460719872" lon="17.1409709472">
        <ele>28.8</ele>
        <time>2011-05-01T12:00:04Z</time>
      </trkpt>
      <trkpt lat="59.6460869908" lon="17.1410859469">
        <ele>28.4</ele>
        <time>2011-05-01T12:00:05Z</time>
      </trkpt>
      <trkpt lat="59.6461359411" lon="17.1414229833">
        <ele>28.8</ele>
        <time>2011-05-01T12:00:08Z</time>
      </trkpt>
      <trkpt lat="59.6461949497" lon="17.1417359635">
        <ele>29.4</ele>
        <time>2011-05-01T12:00:11Z</time>
      </trkpt>
      <trkpt lat="59.64625597" lon="17.1420519613">
        <ele>29.8</ele>
        <time>2011-05-01T12:00:14Z</time>
      </trkpt>
      <trkpt lat="59.6463189181" lon="17.1423599962">
        <ele>32.2</ele>
        <time>2011-05-01T12:00:17Z</time>
      </trkpt>
      <trkpt lat="59.6463859733" lon="17.142663924">
        <ele>33.2</ele>
        <time>2011-05-01T12:00:20Z</time>
      </trkpt>
      <trkpt lat="59.6464099456" lon="17.1427639201">
        <ele>33.2</ele>
        <time>2011-05-01T12:00:21Z</time>
      </trkpt>
      <trkpt lat="59.6464849636" lon="17.1430609748">
        <ele>33.6</ele>
        <time>2011-05-01T12:00:24Z</time>
      </trkpt>
      <trkpt lat="59.6465669386" lon="17.1433439478">
        <ele>34.2</ele>
        <time>2011-05-01T12:00:27Z</time>
      </trkpt>
      <trkpt lat="59.6466529369" lon="17.1436209697">
        <ele>34.6</ele>
        <time>2011-05-01T12:00:30Z</time>
      </trkpt>
      <trkpt lat="59.6467459761" lon="17.1438999195">
        <ele>34.2</ele>
        <time>2011-05-01T12:00:33Z</time>
      </trkpt>
      <trkpt lat="59.6468459722" lon="17.1441769414">
        <ele>35.2</ele>
        <time>2011-05-01T12:00:36Z</time>
      </trkpt>
      <trkpt lat="59.6469509974" lon="17.1444449946">
        <ele>35.2</ele>
        <time>2011-05-01T12:00:39Z</time>
      </trkpt>
      <trkpt lat="59.6470629796" lon="17.144700978">
        <ele>36</ele>
        <time>2011-05-01T12:00:42Z</time>
      </trkpt>
      <trkpt lat="59.6471829247" lon="17.1449569613">
        <ele>36.6</ele>
        <time>2011-05-01T12:00:45Z</time>
      </trkpt>
      <trkpt lat="59.6473139338" lon="17.1452229191">
        <ele>37</ele>
        <time>2011-05-01T12:00:48Z</time>
      </trkpt>
      <trkpt lat="59.6474589407" lon="17.1454779804">
        <ele>37</ele>
        <time>2011-05-01T12:00:51Z</time>
      </trkpt>
      <trkpt lat="59.647601936" lon="17.1457289346">
        <ele>37</ele>
        <time>2011-05-01T12:00:54Z</time>
      </trkpt>
      <trkpt lat="59.6477509663" lon="17.1459649689">
        <ele>37.6</ele>
        <time>2011-05-01T12:00:57Z</time>
      </trkpt>
      <trkpt lat="59.6478989907" lon="17.1462069545">
        <ele>37</ele>
        <time>2011-05-01T12:01:00Z</time>
      </trkpt>
      <trkpt lat="59.6480519604" lon="17.1464659553">
        <ele>36.6</ele>
        <time>2011-05-01T12:01:03Z</time>
      </trkpt>
      <trkpt lat="59.6482079476" lon="17.1467319969">
        <ele>35.2</ele>
        <time>2011-05-01T12:01:06Z</time>
      </trkpt>
      <trkpt lat="59.6483579837" lon="17.1470119525">
        <ele>35.2</ele>
        <time>2011-05-01T12:01:09Z</time>
      </trkpt>
      <trkpt lat="59.6485109534" lon="17.1473229211">
        <ele>35.2</ele>
        <time>2011-05-01T12:01:12Z</time>
      </trkpt>
      <trkpt lat="59.6486699581" lon="17.147668926">
        <ele>33.6</ele>
        <time>2011-05-01T12:01:15Z</time>
      </trkpt>
      <trkpt lat="59.6488209162" lon="17.1480349638">
        <ele>31.8</ele>
        <time>2011-05-01T12:01:18Z</time>
      </trkpt>
      <trkpt lat="59.6488679387" lon="17.1481599379">
        <ele>31.8</ele>
        <time>2011-05-01T12:01:19Z</time>
      </trkpt>
      <trkpt lat="59.6489999536" lon="17.1485429909">
        <ele>31.2</ele>
        <time>2011-05-01T12:01:22Z</time>
      </trkpt>
      <trkpt lat="59.6491209883" lon="17.1489439812">
        <ele>29.8</ele>
        <time>2011-05-01T12:01:25Z</time>
      </trkpt>
      <trkpt lat="59.6492329706" lon="17.1493719611">
        <ele>30.8</ele>
        <time>2011-05-01T12:01:28Z</time>
      </trkpt>
      <trkpt lat="59.6493409295" lon="17.1498339716">
        <ele>30.8</ele>
        <time>2011-05-01T12:01:31Z</time>
      </trkpt>
      <trkpt lat="59.6494339686" lon="17.1502939705">
        <ele>29.8</ele>
        <time>2011-05-01T12:01:34Z</time>
      </trkpt>
      <trkpt lat="59.6495089866" lon="17.1507579926">
        <ele>28.8</ele>
        <time>2011-05-01T12:01:37Z</time>
      </trkpt>
      <trkpt lat="59.649531953" lon="17.1509109624">
        <ele>28.8</ele>
        <time>2011-05-01T12:01:38Z</time>
      </trkpt>
      <trkpt lat="59.6495929733" lon="17.151371967">
        <ele>30.4</ele>
        <time>2011-05-01T12:01:41Z</time>
      </trkpt>
      <trkpt lat="59.6496509761" lon="17.1518349834">
        <ele>30.4</ele>
        <time>2011-05-01T12:01:44Z</time>
      </trkpt>
      <trkpt lat="59.6497039497" lon="17.1522889473">
        <ele>29.8</ele>
        <time>2011-05-01T12:01:47Z</time>
      </trkpt>
      <trkpt lat="59.6497419197" lon="17.1525889356">
        <ele>31.2</ele>
        <time>2011-05-01T12:01:49Z</time>
      </trkpt>
      <trkpt lat="59.6497929655" lon="17.1530279797">
        <ele>29.8</ele>
        <time>2011-05-01T12:01:52Z</time>
      </trkpt>
      <trkpt lat="59.6498459391" lon="17.1534589771">
        <ele>31.2</ele>
        <time>2011-05-01T12:01:55Z</time>
      </trkpt>
      <trkpt lat="59.6498969849" lon="17.153905984">
        <ele>31.8</ele>
        <time>2011-05-01T12:01:58Z</time>
      </trkpt>
      <trkpt lat="59.6499519702" lon="17.1543639712">
        <ele>31.2</ele>
        <time>2011-05-01T12:02:01Z</time>
      </trkpt>
      <trkpt lat="59.6500009205" lon="17.1548129898">
        <ele>30.8</ele>
        <time>2011-05-01T12:02:04Z</time>
      </trkpt>
      <trkpt lat="59.650053978" lon="17.1552479267">
        <ele>30.4</ele>
        <time>2011-05-01T12:02:07Z</time>
      </trkpt>
      <trkpt lat="59.6501069516" lon="17.1556699555">
        <ele>30.8</ele>
        <time>2011-05-01T12:02:10Z</time>
      </trkpt>
      <trkpt lat="59.6501589194" lon="17.1560929902">
        <ele>30.8</ele>
        <time>2011-05-01T12:02:13Z</time>
      </trkpt>
      <trkpt lat="59.6502139885" lon="17.1565189585">
        <ele>30.8</ele>
        <time>2011-05-01T12:02:16Z</time>
      </trkpt>
      <trkpt lat="59.6502749249" lon="17.1569579188">
        <ele>30.4</ele>
        <time>2011-05-01T12:02:19Z</time>
      </trkpt>
      <trkpt lat="59.6503409743" lon="17.1574099548">
        <ele>30.8</ele>
        <time>2011-05-01T12:02:22Z</time>
      </trkpt>
      <trkpt lat="59.6504079457" lon="17.1578489989">
        <ele>28.4</ele>
        <time>2011-05-01T12:02:25Z</time>
      </trkpt>
      <trkpt lat="59.6504299901" lon="17.1579889767">
        <ele>28.4</ele>
        <time>2011-05-01T12:02:26Z</time>
      </trkpt>
      <trkpt lat="59.6504969615" lon="17.1584009472">
        <ele>25.6</ele>
        <time>2011-05-01T12:02:29Z</time>
      </trkpt>
      <trkpt lat="59.6505659446" lon="17.1588029433">
        <ele>28.8</ele>
        <time>2011-05-01T12:02:32Z</time>
      </trkpt>
      <trkpt lat="59.6506149787" lon="17.1590549871">
        <ele>29.4</ele>
        <time>2011-05-01T12:02:34Z</time>
      </trkpt>
      <trkpt lat="59.6506879851" lon="17.159433933">
        <ele>29.4</ele>
        <time>2011-05-01T12:02:37Z</time>
      </trkpt>
      <trkpt lat="59.6507619973" lon="17.1598069277">
        <ele>29.4</ele>
        <time>2011-05-01T12:02:40Z</time>
      </trkpt>
      <trkpt lat="59.6508379374" lon="17.1601859573">
        <ele>28.8</ele>
        <time>2011-05-01T12:02:43Z</time>
      </trkpt>
      <trkpt lat="59.6509159729" lon="17.160564987">
        <ele>28.8</ele>
        <time>2011-05-01T12:02:46Z</time>
      </trkpt>
      <trkpt lat="59.6509949304" lon="17.1609439328">
        <ele>28.8</ele>
        <time>2011-05-01T12:02:49Z</time>
      </trkpt>
      <trkpt lat="59.6510779951" lon="17.1613219567">
        <ele>28.8</ele>
        <time>2011-05-01T12:02:52Z</time>
      </trkpt>
      <trkpt lat="59.6511599701" lon="17.1617049258">
        <ele>28.8</ele>
        <time>2011-05-01T12:02:55Z</time>
      </trkpt>
      <trkpt lat="59.6512419451" lon="17.162080938">
        <ele>28.8</ele>
        <time>2011-05-01T12:02:58Z</time>
      </trkpt>
      <trkpt lat="59.6513199806" lon="17.1624379233">
        <ele>29.4</ele>
        <time>2011-05-01T12:03:01Z</time>
      </trkpt>
      <trkpt lat="59.651399944" lon="17.1628059726">
        <ele>29.4</ele>
        <time>2011-05-01T12:03:04Z</time>
      </trkpt>
      <trkpt lat="59.6514829248" lon="17.1631769557">
        <ele>29.8</ele>
        <time>2011-05-01T12:03:07Z</time>
      </trkpt>
      <trkpt lat="59.6515619662" lon="17.1635409817">
        <ele>29.8</ele>
        <time>2011-05-01T12:03:10Z</time>
      </trkpt>
      <trkpt lat="59.6516419295" lon="17.1638999786">
        <ele>29.8</ele>
        <time>2011-05-01T12:03:13Z</time>
      </trkpt>
      <trkpt lat="59.6517169476" lon="17.1642529406">
        <ele>29.8</ele>
        <time>2011-05-01T12:03:16Z</time>
      </trkpt>
      <trkpt lat="59.6517909598" lon="17.1646039747">
        <ele>30.4</ele>
        <time>2011-05-01T12:03:19Z</time>
      </trkpt>
      <trkpt lat="59.6518689953" lon="17.1649599541">
        <ele>29.4</ele>
        <time>2011-05-01T12:03:22Z</time>
      </trkpt>
      <trkpt lat="59.6519499645" lon="17.1653229743">
        <ele>29.4</ele>
        <time>2011-05-01T12:03:25Z</time>
      </trkpt>
      <trkpt lat="59.652028" lon="17.1656849887">
        <ele>29.8</ele>
        <time>2011-05-01T12:03:28Z</time>
      </trkpt>
      <trkpt lat="59.6521089692" lon="17.1660439856">
        <ele>29.8</ele>
        <time>2011-05-01T12:03:31Z</time>
      </trkpt>
      <trkpt lat="59.6521879267" lon="17.1664009709">
        <ele>30.8</ele>
        <time>2011-05-01T12:03:34Z</time>
      </trkpt>
      <trkpt lat="59.6522679739" lon="17.1667559445">
        <ele>30.4</ele>
        <time>2011-05-01T12:03:37Z</time>
      </trkpt>
      <trkpt lat="59.6523469314" lon="17.1671239939">
        <ele>30.8</ele>
        <time>2011-05-01T12:03:40Z</time>
      </trkpt>
      <trkpt lat="59.6524269786" lon="17.1674909536">
        <ele>30.4</ele>
        <time>2011-05-01T12:03:43Z</time>
      </trkpt>
      <trkpt lat="59.6525089536" lon="17.1678579971">
        <ele>30.4</ele>
        <time>2011-05-01T12:03:46Z</time>
      </trkpt>
      <trkpt lat="59.6525889169" lon="17.1682339255">
        <ele>29.8</ele>
        <time>2011-05-01T12:03:49Z</time>
      </trkpt>
      <trkpt lat="59.6526679583" lon="17.1686109435">
        <ele>29.8</ele>
        <time>2011-05-01T12:03:52Z</time>
      </trkpt>
      <trkpt lat="59.6527469996" lon="17.1689839382">
        <ele>30.4</ele>
        <time>2011-05-01T12:03:55Z</time>
      </trkpt>
      <trkpt lat="59.6528219339" lon="17.169367997">
        <ele>29.8</ele>
        <time>2011-05-01T12:03:58Z</time>
      </trkpt>
      <trkpt lat="59.6528919227" lon="17.1697479486">
        <ele>29.8</ele>
        <time>2011-05-01T12:04:01Z</time>
      </trkpt>
      <trkpt lat="59.6529569663" lon="17.1701199375">
        <ele>29.8</ele>
        <time>2011-05-01T12:04:04Z</time>
      </trkpt>
      <trkpt lat="59.6530169807" lon="17.1705019847">
        <ele>28.4</ele>
        <time>2011-05-01T12:04:07Z</time>
      </trkpt>
      <trkpt lat="59.653071966" lon="17.170883948">
        <ele>29.8</ele>
        <time>2011-05-01T12:04:10Z</time>
      </trkpt>
      <trkpt lat="59.6531239338" lon="17.1712769754">
        <ele>29.4</ele>
        <time>2011-05-01T12:04:13Z</time>
      </trkpt>
      <trkpt lat="59.6531769913" lon="17.1716779657">
        <ele>29.8</ele>
        <time>2011-05-01T12:04:16Z</time>
      </trkpt>
      <trkpt lat="59.6532259416" lon="17.1720859967">
        <ele>30.4</ele>
        <time>2011-05-01T12:04:19Z</time>
      </trkpt>
      <trkpt lat="59.6532709524" lon="17.1724939439">
        <ele>29.8</ele>
        <time>2011-05-01T12:04:22Z</time>
      </trkpt>
      <trkpt lat="59.6533079166" lon="17.1728939284">
        <ele>28.4</ele>
        <time>2011-05-01T12:04:25Z</time>
      </trkpt>
      <trkpt lat="59.6533449646" lon="17.1732919849">
        <ele>30.4</ele>
        <time>2011-05-01T12:04:28Z</time>
      </trkpt>
      <trkpt lat="59.6533779893" lon="17.1736849286">
        <ele>31.2</ele>
        <time>2011-05-01T12:04:31Z</time>
      </trkpt>
      <trkpt lat="59.6534069907" lon="17.1740859188">
        <ele>30.4</ele>
        <time>2011-05-01T12:04:34Z</time>
      </trkpt>
      <trkpt lat="59.6534329746" lon="17.1744939499">
        <ele>29.4</ele>
        <time>2011-05-01T12:04:37Z</time>
      </trkpt>
      <trkpt lat="59.6534529235" lon="17.1749069262">
        <ele>30.4</ele>
        <time>2011-05-01T12:04:40Z</time>
      </trkpt>
      <trkpt lat="59.6534709446" lon="17.1753249317">
        <ele>30.4</ele>
        <time>2011-05-01T12:04:43Z</time>
      </trkpt>
      <trkpt lat="59.6534859482" lon="17.1757459547">
        <ele>29.8</ele>
        <time>2011-05-01T12:04:46Z</time>
      </trkpt>
      <trkpt lat="59.6534889657" lon="17.1760229766">
        <ele>28.8</ele>
        <time>2011-05-01T12:04:48Z</time>
      </trkpt>
      <trkpt lat="59.653492989" lon="17.1764349472">
        <ele>29.8</ele>
        <time>2011-05-01T12:04:51Z</time>
      </trkpt>
      <trkpt lat="59.6534959227" lon="17.1768499352">
        <ele>29.8</ele>
        <time>2011-05-01T12:04:54Z</time>
      </trkpt>
      <trkpt lat="59.6534979343" lon="17.1772629954">
        <ele>29.8</ele>
        <time>2011-05-01T12:04:57Z</time>
      </trkpt>
      <trkpt lat="59.653499946" lon="17.1776769776">
        <ele>30.4</ele>
        <time>2011-05-01T12:05:00Z</time>
      </trkpt>
      <trkpt lat="59.6535039693" lon="17.1781039517">
        <ele>30.4</ele>
        <time>2011-05-01T12:05:03Z</time>
      </trkpt>
      <trkpt lat="59.6535099205" lon="17.1785409842">
        <ele>27</ele>
        <time>2011-05-01T12:05:06Z</time>
      </trkpt>
      <trkpt lat="59.6535129379" lon="17.1786839794">
        <ele>27.4</ele>
        <time>2011-05-01T12:05:07Z</time>
      </trkpt>
      <trkpt lat="59.6535239182" lon="17.1791149769">
        <ele>28.8</ele>
        <time>2011-05-01T12:05:10Z</time>
      </trkpt>
      <trkpt lat="59.6535349824" lon="17.1794079244">
        <ele>29.8</ele>
        <time>2011-05-01T12:05:12Z</time>
      </trkpt>
      <trkpt lat="59.6535559371" lon="17.1798449568">
        <ele>30.4</ele>
        <time>2011-05-01T12:05:15Z</time>
      </trkpt>
      <trkpt lat="59.653581921" lon="17.1802749485">
        <ele>30.4</ele>
        <time>2011-05-01T12:05:18Z</time>
      </trkpt>
      <trkpt lat="59.6536129341" lon="17.1807029285">
        <ele>29.4</ele>
        <time>2011-05-01T12:05:21Z</time>
      </trkpt>
      <trkpt lat="59.6536489762" lon="17.1811259631">
        <ele>29.8</ele>
        <time>2011-05-01T12:05:24Z</time>
      </trkpt>
      <trkpt lat="59.653675966" lon="17.1814079303">
        <ele>30.8</ele>
        <time>2011-05-01T12:05:26Z</time>
      </trkpt>
      <trkpt lat="59.6537209768" lon="17.1818399336">
        <ele>30.8</ele>
        <time>2011-05-01T12:05:29Z</time>
      </trkpt>
      <trkpt lat="59.6537759621" lon="17.1822669916">
        <ele>30.8</ele>
        <time>2011-05-01T12:05:32Z</time>
      </trkpt>
      <trkpt lat="59.6538349707" lon="17.1826919541">
        <ele>30.8</ele>
        <time>2011-05-01T12:05:35Z</time>
      </trkpt>
      <trkpt lat="59.6538979188" lon="17.1831179224">
        <ele>28</ele>
        <time>2011-05-01T12:05:38Z</time>
      </trkpt>
      <trkpt lat="59.6539669856" lon="17.1835399512">
        <ele>29.8</ele>
        <time>2011-05-01T12:05:41Z</time>
      </trkpt>
      <trkpt lat="59.6540409978" lon="17.1839599684">
        <ele>30.4</ele>
        <time>2011-05-01T12:05:44Z</time>
      </trkpt>
      <trkpt lat="59.6541209612" lon="17.1843789797">
        <ele>30.4</ele>
        <time>2011-05-01T12:05:47Z</time>
      </trkpt>
      <trkpt lat="59.6542059537" lon="17.1847889386">
        <ele>28.8</ele>
        <time>2011-05-01T12:05:50Z</time>
      </trkpt>
      <trkpt lat="59.6542999987" lon="17.185194958">
        <ele>26.4</ele>
        <time>2011-05-01T12:05:53Z</time>
      </trkpt>
      <trkpt lat="59.6543309279" lon="17.1853319183">
        <ele>26.4</ele>
        <time>2011-05-01T12:05:54Z</time>
      </trkpt>
      <trkpt lat="59.6543629467" lon="17.1854689624">
        <ele>30.8</ele>
        <time>2011-05-01T12:05:55Z</time>
      </trkpt>
      <trkpt lat="59.6543959714" lon="17.185602989">
        <ele>30.4</ele>
        <time>2011-05-01T12:05:56Z</time>
      </trkpt>
      <trkpt lat="59.6544969734" lon="17.1860049851">
        <ele>30.8</ele>
        <time>2011-05-01T12:05:59Z</time>
      </trkpt>
      <trkpt lat="59.6545949578" lon="17.1864049695">
        <ele>31.2</ele>
        <time>2011-05-01T12:06:02Z</time>
      </trkpt>
      <trkpt lat="59.6546899248" lon="17.1868019365">
        <ele>29.8</ele>
        <time>2011-05-01T12:06:05Z</time>
      </trkpt>
      <trkpt lat="59.6547839697" lon="17.1871959697">
        <ele>30.8</ele>
        <time>2011-05-01T12:06:08Z</time>
      </trkpt>
      <trkpt lat="59.6548739914" lon="17.1875979658">
        <ele>28.4</ele>
        <time>2011-05-01T12:06:11Z</time>
      </trkpt>
      <trkpt lat="59.6549599897" lon="17.1880099364">
        <ele>28.4</ele>
        <time>2011-05-01T12:06:14Z</time>
      </trkpt>
      <trkpt lat="59.6550389472" lon="17.1884179674">
        <ele>28.4</ele>
        <time>2011-05-01T12:06:17Z</time>
      </trkpt>
      <trkpt lat="59.655109942" lon="17.1888059657">
        <ele>28.8</ele>
        <time>2011-05-01T12:06:20Z</time>
      </trkpt>
      <trkpt lat="59.6551739797" lon="17.1891829837">
        <ele>29.4</ele>
        <time>2011-05-01T12:06:23Z</time>
      </trkpt>
      <trkpt lat="59.6552119497" lon="17.1894349437">
        <ele>26</ele>
        <time>2011-05-01T12:06:25Z</time>
      </trkpt>
      <trkpt lat="59.6552659292" lon="17.1898109559">
        <ele>29.4</ele>
        <time>2011-05-01T12:06:28Z</time>
      </trkpt>
      <trkpt lat="59.6552839503" lon="17.1899359301">
        <ele>26</ele>
        <time>2011-05-01T12:06:29Z</time>
      </trkpt>
      <trkpt lat="59.6553309727" lon="17.1903069969">
        <ele>27.4</ele>
        <time>2011-05-01T12:06:32Z</time>
      </trkpt>
      <trkpt lat="59.6553729661" lon="17.1906709392">
        <ele>28.4</ele>
        <time>2011-05-01T12:06:35Z</time>
      </trkpt>
      <trkpt lat="59.6554109361" lon="17.1910369769">
        <ele>29.4</ele>
        <time>2011-05-01T12:06:38Z</time>
      </trkpt>
      <trkpt lat="59.6554339863" lon="17.1912889369">
        <ele>28</ele>
        <time>2011-05-01T12:06:40Z</time>
      </trkpt>
      <trkpt lat="59.6554699447" lon="17.1916729957">
        <ele>28</ele>
        <time>2011-05-01T12:06:43Z</time>
      </trkpt>
      <trkpt lat="59.6555009577" lon="17.1920639277">
        <ele>28.8</ele>
        <time>2011-05-01T12:06:46Z</time>
      </trkpt>
      <trkpt lat="59.6555229183" lon="17.1923269518">
        <ele>30.8</ele>
        <time>2011-05-01T12:06:48Z</time>
      </trkpt>
      <trkpt lat="59.655561978" lon="17.1927399281">
        <ele>28.4</ele>
        <time>2011-05-01T12:06:51Z</time>
      </trkpt>
      <trkpt lat="59.6555959247" lon="17.1931699198">
        <ele>27.4</ele>
        <time>2011-05-01T12:06:54Z</time>
      </trkpt>
      <trkpt lat="59.6556329727" lon="17.1936029289">
        <ele>26.4</ele>
        <time>2011-05-01T12:06:57Z</time>
      </trkpt>
      <trkpt lat="59.6556709427" lon="17.194028981">
        <ele>27</ele>
        <time>2011-05-01T12:07:00Z</time>
      </trkpt>
      <trkpt lat="59.6557059791" lon="17.1944439691">
        <ele>26.4</ele>
        <time>2011-05-01T12:07:03Z</time>
      </trkpt>
      <trkpt lat="59.6557399258" lon="17.1948429476">
        <ele>27</ele>
        <time>2011-05-01T12:07:06Z</time>
      </trkpt>
      <trkpt lat="59.655762976" lon="17.1951069776">
        <ele>30.8</ele>
        <time>2011-05-01T12:07:08Z</time>
      </trkpt>
      <trkpt lat="59.6557969227" lon="17.1955079678">
        <ele>30.8</ele>
        <time>2011-05-01T12:07:11Z</time>
      </trkpt>
      <trkpt lat="59.6558329649" lon="17.1959209442">
        <ele>31.2</ele>
        <time>2011-05-01T12:07:14Z</time>
      </trkpt>
      <trkpt lat="59.6558689233" lon="17.1963349264">
        <ele>31.2</ele>
        <time>2011-05-01T12:07:17Z</time>
      </trkpt>
      <trkpt lat="59.6559029538" lon="17.1967479866">
        <ele>29.8</ele>
        <time>2011-05-01T12:07:20Z</time>
      </trkpt>
      <trkpt lat="59.655938996" lon="17.1971629746">
        <ele>29.4</ele>
        <time>2011-05-01T12:07:23Z</time>
      </trkpt>
      <trkpt lat="59.6559749544" lon="17.1975769568">
        <ele>30.4</ele>
        <time>2011-05-01T12:07:26Z</time>
      </trkpt>
      <trkpt lat="59.6560109966" lon="17.1979989856">
        <ele>28</ele>
        <time>2011-05-01T12:07:29Z</time>
      </trkpt>
      <trkpt lat="59.6560489666" lon="17.1984309889">
        <ele>28.8</ele>
        <time>2011-05-01T12:07:32Z</time>
      </trkpt>
      <trkpt lat="59.6560839191" lon="17.1988639981">
        <ele>30.4</ele>
        <time>2011-05-01T12:07:35Z</time>
      </trkpt>
      <trkpt lat="59.6561209671" lon="17.1993019525">
        <ele>28</ele>
        <time>2011-05-01T12:07:38Z</time>
      </trkpt>
      <trkpt lat="59.6561609488" lon="17.1997459419">
        <ele>27</ele>
        <time>2011-05-01T12:07:41Z</time>
      </trkpt>
      <trkpt lat="59.6561989188" lon="17.2001899313">
        <ele>28.8</ele>
        <time>2011-05-01T12:07:44Z</time>
      </trkpt>
      <trkpt lat="59.656234961" lon="17.2006319929">
        <ele>26</ele>
        <time>2011-05-01T12:07:47Z</time>
      </trkpt>
      <trkpt lat="59.6562469471" lon="17.200775994">
        <ele>26</ele>
        <time>2011-05-01T12:07:48Z</time>
      </trkpt>
      <trkpt lat="59.6562839951" lon="17.2012029681">
        <ele>27</ele>
        <time>2011-05-01T12:07:51Z</time>
      </trkpt>
      <trkpt lat="59.6563219652" lon="17.201612927">
        <ele>25.6</ele>
        <time>2011-05-01T12:07:54Z</time>
      </trkpt>
      <trkpt lat="59.6563629527" lon="17.2020219639">
        <ele>27</ele>
        <time>2011-05-01T12:07:57Z</time>
      </trkpt>
      <trkpt lat="59.6563999169" lon="17.2024399694">
        <ele>26</ele>
        <time>2011-05-01T12:08:00Z</time>
      </trkpt>
      <trkpt lat="59.6564129926" lon="17.2025779355">
        <ele>26</ele>
        <time>2011-05-01T12:08:01Z</time>
      </trkpt>
      <trkpt lat="59.656454986" lon="17.2029879782">
        <ele>26.4</ele>
        <time>2011-05-01T12:08:04Z</time>
      </trkpt>
      <trkpt lat="59.6564969793" lon="17.2033999488">
        <ele>25.6</ele>
        <time>2011-05-01T12:08:07Z</time>
      </trkpt>
      <trkpt lat="59.6565399785" lon="17.203806974">
        <ele>25</ele>
        <time>2011-05-01T12:08:10Z</time>
      </trkpt>
      <trkpt lat="59.6565869171" lon="17.2042089701">
        <ele>24.6</ele>
        <time>2011-05-01T12:08:13Z</time>
      </trkpt>
      <trkpt lat="59.6566339396" lon="17.2046159953">
        <ele>24.6</ele>
        <time>2011-05-01T12:08:16Z</time>
      </trkpt>
      <trkpt lat="59.6566839796" lon="17.2050139681">
        <ele>24.6</ele>
        <time>2011-05-01T12:08:19Z</time>
      </trkpt>
      <trkpt lat="59.656731924" lon="17.2054049838">
        <ele>24.6</ele>
        <time>2011-05-01T12:08:22Z</time>
      </trkpt>
      <trkpt lat="59.6567799523" lon="17.2058019508">
        <ele>24.6</ele>
        <time>2011-05-01T12:08:25Z</time>
      </trkpt>
      <trkpt lat="59.6568289865" lon="17.206202941">
        <ele>24</ele>
        <time>2011-05-01T12:08:28Z</time>
      </trkpt>
      <trkpt lat="59.6568799485" lon="17.2065899335">
        <ele>24</ele>
        <time>2011-05-01T12:08:31Z</time>
      </trkpt>
      <trkpt lat="59.6569259651" lon="17.206969969">
        <ele>25</ele>
        <time>2011-05-01T12:08:34Z</time>
      </trkpt>
      <trkpt lat="59.6569729876" lon="17.207340952">
        <ele>25</ele>
        <time>2011-05-01T12:08:37Z</time>
      </trkpt>
      <trkpt lat="59.6570189204" lon="17.207711935">
        <ele>25</ele>
        <time>2011-05-01T12:08:40Z</time>
      </trkpt>
      <trkpt lat="59.6570659429" lon="17.208070932">
        <ele>24</ele>
        <time>2011-05-01T12:08:43Z</time>
      </trkpt>
      <trkpt lat="59.6571119595" lon="17.2084169369">
        <ele>23.6</ele>
        <time>2011-05-01T12:08:46Z</time>
      </trkpt>
      <trkpt lat="59.6571599878" lon="17.2087569907">
        <ele>26.4</ele>
        <time>2011-05-01T12:08:49Z</time>
      </trkpt>
      <trkpt lat="59.6571739856" lon="17.2088709846">
        <ele>26.4</ele>
        <time>2011-05-01T12:08:50Z</time>
      </trkpt>
      <trkpt lat="59.6572169848" lon="17.2092109546">
        <ele>27</ele>
        <time>2011-05-01T12:08:53Z</time>
      </trkpt>
      <trkpt lat="59.6572459862" lon="17.2094419599">
        <ele>25</ele>
        <time>2011-05-01T12:08:55Z</time>
      </trkpt>
      <trkpt lat="59.6572889853" lon="17.2097839415">
        <ele>27</ele>
        <time>2011-05-01T12:08:58Z</time>
      </trkpt>
      <trkpt lat="59.6573039889" lon="17.2098979354">
        <ele>26.4</ele>
        <time>2011-05-01T12:08:59Z</time>
      </trkpt>
      <trkpt lat="59.6573469881" lon="17.2102359775">
        <ele>25.6</ele>
        <time>2011-05-01T12:09:02Z</time>
      </trkpt>
      <trkpt lat="59.6573759895" lon="17.2104619537">
        <ele>26.4</ele>
        <time>2011-05-01T12:09:04Z</time>
      </trkpt>
      <trkpt lat="59.6574209165" lon="17.2108179331">
        <ele>27</ele>
        <time>2011-05-01T12:09:07Z</time>
      </trkpt>
      <trkpt lat="59.6574699506" lon="17.2111809533">
        <ele>28.4</ele>
        <time>2011-05-01T12:09:10Z</time>
      </trkpt>
      <trkpt lat="59.6574849542" lon="17.2113029938">
        <ele>28.4</ele>
        <time>2011-05-01T12:09:11Z</time>
      </trkpt>
      <trkpt lat="59.657529965" lon="17.2116559558">
        <ele>28</ele>
        <time>2011-05-01T12:09:14Z</time>
      </trkpt>
      <trkpt lat="59.6575779933" lon="17.2119989432">
        <ele>28.4</ele>
        <time>2011-05-01T12:09:17Z</time>
      </trkpt>
      <trkpt lat="59.6576229203" lon="17.2123419307">
        <ele>28</ele>
        <time>2011-05-01T12:09:20Z</time>
      </trkpt>
      <trkpt lat="59.657668937" lon="17.2127029393">
        <ele>27.4</ele>
        <time>2011-05-01T12:09:23Z</time>
      </trkpt>
      <trkpt lat="59.657718977" lon="17.2130859923">
        <ele>27.4</ele>
        <time>2011-05-01T12:09:26Z</time>
      </trkpt>
      <trkpt lat="59.6577659994" lon="17.2134989686">
        <ele>28.4</ele>
        <time>2011-05-01T12:09:29Z</time>
      </trkpt>
      <trkpt lat="59.6578249242" lon="17.2139069997">
        <ele>28</ele>
        <time>2011-05-01T12:09:32Z</time>
      </trkpt>
      <trkpt lat="59.6578849386" lon="17.2143079899">
        <ele>28</ele>
        <time>2011-05-01T12:09:35Z</time>
      </trkpt>
      <trkpt lat="59.6579459589" lon="17.2146829963">
        <ele>28.4</ele>
        <time>2011-05-01T12:09:38Z</time>
      </trkpt>
      <trkpt lat="59.6580109186" lon="17.2150639538">
        <ele>27.4</ele>
        <time>2011-05-01T12:09:41Z</time>
      </trkpt>
      <trkpt lat="59.658076968" lon="17.2154419776">
        <ele>27.4</ele>
        <time>2011-05-01T12:09:44Z</time>
      </trkpt>
      <trkpt lat="59.6581449453" lon="17.2158159781">
        <ele>26.4</ele>
        <time>2011-05-01T12:09:47Z</time>
      </trkpt>
      <trkpt lat="59.6582119167" lon="17.2161929961">
        <ele>27</ele>
        <time>2011-05-01T12:09:50Z</time>
      </trkpt>
      <trkpt lat="59.6582789719" lon="17.2165819164">
        <ele>24.6</ele>
        <time>2011-05-01T12:09:53Z</time>
      </trkpt>
      <trkpt lat="59.658347955" lon="17.2169719264">
        <ele>26.4</ele>
        <time>2011-05-01T12:09:56Z</time>
      </trkpt>
      <trkpt lat="59.658416938" lon="17.217356991">
        <ele>27</ele>
        <time>2011-05-01T12:09:59Z</time>
      </trkpt>
      <trkpt lat="59.6584859211" lon="17.217740966">
        <ele>28</ele>
        <time>2011-05-01T12:10:02Z</time>
      </trkpt>
      <trkpt lat="59.658554988" lon="17.2181199957">
        <ele>27</ele>
        <time>2011-05-01T12:10:05Z</time>
      </trkpt>
      <trkpt lat="59.6586199477" lon="17.2184909787">
        <ele>28</ele>
        <time>2011-05-01T12:10:08Z</time>
      </trkpt>
      <trkpt lat="59.6586829796" lon="17.2188529931">
        <ele>27.4</ele>
        <time>2011-05-01T12:10:11Z</time>
      </trkpt>
      <trkpt lat="59.6587489452" lon="17.21921199">
        <ele>28</ele>
        <time>2011-05-01T12:10:14Z</time>
      </trkpt>
      <trkpt lat="59.6588139888" lon="17.2195709869">
        <ele>28.4</ele>
        <time>2011-05-01T12:10:17Z</time>
      </trkpt>
      <trkpt lat="59.6588769369" lon="17.2199319955">
        <ele>28.4</ele>
        <time>2011-05-01T12:10:20Z</time>
      </trkpt>
      <trkpt lat="59.658938963" lon="17.2202849574">
        <ele>28.8</ele>
        <time>2011-05-01T12:10:23Z</time>
      </trkpt>
      <trkpt lat="59.6590019949" lon="17.2206339799">
        <ele>29.8</ele>
        <time>2011-05-01T12:10:26Z</time>
      </trkpt>
      <trkpt lat="59.6590639371" lon="17.2209759615">
        <ele>29.8</ele>
        <time>2011-05-01T12:10:29Z</time>
      </trkpt>
      <trkpt lat="59.6591289807" lon="17.2213379759">
        <ele>29.4</ele>
        <time>2011-05-01T12:10:32Z</time>
      </trkpt>
      <trkpt lat="59.6591949463" lon="17.2217069473">
        <ele>30.4</ele>
        <time>2011-05-01T12:10:35Z</time>
      </trkpt>
      <trkpt lat="59.6592619177" lon="17.2220739909">
        <ele>29.8</ele>
        <time>2011-05-01T12:10:38Z</time>
      </trkpt>
      <trkpt lat="59.6593309846" lon="17.2224439681">
        <ele>28.8</ele>
        <time>2011-05-01T12:10:41Z</time>
      </trkpt>
      <trkpt lat="59.6594009735" lon="17.2228379175">
        <ele>28.8</ele>
        <time>2011-05-01T12:10:44Z</time>
      </trkpt>
      <trkpt lat="59.6594759915" lon="17.2232629638">
        <ele>28.8</ele>
        <time>2011-05-01T12:10:47Z</time>
      </trkpt>
      <trkpt lat="59.6596039832" lon="17.2239909321">
        <ele>27.4</ele>
        <time>2011-05-01T12:10:52Z</time>
      </trkpt>
      <trkpt lat="59.6596859582" lon="17.2244399507">
        <ele>27</ele>
        <time>2011-05-01T12:10:55Z</time>
      </trkpt>
      <trkpt lat="59.6597669274" lon="17.224889975">
        <ele>26</ele>
        <time>2011-05-01T12:10:58Z</time>
      </trkpt>
      <trkpt lat="59.659849992" lon="17.2253479622">
        <ele>25.6</ele>
        <time>2011-05-01T12:11:01Z</time>
      </trkpt>
      <trkpt lat="59.6599299554" lon="17.2257989924">
        <ele>25.6</ele>
        <time>2011-05-01T12:11:04Z</time>
      </trkpt>
      <trkpt lat="59.6600059792" lon="17.2262359411">
        <ele>27.4</ele>
        <time>2011-05-01T12:11:07Z</time>
      </trkpt>
      <trkpt lat="59.6600319631" lon="17.226380948">
        <ele>27.4</ele>
        <time>2011-05-01T12:11:08Z</time>
      </trkpt>
      <trkpt lat="59.6601099987" lon="17.2268079221">
        <ele>28</ele>
        <time>2011-05-01T12:11:11Z</time>
      </trkpt>
      <trkpt lat="59.6601819992" lon="17.2272179648">
        <ele>27.4</ele>
        <time>2011-05-01T12:11:14Z</time>
      </trkpt>
      <trkpt lat="59.6602549218" lon="17.2276239842">
        <ele>27.4</ele>
        <time>2011-05-01T12:11:17Z</time>
      </trkpt>
      <trkpt lat="59.6603239886" lon="17.2280269861">
        <ele>27</ele>
        <time>2011-05-01T12:11:20Z</time>
      </trkpt>
      <trkpt lat="59.660396995" lon="17.22844298">
        <ele>27.4</ele>
        <time>2011-05-01T12:11:23Z</time>
      </trkpt>
      <trkpt lat="59.6604649723" lon="17.228864925">
        <ele>28.4</ele>
        <time>2011-05-01T12:11:26Z</time>
      </trkpt>
      <trkpt lat="59.6605259925" lon="17.2292689327">
        <ele>28</ele>
        <time>2011-05-01T12:11:29Z</time>
      </trkpt>
      <trkpt lat="59.6605819836" lon="17.2296639718">
        <ele>28</ele>
        <time>2011-05-01T12:11:32Z</time>
      </trkpt>
      <trkpt lat="59.6606339514" lon="17.230070997">
        <ele>26.4</ele>
        <time>2011-05-01T12:11:35Z</time>
      </trkpt>
      <trkpt lat="59.6606859192" lon="17.2304949537">
        <ele>26.4</ele>
        <time>2011-05-01T12:11:38Z</time>
      </trkpt>
      <trkpt lat="59.6607329417" lon="17.2309389431">
        <ele>26.4</ele>
        <time>2011-05-01T12:11:41Z</time>
      </trkpt>
      <trkpt lat="59.6607699897" lon="17.2313719522">
        <ele>26</ele>
        <time>2011-05-01T12:11:44Z</time>
      </trkpt>
      <trkpt lat="59.6608009189" lon="17.2318059672">
        <ele>25.6</ele>
        <time>2011-05-01T12:11:47Z</time>
      </trkpt>
      <trkpt lat="59.6608229633" lon="17.232265966">
        <ele>25</ele>
        <time>2011-05-01T12:11:50Z</time>
      </trkpt>
      <trkpt lat="59.6608429961" lon="17.2327479254">
        <ele>25.6</ele>
        <time>2011-05-01T12:11:53Z</time>
      </trkpt>
      <trkpt lat="59.6608599275" lon="17.2332519293">
        <ele>24</ele>
        <time>2011-05-01T12:11:56Z</time>
      </trkpt>
      <trkpt lat="59.6608699858" lon="17.2337649856">
        <ele>23.6</ele>
        <time>2011-05-01T12:11:59Z</time>
      </trkpt>
      <trkpt lat="59.6608669683" lon="17.2342679836">
        <ele>25</ele>
        <time>2011-05-01T12:12:02Z</time>
      </trkpt>
      <trkpt lat="59.6608659625" lon="17.2347819619">
        <ele>23.6</ele>
        <time>2011-05-01T12:12:05Z</time>
      </trkpt>
      <trkpt lat="59.6608579997" lon="17.2353179846">
        <ele>22.2</ele>
        <time>2011-05-01T12:12:08Z</time>
      </trkpt>
      <trkpt lat="59.6608459298" lon="17.2358419374">
        <ele>22.2</ele>
        <time>2011-05-01T12:12:11Z</time>
      </trkpt>
      <trkpt lat="59.6608399786" lon="17.2363509703">
        <ele>21.6</ele>
        <time>2011-05-01T12:12:14Z</time>
      </trkpt>
      <trkpt lat="59.6608309262" lon="17.2368529625">
        <ele>20.8</ele>
        <time>2011-05-01T12:12:17Z</time>
      </trkpt>
      <trkpt lat="59.6608229633" lon="17.2373499256">
        <ele>20.8</ele>
        <time>2011-05-01T12:12:20Z</time>
      </trkpt>
      <trkpt lat="59.6608179342" lon="17.2378629819">
        <ele>19.2</ele>
        <time>2011-05-01T12:12:23Z</time>
      </trkpt>
      <trkpt lat="59.6608099714" lon="17.2383979987">
        <ele>18.8</ele>
        <time>2011-05-01T12:12:26Z</time>
      </trkpt>
      <trkpt lat="59.6608029306" lon="17.238931926">
        <ele>18.4</ele>
        <time>2011-05-01T12:12:29Z</time>
      </trkpt>
      <trkpt lat="59.6607919503" lon="17.2394339181">
        <ele>16.8</ele>
        <time>2011-05-01T12:12:32Z</time>
      </trkpt>
      <trkpt lat="59.6607859991" lon="17.2399039753">
        <ele>16.8</ele>
        <time>2011-05-01T12:12:35Z</time>
      </trkpt>
      <trkpt lat="59.6607829817" lon="17.2400579508">
        <ele>16.8</ele>
        <time>2011-05-01T12:12:36Z</time>
      </trkpt>
      <trkpt lat="59.6607769467" lon="17.2405259963">
        <ele>17.8</ele>
        <time>2011-05-01T12:12:39Z</time>
      </trkpt>
      <trkpt lat="59.6607619431" lon="17.2409959696">
        <ele>19.2</ele>
        <time>2011-05-01T12:12:42Z</time>
      </trkpt>
      <trkpt lat="59.6607569978" lon="17.2414639313">
        <ele>19.2</ele>
        <time>2011-05-01T12:12:45Z</time>
      </trkpt>
      <trkpt lat="59.6607529745" lon="17.2419209965">
        <ele>19.8</ele>
        <time>2011-05-01T12:12:48Z</time>
      </trkpt>
      <trkpt lat="59.6607479453" lon="17.2423859406">
        <ele>19.2</ele>
        <time>2011-05-01T12:12:51Z</time>
      </trkpt>
      <trkpt lat="59.6607389767" lon="17.242866978">
        <ele>18.4</ele>
        <time>2011-05-01T12:12:54Z</time>
      </trkpt>
      <trkpt lat="59.6607269906" lon="17.2433509491">
        <ele>17.8</ele>
        <time>2011-05-01T12:12:57Z</time>
      </trkpt>
      <trkpt lat="59.6607239731" lon="17.2438289691">
        <ele>18.8</ele>
        <time>2011-05-01T12:13:00Z</time>
      </trkpt>
      <trkpt lat="59.6607179381" lon="17.2442889679">
        <ele>17.8</ele>
        <time>2011-05-01T12:13:03Z</time>
      </trkpt>
      <trkpt lat="59.6607169323" lon="17.2447519843">
        <ele>16.8</ele>
        <time>2011-05-01T12:13:06Z</time>
      </trkpt>
      <trkpt lat="59.6607169323" lon="17.2449089773">
        <ele>17.4</ele>
        <time>2011-05-01T12:13:07Z</time>
      </trkpt>
      <trkpt lat="59.6607089695" lon="17.2453829739">
        <ele>16.8</ele>
        <time>2011-05-01T12:13:10Z</time>
      </trkpt>
      <trkpt lat="59.6607009228" lon="17.245859988">
        <ele>17.8</ele>
        <time>2011-05-01T12:13:13Z</time>
      </trkpt>
      <trkpt lat="59.6606919542" lon="17.2463379242">
        <ele>16.8</ele>
        <time>2011-05-01T12:13:16Z</time>
      </trkpt>
      <trkpt lat="59.6606879309" lon="17.2466659918">
        <ele>15.8</ele>
        <time>2011-05-01T12:13:18Z</time>
      </trkpt>
      <trkpt lat="59.6606819797" lon="17.2471649665">
        <ele>13.4</ele>
        <time>2011-05-01T12:13:21Z</time>
      </trkpt>
      <trkpt lat="59.6606809739" lon="17.2473289166">
        <ele>15</ele>
        <time>2011-05-01T12:13:22Z</time>
      </trkpt>
      <trkpt lat="59.6606799681" lon="17.2478309926">
        <ele>15.8</ele>
        <time>2011-05-01T12:13:25Z</time>
      </trkpt>
      <trkpt lat="59.6606799681" lon="17.2483349964">
        <ele>15.8</ele>
        <time>2011-05-01T12:13:28Z</time>
      </trkpt>
      <trkpt lat="59.6606879309" lon="17.2486699373">
        <ele>16.4</ele>
        <time>2011-05-01T12:13:30Z</time>
      </trkpt>
      <trkpt lat="59.6607089695" lon="17.2491669841">
        <ele>17.4</ele>
        <time>2011-05-01T12:13:33Z</time>
      </trkpt>
      <trkpt lat="59.6607339475" lon="17.2496439982">
        <ele>16.8</ele>
        <time>2011-05-01T12:13:36Z</time>
      </trkpt>
      <trkpt lat="59.6607629489" lon="17.2500969563">
        <ele>17.8</ele>
        <time>2011-05-01T12:13:39Z</time>
      </trkpt>
      <trkpt lat="59.6607949678" lon="17.250513956">
        <ele>18.4</ele>
        <time>2011-05-01T12:13:42Z</time>
      </trkpt>
      <trkpt lat="59.6608299203" lon="17.2509079892">
        <ele>18.4</ele>
        <time>2011-05-01T12:13:45Z</time>
      </trkpt>
      <trkpt lat="59.660862945" lon="17.2512989212">
        <ele>18.4</ele>
        <time>2011-05-01T12:13:48Z</time>
      </trkpt>
      <trkpt lat="59.6608939581" lon="17.2516969778">
        <ele>19.2</ele>
        <time>2011-05-01T12:13:51Z</time>
      </trkpt>
      <trkpt lat="59.6609059442" lon="17.2518279869">
        <ele>19.8</ele>
        <time>2011-05-01T12:13:52Z</time>
      </trkpt>
      <trkpt lat="59.6609399747" lon="17.2522079386">
        <ele>19.2</ele>
        <time>2011-05-01T12:13:55Z</time>
      </trkpt>
      <trkpt lat="59.6609719936" lon="17.2525759879">
        <ele>18.8</ele>
        <time>2011-05-01T12:13:58Z</time>
      </trkpt>
      <trkpt lat="59.6609989833" lon="17.2529279441">
        <ele>19.2</ele>
        <time>2011-05-01T12:14:01Z</time>
      </trkpt>
      <trkpt lat="59.6610309184" lon="17.2532889526">
        <ele>19.2</ele>
        <time>2011-05-01T12:14:04Z</time>
      </trkpt>
      <trkpt lat="59.6610629372" lon="17.2536559962">
        <ele>20.2</ele>
        <time>2011-05-01T12:14:07Z</time>
      </trkpt>
      <trkpt lat="59.6610869933" lon="17.2539039329">
        <ele>21.6</ele>
        <time>2011-05-01T12:14:09Z</time>
      </trkpt>
      <trkpt lat="59.6611199342" lon="17.2542789392">
        <ele>22.2</ele>
        <time>2011-05-01T12:14:12Z</time>
      </trkpt>
      <trkpt lat="59.6611549705" lon="17.2546569631">
        <ele>22.6</ele>
        <time>2011-05-01T12:14:15Z</time>
      </trkpt>
      <trkpt lat="59.6611859836" lon="17.2550259344">
        <ele>21.6</ele>
        <time>2011-05-01T12:14:18Z</time>
      </trkpt>
      <trkpt lat="59.6612169966" lon="17.2554009408">
        <ele>21.6</ele>
        <time>2011-05-01T12:14:21Z</time>
      </trkpt>
      <trkpt lat="59.6612489317" lon="17.255776953">
        <ele>19.2</ele>
        <time>2011-05-01T12:14:24Z</time>
      </trkpt>
      <trkpt lat="59.6612829622" lon="17.2561739199">
        <ele>18.4</ele>
        <time>2011-05-01T12:14:27Z</time>
      </trkpt>
      <trkpt lat="59.6613159869" lon="17.2565679532">
        <ele>17.8</ele>
        <time>2011-05-01T12:14:30Z</time>
      </trkpt>
      <trkpt lat="59.6613479219" lon="17.2569649201">
        <ele>19.2</ele>
        <time>2011-05-01T12:14:33Z</time>
      </trkpt>
      <trkpt lat="59.6613799408" lon="17.257360965">
        <ele>20.2</ele>
        <time>2011-05-01T12:14:36Z</time>
      </trkpt>
      <trkpt lat="59.6614149772" lon="17.2577829938">
        <ele>17.4</ele>
        <time>2011-05-01T12:14:39Z</time>
      </trkpt>
      <trkpt lat="59.6614259575" lon="17.2579329461">
        <ele>17.4</ele>
        <time>2011-05-01T12:14:40Z</time>
      </trkpt>
      <trkpt lat="59.6614579763" lon="17.2584009916">
        <ele>16.4</ele>
        <time>2011-05-01T12:14:43Z</time>
      </trkpt>
      <trkpt lat="59.6614749916" lon="17.258712966">
        <ele>15.4</ele>
        <time>2011-05-01T12:14:45Z</time>
      </trkpt>
      <trkpt lat="59.661497958" lon="17.2591879684">
        <ele>15</ele>
        <time>2011-05-01T12:14:48Z</time>
      </trkpt>
      <trkpt lat="59.6615169849" lon="17.2596629709">
        <ele>15</ele>
        <time>2011-05-01T12:14:51Z</time>
      </trkpt>
      <trkpt lat="59.6615279652" lon="17.2601319384">
        <ele>13</ele>
        <time>2011-05-01T12:14:54Z</time>
      </trkpt>
      <trkpt lat="59.6615349222" lon="17.2604399733">
        <ele>14.4</ele>
        <time>2011-05-01T12:14:56Z</time>
      </trkpt>
      <trkpt lat="59.6615459863" lon="17.2608989663">
        <ele>16.4</ele>
        <time>2011-05-01T12:14:59Z</time>
      </trkpt>
      <trkpt lat="59.6615519375" lon="17.2613379266">
        <ele>16.8</ele>
        <time>2011-05-01T12:15:02Z</time>
      </trkpt>
      <trkpt lat="59.6615599841" lon="17.2617419343">
        <ele>16.4</ele>
        <time>2011-05-01T12:15:05Z</time>
      </trkpt>
      <trkpt lat="59.6615699586" lon="17.2621379793">
        <ele>14.4</ele>
        <time>2011-05-01T12:15:08Z</time>
      </trkpt>
      <trkpt lat="59.661572976" lon="17.2622709163">
        <ele>14.4</ele>
        <time>2011-05-01T12:15:09Z</time>
      </trkpt>
      <trkpt lat="59.6615829505" lon="17.2626669612">
        <ele>15.4</ele>
        <time>2011-05-01T12:15:12Z</time>
      </trkpt>
      <trkpt lat="59.6615899913" lon="17.2630659398">
        <ele>14</ele>
        <time>2011-05-01T12:15:15Z</time>
      </trkpt>
      <trkpt lat="59.6615989599" lon="17.2634659242">
        <ele>14</ele>
        <time>2011-05-01T12:15:18Z</time>
      </trkpt>
      <trkpt lat="59.6616129577" lon="17.2638389189">
        <ele>15</ele>
        <time>2011-05-01T12:15:21Z</time>
      </trkpt>
      <trkpt lat="59.661629973" lon="17.2641999274">
        <ele>15.4</ele>
        <time>2011-05-01T12:15:24Z</time>
      </trkpt>
      <trkpt lat="59.6616519336" lon="17.2645529732">
        <ele>15.8</ele>
        <time>2011-05-01T12:15:27Z</time>
      </trkpt>
      <trkpt lat="59.6616579685" lon="17.2646669671">
        <ele>14.4</ele>
        <time>2011-05-01T12:15:28Z</time>
      </trkpt>
      <trkpt lat="59.6615639236" lon="17.2650549654">
        <ele>17.4</ele>
        <time>2011-05-01T12:15:32Z</time>
      </trkpt>
      <trkpt lat="59.6614719741" lon="17.2653519362">
        <ele>16.4</ele>
        <time>2011-05-01T12:15:35Z</time>
      </trkpt>
      <trkpt lat="59.6614889894" lon="17.2657189798">
        <ele>16.4</ele>
        <time>2011-05-01T12:15:38Z</time>
      </trkpt>
      <trkpt lat="59.6615469921" lon="17.2662259173">
        <ele>15.4</ele>
        <time>2011-05-01T12:15:42Z</time>
      </trkpt>
      <trkpt lat="59.6615739819" lon="17.2664799727">
        <ele>16.4</ele>
        <time>2011-05-01T12:15:44Z</time>
      </trkpt>
      <trkpt lat="59.6616069227" lon="17.2668399755">
        <ele>16.4</ele>
        <time>2011-05-01T12:15:47Z</time>
      </trkpt>
      <trkpt lat="59.6616329905" lon="17.2671929374">
        <ele>17.4</ele>
        <time>2011-05-01T12:15:50Z</time>
      </trkpt>
      <trkpt lat="59.6616519336" lon="17.2675249446">
        <ele>16.4</ele>
        <time>2011-05-01T12:15:53Z</time>
      </trkpt>
      <trkpt lat="59.661667943" lon="17.267855946">
        <ele>17.4</ele>
        <time>2011-05-01T12:15:56Z</time>
      </trkpt>
      <trkpt lat="59.6616749838" lon="17.2681919765">
        <ele>17.4</ele>
        <time>2011-05-01T12:15:59Z</time>
      </trkpt>
      <trkpt lat="59.6616819408" lon="17.2685309406">
        <ele>18.4</ele>
        <time>2011-05-01T12:16:02Z</time>
      </trkpt>
      <trkpt lat="59.6616849583" lon="17.2688689828">
        <ele>18.8</ele>
        <time>2011-05-01T12:16:05Z</time>
      </trkpt>
      <trkpt lat="59.6616899874" lon="17.2691909317">
        <ele>18.8</ele>
        <time>2011-05-01T12:16:08Z</time>
      </trkpt>
      <trkpt lat="59.6616889816" lon="17.2695189994">
        <ele>19.2</ele>
        <time>2011-05-01T12:16:11Z</time>
      </trkpt>
      <trkpt lat="59.6616939269" lon="17.2698499169">
        <ele>20.8</ele>
        <time>2011-05-01T12:16:14Z</time>
      </trkpt>
      <trkpt lat="59.6616929211" lon="17.2701659985">
        <ele>22.2</ele>
        <time>2011-05-01T12:16:17Z</time>
      </trkpt>
      <trkpt lat="59.6616929211" lon="17.2702629771">
        <ele>22.2</ele>
        <time>2011-05-01T12:16:18Z</time>
      </trkpt>
      <trkpt lat="59.6616959386" lon="17.2706449404">
        <ele>23.6</ele>
        <time>2011-05-01T12:16:22Z</time>
      </trkpt>
      <trkpt lat="59.6617039852" lon="17.2710349504">
        <ele>24</ele>
        <time>2011-05-01T12:16:26Z</time>
      </trkpt>
      <trkpt lat="59.6617079247" lon="17.2713359445">
        <ele>24.6</ele>
        <time>2011-05-01T12:16:29Z</time>
      </trkpt>
      <trkpt lat="59.6617139596" lon="17.2717269603">
        <ele>25.6</ele>
        <time>2011-05-01T12:16:33Z</time>
      </trkpt>
      <trkpt lat="59.661717983" lon="17.2721049841">
        <ele>27</ele>
        <time>2011-05-01T12:16:37Z</time>
      </trkpt>
      <trkpt lat="59.6617219225" lon="17.2724519949">
        <ele>27</ele>
        <time>2011-05-01T12:16:41Z</time>
      </trkpt>
      <trkpt lat="59.6617279574" lon="17.2728009336">
        <ele>29.4</ele>
        <time>2011-05-01T12:16:45Z</time>
      </trkpt>
      <trkpt lat="59.6617329866" lon="17.2731609363">
        <ele>28.8</ele>
        <time>2011-05-01T12:16:49Z</time>
      </trkpt>
      <trkpt lat="59.6617359202" lon="17.2735249624">
        <ele>30.4</ele>
        <time>2011-05-01T12:16:53Z</time>
      </trkpt>
      <trkpt lat="59.6617449727" lon="17.2738999687">
        <ele>30.8</ele>
        <time>2011-05-01T12:16:57Z</time>
      </trkpt>
      <trkpt lat="59.6617479902" lon="17.274287967">
        <ele>31.8</ele>
        <time>2011-05-01T12:17:01Z</time>
      </trkpt>
      <trkpt lat="59.6617549472" lon="17.2745869495">
        <ele>32.2</ele>
        <time>2011-05-01T12:17:04Z</time>
      </trkpt>
      <trkpt lat="59.6617609821" lon="17.2749799769">
        <ele>33.2</ele>
        <time>2011-05-01T12:17:08Z</time>
      </trkpt>
      <trkpt lat="59.6617679391" lon="17.2752819769">
        <ele>33.2</ele>
        <time>2011-05-01T12:17:11Z</time>
      </trkpt>
      <trkpt lat="59.6617769916" lon="17.2756689694">
        <ele>34.2</ele>
        <time>2011-05-01T12:17:15Z</time>
      </trkpt>
      <trkpt lat="59.6617819369" lon="17.2760449816">
        <ele>35.2</ele>
        <time>2011-05-01T12:17:19Z</time>
      </trkpt>
      <trkpt lat="59.6617899835" lon="17.2764379252">
        <ele>36</ele>
        <time>2011-05-01T12:17:23Z</time>
      </trkpt>
      <trkpt lat="59.6617929172" lon="17.2767449543">
        <ele>36.6</ele>
        <time>2011-05-01T12:17:26Z</time>
      </trkpt>
      <trkpt lat="59.6617949288" lon="17.277066987">
        <ele>37</ele>
        <time>2011-05-01T12:17:29Z</time>
      </trkpt>
      <trkpt lat="59.6618039813" lon="17.2773969825">
        <ele>38</ele>
        <time>2011-05-01T12:17:32Z</time>
      </trkpt>
      <trkpt lat="59.6618119441" lon="17.2777309176">
        <ele>37</ele>
        <time>2011-05-01T12:17:35Z</time>
      </trkpt>
      <trkpt lat="59.6618179791" lon="17.2780659422">
        <ele>38</ele>
        <time>2011-05-01T12:17:38Z</time>
      </trkpt>
      <trkpt lat="59.6618229244" lon="17.2784009669">
        <ele>38</ele>
        <time>2011-05-01T12:17:41Z</time>
      </trkpt>
      <trkpt lat="59.6618289594" lon="17.2787479777">
        <ele>39</ele>
        <time>2011-05-01T12:17:44Z</time>
      </trkpt>
      <trkpt lat="59.6618339885" lon="17.279098928">
        <ele>39.4</ele>
        <time>2011-05-01T12:17:47Z</time>
      </trkpt>
      <trkpt lat="59.6618389338" lon="17.2794589307">
        <ele>39</ele>
        <time>2011-05-01T12:17:50Z</time>
      </trkpt>
      <trkpt lat="59.6618469805" lon="17.2798289917">
        <ele>38.4</ele>
        <time>2011-05-01T12:17:53Z</time>
      </trkpt>
      <trkpt lat="59.6618529316" lon="17.2801959515">
        <ele>38.4</ele>
        <time>2011-05-01T12:17:56Z</time>
      </trkpt>
      <trkpt lat="59.6618569549" lon="17.2805549484">
        <ele>38</ele>
        <time>2011-05-01T12:17:59Z</time>
      </trkpt>
      <trkpt lat="59.6618559491" lon="17.2809149511">
        <ele>40</ele>
        <time>2011-05-01T12:18:02Z</time>
      </trkpt>
      <trkpt lat="59.6618519258" lon="17.2812819947">
        <ele>39.4</ele>
        <time>2011-05-01T12:18:05Z</time>
      </trkpt>
      <trkpt lat="59.6618579607" lon="17.2816589288">
        <ele>39.4</ele>
        <time>2011-05-01T12:18:08Z</time>
      </trkpt>
      <trkpt lat="59.6618649177" lon="17.2820559796">
        <ele>40</ele>
        <time>2011-05-01T12:18:11Z</time>
      </trkpt>
      <trkpt lat="59.6618719585" lon="17.2824639268">
        <ele>40.4</ele>
        <time>2011-05-01T12:18:14Z</time>
      </trkpt>
      <trkpt lat="59.6618829388" lon="17.2828799207">
        <ele>40</ele>
        <time>2011-05-01T12:18:17Z</time>
      </trkpt>
      <trkpt lat="59.6618919913" lon="17.283298932">
        <ele>40</ele>
        <time>2011-05-01T12:18:20Z</time>
      </trkpt>
      <trkpt lat="59.6618989483" lon="17.2837309353">
        <ele>40</ele>
        <time>2011-05-01T12:18:23Z</time>
      </trkpt>
      <trkpt lat="59.6619019657" lon="17.2841759305">
        <ele>39</ele>
        <time>2011-05-01T12:18:26Z</time>
      </trkpt>
      <trkpt lat="59.6619079169" lon="17.2846389469">
        <ele>37.6</ele>
        <time>2011-05-01T12:18:29Z</time>
      </trkpt>
      <trkpt lat="59.6619119402" lon="17.2851039749">
        <ele>37.6</ele>
        <time>2011-05-01T12:18:32Z</time>
      </trkpt>
      <trkpt lat="59.6619179752" lon="17.2855619621">
        <ele>37.6</ele>
        <time>2011-05-01T12:18:35Z</time>
      </trkpt>
      <trkpt lat="59.6619239263" lon="17.2860099748">
        <ele>38.4</ele>
        <time>2011-05-01T12:18:38Z</time>
      </trkpt>
      <trkpt lat="59.6619279496" lon="17.2864359431">
        <ele>39.4</ele>
        <time>2011-05-01T12:18:41Z</time>
      </trkpt>
      <trkpt lat="59.6619309671" lon="17.2868579719">
        <ele>39</ele>
        <time>2011-05-01T12:18:44Z</time>
      </trkpt>
      <trkpt lat="59.6619349904" lon="17.2872709483">
        <ele>39</ele>
        <time>2011-05-01T12:18:47Z</time>
      </trkpt>
      <trkpt lat="59.6619309671" lon="17.2876779735">
        <ele>40</ele>
        <time>2011-05-01T12:18:50Z</time>
      </trkpt>
      <trkpt lat="59.6619159635" lon="17.2880829871">
        <ele>40.4</ele>
        <time>2011-05-01T12:18:53Z</time>
      </trkpt>
      <trkpt lat="59.6619009599" lon="17.2885019984">
        <ele>40.4</ele>
        <time>2011-05-01T12:18:56Z</time>
      </trkpt>
      <trkpt lat="59.661887968" lon="17.2889169864">
        <ele>40.4</ele>
        <time>2011-05-01T12:18:59Z</time>
      </trkpt>
      <trkpt lat="59.6618729644" lon="17.289315965">
        <ele>40.4</ele>
        <time>2011-05-01T12:19:02Z</time>
      </trkpt>
      <trkpt lat="59.6618589666" lon="17.2897149436">
        <ele>40.4</ele>
        <time>2011-05-01T12:19:05Z</time>
      </trkpt>
      <trkpt lat="59.6618419513" lon="17.2900969908">
        <ele>40.4</ele>
        <time>2011-05-01T12:19:08Z</time>
      </trkpt>
      <trkpt lat="59.6618239302" lon="17.2904749308">
        <ele>40.8</ele>
        <time>2011-05-01T12:19:11Z</time>
      </trkpt>
      <trkpt lat="59.6618099324" lon="17.2908639349">
        <ele>40.4</ele>
        <time>2011-05-01T12:19:14Z</time>
      </trkpt>
      <trkpt lat="59.6617919952" lon="17.2912439704">
        <ele>41.8</ele>
        <time>2011-05-01T12:19:17Z</time>
      </trkpt>
      <trkpt lat="59.6617719624" lon="17.2916229162">
        <ele>40.4</ele>
        <time>2011-05-01T12:19:20Z</time>
      </trkpt>
      <trkpt lat="59.6617569588" lon="17.2919969168">
        <ele>41.4</ele>
        <time>2011-05-01T12:19:23Z</time>
      </trkpt>
      <trkpt lat="59.6617399435" lon="17.2923669778">
        <ele>42.4</ele>
        <time>2011-05-01T12:19:26Z</time>
      </trkpt>
      <trkpt lat="59.6617229283" lon="17.2927479353">
        <ele>41.4</ele>
        <time>2011-05-01T12:19:29Z</time>
      </trkpt>
      <trkpt lat="59.6617109422" lon="17.2931389511">
        <ele>41.4</ele>
        <time>2011-05-01T12:19:32Z</time>
      </trkpt>
      <trkpt lat="59.6616969444" lon="17.2935309727">
        <ele>42.4</ele>
        <time>2011-05-01T12:19:35Z</time>
      </trkpt>
      <trkpt lat="59.6616839524" lon="17.2939209826">
        <ele>40.4</ele>
        <time>2011-05-01T12:19:38Z</time>
      </trkpt>
      <trkpt lat="59.6616789233" lon="17.2940559313">
        <ele>40.4</ele>
        <time>2011-05-01T12:19:39Z</time>
      </trkpt>
      <trkpt lat="59.661660986" lon="17.2944639623">
        <ele>40.4</ele>
        <time>2011-05-01T12:19:42Z</time>
      </trkpt>
      <trkpt lat="59.6616379358" lon="17.2948699817">
        <ele>42.4</ele>
        <time>2011-05-01T12:19:45Z</time>
      </trkpt>
      <trkpt lat="59.6616249438" lon="17.2951469198">
        <ele>43.2</ele>
        <time>2011-05-01T12:19:47Z</time>
      </trkpt>
      <trkpt lat="59.6616119519" lon="17.2955729719">
        <ele>43.2</ele>
        <time>2011-05-01T12:19:50Z</time>
      </trkpt>
      <trkpt lat="59.6615989599" lon="17.2960049752">
        <ele>43.2</ele>
        <time>2011-05-01T12:19:53Z</time>
      </trkpt>
      <trkpt lat="59.6615879796" lon="17.2964559216">
        <ele>42.4</ele>
        <time>2011-05-01T12:19:56Z</time>
      </trkpt>
      <trkpt lat="59.6615819447" lon="17.2969229612">
        <ele>40.4</ele>
        <time>2011-05-01T12:19:59Z</time>
      </trkpt>
      <trkpt lat="59.6615759935" lon="17.2974159848">
        <ele>40</ele>
        <time>2011-05-01T12:20:02Z</time>
      </trkpt>
      <trkpt lat="59.6615739819" lon="17.2979329806">
        <ele>39</ele>
        <time>2011-05-01T12:20:05Z</time>
      </trkpt>
      <trkpt lat="59.661572976" lon="17.2982859425">
        <ele>37.6</ele>
        <time>2011-05-01T12:20:07Z</time>
      </trkpt>
      <trkpt lat="59.6615709644" lon="17.2988159303">
        <ele>35.2</ele>
        <time>2011-05-01T12:20:10Z</time>
      </trkpt>
      <trkpt lat="59.6615679469" lon="17.2993539646">
        <ele>34.6</ele>
        <time>2011-05-01T12:20:13Z</time>
      </trkpt>
      <trkpt lat="59.6615689527" lon="17.2999159712">
        <ele>35.2</ele>
        <time>2011-05-01T12:20:16Z</time>
      </trkpt>
      <trkpt lat="59.6615739819" lon="17.3004619684">
        <ele>34.6</ele>
        <time>2011-05-01T12:20:19Z</time>
      </trkpt>
      <trkpt lat="59.6615739819" lon="17.3010109831">
        <ele>34.6</ele>
        <time>2011-05-01T12:20:22Z</time>
      </trkpt>
      <trkpt lat="59.6615759935" lon="17.3015599977">
        <ele>33.6</ele>
        <time>2011-05-01T12:20:25Z</time>
      </trkpt>
      <trkpt lat="59.6615739819" lon="17.3020999599">
        <ele>33.2</ele>
        <time>2011-05-01T12:20:28Z</time>
      </trkpt>
      <trkpt lat="59.6615759935" lon="17.3026299477">
        <ele>32.8</ele>
        <time>2011-05-01T12:20:31Z</time>
      </trkpt>
      <trkpt lat="59.661572976" lon="17.3031619471">
        <ele>33.2</ele>
        <time>2011-05-01T12:20:34Z</time>
      </trkpt>
      <trkpt lat="59.6615669411" lon="17.3036959581">
        <ele>32.2</ele>
        <time>2011-05-01T12:20:37Z</time>
      </trkpt>
      <trkpt lat="59.6615639236" lon="17.3042299692">
        <ele>31.8</ele>
        <time>2011-05-01T12:20:40Z</time>
      </trkpt>
      <trkpt lat="59.6615599841" lon="17.3047549278">
        <ele>31.8</ele>
        <time>2011-05-01T12:20:43Z</time>
      </trkpt>
      <trkpt lat="59.6615569666" lon="17.3052829877">
        <ele>30.8</ele>
        <time>2011-05-01T12:20:46Z</time>
      </trkpt>
      <trkpt lat="59.6615589783" lon="17.3058099579">
        <ele>30.4</ele>
        <time>2011-05-01T12:20:49Z</time>
      </trkpt>
      <trkpt lat="59.6615559608" lon="17.3063269537">
        <ele>30.8</ele>
        <time>2011-05-01T12:20:52Z</time>
      </trkpt>
      <trkpt lat="59.6615529433" lon="17.3068259284">
        <ele>29.8</ele>
        <time>2011-05-01T12:20:55Z</time>
      </trkpt>
      <trkpt lat="59.6615539491" lon="17.3073249869">
        <ele>32.2</ele>
        <time>2011-05-01T12:20:58Z</time>
      </trkpt>
      <trkpt lat="59.6615519375" lon="17.3078209441">
        <ele>32.8</ele>
        <time>2011-05-01T12:21:01Z</time>
      </trkpt>
      <trkpt lat="59.6615519375" lon="17.3079879954">
        <ele>32.8</ele>
        <time>2011-05-01T12:21:02Z</time>
      </trkpt>
      <trkpt lat="59.6615519375" lon="17.3084939271">
        <ele>31.8</ele>
        <time>2011-05-01T12:21:05Z</time>
      </trkpt>
      <trkpt lat="59.6615529433" lon="17.3089959193">
        <ele>29.8</ele>
        <time>2011-05-01T12:21:08Z</time>
      </trkpt>
      <trkpt lat="59.6615569666" lon="17.3095059581">
        <ele>30.8</ele>
        <time>2011-05-01T12:21:11Z</time>
      </trkpt>
      <trkpt lat="59.6615589783" lon="17.3100159969">
        <ele>31.8</ele>
        <time>2011-05-01T12:21:14Z</time>
      </trkpt>
      <trkpt lat="59.6615589783" lon="17.31051296">
        <ele>30.8</ele>
        <time>2011-05-01T12:21:17Z</time>
      </trkpt>
      <trkpt lat="59.6615609899" lon="17.3110009544">
        <ele>31.8</ele>
        <time>2011-05-01T12:21:20Z</time>
      </trkpt>
      <trkpt lat="59.6615629178" lon="17.3114799801">
        <ele>30.8</ele>
        <time>2011-05-01T12:21:23Z</time>
      </trkpt>
      <trkpt lat="59.6615619957" lon="17.3119569942">
        <ele>30.4</ele>
        <time>2011-05-01T12:21:26Z</time>
      </trkpt>
      <trkpt lat="59.6615619957" lon="17.3124269675">
        <ele>29.8</ele>
        <time>2011-05-01T12:21:29Z</time>
      </trkpt>
      <trkpt lat="59.6615589783" lon="17.3128919955">
        <ele>29.4</ele>
        <time>2011-05-01T12:21:32Z</time>
      </trkpt>
      <trkpt lat="59.6615569666" lon="17.3133569397">
        <ele>29.4</ele>
        <time>2011-05-01T12:21:35Z</time>
      </trkpt>
      <trkpt lat="59.6615549549" lon="17.3138189502">
        <ele>27</ele>
        <time>2011-05-01T12:21:38Z</time>
      </trkpt>
      <trkpt lat="59.6615549549" lon="17.3142769374">
        <ele>24.6</ele>
        <time>2011-05-01T12:21:41Z</time>
      </trkpt>
      <trkpt lat="59.6615539491" lon="17.3147239443">
        <ele>25.6</ele>
        <time>2011-05-01T12:21:44Z</time>
      </trkpt>
      <trkpt lat="59.6615539491" lon="17.3150199931">
        <ele>27</ele>
        <time>2011-05-01T12:21:46Z</time>
      </trkpt>
      <trkpt lat="59.6615529433" lon="17.3154579476">
        <ele>28</ele>
        <time>2011-05-01T12:21:49Z</time>
      </trkpt>
      <trkpt lat="59.6615539491" lon="17.3158809822">
        <ele>28.4</ele>
        <time>2011-05-01T12:21:52Z</time>
      </trkpt>
      <trkpt lat="59.6615539491" lon="17.3161609378">
        <ele>28.8</ele>
        <time>2011-05-01T12:21:54Z</time>
      </trkpt>
      <trkpt lat="59.6615539491" lon="17.3165789433">
        <ele>28.4</ele>
        <time>2011-05-01T12:21:57Z</time>
      </trkpt>
      <trkpt lat="59.6615539491" lon="17.3169859685">
        <ele>28.4</ele>
        <time>2011-05-01T12:22:00Z</time>
      </trkpt>
      <trkpt lat="59.6615529433" lon="17.3173809238">
        <ele>28.8</ele>
        <time>2011-05-01T12:22:03Z</time>
      </trkpt>
      <trkpt lat="59.6615549549" lon="17.3177649826">
        <ele>29.8</ele>
        <time>2011-05-01T12:22:06Z</time>
      </trkpt>
      <trkpt lat="59.6615549549" lon="17.3181509692">
        <ele>29.4</ele>
        <time>2011-05-01T12:22:09Z</time>
      </trkpt>
      <trkpt lat="59.6615519375" lon="17.3185539711">
        <ele>29.4</ele>
        <time>2011-05-01T12:22:12Z</time>
      </trkpt>
      <trkpt lat="59.6615469921" lon="17.3189709708">
        <ele>30.4</ele>
        <time>2011-05-01T12:22:15Z</time>
      </trkpt>
      <trkpt lat="59.6615329944" lon="17.3193899821">
        <ele>28.8</ele>
        <time>2011-05-01T12:22:18Z</time>
      </trkpt>
      <trkpt lat="59.6615059208" lon="17.3198039643">
        <ele>29.4</ele>
        <time>2011-05-01T12:22:21Z</time>
      </trkpt>
      <trkpt lat="59.6614379436" lon="17.320472924">
        <ele>31.2</ele>
        <time>2011-05-01T12:22:26Z</time>
      </trkpt>
      <trkpt lat="59.6613669489" lon="17.3209999781">
        <ele>30.4</ele>
        <time>2011-05-01T12:22:30Z</time>
      </trkpt>
      <trkpt lat="59.6613059286" lon="17.3213959392">
        <ele>30.4</ele>
        <time>2011-05-01T12:22:33Z</time>
      </trkpt>
      <trkpt lat="59.6612389572" lon="17.3217959236">
        <ele>30.4</ele>
        <time>2011-05-01T12:22:36Z</time>
      </trkpt>
      <trkpt lat="59.6611729916" lon="17.3221939802">
        <ele>31.2</ele>
        <time>2011-05-01T12:22:39Z</time>
      </trkpt>
      <trkpt lat="59.6611049306" lon="17.3225989938">
        <ele>32.2</ele>
        <time>2011-05-01T12:22:42Z</time>
      </trkpt>
      <trkpt lat="59.6610319242" lon="17.3230279796">
        <ele>30.8</ele>
        <time>2011-05-01T12:22:45Z</time>
      </trkpt>
      <trkpt lat="59.66095699" lon="17.323465934">
        <ele>29.8</ele>
        <time>2011-05-01T12:22:48Z</time>
      </trkpt>
      <trkpt lat="59.6608829778" lon="17.3238969315">
        <ele>31.2</ele>
        <time>2011-05-01T12:22:51Z</time>
      </trkpt>
      <trkpt lat="59.6608089656" lon="17.3243239895">
        <ele>29.8</ele>
        <time>2011-05-01T12:22:54Z</time>
      </trkpt>
      <trkpt lat="59.6607359592" lon="17.3247459345">
        <ele>30.4</ele>
        <time>2011-05-01T12:22:57Z</time>
      </trkpt>
      <trkpt lat="59.6606659703" lon="17.3251609225">
        <ele>30.8</ele>
        <time>2011-05-01T12:23:00Z</time>
      </trkpt>
      <trkpt lat="59.6605909523" lon="17.3255799338">
        <ele>29.4</ele>
        <time>2011-05-01T12:23:03Z</time>
      </trkpt>
      <trkpt lat="59.6605249867" lon="17.3259959277">
        <ele>29.4</ele>
        <time>2011-05-01T12:23:06Z</time>
      </trkpt>
      <trkpt lat="59.6604589373" lon="17.3263979238">
        <ele>31.8</ele>
        <time>2011-05-01T12:23:09Z</time>
      </trkpt>
      <trkpt lat="59.6603899542" lon="17.3268009257">
        <ele>31.8</ele>
        <time>2011-05-01T12:23:12Z</time>
      </trkpt>
      <trkpt lat="59.660321977" lon="17.3272029217">
        <ele>32.8</ele>
        <time>2011-05-01T12:23:15Z</time>
      </trkpt>
      <trkpt lat="59.6602539998" lon="17.327596955">
        <ele>31.8</ele>
        <time>2011-05-01T12:23:18Z</time>
      </trkpt>
      <trkpt lat="59.6601869445" lon="17.3280089255">
        <ele>31.2</ele>
        <time>2011-05-01T12:23:21Z</time>
      </trkpt>
      <trkpt lat="59.6601139382" lon="17.3284469638">
        <ele>29.8</ele>
        <time>2011-05-01T12:23:24Z</time>
      </trkpt>
      <trkpt lat="59.6600319631" lon="17.3289059568">
        <ele>28</ele>
        <time>2011-05-01T12:23:27Z</time>
      </trkpt>
      <trkpt lat="59.6599459648" lon="17.329376936">
        <ele>26.4</ele>
        <time>2011-05-01T12:23:30Z</time>
      </trkpt>
      <trkpt lat="59.6598509979" lon="17.3298679478">
        <ele>27.4</ele>
        <time>2011-05-01T12:23:33Z</time>
      </trkpt>
      <trkpt lat="59.6598199848" lon="17.3300399445">
        <ele>27.4</ele>
        <time>2011-05-01T12:23:34Z</time>
      </trkpt>
      <trkpt lat="59.6597319748" lon="17.3305509891">
        <ele>28</ele>
        <time>2011-05-01T12:23:37Z</time>
      </trkpt>
      <trkpt lat="59.6596479882" lon="17.3310329486">
        <ele>28</ele>
        <time>2011-05-01T12:23:40Z</time>
      </trkpt>
      <trkpt lat="59.6595699526" lon="17.3315109685">
        <ele>26</ele>
        <time>2011-05-01T12:23:43Z</time>
      </trkpt>
      <trkpt lat="59.659516979" lon="17.3318319954">
        <ele>25.6</ele>
        <time>2011-05-01T12:23:45Z</time>
      </trkpt>
      <trkpt lat="59.6594349202" lon="17.3323009629">
        <ele>27.4</ele>
        <time>2011-05-01T12:23:48Z</time>
      </trkpt>
      <trkpt lat="59.659353951" lon="17.3327659909">
        <ele>27</ele>
        <time>2011-05-01T12:23:51Z</time>
      </trkpt>
      <trkpt lat="59.6592759993" lon="17.3332299292">
        <ele>28</ele>
        <time>2011-05-01T12:23:54Z</time>
      </trkpt>
      <trkpt lat="59.6591969579" lon="17.3336939514">
        <ele>28.4</ele>
        <time>2011-05-01T12:23:57Z</time>
      </trkpt>
      <trkpt lat="59.6591159888" lon="17.3341599852">
        <ele>28</ele>
        <time>2011-05-01T12:24:00Z</time>
      </trkpt>
      <trkpt lat="59.659064943" lon="17.3344659247">
        <ele>27</ele>
        <time>2011-05-01T12:24:02Z</time>
      </trkpt>
      <trkpt lat="59.6589889191" lon="17.3349309526">
        <ele>28</ele>
        <time>2011-05-01T12:24:05Z</time>
      </trkpt>
      <trkpt lat="59.6589099616" lon="17.3354019318">
        <ele>27.4</ele>
        <time>2011-05-01T12:24:08Z</time>
      </trkpt>
      <trkpt lat="59.6588309202" lon="17.3358769342">
        <ele>27</ele>
        <time>2011-05-01T12:24:11Z</time>
      </trkpt>
      <trkpt lat="59.658749951" lon="17.3363419622">
        <ele>26</ele>
        <time>2011-05-01T12:24:14Z</time>
      </trkpt>
      <trkpt lat="59.6586709935" lon="17.3367989436">
        <ele>26.4</ele>
        <time>2011-05-01T12:24:17Z</time>
      </trkpt>
      <trkpt lat="59.6585969813" lon="17.3372519854">
        <ele>26</ele>
        <time>2011-05-01T12:24:20Z</time>
      </trkpt>
      <trkpt lat="59.65851794" lon="17.3377039377">
        <ele>23.6</ele>
        <time>2011-05-01T12:24:23Z</time>
      </trkpt>
      <trkpt lat="59.6584459394" lon="17.3381559737">
        <ele>23.2</ele>
        <time>2011-05-01T12:24:26Z</time>
      </trkpt>
      <trkpt lat="59.6583699994" lon="17.3386099376">
        <ele>23.2</ele>
        <time>2011-05-01T12:24:29Z</time>
      </trkpt>
      <trkpt lat="59.658296993" lon="17.3390719481">
        <ele>22.2</ele>
        <time>2011-05-01T12:24:32Z</time>
      </trkpt>
      <trkpt lat="59.658221975" lon="17.339549968">
        <ele>23.2</ele>
        <time>2011-05-01T12:24:35Z</time>
      </trkpt>
      <trkpt lat="59.658133965" lon="17.3400369566">
        <ele>22.2</ele>
        <time>2011-05-01T12:24:38Z</time>
      </trkpt>
      <trkpt lat="59.6580339689" lon="17.340524951">
        <ele>21.2</ele>
        <time>2011-05-01T12:24:41Z</time>
      </trkpt>
      <trkpt lat="59.6579689253" lon="17.340857964">
        <ele>23.6</ele>
        <time>2011-05-01T12:24:43Z</time>
      </trkpt>
      <trkpt lat="59.6578719467" lon="17.3413499817">
        <ele>23.2</ele>
        <time>2011-05-01T12:24:46Z</time>
      </trkpt>
      <trkpt lat="59.6577659994" lon="17.3418249842">
        <ele>23.6</ele>
        <time>2011-05-01T12:24:49Z</time>
      </trkpt>
      <trkpt lat="59.6576579567" lon="17.3422869947">
        <ele>22.6</ele>
        <time>2011-05-01T12:24:52Z</time>
      </trkpt>
      <trkpt lat="59.6575529315" lon="17.3427399527">
        <ele>21.6</ele>
        <time>2011-05-01T12:24:55Z</time>
      </trkpt>
      <trkpt lat="59.6574519295" lon="17.3431879655">
        <ele>22.2</ele>
        <time>2011-05-01T12:24:58Z</time>
      </trkpt>
      <trkpt lat="59.6573479939" lon="17.3436379898">
        <ele>21.6</ele>
        <time>2011-05-01T12:25:01Z</time>
      </trkpt>
      <trkpt lat="59.6572439745" lon="17.3440969829">
        <ele>20.8</ele>
        <time>2011-05-01T12:25:04Z</time>
      </trkpt>
      <trkpt lat="59.6571369376" lon="17.3445599992">
        <ele>20.8</ele>
        <time>2011-05-01T12:25:07Z</time>
      </trkpt>
      <trkpt lat="59.6570249554" lon="17.345019998">
        <ele>21.6</ele>
        <time>2011-05-01T12:25:10Z</time>
      </trkpt>
      <trkpt lat="59.656920936" lon="17.3454599641">
        <ele>21.2</ele>
        <time>2011-05-01T12:25:13Z</time>
      </trkpt>
      <trkpt lat="59.6568249632" lon="17.3458809871">
        <ele>21.6</ele>
        <time>2011-05-01T12:25:16Z</time>
      </trkpt>
      <trkpt lat="59.6567309182" lon="17.3462949693">
        <ele>21.2</ele>
        <time>2011-05-01T12:25:19Z</time>
      </trkpt>
      <trkpt lat="59.6566379629" lon="17.3467079457">
        <ele>22.2</ele>
        <time>2011-05-01T12:25:22Z</time>
      </trkpt>
      <trkpt lat="59.6565429959" lon="17.3471179884">
        <ele>22.6</ele>
        <time>2011-05-01T12:25:25Z</time>
      </trkpt>
      <trkpt lat="59.6564479452" lon="17.3475259356">
        <ele>22.6</ele>
        <time>2011-05-01T12:25:28Z</time>
      </trkpt>
      <trkpt lat="59.6563559957" lon="17.3479569331">
        <ele>22.2</ele>
        <time>2011-05-01T12:25:31Z</time>
      </trkpt>
      <trkpt lat="59.6562599391" lon="17.3483799677">
        <ele>21.6</ele>
        <time>2011-05-01T12:25:34Z</time>
      </trkpt>
      <trkpt lat="59.6561659779" lon="17.3487939499">
        <ele>23.2</ele>
        <time>2011-05-01T12:25:37Z</time>
      </trkpt>
      <trkpt lat="59.6560679935" lon="17.349208938">
        <ele>21.6</ele>
        <time>2011-05-01T12:25:40Z</time>
      </trkpt>
      <trkpt lat="59.6559669916" lon="17.3496289551">
        <ele>21.6</ele>
        <time>2011-05-01T12:25:43Z</time>
      </trkpt>
      <trkpt lat="59.6558679175" lon="17.3500619642">
        <ele>19.8</ele>
        <time>2011-05-01T12:25:46Z</time>
      </trkpt>
      <trkpt lat="59.6557679214" lon="17.3505079653">
        <ele>19.2</ele>
        <time>2011-05-01T12:25:49Z</time>
      </trkpt>
      <trkpt lat="59.655656945" lon="17.3509669583">
        <ele>20.2</ele>
        <time>2011-05-01T12:25:52Z</time>
      </trkpt>
      <trkpt lat="59.6555509977" lon="17.35143492">
        <ele>19.2</ele>
        <time>2011-05-01T12:25:55Z</time>
      </trkpt>
      <trkpt lat="59.6554449666" lon="17.3518989421">
        <ele>18.4</ele>
        <time>2011-05-01T12:25:58Z</time>
      </trkpt>
      <trkpt lat="59.6553399414" lon="17.3523479607">
        <ele>18.4</ele>
        <time>2011-05-01T12:26:01Z</time>
      </trkpt>
      <trkpt lat="59.6552399453" lon="17.3527909443">
        <ele>18.4</ele>
        <time>2011-05-01T12:26:04Z</time>
      </trkpt>
      <trkpt lat="59.6551389433" lon="17.3532219417">
        <ele>17.8</ele>
        <time>2011-05-01T12:26:07Z</time>
      </trkpt>
      <trkpt lat="59.6550389472" lon="17.353653945">
        <ele>17.8</ele>
        <time>2011-05-01T12:26:10Z</time>
      </trkpt>
      <trkpt lat="59.6549389511" lon="17.3540789913">
        <ele>17.4</ele>
        <time>2011-05-01T12:26:13Z</time>
      </trkpt>
      <trkpt lat="59.6548429783" lon="17.3545129225">
        <ele>16.4</ele>
        <time>2011-05-01T12:26:16Z</time>
      </trkpt>
      <trkpt lat="59.6547439881" lon="17.3549409863">
        <ele>15</ele>
        <time>2011-05-01T12:26:19Z</time>
      </trkpt>
      <trkpt lat="59.6546429861" lon="17.3553679604">
        <ele>16.4</ele>
        <time>2011-05-01T12:26:22Z</time>
      </trkpt>
      <trkpt lat="59.6545449179" lon="17.3557959404">
        <ele>15.8</ele>
        <time>2011-05-01T12:26:25Z</time>
      </trkpt>
      <trkpt lat="59.6544469334" lon="17.356225932">
        <ele>16.8</ele>
        <time>2011-05-01T12:26:28Z</time>
      </trkpt>
      <trkpt lat="59.6543499548" lon="17.3566489667">
        <ele>16.8</ele>
        <time>2011-05-01T12:26:31Z</time>
      </trkpt>
      <trkpt lat="59.654253982" lon="17.3570649605">
        <ele>16.4</ele>
        <time>2011-05-01T12:26:34Z</time>
      </trkpt>
      <trkpt lat="59.6541579254" lon="17.3574839719">
        <ele>15.8</ele>
        <time>2011-05-01T12:26:37Z</time>
      </trkpt>
      <trkpt lat="59.6540599409" lon="17.3579019774">
        <ele>16.4</ele>
        <time>2011-05-01T12:26:40Z</time>
      </trkpt>
      <trkpt lat="59.6539639682" lon="17.3583149537">
        <ele>16.4</ele>
        <time>2011-05-01T12:26:43Z</time>
      </trkpt>
      <trkpt lat="59.6538669895" lon="17.3587369826">
        <ele>16.4</ele>
        <time>2011-05-01T12:26:46Z</time>
      </trkpt>
      <trkpt lat="59.6537699271" lon="17.3591669742">
        <ele>14.4</ele>
        <time>2011-05-01T12:26:49Z</time>
      </trkpt>
      <trkpt lat="59.6536729485" lon="17.3595989775">
        <ele>14.4</ele>
        <time>2011-05-01T12:26:52Z</time>
      </trkpt>
      <trkpt lat="59.6535789873" lon="17.3600129597">
        <ele>14.4</ele>
        <time>2011-05-01T12:26:55Z</time>
      </trkpt>
      <trkpt lat="59.6534889657" lon="17.3604239244">
        <ele>15</ele>
        <time>2011-05-01T12:26:58Z</time>
      </trkpt>
      <trkpt lat="59.6534609701" lon="17.3605629802">
        <ele>15</ele>
        <time>2011-05-01T12:26:59Z</time>
      </trkpt>
      <trkpt lat="59.6533819288" lon="17.3609819915">
        <ele>16.8</ele>
        <time>2011-05-01T12:27:02Z</time>
      </trkpt>
      <trkpt lat="59.6533109341" lon="17.361412989">
        <ele>16.8</ele>
        <time>2011-05-01T12:27:05Z</time>
      </trkpt>
      <trkpt lat="59.6532489918" lon="17.3618569784">
        <ele>16.8</ele>
        <time>2011-05-01T12:27:08Z</time>
      </trkpt>
      <trkpt lat="59.6531959344" lon="17.3623109423">
        <ele>16.4</ele>
        <time>2011-05-01T12:27:11Z</time>
      </trkpt>
      <trkpt lat="59.6531489957" lon="17.3627789877">
        <ele>15</ele>
        <time>2011-05-01T12:27:14Z</time>
      </trkpt>
      <trkpt lat="59.6531089302" lon="17.363261953">
        <ele>14.4</ele>
        <time>2011-05-01T12:27:17Z</time>
      </trkpt>
      <trkpt lat="59.6530759893" lon="17.3637599219">
        <ele>14.4</ele>
        <time>2011-05-01T12:27:20Z</time>
      </trkpt>
      <trkpt lat="59.6530509274" lon="17.3642759956">
        <ele>15</ele>
        <time>2011-05-01T12:27:23Z</time>
      </trkpt>
      <trkpt lat="59.6530389413" lon="17.3648069892">
        <ele>15.4</ele>
        <time>2011-05-01T12:27:26Z</time>
      </trkpt>
      <trkpt lat="59.6530399472" lon="17.3653409164">
        <ele>14</ele>
        <time>2011-05-01T12:27:29Z</time>
      </trkpt>
      <trkpt lat="59.6530479938" lon="17.3658949602">
        <ele>14.4</ele>
        <time>2011-05-01T12:27:32Z</time>
      </trkpt>
      <trkpt lat="59.6530589741" lon="17.3664609902">
        <ele>14</ele>
        <time>2011-05-01T12:27:35Z</time>
      </trkpt>
      <trkpt lat="59.6530729719" lon="17.3670079932">
        <ele>13</ele>
        <time>2011-05-01T12:27:38Z</time>
      </trkpt>
      <trkpt lat="59.6530829463" lon="17.3675479554">
        <ele>13.4</ele>
        <time>2011-05-01T12:27:41Z</time>
      </trkpt>
      <trkpt lat="59.6530919988" lon="17.3680989817">
        <ele>13</ele>
        <time>2011-05-01T12:27:44Z</time>
      </trkpt>
      <trkpt lat="59.6531059965" lon="17.3686559591">
        <ele>13.4</ele>
        <time>2011-05-01T12:27:47Z</time>
      </trkpt>
      <trkpt lat="59.653115971" lon="17.369210925">
        <ele>13.4</ele>
        <time>2011-05-01T12:27:50Z</time>
      </trkpt>
      <trkpt lat="59.6531259455" lon="17.3697529826">
        <ele>13.4</ele>
        <time>2011-05-01T12:27:53Z</time>
      </trkpt>
      <trkpt lat="59.6531379316" lon="17.3702959623">
        <ele>14</ele>
        <time>2011-05-01T12:27:56Z</time>
      </trkpt>
      <trkpt lat="59.6531439666" lon="17.3708329909">
        <ele>13.4</ele>
        <time>2011-05-01T12:27:59Z</time>
      </trkpt>
      <trkpt lat="59.6531479899" lon="17.3713619728">
        <ele>13.4</ele>
        <time>2011-05-01T12:28:02Z</time>
      </trkpt>
      <trkpt lat="59.6531429607" lon="17.3719089758">
        <ele>12.6</ele>
        <time>2011-05-01T12:28:05Z</time>
      </trkpt>
      <trkpt lat="59.6531379316" lon="17.3720949702">
        <ele>12.6</ele>
        <time>2011-05-01T12:28:06Z</time>
      </trkpt>
      <trkpt lat="59.6531269513" lon="17.3726539593">
        <ele>11.6</ele>
        <time>2011-05-01T12:28:09Z</time>
      </trkpt>
      <trkpt lat="59.6530709602" lon="17.3732299637">
        <ele>10.2</ele>
        <time>2011-05-01T12:28:12Z</time>
      </trkpt>
      <trkpt lat="59.6530239377" lon="17.3738079797">
        <ele>8.6</ele>
        <time>2011-05-01T12:28:15Z</time>
      </trkpt>
      <trkpt lat="59.6529609896" lon="17.3744009994">
        <ele>6.8</ele>
        <time>2011-05-01T12:28:18Z</time>
      </trkpt>
      <trkpt lat="59.6528839599" lon="17.3750159796">
        <ele>6.2</ele>
        <time>2011-05-01T12:28:21Z</time>
      </trkpt>
      <trkpt lat="59.6528059244" lon="17.3755999468">
        <ele>7.2</ele>
        <time>2011-05-01T12:28:24Z</time>
      </trkpt>
      <trkpt lat="59.6527089458" lon="17.3761649709">
        <ele>6.8</ele>
        <time>2011-05-01T12:28:27Z</time>
      </trkpt>
      <trkpt lat="59.652625965" lon="17.3767149914">
        <ele>7.2</ele>
        <time>2011-05-01T12:28:30Z</time>
      </trkpt>
      <trkpt lat="59.6525459178" lon="17.3772559594">
        <ele>5.8</ele>
        <time>2011-05-01T12:28:33Z</time>
      </trkpt>
      <trkpt lat="59.6525179222" lon="17.3774339911">
        <ele>6.2</ele>
        <time>2011-05-01T12:28:34Z</time>
      </trkpt>
      <trkpt lat="59.6524619311" lon="17.377792988">
        <ele>7.2</ele>
        <time>2011-05-01T12:28:36Z</time>
      </trkpt>
      <trkpt lat="59.6523849852" lon="17.378333956">
        <ele>7.8</ele>
        <time>2011-05-01T12:28:39Z</time>
      </trkpt>
      <trkpt lat="59.65231793" lon="17.3788709845">
        <ele>7.2</ele>
        <time>2011-05-01T12:28:42Z</time>
      </trkpt>
      <trkpt lat="59.6522629447" lon="17.3794189934">
        <ele>6.8</ele>
        <time>2011-05-01T12:28:45Z</time>
      </trkpt>
      <trkpt lat="59.6522179339" lon="17.3799549323">
        <ele>6.2</ele>
        <time>2011-05-01T12:28:48Z</time>
      </trkpt>
      <trkpt lat="59.6521839872" lon="17.3804879375">
        <ele>6.2</ele>
        <time>2011-05-01T12:28:51Z</time>
      </trkpt>
      <trkpt lat="59.6521639545" lon="17.3810259718">
        <ele>6.8</ele>
        <time>2011-05-01T12:28:54Z</time>
      </trkpt>
      <trkpt lat="59.6521519683" lon="17.381565934">
        <ele>6.2</ele>
        <time>2011-05-01T12:28:57Z</time>
      </trkpt>
      <trkpt lat="59.6521549858" lon="17.3821109254">
        <ele>6.2</ele>
        <time>2011-05-01T12:29:00Z</time>
      </trkpt>
      <trkpt lat="59.6521729231" lon="17.3826459423">
        <ele>4.4</ele>
        <time>2011-05-01T12:29:03Z</time>
      </trkpt>
      <trkpt lat="59.652197985" lon="17.383168973">
        <ele>5.8</ele>
        <time>2011-05-01T12:29:06Z</time>
      </trkpt>
      <trkpt lat="59.6522339433" lon="17.3836729769">
        <ele>5.4</ele>
        <time>2011-05-01T12:29:09Z</time>
      </trkpt>
      <trkpt lat="59.6522619389" lon="17.3840049841">
        <ele>4.8</ele>
        <time>2011-05-01T12:29:11Z</time>
      </trkpt>
      <trkpt lat="59.6523159184" lon="17.3844919726">
        <ele>5.8</ele>
        <time>2011-05-01T12:29:14Z</time>
      </trkpt>
      <trkpt lat="59.6523789503" lon="17.3849769495">
        <ele>6.2</ele>
        <time>2011-05-01T12:29:17Z</time>
      </trkpt>
      <trkpt lat="59.6524449997" lon="17.3854799476">
        <ele>6.2</ele>
        <time>2011-05-01T12:29:20Z</time>
      </trkpt>
      <trkpt lat="59.6525079478" lon="17.385967942">
        <ele>5.8</ele>
        <time>2011-05-01T12:29:23Z</time>
      </trkpt>
      <trkpt lat="59.652568968" lon="17.3864369933">
        <ele>5.4</ele>
        <time>2011-05-01T12:29:26Z</time>
      </trkpt>
      <trkpt lat="59.6526299883" lon="17.3868989199">
        <ele>6.8</ele>
        <time>2011-05-01T12:29:29Z</time>
      </trkpt>
      <trkpt lat="59.6526929364" lon="17.3873779457">
        <ele>7.2</ele>
        <time>2011-05-01T12:29:32Z</time>
      </trkpt>
      <trkpt lat="59.6527579799" lon="17.3878779262">
        <ele>6.2</ele>
        <time>2011-05-01T12:29:35Z</time>
      </trkpt>
      <trkpt lat="59.6528239455" lon="17.3883929942">
        <ele>5.8</ele>
        <time>2011-05-01T12:29:38Z</time>
      </trkpt>
      <trkpt lat="59.6528889891" lon="17.3889169469">
        <ele>3</ele>
        <time>2011-05-01T12:29:41Z</time>
      </trkpt>
      <trkpt lat="59.6529559605" lon="17.3894359544">
        <ele>3.8</ele>
        <time>2011-05-01T12:29:44Z</time>
      </trkpt>
      <trkpt lat="59.6530229319" lon="17.389959991">
        <ele>1.4</ele>
        <time>2011-05-01T12:29:47Z</time>
      </trkpt>
      <trkpt lat="59.6530449763" lon="17.3901339993">
        <ele>2</ele>
        <time>2011-05-01T12:29:48Z</time>
      </trkpt>
      <trkpt lat="59.6531109419" lon="17.3906499892">
        <ele>2</ele>
        <time>2011-05-01T12:29:51Z</time>
      </trkpt>
      <trkpt lat="59.6531759854" lon="17.3911599442">
        <ele>1</ele>
        <time>2011-05-01T12:29:54Z</time>
      </trkpt>
      <trkpt lat="59.6532429568" lon="17.391669983">
        <ele>1</ele>
        <time>2011-05-01T12:29:57Z</time>
      </trkpt>
      <trkpt lat="59.6533099283" lon="17.3921839613">
        <ele>1.4</ele>
        <time>2011-05-01T12:30:00Z</time>
      </trkpt>
      <trkpt lat="59.6533749718" lon="17.3926899768">
        <ele>0.6</ele>
        <time>2011-05-01T12:30:03Z</time>
      </trkpt>
      <trkpt lat="59.6534409374" lon="17.3931799829">
        <ele>2</ele>
        <time>2011-05-01T12:30:06Z</time>
      </trkpt>
      <trkpt lat="59.653461976" lon="17.3933419213">
        <ele>2.4</ele>
        <time>2011-05-01T12:30:07Z</time>
      </trkpt>
      <trkpt lat="59.6535249241" lon="17.3938289937">
        <ele>2.4</ele>
        <time>2011-05-01T12:30:10Z</time>
      </trkpt>
      <trkpt lat="59.6535849385" lon="17.3942849692">
        <ele>4.4</ele>
        <time>2011-05-01T12:30:13Z</time>
      </trkpt>
      <trkpt lat="59.6536419354" lon="17.3947039805">
        <ele>4.8</ele>
        <time>2011-05-01T12:30:16Z</time>
      </trkpt>
      <trkpt lat="59.6536939871" lon="17.3951049708">
        <ele>4.8</ele>
        <time>2011-05-01T12:30:19Z</time>
      </trkpt>
      <trkpt lat="59.6537439432" lon="17.3954879399">
        <ele>6.2</ele>
        <time>2011-05-01T12:30:22Z</time>
      </trkpt>
      <trkpt lat="59.6537959948" lon="17.3958619405">
        <ele>6.2</ele>
        <time>2011-05-01T12:30:25Z</time>
      </trkpt>
      <trkpt lat="59.6538439393" lon="17.3962279782">
        <ele>7.2</ele>
        <time>2011-05-01T12:30:28Z</time>
      </trkpt>
      <trkpt lat="59.6538879443" lon="17.3965739831">
        <ele>6.8</ele>
        <time>2011-05-01T12:30:31Z</time>
      </trkpt>
      <trkpt lat="59.6539339609" lon="17.3969309684">
        <ele>7.2</ele>
        <time>2011-05-01T12:30:34Z</time>
      </trkpt>
      <trkpt lat="59.6539809834" lon="17.3973059747">
        <ele>7.8</ele>
        <time>2011-05-01T12:30:37Z</time>
      </trkpt>
      <trkpt lat="59.6540259942" lon="17.3976839986">
        <ele>7.8</ele>
        <time>2011-05-01T12:30:40Z</time>
      </trkpt>
      <trkpt lat="59.6540789679" lon="17.398070991">
        <ele>7.2</ele>
        <time>2011-05-01T12:30:43Z</time>
      </trkpt>
      <trkpt lat="59.6541329473" lon="17.3984939419">
        <ele>6.2</ele>
        <time>2011-05-01T12:30:46Z</time>
      </trkpt>
      <trkpt lat="59.654185921" lon="17.3989479896">
        <ele>5.8</ele>
        <time>2011-05-01T12:30:49Z</time>
      </trkpt>
      <trkpt lat="59.6542459354" lon="17.3994129337">
        <ele>5.4</ele>
        <time>2011-05-01T12:30:52Z</time>
      </trkpt>
      <trkpt lat="59.654297987" lon="17.3998849187">
        <ele>3.4</ele>
        <time>2011-05-01T12:30:55Z</time>
      </trkpt>
      <trkpt lat="59.6543379687" lon="17.4003859889">
        <ele>3</ele>
        <time>2011-05-01T12:30:58Z</time>
      </trkpt>
      <trkpt lat="59.6543679759" lon="17.4008909985">
        <ele>3.8</ele>
        <time>2011-05-01T12:31:01Z</time>
      </trkpt>
      <trkpt lat="59.6543839853" lon="17.4014029652">
        <ele>2</ele>
        <time>2011-05-01T12:31:04Z</time>
      </trkpt>
      <trkpt lat="59.654386919" lon="17.401573956">
        <ele>2</ele>
        <time>2011-05-01T12:31:05Z</time>
      </trkpt>
      <trkpt lat="59.6543879248" lon="17.4020689912">
        <ele>1</ele>
        <time>2011-05-01T12:31:08Z</time>
      </trkpt>
      <trkpt lat="59.6543779504" lon="17.4025459215">
        <ele>2</ele>
        <time>2011-05-01T12:31:11Z</time>
      </trkpt>
      <trkpt lat="59.6543499548" lon="17.4030089378">
        <ele>1.4</ele>
        <time>2011-05-01T12:31:14Z</time>
      </trkpt>
      <trkpt lat="59.6543179359" lon="17.4034759775">
        <ele>3.8</ele>
        <time>2011-05-01T12:31:17Z</time>
      </trkpt>
      <trkpt lat="59.6542779543" lon="17.4039489683">
        <ele>3.8</ele>
        <time>2011-05-01T12:31:20Z</time>
      </trkpt>
      <trkpt lat="59.6542189457" lon="17.4044169299">
        <ele>3</ele>
        <time>2011-05-01T12:31:23Z</time>
      </trkpt>
      <trkpt lat="59.6541509684" lon="17.404862931">
        <ele>3.8</ele>
        <time>2011-05-01T12:31:26Z</time>
      </trkpt>
      <trkpt lat="59.6540749446" lon="17.4052999634">
        <ele>3.4</ele>
        <time>2011-05-01T12:31:29Z</time>
      </trkpt>
      <trkpt lat="59.6539859287" lon="17.4057329725">
        <ele>3.8</ele>
        <time>2011-05-01T12:31:32Z</time>
      </trkpt>
      <trkpt lat="59.6538819931" lon="17.4061599467">
        <ele>3.4</ele>
        <time>2011-05-01T12:31:35Z</time>
      </trkpt>
      <trkpt lat="59.6537769679" lon="17.4065619428">
        <ele>4.4</ele>
        <time>2011-05-01T12:31:38Z</time>
      </trkpt>
      <trkpt lat="59.6536709368" lon="17.4069259688">
        <ele>4.8</ele>
        <time>2011-05-01T12:31:41Z</time>
      </trkpt>
      <trkpt lat="59.6535549313" lon="17.4072799366">
        <ele>4.8</ele>
        <time>2011-05-01T12:31:44Z</time>
      </trkpt>
      <trkpt lat="59.6534199826" lon="17.4076409452">
        <ele>3.8</ele>
        <time>2011-05-01T12:31:47Z</time>
      </trkpt>
      <trkpt lat="59.6532779932" lon="17.4080159515">
        <ele>4.4</ele>
        <time>2011-05-01T12:31:50Z</time>
      </trkpt>
      <trkpt lat="59.6531399433" lon="17.4083719309">
        <ele>4.4</ele>
        <time>2011-05-01T12:31:53Z</time>
      </trkpt>
      <trkpt lat="59.6530069225" lon="17.4087179359">
        <ele>4.8</ele>
        <time>2011-05-01T12:31:56Z</time>
      </trkpt>
      <trkpt lat="59.652877925" lon="17.4090499431">
        <ele>4.8</ele>
        <time>2011-05-01T12:31:59Z</time>
      </trkpt>
      <trkpt lat="59.6527549624" lon="17.4093679525">
        <ele>5.8</ele>
        <time>2011-05-01T12:32:02Z</time>
      </trkpt>
      <trkpt lat="59.6526269708" lon="17.4096849561">
        <ele>5.8</ele>
        <time>2011-05-01T12:32:05Z</time>
      </trkpt>
      <trkpt lat="59.6525009908" lon="17.4100129399">
        <ele>5.8</ele>
        <time>2011-05-01T12:32:08Z</time>
      </trkpt>
      <trkpt lat="59.6523789503" lon="17.4103309494">
        <ele>6.8</ele>
        <time>2011-05-01T12:32:11Z</time>
      </trkpt>
      <trkpt lat="59.6522729192" lon="17.4106079713">
        <ele>7.8</ele>
        <time>2011-05-01T12:32:14Z</time>
      </trkpt>
      <trkpt lat="59.6521759406" lon="17.4108619429">
        <ele>8.6</ele>
        <time>2011-05-01T12:32:17Z</time>
      </trkpt>
      <trkpt lat="59.6520739328" lon="17.4111159984">
        <ele>9.6</ele>
        <time>2011-05-01T12:32:20Z</time>
      </trkpt>
      <trkpt lat="59.6519769542" lon="17.4113779329">
        <ele>10.6</ele>
        <time>2011-05-01T12:32:23Z</time>
      </trkpt>
      <trkpt lat="59.6518779639" lon="17.4116309825">
        <ele>11</ele>
        <time>2011-05-01T12:32:26Z</time>
      </trkpt>
      <trkpt lat="59.6517789736" lon="17.4118839484">
        <ele>12</ele>
        <time>2011-05-01T12:32:29Z</time>
      </trkpt>
      <trkpt lat="59.6516799834" lon="17.41213792">
        <ele>12</ele>
        <time>2011-05-01T12:32:32Z</time>
      </trkpt>
      <trkpt lat="59.6515829209" lon="17.4123959988">
        <ele>12.6</ele>
        <time>2011-05-01T12:32:35Z</time>
      </trkpt>
      <trkpt lat="59.6514849365" lon="17.4126479588">
        <ele>12.6</ele>
        <time>2011-05-01T12:32:38Z</time>
      </trkpt>
      <trkpt lat="59.651386952" lon="17.4129069597">
        <ele>13.4</ele>
        <time>2011-05-01T12:32:41Z</time>
      </trkpt>
      <trkpt lat="59.6512929909" lon="17.4131719954">
        <ele>13.4</ele>
        <time>2011-05-01T12:32:44Z</time>
      </trkpt>
      <trkpt lat="59.6512029693" lon="17.4134489335">
        <ele>14</ele>
        <time>2011-05-01T12:32:47Z</time>
      </trkpt>
      <trkpt lat="59.6511179768" lon="17.4137309846">
        <ele>15</ele>
        <time>2011-05-01T12:32:50Z</time>
      </trkpt>
      <trkpt lat="59.6510449704" lon="17.4140239321">
        <ele>14.4</ele>
        <time>2011-05-01T12:32:53Z</time>
      </trkpt>
      <trkpt lat="59.650977999" lon="17.4143339787">
        <ele>15.8</ele>
        <time>2011-05-01T12:32:56Z</time>
      </trkpt>
      <trkpt lat="59.6509159729" lon="17.4146479648">
        <ele>15.8</ele>
        <time>2011-05-01T12:32:59Z</time>
      </trkpt>
      <trkpt lat="59.6508609876" lon="17.4149589334">
        <ele>16.4</ele>
        <time>2011-05-01T12:33:02Z</time>
      </trkpt>
      <trkpt lat="59.650808936" lon="17.4152649567">
        <ele>16.8</ele>
        <time>2011-05-01T12:33:05Z</time>
      </trkpt>
      <trkpt lat="59.6507609915" lon="17.4155629333">
        <ele>18.4</ele>
        <time>2011-05-01T12:33:08Z</time>
      </trkpt>
      <trkpt lat="59.6507089399" lon="17.4158619996">
        <ele>18.4</ele>
        <time>2011-05-01T12:33:11Z</time>
      </trkpt>
      <trkpt lat="59.6506589837" lon="17.4161579646">
        <ele>19.8</ele>
        <time>2011-05-01T12:33:14Z</time>
      </trkpt>
      <trkpt lat="59.6506079379" lon="17.4164649937">
        <ele>19.8</ele>
        <time>2011-05-01T12:33:17Z</time>
      </trkpt>
      <trkpt lat="59.6505559701" lon="17.4167949893">
        <ele>20.8</ele>
        <time>2011-05-01T12:33:20Z</time>
      </trkpt>
      <trkpt lat="59.6504969615" lon="17.417148957">
        <ele>21.2</ele>
        <time>2011-05-01T12:33:23Z</time>
      </trkpt>
      <trkpt lat="59.650437953" lon="17.4174969736">
        <ele>22.2</ele>
        <time>2011-05-01T12:33:26Z</time>
      </trkpt>
      <trkpt lat="59.6503829677" lon="17.4178479239">
        <ele>22.2</ele>
        <time>2011-05-01T12:33:29Z</time>
      </trkpt>
      <trkpt lat="59.6503259707" lon="17.418198958">
        <ele>22.6</ele>
        <time>2011-05-01T12:33:32Z</time>
      </trkpt>
      <trkpt lat="59.650267968" lon="17.4185559433">
        <ele>22.6</ele>
        <time>2011-05-01T12:33:35Z</time>
      </trkpt>
      <trkpt lat="59.6502079535" lon="17.418921981">
        <ele>23.6</ele>
        <time>2011-05-01T12:33:38Z</time>
      </trkpt>
      <trkpt lat="59.6500939596" lon="17.4196339399">
        <ele>23.6</ele>
        <time>2011-05-01T12:33:44Z</time>
      </trkpt>
      <trkpt lat="59.6500339452" lon="17.4199959543">
        <ele>25.6</ele>
        <time>2011-05-01T12:33:47Z</time>
      </trkpt>
      <trkpt lat="59.6499779541" lon="17.4203629978">
        <ele>24.6</ele>
        <time>2011-05-01T12:33:50Z</time>
      </trkpt>
      <trkpt lat="59.6499099769" lon="17.4207539298">
        <ele>23.6</ele>
        <time>2011-05-01T12:33:53Z</time>
      </trkpt>
      <trkpt lat="59.6498879325" lon="17.4208909739">
        <ele>23.6</ele>
        <time>2011-05-01T12:33:54Z</time>
      </trkpt>
      <trkpt lat="59.6498189494" lon="17.4212939758">
        <ele>23.6</ele>
        <time>2011-05-01T12:33:57Z</time>
      </trkpt>
      <trkpt lat="59.6497449372" lon="17.4216819741">
        <ele>23.6</ele>
        <time>2011-05-01T12:34:00Z</time>
      </trkpt>
      <trkpt lat="59.6496649738" lon="17.4220569804">
        <ele>25</ele>
        <time>2011-05-01T12:34:03Z</time>
      </trkpt>
      <trkpt lat="59.6495729405" lon="17.4224319868">
        <ele>25</ele>
        <time>2011-05-01T12:34:06Z</time>
      </trkpt>
      <trkpt lat="59.6494669933" lon="17.4227879662">
        <ele>25.6</ele>
        <time>2011-05-01T12:34:09Z</time>
      </trkpt>
      <trkpt lat="59.6493399236" lon="17.4231299479">
        <ele>25.6</ele>
        <time>2011-05-01T12:34:12Z</time>
      </trkpt>
      <trkpt lat="59.6492039692" lon="17.4234599434">
        <ele>26</ele>
        <time>2011-05-01T12:34:15Z</time>
      </trkpt>
      <trkpt lat="59.6490619797" lon="17.4237819761">
        <ele>25.6</ele>
        <time>2011-05-01T12:34:18Z</time>
      </trkpt>
      <trkpt lat="59.6489189845" lon="17.4241059367">
        <ele>24</ele>
        <time>2011-05-01T12:34:21Z</time>
      </trkpt>
      <trkpt lat="59.648776995" lon="17.4244229402">
        <ele>25</ele>
        <time>2011-05-01T12:34:24Z</time>
      </trkpt>
      <trkpt lat="59.6486309823" lon="17.4247479904">
        <ele>24.6</ele>
        <time>2011-05-01T12:34:27Z</time>
      </trkpt>
      <trkpt lat="59.6484859753" lon="17.4250709452">
        <ele>23.2</ele>
        <time>2011-05-01T12:34:30Z</time>
      </trkpt>
      <trkpt lat="59.6483449917" lon="17.4253859371">
        <ele>23.6</ele>
        <time>2011-05-01T12:34:33Z</time>
      </trkpt>
      <trkpt lat="59.6482019965" lon="17.4256959837">
        <ele>25</ele>
        <time>2011-05-01T12:34:36Z</time>
      </trkpt>
      <trkpt lat="59.648060929" lon="17.4260139931">
        <ele>25.6</ele>
        <time>2011-05-01T12:34:39Z</time>
      </trkpt>
      <trkpt lat="59.6479189396" lon="17.4263329245">
        <ele>26</ele>
        <time>2011-05-01T12:34:42Z</time>
      </trkpt>
      <trkpt lat="59.6477799676" lon="17.4266419653">
        <ele>26.4</ele>
        <time>2011-05-01T12:34:45Z</time>
      </trkpt>
      <trkpt lat="59.6476469468" lon="17.4269419536">
        <ele>28</ele>
        <time>2011-05-01T12:34:48Z</time>
      </trkpt>
      <trkpt lat="59.6475609485" lon="17.4271369167">
        <ele>28.8</ele>
        <time>2011-05-01T12:34:50Z</time>
      </trkpt>
      <trkpt lat="59.6474339627" lon="17.4274189677">
        <ele>28.4</ele>
        <time>2011-05-01T12:34:53Z</time>
      </trkpt>
      <trkpt lat="59.6473119222" lon="17.4276919663">
        <ele>29.4</ele>
        <time>2011-05-01T12:34:56Z</time>
      </trkpt>
      <trkpt lat="59.6471959166" lon="17.4279529788">
        <ele>30.4</ele>
        <time>2011-05-01T12:34:59Z</time>
      </trkpt>
      <trkpt lat="59.6470739599" lon="17.4282249715">
        <ele>31.2</ele>
        <time>2011-05-01T12:35:02Z</time>
      </trkpt>
      <trkpt lat="59.6469639894" lon="17.4284649454">
        <ele>32.2</ele>
        <time>2011-05-01T12:35:05Z</time>
      </trkpt>
      <trkpt lat="59.6468589641" lon="17.4286979623">
        <ele>32.8</ele>
        <time>2011-05-01T12:35:08Z</time>
      </trkpt>
      <trkpt lat="59.6467249375" lon="17.4290009681">
        <ele>33.6</ele>
        <time>2011-05-01T12:35:12Z</time>
      </trkpt>
      <trkpt lat="59.6466029808" lon="17.4292729609">
        <ele>34.6</ele>
        <time>2011-05-01T12:35:16Z</time>
      </trkpt>
      <trkpt lat="59.6464809403" lon="17.4295449536">
        <ele>36</ele>
        <time>2011-05-01T12:35:20Z</time>
      </trkpt>
      <trkpt lat="59.6463619173" lon="17.4298069719">
        <ele>36.6</ele>
        <time>2011-05-01T12:35:24Z</time>
      </trkpt>
      <trkpt lat="59.6462439839" lon="17.4300709181">
        <ele>37.6</ele>
        <time>2011-05-01T12:35:28Z</time>
      </trkpt>
      <trkpt lat="59.6461269725" lon="17.430334948">
        <ele>38.4</ele>
        <time>2011-05-01T12:35:32Z</time>
      </trkpt>
      <trkpt lat="59.646004932" lon="17.4306149874">
        <ele>39</ele>
        <time>2011-05-01T12:35:36Z</time>
      </trkpt>
      <trkpt lat="59.645878952" lon="17.4308959488">
        <ele>39.4</ele>
        <time>2011-05-01T12:35:40Z</time>
      </trkpt>
      <trkpt lat="59.6457489487" lon="17.4311729707">
        <ele>40</ele>
        <time>2011-05-01T12:35:44Z</time>
      </trkpt>
      <trkpt lat="59.645620957" lon="17.4314639904">
        <ele>40.8</ele>
        <time>2011-05-01T12:35:48Z</time>
      </trkpt>
      <trkpt lat="59.6454979945" lon="17.4317519926">
        <ele>41.8</ele>
        <time>2011-05-01T12:35:52Z</time>
      </trkpt>
      <trkpt lat="59.6453709248" lon="17.4320299365">
        <ele>42.4</ele>
        <time>2011-05-01T12:35:56Z</time>
      </trkpt>
      <trkpt lat="59.6452469565" lon="17.432321962">
        <ele>43.8</ele>
        <time>2011-05-01T12:36:00Z</time>
      </trkpt>
      <trkpt lat="59.6451229881" lon="17.4326039292">
        <ele>44.2</ele>
        <time>2011-05-01T12:36:04Z</time>
      </trkpt>
      <trkpt lat="59.644991979" lon="17.4328989722">
        <ele>44.2</ele>
        <time>2011-05-01T12:36:08Z</time>
      </trkpt>
      <trkpt lat="59.6448559407" lon="17.4332029838">
        <ele>45.2</ele>
        <time>2011-05-01T12:36:12Z</time>
      </trkpt>
      <trkpt lat="59.6447449643" lon="17.4334439635">
        <ele>44.8</ele>
        <time>2011-05-01T12:36:15Z</time>
      </trkpt>
      <trkpt lat="59.6446319763" lon="17.4337029643">
        <ele>44.2</ele>
        <time>2011-05-01T12:36:18Z</time>
      </trkpt>
      <trkpt lat="59.6445099358" lon="17.4339729454">
        <ele>44.8</ele>
        <time>2011-05-01T12:36:21Z</time>
      </trkpt>
      <trkpt lat="59.6443789266" lon="17.4342719279">
        <ele>44.8</ele>
        <time>2011-05-01T12:36:24Z</time>
      </trkpt>
      <trkpt lat="59.644243978" lon="17.4345809687">
        <ele>44.2</ele>
        <time>2011-05-01T12:36:27Z</time>
      </trkpt>
      <trkpt lat="59.6441109572" lon="17.434893949">
        <ele>44.8</ele>
        <time>2011-05-01T12:36:30Z</time>
      </trkpt>
      <trkpt lat="59.6439699735" lon="17.4352319911">
        <ele>44.2</ele>
        <time>2011-05-01T12:36:33Z</time>
      </trkpt>
      <trkpt lat="59.643815998" lon="17.4356089253">
        <ele>43.2</ele>
        <time>2011-05-01T12:36:36Z</time>
      </trkpt>
      <trkpt lat="59.6436609328" lon="17.4360029586">
        <ele>41.4</ele>
        <time>2011-05-01T12:36:39Z</time>
      </trkpt>
      <trkpt lat="59.643513998" lon="17.4363839999">
        <ele>43.2</ele>
        <time>2011-05-01T12:36:42Z</time>
      </trkpt>
      <trkpt lat="59.6433709189" lon="17.4367539771">
        <ele>43.8</ele>
        <time>2011-05-01T12:36:45Z</time>
      </trkpt>
      <trkpt lat="59.6432379819" lon="17.437119931">
        <ele>44.2</ele>
        <time>2011-05-01T12:36:48Z</time>
      </trkpt>
      <trkpt lat="59.6431209706" lon="17.4375129584">
        <ele>45.2</ele>
        <time>2011-05-01T12:36:51Z</time>
      </trkpt>
      <trkpt lat="59.6430249978" lon="17.4379259348">
        <ele>45.2</ele>
        <time>2011-05-01T12:36:54Z</time>
      </trkpt>
      <trkpt lat="59.6429319587" lon="17.4383599497">
        <ele>43.2</ele>
        <time>2011-05-01T12:36:57Z</time>
      </trkpt>
      <trkpt lat="59.6428309567" lon="17.4388269894">
        <ele>42.8</ele>
        <time>2011-05-01T12:37:00Z</time>
      </trkpt>
      <trkpt lat="59.6427269373" lon="17.4393239524">
        <ele>41.4</ele>
        <time>2011-05-01T12:37:03Z</time>
      </trkpt>
      <trkpt lat="59.6426499914" lon="17.4396779202">
        <ele>40.4</ele>
        <time>2011-05-01T12:37:05Z</time>
      </trkpt>
      <trkpt lat="59.6425379254" lon="17.4402049743">
        <ele>41.8</ele>
        <time>2011-05-01T12:37:08Z</time>
      </trkpt>
      <trkpt lat="59.6424289607" lon="17.4407219701">
        <ele>41.4</ele>
        <time>2011-05-01T12:37:11Z</time>
      </trkpt>
      <trkpt lat="59.6423239354" lon="17.4412199389">
        <ele>41.8</ele>
        <time>2011-05-01T12:37:14Z</time>
      </trkpt>
      <trkpt lat="59.6422219276" lon="17.4417149741">
        <ele>41.8</ele>
        <time>2011-05-01T12:37:17Z</time>
      </trkpt>
      <trkpt lat="59.6421169862" lon="17.4422069918">
        <ele>41.4</ele>
        <time>2011-05-01T12:37:20Z</time>
      </trkpt>
      <trkpt lat="59.6420109551" lon="17.4426959921">
        <ele>41.8</ele>
        <time>2011-05-01T12:37:23Z</time>
      </trkpt>
      <trkpt lat="59.6419079416" lon="17.4431759398">
        <ele>41.8</ele>
        <time>2011-05-01T12:37:26Z</time>
      </trkpt>
      <trkpt lat="59.6418119688" lon="17.4436379503">
        <ele>41.4</ele>
        <time>2011-05-01T12:37:29Z</time>
      </trkpt>
      <trkpt lat="59.6417309996" lon="17.4441009667">
        <ele>41.8</ele>
        <time>2011-05-01T12:37:32Z</time>
      </trkpt>
      <trkpt lat="59.6416679677" lon="17.4445739575">
        <ele>41.8</ele>
        <time>2011-05-01T12:37:35Z</time>
      </trkpt>
      <trkpt lat="59.6416339371" lon="17.4450439308">
        <ele>42.4</ele>
        <time>2011-05-01T12:37:38Z</time>
      </trkpt>
      <trkpt lat="59.6416179277" lon="17.4455219507">
        <ele>41.8</ele>
        <time>2011-05-01T12:37:41Z</time>
      </trkpt>
      <trkpt lat="59.6416139882" lon="17.4460099451">
        <ele>41.8</ele>
        <time>2011-05-01T12:37:44Z</time>
      </trkpt>
      <trkpt lat="59.6416089591" lon="17.4465039745">
        <ele>40.4</ele>
        <time>2011-05-01T12:37:47Z</time>
      </trkpt>
      <trkpt lat="59.6415979788" lon="17.4470119178">
        <ele>39</ele>
        <time>2011-05-01T12:37:50Z</time>
      </trkpt>
      <trkpt lat="59.6415759344" lon="17.4475389719">
        <ele>37</ele>
        <time>2011-05-01T12:37:53Z</time>
      </trkpt>
      <trkpt lat="59.6415319294" lon="17.448066948">
        <ele>38</ele>
        <time>2011-05-01T12:37:56Z</time>
      </trkpt>
      <trkpt lat="59.6414579172" lon="17.4485979415">
        <ele>38</ele>
        <time>2011-05-01T12:37:59Z</time>
      </trkpt>
      <trkpt lat="59.6413599327" lon="17.4491279293">
        <ele>37.6</ele>
        <time>2011-05-01T12:38:02Z</time>
      </trkpt>
      <trkpt lat="59.6412499622" lon="17.4496439192">
        <ele>37</ele>
        <time>2011-05-01T12:38:05Z</time>
      </trkpt>
      <trkpt lat="59.6411309391" lon="17.4501429778">
        <ele>37.6</ele>
        <time>2011-05-01T12:38:08Z</time>
      </trkpt>
      <trkpt lat="59.6409979183" lon="17.4506279547">
        <ele>37.6</ele>
        <time>2011-05-01T12:38:11Z</time>
      </trkpt>
      <trkpt lat="59.6409009397" lon="17.4509369954">
        <ele>34.2</ele>
        <time>2011-05-01T12:38:13Z</time>
      </trkpt>
      <trkpt lat="59.6408519894" lon="17.4510839302">
        <ele>35.6</ele>
        <time>2011-05-01T12:38:14Z</time>
      </trkpt>
      <trkpt lat="59.6406959184" lon="17.4515139218">
        <ele>35.6</ele>
        <time>2011-05-01T12:38:17Z</time>
      </trkpt>
      <trkpt lat="59.6405149531" lon="17.4519259762">
        <ele>35.6</ele>
        <time>2011-05-01T12:38:20Z</time>
      </trkpt>
      <trkpt lat="59.6403129492" lon="17.4522969592">
        <ele>35.2</ele>
        <time>2011-05-01T12:38:23Z</time>
      </trkpt>
      <trkpt lat="59.6401099395" lon="17.4526429642">
        <ele>34.6</ele>
        <time>2011-05-01T12:38:26Z</time>
      </trkpt>
      <trkpt lat="59.6399019845" lon="17.4530109297">
        <ele>35.2</ele>
        <time>2011-05-01T12:38:29Z</time>
      </trkpt>
      <trkpt lat="59.639691934" lon="17.4534319527">
        <ele>35.6</ele>
        <time>2011-05-01T12:38:32Z</time>
      </trkpt>
      <trkpt lat="59.6395539679" lon="17.4537329469">
        <ele>33.6</ele>
        <time>2011-05-01T12:38:34Z</time>
      </trkpt>
      <trkpt lat="59.6394159179" lon="17.454033941">
        <ele>36</ele>
        <time>2011-05-01T12:38:36Z</time>
      </trkpt>
      <trkpt lat="59.6392169315" lon="17.4544919282">
        <ele>34.2</ele>
        <time>2011-05-01T12:38:39Z</time>
      </trkpt>
      <trkpt lat="59.6390199568" lon="17.4549439643">
        <ele>35.6</ele>
        <time>2011-05-01T12:38:42Z</time>
      </trkpt>
      <trkpt lat="59.6388379857" lon="17.455398934">
        <ele>33.6</ele>
        <time>2011-05-01T12:38:45Z</time>
      </trkpt>
      <trkpt lat="59.6386879496" lon="17.45588894">
        <ele>34.2</ele>
        <time>2011-05-01T12:38:48Z</time>
      </trkpt>
      <trkpt lat="59.638584936" lon="17.4564169999">
        <ele>34.2</ele>
        <time>2011-05-01T12:38:51Z</time>
      </trkpt>
      <trkpt lat="59.6385119297" lon="17.4569619913">
        <ele>33.2</ele>
        <time>2011-05-01T12:38:54Z</time>
      </trkpt>
      <trkpt lat="59.6384489816" lon="17.4575149454">
        <ele>32.2</ele>
        <time>2011-05-01T12:38:57Z</time>
      </trkpt>
      <trkpt lat="59.6383869555" lon="17.4580719229">
        <ele>33.2</ele>
        <time>2011-05-01T12:39:00Z</time>
      </trkpt>
      <trkpt lat="59.6383269411" lon="17.4586249609">
        <ele>33.2</ele>
        <time>2011-05-01T12:39:03Z</time>
      </trkpt>
      <trkpt lat="59.6382679325" lon="17.4591609836">
        <ele>32.8</ele>
        <time>2011-05-01T12:39:06Z</time>
      </trkpt>
      <trkpt lat="59.6382089239" lon="17.4596889596">
        <ele>32.8</ele>
        <time>2011-05-01T12:39:09Z</time>
      </trkpt>
      <trkpt lat="59.6381509211" lon="17.4602049496">
        <ele>33.2</ele>
        <time>2011-05-01T12:39:12Z</time>
      </trkpt>
      <trkpt lat="59.63809493" lon="17.4607019965">
        <ele>30.4</ele>
        <time>2011-05-01T12:39:15Z</time>
      </trkpt>
      <trkpt lat="59.6380579658" lon="17.4610249512">
        <ele>33.6</ele>
        <time>2011-05-01T12:39:17Z</time>
      </trkpt>
      <trkpt lat="59.6380389389" lon="17.4611829501">
        <ele>33.6</ele>
        <time>2011-05-01T12:39:18Z</time>
      </trkpt>
      <trkpt lat="59.6379889827" lon="17.4616399314">
        <ele>33.6</ele>
        <time>2011-05-01T12:39:21Z</time>
      </trkpt>
      <trkpt lat="59.6379399486" lon="17.4620699231">
        <ele>33.2</ele>
        <time>2011-05-01T12:39:24Z</time>
      </trkpt>
      <trkpt lat="59.6378929261" lon="17.4624929577">
        <ele>33.2</ele>
        <time>2011-05-01T12:39:27Z</time>
      </trkpt>
      <trkpt lat="59.6378449816" lon="17.4629209377">
        <ele>33.2</ele>
        <time>2011-05-01T12:39:30Z</time>
      </trkpt>
      <trkpt lat="59.6377979591" lon="17.4633549526">
        <ele>34.2</ele>
        <time>2011-05-01T12:39:33Z</time>
      </trkpt>
      <trkpt lat="59.6377659403" lon="17.4636429548">
        <ele>31.2</ele>
        <time>2011-05-01T12:39:35Z</time>
      </trkpt>
      <trkpt lat="59.63771699" lon="17.4640769698">
        <ele>30.4</ele>
        <time>2011-05-01T12:39:38Z</time>
      </trkpt>
      <trkpt lat="59.6376649383" lon="17.4644979928">
        <ele>30.4</ele>
        <time>2011-05-01T12:39:41Z</time>
      </trkpt>
      <trkpt lat="59.6376079414" lon="17.4649129808">
        <ele>30.4</ele>
        <time>2011-05-01T12:39:44Z</time>
      </trkpt>
      <trkpt lat="59.6375379525" lon="17.465332998">
        <ele>29.8</ele>
        <time>2011-05-01T12:39:47Z</time>
      </trkpt>
      <trkpt lat="59.6374569833" lon="17.4657499976">
        <ele>32.2</ele>
        <time>2011-05-01T12:39:50Z</time>
      </trkpt>
      <trkpt lat="59.6374259703" lon="17.4658889696">
        <ele>32.2</ele>
        <time>2011-05-01T12:39:51Z</time>
      </trkpt>
      <trkpt lat="59.6373249684" lon="17.4663049635">
        <ele>30.8</ele>
        <time>2011-05-01T12:39:54Z</time>
      </trkpt>
      <trkpt lat="59.6372159198" lon="17.4667009246">
        <ele>30.4</ele>
        <time>2011-05-01T12:39:57Z</time>
      </trkpt>
      <trkpt lat="59.6370979864" lon="17.4670819659">
        <ele>31.2</ele>
        <time>2011-05-01T12:40:00Z</time>
      </trkpt>
      <trkpt lat="59.6369729284" lon="17.4674359336">
        <ele>31.8</ele>
        <time>2011-05-01T12:40:03Z</time>
      </trkpt>
      <trkpt lat="59.6368439309" lon="17.4677839503">
        <ele>31.8</ele>
        <time>2011-05-01T12:40:06Z</time>
      </trkpt>
      <trkpt lat="59.636704959" lon="17.4681339785">
        <ele>32.2</ele>
        <time>2011-05-01T12:40:09Z</time>
      </trkpt>
      <trkpt lat="59.6365559287" lon="17.468483923">
        <ele>31.2</ele>
        <time>2011-05-01T12:40:12Z</time>
      </trkpt>
      <trkpt lat="59.6364069823" lon="17.4688239768">
        <ele>31.2</ele>
        <time>2011-05-01T12:40:15Z</time>
      </trkpt>
      <trkpt lat="59.6362649929" lon="17.469149949">
        <ele>31.8</ele>
        <time>2011-05-01T12:40:18Z</time>
      </trkpt>
      <trkpt lat="59.6361299604" lon="17.4694679584">
        <ele>31.8</ele>
        <time>2011-05-01T12:40:21Z</time>
      </trkpt>
      <trkpt lat="59.635994928" lon="17.4697799329">
        <ele>32.2</ele>
        <time>2011-05-01T12:40:24Z</time>
      </trkpt>
      <trkpt lat="59.635861991" lon="17.4700699467">
        <ele>32.8</ele>
        <time>2011-05-01T12:40:27Z</time>
      </trkpt>
      <trkpt lat="59.6357389446" lon="17.4703649897">
        <ele>32.2</ele>
        <time>2011-05-01T12:40:30Z</time>
      </trkpt>
      <trkpt lat="59.6356159821" lon="17.4706519861">
        <ele>31.2</ele>
        <time>2011-05-01T12:40:33Z</time>
      </trkpt>
      <trkpt lat="59.6354929358" lon="17.47092993">
        <ele>32.2</ele>
        <time>2011-05-01T12:40:36Z</time>
      </trkpt>
      <trkpt lat="59.6353709791" lon="17.4712089635">
        <ele>32.2</ele>
        <time>2011-05-01T12:40:39Z</time>
      </trkpt>
      <trkpt lat="59.6352449991" lon="17.471500989">
        <ele>33.2</ele>
        <time>2011-05-01T12:40:42Z</time>
      </trkpt>
      <trkpt lat="59.6350999922" lon="17.4718079343">
        <ele>30.8</ele>
        <time>2011-05-01T12:40:45Z</time>
      </trkpt>
      <trkpt lat="59.6349429991" lon="17.4721279554">
        <ele>30.4</ele>
        <time>2011-05-01T12:40:48Z</time>
      </trkpt>
      <trkpt lat="59.6347719245" lon="17.4724409357">
        <ele>30.4</ele>
        <time>2011-05-01T12:40:51Z</time>
      </trkpt>
      <trkpt lat="59.6345929708" lon="17.4727549218">
        <ele>30.8</ele>
        <time>2011-05-01T12:40:54Z</time>
      </trkpt>
      <trkpt lat="59.6344709303" lon="17.4729599431">
        <ele>29.4</ele>
        <time>2011-05-01T12:40:56Z</time>
      </trkpt>
      <trkpt lat="59.6343489736" lon="17.4731599353">
        <ele>31.2</ele>
        <time>2011-05-01T12:40:58Z</time>
      </trkpt>
      <trkpt lat="59.6341629792" lon="17.4734369572">
        <ele>31.8</ele>
        <time>2011-05-01T12:41:01Z</time>
      </trkpt>
      <trkpt lat="59.6339749731" lon="17.4736949522">
        <ele>31.8</ele>
        <time>2011-05-01T12:41:04Z</time>
      </trkpt>
      <trkpt lat="59.6337959357" lon="17.473946996">
        <ele>32.8</ele>
        <time>2011-05-01T12:41:07Z</time>
      </trkpt>
      <trkpt lat="59.6336319856" lon="17.4741919991">
        <ele>35.2</ele>
        <time>2011-05-01T12:41:10Z</time>
      </trkpt>
      <trkpt lat="59.6334789321" lon="17.4744429532">
        <ele>35.2</ele>
        <time>2011-05-01T12:41:13Z</time>
      </trkpt>
      <trkpt lat="59.6333339252" lon="17.4747229926">
        <ele>34.6</ele>
        <time>2011-05-01T12:41:16Z</time>
      </trkpt>
      <trkpt lat="59.6331949532" lon="17.4750219751">
        <ele>33.6</ele>
        <time>2011-05-01T12:41:19Z</time>
      </trkpt>
      <trkpt lat="59.6330589987" lon="17.4753349554">
        <ele>34.6</ele>
        <time>2011-05-01T12:41:22Z</time>
      </trkpt>
      <trkpt lat="59.6330159996" lon="17.4754449259">
        <ele>34.6</ele>
        <time>2011-05-01T12:41:23Z</time>
      </trkpt>
      <trkpt lat="59.6328929532" lon="17.4757899251">
        <ele>34.6</ele>
        <time>2011-05-01T12:41:26Z</time>
      </trkpt>
      <trkpt lat="59.6327819768" lon="17.4761559628">
        <ele>34.2</ele>
        <time>2011-05-01T12:41:29Z</time>
      </trkpt>
      <trkpt lat="59.6326839924" lon="17.4765379261">
        <ele>34.2</ele>
        <time>2011-05-01T12:41:32Z</time>
      </trkpt>
      <trkpt lat="59.6325889416" lon="17.4769249186">
        <ele>34.2</ele>
        <time>2011-05-01T12:41:35Z</time>
      </trkpt>
      <trkpt lat="59.6324929688" lon="17.4773259927">
        <ele>34.6</ele>
        <time>2011-05-01T12:41:38Z</time>
      </trkpt>
      <trkpt lat="59.6323929727" lon="17.4777379632">
        <ele>33.6</ele>
        <time>2011-05-01T12:41:41Z</time>
      </trkpt>
      <trkpt lat="59.6322919708" lon="17.4781559687">
        <ele>36</ele>
        <time>2011-05-01T12:41:44Z</time>
      </trkpt>
      <trkpt lat="59.6321889572" lon="17.4785869662">
        <ele>34.2</ele>
        <time>2011-05-01T12:41:47Z</time>
      </trkpt>
      <trkpt lat="59.6320809983" lon="17.4790399242">
        <ele>34.2</ele>
        <time>2011-05-01T12:41:50Z</time>
      </trkpt>
      <trkpt lat="59.6319749672" lon="17.47951895">
        <ele>34.6</ele>
        <time>2011-05-01T12:41:53Z</time>
      </trkpt>
      <trkpt lat="59.6318739653" lon="17.4800109677">
        <ele>33.2</ele>
        <time>2011-05-01T12:41:56Z</time>
      </trkpt>
      <trkpt lat="59.6317709517" lon="17.4805129599">
        <ele>32.2</ele>
        <time>2011-05-01T12:41:59Z</time>
      </trkpt>
      <trkpt lat="59.6316649206" lon="17.481020987">
        <ele>32.8</ele>
        <time>2011-05-01T12:42:02Z</time>
      </trkpt>
      <trkpt lat="59.631560985" lon="17.4815169442">
        <ele>32.2</ele>
        <time>2011-05-01T12:42:05Z</time>
      </trkpt>
      <trkpt lat="59.6314519364" lon="17.4819979817">
        <ele>31.2</ele>
        <time>2011-05-01T12:42:08Z</time>
      </trkpt>
      <trkpt lat="59.6313269623" lon="17.4824689608">
        <ele>31.2</ele>
        <time>2011-05-01T12:42:11Z</time>
      </trkpt>
      <trkpt lat="59.6311889961" lon="17.4829099327">
        <ele>31.8</ele>
        <time>2011-05-01T12:42:14Z</time>
      </trkpt>
      <trkpt lat="59.631045917" lon="17.4833259266">
        <ele>31.2</ele>
        <time>2011-05-01T12:42:17Z</time>
      </trkpt>
      <trkpt lat="59.6308959648" lon="17.4837229773">
        <ele>31.2</ele>
        <time>2011-05-01T12:42:20Z</time>
      </trkpt>
      <trkpt lat="59.630731931" lon="17.4841009174">
        <ele>30.8</ele>
        <time>2011-05-01T12:42:23Z</time>
      </trkpt>
      <trkpt lat="59.6305219643" lon="17.4844779354">
        <ele>29.4</ele>
        <time>2011-05-01T12:42:26Z</time>
      </trkpt>
      <trkpt lat="59.6303119976" lon="17.4848499242">
        <ele>28.4</ele>
        <time>2011-05-01T12:42:29Z</time>
      </trkpt>
      <trkpt lat="59.6302319504" lon="17.4849749822">
        <ele>28</ele>
        <time>2011-05-01T12:42:30Z</time>
      </trkpt>
      <trkpt lat="59.6299899649" lon="17.4853689317">
        <ele>25</ele>
        <time>2011-05-01T12:42:33Z</time>
      </trkpt>
      <trkpt lat="59.6299089957" lon="17.48550497">
        <ele>25</ele>
        <time>2011-05-01T12:42:34Z</time>
      </trkpt>
      <trkpt lat="59.6296549402" lon="17.4859119952">
        <ele>23.6</ele>
        <time>2011-05-01T12:42:37Z</time>
      </trkpt>
      <trkpt lat="59.6294759866" lon="17.4861969799">
        <ele>21.6</ele>
        <time>2011-05-01T12:42:39Z</time>
      </trkpt>
      <trkpt lat="59.6292109508" lon="17.4866159912">
        <ele>19.8</ele>
        <time>2011-05-01T12:42:42Z</time>
      </trkpt>
      <trkpt lat="59.6290249564" lon="17.4869219307">
        <ele>16.4</ele>
        <time>2011-05-01T12:42:44Z</time>
      </trkpt>
      <trkpt lat="59.6288289875" lon="17.4872409459">
        <ele>15.8</ele>
        <time>2011-05-01T12:42:46Z</time>
      </trkpt>
      <trkpt lat="59.6286279894" lon="17.4875629786">
        <ele>14</ele>
        <time>2011-05-01T12:42:48Z</time>
      </trkpt>
      <trkpt lat="59.6285259817" lon="17.487724917">
        <ele>13.4</ele>
        <time>2011-05-01T12:42:49Z</time>
      </trkpt>
      <trkpt lat="59.6283209603" lon="17.4880499672">
        <ele>12</ele>
        <time>2011-05-01T12:42:51Z</time>
      </trkpt>
      <trkpt lat="59.6281129215" lon="17.4883729219">
        <ele>11</ele>
        <time>2011-05-01T12:42:53Z</time>
      </trkpt>
      <trkpt lat="59.6278989315" lon="17.4886819627">
        <ele>8.2</ele>
        <time>2011-05-01T12:42:55Z</time>
      </trkpt>
      <trkpt lat="59.6276719496" lon="17.4889599904">
        <ele>5.8</ele>
        <time>2011-05-01T12:42:57Z</time>
      </trkpt>
      <trkpt lat="59.6275529265" lon="17.4890799355">
        <ele>5.8</ele>
        <time>2011-05-01T12:42:58Z</time>
      </trkpt>
      <trkpt lat="59.6273159701" lon="17.4892939255">
        <ele>5.8</ele>
        <time>2011-05-01T12:43:00Z</time>
      </trkpt>
      <trkpt lat="59.6270829532" lon="17.4895019643">
        <ele>5.4</ele>
        <time>2011-05-01T12:43:02Z</time>
      </trkpt>
      <trkpt lat="59.6268629283" lon="17.4897189718">
        <ele>5.8</ele>
        <time>2011-05-01T12:43:04Z</time>
      </trkpt>
      <trkpt lat="59.6266529616" lon="17.4899679981">
        <ele>7.8</ele>
        <time>2011-05-01T12:43:06Z</time>
      </trkpt>
      <trkpt lat="59.6265579946" lon="17.4900939781">
        <ele>7.8</ele>
        <time>2011-05-01T12:43:07Z</time>
      </trkpt>
      <trkpt lat="59.6263139974" lon="17.4905059487">
        <ele>6.8</ele>
        <time>2011-05-01T12:43:10Z</time>
      </trkpt>
      <trkpt lat="59.6261229739" lon="17.4909089506">
        <ele>7.2</ele>
        <time>2011-05-01T12:43:13Z</time>
      </trkpt>
      <trkpt lat="59.625964975" lon="17.4912989605">
        <ele>8.2</ele>
        <time>2011-05-01T12:43:16Z</time>
      </trkpt>
      <trkpt lat="59.6258279309" lon="17.4916409422">
        <ele>9.2</ele>
        <time>2011-05-01T12:43:19Z</time>
      </trkpt>
      <trkpt lat="59.62570698" lon="17.491943948">
        <ele>10.6</ele>
        <time>2011-05-01T12:43:22Z</time>
      </trkpt>
      <trkpt lat="59.6256309561" lon="17.4921319541">
        <ele>11.6</ele>
        <time>2011-05-01T12:43:24Z</time>
      </trkpt>
      <trkpt lat="59.6255209856" lon="17.492389949">
        <ele>11.6</ele>
        <time>2011-05-01T12:43:27Z</time>
      </trkpt>
      <trkpt lat="59.6254229173" lon="17.4926399812">
        <ele>13.4</ele>
        <time>2011-05-01T12:43:30Z</time>
      </trkpt>
      <trkpt lat="59.6253029723" lon="17.4929479323">
        <ele>14</ele>
        <time>2011-05-01T12:43:34Z</time>
      </trkpt>
      <trkpt lat="59.6251939237" lon="17.4932349287">
        <ele>15</ele>
        <time>2011-05-01T12:43:38Z</time>
      </trkpt>
      <trkpt lat="59.6250959393" lon="17.4935009703">
        <ele>15.4</ele>
        <time>2011-05-01T12:43:42Z</time>
      </trkpt>
      <trkpt lat="59.6250249445" lon="17.4936949275">
        <ele>17.4</ele>
        <time>2011-05-01T12:43:45Z</time>
      </trkpt>
      <trkpt lat="59.6249289718" lon="17.4939549342">
        <ele>17.8</ele>
        <time>2011-05-01T12:43:49Z</time>
      </trkpt>
      <trkpt lat="59.624826964" lon="17.4942209758">
        <ele>19.2</ele>
        <time>2011-05-01T12:43:53Z</time>
      </trkpt>
      <trkpt lat="59.6247159876" lon="17.4944879394">
        <ele>20.2</ele>
        <time>2011-05-01T12:43:57Z</time>
      </trkpt>
      <trkpt lat="59.6245999821" lon="17.4947239738">
        <ele>21.2</ele>
        <time>2011-05-01T12:44:01Z</time>
      </trkpt>
      <trkpt lat="59.6244779415" lon="17.4949329346">
        <ele>22.2</ele>
        <time>2011-05-01T12:44:05Z</time>
      </trkpt>
      <trkpt lat="59.6243499499" lon="17.4951089546">
        <ele>23.6</ele>
        <time>2011-05-01T12:44:09Z</time>
      </trkpt>
      <trkpt lat="59.6242149174" lon="17.4952429812">
        <ele>25</ele>
        <time>2011-05-01T12:44:13Z</time>
      </trkpt>
      <trkpt lat="59.6240719222" lon="17.4953559693">
        <ele>26.4</ele>
        <time>2011-05-01T12:44:17Z</time>
      </trkpt>
      <trkpt lat="59.6239239816" lon="17.4954699632">
        <ele>27.4</ele>
        <time>2011-05-01T12:44:21Z</time>
      </trkpt>
      <trkpt lat="59.6237749513" lon="17.4955839571">
        <ele>28.4</ele>
        <time>2011-05-01T12:44:25Z</time>
      </trkpt>
      <trkpt lat="59.6236269269" lon="17.495690994">
        <ele>29.4</ele>
        <time>2011-05-01T12:44:29Z</time>
      </trkpt>
      <trkpt lat="59.6234929841" lon="17.4958009645">
        <ele>29.8</ele>
        <time>2011-05-01T12:44:33Z</time>
      </trkpt>
      <trkpt lat="59.6233519167" lon="17.495904984">
        <ele>30.8</ele>
        <time>2011-05-01T12:44:37Z</time>
      </trkpt>
      <trkpt lat="59.6232029703" lon="17.4960229173">
        <ele>31.8</ele>
        <time>2011-05-01T12:44:41Z</time>
      </trkpt>
      <trkpt lat="59.6230519284" lon="17.4961389229">
        <ele>32.8</ele>
        <time>2011-05-01T12:44:45Z</time>
      </trkpt>
      <trkpt lat="59.6228959411" lon="17.4962569401">
        <ele>33.2</ele>
        <time>2011-05-01T12:44:49Z</time>
      </trkpt>
      <trkpt lat="59.6227379423" lon="17.4963799864">
        <ele>33.6</ele>
        <time>2011-05-01T12:44:53Z</time>
      </trkpt>
      <trkpt lat="59.6225759201" lon="17.4965049606">
        <ele>34.2</ele>
        <time>2011-05-01T12:44:57Z</time>
      </trkpt>
      <trkpt lat="59.6223859861" lon="17.4966379814">
        <ele>34.6</ele>
        <time>2011-05-01T12:45:01Z</time>
      </trkpt>
      <trkpt lat="59.6222349443" lon="17.4967509694">
        <ele>34.2</ele>
        <time>2011-05-01T12:45:04Z</time>
      </trkpt>
      <trkpt lat="59.6220729221" lon="17.4968689866">
        <ele>34.2</ele>
        <time>2011-05-01T12:45:07Z</time>
      </trkpt>
      <trkpt lat="59.6219029371" lon="17.4969919492">
        <ele>34.6</ele>
        <time>2011-05-01T12:45:10Z</time>
      </trkpt>
      <trkpt lat="59.6217239834" lon="17.4971089605">
        <ele>34.6</ele>
        <time>2011-05-01T12:45:13Z</time>
      </trkpt>
      <trkpt lat="59.6214139368" lon="17.4972829688">
        <ele>34.2</ele>
        <time>2011-05-01T12:45:18Z</time>
      </trkpt>
      <trkpt lat="59.6212149505" lon="17.4973589927">
        <ele>34.2</ele>
        <time>2011-05-01T12:45:21Z</time>
      </trkpt>
      <trkpt lat="59.621003978" lon="17.4974269699">
        <ele>34.6</ele>
        <time>2011-05-01T12:45:24Z</time>
      </trkpt>
      <trkpt lat="59.6207869705" lon="17.4974779319">
        <ele>34.2</ele>
        <time>2011-05-01T12:45:27Z</time>
      </trkpt>
      <trkpt lat="59.6205659397" lon="17.4975069333">
        <ele>34.2</ele>
        <time>2011-05-01T12:45:30Z</time>
      </trkpt>
      <trkpt lat="59.6203459986" lon="17.4975199252">
        <ele>34.6</ele>
        <time>2011-05-01T12:45:33Z</time>
      </trkpt>
      <trkpt lat="59.6201229561" lon="17.4975289777">
        <ele>34.6</ele>
        <time>2011-05-01T12:45:36Z</time>
      </trkpt>
      <trkpt lat="59.6198929567" lon="17.4975359347">
        <ele>34.2</ele>
        <time>2011-05-01T12:45:39Z</time>
      </trkpt>
      <trkpt lat="59.6196579281" lon="17.4975409638">
        <ele>33.6</ele>
        <time>2011-05-01T12:45:42Z</time>
      </trkpt>
      <trkpt lat="59.6194119193" lon="17.4975529499">
        <ele>34.2</ele>
        <time>2011-05-01T12:45:45Z</time>
      </trkpt>
      <trkpt lat="59.6191499848" lon="17.4975899979">
        <ele>33.6</ele>
        <time>2011-05-01T12:45:48Z</time>
      </trkpt>
      <trkpt lat="59.6188769862" lon="17.4976549577">
        <ele>33.2</ele>
        <time>2011-05-01T12:45:51Z</time>
      </trkpt>
      <trkpt lat="59.6187839471" lon="17.4976829533">
        <ele>33.2</ele>
        <time>2011-05-01T12:45:52Z</time>
      </trkpt>
      <trkpt lat="59.6184999682" lon="17.4977899902">
        <ele>31.2</ele>
        <time>2011-05-01T12:45:55Z</time>
      </trkpt>
      <trkpt lat="59.6182109602" lon="17.4979289621">
        <ele>32.2</ele>
        <time>2011-05-01T12:45:58Z</time>
      </trkpt>
      <trkpt lat="59.6179209463" lon="17.4981069937">
        <ele>30.8</ele>
        <time>2011-05-01T12:46:01Z</time>
      </trkpt>
      <trkpt lat="59.6176229697" lon="17.4982989393">
        <ele>29.4</ele>
        <time>2011-05-01T12:46:04Z</time>
      </trkpt>
      <trkpt lat="59.6173119172" lon="17.4985009432">
        <ele>27.4</ele>
        <time>2011-05-01T12:46:07Z</time>
      </trkpt>
      <trkpt lat="59.6169949975" lon="17.498708982">
        <ele>26.4</ele>
        <time>2011-05-01T12:46:10Z</time>
      </trkpt>
      <trkpt lat="59.6167809237" lon="17.4988439307">
        <ele>25.6</ele>
        <time>2011-05-01T12:46:12Z</time>
      </trkpt>
      <trkpt lat="59.6164539456" lon="17.4990329426">
        <ele>24.6</ele>
        <time>2011-05-01T12:46:15Z</time>
      </trkpt>
      <trkpt lat="59.6162359323" lon="17.4991489481">
        <ele>24.6</ele>
        <time>2011-05-01T12:46:17Z</time>
      </trkpt>
      <trkpt lat="59.6160139795" lon="17.4992569908">
        <ele>23.2</ele>
        <time>2011-05-01T12:46:19Z</time>
      </trkpt>
      <trkpt lat="59.6157909371" lon="17.4993629381">
        <ele>22.6</ele>
        <time>2011-05-01T12:46:21Z</time>
      </trkpt>
      <trkpt lat="59.6155679785" lon="17.4994689692">
        <ele>22.2</ele>
        <time>2011-05-01T12:46:23Z</time>
      </trkpt>
      <trkpt lat="59.6152379829" lon="17.4996269681">
        <ele>23.6</ele>
        <time>2011-05-01T12:46:26Z</time>
      </trkpt>
      <trkpt lat="59.6149129327" lon="17.499778932">
        <ele>21.6</ele>
        <time>2011-05-01T12:46:29Z</time>
      </trkpt>
      <trkpt lat="59.6145949233" lon="17.4999139644">
        <ele>23.6</ele>
        <time>2011-05-01T12:46:32Z</time>
      </trkpt>
      <trkpt lat="59.614287978" lon="17.5000199955">
        <ele>23.2</ele>
        <time>2011-05-01T12:46:35Z</time>
      </trkpt>
      <trkpt lat="59.6139899176" lon="17.5000939239">
        <ele>22.6</ele>
        <time>2011-05-01T12:46:38Z</time>
      </trkpt>
      <trkpt lat="59.61369697" lon="17.5001449697">
        <ele>22.6</ele>
        <time>2011-05-01T12:46:41Z</time>
      </trkpt>
      <trkpt lat="59.613407962" lon="17.5001879688">
        <ele>22.6</ele>
        <time>2011-05-01T12:46:44Z</time>
      </trkpt>
      <trkpt lat="59.6131229773" lon="17.5002319738">
        <ele>19.8</ele>
        <time>2011-05-01T12:46:47Z</time>
      </trkpt>
      <trkpt lat="59.6130299382" lon="17.5002449658">
        <ele>20.8</ele>
        <time>2011-05-01T12:46:48Z</time>
      </trkpt>
      <trkpt lat="59.6128439438" lon="17.500268938">
        <ele>21.2</ele>
        <time>2011-05-01T12:46:50Z</time>
      </trkpt>
      <trkpt lat="59.6125729568" lon="17.500305986">
        <ele>20.2</ele>
        <time>2011-05-01T12:46:53Z</time>
      </trkpt>
      <trkpt lat="59.6123129502" lon="17.5003409386">
        <ele>21.2</ele>
        <time>2011-05-01T12:46:56Z</time>
      </trkpt>
      <trkpt lat="59.612061996" lon="17.5003769808">
        <ele>21.2</ele>
        <time>2011-05-01T12:46:59Z</time>
      </trkpt>
      <trkpt lat="59.6118189208" lon="17.5004089996">
        <ele>21.6</ele>
        <time>2011-05-01T12:47:02Z</time>
      </trkpt>
      <trkpt lat="59.6115879994" lon="17.500444958">
        <ele>22.6</ele>
        <time>2011-05-01T12:47:05Z</time>
      </trkpt>
      <trkpt lat="59.6113669686" lon="17.5004779827">
        <ele>23.2</ele>
        <time>2011-05-01T12:47:08Z</time>
      </trkpt>
      <trkpt lat="59.6111569181" lon="17.5005089957">
        <ele>24</ele>
        <time>2011-05-01T12:47:11Z</time>
      </trkpt>
      <trkpt lat="59.6109499689" lon="17.5005369913">
        <ele>24.6</ele>
        <time>2011-05-01T12:47:14Z</time>
      </trkpt>
      <trkpt lat="59.6107419301" lon="17.5005609635">
        <ele>25.6</ele>
        <time>2011-05-01T12:47:17Z</time>
      </trkpt>
      <trkpt lat="59.6105339751" lon="17.5005829241">
        <ele>25.6</ele>
        <time>2011-05-01T12:47:20Z</time>
      </trkpt>
      <trkpt lat="59.6103229187" lon="17.5006169546">
        <ele>25.6</ele>
        <time>2011-05-01T12:47:23Z</time>
      </trkpt>
      <trkpt lat="59.6101169754" lon="17.500658948">
        <ele>25.6</ele>
        <time>2011-05-01T12:47:26Z</time>
      </trkpt>
      <trkpt lat="59.6099059191" lon="17.5006869435">
        <ele>24.6</ele>
        <time>2011-05-01T12:47:29Z</time>
      </trkpt>
      <trkpt lat="59.6098329965" lon="17.500695996">
        <ele>24</ele>
        <time>2011-05-01T12:47:30Z</time>
      </trkpt>
      <trkpt lat="59.609615989" lon="17.5007449463">
        <ele>24</ele>
        <time>2011-05-01T12:47:33Z</time>
      </trkpt>
      <trkpt lat="59.6093979757" lon="17.5008429307">
        <ele>22.6</ele>
        <time>2011-05-01T12:47:36Z</time>
      </trkpt>
      <trkpt lat="59.6091719996" lon="17.5009659771">
        <ele>21.2</ele>
        <time>2011-05-01T12:47:39Z</time>
      </trkpt>
      <trkpt lat="59.6089289244" lon="17.5011089724">
        <ele>22.2</ele>
        <time>2011-05-01T12:47:42Z</time>
      </trkpt>
      <trkpt lat="59.6086739469" lon="17.5012819748">
        <ele>22.6</ele>
        <time>2011-05-01T12:47:45Z</time>
      </trkpt>
      <trkpt lat="59.6084219869" lon="17.5014809612">
        <ele>22.6</ele>
        <time>2011-05-01T12:47:48Z</time>
      </trkpt>
      <trkpt lat="59.6081769839" lon="17.5016949512">
        <ele>22.6</ele>
        <time>2011-05-01T12:47:51Z</time>
      </trkpt>
      <trkpt lat="59.6079459786" lon="17.5019349251">
        <ele>22.6</ele>
        <time>2011-05-01T12:47:54Z</time>
      </trkpt>
      <trkpt lat="59.6077279653" lon="17.502198955">
        <ele>22.2</ele>
        <time>2011-05-01T12:47:57Z</time>
      </trkpt>
      <trkpt lat="59.6075929329" lon="17.5023869611">
        <ele>23.2</ele>
        <time>2011-05-01T12:47:59Z</time>
      </trkpt>
      <trkpt lat="59.6074019931" lon="17.5026859436">
        <ele>23.6</ele>
        <time>2011-05-01T12:48:02Z</time>
      </trkpt>
      <trkpt lat="59.6072839759" lon="17.50288493">
        <ele>24</ele>
        <time>2011-05-01T12:48:04Z</time>
      </trkpt>
      <trkpt lat="59.6070809662" lon="17.5033389777">
        <ele>22.6</ele>
        <time>2011-05-01T12:48:08Z</time>
      </trkpt>
      <trkpt lat="59.6069279965" lon="17.503676936">
        <ele>23.6</ele>
        <time>2011-05-01T12:48:11Z</time>
      </trkpt>
      <trkpt lat="59.6067739371" lon="17.503984971">
        <ele>23.6</ele>
        <time>2011-05-01T12:48:14Z</time>
      </trkpt>
      <trkpt lat="59.6066169441" lon="17.5042699557">
        <ele>24.6</ele>
        <time>2011-05-01T12:48:17Z</time>
      </trkpt>
      <trkpt lat="59.6064569335" lon="17.5045399368">
        <ele>25</ele>
        <time>2011-05-01T12:48:20Z</time>
      </trkpt>
      <trkpt lat="59.6062869485" lon="17.5048029609">
        <ele>25.6</ele>
        <time>2011-05-01T12:48:23Z</time>
      </trkpt>
      <trkpt lat="59.6061029658" lon="17.5050639734">
        <ele>25.6</ele>
        <time>2011-05-01T12:48:26Z</time>
      </trkpt>
      <trkpt lat="59.6059089247" lon="17.50532398">
        <ele>26</ele>
        <time>2011-05-01T12:48:29Z</time>
      </trkpt>
      <trkpt lat="59.6057139616" lon="17.5055769458">
        <ele>26</ele>
        <time>2011-05-01T12:48:32Z</time>
      </trkpt>
      <trkpt lat="59.605510952" lon="17.5058059394">
        <ele>26</ele>
        <time>2011-05-01T12:48:35Z</time>
      </trkpt>
      <trkpt lat="59.6053049248" lon="17.5060109608">
        <ele>27</ele>
        <time>2011-05-01T12:48:38Z</time>
      </trkpt>
      <trkpt lat="59.6050989814" lon="17.5061869808">
        <ele>27.4</ele>
        <time>2011-05-01T12:48:41Z</time>
      </trkpt>
      <trkpt lat="59.6048959717" lon="17.5063459855">
        <ele>27.4</ele>
        <time>2011-05-01T12:48:44Z</time>
      </trkpt>
      <trkpt lat="59.6046829876" lon="17.5064899866">
        <ele>28.8</ele>
        <time>2011-05-01T12:48:47Z</time>
      </trkpt>
      <trkpt lat="59.6044779662" lon="17.506600963">
        <ele>29.4</ele>
        <time>2011-05-01T12:48:50Z</time>
      </trkpt>
      <trkpt lat="59.6042829193" lon="17.5066899788">
        <ele>29.8</ele>
        <time>2011-05-01T12:48:53Z</time>
      </trkpt>
      <trkpt lat="59.6040939912" lon="17.5067749713">
        <ele>30.8</ele>
        <time>2011-05-01T12:48:56Z</time>
      </trkpt>
      <trkpt lat="59.6039079968" lon="17.506839931">
        <ele>31.8</ele>
        <time>2011-05-01T12:48:59Z</time>
      </trkpt>
      <trkpt lat="59.6037199907" lon="17.5068809185">
        <ele>32.2</ele>
        <time>2011-05-01T12:49:02Z</time>
      </trkpt>
      <trkpt lat="59.6035279613" lon="17.5069099199">
        <ele>32.8</ele>
        <time>2011-05-01T12:49:05Z</time>
      </trkpt>
      <trkpt lat="59.603340961" lon="17.5069239177">
        <ele>33.2</ele>
        <time>2011-05-01T12:49:08Z</time>
      </trkpt>
      <trkpt lat="59.6032139752" lon="17.5069309585">
        <ele>34.2</ele>
        <time>2011-05-01T12:49:10Z</time>
      </trkpt>
      <trkpt lat="59.6030299924" lon="17.5069269352">
        <ele>34.2</ele>
        <time>2011-05-01T12:49:13Z</time>
      </trkpt>
      <trkpt lat="59.6028569899" lon="17.5069319643">
        <ele>35.2</ele>
        <time>2011-05-01T12:49:16Z</time>
      </trkpt>
      <trkpt lat="59.6026729234" lon="17.5069299527">
        <ele>35.2</ele>
        <time>2011-05-01T12:49:19Z</time>
      </trkpt>
      <trkpt lat="59.6024799719" lon="17.5069409329">
        <ele>35.6</ele>
        <time>2011-05-01T12:49:22Z</time>
      </trkpt>
      <trkpt lat="59.6022839192" lon="17.506971946">
        <ele>35.6</ele>
        <time>2011-05-01T12:49:25Z</time>
      </trkpt>
      <trkpt lat="59.6020939853" lon="17.5070229918">
        <ele>36</ele>
        <time>2011-05-01T12:49:28Z</time>
      </trkpt>
      <trkpt lat="59.6018979326" lon="17.5071059726">
        <ele>35.6</ele>
        <time>2011-05-01T12:49:31Z</time>
      </trkpt>
      <trkpt lat="59.6016949229" lon="17.5072109979">
        <ele>35.6</ele>
        <time>2011-05-01T12:49:34Z</time>
      </trkpt>
      <trkpt lat="59.6014849562" lon="17.5073379837">
        <ele>35.6</ele>
        <time>2011-05-01T12:49:37Z</time>
      </trkpt>
      <trkpt lat="59.6012699604" lon="17.5074879359">
        <ele>35.2</ele>
        <time>2011-05-01T12:49:40Z</time>
      </trkpt>
      <trkpt lat="59.6010539588" lon="17.5076419953">
        <ele>34.6</ele>
        <time>2011-05-01T12:49:43Z</time>
      </trkpt>
      <trkpt lat="59.6008269768" lon="17.5078059454">
        <ele>34.6</ele>
        <time>2011-05-01T12:49:46Z</time>
      </trkpt>
      <trkpt lat="59.6005929541" lon="17.5079699792">
        <ele>34.2</ele>
        <time>2011-05-01T12:49:49Z</time>
      </trkpt>
      <trkpt lat="59.6003519744" lon="17.5081439875">
        <ele>34.2</ele>
        <time>2011-05-01T12:49:52Z</time>
      </trkpt>
      <trkpt lat="59.6000899561" lon="17.5083319936">
        <ele>33.2</ele>
        <time>2011-05-01T12:49:55Z</time>
      </trkpt>
      <trkpt lat="59.5998159517" lon="17.5085149705">
        <ele>32.2</ele>
        <time>2011-05-01T12:49:58Z</time>
      </trkpt>
      <trkpt lat="59.5995429531" lon="17.5086749811">
        <ele>31.8</ele>
        <time>2011-05-01T12:50:01Z</time>
      </trkpt>
      <trkpt lat="59.5992709603" lon="17.5088049844">
        <ele>29.8</ele>
        <time>2011-05-01T12:50:04Z</time>
      </trkpt>
      <trkpt lat="59.5989979617" lon="17.5089189783">
        <ele>30.8</ele>
        <time>2011-05-01T12:50:07Z</time>
      </trkpt>
      <trkpt lat="59.5988119673" lon="17.5089959241">
        <ele>29.8</ele>
        <time>2011-05-01T12:50:09Z</time>
      </trkpt>
      <trkpt lat="59.5985239651" lon="17.5091209821">
        <ele>29.8</ele>
        <time>2011-05-01T12:50:12Z</time>
      </trkpt>
      <trkpt lat="59.5982359629" lon="17.509241933">
        <ele>29.4</ele>
        <time>2011-05-01T12:50:15Z</time>
      </trkpt>
      <trkpt lat="59.5979329571" lon="17.5093709305">
        <ele>28</ele>
        <time>2011-05-01T12:50:18Z</time>
      </trkpt>
      <trkpt lat="59.5976309571" lon="17.509499928">
        <ele>28.4</ele>
        <time>2011-05-01T12:50:21Z</time>
      </trkpt>
      <trkpt lat="59.5973389316" lon="17.5096229743">
        <ele>28.4</ele>
        <time>2011-05-01T12:50:24Z</time>
      </trkpt>
      <trkpt lat="59.5970549528" lon="17.5097419973">
        <ele>27.4</ele>
        <time>2011-05-01T12:50:27Z</time>
      </trkpt>
      <trkpt lat="59.5967749972" lon="17.5098659657">
        <ele>27.4</ele>
        <time>2011-05-01T12:50:30Z</time>
      </trkpt>
      <trkpt lat="59.5964919403" lon="17.5099889282">
        <ele>27.4</ele>
        <time>2011-05-01T12:50:33Z</time>
      </trkpt>
      <trkpt lat="59.5962079614" lon="17.5101109687">
        <ele>27.4</ele>
        <time>2011-05-01T12:50:36Z</time>
      </trkpt>
      <trkpt lat="59.5959289279" lon="17.5102389604">
        <ele>27.4</ele>
        <time>2011-05-01T12:50:39Z</time>
      </trkpt>
      <trkpt lat="59.5956489723" lon="17.5103639346">
        <ele>27.4</ele>
        <time>2011-05-01T12:50:42Z</time>
      </trkpt>
      <trkpt lat="59.5953709446" lon="17.5104929321">
        <ele>27.4</ele>
        <time>2011-05-01T12:50:45Z</time>
      </trkpt>
      <trkpt lat="59.5950939227" lon="17.5106099434">
        <ele>27</ele>
        <time>2011-05-01T12:50:48Z</time>
      </trkpt>
      <trkpt lat="59.5948129613" lon="17.5106829498">
        <ele>27</ele>
        <time>2011-05-01T12:50:51Z</time>
      </trkpt>
      <trkpt lat="59.5945309941" lon="17.5107399467">
        <ele>26.4</ele>
        <time>2011-05-01T12:50:54Z</time>
      </trkpt>
      <trkpt lat="59.5942479372" lon="17.510787975">
        <ele>27</ele>
        <time>2011-05-01T12:50:57Z</time>
      </trkpt>
      <trkpt lat="59.5939739328" lon="17.5108209997">
        <ele>26.4</ele>
        <time>2011-05-01T12:51:00Z</time>
      </trkpt>
      <trkpt lat="59.5936979167" lon="17.5108189881">
        <ele>26</ele>
        <time>2011-05-01T12:51:03Z</time>
      </trkpt>
      <trkpt lat="59.5934209786" lon="17.5107769947">
        <ele>26</ele>
        <time>2011-05-01T12:51:06Z</time>
      </trkpt>
      <trkpt lat="59.5931459684" lon="17.5106759928">
        <ele>25.6</ele>
        <time>2011-05-01T12:51:09Z</time>
      </trkpt>
      <trkpt lat="59.5928619895" lon="17.5105459895">
        <ele>24.6</ele>
        <time>2011-05-01T12:51:12Z</time>
      </trkpt>
      <trkpt lat="59.5925619174" lon="17.5104519445">
        <ele>24</ele>
        <time>2011-05-01T12:51:15Z</time>
      </trkpt>
      <trkpt lat="59.5922599174" lon="17.5103709754">
        <ele>23.6</ele>
        <time>2011-05-01T12:51:18Z</time>
      </trkpt>
      <trkpt lat="59.5919569954" lon="17.5102939457">
        <ele>22.6</ele>
        <time>2011-05-01T12:51:21Z</time>
      </trkpt>
      <trkpt lat="59.591645943" lon="17.5102289859">
        <ele>21.6</ele>
        <time>2011-05-01T12:51:24Z</time>
      </trkpt>
      <trkpt lat="59.5913249999" lon="17.510158997">
        <ele>21.2</ele>
        <time>2011-05-01T12:51:27Z</time>
      </trkpt>
      <trkpt lat="59.5910069905" lon="17.5100849848">
        <ele>20.2</ele>
        <time>2011-05-01T12:51:30Z</time>
      </trkpt>
      <trkpt lat="59.5906989556" lon="17.5099719968">
        <ele>19.8</ele>
        <time>2011-05-01T12:51:33Z</time>
      </trkpt>
      <trkpt lat="59.590387987" lon="17.5098369643">
        <ele>20.2</ele>
        <time>2011-05-01T12:51:36Z</time>
      </trkpt>
      <trkpt lat="59.5900769345" lon="17.5096869282">
        <ele>20.2</ele>
        <time>2011-05-01T12:51:39Z</time>
      </trkpt>
      <trkpt lat="59.5897669718" lon="17.5095419213">
        <ele>19.8</ele>
        <time>2011-05-01T12:51:42Z</time>
      </trkpt>
      <trkpt lat="59.5894599427" lon="17.5093939807">
        <ele>19.8</ele>
        <time>2011-05-01T12:51:45Z</time>
      </trkpt>
      <trkpt lat="59.5891599543" lon="17.5092509855">
        <ele>19.8</ele>
        <time>2011-05-01T12:51:48Z</time>
      </trkpt>
      <trkpt lat="59.5888589602" lon="17.5091079902">
        <ele>20.8</ele>
        <time>2011-05-01T12:51:51Z</time>
      </trkpt>
      <trkpt lat="59.5885599777" lon="17.5089709461">
        <ele>20.2</ele>
        <time>2011-05-01T12:51:54Z</time>
      </trkpt>
      <trkpt lat="59.5882709697" lon="17.5088339858">
        <ele>21.2</ele>
        <time>2011-05-01T12:51:57Z</time>
      </trkpt>
      <trkpt lat="59.5880049281" lon="17.5087109394">
        <ele>21.6</ele>
        <time>2011-05-01T12:52:00Z</time>
      </trkpt>
      <trkpt lat="59.5877539739" lon="17.5085989572">
        <ele>22.6</ele>
        <time>2011-05-01T12:52:03Z</time>
      </trkpt>
      <trkpt lat="59.5875219628" lon="17.5084849633">
        <ele>23.2</ele>
        <time>2011-05-01T12:52:06Z</time>
      </trkpt>
      <trkpt lat="59.5873099845" lon="17.5083899964">
        <ele>24</ele>
        <time>2011-05-01T12:52:09Z</time>
      </trkpt>
      <trkpt lat="59.5871109981" lon="17.5082989689">
        <ele>25</ele>
        <time>2011-05-01T12:52:12Z</time>
      </trkpt>
      <trkpt lat="59.5869249199" lon="17.5082149822">
        <ele>25.6</ele>
        <time>2011-05-01T12:52:15Z</time>
      </trkpt>
      <trkpt lat="59.5867589582" lon="17.5081419758">
        <ele>26</ele>
        <time>2011-05-01T12:52:18Z</time>
      </trkpt>
      <trkpt lat="59.5865999535" lon="17.508071987">
        <ele>27.4</ele>
        <time>2011-05-01T12:52:21Z</time>
      </trkpt>
      <trkpt lat="59.5864369255" lon="17.5079919398">
        <ele>27.4</ele>
        <time>2011-05-01T12:52:24Z</time>
      </trkpt>
      <trkpt lat="59.5862659346" lon="17.5079129823">
        <ele>28.4</ele>
        <time>2011-05-01T12:52:27Z</time>
      </trkpt>
      <trkpt lat="59.586093938" lon="17.5078419875">
        <ele>28.8</ele>
        <time>2011-05-01T12:52:30Z</time>
      </trkpt>
      <trkpt lat="59.5859249588" lon="17.5077669695">
        <ele>28.8</ele>
        <time>2011-05-01T12:52:33Z</time>
      </trkpt>
      <trkpt lat="59.5857499447" lon="17.5076809712">
        <ele>29.4</ele>
        <time>2011-05-01T12:52:36Z</time>
      </trkpt>
      <trkpt lat="59.5855659619" lon="17.5075949728">
        <ele>29.4</ele>
        <time>2011-05-01T12:52:39Z</time>
      </trkpt>
      <trkpt lat="59.5853869244" lon="17.507511992">
        <ele>28.8</ele>
        <time>2011-05-01T12:52:42Z</time>
      </trkpt>
      <trkpt lat="59.5852119941" lon="17.5074269995">
        <ele>28.8</ele>
        <time>2011-05-01T12:52:45Z</time>
      </trkpt>
      <trkpt lat="59.5850269217" lon="17.5073319487">
        <ele>28.4</ele>
        <time>2011-05-01T12:52:48Z</time>
      </trkpt>
      <trkpt lat="59.584835982" lon="17.5072139315">
        <ele>27.4</ele>
        <time>2011-05-01T12:52:51Z</time>
      </trkpt>
      <trkpt lat="59.58464697" lon="17.5070739537">
        <ele>27</ele>
        <time>2011-05-01T12:52:54Z</time>
      </trkpt>
      <trkpt lat="59.5845069923" lon="17.5066899788">
        <ele>25.6</ele>
        <time>2011-05-01T12:52:58Z</time>
      </trkpt>
      <trkpt lat="59.5845109317" lon="17.5063129608">
        <ele>25.6</ele>
        <time>2011-05-01T12:53:01Z</time>
      </trkpt>
      <trkpt lat="59.5844509173" lon="17.5060969591">
        <ele>25.6</ele>
        <time>2011-05-01T12:53:03Z</time>
      </trkpt>
      <trkpt lat="59.584364919" lon="17.5059239566">
        <ele>25.6</ele>
        <time>2011-05-01T12:53:05Z</time>
      </trkpt>
      <trkpt lat="59.5842489973" lon="17.5055279955">
        <ele>25</ele>
        <time>2011-05-01T12:53:09Z</time>
      </trkpt>
      <trkpt lat="59.5843389351" lon="17.5052629597">
        <ele>24.6</ele>
        <time>2011-05-01T12:53:12Z</time>
      </trkpt>
      <trkpt lat="59.5844889712" lon="17.5053519756">
        <ele>24</ele>
        <time>2011-05-01T12:53:15Z</time>
      </trkpt>
      <trkpt lat="59.5846089162" lon="17.5055519678">
        <ele>23.6</ele>
        <time>2011-05-01T12:53:18Z</time>
      </trkpt>
      <trkpt lat="59.5847639814" lon="17.5054689869">
        <ele>24</ele>
        <time>2011-05-01T12:53:22Z</time>
      </trkpt>
      <trkpt lat="59.5848329645" lon="17.5052619539">
        <ele>24</ele>
        <time>2011-05-01T12:53:26Z</time>
      </trkpt>
      <trkpt lat="59.5848209783" lon="17.505122982">
        <ele>24.6</ele>
        <time>2011-05-01T12:53:30Z</time>
      </trkpt>
      <trkpt lat="59.5848069806" lon="17.505078977">
        <ele>24.6</ele>
        <time>2011-05-01T12:53:40Z</time>
      </trkpt>
      <trkpt lat="59.5848029573" lon="17.5050599501">
        <ele>24.6</ele>
        <time>2011-05-01T12:53:41Z</time>
      </trkpt>
      <trkpt lat="59.5847059786" lon="17.5052189548">
        <ele>31.2</ele>
        <time>2011-05-01T13:08:34Z</time>
      </trkpt>
      <trkpt lat="59.5847029611" lon="17.5052259956">
        <ele>31.8</ele>
        <time>2011-05-01T13:08:35Z</time>
      </trkpt>
      <trkpt lat="59.5847639814" lon="17.5052509736">
        <ele>32.2</ele>
        <time>2011-05-01T13:08:49Z</time>
      </trkpt>
      <trkpt lat="59.5847679209" lon="17.5052559189">
        <ele>32.2</ele>
        <time>2011-05-01T13:08:50Z</time>
      </trkpt>
      <trkpt lat="59.5847709384" lon="17.5052629597">
        <ele>31.2</ele>
        <time>2011-05-01T13:08:52Z</time>
      </trkpt>
      <trkpt lat="59.5847969223" lon="17.5053019356">
        <ele>31.2</ele>
        <time>2011-05-01T13:08:57Z</time>
      </trkpt>
      <trkpt lat="59.5847969223" lon="17.5053049531">
        <ele>31.2</ele>
        <time>2011-05-01T13:08:59Z</time>
      </trkpt>
      <trkpt lat="59.5847949944" lon="17.5052969903">
        <ele>31.2</ele>
        <time>2011-05-01T13:09:16Z</time>
      </trkpt>
      <trkpt lat="59.5847939886" lon="17.5053019356">
        <ele>31.2</ele>
        <time>2011-05-01T13:09:17Z</time>
      </trkpt>
      <trkpt lat="59.5847909711" lon="17.5053079706">
        <ele>31.2</ele>
        <time>2011-05-01T13:09:18Z</time>
      </trkpt>
      <trkpt lat="59.5847829245" lon="17.5053229742">
        <ele>31.2</ele>
        <time>2011-05-01T13:09:19Z</time>
      </trkpt>
      <trkpt lat="59.5846579503" lon="17.5052649714">
        <ele>30.4</ele>
        <time>2011-05-01T13:09:24Z</time>
      </trkpt>
      <trkpt lat="59.5846379176" lon="17.505191965">
        <ele>30.8</ele>
        <time>2011-05-01T13:09:25Z</time>
      </trkpt>
      <trkpt lat="59.5844639931" lon="17.5049519911">
        <ele>31.2</ele>
        <time>2011-05-01T13:09:31Z</time>
      </trkpt>
      <trkpt lat="59.5844299626" lon="17.5049809925">
        <ele>30.8</ele>
        <time>2011-05-01T13:09:32Z</time>
      </trkpt>
      <trkpt lat="59.5842899848" lon="17.5051629636">
        <ele>31.2</ele>
        <time>2011-05-01T13:09:37Z</time>
      </trkpt>
      <trkpt lat="59.5842669345" lon="17.5052159373">
        <ele>31.2</ele>
        <time>2011-05-01T13:09:38Z</time>
      </trkpt>
      <trkpt lat="59.584231982" lon="17.5056219567">
        <ele>32.8</ele>
        <time>2011-05-01T13:09:43Z</time>
      </trkpt>
      <trkpt lat="59.5842369273" lon="17.5057939533">
        <ele>32.2</ele>
        <time>2011-05-01T13:09:45Z</time>
      </trkpt>
      <trkpt lat="59.5841719676" lon="17.5061539561">
        <ele>33.6</ele>
        <time>2011-05-01T13:09:49Z</time>
      </trkpt>
      <trkpt lat="59.5840359293" lon="17.5064879749">
        <ele>32.8</ele>
        <time>2011-05-01T13:09:53Z</time>
      </trkpt>
      <trkpt lat="59.5839109551" lon="17.5067099277">
        <ele>33.6</ele>
        <time>2011-05-01T13:09:56Z</time>
      </trkpt>
      <trkpt lat="59.5837199315" lon="17.5069489796">
        <ele>34.2</ele>
        <time>2011-05-01T13:10:00Z</time>
      </trkpt>
      <trkpt lat="59.5835729968" lon="17.5070959982">
        <ele>34.2</ele>
        <time>2011-05-01T13:10:03Z</time>
      </trkpt>
      <trkpt lat="59.5834329352" lon="17.5072359759">
        <ele>34.6</ele>
        <time>2011-05-01T13:10:06Z</time>
      </trkpt>
      <trkpt lat="59.5832879283" lon="17.5073859282">
        <ele>35.2</ele>
        <time>2011-05-01T13:10:09Z</time>
      </trkpt>
      <trkpt lat="59.5831349585" lon="17.5075409934">
        <ele>35.6</ele>
        <time>2011-05-01T13:10:12Z</time>
      </trkpt>
      <trkpt lat="59.5829719305" lon="17.5077119842">
        <ele>34.6</ele>
        <time>2011-05-01T13:10:15Z</time>
      </trkpt>
      <trkpt lat="59.5827959944" lon="17.5078709889">
        <ele>34.6</ele>
        <time>2011-05-01T13:10:18Z</time>
      </trkpt>
      <trkpt lat="59.5826109219" lon="17.5080189295">
        <ele>34.6</ele>
        <time>2011-05-01T13:10:21Z</time>
      </trkpt>
      <trkpt lat="59.5824219938" lon="17.5081459992">
        <ele>34.6</ele>
        <time>2011-05-01T13:10:24Z</time>
      </trkpt>
      <trkpt lat="59.5822349936" lon="17.50826695">
        <ele>34.6</ele>
        <time>2011-05-01T13:10:27Z</time>
      </trkpt>
      <trkpt lat="59.5820469875" lon="17.5083849672">
        <ele>34.6</ele>
        <time>2011-05-01T13:10:30Z</time>
      </trkpt>
      <trkpt lat="59.5818549581" lon="17.5085079297">
        <ele>34.2</ele>
        <time>2011-05-01T13:10:33Z</time>
      </trkpt>
      <trkpt lat="59.581666952" lon="17.5086299703">
        <ele>35.2</ele>
        <time>2011-05-01T13:10:36Z</time>
      </trkpt>
      <trkpt lat="59.5814759284" lon="17.5087509211">
        <ele>34.6</ele>
        <time>2011-05-01T13:10:39Z</time>
      </trkpt>
      <trkpt lat="59.5812799595" lon="17.5088749733">
        <ele>36</ele>
        <time>2011-05-01T13:10:42Z</time>
      </trkpt>
      <trkpt lat="59.581081979" lon="17.5089959241">
        <ele>36.6</ele>
        <time>2011-05-01T13:10:45Z</time>
      </trkpt>
      <trkpt lat="59.5808789693" lon="17.5091179647">
        <ele>36</ele>
        <time>2011-05-01T13:10:48Z</time>
      </trkpt>
      <trkpt lat="59.580698926" lon="17.5092289411">
        <ele>37</ele>
        <time>2011-05-01T13:10:51Z</time>
      </trkpt>
      <trkpt lat="59.5805269293" lon="17.5093399175">
        <ele>38</ele>
        <time>2011-05-01T13:10:54Z</time>
      </trkpt>
      <trkpt lat="59.5803549327" lon="17.5094519835">
        <ele>38</ele>
        <time>2011-05-01T13:10:57Z</time>
      </trkpt>
      <trkpt lat="59.580182936" lon="17.5095619541">
        <ele>38.4</ele>
        <time>2011-05-01T13:11:00Z</time>
      </trkpt>
      <trkpt lat="59.5800059941" lon="17.5096749421">
        <ele>38.4</ele>
        <time>2011-05-01T13:11:03Z</time>
      </trkpt>
      <trkpt lat="59.5798319858" lon="17.5097989943">
        <ele>38.4</ele>
        <time>2011-05-01T13:11:06Z</time>
      </trkpt>
      <trkpt lat="59.5796659403" lon="17.5099559873">
        <ele>37.6</ele>
        <time>2011-05-01T13:11:09Z</time>
      </trkpt>
      <trkpt lat="59.5795079414" lon="17.5101709832">
        <ele>38</ele>
        <time>2011-05-01T13:11:12Z</time>
      </trkpt>
      <trkpt lat="59.5793549716" lon="17.5104489271">
        <ele>36</ele>
        <time>2011-05-01T13:11:15Z</time>
      </trkpt>
      <trkpt lat="59.5791999903" lon="17.5107969437">
        <ele>34.6</ele>
        <time>2011-05-01T13:11:18Z</time>
      </trkpt>
      <trkpt lat="59.5790189411" lon="17.5111789908">
        <ele>31.8</ele>
        <time>2011-05-01T13:11:21Z</time>
      </trkpt>
      <trkpt lat="59.5789489523" lon="17.5113119278">
        <ele>31.2</ele>
        <time>2011-05-01T13:11:22Z</time>
      </trkpt>
      <trkpt lat="59.5785889495" lon="17.5117489602">
        <ele>26.4</ele>
        <time>2011-05-01T13:11:26Z</time>
      </trkpt>
      <trkpt lat="59.5784819964" lon="17.5117659755">
        <ele>27</ele>
        <time>2011-05-01T13:11:27Z</time>
      </trkpt>
      <trkpt lat="59.5783759654" lon="17.511819955">
        <ele>27.4</ele>
        <time>2011-05-01T13:11:28Z</time>
      </trkpt>
      <trkpt lat="59.5780849457" lon="17.5118959788">
        <ele>29.4</ele>
        <time>2011-05-01T13:11:31Z</time>
      </trkpt>
      <trkpt lat="59.5779139549" lon="17.5119519699">
        <ele>30.4</ele>
        <time>2011-05-01T13:11:33Z</time>
      </trkpt>
      <trkpt lat="59.5776879787" lon="17.5120699871">
        <ele>32.2</ele>
        <time>2011-05-01T13:11:36Z</time>
      </trkpt>
      <trkpt lat="59.5774659421" lon="17.5122689735">
        <ele>32.2</ele>
        <time>2011-05-01T13:11:39Z</time>
      </trkpt>
      <trkpt lat="59.5772549696" lon="17.512516994">
        <ele>31.2</ele>
        <time>2011-05-01T13:11:42Z</time>
      </trkpt>
      <trkpt lat="59.5770529658" lon="17.5128109474">
        <ele>31.2</ele>
        <time>2011-05-01T13:11:45Z</time>
      </trkpt>
      <trkpt lat="59.576862948" lon="17.5131369196">
        <ele>31.2</ele>
        <time>2011-05-01T13:11:48Z</time>
      </trkpt>
      <trkpt lat="59.5766829886" lon="17.5134839304">
        <ele>30.8</ele>
        <time>2011-05-01T13:11:51Z</time>
      </trkpt>
      <trkpt lat="59.5765049569" lon="17.5138339587">
        <ele>30.4</ele>
        <time>2011-05-01T13:11:54Z</time>
      </trkpt>
      <trkpt lat="59.5763799828" lon="17.5140869245">
        <ele>29.4</ele>
        <time>2011-05-01T13:11:56Z</time>
      </trkpt>
      <trkpt lat="59.5761829242" lon="17.5144619308">
        <ele>29.8</ele>
        <time>2011-05-01T13:11:59Z</time>
      </trkpt>
      <trkpt lat="59.5759979356" lon="17.5148429722">
        <ele>28.8</ele>
        <time>2011-05-01T13:12:02Z</time>
      </trkpt>
      <trkpt lat="59.5758159645" lon="17.5152099319">
        <ele>28.4</ele>
        <time>2011-05-01T13:12:05Z</time>
      </trkpt>
      <trkpt lat="59.5756339934" lon="17.515560966">
        <ele>28.8</ele>
        <time>2011-05-01T13:12:08Z</time>
      </trkpt>
      <trkpt lat="59.5754509326" lon="17.5159059651">
        <ele>27.4</ele>
        <time>2011-05-01T13:12:11Z</time>
      </trkpt>
      <trkpt lat="59.5752769243" lon="17.5162179396">
        <ele>28.8</ele>
        <time>2011-05-01T13:12:14Z</time>
      </trkpt>
      <trkpt lat="59.5752209332" lon="17.5163319334">
        <ele>28.8</ele>
        <time>2011-05-01T13:12:15Z</time>
      </trkpt>
      <trkpt lat="59.5750489365" lon="17.5166539662">
        <ele>28.8</ele>
        <time>2011-05-01T13:12:18Z</time>
      </trkpt>
      <trkpt lat="59.5748799574" lon="17.5169629231">
        <ele>29.4</ele>
        <time>2011-05-01T13:12:21Z</time>
      </trkpt>
      <trkpt lat="59.5747059491" lon="17.5172569603">
        <ele>27</ele>
        <time>2011-05-01T13:12:24Z</time>
      </trkpt>
      <trkpt lat="59.5745319407" lon="17.5175589602">
        <ele>27.4</ele>
        <time>2011-05-01T13:12:27Z</time>
      </trkpt>
      <trkpt lat="59.5743529871" lon="17.5178889558">
        <ele>27.4</ele>
        <time>2011-05-01T13:12:30Z</time>
      </trkpt>
      <trkpt lat="59.5741659869" lon="17.5182439294">
        <ele>27</ele>
        <time>2011-05-01T13:12:33Z</time>
      </trkpt>
      <trkpt lat="59.5739729516" lon="17.5186009984">
        <ele>25.6</ele>
        <time>2011-05-01T13:12:36Z</time>
      </trkpt>
      <trkpt lat="59.5737749711" lon="17.5189789385">
        <ele>23.2</ele>
        <time>2011-05-01T13:12:39Z</time>
      </trkpt>
      <trkpt lat="59.5735829417" lon="17.5193629973">
        <ele>24</ele>
        <time>2011-05-01T13:12:42Z</time>
      </trkpt>
      <trkpt lat="59.573403988" lon="17.5197529234">
        <ele>23.6</ele>
        <time>2011-05-01T13:12:45Z</time>
      </trkpt>
      <trkpt lat="59.5732339192" lon="17.5201249961">
        <ele>22.2</ele>
        <time>2011-05-01T13:12:48Z</time>
      </trkpt>
      <trkpt lat="59.5730729867" lon="17.5204849988">
        <ele>23.6</ele>
        <time>2011-05-01T13:12:51Z</time>
      </trkpt>
      <trkpt lat="59.5729129761" lon="17.5208469294">
        <ele>24</ele>
        <time>2011-05-01T13:12:54Z</time>
      </trkpt>
      <trkpt lat="59.5727589168" lon="17.5211999752">
        <ele>24</ele>
        <time>2011-05-01T13:12:57Z</time>
      </trkpt>
      <trkpt lat="59.5726099703" lon="17.5215519313">
        <ele>24</ele>
        <time>2011-05-01T13:13:00Z</time>
      </trkpt>
      <trkpt lat="59.5724609401" lon="17.5219039712">
        <ele>24</ele>
        <time>2011-05-01T13:13:03Z</time>
      </trkpt>
      <trkpt lat="59.5723139215" lon="17.5222559273">
        <ele>24.6</ele>
        <time>2011-05-01T13:13:06Z</time>
      </trkpt>
      <trkpt lat="59.5721709263" lon="17.5226149242">
        <ele>25</ele>
        <time>2011-05-01T13:13:09Z</time>
      </trkpt>
      <trkpt lat="59.5720329601" lon="17.5229969714">
        <ele>23.6</ele>
        <time>2011-05-01T13:13:12Z</time>
      </trkpt>
      <trkpt lat="59.5719919726" lon="17.5231259689">
        <ele>23.2</ele>
        <time>2011-05-01T13:13:13Z</time>
      </trkpt>
      <trkpt lat="59.5718739554" lon="17.5235179905">
        <ele>24</ele>
        <time>2011-05-01T13:13:16Z</time>
      </trkpt>
      <trkpt lat="59.5717619732" lon="17.5239129458">
        <ele>24.6</ele>
        <time>2011-05-01T13:13:19Z</time>
      </trkpt>
      <trkpt lat="59.5716529246" lon="17.5243209768">
        <ele>24</ele>
        <time>2011-05-01T13:13:22Z</time>
      </trkpt>
      <trkpt lat="59.571548989" lon="17.5247199554">
        <ele>24</ele>
        <time>2011-05-01T13:13:25Z</time>
      </trkpt>
      <trkpt lat="59.5714379288" lon="17.5250949617">
        <ele>25</ele>
        <time>2011-05-01T13:13:28Z</time>
      </trkpt>
      <trkpt lat="59.5713229291" lon="17.5254229456">
        <ele>26.4</ele>
        <time>2011-05-01T13:13:31Z</time>
      </trkpt>
      <trkpt lat="59.5712439716" lon="17.5256039947">
        <ele>27</ele>
        <time>2011-05-01T13:13:33Z</time>
      </trkpt>
      <trkpt lat="59.5711259544" lon="17.5258449744">
        <ele>28</ele>
        <time>2011-05-01T13:13:36Z</time>
      </trkpt>
      <trkpt lat="59.5709999744" lon="17.5260649994">
        <ele>28.4</ele>
        <time>2011-05-01T13:13:39Z</time>
      </trkpt>
      <trkpt lat="59.5708629303" lon="17.5263059791">
        <ele>29.8</ele>
        <time>2011-05-01T13:13:42Z</time>
      </trkpt>
      <trkpt lat="59.5707269758" lon="17.5265609566">
        <ele>28.4</ele>
        <time>2011-05-01T13:13:45Z</time>
      </trkpt>
      <trkpt lat="59.5705699828" lon="17.5268319435">
        <ele>27.4</ele>
        <time>2011-05-01T13:13:48Z</time>
      </trkpt>
      <trkpt lat="59.5704129897" lon="17.5271089654">
        <ele>27.4</ele>
        <time>2011-05-01T13:13:51Z</time>
      </trkpt>
      <trkpt lat="59.570253985" lon="17.5273999851">
        <ele>26</ele>
        <time>2011-05-01T13:13:54Z</time>
      </trkpt>
      <trkpt lat="59.570090957" lon="17.5276979618">
        <ele>27</ele>
        <time>2011-05-01T13:13:57Z</time>
      </trkpt>
      <trkpt lat="59.5699319523" lon="17.5279869698">
        <ele>27.4</ele>
        <time>2011-05-01T13:14:00Z</time>
      </trkpt>
      <trkpt lat="59.5697689243" lon="17.5282869581">
        <ele>26</ele>
        <time>2011-05-01T13:14:03Z</time>
      </trkpt>
      <trkpt lat="59.5695989393" lon="17.5286009442">
        <ele>26.4</ele>
        <time>2011-05-01T13:14:06Z</time>
      </trkpt>
      <trkpt lat="59.5694469754" lon="17.5289079733">
        <ele>26</ele>
        <time>2011-05-01T13:14:09Z</time>
      </trkpt>
      <trkpt lat="59.5693509188" lon="17.5291199517">
        <ele>24.6</ele>
        <time>2011-05-01T13:14:11Z</time>
      </trkpt>
      <trkpt lat="59.5690869726" lon="17.5293359533">
        <ele>24</ele>
        <time>2011-05-01T13:14:15Z</time>
      </trkpt>
      <trkpt lat="59.5688479207" lon="17.5296809524">
        <ele>23.2</ele>
        <time>2011-05-01T13:14:19Z</time>
      </trkpt>
      <trkpt lat="59.5686649438" lon="17.5301789213">
        <ele>23.6</ele>
        <time>2011-05-01T13:14:23Z</time>
      </trkpt>
      <trkpt lat="59.5684979763" lon="17.5305109285">
        <ele>24</ele>
        <time>2011-05-01T13:14:26Z</time>
      </trkpt>
      <trkpt lat="59.5683129877" lon="17.5308299437">
        <ele>22.6</ele>
        <time>2011-05-01T13:14:29Z</time>
      </trkpt>
      <trkpt lat="59.5682489499" lon="17.5309379864">
        <ele>22.6</ele>
        <time>2011-05-01T13:14:30Z</time>
      </trkpt>
      <trkpt lat="59.5680509694" lon="17.5312669761">
        <ele>22.6</ele>
        <time>2011-05-01T13:14:33Z</time>
      </trkpt>
      <trkpt lat="59.5678479597" lon="17.531600995">
        <ele>21.6</ele>
        <time>2011-05-01T13:14:36Z</time>
      </trkpt>
      <trkpt lat="59.5676489733" lon="17.5319289789">
        <ele>21.2</ele>
        <time>2011-05-01T13:14:39Z</time>
      </trkpt>
      <trkpt lat="59.5674569439" lon="17.5322489999">
        <ele>19.8</ele>
        <time>2011-05-01T13:14:42Z</time>
      </trkpt>
      <trkpt lat="59.5673939958" lon="17.5323469844">
        <ele>20.2</ele>
        <time>2011-05-01T13:14:43Z</time>
      </trkpt>
      <trkpt lat="59.5673279464" lon="17.5324399397">
        <ele>20.8</ele>
        <time>2011-05-01T13:14:44Z</time>
      </trkpt>
      <trkpt lat="59.5670249406" lon="17.5327239186">
        <ele>21.6</ele>
        <time>2011-05-01T13:14:48Z</time>
      </trkpt>
      <trkpt lat="59.5669309795" lon="17.5329809915">
        <ele>20.2</ele>
        <time>2011-05-01T13:14:50Z</time>
      </trkpt>
      <trkpt lat="59.5668179914" lon="17.533204956">
        <ele>19.2</ele>
        <time>2011-05-01T13:14:52Z</time>
      </trkpt>
      <trkpt lat="59.5665549673" lon="17.533588931">
        <ele>20.8</ele>
        <time>2011-05-01T13:14:56Z</time>
      </trkpt>
      <trkpt lat="59.5663569868" lon="17.5338739995">
        <ele>22.2</ele>
        <time>2011-05-01T13:14:59Z</time>
      </trkpt>
      <trkpt lat="59.5661599282" lon="17.53415999">
        <ele>22.2</ele>
        <time>2011-05-01T13:15:02Z</time>
      </trkpt>
      <trkpt lat="59.5659629535" lon="17.5344419573">
        <ele>21.2</ele>
        <time>2011-05-01T13:15:05Z</time>
      </trkpt>
      <trkpt lat="59.5657709241" lon="17.5347179733">
        <ele>22.2</ele>
        <time>2011-05-01T13:15:08Z</time>
      </trkpt>
      <trkpt lat="59.5655809902" lon="17.5349869486">
        <ele>20.2</ele>
        <time>2011-05-01T13:15:11Z</time>
      </trkpt>
      <trkpt lat="59.5653889608" lon="17.5352509785">
        <ele>20.2</ele>
        <time>2011-05-01T13:15:14Z</time>
      </trkpt>
      <trkpt lat="59.5651959255" lon="17.535511991">
        <ele>20.8</ele>
        <time>2011-05-01T13:15:17Z</time>
      </trkpt>
      <trkpt lat="59.5650059916" lon="17.5357669685">
        <ele>21.6</ele>
        <time>2011-05-01T13:15:20Z</time>
      </trkpt>
      <trkpt lat="59.5648119505" lon="17.5360239577">
        <ele>21.2</ele>
        <time>2011-05-01T13:15:23Z</time>
      </trkpt>
      <trkpt lat="59.5646109525" lon="17.5362829585">
        <ele>20.8</ele>
        <time>2011-05-01T13:15:26Z</time>
      </trkpt>
      <trkpt lat="59.5644039195" lon="17.5365479942">
        <ele>20.2</ele>
        <time>2011-05-01T13:15:29Z</time>
      </trkpt>
      <trkpt lat="59.5641919412" lon="17.5368169695">
        <ele>20.2</ele>
        <time>2011-05-01T13:15:32Z</time>
      </trkpt>
      <trkpt lat="59.5639749337" lon="17.5370899681">
        <ele>18.8</ele>
        <time>2011-05-01T13:15:35Z</time>
      </trkpt>
      <trkpt lat="59.5637569204" lon="17.5373659842">
        <ele>18.8</ele>
        <time>2011-05-01T13:15:38Z</time>
      </trkpt>
      <trkpt lat="59.5635419246" lon="17.5376369711">
        <ele>18.4</ele>
        <time>2011-05-01T13:15:41Z</time>
      </trkpt>
      <trkpt lat="59.5633239951" lon="17.5379019231">
        <ele>17.4</ele>
        <time>2011-05-01T13:15:44Z</time>
      </trkpt>
      <trkpt lat="59.5631009527" lon="17.5381579902">
        <ele>17.4</ele>
        <time>2011-05-01T13:15:47Z</time>
      </trkpt>
      <trkpt lat="59.5628689416" lon="17.5384059269">
        <ele>18.4</ele>
        <time>2011-05-01T13:15:50Z</time>
      </trkpt>
      <trkpt lat="59.5626379363" lon="17.5386419613">
        <ele>18.8</ele>
        <time>2011-05-01T13:15:53Z</time>
      </trkpt>
      <trkpt lat="59.5624189172" lon="17.5388659257">
        <ele>18.8</ele>
        <time>2011-05-01T13:15:56Z</time>
      </trkpt>
      <trkpt lat="59.562205933" lon="17.5390859507">
        <ele>18.8</ele>
        <time>2011-05-01T13:15:59Z</time>
      </trkpt>
      <trkpt lat="59.5619989838" lon="17.5393309537">
        <ele>17.4</ele>
        <time>2011-05-01T13:16:02Z</time>
      </trkpt>
      <trkpt lat="59.5618149173" lon="17.5396069698">
        <ele>15.8</ele>
        <time>2011-05-01T13:16:05Z</time>
      </trkpt>
      <trkpt lat="59.5616549905" lon="17.539925985">
        <ele>16.8</ele>
        <time>2011-05-01T13:16:08Z</time>
      </trkpt>
      <trkpt lat="59.5615179464" lon="17.5402979739">
        <ele>18.4</ele>
        <time>2011-05-01T13:16:11Z</time>
      </trkpt>
      <trkpt lat="59.5613999292" lon="17.5406859722">
        <ele>18.4</ele>
        <time>2011-05-01T13:16:14Z</time>
      </trkpt>
      <trkpt lat="59.5613609534" lon="17.5408049952">
        <ele>17.8</ele>
        <time>2011-05-01T13:16:15Z</time>
      </trkpt>
      <trkpt lat="59.5611539204" lon="17.5411109347">
        <ele>17.8</ele>
        <time>2011-05-01T13:16:19Z</time>
      </trkpt>
      <trkpt lat="59.5610879548" lon="17.5414399244">
        <ele>17.8</ele>
        <time>2011-05-01T13:16:22Z</time>
      </trkpt>
      <trkpt lat="59.5610279404" lon="17.5417909585">
        <ele>18.4</ele>
        <time>2011-05-01T13:16:25Z</time>
      </trkpt>
      <trkpt lat="59.5608939976" lon="17.5422339421">
        <ele>19.8</ele>
        <time>2011-05-01T13:16:29Z</time>
      </trkpt>
      <trkpt lat="59.5607919898" lon="17.542579947">
        <ele>20.2</ele>
        <time>2011-05-01T13:16:32Z</time>
      </trkpt>
      <trkpt lat="59.5606819354" lon="17.5429129601">
        <ele>19.8</ele>
        <time>2011-05-01T13:16:35Z</time>
      </trkpt>
      <trkpt lat="59.5605059993" lon="17.5432739686">
        <ele>21.2</ele>
        <time>2011-05-01T13:16:39Z</time>
      </trkpt>
      <trkpt lat="59.5602859743" lon="17.5435469672">
        <ele>21.2</ele>
        <time>2011-05-01T13:16:43Z</time>
      </trkpt>
      <trkpt lat="59.5601729862" lon="17.5436719414">
        <ele>22.6</ele>
        <time>2011-05-01T13:16:45Z</time>
      </trkpt>
      <trkpt lat="59.5599969663" lon="17.5438519847">
        <ele>21.2</ele>
        <time>2011-05-01T13:16:48Z</time>
      </trkpt>
      <trkpt lat="59.5598379616" lon="17.5440189522">
        <ele>21.6</ele>
        <time>2011-05-01T13:16:51Z</time>
      </trkpt>
      <trkpt lat="59.5596879255" lon="17.5441679824">
        <ele>22.2</ele>
        <time>2011-05-01T13:16:54Z</time>
      </trkpt>
      <trkpt lat="59.5594499633" lon="17.5442359596">
        <ele>21.6</ele>
        <time>2011-05-01T13:16:58Z</time>
      </trkpt>
      <trkpt lat="59.5591789763" lon="17.5443719979">
        <ele>20.8</ele>
        <time>2011-05-01T13:17:02Z</time>
      </trkpt>
      <trkpt lat="59.55892995" lon="17.5446289871">
        <ele>21.2</ele>
        <time>2011-05-01T13:17:06Z</time>
      </trkpt>
      <trkpt lat="59.5588089991" lon="17.5447529554">
        <ele>21.6</ele>
        <time>2011-05-01T13:17:08Z</time>
      </trkpt>
      <trkpt lat="59.5585619844" lon="17.5449249521">
        <ele>22.2</ele>
        <time>2011-05-01T13:17:12Z</time>
      </trkpt>
      <trkpt lat="59.558382947" lon="17.5450179912">
        <ele>22.6</ele>
        <time>2011-05-01T13:17:15Z</time>
      </trkpt>
      <trkpt lat="59.5581849664" lon="17.5451179873">
        <ele>23.2</ele>
        <time>2011-05-01T13:17:18Z</time>
      </trkpt>
      <trkpt lat="59.5579959545" lon="17.5452109426">
        <ele>23.6</ele>
        <time>2011-05-01T13:17:21Z</time>
      </trkpt>
      <trkpt lat="59.5576859917" lon="17.5453419518">
        <ele>24</ele>
        <time>2011-05-01T13:17:26Z</time>
      </trkpt>
      <trkpt lat="59.5574229676" lon="17.5454219989">
        <ele>24</ele>
        <time>2011-05-01T13:17:30Z</time>
      </trkpt>
      <trkpt lat="59.5572129171" lon="17.5454589631">
        <ele>24.6</ele>
        <time>2011-05-01T13:17:33Z</time>
      </trkpt>
      <trkpt lat="59.5570029505" lon="17.5454899762">
        <ele>24.6</ele>
        <time>2011-05-01T13:17:36Z</time>
      </trkpt>
      <trkpt lat="59.5567989349" lon="17.5455249287">
        <ele>25</ele>
        <time>2011-05-01T13:17:39Z</time>
      </trkpt>
      <trkpt lat="59.5565879624" lon="17.5455569476">
        <ele>25</ele>
        <time>2011-05-01T13:17:42Z</time>
      </trkpt>
      <trkpt lat="59.5563869644" lon="17.5455949176">
        <ele>26</ele>
        <time>2011-05-01T13:17:45Z</time>
      </trkpt>
      <trkpt lat="59.5561869722" lon="17.5456419401">
        <ele>25.6</ele>
        <time>2011-05-01T13:17:48Z</time>
      </trkpt>
      <trkpt lat="59.5559889916" lon="17.5457159523">
        <ele>25</ele>
        <time>2011-05-01T13:17:51Z</time>
      </trkpt>
      <trkpt lat="59.5557859819" lon="17.5458109193">
        <ele>25</ele>
        <time>2011-05-01T13:17:54Z</time>
      </trkpt>
      <trkpt lat="59.5555609278" lon="17.545924997">
        <ele>22.6</ele>
        <time>2011-05-01T13:17:57Z</time>
      </trkpt>
      <trkpt lat="59.5553259831" lon="17.546044942">
        <ele>21.2</ele>
        <time>2011-05-01T13:18:00Z</time>
      </trkpt>
      <trkpt lat="59.555087937" lon="17.5461679883">
        <ele>22.2</ele>
        <time>2011-05-01T13:18:03Z</time>
      </trkpt>
      <trkpt lat="59.5548469573" lon="17.5463079661">
        <ele>21.6</ele>
        <time>2011-05-01T13:18:06Z</time>
      </trkpt>
      <trkpt lat="59.5546129346" lon="17.5465179328">
        <ele>21.2</ele>
        <time>2011-05-01T13:18:09Z</time>
      </trkpt>
      <trkpt lat="59.5543879643" lon="17.5468109641">
        <ele>21.2</ele>
        <time>2011-05-01T13:18:12Z</time>
      </trkpt>
      <trkpt lat="59.5541689452" lon="17.5471409597">
        <ele>21.2</ele>
        <time>2011-05-01T13:18:15Z</time>
      </trkpt>
      <trkpt lat="59.5539579727" lon="17.547465926">
        <ele>21.6</ele>
        <time>2011-05-01T13:18:18Z</time>
      </trkpt>
      <trkpt lat="59.5537579805" lon="17.5477819238">
        <ele>21.2</ele>
        <time>2011-05-01T13:18:21Z</time>
      </trkpt>
      <trkpt lat="59.5535799488" lon="17.5481089856">
        <ele>20.2</ele>
        <time>2011-05-01T13:18:24Z</time>
      </trkpt>
      <trkpt lat="59.5534109697" lon="17.5486469362">
        <ele>19.8</ele>
        <time>2011-05-01T13:18:28Z</time>
      </trkpt>
      <trkpt lat="59.5532999933" lon="17.5492879841">
        <ele>18.8</ele>
        <time>2011-05-01T13:18:32Z</time>
      </trkpt>
      <trkpt lat="59.5532559883" lon="17.5496269483">
        <ele>17.4</ele>
        <time>2011-05-01T13:18:34Z</time>
      </trkpt>
      <trkpt lat="59.5532279927" lon="17.5501929782">
        <ele>16.8</ele>
        <time>2011-05-01T13:18:37Z</time>
      </trkpt>
      <trkpt lat="59.5532169286" lon="17.5507419929">
        <ele>15.8</ele>
        <time>2011-05-01T13:18:40Z</time>
      </trkpt>
      <trkpt lat="59.5531999972" lon="17.5512899179">
        <ele>13.4</ele>
        <time>2011-05-01T13:18:43Z</time>
      </trkpt>
      <trkpt lat="59.5531859994" lon="17.5518459734">
        <ele>12</ele>
        <time>2011-05-01T13:18:46Z</time>
      </trkpt>
      <trkpt lat="59.5531649608" lon="17.5524149369">
        <ele>11.6</ele>
        <time>2011-05-01T13:18:49Z</time>
      </trkpt>
      <trkpt lat="59.5531119872" lon="17.5529819727">
        <ele>10.6</ele>
        <time>2011-05-01T13:18:52Z</time>
      </trkpt>
      <trkpt lat="59.5530019328" lon="17.5535009801">
        <ele>10.6</ele>
        <time>2011-05-01T13:18:55Z</time>
      </trkpt>
      <trkpt lat="59.5528489631" lon="17.5539439637">
        <ele>11</ele>
        <time>2011-05-01T13:18:58Z</time>
      </trkpt>
      <trkpt lat="59.5526679978" lon="17.5543039665">
        <ele>11.6</ele>
        <time>2011-05-01T13:19:01Z</time>
      </trkpt>
      <trkpt lat="59.5524759684" lon="17.5546229817">
        <ele>11</ele>
        <time>2011-05-01T13:19:04Z</time>
      </trkpt>
      <trkpt lat="59.5522949193" lon="17.5549189467">
        <ele>12.6</ele>
        <time>2011-05-01T13:19:07Z</time>
      </trkpt>
      <trkpt lat="59.5521109365" lon="17.5552099664">
        <ele>12</ele>
        <time>2011-05-01T13:19:10Z</time>
      </trkpt>
      <trkpt lat="59.551930977" lon="17.5554979686">
        <ele>11.6</ele>
        <time>2011-05-01T13:19:13Z</time>
      </trkpt>
      <trkpt lat="59.5517539512" lon="17.5557819474">
        <ele>12.6</ele>
        <time>2011-05-01T13:19:16Z</time>
      </trkpt>
      <trkpt lat="59.5515759196" lon="17.5560669322">
        <ele>12.6</ele>
        <time>2011-05-01T13:19:19Z</time>
      </trkpt>
      <trkpt lat="59.5513999835" lon="17.5563669205">
        <ele>11.6</ele>
        <time>2011-05-01T13:19:22Z</time>
      </trkpt>
      <trkpt lat="59.551226981" lon="17.5566449482">
        <ele>10.2</ele>
        <time>2011-05-01T13:19:25Z</time>
      </trkpt>
      <trkpt lat="59.5510539785" lon="17.5569089781">
        <ele>11.6</ele>
        <time>2011-05-01T13:19:28Z</time>
      </trkpt>
      <trkpt lat="59.5508849993" lon="17.5571799651">
        <ele>9.6</ele>
        <time>2011-05-01T13:19:31Z</time>
      </trkpt>
      <trkpt lat="59.550717948" lon="17.5574499462">
        <ele>10.6</ele>
        <time>2011-05-01T13:19:34Z</time>
      </trkpt>
      <trkpt lat="59.550553998" lon="17.5577159878">
        <ele>12</ele>
        <time>2011-05-01T13:19:37Z</time>
      </trkpt>
      <trkpt lat="59.5503889583" lon="17.5579719711">
        <ele>12</ele>
        <time>2011-05-01T13:19:40Z</time>
      </trkpt>
      <trkpt lat="59.5502159558" lon="17.5582219195">
        <ele>12.6</ele>
        <time>2011-05-01T13:19:43Z</time>
      </trkpt>
      <trkpt lat="59.5500239264" lon="17.5584419444">
        <ele>13</ele>
        <time>2011-05-01T13:19:46Z</time>
      </trkpt>
      <trkpt lat="59.549887972" lon="17.5585559383">
        <ele>12.6</ele>
        <time>2011-05-01T13:19:48Z</time>
      </trkpt>
      <trkpt lat="59.5495949406" lon="17.5586659927">
        <ele>13.4</ele>
        <time>2011-05-01T13:19:52Z</time>
      </trkpt>
      <trkpt lat="59.5493619237" lon="17.5587029569">
        <ele>12.6</ele>
        <time>2011-05-01T13:19:55Z</time>
      </trkpt>
      <trkpt lat="59.549126979" lon="17.5587229896">
        <ele>13</ele>
        <time>2011-05-01T13:19:58Z</time>
      </trkpt>
      <trkpt lat="59.5488959737" lon="17.5587409269">
        <ele>12.6</ele>
        <time>2011-05-01T13:20:01Z</time>
      </trkpt>
      <trkpt lat="59.548661951" lon="17.5587399211">
        <ele>11</ele>
        <time>2011-05-01T13:20:04Z</time>
      </trkpt>
      <trkpt lat="59.5484289341" lon="17.5587269291">
        <ele>11</ele>
        <time>2011-05-01T13:20:07Z</time>
      </trkpt>
      <trkpt lat="59.5482019521" lon="17.5586689264">
        <ele>10.6</ele>
        <time>2011-05-01T13:20:10Z</time>
      </trkpt>
      <trkpt lat="59.5479869563" lon="17.5585719477">
        <ele>11</ele>
        <time>2011-05-01T13:20:13Z</time>
      </trkpt>
      <trkpt lat="59.5477719605" lon="17.5584749691">
        <ele>12</ele>
        <time>2011-05-01T13:20:16Z</time>
      </trkpt>
      <trkpt lat="59.547547996" lon="17.5584029686">
        <ele>12</ele>
        <time>2011-05-01T13:20:19Z</time>
      </trkpt>
      <trkpt lat="59.5473179966" lon="17.5583759788">
        <ele>12</ele>
        <time>2011-05-01T13:20:22Z</time>
      </trkpt>
      <trkpt lat="59.5470809564" lon="17.5583979394">
        <ele>12</ele>
        <time>2011-05-01T13:20:25Z</time>
      </trkpt>
      <trkpt lat="59.5468489453" lon="17.5584709458">
        <ele>12.6</ele>
        <time>2011-05-01T13:20:28Z</time>
      </trkpt>
      <trkpt lat="59.5466329437" lon="17.5585569441">
        <ele>12.6</ele>
        <time>2011-05-01T13:20:31Z</time>
      </trkpt>
      <trkpt lat="59.5464129187" lon="17.5586529169">
        <ele>13.4</ele>
        <time>2011-05-01T13:20:34Z</time>
      </trkpt>
      <trkpt lat="59.5462059695" lon="17.5587449502">
        <ele>14</ele>
        <time>2011-05-01T13:20:37Z</time>
      </trkpt>
      <trkpt lat="59.5459989365" lon="17.558840923">
        <ele>13.4</ele>
        <time>2011-05-01T13:20:40Z</time>
      </trkpt>
      <trkpt lat="59.5457889698" lon="17.5589369796">
        <ele>15</ele>
        <time>2011-05-01T13:20:43Z</time>
      </trkpt>
      <trkpt lat="59.5455829427" lon="17.5590389874">
        <ele>14.4</ele>
        <time>2011-05-01T13:20:46Z</time>
      </trkpt>
      <trkpt lat="59.5453789271" lon="17.5591419172">
        <ele>15</ele>
        <time>2011-05-01T13:20:49Z</time>
      </trkpt>
      <trkpt lat="59.5451789349" lon="17.5592439249">
        <ele>15</ele>
        <time>2011-05-01T13:20:52Z</time>
      </trkpt>
      <trkpt lat="59.5449779369" lon="17.559349956">
        <ele>15.4</ele>
        <time>2011-05-01T13:20:55Z</time>
      </trkpt>
      <trkpt lat="59.5447829738" lon="17.5594399776">
        <ele>16.4</ele>
        <time>2011-05-01T13:20:58Z</time>
      </trkpt>
      <trkpt lat="59.5446589217" lon="17.5594989862">
        <ele>17.4</ele>
        <time>2011-05-01T13:21:00Z</time>
      </trkpt>
      <trkpt lat="59.5444779564" lon="17.5595889241">
        <ele>17.4</ele>
        <time>2011-05-01T13:21:03Z</time>
      </trkpt>
      <trkpt lat="59.5442949794" lon="17.5596759282">
        <ele>18.8</ele>
        <time>2011-05-01T13:21:06Z</time>
      </trkpt>
      <trkpt lat="59.5441149361" lon="17.5597609207">
        <ele>19.2</ele>
        <time>2011-05-01T13:21:09Z</time>
      </trkpt>
      <trkpt lat="59.543939" lon="17.5598489307">
        <ele>21.2</ele>
        <time>2011-05-01T13:21:12Z</time>
      </trkpt>
      <trkpt lat="59.5437599625" lon="17.5599339232">
        <ele>21.2</ele>
        <time>2011-05-01T13:21:15Z</time>
      </trkpt>
      <trkpt lat="59.5435899775" lon="17.5600119587">
        <ele>21.6</ele>
        <time>2011-05-01T13:21:18Z</time>
      </trkpt>
      <trkpt lat="59.5434269495" lon="17.5600939337">
        <ele>22.6</ele>
        <time>2011-05-01T13:21:21Z</time>
      </trkpt>
      <trkpt lat="59.5432709623" lon="17.5601719692">
        <ele>22.6</ele>
        <time>2011-05-01T13:21:24Z</time>
      </trkpt>
      <trkpt lat="59.5431259554" lon="17.5602539442">
        <ele>24.6</ele>
        <time>2011-05-01T13:21:27Z</time>
      </trkpt>
      <trkpt lat="59.5430779271" lon="17.5602859631">
        <ele>24.6</ele>
        <time>2011-05-01T13:21:28Z</time>
      </trkpt>
      <trkpt lat="59.5429369435" lon="17.5603929162">
        <ele>24.6</ele>
        <time>2011-05-01T13:21:31Z</time>
      </trkpt>
      <trkpt lat="59.5427649468" lon="17.5605769828">
        <ele>25.6</ele>
        <time>2011-05-01T13:21:35Z</time>
      </trkpt>
      <trkpt lat="59.5426149946" lon="17.560789967">
        <ele>27</ele>
        <time>2011-05-01T13:21:39Z</time>
      </trkpt>
      <trkpt lat="59.5425489452" lon="17.5608979259">
        <ele>27.4</ele>
        <time>2011-05-01T13:21:41Z</time>
      </trkpt>
      <trkpt lat="59.5424039382" lon="17.561204955">
        <ele>28.8</ele>
        <time>2011-05-01T13:21:46Z</time>
      </trkpt>
      <trkpt lat="59.5422909502" lon="17.5614779536">
        <ele>29.4</ele>
        <time>2011-05-01T13:21:50Z</time>
      </trkpt>
      <trkpt lat="59.5421799738" lon="17.5617599208">
        <ele>31.2</ele>
        <time>2011-05-01T13:21:54Z</time>
      </trkpt>
      <trkpt lat="59.5420709252" lon="17.5620369427">
        <ele>32.2</ele>
        <time>2011-05-01T13:21:58Z</time>
      </trkpt>
      <trkpt lat="59.541964978" lon="17.5623119529">
        <ele>33.2</ele>
        <time>2011-05-01T13:22:02Z</time>
      </trkpt>
      <trkpt lat="59.5418579411" lon="17.5625979435">
        <ele>34.2</ele>
        <time>2011-05-01T13:22:06Z</time>
      </trkpt>
      <trkpt lat="59.5417459588" lon="17.5629029609">
        <ele>34.6</ele>
        <time>2011-05-01T13:22:10Z</time>
      </trkpt>
      <trkpt lat="59.5416179672" lon="17.5632199645">
        <ele>35.6</ele>
        <time>2011-05-01T13:22:14Z</time>
      </trkpt>
      <trkpt lat="59.5414779894" lon="17.5635539833">
        <ele>36.6</ele>
        <time>2011-05-01T13:22:18Z</time>
      </trkpt>
      <trkpt lat="59.5413519256" lon="17.5638859905">
        <ele>36.6</ele>
        <time>2011-05-01T13:22:22Z</time>
      </trkpt>
      <trkpt lat="59.5412519295" lon="17.564140968">
        <ele>36.6</ele>
        <time>2011-05-01T13:22:25Z</time>
      </trkpt>
      <trkpt lat="59.5411589742" lon="17.5643919222">
        <ele>36.6</ele>
        <time>2011-05-01T13:22:28Z</time>
      </trkpt>
      <trkpt lat="59.5410389453" lon="17.5646759849">
        <ele>36</ele>
        <time>2011-05-01T13:22:31Z</time>
      </trkpt>
      <trkpt lat="59.5408999734" lon="17.5649299566">
        <ele>36</ele>
        <time>2011-05-01T13:22:34Z</time>
      </trkpt>
      <trkpt lat="59.5407399628" lon="17.5651609618">
        <ele>35.2</ele>
        <time>2011-05-01T13:22:37Z</time>
      </trkpt>
      <trkpt lat="59.5405519567" lon="17.5653849263">
        <ele>34.2</ele>
        <time>2011-05-01T13:22:40Z</time>
      </trkpt>
      <trkpt lat="59.540348947" lon="17.5656379759">
        <ele>33.6</ele>
        <time>2011-05-01T13:22:43Z</time>
      </trkpt>
      <trkpt lat="59.5401489548" lon="17.5661169179">
        <ele>31.8</ele>
        <time>2011-05-01T13:22:47Z</time>
      </trkpt>
      <trkpt lat="59.5398809854" lon="17.5666859653">
        <ele>31.8</ele>
        <time>2011-05-01T13:22:52Z</time>
      </trkpt>
      <trkpt lat="59.539657943" lon="17.5669219997">
        <ele>31.2</ele>
        <time>2011-05-01T13:22:55Z</time>
      </trkpt>
      <trkpt lat="59.5394339785" lon="17.5671629794">
        <ele>30.8</ele>
        <time>2011-05-01T13:22:58Z</time>
      </trkpt>
      <trkpt lat="59.5392119419" lon="17.5674069766">
        <ele>30.4</ele>
        <time>2011-05-01T13:23:01Z</time>
      </trkpt>
      <trkpt lat="59.5389879774" lon="17.5676569249">
        <ele>29.8</ele>
        <time>2011-05-01T13:23:04Z</time>
      </trkpt>
      <trkpt lat="59.5387549605" lon="17.5679079629">
        <ele>28.8</ele>
        <time>2011-05-01T13:23:07Z</time>
      </trkpt>
      <trkpt lat="59.5385139808" lon="17.5681759324">
        <ele>28.4</ele>
        <time>2011-05-01T13:23:10Z</time>
      </trkpt>
      <trkpt lat="59.5382659603" lon="17.5684629288">
        <ele>28</ele>
        <time>2011-05-01T13:23:13Z</time>
      </trkpt>
      <trkpt lat="59.5380159281" lon="17.5687489193">
        <ele>28</ele>
        <time>2011-05-01T13:23:16Z</time>
      </trkpt>
      <trkpt lat="59.5377649739" lon="17.5690319762">
        <ele>28.8</ele>
        <time>2011-05-01T13:23:19Z</time>
      </trkpt>
      <trkpt lat="59.5375129301" lon="17.5693229958">
        <ele>28.4</ele>
        <time>2011-05-01T13:23:22Z</time>
      </trkpt>
      <trkpt lat="59.5372639876" lon="17.5696069747">
        <ele>28.4</ele>
        <time>2011-05-01T13:23:25Z</time>
      </trkpt>
      <trkpt lat="59.5370209962" lon="17.5698799733">
        <ele>28.4</ele>
        <time>2011-05-01T13:23:28Z</time>
      </trkpt>
      <trkpt lat="59.5367909968" lon="17.5701459311">
        <ele>30.4</ele>
        <time>2011-05-01T13:23:31Z</time>
      </trkpt>
      <trkpt lat="59.5365749951" lon="17.5704009924">
        <ele>30.8</ele>
        <time>2011-05-01T13:23:34Z</time>
      </trkpt>
      <trkpt lat="59.5363649447" lon="17.5706439838">
        <ele>31.2</ele>
        <time>2011-05-01T13:23:37Z</time>
      </trkpt>
      <trkpt lat="59.5361569896" lon="17.5708859693">
        <ele>31.8</ele>
        <time>2011-05-01T13:23:40Z</time>
      </trkpt>
      <trkpt lat="59.5359539799" lon="17.5711239316">
        <ele>31.8</ele>
        <time>2011-05-01T13:23:43Z</time>
      </trkpt>
      <trkpt lat="59.5357539877" lon="17.571359966">
        <ele>31.8</ele>
        <time>2011-05-01T13:23:46Z</time>
      </trkpt>
      <trkpt lat="59.5355529897" lon="17.5715949945">
        <ele>31.8</ele>
        <time>2011-05-01T13:23:49Z</time>
      </trkpt>
      <trkpt lat="59.5353539195" lon="17.5718359742">
        <ele>31.2</ele>
        <time>2011-05-01T13:23:52Z</time>
      </trkpt>
      <trkpt lat="59.5351589564" lon="17.5720739365">
        <ele>31.2</ele>
        <time>2011-05-01T13:23:55Z</time>
      </trkpt>
      <trkpt lat="59.5349589642" lon="17.5723129883">
        <ele>32.2</ele>
        <time>2011-05-01T13:23:58Z</time>
      </trkpt>
      <trkpt lat="59.5347599778" lon="17.5725589972">
        <ele>31.8</ele>
        <time>2011-05-01T13:24:01Z</time>
      </trkpt>
      <trkpt lat="59.5345709659" lon="17.5727849733">
        <ele>32.8</ele>
        <time>2011-05-01T13:24:04Z</time>
      </trkpt>
      <trkpt lat="59.5343839657" lon="17.5730119552">
        <ele>31.8</ele>
        <time>2011-05-01T13:24:07Z</time>
      </trkpt>
      <trkpt lat="59.5341949537" lon="17.5732379314">
        <ele>33.2</ele>
        <time>2011-05-01T13:24:10Z</time>
      </trkpt>
      <trkpt lat="59.5340099651" lon="17.5734579563">
        <ele>32.2</ele>
        <time>2011-05-01T13:24:13Z</time>
      </trkpt>
      <trkpt lat="59.5338369627" lon="17.5736669172">
        <ele>32.8</ele>
        <time>2011-05-01T13:24:16Z</time>
      </trkpt>
      <trkpt lat="59.5336679835" lon="17.5738739502">
        <ele>34.2</ele>
        <time>2011-05-01T13:24:19Z</time>
      </trkpt>
      <trkpt lat="59.5334929693" lon="17.5740809832">
        <ele>34.6</ele>
        <time>2011-05-01T13:24:22Z</time>
      </trkpt>
      <trkpt lat="59.5333119202" lon="17.5742869265">
        <ele>34.6</ele>
        <time>2011-05-01T13:24:25Z</time>
      </trkpt>
      <trkpt lat="59.5331279375" lon="17.5745089632">
        <ele>35.2</ele>
        <time>2011-05-01T13:24:28Z</time>
      </trkpt>
      <trkpt lat="59.5329439547" lon="17.5747329276">
        <ele>35.2</ele>
        <time>2011-05-01T13:24:31Z</time>
      </trkpt>
      <trkpt lat="59.5327579603" lon="17.5749519467">
        <ele>36</ele>
        <time>2011-05-01T13:24:34Z</time>
      </trkpt>
      <trkpt lat="59.53257096" lon="17.5751679484">
        <ele>36</ele>
        <time>2011-05-01T13:24:37Z</time>
      </trkpt>
      <trkpt lat="59.5323769189" lon="17.575389985">
        <ele>36</ele>
        <time>2011-05-01T13:24:40Z</time>
      </trkpt>
      <trkpt lat="59.5321739931" lon="17.5756249297">
        <ele>35.6</ele>
        <time>2011-05-01T13:24:43Z</time>
      </trkpt>
      <trkpt lat="59.5319609251" lon="17.5758579466">
        <ele>36</ele>
        <time>2011-05-01T13:24:46Z</time>
      </trkpt>
      <trkpt lat="59.5317569934" lon="17.5760839228">
        <ele>35.6</ele>
        <time>2011-05-01T13:24:49Z</time>
      </trkpt>
      <trkpt lat="59.5315599348" lon="17.5762999244">
        <ele>36</ele>
        <time>2011-05-01T13:24:52Z</time>
      </trkpt>
      <trkpt lat="59.5313689951" lon="17.5765039399">
        <ele>36.6</ele>
        <time>2011-05-01T13:24:55Z</time>
      </trkpt>
      <trkpt lat="59.5311829168" lon="17.576704938">
        <ele>36.6</ele>
        <time>2011-05-01T13:24:58Z</time>
      </trkpt>
      <trkpt lat="59.5310019515" lon="17.5769009907">
        <ele>37</ele>
        <time>2011-05-01T13:25:01Z</time>
      </trkpt>
      <trkpt lat="59.5308199804" lon="17.5770989712">
        <ele>37.6</ele>
        <time>2011-05-01T13:25:04Z</time>
      </trkpt>
      <trkpt lat="59.5306399371" lon="17.5772969518">
        <ele>36.6</ele>
        <time>2011-05-01T13:25:07Z</time>
      </trkpt>
      <trkpt lat="59.5304639172" lon="17.5774929207">
        <ele>37</ele>
        <time>2011-05-01T13:25:10Z</time>
      </trkpt>
      <trkpt lat="59.5302869752" lon="17.5776899792">
        <ele>37.6</ele>
        <time>2011-05-01T13:25:13Z</time>
      </trkpt>
      <trkpt lat="59.5301069319" lon="17.5778909773">
        <ele>38</ele>
        <time>2011-05-01T13:25:16Z</time>
      </trkpt>
      <trkpt lat="59.5299259666" lon="17.5780999381">
        <ele>37.6</ele>
        <time>2011-05-01T13:25:19Z</time>
      </trkpt>
      <trkpt lat="59.5297359489" lon="17.5783159398">
        <ele>39</ele>
        <time>2011-05-01T13:25:22Z</time>
      </trkpt>
      <trkpt lat="59.52953998" lon="17.5785459392">
        <ele>38.4</ele>
        <time>2011-05-01T13:25:25Z</time>
      </trkpt>
      <trkpt lat="59.5293409936" lon="17.5787769444">
        <ele>38</ele>
        <time>2011-05-01T13:25:28Z</time>
      </trkpt>
      <trkpt lat="59.5291369781" lon="17.5790159963">
        <ele>38.4</ele>
        <time>2011-05-01T13:25:31Z</time>
      </trkpt>
      <trkpt lat="59.5289319567" lon="17.5792559702">
        <ele>38</ele>
        <time>2011-05-01T13:25:34Z</time>
      </trkpt>
      <trkpt lat="59.5287239179" lon="17.5795139652">
        <ele>37.6</ele>
        <time>2011-05-01T13:25:37Z</time>
      </trkpt>
      <trkpt lat="59.5285069942" lon="17.5797879696">
        <ele>37</ele>
        <time>2011-05-01T13:25:40Z</time>
      </trkpt>
      <trkpt lat="59.5282929204" lon="17.5800759718">
        <ele>36.6</ele>
        <time>2011-05-01T13:25:43Z</time>
      </trkpt>
      <trkpt lat="59.5280769188" lon="17.5803829171">
        <ele>33.2</ele>
        <time>2011-05-01T13:25:46Z</time>
      </trkpt>
      <trkpt lat="59.5278639346" lon="17.5807049498">
        <ele>34.6</ele>
        <time>2011-05-01T13:25:49Z</time>
      </trkpt>
      <trkpt lat="59.5276549738" lon="17.5810389686">
        <ele>34.6</ele>
        <time>2011-05-01T13:25:52Z</time>
      </trkpt>
      <trkpt lat="59.5274529699" lon="17.5813809503">
        <ele>34.6</ele>
        <time>2011-05-01T13:25:55Z</time>
      </trkpt>
      <trkpt lat="59.527263958" lon="17.5817189924">
        <ele>33.6</ele>
        <time>2011-05-01T13:25:58Z</time>
      </trkpt>
      <trkpt lat="59.527087938" lon="17.5820449647">
        <ele>34.2</ele>
        <time>2011-05-01T13:26:01Z</time>
      </trkpt>
      <trkpt lat="59.5269019436" lon="17.5823819172">
        <ele>34.6</ele>
        <time>2011-05-01T13:26:04Z</time>
      </trkpt>
      <trkpt lat="59.5267279353" lon="17.5827259943">
        <ele>34.6</ele>
        <time>2011-05-01T13:26:07Z</time>
      </trkpt>
      <trkpt lat="59.5265619736" lon="17.5830749329">
        <ele>33.6</ele>
        <time>2011-05-01T13:26:10Z</time>
      </trkpt>
      <trkpt lat="59.5264049806" lon="17.5834219437">
        <ele>33.6</ele>
        <time>2011-05-01T13:26:13Z</time>
      </trkpt>
      <trkpt lat="59.5262499992" lon="17.583778929">
        <ele>33.6</ele>
        <time>2011-05-01T13:26:16Z</time>
      </trkpt>
      <trkpt lat="59.5260939281" lon="17.5841449667">
        <ele>35.2</ele>
        <time>2011-05-01T13:26:19Z</time>
      </trkpt>
      <trkpt lat="59.5259469934" lon="17.5845179614">
        <ele>33.6</ele>
        <time>2011-05-01T13:26:22Z</time>
      </trkpt>
      <trkpt lat="59.5258539543" lon="17.5847669877">
        <ele>34.6</ele>
        <time>2011-05-01T13:26:24Z</time>
      </trkpt>
      <trkpt lat="59.5257149823" lon="17.5851399824">
        <ele>35.2</ele>
        <time>2011-05-01T13:26:27Z</time>
      </trkpt>
      <trkpt lat="59.5255779382" lon="17.5855219457">
        <ele>34.6</ele>
        <time>2011-05-01T13:26:30Z</time>
      </trkpt>
      <trkpt lat="59.5254449174" lon="17.5859089382">
        <ele>35.6</ele>
        <time>2011-05-01T13:26:33Z</time>
      </trkpt>
      <trkpt lat="59.5253179315" lon="17.5863049831">
        <ele>35.6</ele>
        <time>2011-05-01T13:26:36Z</time>
      </trkpt>
      <trkpt lat="59.525194969" lon="17.5867009442">
        <ele>33.6</ele>
        <time>2011-05-01T13:26:39Z</time>
      </trkpt>
      <trkpt lat="59.525081981" lon="17.5870959833">
        <ele>35.2</ele>
        <time>2011-05-01T13:26:42Z</time>
      </trkpt>
      <trkpt lat="59.5249739382" lon="17.5874859933">
        <ele>34.6</ele>
        <time>2011-05-01T13:26:45Z</time>
      </trkpt>
      <trkpt lat="59.5248689968" lon="17.5878829602">
        <ele>35.6</ele>
        <time>2011-05-01T13:26:48Z</time>
      </trkpt>
      <trkpt lat="59.5247629657" lon="17.5882789213">
        <ele>35.2</ele>
        <time>2011-05-01T13:26:51Z</time>
      </trkpt>
      <trkpt lat="59.5246599521" lon="17.5886609685">
        <ele>35.6</ele>
        <time>2011-05-01T13:26:54Z</time>
      </trkpt>
      <trkpt lat="59.524559956" lon="17.5890399981">
        <ele>36.6</ele>
        <time>2011-05-01T13:26:57Z</time>
      </trkpt>
      <trkpt lat="59.5244609658" lon="17.5894199498">
        <ele>36.6</ele>
        <time>2011-05-01T13:27:00Z</time>
      </trkpt>
      <trkpt lat="59.5243629813" lon="17.5897929445">
        <ele>39</ele>
        <time>2011-05-01T13:27:03Z</time>
      </trkpt>
      <trkpt lat="59.5243309624" lon="17.5899179187">
        <ele>38.4</ele>
        <time>2011-05-01T13:27:04Z</time>
      </trkpt>
      <trkpt lat="59.5242319722" lon="17.5902969483">
        <ele>39</ele>
        <time>2011-05-01T13:27:07Z</time>
      </trkpt>
      <trkpt lat="59.5241319761" lon="17.5906779896">
        <ele>38</ele>
        <time>2011-05-01T13:27:10Z</time>
      </trkpt>
      <trkpt lat="59.5240289625" lon="17.5910729449">
        <ele>38</ele>
        <time>2011-05-01T13:27:13Z</time>
      </trkpt>
      <trkpt lat="59.5239219256" lon="17.5914789643">
        <ele>37.6</ele>
        <time>2011-05-01T13:27:16Z</time>
      </trkpt>
      <trkpt lat="59.5238149725" lon="17.591889929">
        <ele>37</ele>
        <time>2011-05-01T13:27:19Z</time>
      </trkpt>
      <trkpt lat="59.5237089414" lon="17.5923129637">
        <ele>36.6</ele>
        <time>2011-05-01T13:27:22Z</time>
      </trkpt>
      <trkpt lat="59.5235989708" lon="17.5927459728">
        <ele>35.2</ele>
        <time>2011-05-01T13:27:25Z</time>
      </trkpt>
      <trkpt lat="59.5235239528" lon="17.5930349808">
        <ele>32.8</ele>
        <time>2011-05-01T13:27:27Z</time>
      </trkpt>
      <trkpt lat="59.5234129764" lon="17.5934639666">
        <ele>33.2</ele>
        <time>2011-05-01T13:27:30Z</time>
      </trkpt>
      <trkpt lat="59.5233019162" lon="17.5938879233">
        <ele>32.2</ele>
        <time>2011-05-01T13:27:33Z</time>
      </trkpt>
      <trkpt lat="59.5231919456" lon="17.5943099521">
        <ele>32.2</ele>
        <time>2011-05-01T13:27:36Z</time>
      </trkpt>
      <trkpt lat="59.5230839867" lon="17.5947299693">
        <ele>32.2</ele>
        <time>2011-05-01T13:27:39Z</time>
      </trkpt>
      <trkpt lat="59.5229739323" lon="17.595140934">
        <ele>32.8</ele>
        <time>2011-05-01T13:27:42Z</time>
      </trkpt>
      <trkpt lat="59.5228969865" lon="17.5954089873">
        <ele>33.6</ele>
        <time>2011-05-01T13:27:44Z</time>
      </trkpt>
      <trkpt lat="59.5227819867" lon="17.5958099775">
        <ele>34.2</ele>
        <time>2011-05-01T13:27:47Z</time>
      </trkpt>
      <trkpt lat="59.5225889515" lon="17.5964759197">
        <ele>33.6</ele>
        <time>2011-05-01T13:27:52Z</time>
      </trkpt>
      <trkpt lat="59.5224829204" lon="17.5968879741">
        <ele>32.8</ele>
        <time>2011-05-01T13:27:55Z</time>
      </trkpt>
      <trkpt lat="59.5223819185" lon="17.5973009504">
        <ele>33.6</ele>
        <time>2011-05-01T13:27:58Z</time>
      </trkpt>
      <trkpt lat="59.5222819224" lon="17.5977139268">
        <ele>32.8</ele>
        <time>2011-05-01T13:28:01Z</time>
      </trkpt>
      <trkpt lat="59.5221869554" lon="17.5981289987">
        <ele>33.2</ele>
        <time>2011-05-01T13:28:04Z</time>
      </trkpt>
      <trkpt lat="59.5220909826" lon="17.5985399634">
        <ele>33.2</ele>
        <time>2011-05-01T13:28:07Z</time>
      </trkpt>
      <trkpt lat="59.5219899807" lon="17.5989529397">
        <ele>33.6</ele>
        <time>2011-05-01T13:28:10Z</time>
      </trkpt>
      <trkpt lat="59.5218839496" lon="17.5993649941">
        <ele>32.8</ele>
        <time>2011-05-01T13:28:13Z</time>
      </trkpt>
      <trkpt lat="59.5217779186" lon="17.5997599494">
        <ele>31.8</ele>
        <time>2011-05-01T13:28:16Z</time>
      </trkpt>
      <trkpt lat="59.5216819458" lon="17.6001379732">
        <ele>32.8</ele>
        <time>2011-05-01T13:28:19Z</time>
      </trkpt>
      <trkpt lat="59.5216499269" lon="17.6002629474">
        <ele>35.6</ele>
        <time>2011-05-01T13:28:20Z</time>
      </trkpt>
      <trkpt lat="59.521585973" lon="17.6005149912">
        <ele>36.6</ele>
        <time>2011-05-01T13:28:22Z</time>
      </trkpt>
      <trkpt lat="59.5214889944" lon="17.6008939371">
        <ele>37</ele>
        <time>2011-05-01T13:28:25Z</time>
      </trkpt>
      <trkpt lat="59.5213869866" lon="17.6012829412">
        <ele>36.6</ele>
        <time>2011-05-01T13:28:28Z</time>
      </trkpt>
      <trkpt lat="59.5212799497" lon="17.6016849373">
        <ele>35.6</ele>
        <time>2011-05-01T13:28:31Z</time>
      </trkpt>
      <trkpt lat="59.5211679675" lon="17.6020849217">
        <ele>36.6</ele>
        <time>2011-05-01T13:28:34Z</time>
      </trkpt>
      <trkpt lat="59.5210619364" lon="17.6024879236">
        <ele>36</ele>
        <time>2011-05-01T13:28:37Z</time>
      </trkpt>
      <trkpt lat="59.5209909417" lon="17.6027599163">
        <ele>35.2</ele>
        <time>2011-05-01T13:28:39Z</time>
      </trkpt>
      <trkpt lat="59.5208819769" lon="17.603175994">
        <ele>34.2</ele>
        <time>2011-05-01T13:28:42Z</time>
      </trkpt>
      <trkpt lat="59.5207689889" lon="17.6036029682">
        <ele>34.2</ele>
        <time>2011-05-01T13:28:45Z</time>
      </trkpt>
      <trkpt lat="59.520654995" lon="17.6040489692">
        <ele>33.6</ele>
        <time>2011-05-01T13:28:48Z</time>
      </trkpt>
      <trkpt lat="59.520529937" lon="17.6045089681">
        <ele>33.2</ele>
        <time>2011-05-01T13:28:51Z</time>
      </trkpt>
      <trkpt lat="59.520403957" lon="17.6049719844">
        <ele>29.8</ele>
        <time>2011-05-01T13:28:54Z</time>
      </trkpt>
      <trkpt lat="59.5202749595" lon="17.6054239366">
        <ele>31.2</ele>
        <time>2011-05-01T13:28:57Z</time>
      </trkpt>
      <trkpt lat="59.5201429445" lon="17.6058749668">
        <ele>31.8</ele>
        <time>2011-05-01T13:29:00Z</time>
      </trkpt>
      <trkpt lat="59.5200049784" lon="17.6063239854">
        <ele>31.2</ele>
        <time>2011-05-01T13:29:03Z</time>
      </trkpt>
      <trkpt lat="59.5198669285" lon="17.6067649573">
        <ele>30.4</ele>
        <time>2011-05-01T13:29:06Z</time>
      </trkpt>
      <trkpt lat="59.5197289623" lon="17.6071929373">
        <ele>31.2</ele>
        <time>2011-05-01T13:29:09Z</time>
      </trkpt>
      <trkpt lat="59.5195889845" lon="17.6076139603">
        <ele>29.4</ele>
        <time>2011-05-01T13:29:12Z</time>
      </trkpt>
      <trkpt lat="59.5195419621" lon="17.6077519264">
        <ele>29.4</ele>
        <time>2011-05-01T13:29:13Z</time>
      </trkpt>
      <trkpt lat="59.5194019843" lon="17.6081619691">
        <ele>32.8</ele>
        <time>2011-05-01T13:29:16Z</time>
      </trkpt>
      <trkpt lat="59.5192569774" lon="17.6085659768">
        <ele>32.2</ele>
        <time>2011-05-01T13:29:19Z</time>
      </trkpt>
      <trkpt lat="59.5191119704" lon="17.6089579985">
        <ele>32.8</ele>
        <time>2011-05-01T13:29:22Z</time>
      </trkpt>
      <trkpt lat="59.5189619344" lon="17.6093399618">
        <ele>31.8</ele>
        <time>2011-05-01T13:29:25Z</time>
      </trkpt>
      <trkpt lat="59.5188079588" lon="17.6097109448">
        <ele>31.8</ele>
        <time>2011-05-01T13:29:28Z</time>
      </trkpt>
      <trkpt lat="59.5186399855" lon="17.6100669242">
        <ele>31.8</ele>
        <time>2011-05-01T13:29:31Z</time>
      </trkpt>
      <trkpt lat="59.5184639655" lon="17.6104069781">
        <ele>31.2</ele>
        <time>2011-05-01T13:29:34Z</time>
      </trkpt>
      <trkpt lat="59.5182749536" lon="17.6107149292">
        <ele>31.8</ele>
        <time>2011-05-01T13:29:37Z</time>
      </trkpt>
      <trkpt lat="59.518076973" lon="17.610997986">
        <ele>31.2</ele>
        <time>2011-05-01T13:29:40Z</time>
      </trkpt>
      <trkpt lat="59.5178739633" lon="17.6112619322">
        <ele>29.4</ele>
        <time>2011-05-01T13:29:43Z</time>
      </trkpt>
      <trkpt lat="59.5176709536" lon="17.6115019899">
        <ele>31.8</ele>
        <time>2011-05-01T13:29:46Z</time>
      </trkpt>
      <trkpt lat="59.5174879767" lon="17.6117399521">
        <ele>30.8</ele>
        <time>2011-05-01T13:29:49Z</time>
      </trkpt>
      <trkpt lat="59.5173769165" lon="17.6119059976">
        <ele>31.2</ele>
        <time>2011-05-01T13:29:51Z</time>
      </trkpt>
      <trkpt lat="59.5172059257" lon="17.6123179682">
        <ele>30.8</ele>
        <time>2011-05-01T13:29:55Z</time>
      </trkpt>
      <trkpt lat="59.517077934" lon="17.6127039548">
        <ele>32.2</ele>
        <time>2011-05-01T13:29:59Z</time>
      </trkpt>
      <trkpt lat="59.5169939473" lon="17.6129939687">
        <ele>31.8</ele>
        <time>2011-05-01T13:30:02Z</time>
      </trkpt>
      <trkpt lat="59.5169229526" lon="17.6133049373">
        <ele>32.2</ele>
        <time>2011-05-01T13:30:05Z</time>
      </trkpt>
      <trkpt lat="59.5167719945" lon="17.613633927">
        <ele>33.6</ele>
        <time>2011-05-01T13:30:09Z</time>
      </trkpt>
      <trkpt lat="59.5165569987" lon="17.6138999686">
        <ele>31.8</ele>
        <time>2011-05-01T13:30:13Z</time>
      </trkpt>
      <trkpt lat="59.5163759496" lon="17.614123933">
        <ele>30.8</ele>
        <time>2011-05-01T13:30:16Z</time>
      </trkpt>
      <trkpt lat="59.5161869377" lon="17.6143479813">
        <ele>31.2</ele>
        <time>2011-05-01T13:30:19Z</time>
      </trkpt>
      <trkpt lat="59.5159889571" lon="17.6145599596">
        <ele>31.8</ele>
        <time>2011-05-01T13:30:22Z</time>
      </trkpt>
      <trkpt lat="59.5157789905" lon="17.614751989">
        <ele>31.2</ele>
        <time>2011-05-01T13:30:25Z</time>
      </trkpt>
      <trkpt lat="59.5155589655" lon="17.6149069704">
        <ele>31.8</ele>
        <time>2011-05-01T13:30:28Z</time>
      </trkpt>
      <trkpt lat="59.5153389405" lon="17.6150289271">
        <ele>31.2</ele>
        <time>2011-05-01T13:30:31Z</time>
      </trkpt>
      <trkpt lat="59.5151239447" lon="17.6151099801">
        <ele>31.8</ele>
        <time>2011-05-01T13:30:34Z</time>
      </trkpt>
      <trkpt lat="59.5149149839" lon="17.6151519734">
        <ele>33.2</ele>
        <time>2011-05-01T13:30:37Z</time>
      </trkpt>
      <trkpt lat="59.5147139858" lon="17.6151779573">
        <ele>33.6</ele>
        <time>2011-05-01T13:30:40Z</time>
      </trkpt>
      <trkpt lat="59.5145149995" lon="17.6151839923">
        <ele>35.2</ele>
        <time>2011-05-01T13:30:43Z</time>
      </trkpt>
      <trkpt lat="59.5143059548" lon="17.6151749399">
        <ele>34.6</ele>
        <time>2011-05-01T13:30:46Z</time>
      </trkpt>
      <trkpt lat="59.5140989218" lon="17.6151639596">
        <ele>35.6</ele>
        <time>2011-05-01T13:30:49Z</time>
      </trkpt>
      <trkpt lat="59.5138929784" lon="17.6151779573">
        <ele>35.2</ele>
        <time>2011-05-01T13:30:52Z</time>
      </trkpt>
      <trkpt lat="59.5137559343" lon="17.6152069587">
        <ele>34.6</ele>
        <time>2011-05-01T13:30:54Z</time>
      </trkpt>
      <trkpt lat="59.5135479793" lon="17.6152779534">
        <ele>33.6</ele>
        <time>2011-05-01T13:30:57Z</time>
      </trkpt>
      <trkpt lat="59.513336923" lon="17.6153719984">
        <ele>33.2</ele>
        <time>2011-05-01T13:31:00Z</time>
      </trkpt>
      <trkpt lat="59.5132659283" lon="17.6154029276">
        <ele>32.8</ele>
        <time>2011-05-01T13:31:01Z</time>
      </trkpt>
      <trkpt lat="59.5129959472" lon="17.6154409815">
        <ele>32.8</ele>
        <time>2011-05-01T13:31:05Z</time>
      </trkpt>
      <trkpt lat="59.5129819494" lon="17.615770977">
        <ele>30.8</ele>
        <time>2011-05-01T13:31:08Z</time>
      </trkpt>
      <trkpt lat="59.5130359288" lon="17.6163679361">
        <ele>31.8</ele>
        <time>2011-05-01T13:31:13Z</time>
      </trkpt>
      <trkpt lat="59.5130109508" lon="17.6164989453">
        <ele>30.8</ele>
        <time>2011-05-01T13:31:14Z</time>
      </trkpt>
      <trkpt lat="59.5129559655" lon="17.616770938">
        <ele>29.4</ele>
        <time>2011-05-01T13:31:16Z</time>
      </trkpt>
      <trkpt lat="59.5128949452" lon="17.6173689868">
        <ele>29.4</ele>
        <time>2011-05-01T13:31:20Z</time>
      </trkpt>
      <trkpt lat="59.5128749963" lon="17.6176879182">
        <ele>27.4</ele>
        <time>2011-05-01T13:31:22Z</time>
      </trkpt>
      <trkpt lat="59.5128429774" lon="17.6182069257">
        <ele>26.4</ele>
        <time>2011-05-01T13:31:25Z</time>
      </trkpt>
      <trkpt lat="59.5127979666" lon="17.6187359914">
        <ele>27.4</ele>
        <time>2011-05-01T13:31:28Z</time>
      </trkpt>
      <trkpt lat="59.5127489325" lon="17.6192519814">
        <ele>27.4</ele>
        <time>2011-05-01T13:31:31Z</time>
      </trkpt>
      <trkpt lat="59.5127129741" lon="17.6195799652">
        <ele>26.4</ele>
        <time>2011-05-01T13:31:33Z</time>
      </trkpt>
      <trkpt lat="59.5126519538" lon="17.6200699713">
        <ele>26.4</ele>
        <time>2011-05-01T13:31:36Z</time>
      </trkpt>
      <trkpt lat="59.5125809591" lon="17.6205659285">
        <ele>27.4</ele>
        <time>2011-05-01T13:31:39Z</time>
      </trkpt>
      <trkpt lat="59.5124979783" lon="17.6210679207">
        <ele>25.6</ele>
        <time>2011-05-01T13:31:42Z</time>
      </trkpt>
      <trkpt lat="59.5124079566" lon="17.6215589326">
        <ele>27</ele>
        <time>2011-05-01T13:31:45Z</time>
      </trkpt>
      <trkpt lat="59.5123089664" lon="17.6220489386">
        <ele>27</ele>
        <time>2011-05-01T13:31:48Z</time>
      </trkpt>
      <trkpt lat="59.5121999178" lon="17.6225259528">
        <ele>26.4</ele>
        <time>2011-05-01T13:31:51Z</time>
      </trkpt>
      <trkpt lat="59.5120879356" lon="17.6229839399">
        <ele>26</ele>
        <time>2011-05-01T13:31:54Z</time>
      </trkpt>
      <trkpt lat="59.5119739417" lon="17.6234189607">
        <ele>27</ele>
        <time>2011-05-01T13:31:57Z</time>
      </trkpt>
      <trkpt lat="59.5118479617" lon="17.6238499582">
        <ele>26</ele>
        <time>2011-05-01T13:32:00Z</time>
      </trkpt>
      <trkpt lat="59.5117089897" lon="17.624284979">
        <ele>26.4</ele>
        <time>2011-05-01T13:32:03Z</time>
      </trkpt>
      <trkpt lat="59.5115639828" lon="17.6247009728">
        <ele>27</ele>
        <time>2011-05-01T13:32:06Z</time>
      </trkpt>
      <trkpt lat="59.5114149526" lon="17.6251239236">
        <ele>27</ele>
        <time>2011-05-01T13:32:09Z</time>
      </trkpt>
      <trkpt lat="59.5112649165" lon="17.62554897">
        <ele>25.6</ele>
        <time>2011-05-01T13:32:12Z</time>
      </trkpt>
      <trkpt lat="59.5111079235" lon="17.6259859186">
        <ele>25</ele>
        <time>2011-05-01T13:32:15Z</time>
      </trkpt>
      <trkpt lat="59.5109459851" lon="17.6264329255">
        <ele>24.6</ele>
        <time>2011-05-01T13:32:18Z</time>
      </trkpt>
      <trkpt lat="59.5107769221" lon="17.6269039884">
        <ele>23.6</ele>
        <time>2011-05-01T13:32:21Z</time>
      </trkpt>
      <trkpt lat="59.5106039196" lon="17.6273869537">
        <ele>23.6</ele>
        <time>2011-05-01T13:32:24Z</time>
      </trkpt>
      <trkpt lat="59.5104349405" lon="17.6278649736">
        <ele>23.2</ele>
        <time>2011-05-01T13:32:27Z</time>
      </trkpt>
      <trkpt lat="59.5102699846" lon="17.6283239666">
        <ele>22.2</ele>
        <time>2011-05-01T13:32:30Z</time>
      </trkpt>
      <trkpt lat="59.5101629477" lon="17.6286209375">
        <ele>21.2</ele>
        <time>2011-05-01T13:32:32Z</time>
      </trkpt>
      <trkpt lat="59.5100009255" lon="17.629075991">
        <ele>21.2</ele>
        <time>2011-05-01T13:32:35Z</time>
      </trkpt>
      <trkpt lat="59.5098359697" lon="17.6295429468">
        <ele>20.2</ele>
        <time>2011-05-01T13:32:38Z</time>
      </trkpt>
      <trkpt lat="59.5096679963" lon="17.630006969">
        <ele>20.8</ele>
        <time>2011-05-01T13:32:41Z</time>
      </trkpt>
      <trkpt lat="59.5095119253" lon="17.6304709911">
        <ele>19.8</ele>
        <time>2011-05-01T13:32:44Z</time>
      </trkpt>
      <trkpt lat="59.5093529206" lon="17.6309279725">
        <ele>19.2</ele>
        <time>2011-05-01T13:32:47Z</time>
      </trkpt>
      <trkpt lat="59.5091929939" lon="17.6313729677">
        <ele>19.2</ele>
        <time>2011-05-01T13:32:50Z</time>
      </trkpt>
      <trkpt lat="59.5090369228" lon="17.6318149455">
        <ele>19.8</ele>
        <time>2011-05-01T13:32:53Z</time>
      </trkpt>
      <trkpt lat="59.5088829473" lon="17.6322499663">
        <ele>19.8</ele>
        <time>2011-05-01T13:32:56Z</time>
      </trkpt>
      <trkpt lat="59.5087309834" lon="17.6326779462">
        <ele>18.8</ele>
        <time>2011-05-01T13:32:59Z</time>
      </trkpt>
      <trkpt lat="59.5085779298" lon="17.6331059262">
        <ele>19.2</ele>
        <time>2011-05-01T13:33:02Z</time>
      </trkpt>
      <trkpt lat="59.5084299892" lon="17.6335239317">
        <ele>19.2</ele>
        <time>2011-05-01T13:33:05Z</time>
      </trkpt>
      <trkpt lat="59.508280959" lon="17.6339439489">
        <ele>18.4</ele>
        <time>2011-05-01T13:33:08Z</time>
      </trkpt>
      <trkpt lat="59.5081329346" lon="17.6343589369">
        <ele>17.4</ele>
        <time>2011-05-01T13:33:11Z</time>
      </trkpt>
      <trkpt lat="59.5080849901" lon="17.634495981">
        <ele>17.4</ele>
        <time>2011-05-01T13:33:12Z</time>
      </trkpt>
      <trkpt lat="59.507940989" lon="17.6349079516">
        <ele>17.8</ele>
        <time>2011-05-01T13:33:15Z</time>
      </trkpt>
      <trkpt lat="59.5078049507" lon="17.6353169885">
        <ele>17.8</ele>
        <time>2011-05-01T13:33:18Z</time>
      </trkpt>
      <trkpt lat="59.5076889452" lon="17.6357419509">
        <ele>17.4</ele>
        <time>2011-05-01T13:33:21Z</time>
      </trkpt>
      <trkpt lat="59.5076229796" lon="17.6360299531">
        <ele>16.4</ele>
        <time>2011-05-01T13:33:23Z</time>
      </trkpt>
      <trkpt lat="59.5075429324" lon="17.6364779659">
        <ele>16.4</ele>
        <time>2011-05-01T13:33:26Z</time>
      </trkpt>
      <trkpt lat="59.507481996" lon="17.6369379647">
        <ele>15.4</ele>
        <time>2011-05-01T13:33:29Z</time>
      </trkpt>
      <trkpt lat="59.5074409246" lon="17.6373839658">
        <ele>15.4</ele>
        <time>2011-05-01T13:33:32Z</time>
      </trkpt>
      <trkpt lat="59.5074239932" lon="17.6378299668">
        <ele>14.4</ele>
        <time>2011-05-01T13:33:35Z</time>
      </trkpt>
      <trkpt lat="59.5074219815" lon="17.6382639818">
        <ele>16.4</ele>
        <time>2011-05-01T13:33:38Z</time>
      </trkpt>
      <trkpt lat="59.507437991" lon="17.638684921">
        <ele>18.4</ele>
        <time>2011-05-01T13:33:41Z</time>
      </trkpt>
      <trkpt lat="59.5074729435" lon="17.6390909404">
        <ele>17.8</ele>
        <time>2011-05-01T13:33:44Z</time>
      </trkpt>
      <trkpt lat="59.507513931" lon="17.6394719817">
        <ele>15.4</ele>
        <time>2011-05-01T13:33:47Z</time>
      </trkpt>
      <trkpt lat="59.5075289346" lon="17.6395949442">
        <ele>15.8</ele>
        <time>2011-05-01T13:33:48Z</time>
      </trkpt>
      <trkpt lat="59.5075689163" lon="17.6399589702">
        <ele>15.4</ele>
        <time>2011-05-01T13:33:51Z</time>
      </trkpt>
      <trkpt lat="59.507607976" lon="17.6403239183">
        <ele>15.8</ele>
        <time>2011-05-01T13:33:54Z</time>
      </trkpt>
      <trkpt lat="59.5076449402" lon="17.6406759582">
        <ele>16.4</ele>
        <time>2011-05-01T13:33:57Z</time>
      </trkpt>
      <trkpt lat="59.5076809824" lon="17.6410439238">
        <ele>15.8</ele>
        <time>2011-05-01T13:34:00Z</time>
      </trkpt>
      <trkpt lat="59.507726999" lon="17.641419936">
        <ele>15</ele>
        <time>2011-05-01T13:34:03Z</time>
      </trkpt>
      <trkpt lat="59.5077709202" lon="17.6418089401">
        <ele>16.4</ele>
        <time>2011-05-01T13:34:06Z</time>
      </trkpt>
      <trkpt lat="59.5078149252" lon="17.6421959326">
        <ele>15.8</ele>
        <time>2011-05-01T13:34:09Z</time>
      </trkpt>
      <trkpt lat="59.5078579243" lon="17.6425699331">
        <ele>16.8</ele>
        <time>2011-05-01T13:34:12Z</time>
      </trkpt>
      <trkpt lat="59.5079029351" lon="17.6429339591">
        <ele>16.4</ele>
        <time>2011-05-01T13:34:15Z</time>
      </trkpt>
      <trkpt lat="59.5079469401" lon="17.6432809699">
        <ele>16.8</ele>
        <time>2011-05-01T13:34:18Z</time>
      </trkpt>
      <trkpt lat="59.5079929568" lon="17.6436109655">
        <ele>16.8</ele>
        <time>2011-05-01T13:34:21Z</time>
      </trkpt>
      <trkpt lat="59.5080379676" lon="17.6439119596">
        <ele>17.8</ele>
        <time>2011-05-01T13:34:24Z</time>
      </trkpt>
      <trkpt lat="59.5080679748" lon="17.6440989599">
        <ele>18.8</ele>
        <time>2011-05-01T13:34:26Z</time>
      </trkpt>
      <trkpt lat="59.5081079565" lon="17.644361984">
        <ele>20.2</ele>
        <time>2011-05-01T13:34:29Z</time>
      </trkpt>
      <trkpt lat="59.5081609301" lon="17.6446789876">
        <ele>20.8</ele>
        <time>2011-05-01T13:34:33Z</time>
      </trkpt>
      <trkpt lat="59.5082139876" lon="17.644984927">
        <ele>23.2</ele>
        <time>2011-05-01T13:34:37Z</time>
      </trkpt>
      <trkpt lat="59.5082639437" lon="17.645286927">
        <ele>23.6</ele>
        <time>2011-05-01T13:34:41Z</time>
      </trkpt>
      <trkpt lat="59.5083169173" lon="17.6456069481">
        <ele>25</ele>
        <time>2011-05-01T13:34:45Z</time>
      </trkpt>
      <trkpt lat="59.5083769318" lon="17.6459209342">
        <ele>25.6</ele>
        <time>2011-05-01T13:34:49Z</time>
      </trkpt>
      <trkpt lat="59.5084329229" lon="17.6462429669">
        <ele>25.6</ele>
        <time>2011-05-01T13:34:53Z</time>
      </trkpt>
      <trkpt lat="59.5084899198" lon="17.6465719566">
        <ele>24.6</ele>
        <time>2011-05-01T13:34:57Z</time>
      </trkpt>
      <trkpt lat="59.5085159875" lon="17.6467499882">
        <ele>25.6</ele>
        <time>2011-05-01T13:34:59Z</time>
      </trkpt>
      <trkpt lat="59.5085629262" lon="17.6470339671">
        <ele>24.6</ele>
        <time>2011-05-01T13:35:02Z</time>
      </trkpt>
      <trkpt lat="59.5086189173" lon="17.6473299321">
        <ele>24</ele>
        <time>2011-05-01T13:35:05Z</time>
      </trkpt>
      <trkpt lat="59.5086729806" lon="17.6476639509">
        <ele>22.6</ele>
        <time>2011-05-01T13:35:08Z</time>
      </trkpt>
      <trkpt lat="59.508732995" lon="17.6480509434">
        <ele>21.2</ele>
        <time>2011-05-01T13:35:11Z</time>
      </trkpt>
      <trkpt lat="59.5088049956" lon="17.64848697">
        <ele>17.8</ele>
        <time>2011-05-01T13:35:14Z</time>
      </trkpt>
      <trkpt lat="59.5088899881" lon="17.6489699353">
        <ele>15.8</ele>
        <time>2011-05-01T13:35:17Z</time>
      </trkpt>
      <trkpt lat="59.5089529362" lon="17.6493129227">
        <ele>13.4</ele>
        <time>2011-05-01T13:35:19Z</time>
      </trkpt>
      <trkpt lat="59.5090469811" lon="17.6498249732">
        <ele>13</ele>
        <time>2011-05-01T13:35:22Z</time>
      </trkpt>
      <trkpt lat="59.5091399364" lon="17.6502889954">
        <ele>14</ele>
        <time>2011-05-01T13:35:25Z</time>
      </trkpt>
      <trkpt lat="59.5092239231" lon="17.6507099345">
        <ele>13.4</ele>
        <time>2011-05-01T13:35:28Z</time>
      </trkpt>
      <trkpt lat="59.5093049761" lon="17.6510999445">
        <ele>14.4</ele>
        <time>2011-05-01T13:35:31Z</time>
      </trkpt>
      <trkpt lat="59.5093899686" lon="17.651486937">
        <ele>14</ele>
        <time>2011-05-01T13:35:34Z</time>
      </trkpt>
      <trkpt lat="59.5094769727" lon="17.6518779527">
        <ele>14</ele>
        <time>2011-05-01T13:35:37Z</time>
      </trkpt>
      <trkpt lat="59.5095699281" lon="17.6522599999">
        <ele>13.4</ele>
        <time>2011-05-01T13:35:40Z</time>
      </trkpt>
      <trkpt lat="59.5096629672" lon="17.6526259538">
        <ele>14</ele>
        <time>2011-05-01T13:35:43Z</time>
      </trkpt>
      <trkpt lat="59.5097639691" lon="17.6529749762">
        <ele>14</ele>
        <time>2011-05-01T13:35:46Z</time>
      </trkpt>
      <trkpt lat="59.5098689944" lon="17.6532899681">
        <ele>14.4</ele>
        <time>2011-05-01T13:35:49Z</time>
      </trkpt>
      <trkpt lat="59.509965973" lon="17.6535839215">
        <ele>15.4</ele>
        <time>2011-05-01T13:35:52Z</time>
      </trkpt>
      <trkpt lat="59.5099689905" lon="17.6540169306">
        <ele>18.8</ele>
        <time>2011-05-01T13:35:56Z</time>
      </trkpt>
      <trkpt lat="59.5099329483" lon="17.6541119814">
        <ele>18.8</ele>
        <time>2011-05-01T13:35:57Z</time>
      </trkpt>
      <trkpt lat="59.5098879375" lon="17.6541999914">
        <ele>19.8</ele>
        <time>2011-05-01T13:35:58Z</time>
      </trkpt>
      <trkpt lat="59.5096839219" lon="17.6545469183">
        <ele>17.4</ele>
        <time>2011-05-01T13:36:02Z</time>
      </trkpt>
      <trkpt lat="59.5095259231" lon="17.6548019797">
        <ele>17.8</ele>
        <time>2011-05-01T13:36:05Z</time>
      </trkpt>
      <trkpt lat="59.50936893" lon="17.6550599746">
        <ele>18.4</ele>
        <time>2011-05-01T13:36:08Z</time>
      </trkpt>
      <trkpt lat="59.5091999508" lon="17.6553249266">
        <ele>18.8</ele>
        <time>2011-05-01T13:36:11Z</time>
      </trkpt>
      <trkpt lat="59.5090179797" lon="17.6555939857">
        <ele>19.2</ele>
        <time>2011-05-01T13:36:14Z</time>
      </trkpt>
      <trkpt lat="59.5088319853" lon="17.6558609493">
        <ele>19.2</ele>
        <time>2011-05-01T13:36:17Z</time>
      </trkpt>
      <trkpt lat="59.5086429734" lon="17.6561289188">
        <ele>19.2</ele>
        <time>2011-05-01T13:36:20Z</time>
      </trkpt>
      <trkpt lat="59.5084579848" lon="17.656403929">
        <ele>18.4</ele>
        <time>2011-05-01T13:36:23Z</time>
      </trkpt>
      <trkpt lat="59.5082759298" lon="17.6566949487">
        <ele>19.2</ele>
        <time>2011-05-01T13:36:26Z</time>
      </trkpt>
      <trkpt lat="59.5081009995" lon="17.657000972">
        <ele>18.8</ele>
        <time>2011-05-01T13:36:29Z</time>
      </trkpt>
      <trkpt lat="59.5079339482" lon="17.6573239267">
        <ele>19.2</ele>
        <time>2011-05-01T13:36:32Z</time>
      </trkpt>
      <trkpt lat="59.5077769551" lon="17.6576499827">
        <ele>18.4</ele>
        <time>2011-05-01T13:36:35Z</time>
      </trkpt>
      <trkpt lat="59.5076319482" lon="17.6579789724">
        <ele>15.8</ele>
        <time>2011-05-01T13:36:38Z</time>
      </trkpt>
      <trkpt lat="59.5074989274" lon="17.6583019271">
        <ele>17.8</ele>
        <time>2011-05-01T13:36:41Z</time>
      </trkpt>
      <trkpt lat="59.5073749591" lon="17.6586259715">
        <ele>17.4</ele>
        <time>2011-05-01T13:36:44Z</time>
      </trkpt>
      <trkpt lat="59.507255936" lon="17.6589669473">
        <ele>17.4</ele>
        <time>2011-05-01T13:36:47Z</time>
      </trkpt>
      <trkpt lat="59.5071349852" lon="17.6593119465">
        <ele>16.8</ele>
        <time>2011-05-01T13:36:50Z</time>
      </trkpt>
      <trkpt lat="59.5070149563" lon="17.6596599631">
        <ele>17.8</ele>
        <time>2011-05-01T13:36:53Z</time>
      </trkpt>
      <trkpt lat="59.5069769863" lon="17.6597759686">
        <ele>17.8</ele>
        <time>2011-05-01T13:36:54Z</time>
      </trkpt>
      <trkpt lat="59.5068649203" lon="17.6601249911">
        <ele>15.8</ele>
        <time>2011-05-01T13:36:57Z</time>
      </trkpt>
      <trkpt lat="59.506758973" lon="17.6604789589">
        <ele>16.4</ele>
        <time>2011-05-01T13:37:00Z</time>
      </trkpt>
      <trkpt lat="59.5066809375" lon="17.660704935">
        <ele>16.8</ele>
        <time>2011-05-01T13:37:02Z</time>
      </trkpt>
      <trkpt lat="59.5064439811" lon="17.6610369422">
        <ele>16.8</ele>
        <time>2011-05-01T13:37:06Z</time>
      </trkpt>
      <trkpt lat="59.5061529614" lon="17.6612309832">
        <ele>16.8</ele>
        <time>2011-05-01T13:37:10Z</time>
      </trkpt>
      <trkpt lat="59.5059239678" lon="17.6613439713">
        <ele>16.4</ele>
        <time>2011-05-01T13:37:13Z</time>
      </trkpt>
      <trkpt lat="59.5057109836" lon="17.6615269482">
        <ele>16.4</ele>
        <time>2011-05-01T13:37:16Z</time>
      </trkpt>
      <trkpt lat="59.5055219717" lon="17.6617809199">
        <ele>16.4</ele>
        <time>2011-05-01T13:37:19Z</time>
      </trkpt>
      <trkpt lat="59.5053539984" lon="17.6620859373">
        <ele>16.4</ele>
        <time>2011-05-01T13:37:22Z</time>
      </trkpt>
      <trkpt lat="59.5051969215" lon="17.6624099817">
        <ele>15.8</ele>
        <time>2011-05-01T13:37:25Z</time>
      </trkpt>
      <trkpt lat="59.505042946" lon="17.6627389714">
        <ele>15.8</ele>
        <time>2011-05-01T13:37:28Z</time>
      </trkpt>
      <trkpt lat="59.5048849471" lon="17.6630609203">
        <ele>17.4</ele>
        <time>2011-05-01T13:37:31Z</time>
      </trkpt>
      <trkpt lat="59.5047139563" lon="17.6633759961">
        <ele>15.4</ele>
        <time>2011-05-01T13:37:34Z</time>
      </trkpt>
      <trkpt lat="59.5045319851" lon="17.6636649203">
        <ele>15</ele>
        <time>2011-05-01T13:37:37Z</time>
      </trkpt>
      <trkpt lat="59.5043459907" lon="17.6639379188">
        <ele>15.8</ele>
        <time>2011-05-01T13:37:40Z</time>
      </trkpt>
      <trkpt lat="59.5042229444" lon="17.664112933">
        <ele>16.8</ele>
        <time>2011-05-01T13:37:42Z</time>
      </trkpt>
      <trkpt lat="59.5040379558" lon="17.664370928">
        <ele>15.8</ele>
        <time>2011-05-01T13:37:45Z</time>
      </trkpt>
      <trkpt lat="59.503853973" lon="17.6646399871">
        <ele>15.4</ele>
        <time>2011-05-01T13:37:48Z</time>
      </trkpt>
      <trkpt lat="59.5036639553" lon="17.6649159193">
        <ele>15.4</ele>
        <time>2011-05-01T13:37:51Z</time>
      </trkpt>
      <trkpt lat="59.5034689922" lon="17.6651979703">
        <ele>15</ele>
        <time>2011-05-01T13:37:54Z</time>
      </trkpt>
      <trkpt lat="59.5032639708" lon="17.6654769201">
        <ele>14.4</ele>
        <time>2011-05-01T13:37:57Z</time>
      </trkpt>
      <trkpt lat="59.5030629728" lon="17.6657509245">
        <ele>16.4</ele>
        <time>2011-05-01T13:38:00Z</time>
      </trkpt>
      <trkpt lat="59.5029959176" lon="17.6658369228">
        <ele>16.8</ele>
        <time>2011-05-01T13:38:01Z</time>
      </trkpt>
      <trkpt lat="59.5027929917" lon="17.66609299">
        <ele>16.4</ele>
        <time>2011-05-01T13:38:04Z</time>
      </trkpt>
      <trkpt lat="59.502589982" lon="17.6663499791">
        <ele>17.8</ele>
        <time>2011-05-01T13:38:07Z</time>
      </trkpt>
      <trkpt lat="59.502388984" lon="17.6666129194">
        <ele>17.4</ele>
        <time>2011-05-01T13:38:10Z</time>
      </trkpt>
      <trkpt lat="59.5021919254" lon="17.666878961">
        <ele>17.8</ele>
        <time>2011-05-01T13:38:13Z</time>
      </trkpt>
      <trkpt lat="59.5019959565" lon="17.6671549771">
        <ele>16.8</ele>
        <time>2011-05-01T13:38:16Z</time>
      </trkpt>
      <trkpt lat="59.5017939527" lon="17.6674379501">
        <ele>16.8</ele>
        <time>2011-05-01T13:38:19Z</time>
      </trkpt>
      <trkpt lat="59.501590943" lon="17.6677289698">
        <ele>16.8</ele>
        <time>2011-05-01T13:38:22Z</time>
      </trkpt>
      <trkpt lat="59.5012699999" lon="17.6682589576">
        <ele>16.8</ele>
        <time>2011-05-01T13:38:27Z</time>
      </trkpt>
      <trkpt lat="59.5010869391" lon="17.6686069742">
        <ele>16.8</ele>
        <time>2011-05-01T13:38:30Z</time>
      </trkpt>
      <trkpt lat="59.5009079855" lon="17.6689769514">
        <ele>16.4</ele>
        <time>2011-05-01T13:38:33Z</time>
      </trkpt>
      <trkpt lat="59.5007239189" lon="17.6693439949">
        <ele>15.4</ele>
        <time>2011-05-01T13:38:36Z</time>
      </trkpt>
      <trkpt lat="59.50052795" lon="17.6696979627">
        <ele>15.4</ele>
        <time>2011-05-01T13:38:39Z</time>
      </trkpt>
      <trkpt lat="59.5003279578" lon="17.6700389385">
        <ele>15.4</ele>
        <time>2011-05-01T13:38:42Z</time>
      </trkpt>
      <trkpt lat="59.5001259539" lon="17.6703739632">
        <ele>14.4</ele>
        <time>2011-05-01T13:38:45Z</time>
      </trkpt>
      <trkpt lat="59.4999289792" lon="17.6707059704">
        <ele>15</ele>
        <time>2011-05-01T13:38:48Z</time>
      </trkpt>
      <trkpt lat="59.4997329265" lon="17.6710299309">
        <ele>15.4</ele>
        <time>2011-05-01T13:38:51Z</time>
      </trkpt>
      <trkpt lat="59.4995339401" lon="17.671355987">
        <ele>15</ele>
        <time>2011-05-01T13:38:54Z</time>
      </trkpt>
      <trkpt lat="59.4993379712" lon="17.6716789417">
        <ele>15.4</ele>
        <time>2011-05-01T13:38:57Z</time>
      </trkpt>
      <trkpt lat="59.4992079679" lon="17.6718959492">
        <ele>15.8</ele>
        <time>2011-05-01T13:38:59Z</time>
      </trkpt>
      <trkpt lat="59.4990139268" lon="17.6722219214">
        <ele>15.8</ele>
        <time>2011-05-01T13:39:02Z</time>
      </trkpt>
      <trkpt lat="59.4988189638" lon="17.6725469716">
        <ele>15.4</ele>
        <time>2011-05-01T13:39:05Z</time>
      </trkpt>
      <trkpt lat="59.4986239169" lon="17.6728729438">
        <ele>15.4</ele>
        <time>2011-05-01T13:39:08Z</time>
      </trkpt>
      <trkpt lat="59.4984239247" lon="17.6732089743">
        <ele>14.4</ele>
        <time>2011-05-01T13:39:11Z</time>
      </trkpt>
      <trkpt lat="59.4982239325" lon="17.673544921">
        <ele>11.6</ele>
        <time>2011-05-01T13:39:14Z</time>
      </trkpt>
      <trkpt lat="59.4981579669" lon="17.6736599207">
        <ele>11.6</ele>
        <time>2011-05-01T13:39:15Z</time>
      </trkpt>
      <trkpt lat="59.4979699608" lon="17.6740079373">
        <ele>11</ele>
        <time>2011-05-01T13:39:18Z</time>
      </trkpt>
      <trkpt lat="59.4977919292" lon="17.6743349992">
        <ele>10.6</ele>
        <time>2011-05-01T13:39:21Z</time>
      </trkpt>
      <trkpt lat="59.4976269733" lon="17.6746559422">
        <ele>11</ele>
        <time>2011-05-01T13:39:24Z</time>
      </trkpt>
      <trkpt lat="59.4974679686" lon="17.6749799866">
        <ele>11.6</ele>
        <time>2011-05-01T13:39:27Z</time>
      </trkpt>
      <trkpt lat="59.4973189384" lon="17.6753009297">
        <ele>12</ele>
        <time>2011-05-01T13:39:30Z</time>
      </trkpt>
      <trkpt lat="59.4971759431" lon="17.6756189391">
        <ele>11</ele>
        <time>2011-05-01T13:39:33Z</time>
      </trkpt>
      <trkpt lat="59.4970339537" lon="17.6759359427">
        <ele>10.6</ele>
        <time>2011-05-01T13:39:36Z</time>
      </trkpt>
      <trkpt lat="59.4968909584" lon="17.6762389485">
        <ele>11</ele>
        <time>2011-05-01T13:39:39Z</time>
      </trkpt>
      <trkpt lat="59.4967409223" lon="17.6765589695">
        <ele>12.6</ele>
        <time>2011-05-01T13:39:42Z</time>
      </trkpt>
      <trkpt lat="59.4965879526" lon="17.6768929884">
        <ele>11</ele>
        <time>2011-05-01T13:39:45Z</time>
      </trkpt>
      <trkpt lat="59.4964449573" lon="17.6772079803">
        <ele>14</ele>
        <time>2011-05-01T13:39:48Z</time>
      </trkpt>
      <trkpt lat="59.4963129424" lon="17.6775079686">
        <ele>14.4</ele>
        <time>2011-05-01T13:39:51Z</time>
      </trkpt>
      <trkpt lat="59.4961909857" lon="17.6777859963">
        <ele>15</ele>
        <time>2011-05-01T13:39:54Z</time>
      </trkpt>
      <trkpt lat="59.4960799254" lon="17.6780509483">
        <ele>15</ele>
        <time>2011-05-01T13:39:57Z</time>
      </trkpt>
      <trkpt lat="59.4959589746" lon="17.6783249527">
        <ele>16.8</ele>
        <time>2011-05-01T13:40:00Z</time>
      </trkpt>
      <trkpt lat="59.4958329946" lon="17.6785989571">
        <ele>17.4</ele>
        <time>2011-05-01T13:40:03Z</time>
      </trkpt>
      <trkpt lat="59.4957079366" lon="17.6788709499">
        <ele>17.4</ele>
        <time>2011-05-01T13:40:06Z</time>
      </trkpt>
      <trkpt lat="59.4955849741" lon="17.6791399252">
        <ele>16.8</ele>
        <time>2011-05-01T13:40:09Z</time>
      </trkpt>
      <trkpt lat="59.4954509474" lon="17.6794209704">
        <ele>17.4</ele>
        <time>2011-05-01T13:40:12Z</time>
      </trkpt>
      <trkpt lat="59.4953189325" lon="17.6797239762">
        <ele>16.8</ele>
        <time>2011-05-01T13:40:15Z</time>
      </trkpt>
      <trkpt lat="59.4951789547" lon="17.6800419856">
        <ele>15.4</ele>
        <time>2011-05-01T13:40:18Z</time>
      </trkpt>
      <trkpt lat="59.4951319322" lon="17.6801489387">
        <ele>15</ele>
        <time>2011-05-01T13:40:19Z</time>
      </trkpt>
      <trkpt lat="59.4949869253" lon="17.6804779284">
        <ele>14</ele>
        <time>2011-05-01T13:40:22Z</time>
      </trkpt>
      <trkpt lat="59.4948479533" lon="17.6808279566">
        <ele>14</ele>
        <time>2011-05-01T13:40:25Z</time>
      </trkpt>
      <trkpt lat="59.4947029464" lon="17.681196928">
        <ele>14</ele>
        <time>2011-05-01T13:40:28Z</time>
      </trkpt>
      <trkpt lat="59.4945519883" lon="17.6815719344">
        <ele>13.4</ele>
        <time>2011-05-01T13:40:31Z</time>
      </trkpt>
      <trkpt lat="59.4944579434" lon="17.6818309352">
        <ele>12</ele>
        <time>2011-05-01T13:40:33Z</time>
      </trkpt>
      <trkpt lat="59.4943209831" lon="17.6821999904">
        <ele>12.6</ele>
        <time>2011-05-01T13:40:36Z</time>
      </trkpt>
      <trkpt lat="59.4941849448" lon="17.6825839654">
        <ele>11.6</ele>
        <time>2011-05-01T13:40:39Z</time>
      </trkpt>
      <trkpt lat="59.4940899778" lon="17.6828369312">
        <ele>10.6</ele>
        <time>2011-05-01T13:40:41Z</time>
      </trkpt>
      <trkpt lat="59.4939429592" lon="17.6832099259">
        <ele>11</ele>
        <time>2011-05-01T13:40:44Z</time>
      </trkpt>
      <trkpt lat="59.4937889837" lon="17.6835739519">
        <ele>11</ele>
        <time>2011-05-01T13:40:47Z</time>
      </trkpt>
      <trkpt lat="59.4936289731" lon="17.6839349605">
        <ele>10.6</ele>
        <time>2011-05-01T13:40:50Z</time>
      </trkpt>
      <trkpt lat="59.4935189188" lon="17.6841719169">
        <ele>9.6</ele>
        <time>2011-05-01T13:40:52Z</time>
      </trkpt>
      <trkpt lat="59.4933569804" lon="17.6845119707">
        <ele>10.6</ele>
        <time>2011-05-01T13:40:55Z</time>
      </trkpt>
      <trkpt lat="59.4931909349" lon="17.6848379429">
        <ele>11.6</ele>
        <time>2011-05-01T13:40:58Z</time>
      </trkpt>
      <trkpt lat="59.4930209499" lon="17.6851469837">
        <ele>10.6</ele>
        <time>2011-05-01T13:41:01Z</time>
      </trkpt>
      <trkpt lat="59.4928419963" lon="17.6854609698">
        <ele>10.6</ele>
        <time>2011-05-01T13:41:04Z</time>
      </trkpt>
      <trkpt lat="59.4926579297" lon="17.6857659873">
        <ele>10.2</ele>
        <time>2011-05-01T13:41:07Z</time>
      </trkpt>
      <trkpt lat="59.4924749527" lon="17.6860599406">
        <ele>10.6</ele>
        <time>2011-05-01T13:41:10Z</time>
      </trkpt>
      <trkpt lat="59.4922879525" lon="17.6863279939">
        <ele>11</ele>
        <time>2011-05-01T13:41:13Z</time>
      </trkpt>
      <trkpt lat="59.4920929894" lon="17.6865589991">
        <ele>9.6</ele>
        <time>2011-05-01T13:41:16Z</time>
      </trkpt>
      <trkpt lat="59.4918859564" lon="17.6867739949">
        <ele>10.6</ele>
        <time>2011-05-01T13:41:19Z</time>
      </trkpt>
      <trkpt lat="59.4916779175" lon="17.6869579777">
        <ele>11.6</ele>
        <time>2011-05-01T13:41:22Z</time>
      </trkpt>
      <trkpt lat="59.4914769195" lon="17.6871209219">
        <ele>11</ele>
        <time>2011-05-01T13:41:25Z</time>
      </trkpt>
      <trkpt lat="59.49125899" lon="17.6872659288">
        <ele>10.6</ele>
        <time>2011-05-01T13:41:28Z</time>
      </trkpt>
      <trkpt lat="59.491045922" lon="17.6874199882">
        <ele>12</ele>
        <time>2011-05-01T13:41:31Z</time>
      </trkpt>
      <trkpt lat="59.4908489473" lon="17.6875829324">
        <ele>13</ele>
        <time>2011-05-01T13:41:34Z</time>
      </trkpt>
      <trkpt lat="59.4906629529" lon="17.6877439488">
        <ele>14</ele>
        <time>2011-05-01T13:41:37Z</time>
      </trkpt>
      <trkpt lat="59.4904849213" lon="17.6879159454">
        <ele>14.4</ele>
        <time>2011-05-01T13:41:40Z</time>
      </trkpt>
      <trkpt lat="59.490328934" lon="17.6880709268">
        <ele>15.4</ele>
        <time>2011-05-01T13:41:43Z</time>
      </trkpt>
      <trkpt lat="59.4901659898" lon="17.6882369723">
        <ele>15</ele>
        <time>2011-05-01T13:41:46Z</time>
      </trkpt>
      <trkpt lat="59.4899879582" lon="17.6884099748">
        <ele>15.4</ele>
        <time>2011-05-01T13:41:49Z</time>
      </trkpt>
      <trkpt lat="59.4898089208" lon="17.6885869168">
        <ele>15.4</ele>
        <time>2011-05-01T13:41:52Z</time>
      </trkpt>
      <trkpt lat="59.4896219205" lon="17.6887629367">
        <ele>15.4</ele>
        <time>2011-05-01T13:41:55Z</time>
      </trkpt>
      <trkpt lat="59.4894369319" lon="17.6889479253">
        <ele>15.8</ele>
        <time>2011-05-01T13:41:58Z</time>
      </trkpt>
      <trkpt lat="59.4892629236" lon="17.6891359314">
        <ele>16.4</ele>
        <time>2011-05-01T13:42:01Z</time>
      </trkpt>
      <trkpt lat="59.4890909269" lon="17.6893309783">
        <ele>16.4</ele>
        <time>2011-05-01T13:42:04Z</time>
      </trkpt>
      <trkpt lat="59.4889259711" lon="17.6895479858">
        <ele>16.4</ele>
        <time>2011-05-01T13:42:07Z</time>
      </trkpt>
      <trkpt lat="59.488768978" lon="17.6897849422">
        <ele>16.4</ele>
        <time>2011-05-01T13:42:10Z</time>
      </trkpt>
      <trkpt lat="59.4886169303" lon="17.690036986">
        <ele>16.8</ele>
        <time>2011-05-01T13:42:13Z</time>
      </trkpt>
      <trkpt lat="59.4884729292" lon="17.6902869344">
        <ele>16.4</ele>
        <time>2011-05-01T13:42:16Z</time>
      </trkpt>
      <trkpt lat="59.4883269165" lon="17.6905329432">
        <ele>17.8</ele>
        <time>2011-05-01T13:42:19Z</time>
      </trkpt>
      <trkpt lat="59.4881879445" lon="17.6907659601">
        <ele>17.8</ele>
        <time>2011-05-01T13:42:22Z</time>
      </trkpt>
      <trkpt lat="59.4880489726" lon="17.6910109632">
        <ele>17.8</ele>
        <time>2011-05-01T13:42:25Z</time>
      </trkpt>
      <trkpt lat="59.4879059773" lon="17.691256972">
        <ele>17.8</ele>
        <time>2011-05-01T13:42:28Z</time>
      </trkpt>
      <trkpt lat="59.4877689332" lon="17.6914899889">
        <ele>17.4</ele>
        <time>2011-05-01T13:42:31Z</time>
      </trkpt>
      <trkpt lat="59.4876429532" lon="17.6917099301">
        <ele>17.4</ele>
        <time>2011-05-01T13:42:34Z</time>
      </trkpt>
      <trkpt lat="59.4875139557" lon="17.6919229981">
        <ele>16.8</ele>
        <time>2011-05-01T13:42:37Z</time>
      </trkpt>
      <trkpt lat="59.4873739779" lon="17.6921649836">
        <ele>15.8</ele>
        <time>2011-05-01T13:42:40Z</time>
      </trkpt>
      <trkpt lat="59.4872169849" lon="17.6924419217">
        <ele>15</ele>
        <time>2011-05-01T13:42:43Z</time>
      </trkpt>
      <trkpt lat="59.487052951" lon="17.6927339472">
        <ele>14.4</ele>
        <time>2011-05-01T13:42:46Z</time>
      </trkpt>
      <trkpt lat="59.4868869893" lon="17.6930329297">
        <ele>15.4</ele>
        <time>2011-05-01T13:42:49Z</time>
      </trkpt>
      <trkpt lat="59.4867269788" lon="17.6933339238">
        <ele>15</ele>
        <time>2011-05-01T13:42:52Z</time>
      </trkpt>
      <trkpt lat="59.4865709916" lon="17.693633996">
        <ele>15.8</ele>
        <time>2011-05-01T13:42:55Z</time>
      </trkpt>
      <trkpt lat="59.4864159264" lon="17.6939399354">
        <ele>16.4</ele>
        <time>2011-05-01T13:42:58Z</time>
      </trkpt>
      <trkpt lat="59.4862829894" lon="17.694205977">
        <ele>17.4</ele>
        <time>2011-05-01T13:43:01Z</time>
      </trkpt>
      <trkpt lat="59.4861499686" lon="17.6944789756">
        <ele>18.4</ele>
        <time>2011-05-01T13:43:04Z</time>
      </trkpt>
      <trkpt lat="59.4860229827" lon="17.6947439276">
        <ele>19.8</ele>
        <time>2011-05-01T13:43:07Z</time>
      </trkpt>
      <trkpt lat="59.4858899619" lon="17.6950379647">
        <ele>20.8</ele>
        <time>2011-05-01T13:43:11Z</time>
      </trkpt>
      <trkpt lat="59.4857629761" lon="17.6953119691">
        <ele>22.2</ele>
        <time>2011-05-01T13:43:15Z</time>
      </trkpt>
      <trkpt lat="59.4856929872" lon="17.6954269689">
        <ele>22.6</ele>
        <time>2011-05-01T13:43:17Z</time>
      </trkpt>
      <trkpt lat="59.4856219925" lon="17.6955419686">
        <ele>23.6</ele>
        <time>2011-05-01T13:43:19Z</time>
      </trkpt>
      <trkpt lat="59.48548696" lon="17.6958259474">
        <ele>25</ele>
        <time>2011-05-01T13:43:24Z</time>
      </trkpt>
      <trkpt lat="59.4853979442" lon="17.6960359979">
        <ele>26</ele>
        <time>2011-05-01T13:43:28Z</time>
      </trkpt>
      <trkpt lat="59.4853079226" lon="17.6962459646">
        <ele>27.4</ele>
        <time>2011-05-01T13:43:32Z</time>
      </trkpt>
      <trkpt lat="59.4852209184" lon="17.6964409277">
        <ele>27.4</ele>
        <time>2011-05-01T13:43:36Z</time>
      </trkpt>
      <trkpt lat="59.4851299748" lon="17.6966469549">
        <ele>28.8</ele>
        <time>2011-05-01T13:43:40Z</time>
      </trkpt>
      <trkpt lat="59.4850389473" lon="17.6968449354">
        <ele>29.8</ele>
        <time>2011-05-01T13:43:44Z</time>
      </trkpt>
      <trkpt lat="59.4849569723" lon="17.6970439218">
        <ele>30.8</ele>
        <time>2011-05-01T13:43:48Z</time>
      </trkpt>
      <trkpt lat="59.484870974" lon="17.6972339395">
        <ele>31.8</ele>
        <time>2011-05-01T13:43:52Z</time>
      </trkpt>
      <trkpt lat="59.4847749174" lon="17.6974409726">
        <ele>32.8</ele>
        <time>2011-05-01T13:43:56Z</time>
      </trkpt>
      <trkpt lat="59.484687997" lon="17.6976449881">
        <ele>33.2</ele>
        <time>2011-05-01T13:44:00Z</time>
      </trkpt>
      <trkpt lat="59.4845859893" lon="17.6978709642">
        <ele>34.2</ele>
        <time>2011-05-01T13:44:04Z</time>
      </trkpt>
      <trkpt lat="59.4844789524" lon="17.6981009636">
        <ele>34.6</ele>
        <time>2011-05-01T13:44:08Z</time>
      </trkpt>
      <trkpt lat="59.4843739271" lon="17.6983399317">
        <ele>35.6</ele>
        <time>2011-05-01T13:44:12Z</time>
      </trkpt>
      <trkpt lat="59.4842679799" lon="17.6985909697">
        <ele>35.6</ele>
        <time>2011-05-01T13:44:16Z</time>
      </trkpt>
      <trkpt lat="59.4841449335" lon="17.6988509763">
        <ele>35.6</ele>
        <time>2011-05-01T13:44:20Z</time>
      </trkpt>
      <trkpt lat="59.4840189535" lon="17.6991319377">
        <ele>36.6</ele>
        <time>2011-05-01T13:44:24Z</time>
      </trkpt>
      <trkpt lat="59.4838869385" lon="17.6994219515">
        <ele>37</ele>
        <time>2011-05-01T13:44:28Z</time>
      </trkpt>
      <trkpt lat="59.4837559294" lon="17.699720934">
        <ele>36.6</ele>
        <time>2011-05-01T13:44:32Z</time>
      </trkpt>
      <trkpt lat="59.4836339727" lon="17.6999999676">
        <ele>36.6</ele>
        <time>2011-05-01T13:44:36Z</time>
      </trkpt>
      <trkpt lat="59.4834769797" lon="17.7003389318">
        <ele>34.2</ele>
        <time>2011-05-01T13:44:40Z</time>
      </trkpt>
      <trkpt lat="59.4833389297" lon="17.7006359864">
        <ele>34.2</ele>
        <time>2011-05-01T13:44:43Z</time>
      </trkpt>
      <trkpt lat="59.4831939228" lon="17.7009509783">
        <ele>34.6</ele>
        <time>2011-05-01T13:44:46Z</time>
      </trkpt>
      <trkpt lat="59.4830069225" lon="17.7013009228">
        <ele>33.2</ele>
        <time>2011-05-01T13:44:49Z</time>
      </trkpt>
      <trkpt lat="59.4828299806" lon="17.7016929444">
        <ele>32.8</ele>
        <time>2011-05-01T13:44:52Z</time>
      </trkpt>
      <trkpt lat="59.4826609176" lon="17.7020779252">
        <ele>30.8</ele>
        <time>2011-05-01T13:44:55Z</time>
      </trkpt>
      <trkpt lat="59.4824919384" lon="17.7024449687">
        <ele>29.8</ele>
        <time>2011-05-01T13:44:58Z</time>
      </trkpt>
      <trkpt lat="59.4823109731" lon="17.7028299496">
        <ele>29.4</ele>
        <time>2011-05-01T13:45:01Z</time>
      </trkpt>
      <trkpt lat="59.4821369648" lon="17.703222977">
        <ele>28.4</ele>
        <time>2011-05-01T13:45:04Z</time>
      </trkpt>
      <trkpt lat="59.4819719251" lon="17.703606952">
        <ele>28.4</ele>
        <time>2011-05-01T13:45:07Z</time>
      </trkpt>
      <trkpt lat="59.4818099868" lon="17.7040189225">
        <ele>27</ele>
        <time>2011-05-01T13:45:10Z</time>
      </trkpt>
      <trkpt lat="59.4816549215" lon="17.7044199966">
        <ele>27</ele>
        <time>2011-05-01T13:45:13Z</time>
      </trkpt>
      <trkpt lat="59.4814989343" lon="17.7048359904">
        <ele>26</ele>
        <time>2011-05-01T13:45:16Z</time>
      </trkpt>
      <trkpt lat="59.4813519996" lon="17.7052689996">
        <ele>25</ele>
        <time>2011-05-01T13:45:19Z</time>
      </trkpt>
      <trkpt lat="59.4812099263" lon="17.7056969795">
        <ele>25.6</ele>
        <time>2011-05-01T13:45:22Z</time>
      </trkpt>
      <trkpt lat="59.4810789172" lon="17.7061239537">
        <ele>24.6</ele>
        <time>2011-05-01T13:45:25Z</time>
      </trkpt>
      <trkpt lat="59.4809459802" lon="17.7065439709">
        <ele>24</ele>
        <time>2011-05-01T13:45:28Z</time>
      </trkpt>
      <trkpt lat="59.4808209222" lon="17.7069519181">
        <ele>23.6</ele>
        <time>2011-05-01T13:45:31Z</time>
      </trkpt>
      <trkpt lat="59.4806979597" lon="17.7073509805">
        <ele>24</ele>
        <time>2011-05-01T13:45:34Z</time>
      </trkpt>
      <trkpt lat="59.4805719797" lon="17.7077549882">
        <ele>24</ele>
        <time>2011-05-01T13:45:37Z</time>
      </trkpt>
      <trkpt lat="59.4804389589" lon="17.7081629355">
        <ele>24</ele>
        <time>2011-05-01T13:45:40Z</time>
      </trkpt>
      <trkpt lat="59.4803079497" lon="17.7085719723">
        <ele>24</ele>
        <time>2011-05-01T13:45:43Z</time>
      </trkpt>
      <trkpt lat="59.4801759347" lon="17.708995929">
        <ele>23.6</ele>
        <time>2011-05-01T13:45:46Z</time>
      </trkpt>
      <trkpt lat="59.4800469372" lon="17.7094089892">
        <ele>23.6</ele>
        <time>2011-05-01T13:45:49Z</time>
      </trkpt>
      <trkpt lat="59.4799229689" lon="17.7098089736">
        <ele>23.2</ele>
        <time>2011-05-01T13:45:52Z</time>
      </trkpt>
      <trkpt lat="59.4797939714" lon="17.7102359477">
        <ele>24</ele>
        <time>2011-05-01T13:45:55Z</time>
      </trkpt>
      <trkpt lat="59.4796819892" lon="17.7106229402">
        <ele>24</ele>
        <time>2011-05-01T13:45:58Z</time>
      </trkpt>
      <trkpt lat="59.4795689173" lon="17.7110319771">
        <ele>23.2</ele>
        <time>2011-05-01T13:46:01Z</time>
      </trkpt>
      <trkpt lat="59.4794729445" lon="17.7114309557">
        <ele>23.6</ele>
        <time>2011-05-01T13:46:04Z</time>
      </trkpt>
      <trkpt lat="59.479381917" lon="17.7118329518">
        <ele>23.2</ele>
        <time>2011-05-01T13:46:07Z</time>
      </trkpt>
      <trkpt lat="59.4792719465" lon="17.7122969739">
        <ele>22.2</ele>
        <time>2011-05-01T13:46:10Z</time>
      </trkpt>
      <trkpt lat="59.4791789912" lon="17.7127319947">
        <ele>22.2</ele>
        <time>2011-05-01T13:46:13Z</time>
      </trkpt>
      <trkpt lat="59.4791069906" lon="17.7131659258">
        <ele>22.2</ele>
        <time>2011-05-01T13:46:16Z</time>
      </trkpt>
      <trkpt lat="59.4790409412" lon="17.7136029582">
        <ele>22.6</ele>
        <time>2011-05-01T13:46:19Z</time>
      </trkpt>
      <trkpt lat="59.4789749756" lon="17.7140479535">
        <ele>21.6</ele>
        <time>2011-05-01T13:46:22Z</time>
      </trkpt>
      <trkpt lat="59.4789129496" lon="17.7144939546">
        <ele>20.8</ele>
        <time>2011-05-01T13:46:25Z</time>
      </trkpt>
      <trkpt lat="59.478853941" lon="17.7149299812">
        <ele>21.2</ele>
        <time>2011-05-01T13:46:28Z</time>
      </trkpt>
      <trkpt lat="59.4787929207" lon="17.7153539378">
        <ele>21.6</ele>
        <time>2011-05-01T13:46:31Z</time>
      </trkpt>
      <trkpt lat="59.4787469879" lon="17.7156229969">
        <ele>22.6</ele>
        <time>2011-05-01T13:46:33Z</time>
      </trkpt>
      <trkpt lat="59.4787019771" lon="17.7160349675">
        <ele>22.2</ele>
        <time>2011-05-01T13:46:36Z</time>
      </trkpt>
      <trkpt lat="59.4786639232" lon="17.7164459322">
        <ele>22.2</ele>
        <time>2011-05-01T13:46:39Z</time>
      </trkpt>
      <trkpt lat="59.4786259532" lon="17.7168539632">
        <ele>22.6</ele>
        <time>2011-05-01T13:46:42Z</time>
      </trkpt>
      <trkpt lat="59.4785789307" lon="17.7172499243">
        <ele>23.2</ele>
        <time>2011-05-01T13:46:45Z</time>
      </trkpt>
      <trkpt lat="59.4785359316" lon="17.7176409401">
        <ele>23.6</ele>
        <time>2011-05-01T13:46:48Z</time>
      </trkpt>
      <trkpt lat="59.4784949441" lon="17.7180349734">
        <ele>23.2</ele>
        <time>2011-05-01T13:46:51Z</time>
      </trkpt>
      <trkpt lat="59.4784669485" lon="17.7184449323">
        <ele>24</ele>
        <time>2011-05-01T13:46:54Z</time>
      </trkpt>
      <trkpt lat="59.4784459937" lon="17.7188649494">
        <ele>24.6</ele>
        <time>2011-05-01T13:46:57Z</time>
      </trkpt>
      <trkpt lat="59.478432918" lon="17.7192869782">
        <ele>24</ele>
        <time>2011-05-01T13:47:00Z</time>
      </trkpt>
      <trkpt lat="59.4784269668" lon="17.7197089233">
        <ele>23.6</ele>
        <time>2011-05-01T13:47:03Z</time>
      </trkpt>
      <trkpt lat="59.4784229435" lon="17.7201269288">
        <ele>23.2</ele>
        <time>2011-05-01T13:47:06Z</time>
      </trkpt>
      <trkpt lat="59.4784229435" lon="17.7205489576">
        <ele>23.2</ele>
        <time>2011-05-01T13:47:09Z</time>
      </trkpt>
      <trkpt lat="59.478425961" lon="17.7209739201">
        <ele>23.2</ele>
        <time>2011-05-01T13:47:12Z</time>
      </trkpt>
      <trkpt lat="59.4784309901" lon="17.721407935">
        <ele>23.2</ele>
        <time>2011-05-01T13:47:15Z</time>
      </trkpt>
      <trkpt lat="59.4784349296" lon="17.7218579594">
        <ele>22.2</ele>
        <time>2011-05-01T13:47:18Z</time>
      </trkpt>
      <trkpt lat="59.478432918" lon="17.7223209757">
        <ele>20.8</ele>
        <time>2011-05-01T13:47:21Z</time>
      </trkpt>
      <trkpt lat="59.4784379471" lon="17.7228169329">
        <ele>20.2</ele>
        <time>2011-05-01T13:47:24Z</time>
      </trkpt>
      <trkpt lat="59.4784459937" lon="17.7231639437">
        <ele>19.2</ele>
        <time>2011-05-01T13:47:26Z</time>
      </trkpt>
      <trkpt lat="59.4784539565" lon="17.7237019781">
        <ele>17.4</ele>
        <time>2011-05-01T13:47:29Z</time>
      </trkpt>
      <trkpt lat="59.4784629252" lon="17.7240699437">
        <ele>15.8</ele>
        <time>2011-05-01T13:47:31Z</time>
      </trkpt>
      <trkpt lat="59.478469966" lon="17.7246249933">
        <ele>15.8</ele>
        <time>2011-05-01T13:47:34Z</time>
      </trkpt>
      <trkpt lat="59.4784749951" lon="17.7249889355">
        <ele>14.4</ele>
        <time>2011-05-01T13:47:36Z</time>
      </trkpt>
      <trkpt lat="59.4784779288" lon="17.7255129721">
        <ele>13.4</ele>
        <time>2011-05-01T13:47:39Z</time>
      </trkpt>
      <trkpt lat="59.4784809463" lon="17.7260049898">
        <ele>14.4</ele>
        <time>2011-05-01T13:47:42Z</time>
      </trkpt>
      <trkpt lat="59.4784819521" lon="17.7261649165">
        <ele>14.4</ele>
        <time>2011-05-01T13:47:43Z</time>
      </trkpt>
      <trkpt lat="59.4784659427" lon="17.7266229875">
        <ele>15</ele>
        <time>2011-05-01T13:47:46Z</time>
      </trkpt>
      <trkpt lat="59.4784479216" lon="17.7272019256">
        <ele>14</ele>
        <time>2011-05-01T13:47:50Z</time>
      </trkpt>
      <trkpt lat="59.4784399588" lon="17.7276759222">
        <ele>13</ele>
        <time>2011-05-01T13:47:53Z</time>
      </trkpt>
      <trkpt lat="59.4784389529" lon="17.7281649224">
        <ele>10.6</ele>
        <time>2011-05-01T13:47:56Z</time>
      </trkpt>
      <trkpt lat="59.4784379471" lon="17.7283229213">
        <ele>10.6</ele>
        <time>2011-05-01T13:47:57Z</time>
      </trkpt>
      <trkpt lat="59.478343986" lon="17.7288129274">
        <ele>13</ele>
        <time>2011-05-01T13:48:01Z</time>
      </trkpt>
      <trkpt lat="59.4783329219" lon="17.728915941">
        <ele>13.4</ele>
        <time>2011-05-01T13:48:02Z</time>
      </trkpt>
      <trkpt lat="59.478330994" lon="17.7291139215">
        <ele>13</ele>
        <time>2011-05-01T13:48:04Z</time>
      </trkpt>
      <trkpt lat="59.4784489274" lon="17.7295039315">
        <ele>12</ele>
        <time>2011-05-01T13:48:09Z</time>
      </trkpt>
      <trkpt lat="59.4784739893" lon="17.7295639459">
        <ele>12.6</ele>
        <time>2011-05-01T13:48:10Z</time>
      </trkpt>
      <trkpt lat="59.4785839599" lon="17.7297479287">
        <ele>13</ele>
        <time>2011-05-01T13:48:15Z</time>
      </trkpt>
      <trkpt lat="59.4785769191" lon="17.7302209195">
        <ele>11.6</ele>
        <time>2011-05-01T13:48:20Z</time>
      </trkpt>
      <trkpt lat="59.4785739854" lon="17.7305659186">
        <ele>10.2</ele>
        <time>2011-05-01T13:48:23Z</time>
      </trkpt>
      <trkpt lat="59.4785609934" lon="17.7309679985">
        <ele>10.2</ele>
        <time>2011-05-01T13:48:26Z</time>
      </trkpt>
      <trkpt lat="59.4785469957" lon="17.7314019296">
        <ele>10.2</ele>
        <time>2011-05-01T13:48:29Z</time>
      </trkpt>
      <trkpt lat="59.4785249513" lon="17.7318539657">
        <ele>9.2</ele>
        <time>2011-05-01T13:48:32Z</time>
      </trkpt>
      <trkpt lat="59.4785029907" lon="17.7321639284">
        <ele>8.2</ele>
        <time>2011-05-01T13:48:34Z</time>
      </trkpt>
      <trkpt lat="59.478463931" lon="17.7326339856">
        <ele>7.2</ele>
        <time>2011-05-01T13:48:37Z</time>
      </trkpt>
      <trkpt lat="59.4783799443" lon="17.7334359661">
        <ele>9.6</ele>
        <time>2011-05-01T13:48:42Z</time>
      </trkpt>
      <trkpt lat="59.4783129729" lon="17.7339169197">
        <ele>10.2</ele>
        <time>2011-05-01T13:48:45Z</time>
      </trkpt>
      <trkpt lat="59.4782329258" lon="17.7344059199">
        <ele>9.2</ele>
        <time>2011-05-01T13:48:48Z</time>
      </trkpt>
      <trkpt lat="59.4781409763" lon="17.7349019609">
        <ele>8.2</ele>
        <time>2011-05-01T13:48:51Z</time>
      </trkpt>
      <trkpt lat="59.4780399743" lon="17.7353959903">
        <ele>7.2</ele>
        <time>2011-05-01T13:48:54Z</time>
      </trkpt>
      <trkpt lat="59.4779249746" lon="17.7358849905">
        <ele>6.2</ele>
        <time>2011-05-01T13:48:57Z</time>
      </trkpt>
      <trkpt lat="59.4777989946" lon="17.7363609988">
        <ele>5.4</ele>
        <time>2011-05-01T13:49:00Z</time>
      </trkpt>
      <trkpt lat="59.4776639622" lon="17.736818986">
        <ele>5.4</ele>
        <time>2011-05-01T13:49:03Z</time>
      </trkpt>
      <trkpt lat="59.4775289297" lon="17.7372669987">
        <ele>4.8</ele>
        <time>2011-05-01T13:49:06Z</time>
      </trkpt>
      <trkpt lat="59.4773929752" lon="17.7377019357">
        <ele>5.8</ele>
        <time>2011-05-01T13:49:09Z</time>
      </trkpt>
      <trkpt lat="59.4772549253" lon="17.7381279878">
        <ele>5.8</ele>
        <time>2011-05-01T13:49:12Z</time>
      </trkpt>
      <trkpt lat="59.4771209825" lon="17.7385449875">
        <ele>5.4</ele>
        <time>2011-05-01T13:49:15Z</time>
      </trkpt>
      <trkpt lat="59.4769929908" lon="17.7389439661">
        <ele>4.8</ele>
        <time>2011-05-01T13:49:18Z</time>
      </trkpt>
      <trkpt lat="59.4768679328" lon="17.7393479738">
        <ele>5.8</ele>
        <time>2011-05-01T13:49:21Z</time>
      </trkpt>
      <trkpt lat="59.4767499994" lon="17.7397489641">
        <ele>6.8</ele>
        <time>2011-05-01T13:49:24Z</time>
      </trkpt>
      <trkpt lat="59.4766399451" lon="17.740145931">
        <ele>6.2</ele>
        <time>2011-05-01T13:49:27Z</time>
      </trkpt>
      <trkpt lat="59.4765449781" lon="17.740522949">
        <ele>7.2</ele>
        <time>2011-05-01T13:49:30Z</time>
      </trkpt>
      <trkpt lat="59.4764599856" lon="17.7408819459">
        <ele>8.2</ele>
        <time>2011-05-01T13:49:33Z</time>
      </trkpt>
      <trkpt lat="59.476394942" lon="17.7412199881">
        <ele>10.2</ele>
        <time>2011-05-01T13:49:36Z</time>
      </trkpt>
      <trkpt lat="59.4763419684" lon="17.7415269334">
        <ele>11</ele>
        <time>2011-05-01T13:49:39Z</time>
      </trkpt>
      <trkpt lat="59.4762909226" lon="17.7418489661">
        <ele>12.6</ele>
        <time>2011-05-01T13:49:42Z</time>
      </trkpt>
      <trkpt lat="59.4762459956" lon="17.7421659697">
        <ele>13.4</ele>
        <time>2011-05-01T13:49:45Z</time>
      </trkpt>
      <trkpt lat="59.4762059301" lon="17.7424869966">
        <ele>13.4</ele>
        <time>2011-05-01T13:49:48Z</time>
      </trkpt>
      <trkpt lat="59.4761739951" lon="17.7427949477">
        <ele>14.4</ele>
        <time>2011-05-01T13:49:51Z</time>
      </trkpt>
      <trkpt lat="59.4761469215" lon="17.743094936">
        <ele>15</ele>
        <time>2011-05-01T13:49:54Z</time>
      </trkpt>
      <trkpt lat="59.4761249609" lon="17.7433979418">
        <ele>16.4</ele>
        <time>2011-05-01T13:49:57Z</time>
      </trkpt>
      <trkpt lat="59.4761049282" lon="17.7437049709">
        <ele>17.8</ele>
        <time>2011-05-01T13:50:00Z</time>
      </trkpt>
      <trkpt lat="59.4760919362" lon="17.744012922">
        <ele>17.8</ele>
        <time>2011-05-01T13:50:03Z</time>
      </trkpt>
      <trkpt lat="59.4760829676" lon="17.7443309315">
        <ele>16.4</ele>
        <time>2011-05-01T13:50:06Z</time>
      </trkpt>
      <trkpt lat="59.4760849793" lon="17.7446639445">
        <ele>18.4</ele>
        <time>2011-05-01T13:50:09Z</time>
      </trkpt>
      <trkpt lat="59.476105934" lon="17.7450099494">
        <ele>17.4</ele>
        <time>2011-05-01T13:50:12Z</time>
      </trkpt>
      <trkpt lat="59.4761439878" lon="17.7453529369">
        <ele>18.4</ele>
        <time>2011-05-01T13:50:15Z</time>
      </trkpt>
      <trkpt lat="59.4761899207" lon="17.7456929907">
        <ele>18.4</ele>
        <time>2011-05-01T13:50:18Z</time>
      </trkpt>
      <trkpt lat="59.4762429781" lon="17.7460359782">
        <ele>18.8</ele>
        <time>2011-05-01T13:50:21Z</time>
      </trkpt>
      <trkpt lat="59.4762989692" lon="17.746389946">
        <ele>19.2</ele>
        <time>2011-05-01T13:50:24Z</time>
      </trkpt>
      <trkpt lat="59.4763609953" lon="17.7467409801">
        <ele>19.2</ele>
        <time>2011-05-01T13:50:27Z</time>
      </trkpt>
      <trkpt lat="59.4764259551" lon="17.7470919304">
        <ele>20.2</ele>
        <time>2011-05-01T13:50:30Z</time>
      </trkpt>
      <trkpt lat="59.4764999673" lon="17.7474359237">
        <ele>19.8</ele>
        <time>2011-05-01T13:50:33Z</time>
      </trkpt>
      <trkpt lat="59.476577919" lon="17.7477689367">
        <ele>20.8</ele>
        <time>2011-05-01T13:50:36Z</time>
      </trkpt>
      <trkpt lat="59.476658972" lon="17.7480849344">
        <ele>20.8</ele>
        <time>2011-05-01T13:50:39Z</time>
      </trkpt>
      <trkpt lat="59.4767459761" lon="17.7483859286">
        <ele>22.2</ele>
        <time>2011-05-01T13:50:42Z</time>
      </trkpt>
      <trkpt lat="59.4768429548" lon="17.748659933">
        <ele>22.2</ele>
        <time>2011-05-01T13:50:45Z</time>
      </trkpt>
      <trkpt lat="59.4769429509" lon="17.7488899324">
        <ele>22.6</ele>
        <time>2011-05-01T13:50:48Z</time>
      </trkpt>
      <trkpt lat="59.4769759756" lon="17.7489659563">
        <ele>22.6</ele>
        <time>2011-05-01T13:50:49Z</time>
      </trkpt>
      <trkpt lat="59.4770649914" lon="17.7493449859">
        <ele>23.6</ele>
        <time>2011-05-01T13:50:53Z</time>
      </trkpt>
      <trkpt lat="59.4771699328" lon="17.7496089321">
        <ele>22.6</ele>
        <time>2011-05-01T13:50:56Z</time>
      </trkpt>
      <trkpt lat="59.4772609603" lon="17.7497629914">
        <ele>22.6</ele>
        <time>2011-05-01T13:50:58Z</time>
      </trkpt>
      <trkpt lat="59.4773849286" lon="17.7500629798">
        <ele>21.2</ele>
        <time>2011-05-01T13:51:01Z</time>
      </trkpt>
      <trkpt lat="59.4775029458" lon="17.7504299395">
        <ele>18.4</ele>
        <time>2011-05-01T13:51:04Z</time>
      </trkpt>
      <trkpt lat="59.477545945" lon="17.7505619545">
        <ele>18.4</ele>
        <time>2011-05-01T13:51:05Z</time>
      </trkpt>
      <trkpt lat="59.4776849169" lon="17.7509639505">
        <ele>16.8</ele>
        <time>2011-05-01T13:51:08Z</time>
      </trkpt>
      <trkpt lat="59.4778319355" lon="17.7513599955">
        <ele>15</ele>
        <time>2011-05-01T13:51:11Z</time>
      </trkpt>
      <trkpt lat="59.478004938" lon="17.7517289668">
        <ele>15.4</ele>
        <time>2011-05-01T13:51:14Z</time>
      </trkpt>
      <trkpt lat="59.4781569857" lon="17.7520489879">
        <ele>15.8</ele>
        <time>2011-05-01T13:51:17Z</time>
      </trkpt>
      <trkpt lat="59.4783299882" lon="17.7523829229">
        <ele>15</ele>
        <time>2011-05-01T13:51:20Z</time>
      </trkpt>
      <trkpt lat="59.4784829579" lon="17.7527319454">
        <ele>14.4</ele>
        <time>2011-05-01T13:51:23Z</time>
      </trkpt>
      <trkpt lat="59.4785299804" lon="17.7528509684">
        <ele>14.4</ele>
        <time>2011-05-01T13:51:24Z</time>
      </trkpt>
      <trkpt lat="59.4786659349" lon="17.7531969734">
        <ele>15.4</ele>
        <time>2011-05-01T13:51:27Z</time>
      </trkpt>
      <trkpt lat="59.4788019732" lon="17.7535269689">
        <ele>15.8</ele>
        <time>2011-05-01T13:51:30Z</time>
      </trkpt>
      <trkpt lat="59.4789319765" lon="17.7538539469">
        <ele>15.8</ele>
        <time>2011-05-01T13:51:33Z</time>
      </trkpt>
      <trkpt lat="59.4790599681" lon="17.7541829366">
        <ele>15.4</ele>
        <time>2011-05-01T13:51:36Z</time>
      </trkpt>
      <trkpt lat="59.4791849423" lon="17.7544939891">
        <ele>17.4</ele>
        <time>2011-05-01T13:51:39Z</time>
      </trkpt>
      <trkpt lat="59.4793039653" lon="17.7547789738">
        <ele>18.4</ele>
        <time>2011-05-01T13:51:42Z</time>
      </trkpt>
      <trkpt lat="59.4794149417" lon="17.755047949">
        <ele>18.8</ele>
        <time>2011-05-01T13:51:45Z</time>
      </trkpt>
      <trkpt lat="59.4795189612" lon="17.755305944">
        <ele>19.8</ele>
        <time>2011-05-01T13:51:48Z</time>
      </trkpt>
      <trkpt lat="59.4796239864" lon="17.7555539645">
        <ele>20.2</ele>
        <time>2011-05-01T13:51:51Z</time>
      </trkpt>
      <trkpt lat="59.479727922" lon="17.7557909209">
        <ele>20.8</ele>
        <time>2011-05-01T13:51:54Z</time>
      </trkpt>
      <trkpt lat="59.4797949772" lon="17.7559489198">
        <ele>22.2</ele>
        <time>2011-05-01T13:51:56Z</time>
      </trkpt>
      <trkpt lat="59.4798949733" lon="17.7561949287">
        <ele>22.2</ele>
        <time>2011-05-01T13:51:59Z</time>
      </trkpt>
      <trkpt lat="59.4799949694" lon="17.7564399317">
        <ele>22.6</ele>
        <time>2011-05-01T13:52:02Z</time>
      </trkpt>
      <trkpt lat="59.4800949655" lon="17.7566859405">
        <ele>22.2</ele>
        <time>2011-05-01T13:52:05Z</time>
      </trkpt>
      <trkpt lat="59.4801949617" lon="17.7569289319">
        <ele>23.6</ele>
        <time>2011-05-01T13:52:08Z</time>
      </trkpt>
      <trkpt lat="59.4802949578" lon="17.7571759466">
        <ele>24.6</ele>
        <time>2011-05-01T13:52:11Z</time>
      </trkpt>
      <trkpt lat="59.4803919364" lon="17.7574289963">
        <ele>24</ele>
        <time>2011-05-01T13:52:14Z</time>
      </trkpt>
      <trkpt lat="59.4804869872" lon="17.7576779388">
        <ele>23.6</ele>
        <time>2011-05-01T13:52:17Z</time>
      </trkpt>
      <trkpt lat="59.4805929344" lon="17.7579339221">
        <ele>22.6</ele>
        <time>2011-05-01T13:52:20Z</time>
      </trkpt>
      <trkpt lat="59.480701983" lon="17.758203987">
        <ele>25.6</ele>
        <time>2011-05-01T13:52:23Z</time>
      </trkpt>
      <trkpt lat="59.4808169827" lon="17.7584849484">
        <ele>23.2</ele>
        <time>2011-05-01T13:52:26Z</time>
      </trkpt>
      <trkpt lat="59.4809449743" lon="17.7587779798">
        <ele>22.6</ele>
        <time>2011-05-01T13:52:29Z</time>
      </trkpt>
      <trkpt lat="59.4811009616" lon="17.7590809856">
        <ele>20.8</ele>
        <time>2011-05-01T13:52:32Z</time>
      </trkpt>
      <trkpt lat="59.4812909793" lon="17.7593649644">
        <ele>18.4</ele>
        <time>2011-05-01T13:52:35Z</time>
      </trkpt>
      <trkpt lat="59.4815139379" lon="17.7596079558">
        <ele>14.4</ele>
        <time>2011-05-01T13:52:38Z</time>
      </trkpt>
      <trkpt lat="59.4817659818" lon="17.7597969677">
        <ele>14</ele>
        <time>2011-05-01T13:52:41Z</time>
      </trkpt>
      <trkpt lat="59.4820449315" lon="17.759933928">
        <ele>13</ele>
        <time>2011-05-01T13:52:44Z</time>
      </trkpt>
      <trkpt lat="59.4822429959" lon="17.7600029949">
        <ele>11.6</ele>
        <time>2011-05-01T13:52:46Z</time>
      </trkpt>
      <trkpt lat="59.4825409725" lon="17.7601039968">
        <ele>10.6</ele>
        <time>2011-05-01T13:52:49Z</time>
      </trkpt>
      <trkpt lat="59.4829059206" lon="17.7604239341">
        <ele>8.2</ele>
        <time>2011-05-01T13:52:53Z</time>
      </trkpt>
      <trkpt lat="59.483134998" lon="17.7607839368">
        <ele>9.6</ele>
        <time>2011-05-01T13:52:56Z</time>
      </trkpt>
      <trkpt lat="59.4833159633" lon="17.7612149343">
        <ele>9.2</ele>
        <time>2011-05-01T13:52:59Z</time>
      </trkpt>
      <trkpt lat="59.4833659194" lon="17.7613709215">
        <ele>9.6</ele>
        <time>2011-05-01T13:53:00Z</time>
      </trkpt>
      <trkpt lat="59.4835229963" lon="17.7620229498">
        <ele>8.2</ele>
        <time>2011-05-01T13:53:04Z</time>
      </trkpt>
      <trkpt lat="59.483549986" lon="17.7621849719">
        <ele>9.2</ele>
        <time>2011-05-01T13:53:05Z</time>
      </trkpt>
      <trkpt lat="59.4835849386" lon="17.7628259361">
        <ele>11.6</ele>
        <time>2011-05-01T13:53:09Z</time>
      </trkpt>
      <trkpt lat="59.4835769758" lon="17.7629759721">
        <ele>12</ele>
        <time>2011-05-01T13:53:10Z</time>
      </trkpt>
      <trkpt lat="59.4835449569" lon="17.7632769663">
        <ele>13</ele>
        <time>2011-05-01T13:53:12Z</time>
      </trkpt>
      <trkpt lat="59.4835039694" lon="17.7635379788">
        <ele>14</ele>
        <time>2011-05-01T13:53:14Z</time>
      </trkpt>
      <trkpt lat="59.4834199827" lon="17.763951961">
        <ele>16.4</ele>
        <time>2011-05-01T13:53:18Z</time>
      </trkpt>
      <trkpt lat="59.4834059849" lon="17.7640389651">
        <ele>16.4</ele>
        <time>2011-05-01T13:53:19Z</time>
      </trkpt>
      <trkpt lat="59.4833639916" lon="17.7643629257">
        <ele>17.8</ele>
        <time>2011-05-01T13:53:23Z</time>
      </trkpt>
      <trkpt lat="59.4833249319" lon="17.7646709606">
        <ele>18.8</ele>
        <time>2011-05-01T13:53:27Z</time>
      </trkpt>
      <trkpt lat="59.4832879677" lon="17.7649679314">
        <ele>19.8</ele>
        <time>2011-05-01T13:53:31Z</time>
      </trkpt>
      <trkpt lat="59.4832519256" lon="17.7652699314">
        <ele>20.2</ele>
        <time>2011-05-01T13:53:35Z</time>
      </trkpt>
      <trkpt lat="59.4832119439" lon="17.7655659802">
        <ele>22.2</ele>
        <time>2011-05-01T13:53:39Z</time>
      </trkpt>
      <trkpt lat="59.4832019694" lon="17.7656459436">
        <ele>21.6</ele>
        <time>2011-05-01T13:53:40Z</time>
      </trkpt>
      <trkpt lat="59.4831439666" lon="17.7660329361">
        <ele>23.2</ele>
        <time>2011-05-01T13:53:45Z</time>
      </trkpt>
      <trkpt lat="59.4831189886" lon="17.7662629355">
        <ele>24.6</ele>
        <time>2011-05-01T13:53:48Z</time>
      </trkpt>
      <trkpt lat="59.4830859639" lon="17.7665699646">
        <ele>25.6</ele>
        <time>2011-05-01T13:53:52Z</time>
      </trkpt>
      <trkpt lat="59.4830459822" lon="17.766881939">
        <ele>26.4</ele>
        <time>2011-05-01T13:53:56Z</time>
      </trkpt>
      <trkpt lat="59.4830079284" lon="17.7671869565">
        <ele>27.4</ele>
        <time>2011-05-01T13:54:00Z</time>
      </trkpt>
      <trkpt lat="59.4829679467" lon="17.7674829215">
        <ele>28.4</ele>
        <time>2011-05-01T13:54:04Z</time>
      </trkpt>
      <trkpt lat="59.4829289708" lon="17.7677719295">
        <ele>29.4</ele>
        <time>2011-05-01T13:54:08Z</time>
      </trkpt>
      <trkpt lat="59.4828949403" lon="17.7680679783">
        <ele>30.4</ele>
        <time>2011-05-01T13:54:12Z</time>
      </trkpt>
      <trkpt lat="59.4828569703" lon="17.7683709841">
        <ele>30.4</ele>
        <time>2011-05-01T13:54:16Z</time>
      </trkpt>
      <trkpt lat="59.4828169886" lon="17.7686779294">
        <ele>32.8</ele>
        <time>2011-05-01T13:54:20Z</time>
      </trkpt>
      <trkpt lat="59.4827789348" lon="17.7689829469">
        <ele>33.6</ele>
        <time>2011-05-01T13:54:24Z</time>
      </trkpt>
      <trkpt lat="59.4827419706" lon="17.7692949213">
        <ele>34.2</ele>
        <time>2011-05-01T13:54:28Z</time>
      </trkpt>
      <trkpt lat="59.4826989714" lon="17.7696049679">
        <ele>35.2</ele>
        <time>2011-05-01T13:54:32Z</time>
      </trkpt>
      <trkpt lat="59.4826579839" lon="17.7699209657">
        <ele>36</ele>
        <time>2011-05-01T13:54:36Z</time>
      </trkpt>
      <trkpt lat="59.4826179184" lon="17.7702419925">
        <ele>36.6</ele>
        <time>2011-05-01T13:54:40Z</time>
      </trkpt>
      <trkpt lat="59.4825769309" lon="17.7705599181">
        <ele>35.2</ele>
        <time>2011-05-01T13:54:44Z</time>
      </trkpt>
      <trkpt lat="59.4825349376" lon="17.7708949428">
        <ele>36.6</ele>
        <time>2011-05-01T13:54:48Z</time>
      </trkpt>
      <trkpt lat="59.4824899267" lon="17.7712819353">
        <ele>36.6</ele>
        <time>2011-05-01T13:54:52Z</time>
      </trkpt>
      <trkpt lat="59.4824419823" lon="17.7716699336">
        <ele>38</ele>
        <time>2011-05-01T13:54:56Z</time>
      </trkpt>
      <trkpt lat="59.4823999889" lon="17.7719849255">
        <ele>37.6</ele>
        <time>2011-05-01T13:54:59Z</time>
      </trkpt>
      <trkpt lat="59.4823579956" lon="17.7722969837">
        <ele>38</ele>
        <time>2011-05-01T13:55:02Z</time>
      </trkpt>
      <trkpt lat="59.4823189359" lon="17.772616921">
        <ele>38.4</ele>
        <time>2011-05-01T13:55:05Z</time>
      </trkpt>
      <trkpt lat="59.4822799601" lon="17.7729469165">
        <ele>39</ele>
        <time>2011-05-01T13:55:08Z</time>
      </trkpt>
      <trkpt lat="59.4822389726" lon="17.7732749842">
        <ele>39</ele>
        <time>2011-05-01T13:55:11Z</time>
      </trkpt>
      <trkpt lat="59.4821979851" lon="17.7736029681">
        <ele>39.4</ele>
        <time>2011-05-01T13:55:14Z</time>
      </trkpt>
      <trkpt lat="59.4821579196" lon="17.7739469614">
        <ele>38</ele>
        <time>2011-05-01T13:55:17Z</time>
      </trkpt>
      <trkpt lat="59.4821149204" lon="17.7742969897">
        <ele>38</ele>
        <time>2011-05-01T13:55:20Z</time>
      </trkpt>
      <trkpt lat="59.4820689876" lon="17.7746559866">
        <ele>37</ele>
        <time>2011-05-01T13:55:23Z</time>
      </trkpt>
      <trkpt lat="59.4820169359" lon="17.7750509419">
        <ele>35.6</ele>
        <time>2011-05-01T13:55:26Z</time>
      </trkpt>
      <trkpt lat="59.4819639623" lon="17.7754779998">
        <ele>35.6</ele>
        <time>2011-05-01T13:55:29Z</time>
      </trkpt>
      <trkpt lat="59.4819009304" lon="17.7759309579">
        <ele>35.6</ele>
        <time>2011-05-01T13:55:32Z</time>
      </trkpt>
      <trkpt lat="59.4818269182" lon="17.7764009312">
        <ele>33.6</ele>
        <time>2011-05-01T13:55:35Z</time>
      </trkpt>
      <trkpt lat="59.4817329571" lon="17.7768859919">
        <ele>32.8</ele>
        <time>2011-05-01T13:55:38Z</time>
      </trkpt>
      <trkpt lat="59.4816179574" lon="17.7773909178">
        <ele>31.2</ele>
        <time>2011-05-01T13:55:41Z</time>
      </trkpt>
      <trkpt lat="59.4815339707" lon="17.7777419519">
        <ele>30.4</ele>
        <time>2011-05-01T13:55:43Z</time>
      </trkpt>
      <trkpt lat="59.4814039674" lon="17.7782829199">
        <ele>29.4</ele>
        <time>2011-05-01T13:55:46Z</time>
      </trkpt>
      <trkpt lat="59.4813149516" lon="17.778646946">
        <ele>28</ele>
        <time>2011-05-01T13:55:48Z</time>
      </trkpt>
      <trkpt lat="59.4812269416" lon="17.7790139895">
        <ele>27</ele>
        <time>2011-05-01T13:55:50Z</time>
      </trkpt>
      <trkpt lat="59.4810909871" lon="17.7795739844">
        <ele>25</ele>
        <time>2011-05-01T13:55:53Z</time>
      </trkpt>
      <trkpt lat="59.4809529372" lon="17.780148983">
        <ele>23.2</ele>
        <time>2011-05-01T13:55:56Z</time>
      </trkpt>
      <trkpt lat="59.4809069205" lon="17.7803449519">
        <ele>23.2</ele>
        <time>2011-05-01T13:55:57Z</time>
      </trkpt>
      <trkpt lat="59.4808129594" lon="17.7807459421">
        <ele>22.6</ele>
        <time>2011-05-01T13:55:59Z</time>
      </trkpt>
      <trkpt lat="59.4807169866" lon="17.7811519615">
        <ele>20.2</ele>
        <time>2011-05-01T13:56:01Z</time>
      </trkpt>
      <trkpt lat="59.4805709738" lon="17.7817369346">
        <ele>21.2</ele>
        <time>2011-05-01T13:56:04Z</time>
      </trkpt>
      <trkpt lat="59.4804269727" lon="17.7822919842">
        <ele>20.8</ele>
        <time>2011-05-01T13:56:07Z</time>
      </trkpt>
      <trkpt lat="59.4802689739" lon="17.7828139253">
        <ele>19.8</ele>
        <time>2011-05-01T13:56:10Z</time>
      </trkpt>
      <trkpt lat="59.4800939597" lon="17.7832979802">
        <ele>18.8</ele>
        <time>2011-05-01T13:56:13Z</time>
      </trkpt>
      <trkpt lat="59.4799649622" lon="17.7836089488">
        <ele>18.4</ele>
        <time>2011-05-01T13:56:15Z</time>
      </trkpt>
      <trkpt lat="59.4797559176" lon="17.7840509266">
        <ele>15.8</ele>
        <time>2011-05-01T13:56:18Z</time>
      </trkpt>
      <trkpt lat="59.4796789717" lon="17.7841929998">
        <ele>15.8</ele>
        <time>2011-05-01T13:56:19Z</time>
      </trkpt>
      <trkpt lat="59.479431957" lon="17.7845939901">
        <ele>15</ele>
        <time>2011-05-01T13:56:22Z</time>
      </trkpt>
      <trkpt lat="59.479135992" lon="17.7849489637">
        <ele>14</ele>
        <time>2011-05-01T13:56:25Z</time>
      </trkpt>
      <trkpt lat="59.4789359998" lon="17.7851499617">
        <ele>12.6</ele>
        <time>2011-05-01T13:56:27Z</time>
      </trkpt>
      <trkpt lat="59.4787159748" lon="17.7853549831">
        <ele>11</ele>
        <time>2011-05-01T13:56:29Z</time>
      </trkpt>
      <trkpt lat="59.4784909207" lon="17.7855359484">
        <ele>10.6</ele>
        <time>2011-05-01T13:56:31Z</time>
      </trkpt>
      <trkpt lat="59.4782659505" lon="17.7856889181">
        <ele>9.6</ele>
        <time>2011-05-01T13:56:33Z</time>
      </trkpt>
      <trkpt lat="59.478048943" lon="17.7858129703">
        <ele>9.6</ele>
        <time>2011-05-01T13:56:35Z</time>
      </trkpt>
      <trkpt lat="59.4777219649" lon="17.7859599888">
        <ele>10.2</ele>
        <time>2011-05-01T13:56:38Z</time>
      </trkpt>
      <trkpt lat="59.4774969947" lon="17.7860369347">
        <ele>9.6</ele>
        <time>2011-05-01T13:56:40Z</time>
      </trkpt>
      <trkpt lat="59.4772699289" lon="17.7860999666">
        <ele>9.6</ele>
        <time>2011-05-01T13:56:42Z</time>
      </trkpt>
      <trkpt lat="59.4770389237" lon="17.7861659322">
        <ele>10.2</ele>
        <time>2011-05-01T13:56:44Z</time>
      </trkpt>
      <trkpt lat="59.4768069964" lon="17.7862359211">
        <ele>9.6</ele>
        <time>2011-05-01T13:56:46Z</time>
      </trkpt>
      <trkpt lat="59.476577919" lon="17.7863019705">
        <ele>10.6</ele>
        <time>2011-05-01T13:56:48Z</time>
      </trkpt>
      <trkpt lat="59.4763479196" lon="17.7863659244">
        <ele>12</ele>
        <time>2011-05-01T13:56:50Z</time>
      </trkpt>
      <trkpt lat="59.4762329198" lon="17.7863969374">
        <ele>12</ele>
        <time>2011-05-01T13:56:51Z</time>
      </trkpt>
      <trkpt lat="59.4760029204" lon="17.7864639927">
        <ele>12.6</ele>
        <time>2011-05-01T13:56:53Z</time>
      </trkpt>
      <trkpt lat="59.4757739268" lon="17.7865399327">
        <ele>12.6</ele>
        <time>2011-05-01T13:56:55Z</time>
      </trkpt>
      <trkpt lat="59.4755469449" lon="17.7866219915">
        <ele>11</ele>
        <time>2011-05-01T13:56:57Z</time>
      </trkpt>
      <trkpt lat="59.4752159435" lon="17.7867499832">
        <ele>10.2</ele>
        <time>2011-05-01T13:57:00Z</time>
      </trkpt>
      <trkpt lat="59.474891983" lon="17.7869009413">
        <ele>10.6</ele>
        <time>2011-05-01T13:57:03Z</time>
      </trkpt>
      <trkpt lat="59.474589983" lon="17.7870759554">
        <ele>10.6</ele>
        <time>2011-05-01T13:57:06Z</time>
      </trkpt>
      <trkpt lat="59.4743199181" lon="17.7872889396">
        <ele>12.6</ele>
        <time>2011-05-01T13:57:09Z</time>
      </trkpt>
      <trkpt lat="59.4740849733" lon="17.7875149995">
        <ele>13.4</ele>
        <time>2011-05-01T13:57:12Z</time>
      </trkpt>
      <trkpt lat="59.4738909323" lon="17.7877489384">
        <ele>15.4</ele>
        <time>2011-05-01T13:57:15Z</time>
      </trkpt>
      <trkpt lat="59.4737799559" lon="17.7879189234">
        <ele>16.4</ele>
        <time>2011-05-01T13:57:17Z</time>
      </trkpt>
      <trkpt lat="59.4736319315" lon="17.7883279603">
        <ele>17.4</ele>
        <time>2011-05-01T13:57:21Z</time>
      </trkpt>
      <trkpt lat="59.4736069534" lon="17.7884519286">
        <ele>17.4</ele>
        <time>2011-05-01T13:57:22Z</time>
      </trkpt>
      <trkpt lat="59.4735069573" lon="17.7890089899">
        <ele>16.4</ele>
        <time>2011-05-01T13:57:26Z</time>
      </trkpt>
      <trkpt lat="59.4734089728" lon="17.7894829866">
        <ele>14.4</ele>
        <time>2011-05-01T13:57:29Z</time>
      </trkpt>
      <trkpt lat="59.4733659737" lon="17.7896489482">
        <ele>14</ele>
        <time>2011-05-01T13:57:30Z</time>
      </trkpt>
      <trkpt lat="59.473213926" lon="17.7901569754">
        <ele>12</ele>
        <time>2011-05-01T13:57:33Z</time>
      </trkpt>
      <trkpt lat="59.4730589446" lon="17.7906909864">
        <ele>9.6</ele>
        <time>2011-05-01T13:57:36Z</time>
      </trkpt>
      <trkpt lat="59.4729279354" lon="17.79129792">
        <ele>7.2</ele>
        <time>2011-05-01T13:57:39Z</time>
      </trkpt>
      <trkpt lat="59.4728599582" lon="17.791731935">
        <ele>7.2</ele>
        <time>2011-05-01T13:57:41Z</time>
      </trkpt>
      <trkpt lat="59.4727669191" lon="17.7923549619">
        <ele>7.2</ele>
        <time>2011-05-01T13:57:44Z</time>
      </trkpt>
      <trkpt lat="59.4726729579" lon="17.7929369174">
        <ele>5.8</ele>
        <time>2011-05-01T13:57:47Z</time>
      </trkpt>
      <trkpt lat="59.4725759793" lon="17.7935029473">
        <ele>5.4</ele>
        <time>2011-05-01T13:57:50Z</time>
      </trkpt>
      <trkpt lat="59.4724709541" lon="17.7940529678">
        <ele>8.2</ele>
        <time>2011-05-01T13:57:53Z</time>
      </trkpt>
      <trkpt lat="59.4724289607" lon="17.7942309994">
        <ele>8.6</ele>
        <time>2011-05-01T13:57:54Z</time>
      </trkpt>
      <trkpt lat="59.4721689541" lon="17.7947909944">
        <ele>8.2</ele>
        <time>2011-05-01T13:57:58Z</time>
      </trkpt>
      <trkpt lat="59.4720879849" lon="17.794874981">
        <ele>8.6</ele>
        <time>2011-05-01T13:57:59Z</time>
      </trkpt>
      <trkpt lat="59.4717809558" lon="17.7950919885">
        <ele>7.8</ele>
        <time>2011-05-01T13:58:03Z</time>
      </trkpt>
      <trkpt lat="59.4715709891" lon="17.7952559385">
        <ele>9.6</ele>
        <time>2011-05-01T13:58:06Z</time>
      </trkpt>
      <trkpt lat="59.4713739306" lon="17.7954649832">
        <ele>9.6</ele>
        <time>2011-05-01T13:58:09Z</time>
      </trkpt>
      <trkpt lat="59.4711839966" lon="17.7956759557">
        <ele>9.6</ele>
        <time>2011-05-01T13:58:12Z</time>
      </trkpt>
      <trkpt lat="59.4709909614" lon="17.7958949748">
        <ele>10.6</ele>
        <time>2011-05-01T13:58:15Z</time>
      </trkpt>
      <trkpt lat="59.4707779773" lon="17.7960819751">
        <ele>9.6</ele>
        <time>2011-05-01T13:58:18Z</time>
      </trkpt>
      <trkpt lat="59.4705509953" lon="17.7962419856">
        <ele>10.2</ele>
        <time>2011-05-01T13:58:21Z</time>
      </trkpt>
      <trkpt lat="59.470326947" lon="17.7964129765">
        <ele>10.2</ele>
        <time>2011-05-01T13:58:24Z</time>
      </trkpt>
      <trkpt lat="59.4701169804" lon="17.7966259606">
        <ele>10.6</ele>
        <time>2011-05-01T13:58:27Z</time>
      </trkpt>
      <trkpt lat="59.4699189998" lon="17.7968669403">
        <ele>10.6</ele>
        <time>2011-05-01T13:58:30Z</time>
      </trkpt>
      <trkpt lat="59.4697349332" lon="17.7970969398">
        <ele>11</ele>
        <time>2011-05-01T13:58:33Z</time>
      </trkpt>
      <trkpt lat="59.469547933" lon="17.7973229997">
        <ele>10.6</ele>
        <time>2011-05-01T13:58:36Z</time>
      </trkpt>
      <trkpt lat="59.4693499524" lon="17.7975569386">
        <ele>10.6</ele>
        <time>2011-05-01T13:58:39Z</time>
      </trkpt>
      <trkpt lat="59.4691469427" lon="17.7978349663">
        <ele>10.2</ele>
        <time>2011-05-01T13:58:42Z</time>
      </trkpt>
      <trkpt lat="59.4689389877" lon="17.7983609308">
        <ele>8.6</ele>
        <time>2011-05-01T13:58:46Z</time>
      </trkpt>
      <trkpt lat="59.4688769616" lon="17.798855966">
        <ele>6.8</ele>
        <time>2011-05-01T13:58:49Z</time>
      </trkpt>
      <trkpt lat="59.4689209666" lon="17.7993939165">
        <ele>6.8</ele>
        <time>2011-05-01T13:58:52Z</time>
      </trkpt>
      <trkpt lat="59.4690559991" lon="17.799823992">
        <ele>5.8</ele>
        <time>2011-05-01T13:58:55Z</time>
      </trkpt>
      <trkpt lat="59.4691169355" lon="17.7999459486">
        <ele>5.8</ele>
        <time>2011-05-01T13:58:56Z</time>
      </trkpt>
      <trkpt lat="59.469232941" lon="17.8001769539">
        <ele>4.4</ele>
        <time>2011-05-01T13:58:58Z</time>
      </trkpt>
      <trkpt lat="59.4693959691" lon="17.80049094">
        <ele>6.8</ele>
        <time>2011-05-01T13:59:01Z</time>
      </trkpt>
      <trkpt lat="59.4696629327" lon="17.8010449838">
        <ele>8.2</ele>
        <time>2011-05-01T13:59:07Z</time>
      </trkpt>
      <trkpt lat="59.4698209316" lon="17.8014049865">
        <ele>9.2</ele>
        <time>2011-05-01T13:59:11Z</time>
      </trkpt>
      <trkpt lat="59.4698559679" lon="17.8014869615">
        <ele>9.6</ele>
        <time>2011-05-01T13:59:12Z</time>
      </trkpt>
      <trkpt lat="59.4699509349" lon="17.8017249238">
        <ele>10.6</ele>
        <time>2011-05-01T13:59:15Z</time>
      </trkpt>
      <trkpt lat="59.4700329937" lon="17.8021719307">
        <ele>11.6</ele>
        <time>2011-05-01T13:59:20Z</time>
      </trkpt>
      <trkpt lat="59.4700489193" lon="17.8023319412">
        <ele>13</ele>
        <time>2011-05-01T13:59:22Z</time>
      </trkpt>
      <trkpt lat="59.4700579718" lon="17.8027829714">
        <ele>14</ele>
        <time>2011-05-01T13:59:27Z</time>
      </trkpt>
      <trkpt lat="59.4700089376" lon="17.8031649347">
        <ele>15.8</ele>
        <time>2011-05-01T13:59:31Z</time>
      </trkpt>
      <trkpt lat="59.4699349254" lon="17.8035359178">
        <ele>16.8</ele>
        <time>2011-05-01T13:59:35Z</time>
      </trkpt>
      <trkpt lat="59.4698599912" lon="17.8038869519">
        <ele>17.4</ele>
        <time>2011-05-01T13:59:39Z</time>
      </trkpt>
      <trkpt lat="59.4697849732" lon="17.8042119183">
        <ele>18.4</ele>
        <time>2011-05-01T13:59:43Z</time>
      </trkpt>
      <trkpt lat="59.4697129726" lon="17.8045179415">
        <ele>19.2</ele>
        <time>2011-05-01T13:59:47Z</time>
      </trkpt>
      <trkpt lat="59.4696389604" lon="17.8048209473">
        <ele>21.2</ele>
        <time>2011-05-01T13:59:51Z</time>
      </trkpt>
      <trkpt lat="59.4695669599" lon="17.8051239531">
        <ele>21.6</ele>
        <time>2011-05-01T13:59:55Z</time>
      </trkpt>
      <trkpt lat="59.4695319235" lon="17.8052709717">
        <ele>23.2</ele>
        <time>2011-05-01T13:59:57Z</time>
      </trkpt>
      <trkpt lat="59.4694559835" lon="17.8055759892">
        <ele>24</ele>
        <time>2011-05-01T14:00:01Z</time>
      </trkpt>
      <trkpt lat="59.4693809655" lon="17.80587296">
        <ele>25.6</ele>
        <time>2011-05-01T14:00:05Z</time>
      </trkpt>
      <trkpt lat="59.4693109766" lon="17.8061649855">
        <ele>26.4</ele>
        <time>2011-05-01T14:00:09Z</time>
      </trkpt>
      <trkpt lat="59.4692489505" lon="17.8064409178">
        <ele>27.4</ele>
        <time>2011-05-01T14:00:13Z</time>
      </trkpt>
      <trkpt lat="59.469194971" lon="17.8067129944">
        <ele>28</ele>
        <time>2011-05-01T14:00:17Z</time>
      </trkpt>
      <trkpt lat="59.4691409916" lon="17.8069979791">
        <ele>27.4</ele>
        <time>2011-05-01T14:00:21Z</time>
      </trkpt>
      <trkpt lat="59.4690919574" lon="17.8073009849">
        <ele>28</ele>
        <time>2011-05-01T14:00:25Z</time>
      </trkpt>
      <trkpt lat="59.4690469466" lon="17.8076219279">
        <ele>28.8</ele>
        <time>2011-05-01T14:00:29Z</time>
      </trkpt>
      <trkpt lat="59.4690079708" lon="17.8079649992">
        <ele>29.4</ele>
        <time>2011-05-01T14:00:33Z</time>
      </trkpt>
      <trkpt lat="59.4689589366" lon="17.8083419334">
        <ele>28.8</ele>
        <time>2011-05-01T14:00:37Z</time>
      </trkpt>
      <trkpt lat="59.4689249899" lon="17.8086349647">
        <ele>29.8</ele>
        <time>2011-05-01T14:00:40Z</time>
      </trkpt>
      <trkpt lat="59.4688709266" lon="17.8089859989">
        <ele>29.4</ele>
        <time>2011-05-01T14:00:44Z</time>
      </trkpt>
      <trkpt lat="59.4687649794" lon="17.8093039244">
        <ele>30.4</ele>
        <time>2011-05-01T14:00:49Z</time>
      </trkpt>
      <trkpt lat="59.4686669949" lon="17.8094019927">
        <ele>30.8</ele>
        <time>2011-05-01T14:00:54Z</time>
      </trkpt>
      <trkpt lat="59.46866096" lon="17.8093989752">
        <ele>30.8</ele>
        <time>2011-05-01T14:00:55Z</time>
      </trkpt>
      <trkpt lat="59.468647968" lon="17.8093579877">
        <ele>31.2</ele>
        <time>2011-05-01T14:01:20Z</time>
      </trkpt>
      <trkpt lat="59.4686459564" lon="17.8093499411">
        <ele>31.2</ele>
        <time>2011-05-01T14:01:21Z</time>
      </trkpt>
      <trkpt lat="59.4686379936" lon="17.8093549702">
        <ele>31.2</ele>
        <time>2011-05-01T14:01:24Z</time>
      </trkpt>
      <trkpt lat="59.4685939886" lon="17.8093709797">
        <ele>30.8</ele>
        <time>2011-05-01T14:01:28Z</time>
      </trkpt>
      <trkpt lat="59.4685819186" lon="17.8093739972">
        <ele>30.8</ele>
        <time>2011-05-01T14:01:30Z</time>
      </trkpt>
      <trkpt lat="59.4685639814" lon="17.8093639389">
        <ele>31.2</ele>
        <time>2011-05-01T14:02:34Z</time>
      </trkpt>
      <trkpt lat="59.4684809167" lon="17.8093709797">
        <ele>31.2</ele>
        <time>2011-05-01T14:02:40Z</time>
      </trkpt>
      <trkpt lat="59.4683359936" lon="17.8093369491">
        <ele>31.2</ele>
        <time>2011-05-01T14:02:45Z</time>
      </trkpt>
      <trkpt lat="59.4681719597" lon="17.8092749231">
        <ele>31.8</ele>
        <time>2011-05-01T14:02:49Z</time>
      </trkpt>
      <trkpt lat="59.4680219237" lon="17.8092169203">
        <ele>31.2</ele>
        <time>2011-05-01T14:02:52Z</time>
      </trkpt>
      <trkpt lat="59.4678449817" lon="17.8091759328">
        <ele>31.8</ele>
        <time>2011-05-01T14:02:55Z</time>
      </trkpt>
      <trkpt lat="59.4676569756" lon="17.8091719933">
        <ele>32.2</ele>
        <time>2011-05-01T14:02:58Z</time>
      </trkpt>
      <trkpt lat="59.4674709812" lon="17.8091919422">
        <ele>32.8</ele>
        <time>2011-05-01T14:03:01Z</time>
      </trkpt>
      <trkpt lat="59.4672879204" lon="17.809249945">
        <ele>32.8</ele>
        <time>2011-05-01T14:03:04Z</time>
      </trkpt>
      <trkpt lat="59.4671089668" lon="17.8093459178">
        <ele>32.8</ele>
        <time>2011-05-01T14:03:07Z</time>
      </trkpt>
      <trkpt lat="59.4669299293" lon="17.8094779328">
        <ele>33.6</ele>
        <time>2011-05-01T14:03:10Z</time>
      </trkpt>
      <trkpt lat="59.4667519815" lon="17.8096489236">
        <ele>34.6</ele>
        <time>2011-05-01T14:03:13Z</time>
      </trkpt>
      <trkpt lat="59.4665909652" lon="17.8098509274">
        <ele>35.2</ele>
        <time>2011-05-01T14:03:16Z</time>
      </trkpt>
      <trkpt lat="59.4664499816" lon="17.8100779932">
        <ele>36</ele>
        <time>2011-05-01T14:03:19Z</time>
      </trkpt>
      <trkpt lat="59.4663149491" lon="17.810330959">
        <ele>36.6</ele>
        <time>2011-05-01T14:03:22Z</time>
      </trkpt>
      <trkpt lat="59.4661949202" lon="17.8106169496">
        <ele>36.6</ele>
        <time>2011-05-01T14:03:25Z</time>
      </trkpt>
      <trkpt lat="59.466082938" lon="17.8109109867">
        <ele>37</ele>
        <time>2011-05-01T14:03:28Z</time>
      </trkpt>
      <trkpt lat="59.4659809303" lon="17.811186919">
        <ele>37.6</ele>
        <time>2011-05-01T14:03:31Z</time>
      </trkpt>
      <trkpt lat="59.4658809341" lon="17.8114389628">
        <ele>39</ele>
        <time>2011-05-01T14:03:34Z</time>
      </trkpt>
      <trkpt lat="59.4657779206" lon="17.8116639331">
        <ele>38.4</ele>
        <time>2011-05-01T14:03:37Z</time>
      </trkpt>
      <trkpt lat="59.4656589814" lon="17.8119929228">
        <ele>39</ele>
        <time>2011-05-01T14:03:41Z</time>
      </trkpt>
      <trkpt lat="59.465610953" lon="17.8121709544">
        <ele>39</ele>
        <time>2011-05-01T14:03:43Z</time>
      </trkpt>
      <trkpt lat="59.4654959533" lon="17.8125239164">
        <ele>39.4</ele>
        <time>2011-05-01T14:03:47Z</time>
      </trkpt>
      <trkpt lat="59.4653829653" lon="17.8128289338">
        <ele>39</ele>
        <time>2011-05-01T14:03:51Z</time>
      </trkpt>
      <trkpt lat="59.4652689714" lon="17.8131519724">
        <ele>38.4</ele>
        <time>2011-05-01T14:03:55Z</time>
      </trkpt>
      <trkpt lat="59.4651699811" lon="17.8134539723">
        <ele>39.4</ele>
        <time>2011-05-01T14:03:58Z</time>
      </trkpt>
      <trkpt lat="59.4650569931" lon="17.8137589898">
        <ele>39.4</ele>
        <time>2011-05-01T14:04:01Z</time>
      </trkpt>
      <trkpt lat="59.4649529736" lon="17.8140509315">
        <ele>40</ele>
        <time>2011-05-01T14:04:04Z</time>
      </trkpt>
      <trkpt lat="59.464855995" lon="17.8143199906">
        <ele>40.8</ele>
        <time>2011-05-01T14:04:07Z</time>
      </trkpt>
      <trkpt lat="59.4647969864" lon="17.8144899756">
        <ele>41.8</ele>
        <time>2011-05-01T14:04:09Z</time>
      </trkpt>
      <trkpt lat="59.4647109881" lon="17.8147379961">
        <ele>42.4</ele>
        <time>2011-05-01T14:04:12Z</time>
      </trkpt>
      <trkpt lat="59.4646569248" lon="17.8148999345">
        <ele>43.8</ele>
        <time>2011-05-01T14:04:14Z</time>
      </trkpt>
      <trkpt lat="59.4645509776" lon="17.8152249847">
        <ele>44.8</ele>
        <time>2011-05-01T14:04:18Z</time>
      </trkpt>
      <trkpt lat="59.4644729421" lon="17.8154779505">
        <ele>46.2</ele>
        <time>2011-05-01T14:04:21Z</time>
      </trkpt>
      <trkpt lat="59.4643919729" lon="17.8157459199">
        <ele>46.2</ele>
        <time>2011-05-01T14:04:24Z</time>
      </trkpt>
      <trkpt lat="59.4643649831" lon="17.8158389591">
        <ele>46.2</ele>
        <time>2011-05-01T14:04:25Z</time>
      </trkpt>
      <trkpt lat="59.4642759673" lon="17.8162329923">
        <ele>46.6</ele>
        <time>2011-05-01T14:04:29Z</time>
      </trkpt>
      <trkpt lat="59.4641949981" lon="17.8166329768">
        <ele>46.6</ele>
        <time>2011-05-01T14:04:33Z</time>
      </trkpt>
      <trkpt lat="59.464139929" lon="17.8169439454">
        <ele>46.2</ele>
        <time>2011-05-01T14:04:36Z</time>
      </trkpt>
      <trkpt lat="59.4640879612" lon="17.8172579315">
        <ele>46.2</ele>
        <time>2011-05-01T14:04:39Z</time>
      </trkpt>
      <trkpt lat="59.4640359934" lon="17.8175789583">
        <ele>46.2</ele>
        <time>2011-05-01T14:04:42Z</time>
      </trkpt>
      <trkpt lat="59.4639809243" lon="17.8179229517">
        <ele>47.2</ele>
        <time>2011-05-01T14:04:45Z</time>
      </trkpt>
      <trkpt lat="59.4639259391" lon="17.8182689566">
        <ele>45.6</ele>
        <time>2011-05-01T14:04:48Z</time>
      </trkpt>
      <trkpt lat="59.4638669305" lon="17.8186229244">
        <ele>45.6</ele>
        <time>2011-05-01T14:04:51Z</time>
      </trkpt>
      <trkpt lat="59.4638039824" lon="17.8189789876">
        <ele>46.2</ele>
        <time>2011-05-01T14:04:54Z</time>
      </trkpt>
      <trkpt lat="59.4637479912" lon="17.819341924">
        <ele>47.2</ele>
        <time>2011-05-01T14:04:57Z</time>
      </trkpt>
      <trkpt lat="59.4636879768" lon="17.8196999989">
        <ele>47.6</ele>
        <time>2011-05-01T14:05:00Z</time>
      </trkpt>
      <trkpt lat="59.4636189938" lon="17.8200829681">
        <ele>47.2</ele>
        <time>2011-05-01T14:05:03Z</time>
      </trkpt>
      <trkpt lat="59.4635389466" lon="17.8204699606">
        <ele>47.6</ele>
        <time>2011-05-01T14:05:06Z</time>
      </trkpt>
      <trkpt lat="59.4634469971" lon="17.8208379261">
        <ele>47.6</ele>
        <time>2011-05-01T14:05:09Z</time>
      </trkpt>
      <trkpt lat="59.4633359369" lon="17.8211899661">
        <ele>47.2</ele>
        <time>2011-05-01T14:05:12Z</time>
      </trkpt>
      <trkpt lat="59.4632009882" lon="17.8215399943">
        <ele>45.6</ele>
        <time>2011-05-01T14:05:15Z</time>
      </trkpt>
      <trkpt lat="59.4631509483" lon="17.8216649685">
        <ele>45.6</ele>
        <time>2011-05-01T14:05:16Z</time>
      </trkpt>
      <trkpt lat="59.4629939552" lon="17.8220699821">
        <ele>43.8</ele>
        <time>2011-05-01T14:05:19Z</time>
      </trkpt>
      <trkpt lat="59.4628169294" lon="17.8225139715">
        <ele>41.4</ele>
        <time>2011-05-01T14:05:22Z</time>
      </trkpt>
      <trkpt lat="59.46258693" lon="17.8229559492">
        <ele>38</ele>
        <time>2011-05-01T14:05:25Z</time>
      </trkpt>
      <trkpt lat="59.4624069706" lon="17.8232409339">
        <ele>36</ele>
        <time>2011-05-01T14:05:27Z</time>
      </trkpt>
      <trkpt lat="59.4622009434" lon="17.8234879486">
        <ele>34.2</ele>
        <time>2011-05-01T14:05:29Z</time>
      </trkpt>
      <trkpt lat="59.4620919786" lon="17.8235939797">
        <ele>34.6</ele>
        <time>2011-05-01T14:05:30Z</time>
      </trkpt>
      <trkpt lat="59.4618709479" lon="17.8237849195">
        <ele>34.2</ele>
        <time>2011-05-01T14:05:32Z</time>
      </trkpt>
      <trkpt lat="59.4616409484" lon="17.8239279985">
        <ele>32.8</ele>
        <time>2011-05-01T14:05:34Z</time>
      </trkpt>
      <trkpt lat="59.4615229312" lon="17.8239809722">
        <ele>32.8</ele>
        <time>2011-05-01T14:05:35Z</time>
      </trkpt>
      <trkpt lat="59.4612859748" lon="17.8240449261">
        <ele>30.4</ele>
        <time>2011-05-01T14:05:37Z</time>
      </trkpt>
      <trkpt lat="59.4611669518" lon="17.8240599297">
        <ele>31.2</ele>
        <time>2011-05-01T14:05:38Z</time>
      </trkpt>
      <trkpt lat="59.4609259721" lon="17.8240719996">
        <ele>30.8</ele>
        <time>2011-05-01T14:05:40Z</time>
      </trkpt>
      <trkpt lat="59.4606859982" lon="17.8240809683">
        <ele>30.8</ele>
        <time>2011-05-01T14:05:42Z</time>
      </trkpt>
      <trkpt lat="59.4604559988" lon="17.8240959719">
        <ele>31.2</ele>
        <time>2011-05-01T14:05:44Z</time>
      </trkpt>
      <trkpt lat="59.460140923" lon="17.8241279908">
        <ele>31.8</ele>
        <time>2011-05-01T14:05:47Z</time>
      </trkpt>
      <trkpt lat="59.4598479755" lon="17.8241649549">
        <ele>31.8</ele>
        <time>2011-05-01T14:05:50Z</time>
      </trkpt>
      <trkpt lat="59.4595679361" lon="17.8242389672">
        <ele>33.2</ele>
        <time>2011-05-01T14:05:53Z</time>
      </trkpt>
      <trkpt lat="59.4594769925" lon="17.8242729977">
        <ele>33.2</ele>
        <time>2011-05-01T14:05:54Z</time>
      </trkpt>
      <trkpt lat="59.4592099451" lon="17.8243979719">
        <ele>33.6</ele>
        <time>2011-05-01T14:05:57Z</time>
      </trkpt>
      <trkpt lat="59.4589609187" lon="17.8245529532">
        <ele>33.6</ele>
        <time>2011-05-01T14:06:00Z</time>
      </trkpt>
      <trkpt lat="59.4587179273" lon="17.8247449826">
        <ele>34.2</ele>
        <time>2011-05-01T14:06:03Z</time>
      </trkpt>
      <trkpt lat="59.4584779534" lon="17.8249699529">
        <ele>32.8</ele>
        <time>2011-05-01T14:06:06Z</time>
      </trkpt>
      <trkpt lat="59.4582449365" lon="17.8252249304">
        <ele>33.2</ele>
        <time>2011-05-01T14:06:09Z</time>
      </trkpt>
      <trkpt lat="59.4580139313" lon="17.8255099989">
        <ele>32.2</ele>
        <time>2011-05-01T14:06:12Z</time>
      </trkpt>
      <trkpt lat="59.4578509871" lon="17.8257209715">
        <ele>31.2</ele>
        <time>2011-05-01T14:06:14Z</time>
      </trkpt>
      <trkpt lat="59.4575949199" lon="17.8260499611">
        <ele>28.8</ele>
        <time>2011-05-01T14:06:17Z</time>
      </trkpt>
      <trkpt lat="59.4575069938" lon="17.8261549864">
        <ele>28.8</ele>
        <time>2011-05-01T14:06:18Z</time>
      </trkpt>
      <trkpt lat="59.4572349172" lon="17.826434942">
        <ele>27.4</ele>
        <time>2011-05-01T14:06:21Z</time>
      </trkpt>
      <trkpt lat="59.4569479208" lon="17.8266989719">
        <ele>26.4</ele>
        <time>2011-05-01T14:06:24Z</time>
      </trkpt>
      <trkpt lat="59.4566469267" lon="17.8269319888">
        <ele>24.6</ele>
        <time>2011-05-01T14:06:27Z</time>
      </trkpt>
      <trkpt lat="59.4563499559" lon="17.8271199949">
        <ele>24</ele>
        <time>2011-05-01T14:06:30Z</time>
      </trkpt>
      <trkpt lat="59.4560679886" lon="17.8272809274">
        <ele>24.6</ele>
        <time>2011-05-01T14:06:33Z</time>
      </trkpt>
      <trkpt lat="59.4557919726" lon="17.8274479788">
        <ele>25.6</ele>
        <time>2011-05-01T14:06:36Z</time>
      </trkpt>
      <trkpt lat="59.4555289485" lon="17.8276149463">
        <ele>25.6</ele>
        <time>2011-05-01T14:06:39Z</time>
      </trkpt>
      <trkpt lat="59.4552799221" lon="17.8277699277">
        <ele>27.4</ele>
        <time>2011-05-01T14:06:42Z</time>
      </trkpt>
      <trkpt lat="59.4550339971" lon="17.8279169463">
        <ele>28.4</ele>
        <time>2011-05-01T14:06:45Z</time>
      </trkpt>
      <trkpt lat="59.4547899999" lon="17.8280499671">
        <ele>28.8</ele>
        <time>2011-05-01T14:06:48Z</time>
      </trkpt>
      <trkpt lat="59.4545629341" lon="17.8281799704">
        <ele>29.4</ele>
        <time>2011-05-01T14:06:51Z</time>
      </trkpt>
      <trkpt lat="59.454342993" lon="17.8283029329">
        <ele>29.4</ele>
        <time>2011-05-01T14:06:54Z</time>
      </trkpt>
      <trkpt lat="59.4541279972" lon="17.8284349479">
        <ele>30.4</ele>
        <time>2011-05-01T14:06:57Z</time>
      </trkpt>
      <trkpt lat="59.4539169408" lon="17.8285909351">
        <ele>30.4</ele>
        <time>2011-05-01T14:07:00Z</time>
      </trkpt>
      <trkpt lat="59.4537099916" lon="17.8287719842">
        <ele>30.4</ele>
        <time>2011-05-01T14:07:03Z</time>
      </trkpt>
      <trkpt lat="59.453506982" lon="17.8289889917">
        <ele>31.2</ele>
        <time>2011-05-01T14:07:06Z</time>
      </trkpt>
      <trkpt lat="59.4533069897" lon="17.8292359225">
        <ele>30.4</ele>
        <time>2011-05-01T14:07:09Z</time>
      </trkpt>
      <trkpt lat="59.4531129487" lon="17.8295049816">
        <ele>31.2</ele>
        <time>2011-05-01T14:07:12Z</time>
      </trkpt>
      <trkpt lat="59.4529229309" lon="17.8297849372">
        <ele>30.4</ele>
        <time>2011-05-01T14:07:15Z</time>
      </trkpt>
      <trkpt lat="59.4527409598" lon="17.8300669882">
        <ele>31.8</ele>
        <time>2011-05-01T14:07:18Z</time>
      </trkpt>
      <trkpt lat="59.4525649399" lon="17.8303639591">
        <ele>31.8</ele>
        <time>2011-05-01T14:07:21Z</time>
      </trkpt>
      <trkpt lat="59.4523929432" lon="17.8306819685">
        <ele>31.8</ele>
        <time>2011-05-01T14:07:24Z</time>
      </trkpt>
      <trkpt lat="59.452229999" lon="17.8310099524">
        <ele>32.2</ele>
        <time>2011-05-01T14:07:27Z</time>
      </trkpt>
      <trkpt lat="59.4520689826" lon="17.8313489165">
        <ele>31.8</ele>
        <time>2011-05-01T14:07:30Z</time>
      </trkpt>
      <trkpt lat="59.4519229699" lon="17.8316949215">
        <ele>32.2</ele>
        <time>2011-05-01T14:07:33Z</time>
      </trkpt>
      <trkpt lat="59.4517859258" lon="17.8320289403">
        <ele>32.2</ele>
        <time>2011-05-01T14:07:36Z</time>
      </trkpt>
      <trkpt lat="59.4516549166" lon="17.8323469497">
        <ele>32.2</ele>
        <time>2011-05-01T14:07:39Z</time>
      </trkpt>
      <trkpt lat="59.4515219796" lon="17.832665965">
        <ele>31.8</ele>
        <time>2011-05-01T14:07:42Z</time>
      </trkpt>
      <trkpt lat="59.451387953" lon="17.8329889197">
        <ele>32.2</ele>
        <time>2011-05-01T14:07:45Z</time>
      </trkpt>
      <trkpt lat="59.4512489811" lon="17.8333089408">
        <ele>31.8</ele>
        <time>2011-05-01T14:07:48Z</time>
      </trkpt>
      <trkpt lat="59.4511009566" lon="17.8336109407">
        <ele>31.8</ele>
        <time>2011-05-01T14:07:51Z</time>
      </trkpt>
      <trkpt lat="59.4509379286" lon="17.8338979371">
        <ele>32.8</ele>
        <time>2011-05-01T14:07:54Z</time>
      </trkpt>
      <trkpt lat="59.4507669378" lon="17.8341769706">
        <ele>33.2</ele>
        <time>2011-05-01T14:07:57Z</time>
      </trkpt>
      <trkpt lat="59.4505899958" lon="17.8344339598">
        <ele>33.2</ele>
        <time>2011-05-01T14:08:00Z</time>
      </trkpt>
      <trkpt lat="59.4504059292" lon="17.8346749395">
        <ele>33.2</ele>
        <time>2011-05-01T14:08:03Z</time>
      </trkpt>
      <trkpt lat="59.4502129778" lon="17.8348939586">
        <ele>33.2</ele>
        <time>2011-05-01T14:08:06Z</time>
      </trkpt>
      <trkpt lat="59.4500169251" lon="17.8351029195">
        <ele>32.2</ele>
        <time>2011-05-01T14:08:09Z</time>
      </trkpt>
      <trkpt lat="59.4498189446" lon="17.83531297">
        <ele>32.2</ele>
        <time>2011-05-01T14:08:12Z</time>
      </trkpt>
      <trkpt lat="59.4496199582" lon="17.8355309833">
        <ele>32.8</ele>
        <time>2011-05-01T14:08:15Z</time>
      </trkpt>
      <trkpt lat="59.4494159427" lon="17.8357509244">
        <ele>33.2</ele>
        <time>2011-05-01T14:08:18Z</time>
      </trkpt>
      <trkpt lat="59.4492159504" lon="17.8359749727">
        <ele>33.6</ele>
        <time>2011-05-01T14:08:21Z</time>
      </trkpt>
      <trkpt lat="59.449022999" lon="17.8361949977">
        <ele>33.2</ele>
        <time>2011-05-01T14:08:24Z</time>
      </trkpt>
      <trkpt lat="59.448828958" lon="17.8364109993">
        <ele>33.2</ele>
        <time>2011-05-01T14:08:27Z</time>
      </trkpt>
      <trkpt lat="59.4486329891" lon="17.8366029449">
        <ele>34.2</ele>
        <time>2011-05-01T14:08:30Z</time>
      </trkpt>
      <trkpt lat="59.4484399538" lon="17.8367929626">
        <ele>34.6</ele>
        <time>2011-05-01T14:08:33Z</time>
      </trkpt>
      <trkpt lat="59.4482449908" lon="17.8369679768">
        <ele>33.6</ele>
        <time>2011-05-01T14:08:36Z</time>
      </trkpt>
      <trkpt lat="59.4480369519" lon="17.8371269815">
        <ele>33.2</ele>
        <time>2011-05-01T14:08:39Z</time>
      </trkpt>
      <trkpt lat="59.4478289969" lon="17.837324962">
        <ele>33.6</ele>
        <time>2011-05-01T14:08:42Z</time>
      </trkpt>
      <trkpt lat="59.4476199523" lon="17.8375259601">
        <ele>34.2</ele>
        <time>2011-05-01T14:08:45Z</time>
      </trkpt>
      <trkpt lat="59.4474029448" lon="17.8376919217">
        <ele>32.8</ele>
        <time>2011-05-01T14:08:48Z</time>
      </trkpt>
      <trkpt lat="59.4471949898" lon="17.837909935">
        <ele>34.2</ele>
        <time>2011-05-01T14:08:51Z</time>
      </trkpt>
      <trkpt lat="59.4469839334" lon="17.8381259367">
        <ele>35.2</ele>
        <time>2011-05-01T14:08:54Z</time>
      </trkpt>
      <trkpt lat="59.4467709493" lon="17.8383239172">
        <ele>35.2</ele>
        <time>2011-05-01T14:08:57Z</time>
      </trkpt>
      <trkpt lat="59.4465639163" lon="17.8385169525">
        <ele>35.6</ele>
        <time>2011-05-01T14:09:00Z</time>
      </trkpt>
      <trkpt lat="59.4463539496" lon="17.8386979178">
        <ele>36.6</ele>
        <time>2011-05-01T14:09:03Z</time>
      </trkpt>
      <trkpt lat="59.4461469166" lon="17.8388539888">
        <ele>37</ele>
        <time>2011-05-01T14:09:06Z</time>
      </trkpt>
      <trkpt lat="59.4459469244" lon="17.8389899433">
        <ele>38</ele>
        <time>2011-05-01T14:09:09Z</time>
      </trkpt>
      <trkpt lat="59.445740981" lon="17.8391139954">
        <ele>37.6</ele>
        <time>2011-05-01T14:09:12Z</time>
      </trkpt>
      <trkpt lat="59.4455359597" lon="17.8392249718">
        <ele>38.4</ele>
        <time>2011-05-01T14:09:15Z</time>
      </trkpt>
      <trkpt lat="59.4453269988" lon="17.8393149935">
        <ele>37</ele>
        <time>2011-05-01T14:09:18Z</time>
      </trkpt>
      <trkpt lat="59.4451069739" lon="17.8393739183">
        <ele>36</ele>
        <time>2011-05-01T14:09:21Z</time>
      </trkpt>
      <trkpt lat="59.4448709395" lon="17.8393959627">
        <ele>35.2</ele>
        <time>2011-05-01T14:09:24Z</time>
      </trkpt>
      <trkpt lat="59.4446249306" lon="17.8393649496">
        <ele>35.2</ele>
        <time>2011-05-01T14:09:27Z</time>
      </trkpt>
      <trkpt lat="59.4443679415" lon="17.8392999899">
        <ele>34.2</ele>
        <time>2011-05-01T14:09:30Z</time>
      </trkpt>
      <trkpt lat="59.4441139698" lon="17.8392039333">
        <ele>34.2</ele>
        <time>2011-05-01T14:09:33Z</time>
      </trkpt>
      <trkpt lat="59.4438679609" lon="17.8391139954">
        <ele>34.2</ele>
        <time>2011-05-01T14:09:36Z</time>
      </trkpt>
      <trkpt lat="59.4436359499" lon="17.8390239738">
        <ele>35.2</ele>
        <time>2011-05-01T14:09:39Z</time>
      </trkpt>
      <trkpt lat="59.4434009213" lon="17.8389709163">
        <ele>35.6</ele>
        <time>2011-05-01T14:09:42Z</time>
      </trkpt>
      <trkpt lat="59.443168994" lon="17.8389629535">
        <ele>36</ele>
        <time>2011-05-01T14:09:45Z</time>
      </trkpt>
      <trkpt lat="59.4429389946" lon="17.8389869258">
        <ele>36.6</ele>
        <time>2011-05-01T14:09:48Z</time>
      </trkpt>
      <trkpt lat="59.4426979311" lon="17.8390399832">
        <ele>35.6</ele>
        <time>2011-05-01T14:09:51Z</time>
      </trkpt>
      <trkpt lat="59.4424439594" lon="17.8391029313">
        <ele>35.2</ele>
        <time>2011-05-01T14:09:54Z</time>
      </trkpt>
      <trkpt lat="59.4421889819" lon="17.8391649574">
        <ele>35.2</ele>
        <time>2011-05-01T14:09:57Z</time>
      </trkpt>
      <trkpt lat="59.4419359323" lon="17.8392269835">
        <ele>35.2</ele>
        <time>2011-05-01T14:10:00Z</time>
      </trkpt>
      <trkpt lat="59.4416859839" lon="17.8392899316">
        <ele>34.6</ele>
        <time>2011-05-01T14:10:03Z</time>
      </trkpt>
      <trkpt lat="59.4414459262" lon="17.8393479344">
        <ele>35.6</ele>
        <time>2011-05-01T14:10:06Z</time>
      </trkpt>
      <trkpt lat="59.4412179384" lon="17.8394209407">
        <ele>36</ele>
        <time>2011-05-01T14:10:09Z</time>
      </trkpt>
      <trkpt lat="59.4409949798" lon="17.8395149857">
        <ele>36.6</ele>
        <time>2011-05-01T14:10:12Z</time>
      </trkpt>
      <trkpt lat="59.4406239968" lon="17.8397069313">
        <ele>37.6</ele>
        <time>2011-05-01T14:10:17Z</time>
      </trkpt>
      <trkpt lat="59.4403269421" lon="17.8398669418">
        <ele>37</ele>
        <time>2011-05-01T14:10:21Z</time>
      </trkpt>
      <trkpt lat="59.4401119463" lon="17.8399799298">
        <ele>37</ele>
        <time>2011-05-01T14:10:24Z</time>
      </trkpt>
      <trkpt lat="59.439899968" lon="17.8400839493">
        <ele>37</ele>
        <time>2011-05-01T14:10:27Z</time>
      </trkpt>
      <trkpt lat="59.4397019874" lon="17.840185957">
        <ele>38</ele>
        <time>2011-05-01T14:10:30Z</time>
      </trkpt>
      <trkpt lat="59.4395059347" lon="17.8402819298">
        <ele>38</ele>
        <time>2011-05-01T14:10:33Z</time>
      </trkpt>
      <trkpt lat="59.4393109716" lon="17.8403799981">
        <ele>39.4</ele>
        <time>2011-05-01T14:10:36Z</time>
      </trkpt>
      <trkpt lat="59.4392509572" lon="17.8404139448">
        <ele>39.4</ele>
        <time>2011-05-01T14:10:37Z</time>
      </trkpt>
      <trkpt lat="59.4390779547" lon="17.840500949">
        <ele>40.4</ele>
        <time>2011-05-01T14:10:40Z</time>
      </trkpt>
      <trkpt lat="59.4389029406" lon="17.8405929822">
        <ele>40.8</ele>
        <time>2011-05-01T14:10:43Z</time>
      </trkpt>
      <trkpt lat="59.4387209695" lon="17.8407029528">
        <ele>41.4</ele>
        <time>2011-05-01T14:10:46Z</time>
      </trkpt>
      <trkpt lat="59.4385559298" lon="17.8408099897">
        <ele>42.4</ele>
        <time>2011-05-01T14:10:49Z</time>
      </trkpt>
      <trkpt lat="59.4383949973" lon="17.8409609478">
        <ele>42.8</ele>
        <time>2011-05-01T14:10:52Z</time>
      </trkpt>
      <trkpt lat="59.438245967" lon="17.8411209583">
        <ele>43.2</ele>
        <time>2011-05-01T14:10:55Z</time>
      </trkpt>
      <trkpt lat="59.4381039776" lon="17.8412969783">
        <ele>43.2</ele>
        <time>2011-05-01T14:10:58Z</time>
      </trkpt>
      <trkpt lat="59.4379559532" lon="17.8414959647">
        <ele>43.2</ele>
        <time>2011-05-01T14:11:01Z</time>
      </trkpt>
      <trkpt lat="59.4378049951" lon="17.8417059314">
        <ele>42.8</ele>
        <time>2011-05-01T14:11:04Z</time>
      </trkpt>
      <trkpt lat="59.4376429729" lon="17.841927968">
        <ele>42.4</ele>
        <time>2011-05-01T14:11:07Z</time>
      </trkpt>
      <trkpt lat="59.4374779332" lon="17.8421459813">
        <ele>41.8</ele>
        <time>2011-05-01T14:11:10Z</time>
      </trkpt>
      <trkpt lat="59.4373119716" lon="17.842373969">
        <ele>41.8</ele>
        <time>2011-05-01T14:11:13Z</time>
      </trkpt>
      <trkpt lat="59.4371359516" lon="17.842587959">
        <ele>41.4</ele>
        <time>2011-05-01T14:11:16Z</time>
      </trkpt>
      <trkpt lat="59.4369589258" lon="17.8427909687">
        <ele>41.4</ele>
        <time>2011-05-01T14:11:19Z</time>
      </trkpt>
      <trkpt lat="59.4367599394" lon="17.8429799806">
        <ele>40.4</ele>
        <time>2011-05-01T14:11:22Z</time>
      </trkpt>
      <trkpt lat="59.4365339633" lon="17.8431549948">
        <ele>40.4</ele>
        <time>2011-05-01T14:11:25Z</time>
      </trkpt>
      <trkpt lat="59.4362919778" lon="17.8432849981">
        <ele>40</ele>
        <time>2011-05-01T14:11:28Z</time>
      </trkpt>
      <trkpt lat="59.4360419456" lon="17.8433629498">
        <ele>39.4</ele>
        <time>2011-05-01T14:11:31Z</time>
      </trkpt>
      <trkpt lat="59.4357899856" lon="17.8433999978">
        <ele>38.4</ele>
        <time>2011-05-01T14:11:34Z</time>
      </trkpt>
      <trkpt lat="59.4355269615" lon="17.8434169292">
        <ele>37.6</ele>
        <time>2011-05-01T14:11:37Z</time>
      </trkpt>
      <trkpt lat="59.435252957" lon="17.8434659634">
        <ele>36</ele>
        <time>2011-05-01T14:11:40Z</time>
      </trkpt>
      <trkpt lat="59.4349629432" lon="17.8435969725">
        <ele>35.2</ele>
        <time>2011-05-01T14:11:43Z</time>
      </trkpt>
      <trkpt lat="59.4346649665" lon="17.8437879961">
        <ele>33.6</ele>
        <time>2011-05-01T14:11:46Z</time>
      </trkpt>
      <trkpt lat="59.434378976" lon="17.8440159839">
        <ele>32.8</ele>
        <time>2011-05-01T14:11:49Z</time>
      </trkpt>
      <trkpt lat="59.4340989366" lon="17.844248917">
        <ele>29.8</ele>
        <time>2011-05-01T14:11:52Z</time>
      </trkpt>
      <trkpt lat="59.4340059813" lon="17.8443249408">
        <ele>29.8</ele>
        <time>2011-05-01T14:11:53Z</time>
      </trkpt>
      <trkpt lat="59.4338269439" lon="17.8444739711">
        <ele>28.4</ele>
        <time>2011-05-01T14:11:55Z</time>
      </trkpt>
      <trkpt lat="59.4335659314" lon="17.844694918">
        <ele>29.4</ele>
        <time>2011-05-01T14:11:58Z</time>
      </trkpt>
      <trkpt lat="59.4333059248" lon="17.844907986">
        <ele>28.8</ele>
        <time>2011-05-01T14:12:01Z</time>
      </trkpt>
      <trkpt lat="59.4330479298" lon="17.8451329563">
        <ele>28</ele>
        <time>2011-05-01T14:12:04Z</time>
      </trkpt>
      <trkpt lat="59.4328679703" lon="17.8452669829">
        <ele>26.4</ele>
        <time>2011-05-01T14:12:06Z</time>
      </trkpt>
      <trkpt lat="59.4325649645" lon="17.8453879338">
        <ele>24.6</ele>
        <time>2011-05-01T14:12:09Z</time>
      </trkpt>
      <trkpt lat="59.4322359748" lon="17.8454269934">
        <ele>23.6</ele>
        <time>2011-05-01T14:12:12Z</time>
      </trkpt>
      <trkpt lat="59.4320089929" lon="17.8454389796">
        <ele>22.6</ele>
        <time>2011-05-01T14:12:14Z</time>
      </trkpt>
      <trkpt lat="59.4317779876" lon="17.8454589285">
        <ele>22.2</ele>
        <time>2011-05-01T14:12:16Z</time>
      </trkpt>
      <trkpt lat="59.4315459765" lon="17.8454839904">
        <ele>21.6</ele>
        <time>2011-05-01T14:12:18Z</time>
      </trkpt>
      <trkpt lat="59.4313159771" lon="17.8455129918">
        <ele>22.2</ele>
        <time>2011-05-01T14:12:20Z</time>
      </trkpt>
      <trkpt lat="59.4309809525" lon="17.8455729224">
        <ele>22.2</ele>
        <time>2011-05-01T14:12:23Z</time>
      </trkpt>
      <trkpt lat="59.4306719955" lon="17.845624974">
        <ele>23.6</ele>
        <time>2011-05-01T14:12:26Z</time>
      </trkpt>
      <trkpt lat="59.4303929619" lon="17.845655987">
        <ele>25.6</ele>
        <time>2011-05-01T14:12:29Z</time>
      </trkpt>
      <trkpt lat="59.4301439356" lon="17.8456729185">
        <ele>25.6</ele>
        <time>2011-05-01T14:12:32Z</time>
      </trkpt>
      <trkpt lat="59.4299189653" lon="17.8456889279">
        <ele>26</ele>
        <time>2011-05-01T14:12:35Z</time>
      </trkpt>
      <trkpt lat="59.4297089987" lon="17.8457099665">
        <ele>27.4</ele>
        <time>2011-05-01T14:12:38Z</time>
      </trkpt>
      <trkpt lat="59.4295109343" lon="17.8457369562">
        <ele>28.4</ele>
        <time>2011-05-01T14:12:41Z</time>
      </trkpt>
      <trkpt lat="59.4293179829" lon="17.8457679693">
        <ele>28</ele>
        <time>2011-05-01T14:12:44Z</time>
      </trkpt>
      <trkpt lat="59.4291189965" lon="17.8458079509">
        <ele>28</ele>
        <time>2011-05-01T14:12:47Z</time>
      </trkpt>
      <trkpt lat="59.4289079402" lon="17.8458569851">
        <ele>28.4</ele>
        <time>2011-05-01T14:12:50Z</time>
      </trkpt>
      <trkpt lat="59.4286969677" lon="17.8459169995">
        <ele>27.4</ele>
        <time>2011-05-01T14:12:53Z</time>
      </trkpt>
      <trkpt lat="59.4284919463" lon="17.8459859826">
        <ele>28.4</ele>
        <time>2011-05-01T14:12:56Z</time>
      </trkpt>
      <trkpt lat="59.4283019286" lon="17.8460489307">
        <ele>28.4</ele>
        <time>2011-05-01T14:12:59Z</time>
      </trkpt>
      <trkpt lat="59.4281149283" lon="17.8461169917">
        <ele>28.4</ele>
        <time>2011-05-01T14:13:02Z</time>
      </trkpt>
      <trkpt lat="59.4279239886" lon="17.8461859748">
        <ele>28.8</ele>
        <time>2011-05-01T14:13:05Z</time>
      </trkpt>
      <trkpt lat="59.4277279358" lon="17.8462579753">
        <ele>28.4</ele>
        <time>2011-05-01T14:13:08Z</time>
      </trkpt>
      <trkpt lat="59.4275309611" lon="17.8463299759">
        <ele>28.4</ele>
        <time>2011-05-01T14:13:11Z</time>
      </trkpt>
      <trkpt lat="59.4273199886" lon="17.8464139625">
        <ele>28.8</ele>
        <time>2011-05-01T14:13:14Z</time>
      </trkpt>
      <trkpt lat="59.4270869717" lon="17.8464959376">
        <ele>27.4</ele>
        <time>2011-05-01T14:13:17Z</time>
      </trkpt>
      <trkpt lat="59.4268579781" lon="17.8465669323">
        <ele>27</ele>
        <time>2011-05-01T14:13:20Z</time>
      </trkpt>
      <trkpt lat="59.4266309962" lon="17.8466409445">
        <ele>26.4</ele>
        <time>2011-05-01T14:13:23Z</time>
      </trkpt>
      <trkpt lat="59.4264059421" lon="17.84671898">
        <ele>26</ele>
        <time>2011-05-01T14:13:26Z</time>
      </trkpt>
      <trkpt lat="59.4261929579" lon="17.8468039725">
        <ele>26</ele>
        <time>2011-05-01T14:13:29Z</time>
      </trkpt>
      <trkpt lat="59.425990954" lon="17.8469229955">
        <ele>26</ele>
        <time>2011-05-01T14:13:32Z</time>
      </trkpt>
      <trkpt lat="59.4257979188" lon="17.8470419347">
        <ele>26.4</ele>
        <time>2011-05-01T14:13:35Z</time>
      </trkpt>
      <trkpt lat="59.4255629741" lon="17.8470529988">
        <ele>26.4</ele>
        <time>2011-05-01T14:13:39Z</time>
      </trkpt>
      <trkpt lat="59.4252779894" lon="17.8470699303">
        <ele>26.4</ele>
        <time>2011-05-01T14:13:44Z</time>
      </trkpt>
      <trkpt lat="59.4251289591" lon="17.8472529911">
        <ele>25.6</ele>
        <time>2011-05-01T14:13:47Z</time>
      </trkpt>
      <trkpt lat="59.4250149652" lon="17.8473359719">
        <ele>25.6</ele>
        <time>2011-05-01T14:13:49Z</time>
      </trkpt>
      <trkpt lat="59.4247659389" lon="17.8474589344">
        <ele>25.6</ele>
        <time>2011-05-01T14:13:53Z</time>
      </trkpt>
      <trkpt lat="59.42456997" lon="17.8475529794">
        <ele>25</ele>
        <time>2011-05-01T14:13:56Z</time>
      </trkpt>
      <trkpt lat="59.4243659545" lon="17.8476239741">
        <ele>26.4</ele>
        <time>2011-05-01T14:13:59Z</time>
      </trkpt>
      <trkpt lat="59.4241509587" lon="17.847718941">
        <ele>26.4</ele>
        <time>2011-05-01T14:14:02Z</time>
      </trkpt>
      <trkpt lat="59.4239309337" lon="17.8478239663">
        <ele>27</ele>
        <time>2011-05-01T14:14:05Z</time>
      </trkpt>
      <trkpt lat="59.4237099867" lon="17.8479379602">
        <ele>27.4</ele>
        <time>2011-05-01T14:14:08Z</time>
      </trkpt>
      <trkpt lat="59.4234939851" lon="17.8480549715">
        <ele>27</ele>
        <time>2011-05-01T14:14:11Z</time>
      </trkpt>
      <trkpt lat="59.4232779834" lon="17.8481679596">
        <ele>27.4</ele>
        <time>2011-05-01T14:14:14Z</time>
      </trkpt>
      <trkpt lat="59.4230629876" lon="17.8482769243">
        <ele>26.4</ele>
        <time>2011-05-01T14:14:17Z</time>
      </trkpt>
      <trkpt lat="59.4228559546" lon="17.8483889904">
        <ele>27</ele>
        <time>2011-05-01T14:14:20Z</time>
      </trkpt>
      <trkpt lat="59.4226469938" lon="17.8485099413">
        <ele>27</ele>
        <time>2011-05-01T14:14:23Z</time>
      </trkpt>
      <trkpt lat="59.4224539585" lon="17.8486369271">
        <ele>28</ele>
        <time>2011-05-01T14:14:26Z</time>
      </trkpt>
      <trkpt lat="59.4222759269" lon="17.8487569559">
        <ele>27.4</ele>
        <time>2011-05-01T14:14:29Z</time>
      </trkpt>
      <trkpt lat="59.4221139885" lon="17.8488579579">
        <ele>28</ele>
        <time>2011-05-01T14:14:32Z</time>
      </trkpt>
      <trkpt lat="59.4219379686" lon="17.8488749731">
        <ele>28</ele>
        <time>2011-05-01T14:14:36Z</time>
      </trkpt>
      <trkpt lat="59.4217149261" lon="17.8489409387">
        <ele>28</ele>
        <time>2011-05-01T14:14:41Z</time>
      </trkpt>
      <trkpt lat="59.4217039458" lon="17.8492699284">
        <ele>28</ele>
        <time>2011-05-01T14:14:44Z</time>
      </trkpt>
      <trkpt lat="59.4217329472" lon="17.849385934">
        <ele>27.4</ele>
        <time>2011-05-01T14:14:45Z</time>
      </trkpt>
      <trkpt lat="59.4218599331" lon="17.8498899378">
        <ele>27</ele>
        <time>2011-05-01T14:14:49Z</time>
      </trkpt>
      <trkpt lat="59.421922965" lon="17.8503089491">
        <ele>26.4</ele>
        <time>2011-05-01T14:14:52Z</time>
      </trkpt>
      <trkpt lat="59.4219789561" lon="17.850724943">
        <ele>25</ele>
        <time>2011-05-01T14:14:55Z</time>
      </trkpt>
      <trkpt lat="59.422035953" lon="17.8511419427">
        <ele>24.6</ele>
        <time>2011-05-01T14:14:58Z</time>
      </trkpt>
      <trkpt lat="59.4220919441" lon="17.8515599482">
        <ele>24.6</ele>
        <time>2011-05-01T14:15:01Z</time>
      </trkpt>
      <trkpt lat="59.4222389627" lon="17.851774944">
        <ele>23.6</ele>
        <time>2011-05-01T14:15:04Z</time>
      </trkpt>
      <trkpt lat="59.4222899247" lon="17.8523469251">
        <ele>24</ele>
        <time>2011-05-01T14:15:08Z</time>
      </trkpt>
      <trkpt lat="59.4223359413" lon="17.8528389428">
        <ele>22.6</ele>
        <time>2011-05-01T14:15:11Z</time>
      </trkpt>
      <trkpt lat="59.4223539624" lon="17.8529999591">
        <ele>22.2</ele>
        <time>2011-05-01T14:15:12Z</time>
      </trkpt>
      <trkpt lat="59.4223909266" lon="17.853465993">
        <ele>23.2</ele>
        <time>2011-05-01T14:15:15Z</time>
      </trkpt>
      <trkpt lat="59.4224079419" lon="17.8539269976">
        <ele>23.2</ele>
        <time>2011-05-01T14:15:18Z</time>
      </trkpt>
      <trkpt lat="59.4224039186" lon="17.8543859906">
        <ele>22.6</ele>
        <time>2011-05-01T14:15:21Z</time>
      </trkpt>
      <trkpt lat="59.4223899208" lon="17.8548229393">
        <ele>21.6</ele>
        <time>2011-05-01T14:15:24Z</time>
      </trkpt>
      <trkpt lat="59.4223829638" lon="17.8549519368">
        <ele>22.2</ele>
        <time>2011-05-01T14:15:25Z</time>
      </trkpt>
      <trkpt lat="59.4222929422" lon="17.8553829342">
        <ele>22.2</ele>
        <time>2011-05-01T14:15:29Z</time>
      </trkpt>
      <trkpt lat="59.4221589994" lon="17.8555799928">
        <ele>23.2</ele>
        <time>2011-05-01T14:15:32Z</time>
      </trkpt>
      <trkpt lat="59.4219699875" lon="17.8556209803">
        <ele>23.6</ele>
        <time>2011-05-01T14:15:35Z</time>
      </trkpt>
      <trkpt lat="59.4218999986" lon="17.8556079883">
        <ele>23.2</ele>
        <time>2011-05-01T14:15:36Z</time>
      </trkpt>
      <trkpt lat="59.4215989206" lon="17.8555149492">
        <ele>22.2</ele>
        <time>2011-05-01T14:15:40Z</time>
      </trkpt>
      <trkpt lat="59.4213639759" lon="17.8554129414">
        <ele>22.2</ele>
        <time>2011-05-01T14:15:43Z</time>
      </trkpt>
      <trkpt lat="59.4211299531" lon="17.8552959301">
        <ele>22.2</ele>
        <time>2011-05-01T14:15:46Z</time>
      </trkpt>
      <trkpt lat="59.4208999537" lon="17.8551549464">
        <ele>22.6</ele>
        <time>2011-05-01T14:15:49Z</time>
      </trkpt>
      <trkpt lat="59.4206749834" lon="17.8549969476">
        <ele>22.6</ele>
        <time>2011-05-01T14:15:52Z</time>
      </trkpt>
      <trkpt lat="59.4204589818" lon="17.8548209276">
        <ele>24</ele>
        <time>2011-05-01T14:15:55Z</time>
      </trkpt>
      <trkpt lat="59.4202459976" lon="17.8546339273">
        <ele>23.2</ele>
        <time>2011-05-01T14:15:58Z</time>
      </trkpt>
      <trkpt lat="59.4200379588" lon="17.8544489387">
        <ele>24</ele>
        <time>2011-05-01T14:16:01Z</time>
      </trkpt>
      <trkpt lat="59.4198359549" lon="17.8542829771">
        <ele>25</ele>
        <time>2011-05-01T14:16:04Z</time>
      </trkpt>
      <trkpt lat="59.4196389802" lon="17.8541409876">
        <ele>26.4</ele>
        <time>2011-05-01T14:16:07Z</time>
      </trkpt>
      <trkpt lat="59.4195769541" lon="17.854101928">
        <ele>27</ele>
        <time>2011-05-01T14:16:08Z</time>
      </trkpt>
      <trkpt lat="59.4193849247" lon="17.8539859224">
        <ele>27.4</ele>
        <time>2011-05-01T14:16:11Z</time>
      </trkpt>
      <trkpt lat="59.4191859383" lon="17.853880981">
        <ele>28</ele>
        <time>2011-05-01T14:16:14Z</time>
      </trkpt>
      <trkpt lat="59.4189849403" lon="17.8537989222">
        <ele>28.4</ele>
        <time>2011-05-01T14:16:17Z</time>
      </trkpt>
      <trkpt lat="59.4187839422" lon="17.8537289333">
        <ele>29.8</ele>
        <time>2011-05-01T14:16:20Z</time>
      </trkpt>
      <trkpt lat="59.4185849559" lon="17.8536799829">
        <ele>30.4</ele>
        <time>2011-05-01T14:16:23Z</time>
      </trkpt>
      <trkpt lat="59.4183919206" lon="17.8536649793">
        <ele>31.2</ele>
        <time>2011-05-01T14:16:26Z</time>
      </trkpt>
      <trkpt lat="59.4182009809" lon="17.8536759596">
        <ele>31.2</ele>
        <time>2011-05-01T14:16:29Z</time>
      </trkpt>
      <trkpt lat="59.4180249609" lon="17.8537099902">
        <ele>31.2</ele>
        <time>2011-05-01T14:16:32Z</time>
      </trkpt>
      <trkpt lat="59.4179169182" lon="17.8537309449">
        <ele>30.8</ele>
        <time>2011-05-01T14:16:34Z</time>
      </trkpt>
      <trkpt lat="59.4177499507" lon="17.8537279274">
        <ele>31.8</ele>
        <time>2011-05-01T14:16:37Z</time>
      </trkpt>
      <trkpt lat="59.4175189454" lon="17.8538579307">
        <ele>30.8</ele>
        <time>2011-05-01T14:16:41Z</time>
      </trkpt>
      <trkpt lat="59.4172779657" lon="17.8541179374">
        <ele>31.8</ele>
        <time>2011-05-01T14:16:45Z</time>
      </trkpt>
      <trkpt lat="59.4170929771" lon="17.8543059435">
        <ele>31.2</ele>
        <time>2011-05-01T14:16:48Z</time>
      </trkpt>
      <trkpt lat="59.4169699308" lon="17.8544249665">
        <ele>30.8</ele>
        <time>2011-05-01T14:16:50Z</time>
      </trkpt>
      <trkpt lat="59.4167799968" lon="17.8546099551">
        <ele>30.8</ele>
        <time>2011-05-01T14:16:53Z</time>
      </trkpt>
      <trkpt lat="59.416571958" lon="17.8548109531">
        <ele>31.2</ele>
        <time>2011-05-01T14:16:56Z</time>
      </trkpt>
      <trkpt lat="59.416357968" lon="17.855018992">
        <ele>29.8</ele>
        <time>2011-05-01T14:16:59Z</time>
      </trkpt>
      <trkpt lat="59.4162869733" lon="17.855087975">
        <ele>29.8</ele>
        <time>2011-05-01T14:17:00Z</time>
      </trkpt>
      <trkpt lat="59.4160699658" lon="17.8552999534">
        <ele>29.4</ele>
        <time>2011-05-01T14:17:03Z</time>
      </trkpt>
      <trkpt lat="59.4158479292" lon="17.8555199783">
        <ele>29.4</ele>
        <time>2011-05-01T14:17:06Z</time>
      </trkpt>
      <trkpt lat="59.4156279881" lon="17.8557569347">
        <ele>30.4</ele>
        <time>2011-05-01T14:17:09Z</time>
      </trkpt>
      <trkpt lat="59.4154079631" lon="17.8559969924">
        <ele>28.8</ele>
        <time>2011-05-01T14:17:12Z</time>
      </trkpt>
      <trkpt lat="59.4151949789" lon="17.8562359605">
        <ele>30.8</ele>
        <time>2011-05-01T14:17:15Z</time>
      </trkpt>
      <trkpt lat="59.4149819948" lon="17.8564689774">
        <ele>30.8</ele>
        <time>2011-05-01T14:17:18Z</time>
      </trkpt>
      <trkpt lat="59.4147749618" lon="17.856697971">
        <ele>30.8</ele>
        <time>2011-05-01T14:17:21Z</time>
      </trkpt>
      <trkpt lat="59.4145819265" lon="17.8568919282">
        <ele>30.4</ele>
        <time>2011-05-01T14:17:24Z</time>
      </trkpt>
      <trkpt lat="59.4144019671" lon="17.857068954">
        <ele>30.8</ele>
        <time>2011-05-01T14:17:27Z</time>
      </trkpt>
      <trkpt lat="59.4142389391" lon="17.8572319821">
        <ele>30.8</ele>
        <time>2011-05-01T14:17:30Z</time>
      </trkpt>
      <trkpt lat="59.4140679482" lon="17.8573849518">
        <ele>30.4</ele>
        <time>2011-05-01T14:17:33Z</time>
      </trkpt>
      <trkpt lat="59.4138999749" lon="17.8575799987">
        <ele>28.8</ele>
        <time>2011-05-01T14:17:36Z</time>
      </trkpt>
      <trkpt lat="59.4137459993" lon="17.8578069806">
        <ele>28.8</ele>
        <time>2011-05-01T14:17:39Z</time>
      </trkpt>
      <trkpt lat="59.4136089552" lon="17.8580779675">
        <ele>28.8</ele>
        <time>2011-05-01T14:17:42Z</time>
      </trkpt>
      <trkpt lat="59.413490938" lon="17.8583979886">
        <ele>28.4</ele>
        <time>2011-05-01T14:17:45Z</time>
      </trkpt>
      <trkpt lat="59.4133809675" lon="17.8587439936">
        <ele>27.4</ele>
        <time>2011-05-01T14:17:48Z</time>
      </trkpt>
      <trkpt lat="59.4132639561" lon="17.8591029905">
        <ele>26.4</ele>
        <time>2011-05-01T14:17:51Z</time>
      </trkpt>
      <trkpt lat="59.4131169375" lon="17.8594179824">
        <ele>25.6</ele>
        <time>2011-05-01T14:17:54Z</time>
      </trkpt>
      <trkpt lat="59.4130109902" lon="17.8595939185">
        <ele>25.6</ele>
        <time>2011-05-01T14:17:56Z</time>
      </trkpt>
      <trkpt lat="59.4127989281" lon="17.8597249277">
        <ele>25</ele>
        <time>2011-05-01T14:18:00Z</time>
      </trkpt>
      <trkpt lat="59.4127469603" lon="17.8597149532">
        <ele>25</ele>
        <time>2011-05-01T14:18:01Z</time>
      </trkpt>
      <trkpt lat="59.4125069864" lon="17.8599129338">
        <ele>23.6</ele>
        <time>2011-05-01T14:18:06Z</time>
      </trkpt>
      <trkpt lat="59.4124259334" lon="17.8601169493">
        <ele>22.6</ele>
        <time>2011-05-01T14:18:08Z</time>
      </trkpt>
      <trkpt lat="59.4121689443" lon="17.8604129981">
        <ele>21.6</ele>
        <time>2011-05-01T14:18:12Z</time>
      </trkpt>
      <trkpt lat="59.4119319879" lon="17.8605499584">
        <ele>21.2</ele>
        <time>2011-05-01T14:18:15Z</time>
      </trkpt>
      <trkpt lat="59.411685979" lon="17.8606879245">
        <ele>21.6</ele>
        <time>2011-05-01T14:18:18Z</time>
      </trkpt>
      <trkpt lat="59.4114309177" lon="17.860866962">
        <ele>19.2</ele>
        <time>2011-05-01T14:18:21Z</time>
      </trkpt>
      <trkpt lat="59.4111729227" lon="17.8611279745">
        <ele>16.8</ele>
        <time>2011-05-01T14:18:24Z</time>
      </trkpt>
      <trkpt lat="59.4110079668" lon="17.8613579739">
        <ele>15.8</ele>
        <time>2011-05-01T14:18:26Z</time>
      </trkpt>
      <trkpt lat="59.4108479563" lon="17.8616139572">
        <ele>13</ele>
        <time>2011-05-01T14:18:28Z</time>
      </trkpt>
      <trkpt lat="59.4107669871" lon="17.861746978">
        <ele>13.4</ele>
        <time>2011-05-01T14:18:29Z</time>
      </trkpt>
      <trkpt lat="59.4105209783" lon="17.8621579427">
        <ele>11.6</ele>
        <time>2011-05-01T14:18:32Z</time>
      </trkpt>
      <trkpt lat="59.4103499874" lon="17.8624369763">
        <ele>10.2</ele>
        <time>2011-05-01T14:18:34Z</time>
      </trkpt>
      <trkpt lat="59.4101729617" lon="17.8627259843">
        <ele>8.6</ele>
        <time>2011-05-01T14:18:36Z</time>
      </trkpt>
      <trkpt lat="59.4099939242" lon="17.8630199376">
        <ele>7.8</ele>
        <time>2011-05-01T14:18:38Z</time>
      </trkpt>
      <trkpt lat="59.4098169822" lon="17.8633119632">
        <ele>8.6</ele>
        <time>2011-05-01T14:18:40Z</time>
      </trkpt>
      <trkpt lat="59.4095599931" lon="17.8637369256">
        <ele>8.6</ele>
        <time>2011-05-01T14:18:43Z</time>
      </trkpt>
      <trkpt lat="59.4093079492" lon="17.8641479742">
        <ele>7.2</ele>
        <time>2011-05-01T14:18:46Z</time>
      </trkpt>
      <trkpt lat="59.4090609346" lon="17.8645539936">
        <ele>8.6</ele>
        <time>2011-05-01T14:18:49Z</time>
      </trkpt>
      <trkpt lat="59.4088179432" lon="17.8649519663">
        <ele>7.2</ele>
        <time>2011-05-01T14:18:52Z</time>
      </trkpt>
      <trkpt lat="59.4085859321" lon="17.865331918">
        <ele>8.2</ele>
        <time>2011-05-01T14:18:55Z</time>
      </trkpt>
      <trkpt lat="59.4083619677" lon="17.8656999674">
        <ele>8.6</ele>
        <time>2011-05-01T14:18:58Z</time>
      </trkpt>
      <trkpt lat="59.4081389252" lon="17.8660599701">
        <ele>7.8</ele>
        <time>2011-05-01T14:19:01Z</time>
      </trkpt>
      <trkpt lat="59.4079199899" lon="17.8664119262">
        <ele>7.8</ele>
        <time>2011-05-01T14:19:04Z</time>
      </trkpt>
      <trkpt lat="59.4077039883" lon="17.8667599428">
        <ele>8.6</ele>
        <time>2011-05-01T14:19:07Z</time>
      </trkpt>
      <trkpt lat="59.4074969552" lon="17.8670989908">
        <ele>8.6</ele>
        <time>2011-05-01T14:19:10Z</time>
      </trkpt>
      <trkpt lat="59.4072959572" lon="17.86743192">
        <ele>7.8</ele>
        <time>2011-05-01T14:19:13Z</time>
      </trkpt>
      <trkpt lat="59.4071039278" lon="17.8677519411">
        <ele>9.2</ele>
        <time>2011-05-01T14:19:16Z</time>
      </trkpt>
      <trkpt lat="59.4069289975" lon="17.8680589702">
        <ele>9.6</ele>
        <time>2011-05-01T14:19:19Z</time>
      </trkpt>
      <trkpt lat="59.4067709986" lon="17.8683329746">
        <ele>10.2</ele>
        <time>2011-05-01T14:19:22Z</time>
      </trkpt>
      <trkpt lat="59.4066349603" lon="17.8685799893">
        <ele>10.2</ele>
        <time>2011-05-01T14:19:25Z</time>
      </trkpt>
      <trkpt lat="59.4065989181" lon="17.8686549235">
        <ele>9.6</ele>
        <time>2011-05-01T14:19:26Z</time>
      </trkpt>
      <trkpt lat="59.4064199645" lon="17.8687739465">
        <ele>10.6</ele>
        <time>2011-05-01T14:19:31Z</time>
      </trkpt>
      <trkpt lat="59.4063439406" lon="17.8686839249">
        <ele>10.6</ele>
        <time>2011-05-01T14:19:33Z</time>
      </trkpt>
      <trkpt lat="59.406140931" lon="17.8683359921">
        <ele>10.6</ele>
        <time>2011-05-01T14:19:38Z</time>
      </trkpt>
      <trkpt lat="59.4060179684" lon="17.8681449685">
        <ele>10.6</ele>
        <time>2011-05-01T14:19:41Z</time>
      </trkpt>
      <trkpt lat="59.4058919884" lon="17.867940953">
        <ele>10.6</ele>
        <time>2011-05-01T14:19:44Z</time>
      </trkpt>
      <trkpt lat="59.4057639968" lon="17.86773392">
        <ele>11</ele>
        <time>2011-05-01T14:19:47Z</time>
      </trkpt>
      <trkpt lat="59.4056429621" lon="17.8675319999">
        <ele>11.6</ele>
        <time>2011-05-01T14:19:50Z</time>
      </trkpt>
      <trkpt lat="59.4054909982" lon="17.8673029225">
        <ele>13.4</ele>
        <time>2011-05-01T14:19:54Z</time>
      </trkpt>
      <trkpt lat="59.405423943" lon="17.8672039323">
        <ele>14.4</ele>
        <time>2011-05-01T14:19:56Z</time>
      </trkpt>
      <trkpt lat="59.4052929338" lon="17.8670019284">
        <ele>15.4</ele>
        <time>2011-05-01T14:20:00Z</time>
      </trkpt>
      <trkpt lat="59.405152956" lon="17.8667829931">
        <ele>16.8</ele>
        <time>2011-05-01T14:20:04Z</time>
      </trkpt>
      <trkpt lat="59.4050089549" lon="17.866557939">
        <ele>17.8</ele>
        <time>2011-05-01T14:20:08Z</time>
      </trkpt>
      <trkpt lat="59.4049039297" lon="17.8663909715">
        <ele>19.2</ele>
        <time>2011-05-01T14:20:11Z</time>
      </trkpt>
      <trkpt lat="59.4047569949" lon="17.8661649954">
        <ele>19.8</ele>
        <time>2011-05-01T14:20:15Z</time>
      </trkpt>
      <trkpt lat="59.4046399835" lon="17.8659779951">
        <ele>19.2</ele>
        <time>2011-05-01T14:20:18Z</time>
      </trkpt>
      <trkpt lat="59.4045159314" lon="17.8657809366">
        <ele>19.8</ele>
        <time>2011-05-01T14:20:21Z</time>
      </trkpt>
      <trkpt lat="59.4043859281" lon="17.8655729815">
        <ele>19.8</ele>
        <time>2011-05-01T14:20:24Z</time>
      </trkpt>
      <trkpt lat="59.4042519853" lon="17.8653669544">
        <ele>19.2</ele>
        <time>2011-05-01T14:20:27Z</time>
      </trkpt>
      <trkpt lat="59.4041109178" lon="17.8651449177">
        <ele>18.8</ele>
        <time>2011-05-01T14:20:30Z</time>
      </trkpt>
      <trkpt lat="59.4039539248" lon="17.8649109788">
        <ele>18.8</ele>
        <time>2011-05-01T14:20:33Z</time>
      </trkpt>
      <trkpt lat="59.4037729595" lon="17.8646799736">
        <ele>18.4</ele>
        <time>2011-05-01T14:20:36Z</time>
      </trkpt>
      <trkpt lat="59.4035709556" lon="17.8644899558">
        <ele>18.4</ele>
        <time>2011-05-01T14:20:39Z</time>
      </trkpt>
      <trkpt lat="59.4033649284" lon="17.8643039614">
        <ele>17.8</ele>
        <time>2011-05-01T14:20:42Z</time>
      </trkpt>
      <trkpt lat="59.4031519443" lon="17.8641149495">
        <ele>17.4</ele>
        <time>2011-05-01T14:20:45Z</time>
      </trkpt>
      <trkpt lat="59.402933931" lon="17.8639169689">
        <ele>15.8</ele>
        <time>2011-05-01T14:20:48Z</time>
      </trkpt>
      <trkpt lat="59.4027089607" lon="17.8637179825">
        <ele>15.8</ele>
        <time>2011-05-01T14:20:51Z</time>
      </trkpt>
      <trkpt lat="59.4024889357" lon="17.8635279648">
        <ele>16.4</ele>
        <time>2011-05-01T14:20:54Z</time>
      </trkpt>
      <trkpt lat="59.4022769574" lon="17.8633429762">
        <ele>16.8</ele>
        <time>2011-05-01T14:20:57Z</time>
      </trkpt>
      <trkpt lat="59.4021449424" lon="17.8632349335">
        <ele>17.8</ele>
        <time>2011-05-01T14:20:59Z</time>
      </trkpt>
      <trkpt lat="59.4019489735" lon="17.8631199338">
        <ele>19.2</ele>
        <time>2011-05-01T14:21:02Z</time>
      </trkpt>
      <trkpt lat="59.4018239994" lon="17.8630739171">
        <ele>19.8</ele>
        <time>2011-05-01T14:21:04Z</time>
      </trkpt>
      <trkpt lat="59.4016389269" lon="17.8630319238">
        <ele>20.8</ele>
        <time>2011-05-01T14:21:07Z</time>
      </trkpt>
      <trkpt lat="59.4014599733" lon="17.8629969712">
        <ele>21.6</ele>
        <time>2011-05-01T14:21:10Z</time>
      </trkpt>
      <trkpt lat="59.4012849592" lon="17.8629679698">
        <ele>23.2</ele>
        <time>2011-05-01T14:21:13Z</time>
      </trkpt>
      <trkpt lat="59.4012259506" lon="17.8629589174">
        <ele>23.2</ele>
        <time>2011-05-01T14:21:14Z</time>
      </trkpt>
      <trkpt lat="59.4010519423" lon="17.8629279882">
        <ele>24</ele>
        <time>2011-05-01T14:21:17Z</time>
      </trkpt>
      <trkpt lat="59.4008839689" lon="17.8628909402">
        <ele>25</ele>
        <time>2011-05-01T14:21:20Z</time>
      </trkpt>
      <trkpt lat="59.4005849864" lon="17.862809971">
        <ele>24</ele>
        <time>2011-05-01T14:21:25Z</time>
      </trkpt>
      <trkpt lat="59.400392957" lon="17.8626949713">
        <ele>24</ele>
        <time>2011-05-01T14:21:28Z</time>
      </trkpt>
      <trkpt lat="59.4001879357" lon="17.8625359666">
        <ele>23.2</ele>
        <time>2011-05-01T14:21:31Z</time>
      </trkpt>
      <trkpt lat="59.3999799807" lon="17.8623679932">
        <ele>24</ele>
        <time>2011-05-01T14:21:34Z</time>
      </trkpt>
      <trkpt lat="59.3997849338" lon="17.8622089885">
        <ele>24.6</ele>
        <time>2011-05-01T14:21:37Z</time>
      </trkpt>
      <trkpt lat="59.399600951" lon="17.862048978">
        <ele>25.6</ele>
        <time>2011-05-01T14:21:40Z</time>
      </trkpt>
      <trkpt lat="59.399430966" lon="17.8618979361">
        <ele>26.4</ele>
        <time>2011-05-01T14:21:43Z</time>
      </trkpt>
      <trkpt lat="59.399260981" lon="17.8617509175">
        <ele>26.4</ele>
        <time>2011-05-01T14:21:46Z</time>
      </trkpt>
      <trkpt lat="59.3990939297" lon="17.8616379295">
        <ele>27</ele>
        <time>2011-05-01T14:21:49Z</time>
      </trkpt>
      <trkpt lat="59.3989249505" lon="17.861539945">
        <ele>27.4</ele>
        <time>2011-05-01T14:21:52Z</time>
      </trkpt>
      <trkpt lat="59.3987549655" lon="17.8614479955">
        <ele>28.4</ele>
        <time>2011-05-01T14:21:55Z</time>
      </trkpt>
      <trkpt lat="59.3985829689" lon="17.8613579739">
        <ele>28.8</ele>
        <time>2011-05-01T14:21:58Z</time>
      </trkpt>
      <trkpt lat="59.3984099664" lon="17.8612589836">
        <ele>29.4</ele>
        <time>2011-05-01T14:22:01Z</time>
      </trkpt>
      <trkpt lat="59.3982399814" lon="17.8611619212">
        <ele>29.8</ele>
        <time>2011-05-01T14:22:04Z</time>
      </trkpt>
      <trkpt lat="59.3980699964" lon="17.8610669542">
        <ele>28.8</ele>
        <time>2011-05-01T14:22:07Z</time>
      </trkpt>
      <trkpt lat="59.3979009334" lon="17.8609719872">
        <ele>30.4</ele>
        <time>2011-05-01T14:22:10Z</time>
      </trkpt>
      <trkpt lat="59.3977269251" lon="17.860873919">
        <ele>29.8</ele>
        <time>2011-05-01T14:22:13Z</time>
      </trkpt>
      <trkpt lat="59.3975409307" lon="17.860772917">
        <ele>29.4</ele>
        <time>2011-05-01T14:22:16Z</time>
      </trkpt>
      <trkpt lat="59.3973499909" lon="17.8606649581">
        <ele>28.8</ele>
        <time>2011-05-01T14:22:19Z</time>
      </trkpt>
      <trkpt lat="59.3971349951" lon="17.8605529759">
        <ele>28</ele>
        <time>2011-05-01T14:22:22Z</time>
      </trkpt>
      <trkpt lat="59.3969019782" lon="17.8604319412">
        <ele>27</ele>
        <time>2011-05-01T14:22:25Z</time>
      </trkpt>
      <trkpt lat="59.3966509402" lon="17.8602939751">
        <ele>25.6</ele>
        <time>2011-05-01T14:22:28Z</time>
      </trkpt>
      <trkpt lat="59.3963809591" lon="17.8601479623">
        <ele>24.6</ele>
        <time>2011-05-01T14:22:31Z</time>
      </trkpt>
      <trkpt lat="59.3961899355" lon="17.8600409254">
        <ele>23.2</ele>
        <time>2011-05-01T14:22:33Z</time>
      </trkpt>
      <trkpt lat="59.395896988" lon="17.8598219901">
        <ele>20.8</ele>
        <time>2011-05-01T14:22:36Z</time>
      </trkpt>
      <trkpt lat="59.395802943" lon="17.859721994">
        <ele>20.8</ele>
        <time>2011-05-01T14:22:37Z</time>
      </trkpt>
      <trkpt lat="59.3955359794" lon="17.8593399469">
        <ele>18.8</ele>
        <time>2011-05-01T14:22:40Z</time>
      </trkpt>
      <trkpt lat="59.3954529986" lon="17.8591919225">
        <ele>18.4</ele>
        <time>2011-05-01T14:22:41Z</time>
      </trkpt>
      <trkpt lat="59.3952339794" lon="17.858715998">
        <ele>16.4</ele>
        <time>2011-05-01T14:22:44Z</time>
      </trkpt>
      <trkpt lat="59.3950639945" lon="17.8582239803">
        <ele>14.4</ele>
        <time>2011-05-01T14:22:47Z</time>
      </trkpt>
      <trkpt lat="59.3949139584" lon="17.8577599581">
        <ele>14</ele>
        <time>2011-05-01T14:22:50Z</time>
      </trkpt>
      <trkpt lat="59.3948039878" lon="17.8574069962">
        <ele>15</ele>
        <time>2011-05-01T14:22:53Z</time>
      </trkpt>
      <trkpt lat="59.3947179895" lon="17.8571709618">
        <ele>15.8</ele>
        <time>2011-05-01T14:22:57Z</time>
      </trkpt>
      <trkpt lat="59.3946099468" lon="17.8571019787">
        <ele>15</ele>
        <time>2011-05-01T14:23:02Z</time>
      </trkpt>
      <trkpt lat="59.3945749942" lon="17.8570829518">
        <ele>15.4</ele>
        <time>2011-05-01T14:23:03Z</time>
      </trkpt>
      <trkpt lat="59.3944449909" lon="17.8573859576">
        <ele>15.8</ele>
        <time>2011-05-01T14:23:08Z</time>
      </trkpt>
      <trkpt lat="59.3944089487" lon="17.8576929867">
        <ele>15.8</ele>
        <time>2011-05-01T14:23:11Z</time>
      </trkpt>
      <trkpt lat="59.3943949509" lon="17.858169917">
        <ele>15.4</ele>
        <time>2011-05-01T14:23:16Z</time>
      </trkpt>
      <trkpt lat="59.3943849765" lon="17.8585429955">
        <ele>15.8</ele>
        <time>2011-05-01T14:23:20Z</time>
      </trkpt>
      <trkpt lat="59.3943749182" lon="17.8589449916">
        <ele>15.8</ele>
        <time>2011-05-01T14:23:24Z</time>
      </trkpt>
      <trkpt lat="59.3943649437" lon="17.8592669405">
        <ele>15.8</ele>
        <time>2011-05-01T14:23:27Z</time>
      </trkpt>
      <trkpt lat="59.3943569809" lon="17.8595959302">
        <ele>16.4</ele>
        <time>2011-05-01T14:23:30Z</time>
      </trkpt>
      <trkpt lat="59.3943389598" lon="17.8599339724">
        <ele>16.4</ele>
        <time>2011-05-01T14:23:33Z</time>
      </trkpt>
      <trkpt lat="59.3943169992" lon="17.860268997">
        <ele>17.4</ele>
        <time>2011-05-01T14:23:36Z</time>
      </trkpt>
      <trkpt lat="59.3942879979" lon="17.8606029321">
        <ele>16.8</ele>
        <time>2011-05-01T14:23:39Z</time>
      </trkpt>
      <trkpt lat="59.394255979" lon="17.8609399684">
        <ele>15.8</ele>
        <time>2011-05-01T14:23:42Z</time>
      </trkpt>
      <trkpt lat="59.3942249659" lon="17.8612779267">
        <ele>16.4</ele>
        <time>2011-05-01T14:23:45Z</time>
      </trkpt>
      <trkpt lat="59.3941939529" lon="17.8616109397">
        <ele>17.8</ele>
        <time>2011-05-01T14:23:48Z</time>
      </trkpt>
      <trkpt lat="59.3941599224" lon="17.8619449586">
        <ele>18.4</ele>
        <time>2011-05-01T14:23:51Z</time>
      </trkpt>
      <trkpt lat="59.394117929" lon="17.8622639738">
        <ele>17.8</ele>
        <time>2011-05-01T14:23:54Z</time>
      </trkpt>
      <trkpt lat="59.3940679729" lon="17.8625629563">
        <ele>18.4</ele>
        <time>2011-05-01T14:23:57Z</time>
      </trkpt>
      <trkpt lat="59.3940159213" lon="17.8628659621">
        <ele>19.2</ele>
        <time>2011-05-01T14:24:00Z</time>
      </trkpt>
      <trkpt lat="59.393960936" lon="17.8631709795">
        <ele>19.8</ele>
        <time>2011-05-01T14:24:03Z</time>
      </trkpt>
      <trkpt lat="59.3939249776" lon="17.8633759171">
        <ele>19.8</ele>
        <time>2011-05-01T14:24:05Z</time>
      </trkpt>
      <trkpt lat="59.3938429188" lon="17.8637809306">
        <ele>20.2</ele>
        <time>2011-05-01T14:24:09Z</time>
      </trkpt>
      <trkpt lat="59.3937849998" lon="17.8641009517">
        <ele>20.2</ele>
        <time>2011-05-01T14:24:12Z</time>
      </trkpt>
      <trkpt lat="59.3937239796" lon="17.8644229844">
        <ele>20.8</ele>
        <time>2011-05-01T14:24:15Z</time>
      </trkpt>
      <trkpt lat="59.3936659768" lon="17.8647529799">
        <ele>20.2</ele>
        <time>2011-05-01T14:24:18Z</time>
      </trkpt>
      <trkpt lat="59.3936039507" lon="17.8650939558">
        <ele>18.8</ele>
        <time>2011-05-01T14:24:21Z</time>
      </trkpt>
      <trkpt lat="59.3935399968" lon="17.8654329199">
        <ele>19.2</ele>
        <time>2011-05-01T14:24:24Z</time>
      </trkpt>
      <trkpt lat="59.3934779707" lon="17.8657719679">
        <ele>20.8</ele>
        <time>2011-05-01T14:24:27Z</time>
      </trkpt>
      <trkpt lat="59.3934129272" lon="17.8661169671">
        <ele>19.2</ele>
        <time>2011-05-01T14:24:30Z</time>
      </trkpt>
      <trkpt lat="59.3933469616" lon="17.8664539196">
        <ele>19.2</ele>
        <time>2011-05-01T14:24:33Z</time>
      </trkpt>
      <trkpt lat="59.3932829238" lon="17.8667869326">
        <ele>19.2</ele>
        <time>2011-05-01T14:24:36Z</time>
      </trkpt>
      <trkpt lat="59.3932139408" lon="17.8671249747">
        <ele>19.8</ele>
        <time>2011-05-01T14:24:39Z</time>
      </trkpt>
      <trkpt lat="59.3930689339" lon="17.8675359394">
        <ele>19.2</ele>
        <time>2011-05-01T14:24:43Z</time>
      </trkpt>
      <trkpt lat="59.3929429539" lon="17.8678389452">
        <ele>19.2</ele>
        <time>2011-05-01T14:24:46Z</time>
      </trkpt>
      <trkpt lat="59.392815968" lon="17.8681569546">
        <ele>19.8</ele>
        <time>2011-05-01T14:24:49Z</time>
      </trkpt>
      <trkpt lat="59.3926949333" lon="17.8684669174">
        <ele>19.8</ele>
        <time>2011-05-01T14:24:52Z</time>
      </trkpt>
      <trkpt lat="59.3925689533" lon="17.8687649779">
        <ele>19.2</ele>
        <time>2011-05-01T14:24:55Z</time>
      </trkpt>
      <trkpt lat="59.3924479187" lon="17.8690519743">
        <ele>19.8</ele>
        <time>2011-05-01T14:24:58Z</time>
      </trkpt>
      <trkpt lat="59.3923299853" lon="17.869323967">
        <ele>19.8</ele>
        <time>2011-05-01T14:25:01Z</time>
      </trkpt>
      <trkpt lat="59.3922169972" lon="17.8695869911">
        <ele>20.8</ele>
        <time>2011-05-01T14:25:04Z</time>
      </trkpt>
      <trkpt lat="59.3921269756" lon="17.8698149789">
        <ele>21.6</ele>
        <time>2011-05-01T14:25:10Z</time>
      </trkpt>
      <trkpt lat="59.392118929" lon="17.8697919287">
        <ele>21.6</ele>
        <time>2011-05-01T14:26:04Z</time>
      </trkpt>
      <trkpt lat="59.3920529634" lon="17.8699629195">
        <ele>21.2</ele>
        <time>2011-05-01T14:26:08Z</time>
      </trkpt>
      <trkpt lat="59.3919539731" lon="17.8702279553">
        <ele>20.2</ele>
        <time>2011-05-01T14:26:12Z</time>
      </trkpt>
      <trkpt lat="59.3918499537" lon="17.8704819269">
        <ele>20.8</ele>
        <time>2011-05-01T14:26:15Z</time>
      </trkpt>
      <trkpt lat="59.3917329423" lon="17.870757943">
        <ele>20.2</ele>
        <time>2011-05-01T14:26:18Z</time>
      </trkpt>
      <trkpt lat="59.3915919587" lon="17.8710269183">
        <ele>19.8</ele>
        <time>2011-05-01T14:26:21Z</time>
      </trkpt>
      <trkpt lat="59.3914279249" lon="17.8712569177">
        <ele>19.8</ele>
        <time>2011-05-01T14:26:24Z</time>
      </trkpt>
      <trkpt lat="59.3912389968" lon="17.8714409843">
        <ele>19.8</ele>
        <time>2011-05-01T14:26:27Z</time>
      </trkpt>
      <trkpt lat="59.3910269346" lon="17.8715859912">
        <ele>20.2</ele>
        <time>2011-05-01T14:26:30Z</time>
      </trkpt>
      <trkpt lat="59.3908069935" lon="17.8716999851">
        <ele>20.8</ele>
        <time>2011-05-01T14:26:33Z</time>
      </trkpt>
      <trkpt lat="59.390583951" lon="17.8718119673">
        <ele>20.2</ele>
        <time>2011-05-01T14:26:36Z</time>
      </trkpt>
      <trkpt lat="59.3903519399" lon="17.8719119634">
        <ele>21.2</ele>
        <time>2011-05-01T14:26:39Z</time>
      </trkpt>
      <trkpt lat="59.3901289813" lon="17.8720239457">
        <ele>21.2</ele>
        <time>2011-05-01T14:26:42Z</time>
      </trkpt>
      <trkpt lat="59.3899219483" lon="17.8721819445">
        <ele>20.8</ele>
        <time>2011-05-01T14:26:45Z</time>
      </trkpt>
      <trkpt lat="59.3897329364" lon="17.872398952">
        <ele>19.8</ele>
        <time>2011-05-01T14:26:48Z</time>
      </trkpt>
      <trkpt lat="59.3895599339" lon="17.8726419434">
        <ele>20.8</ele>
        <time>2011-05-01T14:26:51Z</time>
      </trkpt>
      <trkpt lat="59.3894009292" lon="17.8729259223">
        <ele>21.2</ele>
        <time>2011-05-01T14:26:54Z</time>
      </trkpt>
      <trkpt lat="59.3892539944" lon="17.873234963">
        <ele>19.8</ele>
        <time>2011-05-01T14:26:57Z</time>
      </trkpt>
      <trkpt lat="59.3891079817" lon="17.8735459317">
        <ele>20.8</ele>
        <time>2011-05-01T14:27:00Z</time>
      </trkpt>
      <trkpt lat="59.3889599573" lon="17.8738849796">
        <ele>20.8</ele>
        <time>2011-05-01T14:27:03Z</time>
      </trkpt>
      <trkpt lat="59.3888149504" lon="17.8742439765">
        <ele>20.8</ele>
        <time>2011-05-01T14:27:06Z</time>
      </trkpt>
      <trkpt lat="59.3886719551" lon="17.8746139538">
        <ele>21.2</ele>
        <time>2011-05-01T14:27:09Z</time>
      </trkpt>
      <trkpt lat="59.3885419518" lon="17.8749849368">
        <ele>19.8</ele>
        <time>2011-05-01T14:27:12Z</time>
      </trkpt>
      <trkpt lat="59.3884119485" lon="17.8753329534">
        <ele>19.2</ele>
        <time>2011-05-01T14:27:15Z</time>
      </trkpt>
      <trkpt lat="59.3882819451" lon="17.8756869212">
        <ele>17.8</ele>
        <time>2011-05-01T14:27:18Z</time>
      </trkpt>
      <trkpt lat="59.388156971" lon="17.8760499414">
        <ele>18.4</ele>
        <time>2011-05-01T14:27:21Z</time>
      </trkpt>
      <trkpt lat="59.3880749959" lon="17.8763059247">
        <ele>17.4</ele>
        <time>2011-05-01T14:27:23Z</time>
      </trkpt>
      <trkpt lat="59.3879489321" lon="17.8767049871">
        <ele>16.4</ele>
        <time>2011-05-01T14:27:26Z</time>
      </trkpt>
      <trkpt lat="59.3878209405" lon="17.8771189693">
        <ele>16.4</ele>
        <time>2011-05-01T14:27:29Z</time>
      </trkpt>
      <trkpt lat="59.3877019174" lon="17.8775409982">
        <ele>15.8</ele>
        <time>2011-05-01T14:27:32Z</time>
      </trkpt>
      <trkpt lat="59.387603933" lon="17.8779519629">
        <ele>13.4</ele>
        <time>2011-05-01T14:27:35Z</time>
      </trkpt>
      <trkpt lat="59.3875269871" lon="17.8783589881">
        <ele>15</ele>
        <time>2011-05-01T14:27:38Z</time>
      </trkpt>
      <trkpt lat="59.387470996" lon="17.8787709586">
        <ele>13.4</ele>
        <time>2011-05-01T14:27:41Z</time>
      </trkpt>
      <trkpt lat="59.3874319363" lon="17.87918997">
        <ele>13</ele>
        <time>2011-05-01T14:27:44Z</time>
      </trkpt>
      <trkpt lat="59.3873979896" lon="17.8796059638">
        <ele>13</ele>
        <time>2011-05-01T14:27:47Z</time>
      </trkpt>
      <trkpt lat="59.3872539885" lon="17.8800119832">
        <ele>13</ele>
        <time>2011-05-01T14:27:51Z</time>
      </trkpt>
      <trkpt lat="59.3871469516" lon="17.8801649529">
        <ele>13</ele>
        <time>2011-05-01T14:27:53Z</time>
      </trkpt>
      <trkpt lat="59.3869639747" lon="17.8805779293">
        <ele>14</ele>
        <time>2011-05-01T14:27:57Z</time>
      </trkpt>
      <trkpt lat="59.3869349733" lon="17.8806999698">
        <ele>14</ele>
        <time>2011-05-01T14:27:58Z</time>
      </trkpt>
      <trkpt lat="59.3868199736" lon="17.8812109306">
        <ele>12.6</ele>
        <time>2011-05-01T14:28:02Z</time>
      </trkpt>
      <trkpt lat="59.3867309578" lon="17.8815979231">
        <ele>13.4</ele>
        <time>2011-05-01T14:28:05Z</time>
      </trkpt>
      <trkpt lat="59.3866189755" lon="17.8819709178">
        <ele>11.6</ele>
        <time>2011-05-01T14:28:08Z</time>
      </trkpt>
      <trkpt lat="59.3864939176" lon="17.8823409788">
        <ele>13.4</ele>
        <time>2011-05-01T14:28:11Z</time>
      </trkpt>
      <trkpt lat="59.3863789178" lon="17.8827399574">
        <ele>12.6</ele>
        <time>2011-05-01T14:28:14Z</time>
      </trkpt>
      <trkpt lat="59.3862779997" lon="17.8831809293">
        <ele>10.6</ele>
        <time>2011-05-01T14:28:17Z</time>
      </trkpt>
      <trkpt lat="59.3861779198" lon="17.8836309537">
        <ele>8.2</ele>
        <time>2011-05-01T14:28:20Z</time>
      </trkpt>
      <trkpt lat="59.3860829528" lon="17.8840879351">
        <ele>10.2</ele>
        <time>2011-05-01T14:28:23Z</time>
      </trkpt>
      <trkpt lat="59.3859779276" lon="17.8845469281">
        <ele>7.8</ele>
        <time>2011-05-01T14:28:26Z</time>
      </trkpt>
      <trkpt lat="59.3858659454" lon="17.8849969525">
        <ele>7.2</ele>
        <time>2011-05-01T14:28:29Z</time>
      </trkpt>
      <trkpt lat="59.3857519515" lon="17.8854359966">
        <ele>7.8</ele>
        <time>2011-05-01T14:28:32Z</time>
      </trkpt>
      <trkpt lat="59.3856759276" lon="17.8857219871">
        <ele>6.8</ele>
        <time>2011-05-01T14:28:34Z</time>
      </trkpt>
      <trkpt lat="59.3855669629" lon="17.8863569163">
        <ele>6.8</ele>
        <time>2011-05-01T14:28:38Z</time>
      </trkpt>
      <trkpt lat="59.3854009174" lon="17.8869329207">
        <ele>5.8</ele>
        <time>2011-05-01T14:28:42Z</time>
      </trkpt>
      <trkpt lat="59.3853459321" lon="17.8870569728">
        <ele>5.4</ele>
        <time>2011-05-01T14:28:43Z</time>
      </trkpt>
      <trkpt lat="59.3851249851" lon="17.8875889722">
        <ele>4.4</ele>
        <time>2011-05-01T14:28:47Z</time>
      </trkpt>
      <trkpt lat="59.3849749491" lon="17.8879889566">
        <ele>3.4</ele>
        <time>2011-05-01T14:28:50Z</time>
      </trkpt>
      <trkpt lat="59.3848599494" lon="17.8884299286">
        <ele>3.4</ele>
        <time>2011-05-01T14:28:53Z</time>
      </trkpt>
      <trkpt lat="59.384735981" lon="17.8888269793">
        <ele>3</ele>
        <time>2011-05-01T14:28:56Z</time>
      </trkpt>
      <trkpt lat="59.3846179638" lon="17.8892309871">
        <ele>3.4</ele>
        <time>2011-05-01T14:28:59Z</time>
      </trkpt>
      <trkpt lat="59.3845029641" lon="17.8896259423">
        <ele>3.4</ele>
        <time>2011-05-01T14:29:02Z</time>
      </trkpt>
      <trkpt lat="59.3843839411" lon="17.8900159523">
        <ele>4.4</ele>
        <time>2011-05-01T14:29:05Z</time>
      </trkpt>
      <trkpt lat="59.3842739705" lon="17.8904079739">
        <ele>3.8</ele>
        <time>2011-05-01T14:29:08Z</time>
      </trkpt>
      <trkpt lat="59.3842409458" lon="17.8905329481">
        <ele>3.8</ele>
        <time>2011-05-01T14:29:09Z</time>
      </trkpt>
      <trkpt lat="59.3841609824" lon="17.8910529613">
        <ele>4.4</ele>
        <time>2011-05-01T14:29:13Z</time>
      </trkpt>
      <trkpt lat="59.3840279616" lon="17.8913559671">
        <ele>3.8</ele>
        <time>2011-05-01T14:29:16Z</time>
      </trkpt>
      <trkpt lat="59.3838609941" lon="17.8917989507">
        <ele>2.4</ele>
        <time>2011-05-01T14:29:20Z</time>
      </trkpt>
      <trkpt lat="59.3837009836" lon="17.8920849413">
        <ele>3</ele>
        <time>2011-05-01T14:29:23Z</time>
      </trkpt>
      <trkpt lat="59.3835269753" lon="17.8923379909">
        <ele>4.8</ele>
        <time>2011-05-01T14:29:26Z</time>
      </trkpt>
      <trkpt lat="59.3834699783" lon="17.8924229834">
        <ele>4.4</ele>
        <time>2011-05-01T14:29:27Z</time>
      </trkpt>
      <trkpt lat="59.3832949642" lon="17.8926819842">
        <ele>5.4</ele>
        <time>2011-05-01T14:29:30Z</time>
      </trkpt>
      <trkpt lat="59.3831199501" lon="17.8929459304">
        <ele>4.8</ele>
        <time>2011-05-01T14:29:33Z</time>
      </trkpt>
      <trkpt lat="59.383006962" lon="17.8931229562">
        <ele>5.8</ele>
        <time>2011-05-01T14:29:35Z</time>
      </trkpt>
      <trkpt lat="59.382843934" lon="17.8933739942">
        <ele>7.2</ele>
        <time>2011-05-01T14:29:38Z</time>
      </trkpt>
      <trkpt lat="59.3826909643" lon="17.8936009761">
        <ele>6.8</ele>
        <time>2011-05-01T14:29:41Z</time>
      </trkpt>
      <trkpt lat="59.3825449515" lon="17.8938289639">
        <ele>7.8</ele>
        <time>2011-05-01T14:29:44Z</time>
      </trkpt>
      <trkpt lat="59.3824039679" lon="17.8940539341">
        <ele>7.2</ele>
        <time>2011-05-01T14:29:47Z</time>
      </trkpt>
      <trkpt lat="59.3822739646" lon="17.8942739591">
        <ele>7.8</ele>
        <time>2011-05-01T14:29:50Z</time>
      </trkpt>
      <trkpt lat="59.3821499962" lon="17.8944849316">
        <ele>7.8</ele>
        <time>2011-05-01T14:29:53Z</time>
      </trkpt>
      <trkpt lat="59.3820669316" lon="17.8946239874">
        <ele>7.8</ele>
        <time>2011-05-01T14:29:55Z</time>
      </trkpt>
      <trkpt lat="59.3818669394" lon="17.8948479518">
        <ele>7.2</ele>
        <time>2011-05-01T14:30:00Z</time>
      </trkpt>
      <trkpt lat="59.3818349205" lon="17.8949109837">
        <ele>7.2</ele>
        <time>2011-05-01T14:30:02Z</time>
      </trkpt>
      <trkpt lat="59.3817529455" lon="17.8951019235">
        <ele>6.2</ele>
        <time>2011-05-01T14:30:08Z</time>
      </trkpt>
      <trkpt lat="59.3816879857" lon="17.8952149954">
        <ele>6.2</ele>
        <time>2011-05-01T14:30:10Z</time>
      </trkpt>
      <trkpt lat="59.3815219402" lon="17.8954779357">
        <ele>5.8</ele>
        <time>2011-05-01T14:30:14Z</time>
      </trkpt>
      <trkpt lat="59.3813369516" lon="17.8954599984">
        <ele>7.8</ele>
        <time>2011-05-01T14:30:18Z</time>
      </trkpt>
      <trkpt lat="59.3813109677" lon="17.8953849804">
        <ele>7.8</ele>
        <time>2011-05-01T14:30:19Z</time>
      </trkpt>
      <trkpt lat="59.3812889233" lon="17.8953039274">
        <ele>7.2</ele>
        <time>2011-05-01T14:30:20Z</time>
      </trkpt>
      <trkpt lat="59.3811999913" lon="17.8948859219">
        <ele>9.6</ele>
        <time>2011-05-01T14:30:25Z</time>
      </trkpt>
      <trkpt lat="59.3811469339" lon="17.8945719358">
        <ele>11</ele>
        <time>2011-05-01T14:30:28Z</time>
      </trkpt>
      <trkpt lat="59.38112095" lon="17.8944379929">
        <ele>11.6</ele>
        <time>2011-05-01T14:30:29Z</time>
      </trkpt>
      <trkpt lat="59.3810479436" lon="17.8941009566">
        <ele>12</ele>
        <time>2011-05-01T14:30:32Z</time>
      </trkpt>
      <trkpt lat="59.3809639569" lon="17.8937759902">
        <ele>12.6</ele>
        <time>2011-05-01T14:30:35Z</time>
      </trkpt>
      <trkpt lat="59.3808579259" lon="17.8934449889">
        <ele>13</ele>
        <time>2011-05-01T14:30:38Z</time>
      </trkpt>
      <trkpt lat="59.3807569239" lon="17.8931249678">
        <ele>13</ele>
        <time>2011-05-01T14:30:41Z</time>
      </trkpt>
      <trkpt lat="59.3806659803" lon="17.8927709162">
        <ele>12</ele>
        <time>2011-05-01T14:30:44Z</time>
      </trkpt>
      <trkpt lat="59.38056699" lon="17.8924019448">
        <ele>12</ele>
        <time>2011-05-01T14:30:47Z</time>
      </trkpt>
      <trkpt lat="59.3804639764" lon="17.8920279443">
        <ele>12</ele>
        <time>2011-05-01T14:30:50Z</time>
      </trkpt>
      <trkpt lat="59.3803859409" lon="17.8916949313">
        <ele>12.6</ele>
        <time>2011-05-01T14:30:53Z</time>
      </trkpt>
      <trkpt lat="59.3802039698" lon="17.8914199211">
        <ele>12</ele>
        <time>2011-05-01T14:30:57Z</time>
      </trkpt>
      <trkpt lat="59.3799309712" lon="17.8914099466">
        <ele>12.6</ele>
        <time>2011-05-01T14:31:01Z</time>
      </trkpt>
      <trkpt lat="59.3796779215" lon="17.8916159738">
        <ele>11</ele>
        <time>2011-05-01T14:31:05Z</time>
      </trkpt>
      <trkpt lat="59.3794809468" lon="17.8920069896">
        <ele>12</ele>
        <time>2011-05-01T14:31:09Z</time>
      </trkpt>
      <trkpt lat="59.3793309946" lon="17.8922999371">
        <ele>10.6</ele>
        <time>2011-05-01T14:31:12Z</time>
      </trkpt>
      <trkpt lat="59.3792809546" lon="17.8923989274">
        <ele>10.2</ele>
        <time>2011-05-01T14:31:13Z</time>
      </trkpt>
      <trkpt lat="59.3791259732" lon="17.8926969878">
        <ele>12</ele>
        <time>2011-05-01T14:31:16Z</time>
      </trkpt>
      <trkpt lat="59.3790729996" lon="17.892790949">
        <ele>12</ele>
        <time>2011-05-01T14:31:17Z</time>
      </trkpt>
      <trkpt lat="59.3789139949" lon="17.8930659592">
        <ele>13</ele>
        <time>2011-05-01T14:31:20Z</time>
      </trkpt>
      <trkpt lat="59.3787519727" lon="17.8933189251">
        <ele>13.4</ele>
        <time>2011-05-01T14:31:23Z</time>
      </trkpt>
      <trkpt lat="59.3787019327" lon="17.8934079409">
        <ele>14</ele>
        <time>2011-05-01T14:31:24Z</time>
      </trkpt>
      <trkpt lat="59.3785469513" lon="17.8936559614">
        <ele>14.4</ele>
        <time>2011-05-01T14:31:27Z</time>
      </trkpt>
      <trkpt lat="59.3784399983" lon="17.8938109428">
        <ele>14</ele>
        <time>2011-05-01T14:31:29Z</time>
      </trkpt>
      <trkpt lat="59.378202958" lon="17.8940189816">
        <ele>15</ele>
        <time>2011-05-01T14:31:33Z</time>
      </trkpt>
      <trkpt lat="59.3780319672" lon="17.8941449616">
        <ele>15.4</ele>
        <time>2011-05-01T14:31:36Z</time>
      </trkpt>
      <trkpt lat="59.3778859545" lon="17.8942569438">
        <ele>17.8</ele>
        <time>2011-05-01T14:31:39Z</time>
      </trkpt>
      <trkpt lat="59.3777119461" lon="17.8943799902">
        <ele>20.8</ele>
        <time>2011-05-01T14:31:43Z</time>
      </trkpt>
      <trkpt lat="59.3775889836" lon="17.8944619652">
        <ele>21.6</ele>
        <time>2011-05-01T14:31:46Z</time>
      </trkpt>
      <trkpt lat="59.3774679489" lon="17.8945529927">
        <ele>23.6</ele>
        <time>2011-05-01T14:31:49Z</time>
      </trkpt>
      <trkpt lat="59.3773429748" lon="17.8946509771">
        <ele>24</ele>
        <time>2011-05-01T14:31:52Z</time>
      </trkpt>
      <trkpt lat="59.3771339301" lon="17.8948019352">
        <ele>25.6</ele>
        <time>2011-05-01T14:31:57Z</time>
      </trkpt>
      <trkpt lat="59.3769769371" lon="17.8949229699">
        <ele>25.6</ele>
        <time>2011-05-01T14:32:01Z</time>
      </trkpt>
      <trkpt lat="59.3768399768" lon="17.8950399812">
        <ele>25</ele>
        <time>2011-05-01T14:32:04Z</time>
      </trkpt>
      <trkpt lat="59.3766819779" lon="17.8952019196">
        <ele>23.6</ele>
        <time>2011-05-01T14:32:07Z</time>
      </trkpt>
      <trkpt lat="59.3765649665" lon="17.8953329287">
        <ele>23.2</ele>
        <time>2011-05-01T14:32:09Z</time>
      </trkpt>
      <trkpt lat="59.3763779663" lon="17.895563934">
        <ele>21.6</ele>
        <time>2011-05-01T14:32:12Z</time>
      </trkpt>
      <trkpt lat="59.3761659879" lon="17.895764932">
        <ele>21.2</ele>
        <time>2011-05-01T14:32:15Z</time>
      </trkpt>
      <trkpt lat="59.3759429455" lon="17.8959479928">
        <ele>20.2</ele>
        <time>2011-05-01T14:32:18Z</time>
      </trkpt>
      <trkpt lat="59.3757939991" lon="17.8960809298">
        <ele>19.2</ele>
        <time>2011-05-01T14:32:20Z</time>
      </trkpt>
      <trkpt lat="59.3755879719" lon="17.8962999489">
        <ele>19.2</ele>
        <time>2011-05-01T14:32:23Z</time>
      </trkpt>
      <trkpt lat="59.3754669372" lon="17.8964479733">
        <ele>20.2</ele>
        <time>2011-05-01T14:32:25Z</time>
      </trkpt>
      <trkpt lat="59.3753739819" lon="17.896606978">
        <ele>21.2</ele>
        <time>2011-05-01T14:32:27Z</time>
      </trkpt>
      <trkpt lat="59.3752679508" lon="17.8968559206">
        <ele>23.2</ele>
        <time>2011-05-01T14:32:30Z</time>
      </trkpt>
      <trkpt lat="59.375147" lon="17.8971209563">
        <ele>23.6</ele>
        <time>2011-05-01T14:32:33Z</time>
      </trkpt>
      <trkpt lat="59.3749349378" lon="17.8974409774">
        <ele>24</ele>
        <time>2011-05-01T14:32:37Z</time>
      </trkpt>
      <trkpt lat="59.3748749234" lon="17.8975039255">
        <ele>24</ele>
        <time>2011-05-01T14:32:38Z</time>
      </trkpt>
      <trkpt lat="59.3746259809" lon="17.8976229485">
        <ele>26</ele>
        <time>2011-05-01T14:32:42Z</time>
      </trkpt>
      <trkpt lat="59.3745659664" lon="17.8976249602">
        <ele>26.4</ele>
        <time>2011-05-01T14:32:43Z</time>
      </trkpt>
      <trkpt lat="59.3743329495" lon="17.8976249602">
        <ele>28</ele>
        <time>2011-05-01T14:32:47Z</time>
      </trkpt>
      <trkpt lat="59.3742749467" lon="17.8976219427">
        <ele>28.8</ele>
        <time>2011-05-01T14:32:48Z</time>
      </trkpt>
      <trkpt lat="59.374040924" lon="17.8976809513">
        <ele>29.8</ele>
        <time>2011-05-01T14:32:52Z</time>
      </trkpt>
      <trkpt lat="59.373826934" lon="17.8978639282">
        <ele>30.4</ele>
        <time>2011-05-01T14:32:56Z</time>
      </trkpt>
      <trkpt lat="59.3736829329" lon="17.8980429657">
        <ele>31.2</ele>
        <time>2011-05-01T14:32:59Z</time>
      </trkpt>
      <trkpt lat="59.373550918" lon="17.8982499987">
        <ele>30.8</ele>
        <time>2011-05-01T14:33:02Z</time>
      </trkpt>
      <trkpt lat="59.3734289613" lon="17.8984759748">
        <ele>30.8</ele>
        <time>2011-05-01T14:33:05Z</time>
      </trkpt>
      <trkpt lat="59.3733129557" lon="17.8987169545">
        <ele>31.2</ele>
        <time>2011-05-01T14:33:08Z</time>
      </trkpt>
      <trkpt lat="59.3731879815" lon="17.8989539947">
        <ele>29.4</ele>
        <time>2011-05-01T14:33:11Z</time>
      </trkpt>
      <trkpt lat="59.3730919249" lon="17.8991339542">
        <ele>28</ele>
        <time>2011-05-01T14:33:13Z</time>
      </trkpt>
      <trkpt lat="59.3729199283" lon="17.8993469384">
        <ele>26.4</ele>
        <time>2011-05-01T14:33:16Z</time>
      </trkpt>
      <trkpt lat="59.37274592" lon="17.8995089605">
        <ele>27.4</ele>
        <time>2011-05-01T14:33:21Z</time>
      </trkpt>
      <trkpt lat="59.3727149907" lon="17.8995509539">
        <ele>27.4</ele>
        <time>2011-05-01T14:33:22Z</time>
      </trkpt>
      <trkpt lat="59.3725389708" lon="17.8996649478">
        <ele>28</ele>
        <time>2011-05-01T14:33:26Z</time>
      </trkpt>
      <trkpt lat="59.3723009247" lon="17.8997049294">
        <ele>28.4</ele>
        <time>2011-05-01T14:33:30Z</time>
      </trkpt>
      <trkpt lat="59.3722369708" lon="17.8997299913">
        <ele>28</ele>
        <time>2011-05-01T14:33:31Z</time>
      </trkpt>
      <trkpt lat="59.3719889503" lon="17.8999299835">
        <ele>27.4</ele>
        <time>2011-05-01T14:33:35Z</time>
      </trkpt>
      <trkpt lat="59.371807985" lon="17.9001519363">
        <ele>27</ele>
        <time>2011-05-01T14:33:38Z</time>
      </trkpt>
      <trkpt lat="59.3716219906" lon="17.9003849532">
        <ele>26</ele>
        <time>2011-05-01T14:33:41Z</time>
      </trkpt>
      <trkpt lat="59.3714399356" lon="17.900649989">
        <ele>25.6</ele>
        <time>2011-05-01T14:33:44Z</time>
      </trkpt>
      <trkpt lat="59.3712529354" lon="17.9009109177">
        <ele>26</ele>
        <time>2011-05-01T14:33:47Z</time>
      </trkpt>
      <trkpt lat="59.3710479978" lon="17.9011239856">
        <ele>25.6</ele>
        <time>2011-05-01T14:33:50Z</time>
      </trkpt>
      <trkpt lat="59.3708239496" lon="17.9012629576">
        <ele>26</ele>
        <time>2011-05-01T14:33:53Z</time>
      </trkpt>
      <trkpt lat="59.3705119751" lon="17.9013159312">
        <ele>25</ele>
        <time>2011-05-01T14:33:57Z</time>
      </trkpt>
      <trkpt lat="59.3702629488" lon="17.901297994">
        <ele>23.6</ele>
        <time>2011-05-01T14:34:00Z</time>
      </trkpt>
      <trkpt lat="59.370003948" lon="17.9012199584">
        <ele>22.2</ele>
        <time>2011-05-01T14:34:03Z</time>
      </trkpt>
      <trkpt lat="59.3698269222" lon="17.9011209682">
        <ele>20.8</ele>
        <time>2011-05-01T14:34:05Z</time>
      </trkpt>
      <trkpt lat="59.3695539236" lon="17.9009429365">
        <ele>19.8</ele>
        <time>2011-05-01T14:34:08Z</time>
      </trkpt>
      <trkpt lat="59.3692649994" lon="17.9007639829">
        <ele>18.8</ele>
        <time>2011-05-01T14:34:11Z</time>
      </trkpt>
      <trkpt lat="59.3689499237" lon="17.9006489832">
        <ele>16.8</ele>
        <time>2011-05-01T14:34:14Z</time>
      </trkpt>
      <trkpt lat="59.3686249573" lon="17.9006219935">
        <ele>17.4</ele>
        <time>2011-05-01T14:34:17Z</time>
      </trkpt>
      <trkpt lat="59.3682979792" lon="17.9006669205">
        <ele>15.4</ele>
        <time>2011-05-01T14:34:20Z</time>
      </trkpt>
      <trkpt lat="59.3679579254" lon="17.9007369932">
        <ele>15.4</ele>
        <time>2011-05-01T14:34:23Z</time>
      </trkpt>
      <trkpt lat="59.3676319532" lon="17.9008019529">
        <ele>15</ele>
        <time>2011-05-01T14:34:26Z</time>
      </trkpt>
      <trkpt lat="59.3673099205" lon="17.9008739535">
        <ele>14.4</ele>
        <time>2011-05-01T14:34:29Z</time>
      </trkpt>
      <trkpt lat="59.3670019694" lon="17.900938997">
        <ele>13.4</ele>
        <time>2011-05-01T14:34:32Z</time>
      </trkpt>
      <trkpt lat="59.366708938" lon="17.9010009393">
        <ele>13.4</ele>
        <time>2011-05-01T14:34:35Z</time>
      </trkpt>
      <trkpt lat="59.3664269708" lon="17.9010609537">
        <ele>13.4</ele>
        <time>2011-05-01T14:34:38Z</time>
      </trkpt>
      <trkpt lat="59.3661539722" lon="17.9011229798">
        <ele>13.4</ele>
        <time>2011-05-01T14:34:41Z</time>
      </trkpt>
      <trkpt lat="59.3658799678" lon="17.9011799768">
        <ele>12</ele>
        <time>2011-05-01T14:34:44Z</time>
      </trkpt>
      <trkpt lat="59.3656059634" lon="17.901285924">
        <ele>11</ele>
        <time>2011-05-01T14:34:47Z</time>
      </trkpt>
      <trkpt lat="59.3653359823" lon="17.9014429171">
        <ele>12</ele>
        <time>2011-05-01T14:34:50Z</time>
      </trkpt>
      <trkpt lat="59.3650649954" lon="17.9016369581">
        <ele>11</ele>
        <time>2011-05-01T14:34:53Z</time>
      </trkpt>
      <trkpt lat="59.3647969421" lon="17.9018789437">
        <ele>9.6</ele>
        <time>2011-05-01T14:34:56Z</time>
      </trkpt>
      <trkpt lat="59.3645439763" lon="17.9021429736">
        <ele>9.2</ele>
        <time>2011-05-01T14:34:59Z</time>
      </trkpt>
      <trkpt lat="59.3642979674" lon="17.9023999628">
        <ele>9.2</ele>
        <time>2011-05-01T14:35:02Z</time>
      </trkpt>
      <trkpt lat="59.3640509527" lon="17.9026539344">
        <ele>10.2</ele>
        <time>2011-05-01T14:35:05Z</time>
      </trkpt>
      <trkpt lat="59.3638069555" lon="17.9029019549">
        <ele>10.2</ele>
        <time>2011-05-01T14:35:08Z</time>
      </trkpt>
      <trkpt lat="59.3635689933" lon="17.9031489696">
        <ele>10.2</ele>
        <time>2011-05-01T14:35:11Z</time>
      </trkpt>
      <trkpt lat="59.3633319531" lon="17.903397996">
        <ele>9.6</ele>
        <time>2011-05-01T14:35:14Z</time>
      </trkpt>
      <trkpt lat="59.3630959187" lon="17.9036459327">
        <ele>10.2</ele>
        <time>2011-05-01T14:35:17Z</time>
      </trkpt>
      <trkpt lat="59.3628659192" lon="17.9038769379">
        <ele>9.6</ele>
        <time>2011-05-01T14:35:20Z</time>
      </trkpt>
      <trkpt lat="59.3626399431" lon="17.9040819593">
        <ele>9.6</ele>
        <time>2011-05-01T14:35:23Z</time>
      </trkpt>
      <trkpt lat="59.362426959" lon="17.9042579792">
        <ele>10.2</ele>
        <time>2011-05-01T14:35:26Z</time>
      </trkpt>
      <trkpt lat="59.3622329179" lon="17.9044119548">
        <ele>11.6</ele>
        <time>2011-05-01T14:35:29Z</time>
      </trkpt>
      <trkpt lat="59.3621099554" lon="17.9045099393">
        <ele>12.6</ele>
        <time>2011-05-01T14:35:31Z</time>
      </trkpt>
      <trkpt lat="59.3619249668" lon="17.9046579637">
        <ele>11.6</ele>
        <time>2011-05-01T14:35:34Z</time>
      </trkpt>
      <trkpt lat="59.361740984" lon="17.9048049822">
        <ele>12.6</ele>
        <time>2011-05-01T14:35:37Z</time>
      </trkpt>
      <trkpt lat="59.3615549896" lon="17.9049529228">
        <ele>13</ele>
        <time>2011-05-01T14:35:40Z</time>
      </trkpt>
      <trkpt lat="59.3613689952" lon="17.9051049706">
        <ele>12.6</ele>
        <time>2011-05-01T14:35:43Z</time>
      </trkpt>
      <trkpt lat="59.3611839227" lon="17.9052569345">
        <ele>13.4</ele>
        <time>2011-05-01T14:35:46Z</time>
      </trkpt>
      <trkpt lat="59.3610039633" lon="17.9054029472">
        <ele>15</ele>
        <time>2011-05-01T14:35:49Z</time>
      </trkpt>
      <trkpt lat="59.3608339783" lon="17.9055409972">
        <ele>16.8</ele>
        <time>2011-05-01T14:35:52Z</time>
      </trkpt>
      <trkpt lat="59.3606749736" lon="17.9056729283">
        <ele>16.8</ele>
        <time>2011-05-01T14:35:55Z</time>
      </trkpt>
      <trkpt lat="59.360514963" lon="17.905799998">
        <ele>17.8</ele>
        <time>2011-05-01T14:35:58Z</time>
      </trkpt>
      <trkpt lat="59.3603549525" lon="17.9059389699">
        <ele>18.8</ele>
        <time>2011-05-01T14:36:01Z</time>
      </trkpt>
      <trkpt lat="59.3601929303" lon="17.9060889222">
        <ele>18.8</ele>
        <time>2011-05-01T14:36:04Z</time>
      </trkpt>
      <trkpt lat="59.360024957" lon="17.9062569793">
        <ele>18.8</ele>
        <time>2011-05-01T14:36:07Z</time>
      </trkpt>
      <trkpt lat="59.3598539662" lon="17.9064139724">
        <ele>18.8</ele>
        <time>2011-05-01T14:36:10Z</time>
      </trkpt>
      <trkpt lat="59.3596749287" lon="17.9065789282">
        <ele>17.8</ele>
        <time>2011-05-01T14:36:13Z</time>
      </trkpt>
      <trkpt lat="59.359546937" lon="17.9066649266">
        <ele>17.8</ele>
        <time>2011-05-01T14:36:15Z</time>
      </trkpt>
      <trkpt lat="59.3592999224" lon="17.9069199879">
        <ele>17.4</ele>
        <time>2011-05-01T14:36:19Z</time>
      </trkpt>
      <trkpt lat="59.3591099884" lon="17.9071319662">
        <ele>16.8</ele>
        <time>2011-05-01T14:36:22Z</time>
      </trkpt>
      <trkpt lat="59.3589099962" lon="17.9073389992">
        <ele>16.4</ele>
        <time>2011-05-01T14:36:25Z</time>
      </trkpt>
      <trkpt lat="59.3587049749" lon="17.9075589404">
        <ele>16.4</ele>
        <time>2011-05-01T14:36:28Z</time>
      </trkpt>
      <trkpt lat="59.3584989477" lon="17.9077969864">
        <ele>15.8</ele>
        <time>2011-05-01T14:36:31Z</time>
      </trkpt>
      <trkpt lat="59.3582989555" lon="17.9080339428">
        <ele>15.4</ele>
        <time>2011-05-01T14:36:34Z</time>
      </trkpt>
      <trkpt lat="59.3581079319" lon="17.9082829691">
        <ele>15.8</ele>
        <time>2011-05-01T14:36:37Z</time>
      </trkpt>
      <trkpt lat="59.3579229433" lon="17.9085409641">
        <ele>15.8</ele>
        <time>2011-05-01T14:36:40Z</time>
      </trkpt>
      <trkpt lat="59.3577459175" lon="17.9088129569">
        <ele>16.4</ele>
        <time>2011-05-01T14:36:43Z</time>
      </trkpt>
      <trkpt lat="59.3575679697" lon="17.9090989474">
        <ele>15.8</ele>
        <time>2011-05-01T14:36:46Z</time>
      </trkpt>
      <trkpt lat="59.3574479409" lon="17.9092979338">
        <ele>14.4</ele>
        <time>2011-05-01T14:36:48Z</time>
      </trkpt>
      <trkpt lat="59.3573259842" lon="17.9095049668">
        <ele>15</ele>
        <time>2011-05-01T14:36:50Z</time>
      </trkpt>
      <trkpt lat="59.3571319431" lon="17.9098179471">
        <ele>13</ele>
        <time>2011-05-01T14:36:53Z</time>
      </trkpt>
      <trkpt lat="59.3569229823" lon="17.9101229645">
        <ele>13</ele>
        <time>2011-05-01T14:36:56Z</time>
      </trkpt>
      <trkpt lat="59.3567199726" lon="17.9104519542">
        <ele>11.6</ele>
        <time>2011-05-01T14:36:59Z</time>
      </trkpt>
      <trkpt lat="59.3565269373" lon="17.9107809439">
        <ele>12</ele>
        <time>2011-05-01T14:37:02Z</time>
      </trkpt>
      <trkpt lat="59.3563389312" lon="17.9111119453">
        <ele>12</ele>
        <time>2011-05-01T14:37:05Z</time>
      </trkpt>
      <trkpt lat="59.3561499193" lon="17.9114459641">
        <ele>12</ele>
        <time>2011-05-01T14:37:08Z</time>
      </trkpt>
      <trkpt lat="59.3559589796" lon="17.9117679968">
        <ele>12.6</ele>
        <time>2011-05-01T14:37:11Z</time>
      </trkpt>
      <trkpt lat="59.3558309879" lon="17.9119789694">
        <ele>14</ele>
        <time>2011-05-01T14:37:13Z</time>
      </trkpt>
      <trkpt lat="59.3556389585" lon="17.9122969788">
        <ele>13.4</ele>
        <time>2011-05-01T14:37:16Z</time>
      </trkpt>
      <trkpt lat="59.3554469291" lon="17.9126189277">
        <ele>13.4</ele>
        <time>2011-05-01T14:37:19Z</time>
      </trkpt>
      <trkpt lat="59.3552569952" lon="17.9129299801">
        <ele>14</ele>
        <time>2011-05-01T14:37:22Z</time>
      </trkpt>
      <trkpt lat="59.3550689891" lon="17.9132349975">
        <ele>14</ele>
        <time>2011-05-01T14:37:25Z</time>
      </trkpt>
      <trkpt lat="59.3548799772" lon="17.9135419428">
        <ele>14.4</ele>
        <time>2011-05-01T14:37:28Z</time>
      </trkpt>
      <trkpt lat="59.3546939828" lon="17.9138479661">
        <ele>15.4</ele>
        <time>2011-05-01T14:37:31Z</time>
      </trkpt>
      <trkpt lat="59.354510922" lon="17.9141539894">
        <ele>15</ele>
        <time>2011-05-01T14:37:34Z</time>
      </trkpt>
      <trkpt lat="59.3543259334" lon="17.9144599289">
        <ele>15.4</ele>
        <time>2011-05-01T14:37:37Z</time>
      </trkpt>
      <trkpt lat="59.3541449681" lon="17.9147659522">
        <ele>13.4</ele>
        <time>2011-05-01T14:37:40Z</time>
      </trkpt>
      <trkpt lat="59.3539839517" lon="17.9151019827">
        <ele>12</ele>
        <time>2011-05-01T14:37:43Z</time>
      </trkpt>
      <trkpt lat="59.353881944" lon="17.9153369274">
        <ele>11</ele>
        <time>2011-05-01T14:37:45Z</time>
      </trkpt>
      <trkpt lat="59.3537269626" lon="17.9156769812">
        <ele>10.6</ele>
        <time>2011-05-01T14:37:48Z</time>
      </trkpt>
      <trkpt lat="59.353484977" lon="17.9160879459">
        <ele>10.6</ele>
        <time>2011-05-01T14:37:52Z</time>
      </trkpt>
      <trkpt lat="59.3531969748" lon="17.9166259803">
        <ele>13.4</ele>
        <time>2011-05-01T14:37:57Z</time>
      </trkpt>
      <trkpt lat="59.3529969826" lon="17.9168849811">
        <ele>13</ele>
        <time>2011-05-01T14:38:00Z</time>
      </trkpt>
      <trkpt lat="59.352787938" lon="17.9171199258">
        <ele>14</ele>
        <time>2011-05-01T14:38:03Z</time>
      </trkpt>
      <trkpt lat="59.3527199607" lon="17.9171989672">
        <ele>14</ele>
        <time>2011-05-01T14:38:04Z</time>
      </trkpt>
      <trkpt lat="59.3525219802" lon="17.9174399469">
        <ele>14.4</ele>
        <time>2011-05-01T14:38:07Z</time>
      </trkpt>
      <trkpt lat="59.3523879535" lon="17.917583948">
        <ele>15</ele>
        <time>2011-05-01T14:38:09Z</time>
      </trkpt>
      <trkpt lat="59.3521799985" lon="17.9177829344">
        <ele>15.4</ele>
        <time>2011-05-01T14:38:12Z</time>
      </trkpt>
      <trkpt lat="59.3519669306" lon="17.9179859441">
        <ele>15.4</ele>
        <time>2011-05-01T14:38:15Z</time>
      </trkpt>
      <trkpt lat="59.3517549522" lon="17.9181909654">
        <ele>15</ele>
        <time>2011-05-01T14:38:18Z</time>
      </trkpt>
      <trkpt lat="59.3515509367" lon="17.9184129182">
        <ele>15.8</ele>
        <time>2011-05-01T14:38:21Z</time>
      </trkpt>
      <trkpt lat="59.3513449933" lon="17.918670997">
        <ele>14</ele>
        <time>2011-05-01T14:38:24Z</time>
      </trkpt>
      <trkpt lat="59.3511459231" lon="17.9189569876">
        <ele>14.4</ele>
        <time>2011-05-01T14:38:27Z</time>
      </trkpt>
      <trkpt lat="59.3509109784" lon="17.919387985">
        <ele>14.4</ele>
        <time>2011-05-01T14:38:31Z</time>
      </trkpt>
      <trkpt lat="59.3507509679" lon="17.9197259434">
        <ele>14.4</ele>
        <time>2011-05-01T14:38:34Z</time>
      </trkpt>
      <trkpt lat="59.3506019376" lon="17.9200589564">
        <ele>14.4</ele>
        <time>2011-05-01T14:38:37Z</time>
      </trkpt>
      <trkpt lat="59.3504579365" lon="17.9203839228">
        <ele>15.4</ele>
        <time>2011-05-01T14:38:40Z</time>
      </trkpt>
      <trkpt lat="59.3503079843" lon="17.9207149241">
        <ele>15.4</ele>
        <time>2011-05-01T14:38:43Z</time>
      </trkpt>
      <trkpt lat="59.3501459621" lon="17.9210609291">
        <ele>15.4</ele>
        <time>2011-05-01T14:38:46Z</time>
      </trkpt>
      <trkpt lat="59.349988969" lon="17.9214399587">
        <ele>14.4</ele>
        <time>2011-05-01T14:38:49Z</time>
      </trkpt>
      <trkpt lat="59.3498529308" lon="17.9218419548">
        <ele>14.4</ele>
        <time>2011-05-01T14:38:52Z</time>
      </trkpt>
      <trkpt lat="59.3497279566" lon="17.9222459625">
        <ele>13</ele>
        <time>2011-05-01T14:38:55Z</time>
      </trkpt>
      <trkpt lat="59.349617986" lon="17.9226689972">
        <ele>12</ele>
        <time>2011-05-01T14:38:58Z</time>
      </trkpt>
      <trkpt lat="59.3495169841" lon="17.9230959713">
        <ele>12.6</ele>
        <time>2011-05-01T14:39:01Z</time>
      </trkpt>
      <trkpt lat="59.3494129647" lon="17.9235459957">
        <ele>12</ele>
        <time>2011-05-01T14:39:04Z</time>
      </trkpt>
      <trkpt lat="59.3492999766" lon="17.9239819385">
        <ele>12.6</ele>
        <time>2011-05-01T14:39:07Z</time>
      </trkpt>
      <trkpt lat="59.3491729908" lon="17.9243899696">
        <ele>10.6</ele>
        <time>2011-05-01T14:39:10Z</time>
      </trkpt>
      <trkpt lat="59.3490319233" lon="17.9247849248">
        <ele>11</ele>
        <time>2011-05-01T14:39:13Z</time>
      </trkpt>
      <trkpt lat="59.3488749303" lon="17.925160937">
        <ele>12.6</ele>
        <time>2011-05-01T14:39:16Z</time>
      </trkpt>
      <trkpt lat="59.348700922" lon="17.92549395">
        <ele>14</ele>
        <time>2011-05-01T14:39:19Z</time>
      </trkpt>
      <trkpt lat="59.3485169392" lon="17.92579595">
        <ele>12.6</ele>
        <time>2011-05-01T14:39:22Z</time>
      </trkpt>
      <trkpt lat="59.3483309448" lon="17.9260669369">
        <ele>15.8</ele>
        <time>2011-05-01T14:39:25Z</time>
      </trkpt>
      <trkpt lat="59.3481399212" lon="17.9263449647">
        <ele>14.4</ele>
        <time>2011-05-01T14:39:28Z</time>
      </trkpt>
      <trkpt lat="59.3480089959" lon="17.9265309591">
        <ele>15.8</ele>
        <time>2011-05-01T14:39:30Z</time>
      </trkpt>
      <trkpt lat="59.347813949" lon="17.9268009402">
        <ele>15.4</ele>
        <time>2011-05-01T14:39:33Z</time>
      </trkpt>
      <trkpt lat="59.3476169743" lon="17.9270699993">
        <ele>15.8</ele>
        <time>2011-05-01T14:39:36Z</time>
      </trkpt>
      <trkpt lat="59.3474079296" lon="17.9273079615">
        <ele>16.4</ele>
        <time>2011-05-01T14:39:39Z</time>
      </trkpt>
      <trkpt lat="59.347191928" lon="17.9274899326">
        <ele>16.4</ele>
        <time>2011-05-01T14:39:42Z</time>
      </trkpt>
      <trkpt lat="59.3469919357" lon="17.9276989773">
        <ele>14.4</ele>
        <time>2011-05-01T14:39:45Z</time>
      </trkpt>
      <trkpt lat="59.346800996" lon="17.9278979637">
        <ele>15.4</ele>
        <time>2011-05-01T14:39:48Z</time>
      </trkpt>
      <trkpt lat="59.3466089666" lon="17.9280749895">
        <ele>16.4</ele>
        <time>2011-05-01T14:39:51Z</time>
      </trkpt>
      <trkpt lat="59.3464229722" lon="17.9282449745">
        <ele>16.4</ele>
        <time>2011-05-01T14:39:54Z</time>
      </trkpt>
      <trkpt lat="59.3462349661" lon="17.9284249339">
        <ele>17.4</ele>
        <time>2011-05-01T14:39:57Z</time>
      </trkpt>
      <trkpt lat="59.3460489716" lon="17.9286069889">
        <ele>17.4</ele>
        <time>2011-05-01T14:40:00Z</time>
      </trkpt>
      <trkpt lat="59.34587094" lon="17.9287789855">
        <ele>17.8</ele>
        <time>2011-05-01T14:40:03Z</time>
      </trkpt>
      <trkpt lat="59.3456999492" lon="17.928945953">
        <ele>18.4</ele>
        <time>2011-05-01T14:40:06Z</time>
      </trkpt>
      <trkpt lat="59.3455359992" lon="17.9291039519">
        <ele>18.8</ele>
        <time>2011-05-01T14:40:09Z</time>
      </trkpt>
      <trkpt lat="59.3453659303" lon="17.9292669799">
        <ele>17.8</ele>
        <time>2011-05-01T14:40:12Z</time>
      </trkpt>
      <trkpt lat="59.3451889884" lon="17.9294439219">
        <ele>18.4</ele>
        <time>2011-05-01T14:40:15Z</time>
      </trkpt>
      <trkpt lat="59.3450149801" lon="17.9296429921">
        <ele>17.4</ele>
        <time>2011-05-01T14:40:18Z</time>
      </trkpt>
      <trkpt lat="59.3448479287" lon="17.929882966">
        <ele>18.4</ele>
        <time>2011-05-01T14:40:21Z</time>
      </trkpt>
      <trkpt lat="59.3446789496" lon="17.9301549587">
        <ele>16.4</ele>
        <time>2011-05-01T14:40:24Z</time>
      </trkpt>
      <trkpt lat="59.3445209507" lon="17.9304289632">
        <ele>16.4</ele>
        <time>2011-05-01T14:40:27Z</time>
      </trkpt>
      <trkpt lat="59.344354989" lon="17.9307199828">
        <ele>15.4</ele>
        <time>2011-05-01T14:40:30Z</time>
      </trkpt>
      <trkpt lat="59.344191961" lon="17.931014942">
        <ele>16.4</ele>
        <time>2011-05-01T14:40:33Z</time>
      </trkpt>
      <trkpt lat="59.3440319505" lon="17.9313029442">
        <ele>15</ele>
        <time>2011-05-01T14:40:36Z</time>
      </trkpt>
      <trkpt lat="59.3438729458" lon="17.931592958">
        <ele>14.4</ele>
        <time>2011-05-01T14:40:39Z</time>
      </trkpt>
      <trkpt lat="59.3437169585" lon="17.9318779428">
        <ele>14</ele>
        <time>2011-05-01T14:40:42Z</time>
      </trkpt>
      <trkpt lat="59.3435579538" lon="17.9321629275">
        <ele>13</ele>
        <time>2011-05-01T14:40:45Z</time>
      </trkpt>
      <trkpt lat="59.3435069919" lon="17.9322609957">
        <ele>13</ele>
        <time>2011-05-01T14:40:46Z</time>
      </trkpt>
      <trkpt lat="59.3433259428" lon="17.9326959327">
        <ele>12.6</ele>
        <time>2011-05-01T14:40:50Z</time>
      </trkpt>
      <trkpt lat="59.3430999666" lon="17.9331159499">
        <ele>12</ele>
        <time>2011-05-01T14:40:54Z</time>
      </trkpt>
      <trkpt lat="59.342914978" lon="17.9334439337">
        <ele>11</ele>
        <time>2011-05-01T14:40:57Z</time>
      </trkpt>
      <trkpt lat="59.3427309953" lon="17.9337779526">
        <ele>9.2</ele>
        <time>2011-05-01T14:41:00Z</time>
      </trkpt>
      <trkpt lat="59.3425519578" lon="17.9341479298">
        <ele>8.2</ele>
        <time>2011-05-01T14:41:03Z</time>
      </trkpt>
      <trkpt lat="59.3423799612" lon="17.9345529433">
        <ele>7.8</ele>
        <time>2011-05-01T14:41:06Z</time>
      </trkpt>
      <trkpt lat="59.3422099762" lon="17.9349909816">
        <ele>6.2</ele>
        <time>2011-05-01T14:41:09Z</time>
      </trkpt>
      <trkpt lat="59.3420939706" lon="17.9352929816">
        <ele>3.4</ele>
        <time>2011-05-01T14:41:11Z</time>
      </trkpt>
      <trkpt lat="59.341921974" lon="17.9357529804">
        <ele>2.4</ele>
        <time>2011-05-01T14:41:14Z</time>
      </trkpt>
      <trkpt lat="59.3417549226" lon="17.9362049326">
        <ele>3</ele>
        <time>2011-05-01T14:41:17Z</time>
      </trkpt>
      <trkpt lat="59.3416119274" lon="17.9366259556">
        <ele>2.4</ele>
        <time>2011-05-01T14:41:20Z</time>
      </trkpt>
      <trkpt lat="59.3414429482" lon="17.9370149598">
        <ele>3</ele>
        <time>2011-05-01T14:41:23Z</time>
      </trkpt>
      <trkpt lat="59.341286961" lon="17.9374259245">
        <ele>2.4</ele>
        <time>2011-05-01T14:41:26Z</time>
      </trkpt>
      <trkpt lat="59.3411419541" lon="17.9378169402">
        <ele>3</ele>
        <time>2011-05-01T14:41:29Z</time>
      </trkpt>
      <trkpt lat="59.3410269544" lon="17.9381899349">
        <ele>3</ele>
        <time>2011-05-01T14:41:32Z</time>
      </trkpt>
      <trkpt lat="59.3408889882" lon="17.9385259654">
        <ele>2.4</ele>
        <time>2011-05-01T14:41:35Z</time>
      </trkpt>
      <trkpt lat="59.3407519441" lon="17.9388389457">
        <ele>3</ele>
        <time>2011-05-01T14:41:38Z</time>
      </trkpt>
      <trkpt lat="59.3405629322" lon="17.9391469806">
        <ele>3.4</ele>
        <time>2011-05-01T14:41:42Z</time>
      </trkpt>
      <trkpt lat="59.340487998" lon="17.9392919876">
        <ele>3.4</ele>
        <time>2011-05-01T14:41:44Z</time>
      </trkpt>
      <trkpt lat="59.3403089605" lon="17.9394949973">
        <ele>3.8</ele>
        <time>2011-05-01T14:41:48Z</time>
      </trkpt>
      <trkpt lat="59.3402599264" lon="17.9395319615">
        <ele>4.4</ele>
        <time>2011-05-01T14:41:49Z</time>
      </trkpt>
      <trkpt lat="59.3400909472" lon="17.9398789722">
        <ele>4.8</ele>
        <time>2011-05-01T14:41:54Z</time>
      </trkpt>
      <trkpt lat="59.3399049528" lon="17.9403089639">
        <ele>4.8</ele>
        <time>2011-05-01T14:42:00Z</time>
      </trkpt>
      <trkpt lat="59.3397829961" lon="17.9404869955">
        <ele>5.4</ele>
        <time>2011-05-01T14:42:03Z</time>
      </trkpt>
      <trkpt lat="59.3396799825" lon="17.9406709783">
        <ele>5.4</ele>
        <time>2011-05-01T14:42:07Z</time>
      </trkpt>
      <trkpt lat="59.3396509811" lon="17.940728981">
        <ele>4.8</ele>
        <time>2011-05-01T14:42:09Z</time>
      </trkpt>
      <trkpt lat="59.33963296" lon="17.9407379497">
        <ele>5.4</ele>
        <time>2011-05-01T14:42:11Z</time>
      </trkpt>
      <trkpt lat="59.3395979237" lon="17.9406629317">
        <ele>5.4</ele>
        <time>2011-05-01T14:42:33Z</time>
      </trkpt>
      <trkpt lat="59.3394819181" lon="17.9405959602">
        <ele>4.8</ele>
        <time>2011-05-01T14:42:38Z</time>
      </trkpt>
      <trkpt lat="59.3394569401" lon="17.9405819625">
        <ele>4.8</ele>
        <time>2011-05-01T14:42:39Z</time>
      </trkpt>
      <trkpt lat="59.3393659964" lon="17.9407689627">
        <ele>4.4</ele>
        <time>2011-05-01T14:42:43Z</time>
      </trkpt>
      <trkpt lat="59.3392939959" lon="17.9411439691">
        <ele>4.8</ele>
        <time>2011-05-01T14:42:47Z</time>
      </trkpt>
      <trkpt lat="59.3392409384" lon="17.9414759763">
        <ele>3.4</ele>
        <time>2011-05-01T14:42:50Z</time>
      </trkpt>
      <trkpt lat="59.3391759787" lon="17.9418239929">
        <ele>4.8</ele>
        <time>2011-05-01T14:42:53Z</time>
      </trkpt>
      <trkpt lat="59.3391109351" lon="17.9421849176">
        <ele>3.8</ele>
        <time>2011-05-01T14:42:56Z</time>
      </trkpt>
      <trkpt lat="59.3390449695" lon="17.942546932">
        <ele>4.4</ele>
        <time>2011-05-01T14:42:59Z</time>
      </trkpt>
      <trkpt lat="59.3389819376" lon="17.9429109581">
        <ele>4.4</ele>
        <time>2011-05-01T14:43:02Z</time>
      </trkpt>
      <trkpt lat="59.3389169779" lon="17.9432909936">
        <ele>4.8</ele>
        <time>2011-05-01T14:43:05Z</time>
      </trkpt>
      <trkpt lat="59.3388479948" lon="17.943677986">
        <ele>4.4</ele>
        <time>2011-05-01T14:43:08Z</time>
      </trkpt>
      <trkpt lat="59.3387629185" lon="17.9440819938">
        <ele>4.4</ele>
        <time>2011-05-01T14:43:11Z</time>
      </trkpt>
      <trkpt lat="59.3386899959" lon="17.944482984">
        <ele>4.4</ele>
        <time>2011-05-01T14:43:14Z</time>
      </trkpt>
      <trkpt lat="59.3386229407" lon="17.9448779393">
        <ele>3.4</ele>
        <time>2011-05-01T14:43:17Z</time>
      </trkpt>
      <trkpt lat="59.3385369424" lon="17.945287982">
        <ele>3.8</ele>
        <time>2011-05-01T14:43:20Z</time>
      </trkpt>
      <trkpt lat="59.3384599965" lon="17.9457019642">
        <ele>4.4</ele>
        <time>2011-05-01T14:43:23Z</time>
      </trkpt>
      <trkpt lat="59.3383799493" lon="17.9461139347">
        <ele>3.8</ele>
        <time>2011-05-01T14:43:26Z</time>
      </trkpt>
      <trkpt lat="59.3383089546" lon="17.9465119913">
        <ele>3</ele>
        <time>2011-05-01T14:43:29Z</time>
      </trkpt>
      <trkpt lat="59.3382349424" lon="17.9469079524">
        <ele>2.4</ele>
        <time>2011-05-01T14:43:32Z</time>
      </trkpt>
      <trkpt lat="59.3381589185" lon="17.947312966">
        <ele>3.8</ele>
        <time>2011-05-01T14:43:35Z</time>
      </trkpt>
      <trkpt lat="59.3380839843" lon="17.9476999585">
        <ele>3</ele>
        <time>2011-05-01T14:43:38Z</time>
      </trkpt>
      <trkpt lat="59.3380139954" lon="17.9480799939">
        <ele>3</ele>
        <time>2011-05-01T14:43:41Z</time>
      </trkpt>
      <trkpt lat="59.3379429169" lon="17.9484709259">
        <ele>4.4</ele>
        <time>2011-05-01T14:43:44Z</time>
      </trkpt>
      <trkpt lat="59.3378739338" lon="17.9488569964">
        <ele>3.8</ele>
        <time>2011-05-01T14:43:47Z</time>
      </trkpt>
      <trkpt lat="59.3378029391" lon="17.9492479283">
        <ele>3.8</ele>
        <time>2011-05-01T14:43:50Z</time>
      </trkpt>
      <trkpt lat="59.3377269991" lon="17.9496479966">
        <ele>3.4</ele>
        <time>2011-05-01T14:43:53Z</time>
      </trkpt>
      <trkpt lat="59.3376509752" lon="17.9500649963">
        <ele>3.4</ele>
        <time>2011-05-01T14:43:56Z</time>
      </trkpt>
      <trkpt lat="59.337570928" lon="17.9504879471">
        <ele>3.4</ele>
        <time>2011-05-01T14:43:59Z</time>
      </trkpt>
      <trkpt lat="59.3374879472" lon="17.9509179387">
        <ele>2.4</ele>
        <time>2011-05-01T14:44:02Z</time>
      </trkpt>
      <trkpt lat="59.337400943" lon="17.9513709806">
        <ele>2.4</ele>
        <time>2011-05-01T14:44:05Z</time>
      </trkpt>
      <trkpt lat="59.3373179622" lon="17.9518019781">
        <ele>3.8</ele>
        <time>2011-05-01T14:44:08Z</time>
      </trkpt>
      <trkpt lat="59.3372379988" lon="17.9521979392">
        <ele>3.8</ele>
        <time>2011-05-01T14:44:11Z</time>
      </trkpt>
      <trkpt lat="59.33720598" lon="17.9523189738">
        <ele>3.8</ele>
        <time>2011-05-01T14:44:12Z</time>
      </trkpt>
      <trkpt lat="59.3370649964" lon="17.9528119974">
        <ele>3.4</ele>
        <time>2011-05-01T14:44:16Z</time>
      </trkpt>
      <trkpt lat="59.337036917" lon="17.9531119857">
        <ele>3</ele>
        <time>2011-05-01T14:44:18Z</time>
      </trkpt>
      <trkpt lat="59.3370049819" lon="17.953405939">
        <ele>3</ele>
        <time>2011-05-01T14:44:20Z</time>
      </trkpt>
      <trkpt lat="59.3369219173" lon="17.9538439773">
        <ele>4.4</ele>
        <time>2011-05-01T14:44:23Z</time>
      </trkpt>
      <trkpt lat="59.3368359189" lon="17.9542899784">
        <ele>3</ele>
        <time>2011-05-01T14:44:26Z</time>
      </trkpt>
      <trkpt lat="59.3367799278" lon="17.9547349736">
        <ele>3.8</ele>
        <time>2011-05-01T14:44:29Z</time>
      </trkpt>
      <trkpt lat="59.3366949353" lon="17.9551529791">
        <ele>3.4</ele>
        <time>2011-05-01T14:44:32Z</time>
      </trkpt>
      <trkpt lat="59.3366139662" lon="17.9555569869">
        <ele>3.4</ele>
        <time>2011-05-01T14:44:35Z</time>
      </trkpt>
      <trkpt lat="59.3365439773" lon="17.9559229407">
        <ele>5.4</ele>
        <time>2011-05-01T14:44:38Z</time>
      </trkpt>
      <trkpt lat="59.336495949" lon="17.9561689496">
        <ele>6.2</ele>
        <time>2011-05-01T14:44:40Z</time>
      </trkpt>
      <trkpt lat="59.3364289775" lon="17.9565279465">
        <ele>6.8</ele>
        <time>2011-05-01T14:44:43Z</time>
      </trkpt>
      <trkpt lat="59.3363619223" lon="17.9568879493">
        <ele>6.2</ele>
        <time>2011-05-01T14:44:46Z</time>
      </trkpt>
      <trkpt lat="59.3362949509" lon="17.9572299309">
        <ele>6.8</ele>
        <time>2011-05-01T14:44:49Z</time>
      </trkpt>
      <trkpt lat="59.3362359423" lon="17.9575629439">
        <ele>7.8</ele>
        <time>2011-05-01T14:44:52Z</time>
      </trkpt>
      <trkpt lat="59.3361759279" lon="17.95787693">
        <ele>8.6</ele>
        <time>2011-05-01T14:44:55Z</time>
      </trkpt>
      <trkpt lat="59.336118931" lon="17.9581999686">
        <ele>8.2</ele>
        <time>2011-05-01T14:44:58Z</time>
      </trkpt>
      <trkpt lat="59.3360499479" lon="17.958548991">
        <ele>8.2</ele>
        <time>2011-05-01T14:45:01Z</time>
      </trkpt>
      <trkpt lat="59.3359849881" lon="17.9589079879">
        <ele>9.2</ele>
        <time>2011-05-01T14:45:04Z</time>
      </trkpt>
      <trkpt lat="59.3359199446" lon="17.959272936">
        <ele>9.6</ele>
        <time>2011-05-01T14:45:07Z</time>
      </trkpt>
      <trkpt lat="59.3358519673" lon="17.959636962">
        <ele>10.6</ele>
        <time>2011-05-01T14:45:10Z</time>
      </trkpt>
      <trkpt lat="59.335778961" lon="17.9600119684">
        <ele>11</ele>
        <time>2011-05-01T14:45:13Z</time>
      </trkpt>
      <trkpt lat="59.3357049488" lon="17.9603849631">
        <ele>12.6</ele>
        <time>2011-05-01T14:45:16Z</time>
      </trkpt>
      <trkpt lat="59.335633954" lon="17.9607449658">
        <ele>12</ele>
        <time>2011-05-01T14:45:19Z</time>
      </trkpt>
      <trkpt lat="59.3355709221" lon="17.9611099977">
        <ele>11.6</ele>
        <time>2011-05-01T14:45:22Z</time>
      </trkpt>
      <trkpt lat="59.3355069682" lon="17.961466983">
        <ele>11</ele>
        <time>2011-05-01T14:45:25Z</time>
      </trkpt>
      <trkpt lat="59.335438991" lon="17.961824974">
        <ele>12.6</ele>
        <time>2011-05-01T14:45:28Z</time>
      </trkpt>
      <trkpt lat="59.3353679962" lon="17.9621899221">
        <ele>11.6</ele>
        <time>2011-05-01T14:45:31Z</time>
      </trkpt>
      <trkpt lat="59.3352959957" lon="17.962548919">
        <ele>10.6</ele>
        <time>2011-05-01T14:45:34Z</time>
      </trkpt>
      <trkpt lat="59.3352489732" lon="17.9627919942">
        <ele>11.6</ele>
        <time>2011-05-01T14:45:36Z</time>
      </trkpt>
      <trkpt lat="59.335181918" lon="17.9631559364">
        <ele>10.6</ele>
        <time>2011-05-01T14:45:39Z</time>
      </trkpt>
      <trkpt lat="59.3351169582" lon="17.963516945">
        <ele>10.6</ele>
        <time>2011-05-01T14:45:42Z</time>
      </trkpt>
      <trkpt lat="59.335055938" lon="17.9638759419">
        <ele>10.6</ele>
        <time>2011-05-01T14:45:45Z</time>
      </trkpt>
      <trkpt lat="59.334998941" lon="17.964246925">
        <ele>10.6</ele>
        <time>2011-05-01T14:45:48Z</time>
      </trkpt>
      <trkpt lat="59.3349449616" lon="17.9646259546">
        <ele>10.2</ele>
        <time>2011-05-01T14:45:51Z</time>
      </trkpt>
      <trkpt lat="59.3348889705" lon="17.9650149588">
        <ele>9.6</ele>
        <time>2011-05-01T14:45:54Z</time>
      </trkpt>
      <trkpt lat="59.3348389305" lon="17.9654129315">
        <ele>10.2</ele>
        <time>2011-05-01T14:45:57Z</time>
      </trkpt>
      <trkpt lat="59.3348399363" lon="17.9659789614">
        <ele>8.2</ele>
        <time>2011-05-01T14:46:01Z</time>
      </trkpt>
      <trkpt lat="59.3347799219" lon="17.9665579833">
        <ele>8.6</ele>
        <time>2011-05-01T14:46:05Z</time>
      </trkpt>
      <trkpt lat="59.3347169738" lon="17.967005996">
        <ele>7.8</ele>
        <time>2011-05-01T14:46:08Z</time>
      </trkpt>
      <trkpt lat="59.3346759863" lon="17.9673099238">
        <ele>6.8</ele>
        <time>2011-05-01T14:46:10Z</time>
      </trkpt>
      <trkpt lat="59.334621923" lon="17.9677109979">
        <ele>8.2</ele>
        <time>2011-05-01T14:46:13Z</time>
      </trkpt>
      <trkpt lat="59.3346049916" lon="17.9678199627">
        <ele>7.8</ele>
        <time>2011-05-01T14:46:14Z</time>
      </trkpt>
      <trkpt lat="59.3345299736" lon="17.968068989">
        <ele>9.2</ele>
        <time>2011-05-01T14:46:18Z</time>
      </trkpt>
      <trkpt lat="59.3345169816" lon="17.9681059532">
        <ele>9.2</ele>
        <time>2011-05-01T14:46:21Z</time>
      </trkpt>
      <trkpt lat="59.3345139641" lon="17.9681059532">
        <ele>9.6</ele>
        <time>2011-05-01T14:46:25Z</time>
      </trkpt>
      <trkpt lat="59.3344729766" lon="17.9682029318">
        <ele>9.6</ele>
        <time>2011-05-01T14:46:28Z</time>
      </trkpt>
      <trkpt lat="59.3344089389" lon="17.9683759343">
        <ele>8.6</ele>
        <time>2011-05-01T14:46:31Z</time>
      </trkpt>
      <trkpt lat="59.3343549594" lon="17.9687619209">
        <ele>8.2</ele>
        <time>2011-05-01T14:46:35Z</time>
      </trkpt>
      <trkpt lat="59.3343269639" lon="17.9690939281">
        <ele>7.8</ele>
        <time>2011-05-01T14:46:38Z</time>
      </trkpt>
      <trkpt lat="59.3342969567" lon="17.9694469739">
        <ele>8.2</ele>
        <time>2011-05-01T14:46:41Z</time>
      </trkpt>
      <trkpt lat="59.334256975" lon="17.9698179569">
        <ele>7.8</ele>
        <time>2011-05-01T14:46:44Z</time>
      </trkpt>
      <trkpt lat="59.3342109583" lon="17.9701939691">
        <ele>8.2</ele>
        <time>2011-05-01T14:46:47Z</time>
      </trkpt>
      <trkpt lat="59.3341439869" lon="17.9705669638">
        <ele>9.2</ele>
        <time>2011-05-01T14:46:50Z</time>
      </trkpt>
      <trkpt lat="59.3340659514" lon="17.9709449876">
        <ele>9.2</ele>
        <time>2011-05-01T14:46:53Z</time>
      </trkpt>
      <trkpt lat="59.333992945" lon="17.9713209998">
        <ele>7.8</ele>
        <time>2011-05-01T14:46:56Z</time>
      </trkpt>
      <trkpt lat="59.3339229561" lon="17.971684942">
        <ele>8.2</ele>
        <time>2011-05-01T14:46:59Z</time>
      </trkpt>
      <trkpt lat="59.3338529672" lon="17.9720439389">
        <ele>8.2</ele>
        <time>2011-05-01T14:47:02Z</time>
      </trkpt>
      <trkpt lat="59.3337839842" lon="17.9723979905">
        <ele>8.2</ele>
        <time>2011-05-01T14:47:05Z</time>
      </trkpt>
      <trkpt lat="59.3337159231" lon="17.9727489408">
        <ele>7.2</ele>
        <time>2011-05-01T14:47:08Z</time>
      </trkpt>
      <trkpt lat="59.3336479459" lon="17.9730979633">
        <ele>8.6</ele>
        <time>2011-05-01T14:47:11Z</time>
      </trkpt>
      <trkpt lat="59.3335799687" lon="17.9734509252">
        <ele>10.2</ele>
        <time>2011-05-01T14:47:14Z</time>
      </trkpt>
      <trkpt lat="59.3335069623" lon="17.9738009535">
        <ele>9.2</ele>
        <time>2011-05-01T14:47:17Z</time>
      </trkpt>
      <trkpt lat="59.3334299326" lon="17.9741409235">
        <ele>8.6</ele>
        <time>2011-05-01T14:47:20Z</time>
      </trkpt>
      <trkpt lat="59.3333559204" lon="17.9744869284">
        <ele>8.2</ele>
        <time>2011-05-01T14:47:23Z</time>
      </trkpt>
      <trkpt lat="59.3332879432" lon="17.9748329334">
        <ele>9.6</ele>
        <time>2011-05-01T14:47:26Z</time>
      </trkpt>
      <trkpt lat="59.3332369812" lon="17.9751879908">
        <ele>10.2</ele>
        <time>2011-05-01T14:47:29Z</time>
      </trkpt>
      <trkpt lat="59.3331789784" lon="17.9755349178">
        <ele>10.2</ele>
        <time>2011-05-01T14:47:32Z</time>
      </trkpt>
      <trkpt lat="59.3331139348" lon="17.975853933">
        <ele>9.2</ele>
        <time>2011-05-01T14:47:35Z</time>
      </trkpt>
      <trkpt lat="59.3330589496" lon="17.9761669971">
        <ele>9.6</ele>
        <time>2011-05-01T14:47:38Z</time>
      </trkpt>
      <trkpt lat="59.333030954" lon="17.9763519857">
        <ele>9.2</ele>
        <time>2011-05-01T14:47:40Z</time>
      </trkpt>
      <trkpt lat="59.3330279365" lon="17.9766409937">
        <ele>9.6</ele>
        <time>2011-05-01T14:47:44Z</time>
      </trkpt>
      <trkpt lat="59.3330349773" lon="17.9766819812">
        <ele>10.2</ele>
        <time>2011-05-01T14:47:46Z</time>
      </trkpt>
      <trkpt lat="59.3330409285" lon="17.9766919557">
        <ele>10.2</ele>
        <time>2011-05-01T14:47:56Z</time>
      </trkpt>
      <trkpt lat="59.3331029546" lon="17.9768269882">
        <ele>9.6</ele>
        <time>2011-05-01T14:48:00Z</time>
      </trkpt>
      <trkpt lat="59.3331519887" lon="17.9769199435">
        <ele>9.2</ele>
        <time>2011-05-01T14:48:02Z</time>
      </trkpt>
      <trkpt lat="59.3332189601" lon="17.9770259745">
        <ele>9.2</ele>
        <time>2011-05-01T14:48:04Z</time>
      </trkpt>
      <trkpt lat="59.3333829939" lon="17.9772579856">
        <ele>9.2</ele>
        <time>2011-05-01T14:48:08Z</time>
      </trkpt>
      <trkpt lat="59.3334249873" lon="17.9773219395">
        <ele>9.2</ele>
        <time>2011-05-01T14:48:09Z</time>
      </trkpt>
      <trkpt lat="59.333533952" lon="17.9777119495">
        <ele>9.6</ele>
        <time>2011-05-01T14:48:13Z</time>
      </trkpt>
      <trkpt lat="59.3335329462" lon="17.977840947">
        <ele>9.6</ele>
        <time>2011-05-01T14:48:14Z</time>
      </trkpt>
      <trkpt lat="59.333495982" lon="17.9783629719">
        <ele>9.6</ele>
        <time>2011-05-01T14:48:18Z</time>
      </trkpt>
      <trkpt lat="59.3334559165" lon="17.9787669796">
        <ele>9.2</ele>
        <time>2011-05-01T14:48:21Z</time>
      </trkpt>
      <trkpt lat="59.3334169406" lon="17.9791839793">
        <ele>9.6</ele>
        <time>2011-05-01T14:48:24Z</time>
      </trkpt>
      <trkpt lat="59.3333749473" lon="17.9795939382">
        <ele>10.2</ele>
        <time>2011-05-01T14:48:27Z</time>
      </trkpt>
      <trkpt lat="59.3333169445" lon="17.980022924">
        <ele>9.2</ele>
        <time>2011-05-01T14:48:30Z</time>
      </trkpt>
      <trkpt lat="59.3332609534" lon="17.9804359842">
        <ele>10.6</ele>
        <time>2011-05-01T14:48:33Z</time>
      </trkpt>
      <trkpt lat="59.3332039565" lon="17.9808519781">
        <ele>9.6</ele>
        <time>2011-05-01T14:48:36Z</time>
      </trkpt>
      <trkpt lat="59.3331519887" lon="17.9812719952">
        <ele>9.6</ele>
        <time>2011-05-01T14:48:39Z</time>
      </trkpt>
      <trkpt lat="59.333112929" lon="17.9817129672">
        <ele>10.2</ele>
        <time>2011-05-01T14:48:42Z</time>
      </trkpt>
      <trkpt lat="59.3330789823" lon="17.9821569566">
        <ele>10.2</ele>
        <time>2011-05-01T14:48:45Z</time>
      </trkpt>
      <trkpt lat="59.3330379948" lon="17.9826059751">
        <ele>9.6</ele>
        <time>2011-05-01T14:48:48Z</time>
      </trkpt>
      <trkpt lat="59.3329949956" lon="17.9830569215">
        <ele>9.2</ele>
        <time>2011-05-01T14:48:51Z</time>
      </trkpt>
      <trkpt lat="59.3329599593" lon="17.983474927">
        <ele>10.2</ele>
        <time>2011-05-01T14:48:54Z</time>
      </trkpt>
      <trkpt lat="59.3329159543" lon="17.9838739894">
        <ele>11.6</ele>
        <time>2011-05-01T14:48:57Z</time>
      </trkpt>
      <trkpt lat="59.3328869529" lon="17.9842529353">
        <ele>12.6</ele>
        <time>2011-05-01T14:49:00Z</time>
      </trkpt>
      <trkpt lat="59.3328699376" lon="17.9846239183">
        <ele>13.4</ele>
        <time>2011-05-01T14:49:03Z</time>
      </trkpt>
      <trkpt lat="59.332854934" lon="17.9849909618">
        <ele>13.4</ele>
        <time>2011-05-01T14:49:06Z</time>
      </trkpt>
      <trkpt lat="59.3328369968" lon="17.985341996">
        <ele>14</ele>
        <time>2011-05-01T14:49:09Z</time>
      </trkpt>
      <trkpt lat="59.3328269385" lon="17.985461941">
        <ele>15</ele>
        <time>2011-05-01T14:49:10Z</time>
      </trkpt>
      <trkpt lat="59.3327939976" lon="17.9859329201">
        <ele>15.4</ele>
        <time>2011-05-01T14:49:14Z</time>
      </trkpt>
      <trkpt lat="59.3327799998" lon="17.986266939">
        <ele>15.4</ele>
        <time>2011-05-01T14:49:17Z</time>
      </trkpt>
      <trkpt lat="59.3327709474" lon="17.9864879698">
        <ele>15.4</ele>
        <time>2011-05-01T14:49:19Z</time>
      </trkpt>
      <trkpt lat="59.3327769823" lon="17.9869219847">
        <ele>15.8</ele>
        <time>2011-05-01T14:49:23Z</time>
      </trkpt>
      <trkpt lat="59.3327979371" lon="17.9872419219">
        <ele>16.8</ele>
        <time>2011-05-01T14:49:26Z</time>
      </trkpt>
      <trkpt lat="59.3328059837" lon="17.9873489588">
        <ele>17.4</ele>
        <time>2011-05-01T14:49:27Z</time>
      </trkpt>
      <trkpt lat="59.3328279443" lon="17.987561943">
        <ele>17.8</ele>
        <time>2011-05-01T14:49:29Z</time>
      </trkpt>
      <trkpt lat="59.3328559399" lon="17.9880099557">
        <ele>17.8</ele>
        <time>2011-05-01T14:49:33Z</time>
      </trkpt>
      <trkpt lat="59.332898939" lon="17.9883309826">
        <ele>18.4</ele>
        <time>2011-05-01T14:49:36Z</time>
      </trkpt>
      <trkpt lat="59.3328909762" lon="17.9887609743">
        <ele>18.8</ele>
        <time>2011-05-01T14:49:40Z</time>
      </trkpt>
      <trkpt lat="59.3328419421" lon="17.988950992">
        <ele>19.2</ele>
        <time>2011-05-01T14:49:42Z</time>
      </trkpt>
      <trkpt lat="59.3327889685" lon="17.9891289398">
        <ele>19.2</ele>
        <time>2011-05-01T14:49:44Z</time>
      </trkpt>
      <trkpt lat="59.3327299599" lon="17.9895239789">
        <ele>20.2</ele>
        <time>2011-05-01T14:49:48Z</time>
      </trkpt>
      <trkpt lat="59.3327529263" lon="17.9898389708">
        <ele>20.2</ele>
        <time>2011-05-01T14:49:51Z</time>
      </trkpt>
      <trkpt lat="59.3328399304" lon="17.9901079461">
        <ele>20.2</ele>
        <time>2011-05-01T14:49:54Z</time>
      </trkpt>
      <trkpt lat="59.3329789862" lon="17.9902699683">
        <ele>20.2</ele>
        <time>2011-05-01T14:49:57Z</time>
      </trkpt>
      <trkpt lat="59.3330799881" lon="17.9903369397">
        <ele>21.6</ele>
        <time>2011-05-01T14:49:59Z</time>
      </trkpt>
      <trkpt lat="59.3331299443" lon="17.9903759994">
        <ele>22.2</ele>
        <time>2011-05-01T14:50:00Z</time>
      </trkpt>
      <trkpt lat="59.3332869373" lon="17.9906389397">
        <ele>23.2</ele>
        <time>2011-05-01T14:50:04Z</time>
      </trkpt>
      <trkpt lat="59.3333369773" lon="17.9908149596">
        <ele>23.2</ele>
        <time>2011-05-01T14:50:06Z</time>
      </trkpt>
      <trkpt lat="59.3334189523" lon="17.9912809934">
        <ele>24</ele>
        <time>2011-05-01T14:50:11Z</time>
      </trkpt>
      <trkpt lat="59.3334619515" lon="17.9916589335">
        <ele>24.6</ele>
        <time>2011-05-01T14:50:15Z</time>
      </trkpt>
      <trkpt lat="59.3334869295" lon="17.991950959">
        <ele>25.6</ele>
        <time>2011-05-01T14:50:18Z</time>
      </trkpt>
      <trkpt lat="59.3334989995" lon="17.9921439942">
        <ele>26</ele>
        <time>2011-05-01T14:50:20Z</time>
      </trkpt>
      <trkpt lat="59.333502939" lon="17.9926229361">
        <ele>27</ele>
        <time>2011-05-01T14:50:25Z</time>
      </trkpt>
      <trkpt lat="59.3335049506" lon="17.9929869622">
        <ele>27.4</ele>
        <time>2011-05-01T14:50:29Z</time>
      </trkpt>
      <trkpt lat="59.3334969878" lon="17.9933479708">
        <ele>28.8</ele>
        <time>2011-05-01T14:50:33Z</time>
      </trkpt>
      <trkpt lat="59.3334869295" lon="17.9937099852">
        <ele>27.4</ele>
        <time>2011-05-01T14:50:37Z</time>
      </trkpt>
      <trkpt lat="59.3334729318" lon="17.9940659646">
        <ele>29.4</ele>
        <time>2011-05-01T14:50:41Z</time>
      </trkpt>
      <trkpt lat="59.3334629573" lon="17.9942489415">
        <ele>30.4</ele>
        <time>2011-05-01T14:50:43Z</time>
      </trkpt>
      <trkpt lat="59.3334449362" lon="17.9946219362">
        <ele>30.4</ele>
        <time>2011-05-01T14:50:47Z</time>
      </trkpt>
      <trkpt lat="59.3334299326" lon="17.995018987">
        <ele>30.8</ele>
        <time>2011-05-01T14:50:51Z</time>
      </trkpt>
      <trkpt lat="59.3334139232" lon="17.9953439534">
        <ele>29.4</ele>
        <time>2011-05-01T14:50:54Z</time>
      </trkpt>
      <trkpt lat="59.3333989196" lon="17.9956589453">
        <ele>30.8</ele>
        <time>2011-05-01T14:50:57Z</time>
      </trkpt>
      <trkpt lat="59.3333869334" lon="17.9960069619">
        <ele>29.8</ele>
        <time>2011-05-01T14:51:00Z</time>
      </trkpt>
      <trkpt lat="59.3333739415" lon="17.9963949602">
        <ele>28.4</ele>
        <time>2011-05-01T14:51:03Z</time>
      </trkpt>
      <trkpt lat="59.3333589379" lon="17.9968129657">
        <ele>27.4</ele>
        <time>2011-05-01T14:51:06Z</time>
      </trkpt>
      <trkpt lat="59.3333369773" lon="17.9972649179">
        <ele>26</ele>
        <time>2011-05-01T14:51:09Z</time>
      </trkpt>
      <trkpt lat="59.3332979176" lon="17.9977359809">
        <ele>26</ele>
        <time>2011-05-01T14:51:12Z</time>
      </trkpt>
      <trkpt lat="59.3332489673" lon="17.9982289206">
        <ele>24</ele>
        <time>2011-05-01T14:51:15Z</time>
      </trkpt>
      <trkpt lat="59.3331789784" lon="17.9987339303">
        <ele>24</ele>
        <time>2011-05-01T14:51:18Z</time>
      </trkpt>
      <trkpt lat="59.3331239931" lon="17.9990729783">
        <ele>22.6</ele>
        <time>2011-05-01T14:51:20Z</time>
      </trkpt>
      <trkpt lat="59.3330429401" lon="17.9995869566">
        <ele>21.2</ele>
        <time>2011-05-01T14:51:23Z</time>
      </trkpt>
      <trkpt lat="59.3329659943" lon="18.0001219735">
        <ele>19.8</ele>
        <time>2011-05-01T14:51:26Z</time>
      </trkpt>
      <trkpt lat="59.3328749668" lon="18.0006779451">
        <ele>19.2</ele>
        <time>2011-05-01T14:51:29Z</time>
      </trkpt>
      <trkpt lat="59.3327759765" lon="18.0012519378">
        <ele>17.8</ele>
        <time>2011-05-01T14:51:32Z</time>
      </trkpt>
      <trkpt lat="59.3326699454" lon="18.0018489808">
        <ele>16.4</ele>
        <time>2011-05-01T14:51:35Z</time>
      </trkpt>
      <trkpt lat="59.3325629923" lon="18.0024489574">
        <ele>15</ele>
        <time>2011-05-01T14:51:38Z</time>
      </trkpt>
      <trkpt lat="59.3324579671" lon="18.0030259676">
        <ele>14</ele>
        <time>2011-05-01T14:51:41Z</time>
      </trkpt>
      <trkpt lat="59.3323609885" lon="18.0035889801">
        <ele>13.4</ele>
        <time>2011-05-01T14:51:44Z</time>
      </trkpt>
      <trkpt lat="59.332263926" lon="18.0041349772">
        <ele>12.6</ele>
        <time>2011-05-01T14:51:47Z</time>
      </trkpt>
      <trkpt lat="59.3321699649" lon="18.0046659708">
        <ele>13.4</ele>
        <time>2011-05-01T14:51:50Z</time>
      </trkpt>
      <trkpt lat="59.33207592" lon="18.0051939469">
        <ele>14.4</ele>
        <time>2011-05-01T14:51:53Z</time>
      </trkpt>
      <trkpt lat="59.3320129719" lon="18.0055489205">
        <ele>11.6</ele>
        <time>2011-05-01T14:51:55Z</time>
      </trkpt>
      <trkpt lat="59.3319229502" lon="18.0060749687">
        <ele>12</ele>
        <time>2011-05-01T14:51:58Z</time>
      </trkpt>
      <trkpt lat="59.3318329286" lon="18.0065749492">
        <ele>12</ele>
        <time>2011-05-01T14:52:01Z</time>
      </trkpt>
      <trkpt lat="59.3316639494" lon="18.0071629398">
        <ele>9.6</ele>
        <time>2011-05-01T14:52:05Z</time>
      </trkpt>
      <trkpt lat="59.3315329403" lon="18.0076249503">
        <ele>7.2</ele>
        <time>2011-05-01T14:52:08Z</time>
      </trkpt>
      <trkpt lat="59.3313949741" lon="18.008078998">
        <ele>7.8</ele>
        <time>2011-05-01T14:52:11Z</time>
      </trkpt>
      <trkpt lat="59.3312499672" lon="18.0085489713">
        <ele>7.2</ele>
        <time>2011-05-01T14:52:14Z</time>
      </trkpt>
      <trkpt lat="59.331144942" lon="18.0088499654">
        <ele>6.2</ele>
        <time>2011-05-01T14:52:16Z</time>
      </trkpt>
      <trkpt lat="59.3310359772" lon="18.0094979703">
        <ele>7.2</ele>
        <time>2011-05-01T14:52:20Z</time>
      </trkpt>
      <trkpt lat="59.3310279306" lon="18.0098119564">
        <ele>5.4</ele>
        <time>2011-05-01T14:52:22Z</time>
      </trkpt>
      <trkpt lat="59.3310009409" lon="18.0105019547">
        <ele>9.2</ele>
        <time>2011-05-01T14:52:26Z</time>
      </trkpt>
      <trkpt lat="59.3310009409" lon="18.0105649866">
        <ele>9.2</ele>
        <time>2011-05-01T14:52:27Z</time>
      </trkpt>
      <trkpt lat="59.3309939839" lon="18.0108989216">
        <ele>10.6</ele>
        <time>2011-05-01T14:52:31Z</time>
      </trkpt>
      <trkpt lat="59.3309959956" lon="18.010983998">
        <ele>10.6</ele>
        <time>2011-05-01T14:52:32Z</time>
      </trkpt>
      <trkpt lat="59.3309639767" lon="18.011310976">
        <ele>12</ele>
        <time>2011-05-01T14:52:36Z</time>
      </trkpt>
      <trkpt lat="59.3309969176" lon="18.011932997">
        <ele>12.6</ele>
        <time>2011-05-01T14:52:41Z</time>
      </trkpt>
      <trkpt lat="59.3310219795" lon="18.0128239933">
        <ele>14.4</ele>
        <time>2011-05-01T14:52:49Z</time>
      </trkpt>
      <trkpt lat="59.3310249969" lon="18.013253985">
        <ele>15.4</ele>
        <time>2011-05-01T14:52:53Z</time>
      </trkpt>
      <trkpt lat="59.3310289364" lon="18.0133469403">
        <ele>15.4</ele>
        <time>2011-05-01T14:52:54Z</time>
      </trkpt>
      <trkpt lat="59.3310359772" lon="18.0138179194">
        <ele>15</ele>
        <time>2011-05-01T14:52:59Z</time>
      </trkpt>
      <trkpt lat="59.3310519867" lon="18.0141289718">
        <ele>14.4</ele>
        <time>2011-05-01T14:53:02Z</time>
      </trkpt>
      <trkpt lat="59.3310649786" lon="18.0144959316">
        <ele>13</ele>
        <time>2011-05-01T14:53:05Z</time>
      </trkpt>
      <trkpt lat="59.3310799822" lon="18.0149309523">
        <ele>9.6</ele>
        <time>2011-05-01T14:53:08Z</time>
      </trkpt>
      <trkpt lat="59.3311059661" lon="18.0153809767">
        <ele>9.6</ele>
        <time>2011-05-01T14:53:11Z</time>
      </trkpt>
      <trkpt lat="59.3311199639" lon="18.015699992">
        <ele>8.2</ele>
        <time>2011-05-01T14:53:13Z</time>
      </trkpt>
      <trkpt lat="59.3311469536" lon="18.0162039958">
        <ele>7.8</ele>
        <time>2011-05-01T14:53:16Z</time>
      </trkpt>
      <trkpt lat="59.3311879411" lon="18.0167069938">
        <ele>6.8</ele>
        <time>2011-05-01T14:53:19Z</time>
      </trkpt>
      <trkpt lat="59.3312299345" lon="18.0171859358">
        <ele>6.8</ele>
        <time>2011-05-01T14:53:22Z</time>
      </trkpt>
      <trkpt lat="59.3312649708" lon="18.017674936">
        <ele>6.2</ele>
        <time>2011-05-01T14:53:25Z</time>
      </trkpt>
      <trkpt lat="59.3313039467" lon="18.0181239545">
        <ele>5.8</ele>
        <time>2011-05-01T14:53:28Z</time>
      </trkpt>
      <trkpt lat="59.3313119933" lon="18.0182719789">
        <ele>5.8</ele>
        <time>2011-05-01T14:53:29Z</time>
      </trkpt>
      <trkpt lat="59.3312369753" lon="18.0188389309">
        <ele>4.8</ele>
        <time>2011-05-01T14:53:33Z</time>
      </trkpt>
      <trkpt lat="59.3312059622" lon="18.0189709459">
        <ele>4.4</ele>
        <time>2011-05-01T14:53:34Z</time>
      </trkpt>
      <trkpt lat="59.3310859334" lon="18.0195439328">
        <ele>3.8</ele>
        <time>2011-05-01T14:53:38Z</time>
      </trkpt>
      <trkpt lat="59.33104394" lon="18.0196769536">
        <ele>3.4</ele>
        <time>2011-05-01T14:53:39Z</time>
      </trkpt>
      <trkpt lat="59.3308519945" lon="18.020164948">
        <ele>2</ele>
        <time>2011-05-01T14:53:43Z</time>
      </trkpt>
      <trkpt lat="59.3307539262" lon="18.0204089452">
        <ele>1</ele>
        <time>2011-05-01T14:53:45Z</time>
      </trkpt>
      <trkpt lat="59.3304729648" lon="18.0206569657">
        <ele>1</ele>
        <time>2011-05-01T14:53:49Z</time>
      </trkpt>
      <trkpt lat="59.3302709609" lon="18.020541966">
        <ele>1</ele>
        <time>2011-05-01T14:53:52Z</time>
      </trkpt>
      <trkpt lat="59.3301069271" lon="18.0202809535">
        <ele>2.4</ele>
        <time>2011-05-01T14:53:55Z</time>
      </trkpt>
      <trkpt lat="59.3299669493" lon="18.0200019199">
        <ele>3.8</ele>
        <time>2011-05-01T14:53:58Z</time>
      </trkpt>
      <trkpt lat="59.3298049271" lon="18.0200089607">
        <ele>4.8</ele>
        <time>2011-05-01T14:54:01Z</time>
      </trkpt>
      <trkpt lat="59.3297159951" lon="18.0199499521">
        <ele>5.4</ele>
        <time>2011-05-01T14:54:03Z</time>
      </trkpt>
      <trkpt lat="59.3296139874" lon="18.0197839905">
        <ele>5.8</ele>
        <time>2011-05-01T14:54:05Z</time>
      </trkpt>
      <trkpt lat="59.3295179307" lon="18.0195999239">
        <ele>7.2</ele>
        <time>2011-05-01T14:54:07Z</time>
      </trkpt>
      <trkpt lat="59.3294279929" lon="18.0194589403">
        <ele>7.8</ele>
        <time>2011-05-01T14:54:09Z</time>
      </trkpt>
      <trkpt lat="59.329289943" lon="18.0192449503">
        <ele>9.2</ele>
        <time>2011-05-01T14:54:12Z</time>
      </trkpt>
      <trkpt lat="59.3291629571" lon="18.0190939922">
        <ele>10.2</ele>
        <time>2011-05-01T14:54:15Z</time>
      </trkpt>
      <trkpt lat="59.3291039485" lon="18.0189579539">
        <ele>9.6</ele>
        <time>2011-05-01T14:54:17Z</time>
      </trkpt>
      <trkpt lat="59.3288469594" lon="18.0188099295">
        <ele>9.6</ele>
        <time>2011-05-01T14:54:22Z</time>
      </trkpt>
      <trkpt lat="59.3286679219" lon="18.0187669303">
        <ele>10.2</ele>
        <time>2011-05-01T14:54:26Z</time>
      </trkpt>
      <trkpt lat="59.3285139464" lon="18.0187869631">
        <ele>12</ele>
        <time>2011-05-01T14:54:30Z</time>
      </trkpt>
      <trkpt lat="59.3283729628" lon="18.0188599695">
        <ele>12</ele>
        <time>2011-05-01T14:54:33Z</time>
      </trkpt>
      <trkpt lat="59.3281909917" lon="18.0191009492">
        <ele>11.6</ele>
        <time>2011-05-01T14:54:37Z</time>
      </trkpt>
      <trkpt lat="59.3280999642" lon="18.0193809886">
        <ele>10.6</ele>
        <time>2011-05-01T14:54:40Z</time>
      </trkpt>
      <trkpt lat="59.3280479964" lon="18.0196969863">
        <ele>10.2</ele>
        <time>2011-05-01T14:54:43Z</time>
      </trkpt>
      <trkpt lat="59.3280379381" lon="18.0201889202">
        <ele>8.6</ele>
        <time>2011-05-01T14:54:47Z</time>
      </trkpt>
      <trkpt lat="59.328025952" lon="18.0205619987">
        <ele>9.2</ele>
        <time>2011-05-01T14:54:50Z</time>
      </trkpt>
      <trkpt lat="59.3280099425" lon="18.0209269468">
        <ele>9.6</ele>
        <time>2011-05-01T14:54:53Z</time>
      </trkpt>
      <trkpt lat="59.3279009778" lon="18.021327937">
        <ele>10.2</ele>
        <time>2011-05-01T14:54:57Z</time>
      </trkpt>
      <trkpt lat="59.3278289773" lon="18.0216539931">
        <ele>9.6</ele>
        <time>2011-05-01T14:55:00Z</time>
      </trkpt>
      <trkpt lat="59.3278129678" lon="18.0218989961">
        <ele>10.2</ele>
        <time>2011-05-01T14:55:02Z</time>
      </trkpt>
      <trkpt lat="59.3277349323" lon="18.022346925">
        <ele>12</ele>
        <time>2011-05-01T14:55:06Z</time>
      </trkpt>
      <trkpt lat="59.3277109601" lon="18.0224569794">
        <ele>12.6</ele>
        <time>2011-05-01T14:55:07Z</time>
      </trkpt>
      <trkpt lat="59.3275799509" lon="18.0228309799">
        <ele>13.4</ele>
        <time>2011-05-01T14:55:11Z</time>
      </trkpt>
      <trkpt lat="59.3274739198" lon="18.0230809283">
        <ele>13.4</ele>
        <time>2011-05-01T14:55:14Z</time>
      </trkpt>
      <trkpt lat="59.3273679726" lon="18.0233049765">
        <ele>14</ele>
        <time>2011-05-01T14:55:17Z</time>
      </trkpt>
      <trkpt lat="59.3272539787" lon="18.0235139374">
        <ele>15.4</ele>
        <time>2011-05-01T14:55:20Z</time>
      </trkpt>
      <trkpt lat="59.3271339498" lon="18.0237079784">
        <ele>15.8</ele>
        <time>2011-05-01T14:55:23Z</time>
      </trkpt>
      <trkpt lat="59.3270019349" lon="18.0238849204">
        <ele>16.4</ele>
        <time>2011-05-01T14:55:26Z</time>
      </trkpt>
      <trkpt lat="59.3268629629" lon="18.0240599345">
        <ele>17.4</ele>
        <time>2011-05-01T14:55:29Z</time>
      </trkpt>
      <trkpt lat="59.3267229851" lon="18.0242319312">
        <ele>17.8</ele>
        <time>2011-05-01T14:55:32Z</time>
      </trkpt>
      <trkpt lat="59.3265829235" lon="18.0244009942">
        <ele>18.4</ele>
        <time>2011-05-01T14:55:35Z</time>
      </trkpt>
      <trkpt lat="59.3264509924" lon="18.0245559756">
        <ele>19.2</ele>
        <time>2011-05-01T14:55:38Z</time>
      </trkpt>
      <trkpt lat="59.3262889702" lon="18.0247579794">
        <ele>20.2</ele>
        <time>2011-05-01T14:55:42Z</time>
      </trkpt>
      <trkpt lat="59.3261169735" lon="18.0249569658">
        <ele>20.8</ele>
        <time>2011-05-01T14:55:46Z</time>
      </trkpt>
      <trkpt lat="59.325987976" lon="18.0251149647">
        <ele>20.8</ele>
        <time>2011-05-01T14:55:49Z</time>
      </trkpt>
      <trkpt lat="59.3258609902" lon="18.0252739694">
        <ele>22.2</ele>
        <time>2011-05-01T14:55:52Z</time>
      </trkpt>
      <trkpt lat="59.3256919272" lon="18.0254799966">
        <ele>23.6</ele>
        <time>2011-05-01T14:55:56Z</time>
      </trkpt>
      <trkpt lat="59.3255229481" lon="18.0256859399">
        <ele>24</ele>
        <time>2011-05-01T14:56:00Z</time>
      </trkpt>
      <trkpt lat="59.3253929447" lon="18.0258409213">
        <ele>23.6</ele>
        <time>2011-05-01T14:56:03Z</time>
      </trkpt>
      <trkpt lat="59.3252639472" lon="18.0260029435">
        <ele>25.6</ele>
        <time>2011-05-01T14:56:06Z</time>
      </trkpt>
      <trkpt lat="59.3251329381" lon="18.026162954">
        <ele>26</ele>
        <time>2011-05-01T14:56:09Z</time>
      </trkpt>
      <trkpt lat="59.325001929" lon="18.0263209529">
        <ele>27</ele>
        <time>2011-05-01T14:56:12Z</time>
      </trkpt>
      <trkpt lat="59.3248699978" lon="18.0264829751">
        <ele>27.4</ele>
        <time>2011-05-01T14:56:15Z</time>
      </trkpt>
      <trkpt lat="59.3247349653" lon="18.0266509484">
        <ele>28.8</ele>
        <time>2011-05-01T14:56:18Z</time>
      </trkpt>
      <trkpt lat="59.3245969992" lon="18.0268179998">
        <ele>28.4</ele>
        <time>2011-05-01T14:56:21Z</time>
      </trkpt>
      <trkpt lat="59.3244589493" lon="18.0269829556">
        <ele>26.4</ele>
        <time>2011-05-01T14:56:24Z</time>
      </trkpt>
      <trkpt lat="59.3243259285" lon="18.0271459837">
        <ele>27</ele>
        <time>2011-05-01T14:56:27Z</time>
      </trkpt>
      <trkpt lat="59.3242379185" lon="18.0272549484">
        <ele>28</ele>
        <time>2011-05-01T14:56:29Z</time>
      </trkpt>
      <trkpt lat="59.3241029698" lon="18.0274209939">
        <ele>27</ele>
        <time>2011-05-01T14:56:32Z</time>
      </trkpt>
      <trkpt lat="59.3239669316" lon="18.0275849439">
        <ele>27.4</ele>
        <time>2011-05-01T14:56:35Z</time>
      </trkpt>
      <trkpt lat="59.3238249421" lon="18.0277539231">
        <ele>28.4</ele>
        <time>2011-05-01T14:56:38Z</time>
      </trkpt>
      <trkpt lat="59.3236769177" lon="18.0279409233">
        <ele>28.8</ele>
        <time>2011-05-01T14:56:41Z</time>
      </trkpt>
      <trkpt lat="59.3235129677" lon="18.028143933">
        <ele>26.4</ele>
        <time>2011-05-01T14:56:44Z</time>
      </trkpt>
      <trkpt lat="59.3233339302" lon="18.028363958">
        <ele>25</ele>
        <time>2011-05-01T14:56:47Z</time>
      </trkpt>
      <trkpt lat="59.3231389672" lon="18.0285989866">
        <ele>23.2</ele>
        <time>2011-05-01T14:56:50Z</time>
      </trkpt>
      <trkpt lat="59.32293294" lon="18.0288479291">
        <ele>22.2</ele>
        <time>2011-05-01T14:56:53Z</time>
      </trkpt>
      <trkpt lat="59.3227889389" lon="18.0290179979">
        <ele>21.2</ele>
        <time>2011-05-01T14:56:55Z</time>
      </trkpt>
      <trkpt lat="59.3225699198" lon="18.0292849615">
        <ele>20.8</ele>
        <time>2011-05-01T14:56:58Z</time>
      </trkpt>
      <trkpt lat="59.3223409262" lon="18.0295679346">
        <ele>19.2</ele>
        <time>2011-05-01T14:57:01Z</time>
      </trkpt>
      <trkpt lat="59.3220959231" lon="18.0298589543">
        <ele>17.8</ele>
        <time>2011-05-01T14:57:04Z</time>
      </trkpt>
      <trkpt lat="59.3218379281" lon="18.0301169492">
        <ele>17.4</ele>
        <time>2011-05-01T14:57:07Z</time>
      </trkpt>
      <trkpt lat="59.3215669412" lon="18.0303499661">
        <ele>15.4</ele>
        <time>2011-05-01T14:57:10Z</time>
      </trkpt>
      <trkpt lat="59.321284974" lon="18.03055197">
        <ele>15</ele>
        <time>2011-05-01T14:57:13Z</time>
      </trkpt>
      <trkpt lat="59.3209979776" lon="18.0307139922">
        <ele>14.4</ele>
        <time>2011-05-01T14:57:16Z</time>
      </trkpt>
      <trkpt lat="59.3207189441" lon="18.0308689736">
        <ele>14.4</ele>
        <time>2011-05-01T14:57:19Z</time>
      </trkpt>
      <trkpt lat="59.320448963" lon="18.03101792">
        <ele>13</ele>
        <time>2011-05-01T14:57:22Z</time>
      </trkpt>
      <trkpt lat="59.3201879505" lon="18.0311619211">
        <ele>14</ele>
        <time>2011-05-01T14:57:25Z</time>
      </trkpt>
      <trkpt lat="59.319932973" lon="18.031299971">
        <ele>13</ele>
        <time>2011-05-01T14:57:28Z</time>
      </trkpt>
      <trkpt lat="59.3196869642" lon="18.031431986">
        <ele>12.6</ele>
        <time>2011-05-01T14:57:31Z</time>
      </trkpt>
      <trkpt lat="59.3194459844" lon="18.031564923">
        <ele>11.6</ele>
        <time>2011-05-01T14:57:34Z</time>
      </trkpt>
      <trkpt lat="59.3191999756" lon="18.031689981">
        <ele>11.6</ele>
        <time>2011-05-01T14:57:37Z</time>
      </trkpt>
      <trkpt lat="59.3189519551" lon="18.0317689385">
        <ele>12</ele>
        <time>2011-05-01T14:57:40Z</time>
      </trkpt>
      <trkpt lat="59.3187119812" lon="18.0319219921">
        <ele>10.6</ele>
        <time>2011-05-01T14:57:43Z</time>
      </trkpt>
      <trkpt lat="59.3184709176" lon="18.0320869479">
        <ele>9.6</ele>
        <time>2011-05-01T14:57:46Z</time>
      </trkpt>
      <trkpt lat="59.3182219751" lon="18.0322389957">
        <ele>10.6</ele>
        <time>2011-05-01T14:57:49Z</time>
      </trkpt>
      <trkpt lat="59.3179719429" lon="18.0323839188">
        <ele>11</ele>
        <time>2011-05-01T14:57:52Z</time>
      </trkpt>
      <trkpt lat="59.317738926" lon="18.0325539876">
        <ele>11</ele>
        <time>2011-05-01T14:57:55Z</time>
      </trkpt>
      <trkpt lat="59.3174859602" lon="18.0326949712">
        <ele>9.2</ele>
        <time>2011-05-01T14:57:58Z</time>
      </trkpt>
      <trkpt lat="59.3173969444" lon="18.0327479448">
        <ele>9.2</ele>
        <time>2011-05-01T14:57:59Z</time>
      </trkpt>
      <trkpt lat="59.3171369378" lon="18.0329389684">
        <ele>8.6</ele>
        <time>2011-05-01T14:58:02Z</time>
      </trkpt>
      <trkpt lat="59.3168919347" lon="18.0331339315">
        <ele>8.6</ele>
        <time>2011-05-01T14:58:05Z</time>
      </trkpt>
      <trkpt lat="59.3166599236" lon="18.0332399625">
        <ele>7.8</ele>
        <time>2011-05-01T14:58:08Z</time>
      </trkpt>
      <trkpt lat="59.3164149206" lon="18.033419922">
        <ele>8.2</ele>
        <time>2011-05-01T14:58:11Z</time>
      </trkpt>
      <trkpt lat="59.3161119986" lon="18.0337769911">
        <ele>7.8</ele>
        <time>2011-05-01T14:58:14Z</time>
      </trkpt>
      <trkpt lat="59.3158629723" lon="18.0339369178">
        <ele>7.2</ele>
        <time>2011-05-01T14:58:17Z</time>
      </trkpt>
      <trkpt lat="59.3156669196" lon="18.033953933">
        <ele>6.2</ele>
        <time>2011-05-01T14:58:20Z</time>
      </trkpt>
      <trkpt lat="59.3154529296" lon="18.0342029594">
        <ele>7.2</ele>
        <time>2011-05-01T14:58:23Z</time>
      </trkpt>
      <trkpt lat="59.3152709585" lon="18.0342399236">
        <ele>7.2</ele>
        <time>2011-05-01T14:58:26Z</time>
      </trkpt>
      <trkpt lat="59.3150359299" lon="18.0341789871">
        <ele>7.2</ele>
        <time>2011-05-01T14:58:30Z</time>
      </trkpt>
      <trkpt lat="59.3148289807" lon="18.0343169533">
        <ele>9.6</ele>
        <time>2011-05-01T14:58:34Z</time>
      </trkpt>
      <trkpt lat="59.3146739993" lon="18.0343859363">
        <ele>11</ele>
        <time>2011-05-01T14:58:37Z</time>
      </trkpt>
      <trkpt lat="59.3145659566" lon="18.0342159513">
        <ele>11.6</ele>
        <time>2011-05-01T14:58:40Z</time>
      </trkpt>
      <trkpt lat="59.3143819738" lon="18.0336929206">
        <ele>13</ele>
        <time>2011-05-01T14:58:45Z</time>
      </trkpt>
      <trkpt lat="59.3143279944" lon="18.0335109495">
        <ele>14</ele>
        <time>2011-05-01T14:58:49Z</time>
      </trkpt>
      <trkpt lat="59.3142259866" lon="18.0332699697">
        <ele>15.4</ele>
        <time>2011-05-01T14:58:53Z</time>
      </trkpt>
      <trkpt lat="59.3140979949" lon="18.0330009945">
        <ele>16.4</ele>
        <time>2011-05-01T14:58:57Z</time>
      </trkpt>
      <trkpt lat="59.3140609469" lon="18.0329309218">
        <ele>16.8</ele>
        <time>2011-05-01T14:58:58Z</time>
      </trkpt>
      <trkpt lat="59.3139489647" lon="18.0327179376">
        <ele>17.4</ele>
        <time>2011-05-01T14:59:01Z</time>
      </trkpt>
      <trkpt lat="59.3138369825" lon="18.0325079709">
        <ele>17.4</ele>
        <time>2011-05-01T14:59:04Z</time>
      </trkpt>
      <trkpt lat="59.3137219828" lon="18.0322989263">
        <ele>17.8</ele>
        <time>2011-05-01T14:59:07Z</time>
      </trkpt>
      <trkpt lat="59.3136059772" lon="18.0320809968">
        <ele>18.4</ele>
        <time>2011-05-01T14:59:10Z</time>
      </trkpt>
      <trkpt lat="59.3134839367" lon="18.0318479799">
        <ele>17.8</ele>
        <time>2011-05-01T14:59:13Z</time>
      </trkpt>
      <trkpt lat="59.3133489881" lon="18.0316029768">
        <ele>16.8</ele>
        <time>2011-05-01T14:59:16Z</time>
      </trkpt>
      <trkpt lat="59.3132039811" lon="18.0313329957">
        <ele>15.8</ele>
        <time>2011-05-01T14:59:19Z</time>
      </trkpt>
      <trkpt lat="59.3130429648" lon="18.0310399644">
        <ele>15</ele>
        <time>2011-05-01T14:59:22Z</time>
      </trkpt>
      <trkpt lat="59.3128709681" lon="18.0307199433">
        <ele>14</ele>
        <time>2011-05-01T14:59:25Z</time>
      </trkpt>
      <trkpt lat="59.3126879912" lon="18.0303799734">
        <ele>11.6</ele>
        <time>2011-05-01T14:59:28Z</time>
      </trkpt>
      <trkpt lat="59.3124969676" lon="18.0300239939">
        <ele>11</ele>
        <time>2011-05-01T14:59:31Z</time>
      </trkpt>
      <trkpt lat="59.3123679701" lon="18.029784942">
        <ele>10.2</ele>
        <time>2011-05-01T14:59:33Z</time>
      </trkpt>
      <trkpt lat="59.3121749349" lon="18.0294299684">
        <ele>9.2</ele>
        <time>2011-05-01T14:59:36Z</time>
      </trkpt>
      <trkpt lat="59.3120109849" lon="18.0290509388">
        <ele>9.2</ele>
        <time>2011-05-01T14:59:39Z</time>
      </trkpt>
      <trkpt lat="59.3118889444" lon="18.0287119746">
        <ele>7.8</ele>
        <time>2011-05-01T14:59:42Z</time>
      </trkpt>
      <trkpt lat="59.3118259963" lon="18.0285419896">
        <ele>8.2</ele>
        <time>2011-05-01T14:59:44Z</time>
      </trkpt>
      <trkpt lat="59.3117009383" lon="18.0283659697">
        <ele>7.8</ele>
        <time>2011-05-01T14:59:47Z</time>
      </trkpt>
      <trkpt lat="59.3114729505" lon="18.0282369722">
        <ele>6.2</ele>
        <time>2011-05-01T14:59:51Z</time>
      </trkpt>
      <trkpt lat="59.3112399336" lon="18.0280379858">
        <ele>7.2</ele>
        <time>2011-05-01T14:59:55Z</time>
      </trkpt>
      <trkpt lat="59.3109999597" lon="18.0277239997">
        <ele>7.8</ele>
        <time>2011-05-01T14:59:59Z</time>
      </trkpt>
      <trkpt lat="59.310809942" lon="18.0274649989">
        <ele>8.6</ele>
        <time>2011-05-01T15:00:02Z</time>
      </trkpt>
      <trkpt lat="59.3106249534" lon="18.0271859653">
        <ele>9.2</ele>
        <time>2011-05-01T15:00:05Z</time>
      </trkpt>
      <trkpt lat="59.3105699681" lon="18.0270859692">
        <ele>10.2</ele>
        <time>2011-05-01T15:00:06Z</time>
      </trkpt>
      <trkpt lat="59.3103179242" lon="18.0267689656">
        <ele>9.6</ele>
        <time>2011-05-01T15:00:10Z</time>
      </trkpt>
      <trkpt lat="59.310123967" lon="18.0265169218">
        <ele>9.6</ele>
        <time>2011-05-01T15:00:13Z</time>
      </trkpt>
      <trkpt lat="59.3099459354" lon="18.0262879282">
        <ele>10.2</ele>
        <time>2011-05-01T15:00:16Z</time>
      </trkpt>
      <trkpt lat="59.3097879365" lon="18.0260819849">
        <ele>10.2</ele>
        <time>2011-05-01T15:00:19Z</time>
      </trkpt>
      <trkpt lat="59.309627926" lon="18.025873946">
        <ele>10.2</ele>
        <time>2011-05-01T15:00:22Z</time>
      </trkpt>
      <trkpt lat="59.3094489723" lon="18.0256189685">
        <ele>10.2</ele>
        <time>2011-05-01T15:00:25Z</time>
      </trkpt>
      <trkpt lat="59.3093429413" lon="18.0254669208">
        <ele>10.6</ele>
        <time>2011-05-01T15:00:27Z</time>
      </trkpt>
      <trkpt lat="59.3092599604" lon="18.0250979494">
        <ele>10.6</ele>
        <time>2011-05-01T15:00:31Z</time>
      </trkpt>
      <trkpt lat="59.3092679232" lon="18.0249369331">
        <ele>11</ele>
        <time>2011-05-01T15:00:33Z</time>
      </trkpt>
      <trkpt lat="59.3091499899" lon="18.0246959534">
        <ele>11.6</ele>
        <time>2011-05-01T15:00:37Z</time>
      </trkpt>
      <trkpt lat="59.3090029713" lon="18.0245959572">
        <ele>11</ele>
        <time>2011-05-01T15:00:43Z</time>
      </trkpt>
      <trkpt lat="59.3088749796" lon="18.0246699695">
        <ele>10.6</ele>
        <time>2011-05-01T15:00:47Z</time>
      </trkpt>
      <trkpt lat="59.3088399433" lon="18.0246719811">
        <ele>10.6</ele>
        <time>2011-05-01T15:00:48Z</time>
      </trkpt>
      <trkpt lat="59.3086719699" lon="18.024490932">
        <ele>10.6</ele>
        <time>2011-05-01T15:00:52Z</time>
      </trkpt>
      <trkpt lat="59.3085189164" lon="18.0242869165">
        <ele>10.6</ele>
        <time>2011-05-01T15:00:55Z</time>
      </trkpt>
      <trkpt lat="59.3083469197" lon="18.0240639579">
        <ele>10.6</ele>
        <time>2011-05-01T15:00:58Z</time>
      </trkpt>
      <trkpt lat="59.3081729952" lon="18.0238289293">
        <ele>10.6</ele>
        <time>2011-05-01T15:01:01Z</time>
      </trkpt>
      <trkpt lat="59.3079929519" lon="18.0235909671">
        <ele>10.6</ele>
        <time>2011-05-01T15:01:04Z</time>
      </trkpt>
      <trkpt lat="59.3078079633" lon="18.023352921">
        <ele>10.6</ele>
        <time>2011-05-01T15:01:07Z</time>
      </trkpt>
      <trkpt lat="59.3076259922" lon="18.0230999552">
        <ele>10.2</ele>
        <time>2011-05-01T15:01:10Z</time>
      </trkpt>
      <trkpt lat="59.3074629642" lon="18.0228099413">
        <ele>11</ele>
        <time>2011-05-01T15:01:13Z</time>
      </trkpt>
      <trkpt lat="59.3073149398" lon="18.0224939436">
        <ele>11.6</ele>
        <time>2011-05-01T15:01:16Z</time>
      </trkpt>
      <trkpt lat="59.3071849365" lon="18.0221529678">
        <ele>11.6</ele>
        <time>2011-05-01T15:01:19Z</time>
      </trkpt>
      <trkpt lat="59.3070819229" lon="18.0218149256">
        <ele>11.6</ele>
        <time>2011-05-01T15:01:22Z</time>
      </trkpt>
      <trkpt lat="59.3070009537" lon="18.0214569345">
        <ele>12</ele>
        <time>2011-05-01T15:01:25Z</time>
      </trkpt>
      <trkpt lat="59.3069539312" lon="18.0210819282">
        <ele>12</ele>
        <time>2011-05-01T15:01:28Z</time>
      </trkpt>
      <trkpt lat="59.3069219962" lon="18.0207269546">
        <ele>12.6</ele>
        <time>2011-05-01T15:01:31Z</time>
      </trkpt>
      <trkpt lat="59.3068909831" lon="18.0203649402">
        <ele>13.4</ele>
        <time>2011-05-01T15:01:35Z</time>
      </trkpt>
      <trkpt lat="59.3068749737" lon="18.0202929396">
        <ele>14</ele>
        <time>2011-05-01T15:01:36Z</time>
      </trkpt>
      <trkpt lat="59.3067489937" lon="18.020277936">
        <ele>13.4</ele>
        <time>2011-05-01T15:01:41Z</time>
      </trkpt>
      <trkpt lat="59.3066259474" lon="18.020327976">
        <ele>13</ele>
        <time>2011-05-01T15:01:44Z</time>
      </trkpt>
      <trkpt lat="59.3065249454" lon="18.0206129607">
        <ele>11.6</ele>
        <time>2011-05-01T15:01:48Z</time>
      </trkpt>
      <trkpt lat="59.3064609915" lon="18.0211129412">
        <ele>10.2</ele>
        <time>2011-05-01T15:01:52Z</time>
      </trkpt>
      <trkpt lat="59.3064379413" lon="18.0212289467">
        <ele>10.2</ele>
        <time>2011-05-01T15:01:53Z</time>
      </trkpt>
      <trkpt lat="59.3062409665" lon="18.021554919">
        <ele>12.6</ele>
        <time>2011-05-01T15:01:57Z</time>
      </trkpt>
      <trkpt lat="59.3060199358" lon="18.0214629695">
        <ele>12.6</ele>
        <time>2011-05-01T15:02:16Z</time>
      </trkpt>
      <trkpt lat="59.3051549233" lon="18.0206959415">
        <ele>18.8</ele>
        <time>2011-05-01T15:02:19Z</time>
      </trkpt>
      <trkpt lat="59.3049389217" lon="18.0205119587">
        <ele>20.2</ele>
        <time>2011-05-01T15:02:24Z</time>
      </trkpt>
      <trkpt lat="59.3047679309" lon="18.020358989">
        <ele>20.8</ele>
        <time>2011-05-01T15:02:28Z</time>
      </trkpt>
      <trkpt lat="59.304609932" lon="18.0202049296">
        <ele>22.2</ele>
        <time>2011-05-01T15:02:32Z</time>
      </trkpt>
      <trkpt lat="59.3045709562" lon="18.020164948">
        <ele>22.6</ele>
        <time>2011-05-01T15:02:33Z</time>
      </trkpt>
      <trkpt lat="59.3043619953" lon="18.0199929513">
        <ele>24</ele>
        <time>2011-05-01T15:02:38Z</time>
      </trkpt>
      <trkpt lat="59.3041869812" lon="18.0198149197">
        <ele>25</ele>
        <time>2011-05-01T15:02:42Z</time>
      </trkpt>
      <trkpt lat="59.3040319998" lon="18.0196639616">
        <ele>26</ele>
        <time>2011-05-01T15:02:46Z</time>
      </trkpt>
      <trkpt lat="59.3039159942" lon="18.0195629597">
        <ele>27</ele>
        <time>2011-05-01T15:02:49Z</time>
      </trkpt>
      <trkpt lat="59.3038079515" lon="18.0194709264">
        <ele>28</ele>
        <time>2011-05-01T15:02:52Z</time>
      </trkpt>
      <trkpt lat="59.3036319315" lon="18.0192489736">
        <ele>28.8</ele>
        <time>2011-05-01T15:02:57Z</time>
      </trkpt>
      <trkpt lat="59.3035899382" lon="18.0192029569">
        <ele>28.8</ele>
        <time>2011-05-01T15:02:58Z</time>
      </trkpt>
      <trkpt lat="59.303389946" lon="18.0190059822">
        <ele>29.8</ele>
        <time>2011-05-01T15:03:03Z</time>
      </trkpt>
      <trkpt lat="59.3032169435" lon="18.0188479833">
        <ele>30.8</ele>
        <time>2011-05-01T15:03:07Z</time>
      </trkpt>
      <trkpt lat="59.3030699249" lon="18.0187359173">
        <ele>30.8</ele>
        <time>2011-05-01T15:03:10Z</time>
      </trkpt>
      <trkpt lat="59.3029209785" lon="18.0186119489">
        <ele>30.8</ele>
        <time>2011-05-01T15:03:13Z</time>
      </trkpt>
      <trkpt lat="59.302767925" lon="18.0184899922">
        <ele>30.8</ele>
        <time>2011-05-01T15:03:16Z</time>
      </trkpt>
      <trkpt lat="59.3026119377" lon="18.0183549598">
        <ele>30.8</ele>
        <time>2011-05-01T15:03:19Z</time>
      </trkpt>
      <trkpt lat="59.3024479877" lon="18.0181459989">
        <ele>30.8</ele>
        <time>2011-05-01T15:03:22Z</time>
      </trkpt>
      <trkpt lat="59.3022659328" lon="18.0178009998">
        <ele>31.2</ele>
        <time>2011-05-01T15:03:26Z</time>
      </trkpt>
      <trkpt lat="59.3022239394" lon="18.0177169293">
        <ele>30.8</ele>
        <time>2011-05-01T15:03:27Z</time>
      </trkpt>
      <trkpt lat="59.3020389508" lon="18.0174409971">
        <ele>31.2</ele>
        <time>2011-05-01T15:03:31Z</time>
      </trkpt>
      <trkpt lat="59.3018529564" lon="18.0170809943">
        <ele>30.8</ele>
        <time>2011-05-01T15:03:35Z</time>
      </trkpt>
      <trkpt lat="59.3017519545" lon="18.0168899707">
        <ele>30.8</ele>
        <time>2011-05-01T15:03:37Z</time>
      </trkpt>
      <trkpt lat="59.3015749287" lon="18.0166759808">
        <ele>30.4</ele>
        <time>2011-05-01T15:03:40Z</time>
      </trkpt>
      <trkpt lat="59.3013669737" lon="18.01627893">
        <ele>31.2</ele>
        <time>2011-05-01T15:03:44Z</time>
      </trkpt>
      <trkpt lat="59.3011179473" lon="18.0156549811">
        <ele>30.8</ele>
        <time>2011-05-01T15:03:49Z</time>
      </trkpt>
      <trkpt lat="59.3009239901" lon="18.0153179448">
        <ele>30.4</ele>
        <time>2011-05-01T15:03:52Z</time>
      </trkpt>
      <trkpt lat="59.300735984" lon="18.0149499793">
        <ele>30.4</ele>
        <time>2011-05-01T15:03:55Z</time>
      </trkpt>
      <trkpt lat="59.300528951" lon="18.0146099254">
        <ele>30.8</ele>
        <time>2011-05-01T15:03:58Z</time>
      </trkpt>
      <trkpt lat="59.3004629854" lon="18.0144929979">
        <ele>29.4</ele>
        <time>2011-05-01T15:03:59Z</time>
      </trkpt>
      <trkpt lat="59.3003039807" lon="18.0139179993">
        <ele>29.8</ele>
        <time>2011-05-01T15:04:03Z</time>
      </trkpt>
      <trkpt lat="59.300239943" lon="18.0132949725">
        <ele>30.4</ele>
        <time>2011-05-01T15:04:07Z</time>
      </trkpt>
      <trkpt lat="59.3002009671" lon="18.0128359795">
        <ele>29.8</ele>
        <time>2011-05-01T15:04:10Z</time>
      </trkpt>
      <trkpt lat="59.3001729716" lon="18.0123589654">
        <ele>30.4</ele>
        <time>2011-05-01T15:04:13Z</time>
      </trkpt>
      <trkpt lat="59.3001199979" lon="18.0118739884">
        <ele>31.2</ele>
        <time>2011-05-01T15:04:16Z</time>
      </trkpt>
      <trkpt lat="59.3000839557" lon="18.0115499441">
        <ele>32.2</ele>
        <time>2011-05-01T15:04:18Z</time>
      </trkpt>
      <trkpt lat="59.2999139708" lon="18.0110379774">
        <ele>34.2</ele>
        <time>2011-05-01T15:04:22Z</time>
      </trkpt>
      <trkpt lat="59.2997249588" lon="18.0107529927">
        <ele>37.6</ele>
        <time>2011-05-01T15:04:26Z</time>
      </trkpt>
      <trkpt lat="59.2995779403" lon="18.0105539225">
        <ele>38.4</ele>
        <time>2011-05-01T15:04:29Z</time>
      </trkpt>
      <trkpt lat="59.2994289938" lon="18.0102099292">
        <ele>39</ele>
        <time>2011-05-01T15:04:33Z</time>
      </trkpt>
      <trkpt lat="59.2993419897" lon="18.0097669456">
        <ele>39</ele>
        <time>2011-05-01T15:04:37Z</time>
      </trkpt>
      <trkpt lat="59.2992769461" lon="18.009424964">
        <ele>39</ele>
        <time>2011-05-01T15:04:40Z</time>
      </trkpt>
      <trkpt lat="59.2992289178" lon="18.0092119798">
        <ele>39</ele>
        <time>2011-05-01T15:04:42Z</time>
      </trkpt>
      <trkpt lat="59.2990859225" lon="18.0088529829">
        <ele>39</ele>
        <time>2011-05-01T15:04:46Z</time>
      </trkpt>
      <trkpt lat="59.2989339586" lon="18.0085199699">
        <ele>39.4</ele>
        <time>2011-05-01T15:04:50Z</time>
      </trkpt>
      <trkpt lat="59.2988409195" lon="18.0082419422">
        <ele>40</ele>
        <time>2011-05-01T15:04:53Z</time>
      </trkpt>
      <trkpt lat="59.2987539992" lon="18.0078069214">
        <ele>39</ele>
        <time>2011-05-01T15:04:57Z</time>
      </trkpt>
      <trkpt lat="59.2986569367" lon="18.007474998">
        <ele>40</ele>
        <time>2011-05-01T15:05:00Z</time>
      </trkpt>
      <trkpt lat="59.298554929" lon="18.0071689747">
        <ele>40.8</ele>
        <time>2011-05-01T15:05:03Z</time>
      </trkpt>
      <trkpt lat="59.298453927" lon="18.0068859179">
        <ele>41.8</ele>
        <time>2011-05-01T15:05:06Z</time>
      </trkpt>
      <trkpt lat="59.2983609717" lon="18.0066079739">
        <ele>42.4</ele>
        <time>2011-05-01T15:05:09Z</time>
      </trkpt>
      <trkpt lat="59.2982689384" lon="18.0063339695">
        <ele>42.8</ele>
        <time>2011-05-01T15:05:12Z</time>
      </trkpt>
      <trkpt lat="59.298163997" lon="18.0060659163">
        <ele>42.4</ele>
        <time>2011-05-01T15:05:15Z</time>
      </trkpt>
      <trkpt lat="59.2980349995" lon="18.0057949293">
        <ele>41.4</ele>
        <time>2011-05-01T15:05:18Z</time>
      </trkpt>
      <trkpt lat="59.2979869712" lon="18.005701974">
        <ele>40.8</ele>
        <time>2011-05-01T15:05:19Z</time>
      </trkpt>
      <trkpt lat="59.2978299782" lon="18.0054179952">
        <ele>40.4</ele>
        <time>2011-05-01T15:05:22Z</time>
      </trkpt>
      <trkpt lat="59.2976719793" lon="18.0051199347">
        <ele>40.4</ele>
        <time>2011-05-01T15:05:25Z</time>
      </trkpt>
      <trkpt lat="59.2975779343" lon="18.0049289949">
        <ele>40.8</ele>
        <time>2011-05-01T15:05:27Z</time>
      </trkpt>
      <trkpt lat="59.2973909341" lon="18.0046259891">
        <ele>40.4</ele>
        <time>2011-05-01T15:05:31Z</time>
      </trkpt>
      <trkpt lat="59.2973409779" lon="18.0045489594">
        <ele>40</ele>
        <time>2011-05-01T15:05:32Z</time>
      </trkpt>
      <trkpt lat="59.2971819732" lon="18.0042939819">
        <ele>39.4</ele>
        <time>2011-05-01T15:05:35Z</time>
      </trkpt>
      <trkpt lat="59.2970089708" lon="18.0040319636">
        <ele>38.4</ele>
        <time>2011-05-01T15:05:38Z</time>
      </trkpt>
      <trkpt lat="59.2968409974" lon="18.0037819315">
        <ele>38.4</ele>
        <time>2011-05-01T15:05:41Z</time>
      </trkpt>
      <trkpt lat="59.2966779694" lon="18.0035379343">
        <ele>38</ele>
        <time>2011-05-01T15:05:44Z</time>
      </trkpt>
      <trkpt lat="59.2965109181" lon="18.0032989662">
        <ele>37.6</ele>
        <time>2011-05-01T15:05:47Z</time>
      </trkpt>
      <trkpt lat="59.2963439506" lon="18.0030939449">
        <ele>37.6</ele>
        <time>2011-05-01T15:05:50Z</time>
      </trkpt>
      <trkpt lat="59.2961489875" lon="18.002928989">
        <ele>36</ele>
        <time>2011-05-01T15:05:54Z</time>
      </trkpt>
      <trkpt lat="59.29605796" lon="18.0028189346">
        <ele>35.6</ele>
        <time>2011-05-01T15:05:56Z</time>
      </trkpt>
      <trkpt lat="59.2959749792" lon="18.002759926">
        <ele>34.6</ele>
        <time>2011-05-01T15:05:58Z</time>
      </trkpt>
      <trkpt lat="59.2958079278" lon="18.0029629357">
        <ele>33.2</ele>
        <time>2011-05-01T15:06:02Z</time>
      </trkpt>
      <trkpt lat="59.2955969553" lon="18.0034399498">
        <ele>32.2</ele>
        <time>2011-05-01T15:06:07Z</time>
      </trkpt>
      <trkpt lat="59.2955259606" lon="18.003683947">
        <ele>32.8</ele>
        <time>2011-05-01T15:06:13Z</time>
      </trkpt>
      <trkpt lat="59.2953149881" lon="18.0037629884">
        <ele>32.2</ele>
        <time>2011-05-01T15:06:18Z</time>
      </trkpt>
      <trkpt lat="59.2952699773" lon="18.0037919898">
        <ele>32.8</ele>
        <time>2011-05-01T15:06:19Z</time>
      </trkpt>
      <trkpt lat="59.2950529698" lon="18.0039369967">
        <ele>32.2</ele>
        <time>2011-05-01T15:06:24Z</time>
      </trkpt>
      <trkpt lat="59.2948629521" lon="18.0040399265">
        <ele>31.2</ele>
        <time>2011-05-01T15:06:29Z</time>
      </trkpt>
      <trkpt lat="59.294756921" lon="18.0037309695">
        <ele>31.2</ele>
        <time>2011-05-01T15:06:33Z</time>
      </trkpt>
      <trkpt lat="59.2945599463" lon="18.0034169834">
        <ele>30.4</ele>
        <time>2011-05-01T15:06:37Z</time>
      </trkpt>
      <trkpt lat="59.2944209743" lon="18.0031329207">
        <ele>30.8</ele>
        <time>2011-05-01T15:06:40Z</time>
      </trkpt>
      <trkpt lat="59.294284936" lon="18.0028509535">
        <ele>30.8</ele>
        <time>2011-05-01T15:06:43Z</time>
      </trkpt>
      <trkpt lat="59.2941519991" lon="18.0025709979">
        <ele>31.2</ele>
        <time>2011-05-01T15:06:46Z</time>
      </trkpt>
      <trkpt lat="59.2940219957" lon="18.0022949819">
        <ele>31.8</ele>
        <time>2011-05-01T15:06:49Z</time>
      </trkpt>
      <trkpt lat="59.2938919924" lon="18.0020279344">
        <ele>31.2</ele>
        <time>2011-05-01T15:06:52Z</time>
      </trkpt>
      <trkpt lat="59.2937609833" lon="18.0017629825">
        <ele>31.8</ele>
        <time>2011-05-01T15:06:55Z</time>
      </trkpt>
      <trkpt lat="59.2936229333" lon="18.0015029758">
        <ele>31.2</ele>
        <time>2011-05-01T15:06:58Z</time>
      </trkpt>
      <trkpt lat="59.2934839614" lon="18.0012519378">
        <ele>30.8</ele>
        <time>2011-05-01T15:07:01Z</time>
      </trkpt>
      <trkpt lat="59.2933559697" lon="18.0010079406">
        <ele>31.2</ele>
        <time>2011-05-01T15:07:04Z</time>
      </trkpt>
      <trkpt lat="59.2933169939" lon="18.0009329226">
        <ele>31.2</ele>
        <time>2011-05-01T15:07:05Z</time>
      </trkpt>
      <trkpt lat="59.2931189295" lon="18.0007319245">
        <ele>31.8</ele>
        <time>2011-05-01T15:07:10Z</time>
      </trkpt>
      <trkpt lat="59.2929909378" lon="18.0006289948">
        <ele>32.8</ele>
        <time>2011-05-01T15:07:15Z</time>
      </trkpt>
      <trkpt lat="59.2929859925" lon="18.000615919">
        <ele>32.8</ele>
        <time>2011-05-01T15:07:16Z</time>
      </trkpt>
      <trkpt lat="59.2929789517" lon="18.0006269831">
        <ele>32.8</ele>
        <time>2011-05-01T15:08:28Z</time>
      </trkpt>
      <trkpt lat="59.2929749284" lon="18.0006259773">
        <ele>32.8</ele>
        <time>2011-05-01T15:08:29Z</time>
      </trkpt>
    </trkseg>
  </trk>
</gpx>